<?xml version='1.0' encoding='UTF-8'?><gpx version="1.1" creator="JPX - https://github.com/jenetics/jpx" xmlns="http://www.topografix.com/GPX/1/1"><trk><trkseg><trkpt lat="39.59989" lon="15.8604067"><ele>7.999999999999999</ele><time>2026-04-27T05:54:11.276Z</time></trkpt><trkpt lat="39.5998717" lon="15.8605283"><ele>8.0</ele><time>2026-04-27T05:54:13.308Z</time></trkpt><trkpt lat="39.5998883" lon="15.8606783"><ele>8.0</ele><time>2026-04-27T05:54:15.273Z</time></trkpt><trkpt lat="39.5998933" lon="15.8607633"><ele>8.0</ele><time>2026-04-27T05:54:16.271Z</time></trkpt><trkpt lat="39.5998883" lon="15.860855"><ele>7.999999999999999</ele><time>2026-04-27T05:54:17.278Z</time></trkpt><trkpt lat="39.5998867" lon="15.8609417"><ele>8.0</ele><time>2026-04-27T05:54:18.272Z</time></trkpt><trkpt lat="39.5998817" lon="15.861025"><ele>8.333333333333332</ele><time>2026-04-27T05:54:19.3Z</time></trkpt><trkpt lat="39.5998783" lon="15.8611367"><ele>8.666666666666666</ele><time>2026-04-27T05:54:21.273Z</time></trkpt><trkpt lat="39.5998533" lon="15.8612217"><ele>9.0</ele><time>2026-04-27T05:54:26.266Z</time></trkpt><trkpt lat="39.5997667" lon="15.861245"><ele>9.333333333333334</ele><time>2026-04-27T05:54:54.279Z</time></trkpt><trkpt lat="39.5996833" lon="15.8612317"><ele>9.666666666666668</ele><time>2026-04-27T05:54:56.276Z</time></trkpt><trkpt lat="39.59959" lon="15.86123"><ele>10.0</ele><time>2026-04-27T05:54:58.271Z</time></trkpt><trkpt lat="39.5994717" lon="15.861245"><ele>10.0</ele><time>2026-04-27T05:55:00.266Z</time></trkpt><trkpt lat="39.5994033" lon="15.8612533"><ele>10.0</ele><time>2026-04-27T05:55:01.273Z</time></trkpt><trkpt lat="39.59933" lon="15.8612617"><ele>10.0</ele><time>2026-04-27T05:55:02.273Z</time></trkpt><trkpt lat="39.59921" lon="15.861285"><ele>10.0</ele><time>2026-04-27T05:55:04.271Z</time></trkpt><trkpt lat="39.5990967" lon="15.86132"><ele>10.0</ele><time>2026-04-27T05:55:06.271Z</time></trkpt><trkpt lat="39.599035" lon="15.8613417"><ele>10.0</ele><time>2026-04-27T05:55:07.291Z</time></trkpt><trkpt lat="39.5989167" lon="15.8613667"><ele>10.0</ele><time>2026-04-27T05:55:09.271Z</time></trkpt><trkpt lat="39.5988533" lon="15.8613717"><ele>10.0</ele><time>2026-04-27T05:55:10.273Z</time></trkpt><trkpt lat="39.5987817" lon="15.8613767"><ele>10.0</ele><time>2026-04-27T05:55:11.273Z</time></trkpt><trkpt lat="39.59871" lon="15.861385"><ele>10.0</ele><time>2026-04-27T05:55:12.277Z</time></trkpt><trkpt lat="39.5986417" lon="15.861395"><ele>10.0</ele><time>2026-04-27T05:55:13.295Z</time></trkpt><trkpt lat="39.5985717" lon="15.8614067"><ele>10.0</ele><time>2026-04-27T05:55:14.272Z</time></trkpt><trkpt lat="39.598505" lon="15.86142"><ele>10.0</ele><time>2026-04-27T05:55:15.272Z</time></trkpt><trkpt lat="39.59838" lon="15.8614517"><ele>10.0</ele><time>2026-04-27T05:55:17.27Z</time></trkpt><trkpt lat="39.5983133" lon="15.861465"><ele>10.0</ele><time>2026-04-27T05:55:18.275Z</time></trkpt><trkpt lat="39.59824" lon="15.8614767"><ele>10.0</ele><time>2026-04-27T05:55:19.298Z</time></trkpt><trkpt lat="39.5981667" lon="15.8614933"><ele>10.0</ele><time>2026-04-27T05:55:20.273Z</time></trkpt><trkpt lat="39.5980833" lon="15.86151"><ele>10.0</ele><time>2026-04-27T05:55:21.271Z</time></trkpt><trkpt lat="39.597995" lon="15.86153"><ele>10.0</ele><time>2026-04-27T05:55:22.273Z</time></trkpt><trkpt lat="39.5979083" lon="15.8615517"><ele>9.833333333333334</ele><time>2026-04-27T05:55:23.274Z</time></trkpt><trkpt lat="39.5978183" lon="15.8615767"><ele>9.666666666666668</ele><time>2026-04-27T05:55:24.276Z</time></trkpt><trkpt lat="39.5977283" lon="15.8616033"><ele>9.5</ele><time>2026-04-27T05:55:25.275Z</time></trkpt><trkpt lat="39.5976433" lon="15.8616283"><ele>9.333333333333334</ele><time>2026-04-27T05:55:26.271Z</time></trkpt><trkpt lat="39.597555" lon="15.861655"><ele>9.166666666666666</ele><time>2026-04-27T05:55:27.273Z</time></trkpt><trkpt lat="39.59747" lon="15.8616767"><ele>9.0</ele><time>2026-04-27T05:55:28.277Z</time></trkpt><trkpt lat="39.5973883" lon="15.8617017"><ele>9.0</ele><time>2026-04-27T05:55:29.271Z</time></trkpt><trkpt lat="39.5973067" lon="15.86173"><ele>9.0</ele><time>2026-04-27T05:55:30.276Z</time></trkpt><trkpt lat="39.597225" lon="15.8617633"><ele>9.0</ele><time>2026-04-27T05:55:31.274Z</time></trkpt><trkpt lat="39.597145" lon="15.8617983"><ele>9.0</ele><time>2026-04-27T05:55:32.274Z</time></trkpt><trkpt lat="39.5970633" lon="15.86183"><ele>9.0</ele><time>2026-04-27T05:55:33.268Z</time></trkpt><trkpt lat="39.5969817" lon="15.8618617"><ele>9.0</ele><time>2026-04-27T05:55:34.277Z</time></trkpt><trkpt lat="39.5968983" lon="15.861895"><ele>9.5</ele><time>2026-04-27T05:55:35.272Z</time></trkpt><trkpt lat="39.5968117" lon="15.8619283"><ele>10.0</ele><time>2026-04-27T05:55:36.273Z</time></trkpt><trkpt lat="39.5967233" lon="15.8619633"><ele>10.5</ele><time>2026-04-27T05:55:37.305Z</time></trkpt><trkpt lat="39.596635" lon="15.8620017"><ele>11.0</ele><time>2026-04-27T05:55:38.271Z</time></trkpt><trkpt lat="39.596555" lon="15.8620417"><ele>11.5</ele><time>2026-04-27T05:55:39.282Z</time></trkpt><trkpt lat="39.596475" lon="15.8620817"><ele>12.0</ele><time>2026-04-27T05:55:40.274Z</time></trkpt><trkpt lat="39.596395" lon="15.86212"><ele>12.0</ele><time>2026-04-27T05:55:41.28Z</time></trkpt><trkpt lat="39.59631" lon="15.8621567"><ele>12.0</ele><time>2026-04-27T05:55:42.272Z</time></trkpt><trkpt lat="39.5962283" lon="15.86219"><ele>12.0</ele><time>2026-04-27T05:55:43.293Z</time></trkpt><trkpt lat="39.59614" lon="15.8622233"><ele>12.0</ele><time>2026-04-27T05:55:44.269Z</time></trkpt><trkpt lat="39.5960517" lon="15.862255"><ele>12.0</ele><time>2026-04-27T05:55:45.268Z</time></trkpt><trkpt lat="39.5959717" lon="15.8622883"><ele>12.0</ele><time>2026-04-27T05:55:46.271Z</time></trkpt><trkpt lat="39.5959" lon="15.8623217"><ele>11.4</ele><time>2026-04-27T05:55:47.271Z</time></trkpt><trkpt lat="39.595835" lon="15.8623517"><ele>10.799999999999999</ele><time>2026-04-27T05:55:48.269Z</time></trkpt><trkpt lat="39.5957417" lon="15.8624183"><ele>10.2</ele><time>2026-04-27T05:55:50.277Z</time></trkpt><trkpt lat="39.5956917" lon="15.8625117"><ele>9.6</ele><time>2026-04-27T05:55:52.271Z</time></trkpt><trkpt lat="39.5957317" lon="15.8626833"><ele>9.0</ele><time>2026-04-27T05:55:54.276Z</time></trkpt><trkpt lat="39.5957683" lon="15.8627667"><ele>12.0</ele><time>2026-04-27T05:55:55.269Z</time></trkpt><trkpt lat="39.5958617" lon="15.86284"><ele>15.0</ele><time>2026-04-27T05:55:56.275Z</time></trkpt><trkpt lat="39.5959767" lon="15.8628967"><ele>18.0</ele><time>2026-04-27T05:55:57.271Z</time></trkpt><trkpt lat="39.5960783" lon="15.862945"><ele>21.0</ele><time>2026-04-27T05:55:58.278Z</time></trkpt><trkpt lat="39.5961733" lon="15.862995"><ele>24.0</ele><time>2026-04-27T05:55:59.272Z</time></trkpt><trkpt lat="39.5963017" lon="15.863035"><ele>24.0</ele><time>2026-04-27T05:56:00.274Z</time></trkpt><trkpt lat="39.596405" lon="15.86307"><ele>24.0</ele><time>2026-04-27T05:56:01.274Z</time></trkpt><trkpt lat="39.5965183" lon="15.8631033"><ele>24.0</ele><time>2026-04-27T05:56:02.275Z</time></trkpt><trkpt lat="39.59664" lon="15.8631317"><ele>24.0</ele><time>2026-04-27T05:56:03.267Z</time></trkpt><trkpt lat="39.59677" lon="15.86315"><ele>24.0</ele><time>2026-04-27T05:56:04.278Z</time></trkpt><trkpt lat="39.5969" lon="15.8631517"><ele>24.0</ele><time>2026-04-27T05:56:05.274Z</time></trkpt><trkpt lat="39.59702" lon="15.8631517"><ele>24.0</ele><time>2026-04-27T05:56:06.27Z</time></trkpt><trkpt lat="39.5971317" lon="15.8631533"><ele>24.0</ele><time>2026-04-27T05:56:07.29Z</time></trkpt><trkpt lat="39.5972333" lon="15.863155"><ele>24.5</ele><time>2026-04-27T05:56:08.265Z</time></trkpt><trkpt lat="39.5973283" lon="15.8631567"><ele>25.0</ele><time>2026-04-27T05:56:09.284Z</time></trkpt><trkpt lat="39.5974167" lon="15.863155"><ele>25.5</ele><time>2026-04-27T05:56:10.273Z</time></trkpt><trkpt lat="39.5974917" lon="15.8631683"><ele>26.0</ele><time>2026-04-27T05:56:11.271Z</time></trkpt><trkpt lat="39.59758" lon="15.863225"><ele>26.5</ele><time>2026-04-27T05:56:13.296Z</time></trkpt><trkpt lat="39.5975267" lon="15.8632933"><ele>27.0</ele><time>2026-04-27T05:56:15.267Z</time></trkpt><trkpt lat="39.597405" lon="15.86332"><ele>27.0</ele><time>2026-04-27T05:56:17.275Z</time></trkpt><trkpt lat="39.5973133" lon="15.8633267"><ele>27.000000000000004</ele><time>2026-04-27T05:56:18.273Z</time></trkpt><trkpt lat="39.5972167" lon="15.86334"><ele>27.000000000000004</ele><time>2026-04-27T05:56:19.295Z</time></trkpt><trkpt lat="39.5971083" lon="15.863355"><ele>27.0</ele><time>2026-04-27T05:56:20.265Z</time></trkpt><trkpt lat="39.5969933" lon="15.863375"><ele>27.0</ele><time>2026-04-27T05:56:21.268Z</time></trkpt><trkpt lat="39.59687" lon="15.8633983"><ele>26.25</ele><time>2026-04-27T05:56:22.279Z</time></trkpt><trkpt lat="39.596735" lon="15.8634217"><ele>25.5</ele><time>2026-04-27T05:56:23.273Z</time></trkpt><trkpt lat="39.5966" lon="15.8634483"><ele>24.75</ele><time>2026-04-27T05:56:24.268Z</time></trkpt><trkpt lat="39.5964617" lon="15.8634767"><ele>24.0</ele><time>2026-04-27T05:56:25.278Z</time></trkpt><trkpt lat="39.5963217" lon="15.863515"><ele>29.0</ele><time>2026-04-27T05:56:26.271Z</time></trkpt><trkpt lat="39.5961833" lon="15.86357"><ele>34.0</ele><time>2026-04-27T05:56:27.266Z</time></trkpt><trkpt lat="39.5960467" lon="15.8636417"><ele>39.0</ele><time>2026-04-27T05:56:28.274Z</time></trkpt><trkpt lat="39.5959117" lon="15.863725"><ele>44.0</ele><time>2026-04-27T05:56:29.269Z</time></trkpt><trkpt lat="39.59578" lon="15.8638167"><ele>45.0</ele><time>2026-04-27T05:56:30.272Z</time></trkpt><trkpt lat="39.59565" lon="15.8639167"><ele>46.0</ele><time>2026-04-27T05:56:31.281Z</time></trkpt><trkpt lat="39.595515" lon="15.86402"><ele>47.0</ele><time>2026-04-27T05:56:32.279Z</time></trkpt><trkpt lat="39.5953833" lon="15.864125"><ele>46.666666666666664</ele><time>2026-04-27T05:56:33.269Z</time></trkpt><trkpt lat="39.5952483" lon="15.864235"><ele>46.333333333333336</ele><time>2026-04-27T05:56:34.276Z</time></trkpt><trkpt lat="39.59511" lon="15.864345"><ele>46.0</ele><time>2026-04-27T05:56:35.271Z</time></trkpt><trkpt lat="39.5949717" lon="15.8644583"><ele>46.0</ele><time>2026-04-27T05:56:36.273Z</time></trkpt><trkpt lat="39.594835" lon="15.8645733"><ele>46.0</ele><time>2026-04-27T05:56:37.302Z</time></trkpt><trkpt lat="39.5947" lon="15.8646867"><ele>46.0</ele><time>2026-04-27T05:56:38.269Z</time></trkpt><trkpt lat="39.5945783" lon="15.8648067"><ele>44.0</ele><time>2026-04-27T05:56:39.275Z</time></trkpt><trkpt lat="39.5944667" lon="15.8649367"><ele>42.0</ele><time>2026-04-27T05:56:40.274Z</time></trkpt><trkpt lat="39.5943617" lon="15.8650867"><ele>40.0</ele><time>2026-04-27T05:56:41.273Z</time></trkpt><trkpt lat="39.5942617" lon="15.865255"><ele>40.0</ele><time>2026-04-27T05:56:42.273Z</time></trkpt><trkpt lat="39.5941617" lon="15.8654217"><ele>40.0</ele><time>2026-04-27T05:56:43.295Z</time></trkpt><trkpt lat="39.5940667" lon="15.8655933"><ele>40.0</ele><time>2026-04-27T05:56:44.27Z</time></trkpt><trkpt lat="39.5939717" lon="15.86576"><ele>40.0</ele><time>2026-04-27T05:56:45.273Z</time></trkpt><trkpt lat="39.59388" lon="15.8659333"><ele>40.0</ele><time>2026-04-27T05:56:46.274Z</time></trkpt><trkpt lat="39.5937867" lon="15.8661017"><ele>40.0</ele><time>2026-04-27T05:56:47.268Z</time></trkpt><trkpt lat="39.59369" lon="15.86627"><ele>37.66666666666667</ele><time>2026-04-27T05:56:48.267Z</time></trkpt><trkpt lat="39.5935917" lon="15.866435"><ele>35.333333333333336</ele><time>2026-04-27T05:56:49.291Z</time></trkpt><trkpt lat="39.5934917" lon="15.8666"><ele>33.0</ele><time>2026-04-27T05:56:50.266Z</time></trkpt><trkpt lat="39.5933883" lon="15.8667633"><ele>38.66666666666667</ele><time>2026-04-27T05:56:51.274Z</time></trkpt><trkpt lat="39.593285" lon="15.866925"><ele>44.333333333333336</ele><time>2026-04-27T05:56:52.273Z</time></trkpt><trkpt lat="39.5931683" lon="15.8670783"><ele>50.0</ele><time>2026-04-27T05:56:53.275Z</time></trkpt><trkpt lat="39.5930517" lon="15.8672233"><ele>50.0</ele><time>2026-04-27T05:56:54.275Z</time></trkpt><trkpt lat="39.5929283" lon="15.8673617"><ele>50.0</ele><time>2026-04-27T05:56:55.274Z</time></trkpt><trkpt lat="39.5927967" lon="15.8674883"><ele>50.0</ele><time>2026-04-27T05:56:56.275Z</time></trkpt><trkpt lat="39.5926583" lon="15.8676067"><ele>50.66666666666667</ele><time>2026-04-27T05:56:57.271Z</time></trkpt><trkpt lat="39.5925117" lon="15.86771"><ele>51.33333333333333</ele><time>2026-04-27T05:56:58.27Z</time></trkpt><trkpt lat="39.592365" lon="15.867805"><ele>52.0</ele><time>2026-04-27T05:56:59.27Z</time></trkpt><trkpt lat="39.5922133" lon="15.86789"><ele>52.0</ele><time>2026-04-27T05:57:00.267Z</time></trkpt><trkpt lat="39.5920617" lon="15.86796"><ele>52.0</ele><time>2026-04-27T05:57:01.27Z</time></trkpt><trkpt lat="39.5919067" lon="15.8680217"><ele>52.0</ele><time>2026-04-27T05:57:02.268Z</time></trkpt><trkpt lat="39.5917467" lon="15.868075"><ele>49.0</ele><time>2026-04-27T05:57:03.273Z</time></trkpt><trkpt lat="39.5915817" lon="15.8681233"><ele>46.0</ele><time>2026-04-27T05:57:04.27Z</time></trkpt><trkpt lat="39.5914183" lon="15.8681717"><ele>43.0</ele><time>2026-04-27T05:57:05.278Z</time></trkpt><trkpt lat="39.5912467" lon="15.8682217"><ele>42.333333333333336</ele><time>2026-04-27T05:57:06.274Z</time></trkpt><trkpt lat="39.5910733" lon="15.8682667"><ele>41.666666666666664</ele><time>2026-04-27T05:57:07.297Z</time></trkpt><trkpt lat="39.5908983" lon="15.86831"><ele>41.0</ele><time>2026-04-27T05:57:08.271Z</time></trkpt><trkpt lat="39.5907233" lon="15.8683567"><ele>41.0</ele><time>2026-04-27T05:57:09.268Z</time></trkpt><trkpt lat="39.59055" lon="15.8684067"><ele>41.0</ele><time>2026-04-27T05:57:10.271Z</time></trkpt><trkpt lat="39.5903783" lon="15.8684617"><ele>41.0</ele><time>2026-04-27T05:57:11.278Z</time></trkpt><trkpt lat="39.5902033" lon="15.86852"><ele>43.0</ele><time>2026-04-27T05:57:12.27Z</time></trkpt><trkpt lat="39.5900317" lon="15.8685867"><ele>45.0</ele><time>2026-04-27T05:57:13.302Z</time></trkpt><trkpt lat="39.589865" lon="15.86867"><ele>47.0</ele><time>2026-04-27T05:57:14.274Z</time></trkpt><trkpt lat="39.5896983" lon="15.868765"><ele>47.0</ele><time>2026-04-27T05:57:15.27Z</time></trkpt><trkpt lat="39.58954" lon="15.8688617"><ele>47.0</ele><time>2026-04-27T05:57:16.276Z</time></trkpt><trkpt lat="39.589385" lon="15.868955"><ele>47.0</ele><time>2026-04-27T05:57:17.276Z</time></trkpt><trkpt lat="39.5892367" lon="15.869045"><ele>47.0</ele><time>2026-04-27T05:57:18.273Z</time></trkpt><trkpt lat="39.5890983" lon="15.8691267"><ele>47.0</ele><time>2026-04-27T05:57:19.294Z</time></trkpt><trkpt lat="39.5889717" lon="15.8692083"><ele>47.0</ele><time>2026-04-27T05:57:20.271Z</time></trkpt><trkpt lat="39.5888567" lon="15.8692817"><ele>47.0</ele><time>2026-04-27T05:57:21.27Z</time></trkpt><trkpt lat="39.5887533" lon="15.8693533"><ele>45.0</ele><time>2026-04-27T05:57:22.275Z</time></trkpt><trkpt lat="39.5886533" lon="15.8694233"><ele>43.0</ele><time>2026-04-27T05:57:23.273Z</time></trkpt><trkpt lat="39.5885617" lon="15.8694967"><ele>41.0</ele><time>2026-04-27T05:57:24.273Z</time></trkpt><trkpt lat="39.5884717" lon="15.8695683"><ele>39.0</ele><time>2026-04-27T05:57:25.327Z</time></trkpt><trkpt lat="39.5883783" lon="15.8696367"><ele>37.0</ele><time>2026-04-27T05:57:26.27Z</time></trkpt><trkpt lat="39.588285" lon="15.8697"><ele>37.0</ele><time>2026-04-27T05:57:27.27Z</time></trkpt><trkpt lat="39.5881883" lon="15.86976"><ele>37.0</ele><time>2026-04-27T05:57:28.271Z</time></trkpt><trkpt lat="39.58809" lon="15.869815"><ele>37.0</ele><time>2026-04-27T05:57:29.273Z</time></trkpt><trkpt lat="39.5879867" lon="15.8698717"><ele>37.0</ele><time>2026-04-27T05:57:30.27Z</time></trkpt><trkpt lat="39.5878833" lon="15.86993"><ele>37.0</ele><time>2026-04-27T05:57:31.269Z</time></trkpt><trkpt lat="39.58778" lon="15.869995"><ele>36.5</ele><time>2026-04-27T05:57:32.272Z</time></trkpt><trkpt lat="39.5876767" lon="15.87006"><ele>36.0</ele><time>2026-04-27T05:57:33.27Z</time></trkpt><trkpt lat="39.5875683" lon="15.870125"><ele>35.5</ele><time>2026-04-27T05:57:34.273Z</time></trkpt><trkpt lat="39.5874617" lon="15.8701833"><ele>35.0</ele><time>2026-04-27T05:57:35.276Z</time></trkpt><trkpt lat="39.5873517" lon="15.87024"><ele>33.5</ele><time>2026-04-27T05:57:36.273Z</time></trkpt><trkpt lat="39.5872367" lon="15.8702917"><ele>32.0</ele><time>2026-04-27T05:57:37.297Z</time></trkpt><trkpt lat="39.5871183" lon="15.870335"><ele>30.5</ele><time>2026-04-27T05:57:38.27Z</time></trkpt><trkpt lat="39.5869983" lon="15.87037"><ele>29.0</ele><time>2026-04-27T05:57:39.271Z</time></trkpt><trkpt lat="39.5868717" lon="15.8704017"><ele>28.75</ele><time>2026-04-27T05:57:40.269Z</time></trkpt><trkpt lat="39.58674" lon="15.8704333"><ele>28.5</ele><time>2026-04-27T05:57:41.268Z</time></trkpt><trkpt lat="39.5866" lon="15.8704617"><ele>28.25</ele><time>2026-04-27T05:57:42.274Z</time></trkpt><trkpt lat="39.5864567" lon="15.8704817"><ele>28.0</ele><time>2026-04-27T05:57:43.297Z</time></trkpt><trkpt lat="39.5863167" lon="15.8704917"><ele>28.75</ele><time>2026-04-27T05:57:44.272Z</time></trkpt><trkpt lat="39.586175" lon="15.8705"><ele>29.5</ele><time>2026-04-27T05:57:45.268Z</time></trkpt><trkpt lat="39.586025" lon="15.8705033"><ele>30.25</ele><time>2026-04-27T05:57:46.273Z</time></trkpt><trkpt lat="39.5858717" lon="15.8704983"><ele>31.0</ele><time>2026-04-27T05:57:47.268Z</time></trkpt><trkpt lat="39.5857183" lon="15.87049"><ele>31.0</ele><time>2026-04-27T05:57:48.272Z</time></trkpt><trkpt lat="39.585565" lon="15.8704717"><ele>31.0</ele><time>2026-04-27T05:57:49.291Z</time></trkpt><trkpt lat="39.5854117" lon="15.8704467"><ele>31.0</ele><time>2026-04-27T05:57:50.274Z</time></trkpt><trkpt lat="39.5852517" lon="15.87041"><ele>38.66666666666667</ele><time>2026-04-27T05:57:51.272Z</time></trkpt><trkpt lat="39.585095" lon="15.8703717"><ele>46.333333333333336</ele><time>2026-04-27T05:57:52.278Z</time></trkpt><trkpt lat="39.5849383" lon="15.8703317"><ele>54.0</ele><time>2026-04-27T05:57:53.271Z</time></trkpt><trkpt lat="39.5847817" lon="15.87029"><ele>54.0</ele><time>2026-04-27T05:57:54.272Z</time></trkpt><trkpt lat="39.5846233" lon="15.8702467"><ele>54.0</ele><time>2026-04-27T05:57:55.272Z</time></trkpt><trkpt lat="39.584465" lon="15.870205"><ele>54.0</ele><time>2026-04-27T05:57:56.27Z</time></trkpt><trkpt lat="39.5843067" lon="15.8701633"><ele>59.0</ele><time>2026-04-27T05:57:57.271Z</time></trkpt><trkpt lat="39.5841483" lon="15.8701133"><ele>64.0</ele><time>2026-04-27T05:57:58.27Z</time></trkpt><trkpt lat="39.5839867" lon="15.8700633"><ele>69.0</ele><time>2026-04-27T05:57:59.27Z</time></trkpt><trkpt lat="39.5838183" lon="15.8700117"><ele>59.666666666666664</ele><time>2026-04-27T05:58:00.271Z</time></trkpt><trkpt lat="39.58365" lon="15.869965"><ele>50.33333333333333</ele><time>2026-04-27T05:58:01.271Z</time></trkpt><trkpt lat="39.583485" lon="15.86992"><ele>41.0</ele><time>2026-04-27T05:58:02.274Z</time></trkpt><trkpt lat="39.5833183" lon="15.8698783"><ele>41.0</ele><time>2026-04-27T05:58:03.276Z</time></trkpt><trkpt lat="39.5831467" lon="15.8698383"><ele>41.0</ele><time>2026-04-27T05:58:04.276Z</time></trkpt><trkpt lat="39.5829733" lon="15.8697967"><ele>41.0</ele><time>2026-04-27T05:58:05.271Z</time></trkpt><trkpt lat="39.582795" lon="15.8697633"><ele>40.33333333333333</ele><time>2026-04-27T05:58:06.277Z</time></trkpt><trkpt lat="39.5826117" lon="15.869735"><ele>39.666666666666664</ele><time>2026-04-27T05:58:07.299Z</time></trkpt><trkpt lat="39.582425" lon="15.8697117"><ele>39.0</ele><time>2026-04-27T05:58:08.277Z</time></trkpt><trkpt lat="39.5822383" lon="15.86969"><ele>39.0</ele><time>2026-04-27T05:58:09.273Z</time></trkpt><trkpt lat="39.5820517" lon="15.8696717"><ele>39.0</ele><time>2026-04-27T05:58:10.268Z</time></trkpt><trkpt lat="39.5818717" lon="15.8696583"><ele>39.0</ele><time>2026-04-27T05:58:11.276Z</time></trkpt><trkpt lat="39.5816933" lon="15.869645"><ele>38.666666666666664</ele><time>2026-04-27T05:58:12.271Z</time></trkpt><trkpt lat="39.581525" lon="15.8696333"><ele>38.33333333333333</ele><time>2026-04-27T05:58:13.305Z</time></trkpt><trkpt lat="39.581365" lon="15.869625"><ele>38.0</ele><time>2026-04-27T05:58:14.27Z</time></trkpt><trkpt lat="39.5812217" lon="15.86961"><ele>38.199999999999996</ele><time>2026-04-27T05:58:15.271Z</time></trkpt><trkpt lat="39.581095" lon="15.8695983"><ele>38.4</ele><time>2026-04-27T05:58:16.271Z</time></trkpt><trkpt lat="39.5809817" lon="15.86959"><ele>38.599999999999994</ele><time>2026-04-27T05:58:17.269Z</time></trkpt><trkpt lat="39.5808783" lon="15.8695883"><ele>38.8</ele><time>2026-04-27T05:58:18.273Z</time></trkpt><trkpt lat="39.580785" lon="15.8695883"><ele>39.0</ele><time>2026-04-27T05:58:19.295Z</time></trkpt><trkpt lat="39.580695" lon="15.8695833"><ele>39.0</ele><time>2026-04-27T05:58:20.273Z</time></trkpt><trkpt lat="39.5806033" lon="15.8695683"><ele>39.0</ele><time>2026-04-27T05:58:21.27Z</time></trkpt><trkpt lat="39.580515" lon="15.869545"><ele>39.0</ele><time>2026-04-27T05:58:22.27Z</time></trkpt><trkpt lat="39.5804333" lon="15.8695133"><ele>39.0</ele><time>2026-04-27T05:58:23.267Z</time></trkpt><trkpt lat="39.58036" lon="15.86948"><ele>39.0</ele><time>2026-04-27T05:58:24.275Z</time></trkpt><trkpt lat="39.5802967" lon="15.8694483"><ele>39.0</ele><time>2026-04-27T05:58:25.274Z</time></trkpt><trkpt lat="39.5801967" lon="15.869425"><ele>39.2</ele><time>2026-04-27T05:58:27.271Z</time></trkpt><trkpt lat="39.5801183" lon="15.8694667"><ele>39.4</ele><time>2026-04-27T06:03:31.273Z</time></trkpt><trkpt lat="39.580015" lon="15.8694583"><ele>39.6</ele><time>2026-04-27T06:05:26.263Z</time></trkpt><trkpt lat="39.5799333" lon="15.8695133"><ele>39.8</ele><time>2026-04-27T06:05:29.272Z</time></trkpt><trkpt lat="39.5798083" lon="15.8695217"><ele>40.0</ele><time>2026-04-27T06:05:31.31Z</time></trkpt><trkpt lat="39.57973" lon="15.8695217"><ele>40.0</ele><time>2026-04-27T06:05:32.266Z</time></trkpt><trkpt lat="39.5796383" lon="15.8695133"><ele>40.0</ele><time>2026-04-27T06:05:33.27Z</time></trkpt><trkpt lat="39.5795433" lon="15.8695083"><ele>40.0</ele><time>2026-04-27T06:05:34.271Z</time></trkpt><trkpt lat="39.5794383" lon="15.8695017"><ele>40.0</ele><time>2026-04-27T06:05:35.276Z</time></trkpt><trkpt lat="39.579335" lon="15.8694967"><ele>40.0</ele><time>2026-04-27T06:05:36.278Z</time></trkpt><trkpt lat="39.579235" lon="15.8694917"><ele>40.4</ele><time>2026-04-27T06:05:37.302Z</time></trkpt><trkpt lat="39.5791383" lon="15.8694883"><ele>40.8</ele><time>2026-04-27T06:05:38.271Z</time></trkpt><trkpt lat="39.579035" lon="15.8694883"><ele>41.2</ele><time>2026-04-27T06:05:39.262Z</time></trkpt><trkpt lat="39.5789217" lon="15.8694917"><ele>41.6</ele><time>2026-04-27T06:05:40.271Z</time></trkpt><trkpt lat="39.578805" lon="15.869495"><ele>42.0</ele><time>2026-04-27T06:05:41.278Z</time></trkpt><trkpt lat="39.5786833" lon="15.8695083"><ele>40.75</ele><time>2026-04-27T06:05:42.269Z</time></trkpt><trkpt lat="39.5785517" lon="15.8695283"><ele>39.5</ele><time>2026-04-27T06:05:43.297Z</time></trkpt><trkpt lat="39.57842" lon="15.86956"><ele>38.25</ele><time>2026-04-27T06:05:44.269Z</time></trkpt><trkpt lat="39.57828" lon="15.8696"><ele>37.0</ele><time>2026-04-27T06:05:45.266Z</time></trkpt><trkpt lat="39.578135" lon="15.86965"><ele>37.0</ele><time>2026-04-27T06:05:46.275Z</time></trkpt><trkpt lat="39.5779867" lon="15.8697083"><ele>37.0</ele><time>2026-04-27T06:05:47.267Z</time></trkpt><trkpt lat="39.5774867" lon="15.869925"><ele>36.0</ele><time>2026-04-27T06:05:50.271Z</time></trkpt><trkpt lat="39.5773083" lon="15.87001"><ele>35.0</ele><time>2026-04-27T06:05:51.271Z</time></trkpt><trkpt lat="39.57713" lon="15.8700967"><ele>34.0</ele><time>2026-04-27T06:05:52.268Z</time></trkpt><trkpt lat="39.57695" lon="15.8701867"><ele>34.0</ele><time>2026-04-27T06:05:53.272Z</time></trkpt><trkpt lat="39.5767667" lon="15.87028"><ele>34.0</ele><time>2026-04-27T06:05:54.269Z</time></trkpt><trkpt lat="39.5765783" lon="15.8703683"><ele>34.0</ele><time>2026-04-27T06:05:55.285Z</time></trkpt><trkpt lat="39.5763883" lon="15.8704583"><ele>34.0</ele><time>2026-04-27T06:05:56.282Z</time></trkpt><trkpt lat="39.5762" lon="15.8705517"><ele>34.0</ele><time>2026-04-27T06:05:57.273Z</time></trkpt><trkpt lat="39.5760067" lon="15.8706433"><ele>34.0</ele><time>2026-04-27T06:05:58.269Z</time></trkpt><trkpt lat="39.5758117" lon="15.8707333"><ele>32.333333333333336</ele><time>2026-04-27T06:05:59.274Z</time></trkpt><trkpt lat="39.5756133" lon="15.8708167"><ele>30.666666666666664</ele><time>2026-04-27T06:06:00.27Z</time></trkpt><trkpt lat="39.57541" lon="15.87089"><ele>29.0</ele><time>2026-04-27T06:06:01.273Z</time></trkpt><trkpt lat="39.5752033" lon="15.870955"><ele>29.0</ele><time>2026-04-27T06:06:02.266Z</time></trkpt><trkpt lat="39.5749883" lon="15.871015"><ele>29.0</ele><time>2026-04-27T06:06:03.275Z</time></trkpt><trkpt lat="39.5747667" lon="15.8710783"><ele>29.0</ele><time>2026-04-27T06:06:04.271Z</time></trkpt><trkpt lat="39.5745367" lon="15.8711483"><ele>27.5</ele><time>2026-04-27T06:06:05.265Z</time></trkpt><trkpt lat="39.5742933" lon="15.8712267"><ele>26.0</ele><time>2026-04-27T06:06:06.268Z</time></trkpt><trkpt lat="39.57405" lon="15.87131"><ele>26.0</ele><time>2026-04-27T06:06:07.302Z</time></trkpt><trkpt lat="39.573815" lon="15.8713917"><ele>26.0</ele><time>2026-04-27T06:06:08.272Z</time></trkpt><trkpt lat="39.5735917" lon="15.8714683"><ele>26.333333333333332</ele><time>2026-04-27T06:06:09.274Z</time></trkpt><trkpt lat="39.5733883" lon="15.8715383"><ele>26.666666666666664</ele><time>2026-04-27T06:06:10.268Z</time></trkpt><trkpt lat="39.5732033" lon="15.8716067"><ele>27.0</ele><time>2026-04-27T06:06:11.268Z</time></trkpt><trkpt lat="39.573035" lon="15.87166"><ele>27.0</ele><time>2026-04-27T06:06:12.266Z</time></trkpt><trkpt lat="39.5728817" lon="15.8717117"><ele>27.0</ele><time>2026-04-27T06:06:13.292Z</time></trkpt><trkpt lat="39.5727417" lon="15.8717583"><ele>27.0</ele><time>2026-04-27T06:06:14.265Z</time></trkpt><trkpt lat="39.5726067" lon="15.871805"><ele>27.0</ele><time>2026-04-27T06:06:15.267Z</time></trkpt><trkpt lat="39.572485" lon="15.8718467"><ele>27.0</ele><time>2026-04-27T06:06:16.285Z</time></trkpt><trkpt lat="39.5723683" lon="15.8718817"><ele>27.0</ele><time>2026-04-27T06:06:17.27Z</time></trkpt><trkpt lat="39.5722567" lon="15.8719183"><ele>27.0</ele><time>2026-04-27T06:06:18.273Z</time></trkpt><trkpt lat="39.5721467" lon="15.8719583"><ele>27.0</ele><time>2026-04-27T06:06:19.308Z</time></trkpt><trkpt lat="39.572035" lon="15.872"><ele>27.400000000000002</ele><time>2026-04-27T06:06:20.267Z</time></trkpt><trkpt lat="39.57193" lon="15.8720333"><ele>27.800000000000004</ele><time>2026-04-27T06:06:21.271Z</time></trkpt><trkpt lat="39.571835" lon="15.8720633"><ele>28.2</ele><time>2026-04-27T06:06:22.266Z</time></trkpt><trkpt lat="39.5717467" lon="15.8720917"><ele>28.6</ele><time>2026-04-27T06:06:23.268Z</time></trkpt><trkpt lat="39.571665" lon="15.8721183"><ele>29.0</ele><time>2026-04-27T06:06:24.28Z</time></trkpt><trkpt lat="39.571585" lon="15.8721433"><ele>29.0</ele><time>2026-04-27T06:06:25.334Z</time></trkpt><trkpt lat="39.5715083" lon="15.872165"><ele>29.0</ele><time>2026-04-27T06:06:26.26Z</time></trkpt><trkpt lat="39.571425" lon="15.8721933"><ele>29.0</ele><time>2026-04-27T06:06:27.27Z</time></trkpt><trkpt lat="39.5713383" lon="15.8722233"><ele>29.0</ele><time>2026-04-27T06:06:28.269Z</time></trkpt><trkpt lat="39.5712417" lon="15.8722583"><ele>29.0</ele><time>2026-04-27T06:06:29.273Z</time></trkpt><trkpt lat="39.5711317" lon="15.872295"><ele>28.25</ele><time>2026-04-27T06:06:30.272Z</time></trkpt><trkpt lat="39.571015" lon="15.872335"><ele>27.5</ele><time>2026-04-27T06:06:31.296Z</time></trkpt><trkpt lat="39.5708867" lon="15.8723783"><ele>26.75</ele><time>2026-04-27T06:06:32.265Z</time></trkpt><trkpt lat="39.57075" lon="15.8724267"><ele>26.0</ele><time>2026-04-27T06:06:33.278Z</time></trkpt><trkpt lat="39.5706067" lon="15.872475"><ele>26.0</ele><time>2026-04-27T06:06:34.267Z</time></trkpt><trkpt lat="39.57046" lon="15.872525"><ele>26.0</ele><time>2026-04-27T06:06:35.27Z</time></trkpt><trkpt lat="39.5703117" lon="15.872575"><ele>26.0</ele><time>2026-04-27T06:06:36.269Z</time></trkpt><trkpt lat="39.5701633" lon="15.872625"><ele>28.0</ele><time>2026-04-27T06:06:37.298Z</time></trkpt><trkpt lat="39.5700133" lon="15.8726783"><ele>30.0</ele><time>2026-04-27T06:06:38.266Z</time></trkpt><trkpt lat="39.5698633" lon="15.8727333"><ele>32.0</ele><time>2026-04-27T06:06:39.273Z</time></trkpt><trkpt lat="39.5697133" lon="15.8727783"><ele>32.0</ele><time>2026-04-27T06:06:40.27Z</time></trkpt><trkpt lat="39.569575" lon="15.8728233"><ele>32.0</ele><time>2026-04-27T06:06:41.277Z</time></trkpt><trkpt lat="39.569435" lon="15.8728717"><ele>32.0</ele><time>2026-04-27T06:06:42.274Z</time></trkpt><trkpt lat="39.5693033" lon="15.8729183"><ele>32.0</ele><time>2026-04-27T06:06:43.301Z</time></trkpt><trkpt lat="39.5691717" lon="15.8729633"><ele>31.5</ele><time>2026-04-27T06:06:44.268Z</time></trkpt><trkpt lat="39.5690367" lon="15.8730117"><ele>31.0</ele><time>2026-04-27T06:06:45.271Z</time></trkpt><trkpt lat="39.5689" lon="15.8730567"><ele>30.5</ele><time>2026-04-27T06:06:46.273Z</time></trkpt><trkpt lat="39.5687617" lon="15.8731083"><ele>30.0</ele><time>2026-04-27T06:06:47.274Z</time></trkpt><trkpt lat="39.5686183" lon="15.8731633"><ele>29.666666666666664</ele><time>2026-04-27T06:06:48.264Z</time></trkpt><trkpt lat="39.5684717" lon="15.8732233"><ele>29.333333333333332</ele><time>2026-04-27T06:06:49.293Z</time></trkpt><trkpt lat="39.5683183" lon="15.87329"><ele>29.0</ele><time>2026-04-27T06:06:50.268Z</time></trkpt><trkpt lat="39.568165" lon="15.873365"><ele>29.666666666666664</ele><time>2026-04-27T06:06:51.273Z</time></trkpt><trkpt lat="39.56801" lon="15.8734517"><ele>30.333333333333336</ele><time>2026-04-27T06:06:52.264Z</time></trkpt><trkpt lat="39.5678533" lon="15.8735483"><ele>31.0</ele><time>2026-04-27T06:06:53.276Z</time></trkpt><trkpt lat="39.5676967" lon="15.87366"><ele>28.666666666666668</ele><time>2026-04-27T06:06:54.269Z</time></trkpt><trkpt lat="39.567545" lon="15.8737883"><ele>26.333333333333336</ele><time>2026-04-27T06:06:55.335Z</time></trkpt><trkpt lat="39.5673933" lon="15.87392"><ele>24.0</ele><time>2026-04-27T06:06:56.274Z</time></trkpt><trkpt lat="39.56725" lon="15.874055"><ele>24.0</ele><time>2026-04-27T06:06:57.272Z</time></trkpt><trkpt lat="39.567105" lon="15.874185"><ele>24.0</ele><time>2026-04-27T06:06:58.278Z</time></trkpt><trkpt lat="39.5669583" lon="15.8743133"><ele>24.0</ele><time>2026-04-27T06:06:59.276Z</time></trkpt><trkpt lat="39.56681" lon="15.87444"><ele>30.0</ele><time>2026-04-27T06:07:00.277Z</time></trkpt><trkpt lat="39.56666" lon="15.8745567"><ele>36.0</ele><time>2026-04-27T06:07:01.3Z</time></trkpt><trkpt lat="39.5665067" lon="15.8746617"><ele>42.0</ele><time>2026-04-27T06:07:02.271Z</time></trkpt><trkpt lat="39.566345" lon="15.8747517"><ele>41.0</ele><time>2026-04-27T06:07:03.275Z</time></trkpt><trkpt lat="39.5661783" lon="15.8748283"><ele>40.0</ele><time>2026-04-27T06:07:04.272Z</time></trkpt><trkpt lat="39.56601" lon="15.8748933"><ele>39.0</ele><time>2026-04-27T06:07:05.272Z</time></trkpt><trkpt lat="39.5658433" lon="15.8749517"><ele>39.0</ele><time>2026-04-27T06:07:06.278Z</time></trkpt><trkpt lat="39.5656733" lon="15.875"><ele>39.0</ele><time>2026-04-27T06:07:07.298Z</time></trkpt><trkpt lat="39.5655033" lon="15.8750433"><ele>39.0</ele><time>2026-04-27T06:07:08.272Z</time></trkpt><trkpt lat="39.5653267" lon="15.875095"><ele>43.33333333333333</ele><time>2026-04-27T06:07:09.275Z</time></trkpt><trkpt lat="39.5651517" lon="15.87515"><ele>47.666666666666664</ele><time>2026-04-27T06:07:10.27Z</time></trkpt><trkpt lat="39.5649783" lon="15.8752033"><ele>52.0</ele><time>2026-04-27T06:07:11.274Z</time></trkpt><trkpt lat="39.5648033" lon="15.8752567"><ele>52.0</ele><time>2026-04-27T06:07:12.276Z</time></trkpt><trkpt lat="39.564625" lon="15.8753033"><ele>52.0</ele><time>2026-04-27T06:07:13.299Z</time></trkpt><trkpt lat="39.564435" lon="15.87536"><ele>52.0</ele><time>2026-04-27T06:07:14.265Z</time></trkpt><trkpt lat="39.5642467" lon="15.8754133"><ele>50.666666666666664</ele><time>2026-04-27T06:07:15.271Z</time></trkpt><trkpt lat="39.5640517" lon="15.875465"><ele>49.33333333333333</ele><time>2026-04-27T06:07:16.268Z</time></trkpt><trkpt lat="39.5638533" lon="15.8755217"><ele>48.0</ele><time>2026-04-27T06:07:17.265Z</time></trkpt><trkpt lat="39.56366" lon="15.8755833"><ele>46.666666666666664</ele><time>2026-04-27T06:07:18.269Z</time></trkpt><trkpt lat="39.563465" lon="15.8756483"><ele>45.33333333333333</ele><time>2026-04-27T06:07:19.301Z</time></trkpt><trkpt lat="39.5632717" lon="15.8757133"><ele>44.0</ele><time>2026-04-27T06:07:20.266Z</time></trkpt><trkpt lat="39.5630833" lon="15.875785"><ele>44.0</ele><time>2026-04-27T06:07:21.272Z</time></trkpt><trkpt lat="39.56289" lon="15.87586"><ele>44.0</ele><time>2026-04-27T06:07:22.262Z</time></trkpt><trkpt lat="39.5626783" lon="15.8759317"><ele>44.0</ele><time>2026-04-27T06:07:23.269Z</time></trkpt><trkpt lat="39.56246" lon="15.876"><ele>44.0</ele><time>2026-04-27T06:07:24.267Z</time></trkpt><trkpt lat="39.56224" lon="15.87607"><ele>44.0</ele><time>2026-04-27T06:07:25.334Z</time></trkpt><trkpt lat="39.56201" lon="15.87614"><ele>41.666666666666664</ele><time>2026-04-27T06:07:26.264Z</time></trkpt><trkpt lat="39.56179" lon="15.8762067"><ele>39.333333333333336</ele><time>2026-04-27T06:07:27.268Z</time></trkpt><trkpt lat="39.561575" lon="15.8762783"><ele>37.0</ele><time>2026-04-27T06:07:28.27Z</time></trkpt><trkpt lat="39.561365" lon="15.8763533"><ele>38.0</ele><time>2026-04-27T06:07:29.268Z</time></trkpt><trkpt lat="39.561155" lon="15.8764267"><ele>39.0</ele><time>2026-04-27T06:07:30.268Z</time></trkpt><trkpt lat="39.5609483" lon="15.8765033"><ele>40.0</ele><time>2026-04-27T06:07:31.292Z</time></trkpt><trkpt lat="39.5607433" lon="15.8765767"><ele>40.0</ele><time>2026-04-27T06:07:32.271Z</time></trkpt><trkpt lat="39.5605417" lon="15.87665"><ele>40.0</ele><time>2026-04-27T06:07:33.279Z</time></trkpt><trkpt lat="39.560345" lon="15.8767217"><ele>40.0</ele><time>2026-04-27T06:07:34.273Z</time></trkpt><trkpt lat="39.5601517" lon="15.8767917"><ele>43.333333333333336</ele><time>2026-04-27T06:07:35.273Z</time></trkpt><trkpt lat="39.55996" lon="15.8768617"><ele>46.66666666666667</ele><time>2026-04-27T06:07:36.268Z</time></trkpt><trkpt lat="39.5597767" lon="15.876925"><ele>50.0</ele><time>2026-04-27T06:07:37.302Z</time></trkpt><trkpt lat="39.5596017" lon="15.8769883"><ele>49.333333333333336</ele><time>2026-04-27T06:07:38.262Z</time></trkpt><trkpt lat="39.5594233" lon="15.8770567"><ele>48.66666666666667</ele><time>2026-04-27T06:07:39.274Z</time></trkpt><trkpt lat="39.5592483" lon="15.8771183"><ele>48.0</ele><time>2026-04-27T06:07:40.266Z</time></trkpt><trkpt lat="39.5590817" lon="15.8771783"><ele>48.0</ele><time>2026-04-27T06:07:41.268Z</time></trkpt><trkpt lat="39.5589233" lon="15.8772367"><ele>48.0</ele><time>2026-04-27T06:07:42.266Z</time></trkpt><trkpt lat="39.5587667" lon="15.8772933"><ele>48.0</ele><time>2026-04-27T06:07:43.304Z</time></trkpt><trkpt lat="39.5586067" lon="15.87735"><ele>48.33333333333333</ele><time>2026-04-27T06:07:44.267Z</time></trkpt><trkpt lat="39.558445" lon="15.8774083"><ele>48.666666666666664</ele><time>2026-04-27T06:07:45.271Z</time></trkpt><trkpt lat="39.55828" lon="15.8774667"><ele>49.0</ele><time>2026-04-27T06:07:46.264Z</time></trkpt><trkpt lat="39.5581133" lon="15.877525"><ele>49.0</ele><time>2026-04-27T06:07:47.276Z</time></trkpt><trkpt lat="39.55794" lon="15.877585"><ele>49.0</ele><time>2026-04-27T06:07:48.271Z</time></trkpt><trkpt lat="39.5577617" lon="15.8776517"><ele>49.0</ele><time>2026-04-27T06:07:49.307Z</time></trkpt><trkpt lat="39.5575866" lon="15.8777231"><ele>53.33333333333333</ele><time>2026-04-27T06:07:50.262Z</time></trkpt><trkpt lat="39.5574047" lon="15.877808"><ele>57.66666666666667</ele><time>2026-04-27T06:07:51.275Z</time></trkpt><trkpt lat="39.557227" lon="15.877909"><ele>62.0</ele><time>2026-04-27T06:07:52.267Z</time></trkpt><trkpt lat="39.5570524" lon="15.8780299"><ele>63.0</ele><time>2026-04-27T06:07:53.271Z</time></trkpt><trkpt lat="39.5568817" lon="15.8781689"><ele>64.0</ele><time>2026-04-27T06:07:54.271Z</time></trkpt><trkpt lat="39.5567127" lon="15.8783225"><ele>65.0</ele><time>2026-04-27T06:07:55.276Z</time></trkpt><trkpt lat="39.556545" lon="15.8784802"><ele>70.0</ele><time>2026-04-27T06:07:56.264Z</time></trkpt><trkpt lat="39.5563675" lon="15.8786382"><ele>75.0</ele><time>2026-04-27T06:07:57.268Z</time></trkpt><trkpt lat="39.5561952" lon="15.8787941"><ele>80.0</ele><time>2026-04-27T06:07:58.268Z</time></trkpt><trkpt lat="39.5560283" lon="15.8789498"><ele>80.0</ele><time>2026-04-27T06:07:59.273Z</time></trkpt><trkpt lat="39.5558623" lon="15.8791061"><ele>80.0</ele><time>2026-04-27T06:08:00.27Z</time></trkpt><trkpt lat="39.5556948" lon="15.8792616"><ele>80.0</ele><time>2026-04-27T06:08:01.267Z</time></trkpt><trkpt lat="39.5555265" lon="15.8794159"><ele>69.5</ele><time>2026-04-27T06:08:02.271Z</time></trkpt><trkpt lat="39.5553533" lon="15.8795692"><ele>59.0</ele><time>2026-04-27T06:08:03.274Z</time></trkpt><trkpt lat="39.5551714" lon="15.8797879"><ele>59.0</ele><time>2026-04-27T06:08:04.27Z</time></trkpt><trkpt lat="39.554984" lon="15.8800437"><ele>59.0</ele><time>2026-04-27T06:08:05.276Z</time></trkpt><trkpt lat="39.5547911" lon="15.8802714"><ele>65.5</ele><time>2026-04-27T06:08:06.266Z</time></trkpt><trkpt lat="39.5545889" lon="15.8804755"><ele>72.0</ele><time>2026-04-27T06:08:07.304Z</time></trkpt><trkpt lat="39.5543929" lon="15.8806595"><ele>72.0</ele><time>2026-04-27T06:08:08.262Z</time></trkpt><trkpt lat="39.5541762" lon="15.8808079"><ele>72.0</ele><time>2026-04-27T06:08:09.279Z</time></trkpt><trkpt lat="39.5539574" lon="15.8809239"><ele>77.5</ele><time>2026-04-27T06:08:10.267Z</time></trkpt><trkpt lat="39.553736" lon="15.8810142"><ele>83.0</ele><time>2026-04-27T06:08:11.263Z</time></trkpt><trkpt lat="39.5535184" lon="15.8810949"><ele>83.0</ele><time>2026-04-27T06:08:12.264Z</time></trkpt><trkpt lat="39.5532982" lon="15.8811784"><ele>83.0</ele><time>2026-04-27T06:08:13.297Z</time></trkpt><trkpt lat="39.553076" lon="15.8812274"><ele>84.33333333333334</ele><time>2026-04-27T06:08:14.269Z</time></trkpt><trkpt lat="39.5528523" lon="15.8812575"><ele>85.66666666666667</ele><time>2026-04-27T06:08:15.274Z</time></trkpt><trkpt lat="39.5526292" lon="15.8812769"><ele>87.0</ele><time>2026-04-27T06:08:16.26Z</time></trkpt><trkpt lat="39.5524" lon="15.881276"><ele>87.0</ele><time>2026-04-27T06:08:17.264Z</time></trkpt><trkpt lat="39.5521688" lon="15.8812643"><ele>87.0</ele><time>2026-04-27T06:08:18.267Z</time></trkpt><trkpt lat="39.551937" lon="15.881252"><ele>88.5</ele><time>2026-04-27T06:08:19.299Z</time></trkpt><trkpt lat="39.5517084" lon="15.8812384"><ele>90.0</ele><time>2026-04-27T06:08:20.267Z</time></trkpt><trkpt lat="39.5514735" lon="15.8812285"><ele>90.0</ele><time>2026-04-27T06:08:21.27Z</time></trkpt><trkpt lat="39.5512413" lon="15.8812225"><ele>90.0</ele><time>2026-04-27T06:08:22.268Z</time></trkpt><trkpt lat="39.551019" lon="15.8812258"><ele>87.0</ele><time>2026-04-27T06:08:23.27Z</time></trkpt><trkpt lat="39.5508093" lon="15.8812383"><ele>84.0</ele><time>2026-04-27T06:08:24.267Z</time></trkpt><trkpt lat="39.5506137" lon="15.8812583"><ele>81.0</ele><time>2026-04-27T06:08:25.268Z</time></trkpt><trkpt lat="39.5504204" lon="15.8812877"><ele>77.66666666666667</ele><time>2026-04-27T06:08:26.261Z</time></trkpt><trkpt lat="39.5502264" lon="15.8813387"><ele>74.33333333333334</ele><time>2026-04-27T06:08:27.273Z</time></trkpt><trkpt lat="39.550029" lon="15.8814116"><ele>71.0</ele><time>2026-04-27T06:08:28.27Z</time></trkpt><trkpt lat="39.5498317" lon="15.8815057"><ele>71.0</ele><time>2026-04-27T06:08:29.269Z</time></trkpt><trkpt lat="39.5496319" lon="15.8816191"><ele>71.0</ele><time>2026-04-27T06:08:30.275Z</time></trkpt><trkpt lat="39.5494323" lon="15.8817424"><ele>71.0</ele><time>2026-04-27T06:08:31.271Z</time></trkpt><trkpt lat="39.5492307" lon="15.8818745"><ele>76.5</ele><time>2026-04-27T06:08:32.27Z</time></trkpt><trkpt lat="39.5490271" lon="15.882008"><ele>82.0</ele><time>2026-04-27T06:08:33.274Z</time></trkpt><trkpt lat="39.5488216" lon="15.8821376"><ele>75.5</ele><time>2026-04-27T06:08:34.262Z</time></trkpt><trkpt lat="39.5486111" lon="15.8822657"><ele>69.0</ele><time>2026-04-27T06:08:35.273Z</time></trkpt><trkpt lat="39.5484" lon="15.8823932"><ele>69.0</ele><time>2026-04-27T06:08:36.266Z</time></trkpt><trkpt lat="39.5481831" lon="15.8825253"><ele>69.0</ele><time>2026-04-27T06:08:37.296Z</time></trkpt><trkpt lat="39.547972" lon="15.8826592"><ele>74.5</ele><time>2026-04-27T06:08:38.272Z</time></trkpt><trkpt lat="39.5477591" lon="15.8827938"><ele>80.0</ele><time>2026-04-27T06:08:39.27Z</time></trkpt><trkpt lat="39.5475462" lon="15.8829179"><ele>80.0</ele><time>2026-04-27T06:08:40.266Z</time></trkpt><trkpt lat="39.5473369" lon="15.8830438"><ele>80.0</ele><time>2026-04-27T06:08:41.266Z</time></trkpt><trkpt lat="39.5471347" lon="15.8831766"><ele>78.0</ele><time>2026-04-27T06:08:42.274Z</time></trkpt><trkpt lat="39.5469416" lon="15.8833227"><ele>76.0</ele><time>2026-04-27T06:08:43.302Z</time></trkpt><trkpt lat="39.5467669" lon="15.8834845"><ele>74.0</ele><time>2026-04-27T06:08:44.264Z</time></trkpt><trkpt lat="39.54661" lon="15.8836733"><ele>74.0</ele><time>2026-04-27T06:08:45.27Z</time></trkpt><trkpt lat="39.546455" lon="15.8838667"><ele>74.0</ele><time>2026-04-27T06:08:46.268Z</time></trkpt><trkpt lat="39.5463117" lon="15.884075"><ele>74.0</ele><time>2026-04-27T06:08:47.274Z</time></trkpt><trkpt lat="39.54617" lon="15.8842933"><ele>87.5</ele><time>2026-04-27T06:08:48.274Z</time></trkpt><trkpt lat="39.5460217" lon="15.8845367"><ele>101.0</ele><time>2026-04-27T06:08:49.296Z</time></trkpt><trkpt lat="39.5458717" lon="15.8847633"><ele>101.0</ele><time>2026-04-27T06:08:50.264Z</time></trkpt><trkpt lat="39.5457133" lon="15.885"><ele>101.0</ele><time>2026-04-27T06:08:51.274Z</time></trkpt><trkpt lat="39.5455533" lon="15.8852283"><ele>82.5</ele><time>2026-04-27T06:08:52.271Z</time></trkpt><trkpt lat="39.5453783" lon="15.8854583"><ele>64.0</ele><time>2026-04-27T06:08:53.267Z</time></trkpt><trkpt lat="39.5452167" lon="15.8856917"><ele>64.0</ele><time>2026-04-27T06:08:54.264Z</time></trkpt><trkpt lat="39.5450533" lon="15.885925"><ele>64.0</ele><time>2026-04-27T06:08:55.336Z</time></trkpt><trkpt lat="39.5449033" lon="15.8861417"><ele>64.66666666666666</ele><time>2026-04-27T06:08:56.264Z</time></trkpt><trkpt lat="39.5447717" lon="15.8863833"><ele>65.33333333333333</ele><time>2026-04-27T06:08:57.263Z</time></trkpt><trkpt lat="39.5446917" lon="15.88662"><ele>66.0</ele><time>2026-04-27T06:08:58.269Z</time></trkpt><trkpt lat="39.544625" lon="15.88687"><ele>68.5</ele><time>2026-04-27T06:08:59.27Z</time></trkpt><trkpt lat="39.5446583" lon="15.8871933"><ele>71.0</ele><time>2026-04-27T06:09:00.274Z</time></trkpt><trkpt lat="39.5446483" lon="15.8874917"><ele>73.33333333333334</ele><time>2026-04-27T06:09:01.276Z</time></trkpt><trkpt lat="39.5446217" lon="15.887775"><ele>75.66666666666667</ele><time>2026-04-27T06:09:02.268Z</time></trkpt><trkpt lat="39.5445633" lon="15.888045"><ele>78.0</ele><time>2026-04-27T06:09:03.265Z</time></trkpt><trkpt lat="39.5445083" lon="15.8883183"><ele>72.33333333333333</ele><time>2026-04-27T06:09:04.262Z</time></trkpt><trkpt lat="39.54445" lon="15.8885783"><ele>66.66666666666666</ele><time>2026-04-27T06:09:05.268Z</time></trkpt><trkpt lat="39.5443817" lon="15.8888233"><ele>61.0</ele><time>2026-04-27T06:09:06.264Z</time></trkpt><trkpt lat="39.5443117" lon="15.8890533"><ele>66.33333333333333</ele><time>2026-04-27T06:09:07.305Z</time></trkpt><trkpt lat="39.5442333" lon="15.88927"><ele>71.66666666666667</ele><time>2026-04-27T06:09:08.268Z</time></trkpt><trkpt lat="39.5441433" lon="15.8894783"><ele>77.0</ele><time>2026-04-27T06:09:09.273Z</time></trkpt><trkpt lat="39.54404" lon="15.88968"><ele>77.0</ele><time>2026-04-27T06:09:10.273Z</time></trkpt><trkpt lat="39.543925" lon="15.8898767"><ele>77.0</ele><time>2026-04-27T06:09:11.273Z</time></trkpt><trkpt lat="39.5438033" lon="15.890075"><ele>77.0</ele><time>2026-04-27T06:09:12.271Z</time></trkpt><trkpt lat="39.5436817" lon="15.890275"><ele>76.66666666666667</ele><time>2026-04-27T06:09:13.301Z</time></trkpt><trkpt lat="39.54356" lon="15.89048"><ele>76.33333333333333</ele><time>2026-04-27T06:09:14.27Z</time></trkpt><trkpt lat="39.543435" lon="15.89069"><ele>76.0</ele><time>2026-04-27T06:09:15.273Z</time></trkpt><trkpt lat="39.54331" lon="15.8909"><ele>80.0</ele><time>2026-04-27T06:09:16.263Z</time></trkpt><trkpt lat="39.543185" lon="15.89111"><ele>84.0</ele><time>2026-04-27T06:09:17.266Z</time></trkpt><trkpt lat="39.5430617" lon="15.89132"><ele>88.0</ele><time>2026-04-27T06:09:18.27Z</time></trkpt><trkpt lat="39.5429433" lon="15.891525"><ele>74.66666666666666</ele><time>2026-04-27T06:09:19.301Z</time></trkpt><trkpt lat="39.5428183" lon="15.8917233"><ele>61.33333333333333</ele><time>2026-04-27T06:09:20.268Z</time></trkpt><trkpt lat="39.5426933" lon="15.8919167"><ele>48.0</ele><time>2026-04-27T06:09:21.273Z</time></trkpt><trkpt lat="39.542575" lon="15.8921117"><ele>48.0</ele><time>2026-04-27T06:09:22.269Z</time></trkpt><trkpt lat="39.5424583" lon="15.8923033"><ele>48.0</ele><time>2026-04-27T06:09:23.273Z</time></trkpt><trkpt lat="39.5423433" lon="15.8924933"><ele>48.0</ele><time>2026-04-27T06:09:24.266Z</time></trkpt><trkpt lat="39.54223" lon="15.8926817"><ele>48.33333333333333</ele><time>2026-04-27T06:09:25.334Z</time></trkpt><trkpt lat="39.5421167" lon="15.89287"><ele>48.666666666666664</ele><time>2026-04-27T06:09:26.265Z</time></trkpt><trkpt lat="39.5420033" lon="15.893055"><ele>49.0</ele><time>2026-04-27T06:09:27.265Z</time></trkpt><trkpt lat="39.5418917" lon="15.8932417"><ele>64.33333333333333</ele><time>2026-04-27T06:09:28.271Z</time></trkpt><trkpt lat="39.5417733" lon="15.8934267"><ele>79.66666666666667</ele><time>2026-04-27T06:09:29.275Z</time></trkpt><trkpt lat="39.5416483" lon="15.893605"><ele>95.0</ele><time>2026-04-27T06:09:30.267Z</time></trkpt><trkpt lat="39.5415183" lon="15.8937767"><ele>95.0</ele><time>2026-04-27T06:09:31.272Z</time></trkpt><trkpt lat="39.5413783" lon="15.89394"><ele>95.0</ele><time>2026-04-27T06:09:32.271Z</time></trkpt><trkpt lat="39.5412333" lon="15.894095"><ele>95.0</ele><time>2026-04-27T06:09:33.273Z</time></trkpt><trkpt lat="39.5410817" lon="15.894245"><ele>99.0</ele><time>2026-04-27T06:09:34.269Z</time></trkpt><trkpt lat="39.5409267" lon="15.8943867"><ele>103.0</ele><time>2026-04-27T06:09:35.282Z</time></trkpt><trkpt lat="39.5407717" lon="15.8945233"><ele>107.0</ele><time>2026-04-27T06:09:36.275Z</time></trkpt><trkpt lat="39.5406167" lon="15.89466"><ele>107.0</ele><time>2026-04-27T06:09:37.306Z</time></trkpt><trkpt lat="39.5404617" lon="15.8947983"><ele>107.0</ele><time>2026-04-27T06:09:38.268Z</time></trkpt><trkpt lat="39.54031" lon="15.8949467"><ele>107.0</ele><time>2026-04-27T06:09:39.271Z</time></trkpt><trkpt lat="39.5401667" lon="15.8951083"><ele>107.33333333333333</ele><time>2026-04-27T06:09:40.272Z</time></trkpt><trkpt lat="39.5400333" lon="15.8952817"><ele>107.66666666666666</ele><time>2026-04-27T06:09:41.273Z</time></trkpt><trkpt lat="39.5399067" lon="15.89547"><ele>108.0</ele><time>2026-04-27T06:09:42.265Z</time></trkpt><trkpt lat="39.5397917" lon="15.8956667"><ele>108.0</ele><time>2026-04-27T06:09:43.299Z</time></trkpt><trkpt lat="39.5396867" lon="15.8958733"><ele>108.0</ele><time>2026-04-27T06:09:44.274Z</time></trkpt><trkpt lat="39.53959" lon="15.8960867"><ele>108.0</ele><time>2026-04-27T06:09:45.273Z</time></trkpt><trkpt lat="39.5395067" lon="15.8963033"><ele>99.0</ele><time>2026-04-27T06:09:46.262Z</time></trkpt><trkpt lat="39.5394383" lon="15.8965333"><ele>90.0</ele><time>2026-04-27T06:09:47.274Z</time></trkpt><trkpt lat="39.5393767" lon="15.896765"><ele>81.0</ele><time>2026-04-27T06:09:48.264Z</time></trkpt><trkpt lat="39.5393317" lon="15.897005"><ele>81.0</ele><time>2026-04-27T06:09:49.297Z</time></trkpt><trkpt lat="39.5393" lon="15.897245"><ele>81.0</ele><time>2026-04-27T06:09:50.263Z</time></trkpt><trkpt lat="39.5392733" lon="15.8974883"><ele>81.0</ele><time>2026-04-27T06:09:51.271Z</time></trkpt><trkpt lat="39.53925" lon="15.8977317"><ele>85.0</ele><time>2026-04-27T06:09:52.268Z</time></trkpt><trkpt lat="39.539225" lon="15.897975"><ele>89.0</ele><time>2026-04-27T06:09:53.271Z</time></trkpt><trkpt lat="39.539205" lon="15.8982217"><ele>93.0</ele><time>2026-04-27T06:09:54.274Z</time></trkpt><trkpt lat="39.5391817" lon="15.8984667"><ele>96.33333333333334</ele><time>2026-04-27T06:09:55.332Z</time></trkpt><trkpt lat="39.53916" lon="15.8987083"><ele>99.66666666666667</ele><time>2026-04-27T06:09:56.269Z</time></trkpt><trkpt lat="39.5391417" lon="15.8989483"><ele>103.0</ele><time>2026-04-27T06:09:57.283Z</time></trkpt><trkpt lat="39.5391183" lon="15.8991883"><ele>105.66666666666667</ele><time>2026-04-27T06:09:58.27Z</time></trkpt><trkpt lat="39.53909" lon="15.8994233"><ele>108.33333333333334</ele><time>2026-04-27T06:09:59.273Z</time></trkpt><trkpt lat="39.5390583" lon="15.8996533"><ele>111.0</ele><time>2026-04-27T06:10:00.271Z</time></trkpt><trkpt lat="39.53902" lon="15.8998783"><ele>114.0</ele><time>2026-04-27T06:10:01.274Z</time></trkpt><trkpt lat="39.538985" lon="15.9001"><ele>117.0</ele><time>2026-04-27T06:10:02.273Z</time></trkpt><trkpt lat="39.53895" lon="15.9003233"><ele>120.0</ele><time>2026-04-27T06:10:03.273Z</time></trkpt><trkpt lat="39.538915" lon="15.90055"><ele>120.0</ele><time>2026-04-27T06:10:04.268Z</time></trkpt><trkpt lat="39.5388683" lon="15.900775"><ele>120.0</ele><time>2026-04-27T06:10:05.275Z</time></trkpt><trkpt lat="39.538825" lon="15.9010033"><ele>120.0</ele><time>2026-04-27T06:10:06.262Z</time></trkpt><trkpt lat="39.53879" lon="15.9012367"><ele>120.0</ele><time>2026-04-27T06:10:07.3Z</time></trkpt><trkpt lat="39.5387583" lon="15.901475"><ele>120.0</ele><time>2026-04-27T06:10:08.265Z</time></trkpt><trkpt lat="39.5387383" lon="15.9017117"><ele>120.0</ele><time>2026-04-27T06:10:09.271Z</time></trkpt><trkpt lat="39.53873" lon="15.901955"><ele>120.0</ele><time>2026-04-27T06:10:10.272Z</time></trkpt><trkpt lat="39.5387333" lon="15.9022033"><ele>120.0</ele><time>2026-04-27T06:10:11.275Z</time></trkpt><trkpt lat="39.53874" lon="15.9024567"><ele>120.0</ele><time>2026-04-27T06:10:12.277Z</time></trkpt><trkpt lat="39.53875" lon="15.9027167"><ele>123.0</ele><time>2026-04-27T06:10:13.304Z</time></trkpt><trkpt lat="39.5387533" lon="15.9029717"><ele>126.0</ele><time>2026-04-27T06:10:14.267Z</time></trkpt><trkpt lat="39.5387633" lon="15.90322"><ele>129.0</ele><time>2026-04-27T06:10:15.276Z</time></trkpt><trkpt lat="39.5387667" lon="15.9034533"><ele>131.66666666666666</ele><time>2026-04-27T06:10:16.271Z</time></trkpt><trkpt lat="39.5387717" lon="15.9036833"><ele>134.33333333333331</ele><time>2026-04-27T06:10:17.275Z</time></trkpt><trkpt lat="39.5387817" lon="15.9039067"><ele>137.0</ele><time>2026-04-27T06:10:18.271Z</time></trkpt><trkpt lat="39.5387917" lon="15.9041183"><ele>135.66666666666666</ele><time>2026-04-27T06:10:19.293Z</time></trkpt><trkpt lat="39.5387983" lon="15.9043233"><ele>134.33333333333334</ele><time>2026-04-27T06:10:20.269Z</time></trkpt><trkpt lat="39.5388033" lon="15.904535"><ele>133.0</ele><time>2026-04-27T06:10:21.267Z</time></trkpt><trkpt lat="39.5388067" lon="15.9047567"><ele>133.0</ele><time>2026-04-27T06:10:22.265Z</time></trkpt><trkpt lat="39.538805" lon="15.9049833"><ele>133.0</ele><time>2026-04-27T06:10:23.269Z</time></trkpt><trkpt lat="39.5388033" lon="15.9052233"><ele>133.0</ele><time>2026-04-27T06:10:24.276Z</time></trkpt><trkpt lat="39.538795" lon="15.9054667"><ele>134.33333333333334</ele><time>2026-04-27T06:10:25.278Z</time></trkpt><trkpt lat="39.53878" lon="15.9057067"><ele>135.66666666666666</ele><time>2026-04-27T06:10:26.266Z</time></trkpt><trkpt lat="39.5387717" lon="15.9059433"><ele>137.0</ele><time>2026-04-27T06:10:27.275Z</time></trkpt><trkpt lat="39.5387567" lon="15.90617"><ele>137.0</ele><time>2026-04-27T06:10:28.267Z</time></trkpt><trkpt lat="39.5387333" lon="15.9063967"><ele>137.0</ele><time>2026-04-27T06:10:29.276Z</time></trkpt><trkpt lat="39.538695" lon="15.9066267"><ele>137.0</ele><time>2026-04-27T06:10:30.267Z</time></trkpt><trkpt lat="39.538645" lon="15.9068533"><ele>128.33333333333331</ele><time>2026-04-27T06:10:31.297Z</time></trkpt><trkpt lat="39.5385867" lon="15.9070767"><ele>119.66666666666666</ele><time>2026-04-27T06:10:32.273Z</time></trkpt><trkpt lat="39.5385233" lon="15.907295"><ele>111.0</ele><time>2026-04-27T06:10:33.271Z</time></trkpt><trkpt lat="39.5384533" lon="15.9075083"><ele>113.33333333333334</ele><time>2026-04-27T06:10:34.265Z</time></trkpt><trkpt lat="39.5383833" lon="15.9077217"><ele>115.66666666666667</ele><time>2026-04-27T06:10:35.263Z</time></trkpt><trkpt lat="39.5383117" lon="15.907945"><ele>118.0</ele><time>2026-04-27T06:10:36.265Z</time></trkpt><trkpt lat="39.5382367" lon="15.90817"><ele>118.0</ele><time>2026-04-27T06:10:37.303Z</time></trkpt><trkpt lat="39.5381583" lon="15.9083983"><ele>118.0</ele><time>2026-04-27T06:10:38.267Z</time></trkpt><trkpt lat="39.53809" lon="15.9086233"><ele>118.0</ele><time>2026-04-27T06:10:39.276Z</time></trkpt><trkpt lat="39.5380217" lon="15.9088383"><ele>116.33333333333334</ele><time>2026-04-27T06:10:40.268Z</time></trkpt><trkpt lat="39.5379617" lon="15.9090433"><ele>114.66666666666666</ele><time>2026-04-27T06:10:41.274Z</time></trkpt><trkpt lat="39.5379017" lon="15.9092467"><ele>113.0</ele><time>2026-04-27T06:10:42.264Z</time></trkpt><trkpt lat="39.5378433" lon="15.9094433"><ele>106.33333333333333</ele><time>2026-04-27T06:10:43.303Z</time></trkpt><trkpt lat="39.537785" lon="15.9096383"><ele>99.66666666666666</ele><time>2026-04-27T06:10:44.268Z</time></trkpt><trkpt lat="39.537725" lon="15.90983"><ele>93.0</ele><time>2026-04-27T06:10:45.27Z</time></trkpt><trkpt lat="39.537665" lon="15.9100167"><ele>95.66666666666666</ele><time>2026-04-27T06:10:46.275Z</time></trkpt><trkpt lat="39.5376083" lon="15.9102033"><ele>98.33333333333333</ele><time>2026-04-27T06:10:47.27Z</time></trkpt><trkpt lat="39.5375517" lon="15.9103933"><ele>101.0</ele><time>2026-04-27T06:10:48.265Z</time></trkpt><trkpt lat="39.53749" lon="15.9105883"><ele>101.0</ele><time>2026-04-27T06:10:49.305Z</time></trkpt><trkpt lat="39.5374233" lon="15.9107883"><ele>101.0</ele><time>2026-04-27T06:10:50.27Z</time></trkpt><trkpt lat="39.5373533" lon="15.9109933"><ele>101.0</ele><time>2026-04-27T06:10:51.273Z</time></trkpt><trkpt lat="39.5372783" lon="15.9112017"><ele>102.0</ele><time>2026-04-27T06:10:52.263Z</time></trkpt><trkpt lat="39.5372017" lon="15.9114117"><ele>103.0</ele><time>2026-04-27T06:10:53.27Z</time></trkpt><trkpt lat="39.5371183" lon="15.911615"><ele>104.0</ele><time>2026-04-27T06:10:54.27Z</time></trkpt><trkpt lat="39.5370317" lon="15.9118083"><ele>97.66666666666666</ele><time>2026-04-27T06:10:55.334Z</time></trkpt><trkpt lat="39.5369433" lon="15.911995"><ele>91.33333333333333</ele><time>2026-04-27T06:10:56.273Z</time></trkpt><trkpt lat="39.5368517" lon="15.9121767"><ele>85.0</ele><time>2026-04-27T06:10:57.277Z</time></trkpt><trkpt lat="39.5367633" lon="15.91236"><ele>85.0</ele><time>2026-04-27T06:10:58.274Z</time></trkpt><trkpt lat="39.5366767" lon="15.91254"><ele>85.0</ele><time>2026-04-27T06:10:59.276Z</time></trkpt><trkpt lat="39.536585" lon="15.91272"><ele>85.0</ele><time>2026-04-27T06:11:00.266Z</time></trkpt><trkpt lat="39.5364933" lon="15.9129"><ele>90.33333333333333</ele><time>2026-04-27T06:11:01.291Z</time></trkpt><trkpt lat="39.536405" lon="15.9130767"><ele>95.66666666666666</ele><time>2026-04-27T06:11:02.272Z</time></trkpt><trkpt lat="39.5363233" lon="15.913245"><ele>101.0</ele><time>2026-04-27T06:11:03.274Z</time></trkpt><trkpt lat="39.536245" lon="15.913395"><ele>97.8</ele><time>2026-04-27T06:11:04.268Z</time></trkpt><trkpt lat="39.5361783" lon="15.9135283"><ele>94.6</ele><time>2026-04-27T06:11:05.27Z</time></trkpt><trkpt lat="39.5361167" lon="15.9136483"><ele>91.4</ele><time>2026-04-27T06:11:06.266Z</time></trkpt><trkpt lat="39.5360583" lon="15.91376"><ele>88.2</ele><time>2026-04-27T06:11:07.301Z</time></trkpt><trkpt lat="39.5360033" lon="15.9138617"><ele>85.0</ele><time>2026-04-27T06:11:08.272Z</time></trkpt><trkpt lat="39.5359617" lon="15.9139617"><ele>85.0</ele><time>2026-04-27T06:11:09.265Z</time></trkpt><trkpt lat="39.5359317" lon="15.9140617"><ele>85.0</ele><time>2026-04-27T06:11:10.265Z</time></trkpt><trkpt lat="39.535915" lon="15.9141667"><ele>85.0</ele><time>2026-04-27T06:11:11.264Z</time></trkpt><trkpt lat="39.5358983" lon="15.9142683"><ele>85.0</ele><time>2026-04-27T06:11:12.271Z</time></trkpt><trkpt lat="39.5358683" lon="15.9143617"><ele>85.0</ele><time>2026-04-27T06:11:13.3Z</time></trkpt><trkpt lat="39.53583" lon="15.9144583"><ele>85.0</ele><time>2026-04-27T06:11:14.268Z</time></trkpt><trkpt lat="39.535775" lon="15.9145433"><ele>88.8</ele><time>2026-04-27T06:11:15.271Z</time></trkpt><trkpt lat="39.5357017" lon="15.91462"><ele>92.6</ele><time>2026-04-27T06:11:16.268Z</time></trkpt><trkpt lat="39.5356117" lon="15.9147033"><ele>96.4</ele><time>2026-04-27T06:11:17.275Z</time></trkpt><trkpt lat="39.535525" lon="15.9147917"><ele>100.2</ele><time>2026-04-27T06:11:18.276Z</time></trkpt><trkpt lat="39.535455" lon="15.9148767"><ele>104.0</ele><time>2026-04-27T06:11:19.297Z</time></trkpt><trkpt lat="39.5353933" lon="15.9149567"><ele>104.0</ele><time>2026-04-27T06:11:20.27Z</time></trkpt><trkpt lat="39.53535" lon="15.9150383"><ele>104.0</ele><time>2026-04-27T06:11:21.263Z</time></trkpt><trkpt lat="39.5354167" lon="15.9151183"><ele>104.0</ele><time>2026-04-27T06:11:23.273Z</time></trkpt><trkpt lat="39.5355533" lon="15.9150483"><ele>104.0</ele><time>2026-04-27T06:11:25.333Z</time></trkpt><trkpt lat="39.5356317" lon="15.91498"><ele>104.0</ele><time>2026-04-27T06:11:26.267Z</time></trkpt><trkpt lat="39.5357133" lon="15.914895"><ele>104.0</ele><time>2026-04-27T06:11:27.271Z</time></trkpt><trkpt lat="39.5357917" lon="15.9148133"><ele>104.0</ele><time>2026-04-27T06:11:28.266Z</time></trkpt><trkpt lat="39.5358817" lon="15.914745"><ele>104.0</ele><time>2026-04-27T06:11:29.263Z</time></trkpt><trkpt lat="39.535985" lon="15.9146933"><ele>104.0</ele><time>2026-04-27T06:11:30.268Z</time></trkpt><trkpt lat="39.5360883" lon="15.9146467"><ele>104.0</ele><time>2026-04-27T06:11:31.314Z</time></trkpt><trkpt lat="39.5361817" lon="15.91459"><ele>107.2</ele><time>2026-04-27T06:11:32.261Z</time></trkpt><trkpt lat="39.5362683" lon="15.9145183"><ele>110.4</ele><time>2026-04-27T06:11:33.273Z</time></trkpt><trkpt lat="39.5363517" lon="15.9144433"><ele>113.6</ele><time>2026-04-27T06:11:34.264Z</time></trkpt><trkpt lat="39.5364317" lon="15.9143617"><ele>116.8</ele><time>2026-04-27T06:11:35.268Z</time></trkpt><trkpt lat="39.5365133" lon="15.91428"><ele>120.0</ele><time>2026-04-27T06:11:36.267Z</time></trkpt><trkpt lat="39.5365867" lon="15.9141883"><ele>120.0</ele><time>2026-04-27T06:11:37.3Z</time></trkpt><trkpt lat="39.536665" lon="15.9140917"><ele>120.0</ele><time>2026-04-27T06:11:38.261Z</time></trkpt><trkpt lat="39.5367467" lon="15.9139967"><ele>120.0</ele><time>2026-04-27T06:11:39.267Z</time></trkpt><trkpt lat="39.5368333" lon="15.913905"><ele>120.0</ele><time>2026-04-27T06:11:40.265Z</time></trkpt><trkpt lat="39.5369267" lon="15.9138233"><ele>120.0</ele><time>2026-04-27T06:11:41.266Z</time></trkpt><trkpt lat="39.53702" lon="15.9137483"><ele>127.2</ele><time>2026-04-27T06:11:42.273Z</time></trkpt><trkpt lat="39.537115" lon="15.9136817"><ele>134.4</ele><time>2026-04-27T06:11:43.303Z</time></trkpt><trkpt lat="39.5372067" lon="15.9136183"><ele>141.6</ele><time>2026-04-27T06:11:44.261Z</time></trkpt><trkpt lat="39.5372917" lon="15.9135533"><ele>148.8</ele><time>2026-04-27T06:11:45.274Z</time></trkpt><trkpt lat="39.5373817" lon="15.9134917"><ele>156.0</ele><time>2026-04-27T06:11:46.266Z</time></trkpt><trkpt lat="39.537475" lon="15.9134283"><ele>158.0</ele><time>2026-04-27T06:11:47.28Z</time></trkpt><trkpt lat="39.53758" lon="15.9133683"><ele>160.0</ele><time>2026-04-27T06:11:48.269Z</time></trkpt><trkpt lat="39.5376883" lon="15.9133183"><ele>162.0</ele><time>2026-04-27T06:11:49.307Z</time></trkpt><trkpt lat="39.537795" lon="15.91326"><ele>164.0</ele><time>2026-04-27T06:11:50.264Z</time></trkpt><trkpt lat="39.5378967" lon="15.9131933"><ele>164.0</ele><time>2026-04-27T06:11:51.275Z</time></trkpt><trkpt lat="39.5379833" lon="15.913115"><ele>164.0</ele><time>2026-04-27T06:11:52.268Z</time></trkpt><trkpt lat="39.5380533" lon="15.9130167"><ele>164.0</ele><time>2026-04-27T06:11:53.272Z</time></trkpt><trkpt lat="39.53813" lon="15.91292"><ele>164.0</ele><time>2026-04-27T06:11:54.277Z</time></trkpt><trkpt lat="39.5382083" lon="15.91284"><ele>164.0</ele><time>2026-04-27T06:11:55.335Z</time></trkpt><trkpt lat="39.5383" lon="15.9127833"><ele>164.0</ele><time>2026-04-27T06:11:56.28Z</time></trkpt><trkpt lat="39.5383817" lon="15.9127133"><ele>164.0</ele><time>2026-04-27T06:11:57.267Z</time></trkpt><trkpt lat="39.53845" lon="15.91263"><ele>164.0</ele><time>2026-04-27T06:11:58.267Z</time></trkpt><trkpt lat="39.5385067" lon="15.912555"><ele>164.0</ele><time>2026-04-27T06:11:59.265Z</time></trkpt><trkpt lat="39.5385767" lon="15.9125033"><ele>164.0</ele><time>2026-04-27T06:12:01.341Z</time></trkpt><trkpt lat="39.5385533" lon="15.9126083"><ele>164.0</ele><time>2026-04-27T06:12:03.268Z</time></trkpt><trkpt lat="39.538515" lon="15.9126783"><ele>164.0</ele><time>2026-04-27T06:12:04.26Z</time></trkpt><trkpt lat="39.538465" lon="15.9127667"><ele>164.0</ele><time>2026-04-27T06:12:05.265Z</time></trkpt><trkpt lat="39.5384083" lon="15.9128733"><ele>164.0</ele><time>2026-04-27T06:12:06.267Z</time></trkpt><trkpt lat="39.5383483" lon="15.9130083"><ele>164.0</ele><time>2026-04-27T06:12:07.293Z</time></trkpt><trkpt lat="39.538285" lon="15.91315"><ele>164.0</ele><time>2026-04-27T06:12:08.263Z</time></trkpt><trkpt lat="39.5382183" lon="15.9132933"><ele>168.2</ele><time>2026-04-27T06:12:09.264Z</time></trkpt><trkpt lat="39.53815" lon="15.913435"><ele>172.39999999999998</ele><time>2026-04-27T06:12:10.267Z</time></trkpt><trkpt lat="39.5380817" lon="15.9135583"><ele>176.6</ele><time>2026-04-27T06:12:11.274Z</time></trkpt><trkpt lat="39.5380083" lon="15.91366"><ele>180.8</ele><time>2026-04-27T06:12:12.271Z</time></trkpt><trkpt lat="39.5379383" lon="15.913735"><ele>185.0</ele><time>2026-04-27T06:12:13.303Z</time></trkpt><trkpt lat="39.5378867" lon="15.913815"><ele>185.0</ele><time>2026-04-27T06:12:14.266Z</time></trkpt><trkpt lat="39.5378517" lon="15.9138867"><ele>185.0</ele><time>2026-04-27T06:12:15.276Z</time></trkpt><trkpt lat="39.5379483" lon="15.9138867"><ele>185.0</ele><time>2026-04-27T06:12:17.276Z</time></trkpt><trkpt lat="39.5379967" lon="15.9138283"><ele>185.0</ele><time>2026-04-27T06:12:18.275Z</time></trkpt><trkpt lat="39.53805" lon="15.9137533"><ele>185.0</ele><time>2026-04-27T06:12:19.306Z</time></trkpt><trkpt lat="39.5381133" lon="15.9136683"><ele>185.0</ele><time>2026-04-27T06:12:20.266Z</time></trkpt><trkpt lat="39.5381867" lon="15.9135683"><ele>185.0</ele><time>2026-04-27T06:12:21.274Z</time></trkpt><trkpt lat="39.5382683" lon="15.9134717"><ele>185.0</ele><time>2026-04-27T06:12:22.266Z</time></trkpt><trkpt lat="39.5383567" lon="15.91339"><ele>185.0</ele><time>2026-04-27T06:12:23.273Z</time></trkpt><trkpt lat="39.53845" lon="15.913325"><ele>185.0</ele><time>2026-04-27T06:12:24.263Z</time></trkpt><trkpt lat="39.5385517" lon="15.9132717"><ele>185.0</ele><time>2026-04-27T06:12:25.339Z</time></trkpt><trkpt lat="39.5386567" lon="15.9132267"><ele>186.0</ele><time>2026-04-27T06:12:26.27Z</time></trkpt><trkpt lat="39.53876" lon="15.9131683"><ele>187.0</ele><time>2026-04-27T06:12:27.271Z</time></trkpt><trkpt lat="39.5388717" lon="15.9130933"><ele>188.0</ele><time>2026-04-27T06:12:28.272Z</time></trkpt><trkpt lat="39.5389833" lon="15.9129983"><ele>189.0</ele><time>2026-04-27T06:12:29.274Z</time></trkpt><trkpt lat="39.5390983" lon="15.9128917"><ele>189.0</ele><time>2026-04-27T06:12:30.272Z</time></trkpt><trkpt lat="39.5392083" lon="15.9127783"><ele>189.0</ele><time>2026-04-27T06:12:31.307Z</time></trkpt><trkpt lat="39.5393017" lon="15.9126517"><ele>189.0</ele><time>2026-04-27T06:12:32.27Z</time></trkpt><trkpt lat="39.53938" lon="15.912535"><ele>189.0</ele><time>2026-04-27T06:12:33.274Z</time></trkpt><trkpt lat="39.539445" lon="15.9124183"><ele>192.75</ele><time>2026-04-27T06:12:34.269Z</time></trkpt><trkpt lat="39.5395133" lon="15.9123017"><ele>196.5</ele><time>2026-04-27T06:12:35.271Z</time></trkpt><trkpt lat="39.53958" lon="15.9121817"><ele>200.25</ele><time>2026-04-27T06:12:36.266Z</time></trkpt><trkpt lat="39.5396417" lon="15.9120567"><ele>204.0</ele><time>2026-04-27T06:12:37.292Z</time></trkpt><trkpt lat="39.5397033" lon="15.9119283"><ele>204.0</ele><time>2026-04-27T06:12:38.26Z</time></trkpt><trkpt lat="39.5397567" lon="15.911795"><ele>204.0</ele><time>2026-04-27T06:12:39.262Z</time></trkpt><trkpt lat="39.5398117" lon="15.9116633"><ele>204.0</ele><time>2026-04-27T06:12:40.262Z</time></trkpt><trkpt lat="39.5398583" lon="15.9115233"><ele>204.0</ele><time>2026-04-27T06:12:41.267Z</time></trkpt><trkpt lat="39.5398967" lon="15.911385"><ele>203.0</ele><time>2026-04-27T06:12:42.268Z</time></trkpt><trkpt lat="39.5399283" lon="15.9112633"><ele>202.0</ele><time>2026-04-27T06:12:43.294Z</time></trkpt><trkpt lat="39.5399533" lon="15.9111633"><ele>201.0</ele><time>2026-04-27T06:12:44.263Z</time></trkpt><trkpt lat="39.53997" lon="15.911045"><ele>200.0</ele><time>2026-04-27T06:12:46.268Z</time></trkpt><trkpt lat="39.5399533" lon="15.9109617"><ele>199.0</ele><time>2026-04-27T06:12:49.298Z</time></trkpt><trkpt lat="39.5400017" lon="15.91084"><ele>198.0</ele><time>2026-04-27T06:12:51.271Z</time></trkpt><trkpt lat="39.5400283" lon="15.9107617"><ele>197.33333333333334</ele><time>2026-04-27T06:12:52.265Z</time></trkpt><trkpt lat="39.540055" lon="15.91067"><ele>196.66666666666669</ele><time>2026-04-27T06:12:53.276Z</time></trkpt><trkpt lat="39.540085" lon="15.91057"><ele>196.0</ele><time>2026-04-27T06:12:54.269Z</time></trkpt><trkpt lat="39.540115" lon="15.9104617"><ele>195.33333333333334</ele><time>2026-04-27T06:12:55.315Z</time></trkpt><trkpt lat="39.5401517" lon="15.9103483"><ele>194.66666666666669</ele><time>2026-04-27T06:12:56.262Z</time></trkpt><trkpt lat="39.5401983" lon="15.91023"><ele>194.0</ele><time>2026-04-27T06:12:57.265Z</time></trkpt><trkpt lat="39.5402433" lon="15.910125"><ele>192.66666666666669</ele><time>2026-04-27T06:12:58.266Z</time></trkpt><trkpt lat="39.5402817" lon="15.910025"><ele>191.33333333333334</ele><time>2026-04-27T06:12:59.269Z</time></trkpt><trkpt lat="39.540315" lon="15.9099233"><ele>190.0</ele><time>2026-04-27T06:13:00.263Z</time></trkpt><trkpt lat="39.5403583" lon="15.909825"><ele>188.66666666666669</ele><time>2026-04-27T06:13:01.311Z</time></trkpt><trkpt lat="39.5404067" lon="15.9097283"><ele>187.33333333333334</ele><time>2026-04-27T06:13:02.267Z</time></trkpt><trkpt lat="39.5404317" lon="15.9096217"><ele>186.0</ele><time>2026-04-27T06:13:03.27Z</time></trkpt><trkpt lat="39.5404383" lon="15.9095167"><ele>190.5</ele><time>2026-04-27T06:13:04.269Z</time></trkpt><trkpt lat="39.5404283" lon="15.909415"><ele>195.0</ele><time>2026-04-27T06:13:05.27Z</time></trkpt><trkpt lat="39.5404233" lon="15.9093233"><ele>199.5</ele><time>2026-04-27T06:13:06.273Z</time></trkpt><trkpt lat="39.5404233" lon="15.9092367"><ele>204.0</ele><time>2026-04-27T06:13:07.299Z</time></trkpt><trkpt lat="39.5404233" lon="15.9091433"><ele>208.5</ele><time>2026-04-27T06:13:08.267Z</time></trkpt><trkpt lat="39.540425" lon="15.9090583"><ele>213.0</ele><time>2026-04-27T06:13:09.275Z</time></trkpt><trkpt lat="39.5404433" lon="15.9088917"><ele>213.0</ele><time>2026-04-27T06:13:11.276Z</time></trkpt><trkpt lat="39.5404567" lon="15.9088017"><ele>213.0</ele><time>2026-04-27T06:13:12.27Z</time></trkpt><trkpt lat="39.5404767" lon="15.9087017"><ele>213.0</ele><time>2026-04-27T06:13:13.303Z</time></trkpt><trkpt lat="39.5405" lon="15.9086117"><ele>213.0</ele><time>2026-04-27T06:13:14.261Z</time></trkpt><trkpt lat="39.5405367" lon="15.90853"><ele>213.0</ele><time>2026-04-27T06:13:15.265Z</time></trkpt><trkpt lat="39.54058" lon="15.908455"><ele>213.0</ele><time>2026-04-27T06:13:16.272Z</time></trkpt><trkpt lat="39.5406383" lon="15.908375"><ele>211.33333333333334</ele><time>2026-04-27T06:13:17.273Z</time></trkpt><trkpt lat="39.5406933" lon="15.9082867"><ele>209.66666666666669</ele><time>2026-04-27T06:13:18.271Z</time></trkpt><trkpt lat="39.5407383" lon="15.908195"><ele>208.0</ele><time>2026-04-27T06:13:19.303Z</time></trkpt><trkpt lat="39.5407767" lon="15.908105"><ele>206.33333333333334</ele><time>2026-04-27T06:13:20.27Z</time></trkpt><trkpt lat="39.540795" lon="15.9080067"><ele>204.66666666666669</ele><time>2026-04-27T06:13:21.269Z</time></trkpt><trkpt lat="39.54081" lon="15.907895"><ele>203.0</ele><time>2026-04-27T06:13:22.268Z</time></trkpt><trkpt lat="39.5408433" lon="15.9077783"><ele>203.0</ele><time>2026-04-27T06:13:23.263Z</time></trkpt><trkpt lat="39.5408783" lon="15.9076567"><ele>203.0</ele><time>2026-04-27T06:13:24.267Z</time></trkpt><trkpt lat="39.540905" lon="15.9075267"><ele>203.0</ele><time>2026-04-27T06:13:25.3Z</time></trkpt><trkpt lat="39.5409067" lon="15.9073983"><ele>203.0</ele><time>2026-04-27T06:13:26.268Z</time></trkpt><trkpt lat="39.5408933" lon="15.90728"><ele>203.0</ele><time>2026-04-27T06:13:27.272Z</time></trkpt><trkpt lat="39.540855" lon="15.9071583"><ele>203.33333333333334</ele><time>2026-04-27T06:13:28.263Z</time></trkpt><trkpt lat="39.5408083" lon="15.9070433"><ele>203.66666666666669</ele><time>2026-04-27T06:13:29.273Z</time></trkpt><trkpt lat="39.54077" lon="15.9069283"><ele>204.0</ele><time>2026-04-27T06:13:30.264Z</time></trkpt><trkpt lat="39.5407467" lon="15.90682"><ele>204.33333333333331</ele><time>2026-04-27T06:13:31.302Z</time></trkpt><trkpt lat="39.5407983" lon="15.90676"><ele>204.66666666666666</ele><time>2026-04-27T06:13:32.272Z</time></trkpt><trkpt lat="39.5408483" lon="15.906685"><ele>205.0</ele><time>2026-04-27T06:13:33.271Z</time></trkpt><trkpt lat="39.5409167" lon="15.906605"><ele>205.0</ele><time>2026-04-27T06:13:34.263Z</time></trkpt><trkpt lat="39.540995" lon="15.906515"><ele>205.0</ele><time>2026-04-27T06:13:35.265Z</time></trkpt><trkpt lat="39.5410683" lon="15.9064067"><ele>205.0</ele><time>2026-04-27T06:13:36.266Z</time></trkpt><trkpt lat="39.5411417" lon="15.9062733"><ele>205.0</ele><time>2026-04-27T06:13:37.301Z</time></trkpt><trkpt lat="39.5412133" lon="15.90614"><ele>210.0</ele><time>2026-04-27T06:13:38.271Z</time></trkpt><trkpt lat="39.5412817" lon="15.906005"><ele>215.0</ele><time>2026-04-27T06:13:39.272Z</time></trkpt><trkpt lat="39.5413483" lon="15.90588"><ele>220.0</ele><time>2026-04-27T06:13:40.269Z</time></trkpt><trkpt lat="39.5414133" lon="15.9057733"><ele>225.0</ele><time>2026-04-27T06:13:41.272Z</time></trkpt><trkpt lat="39.5414733" lon="15.9056867"><ele>230.0</ele><time>2026-04-27T06:13:42.264Z</time></trkpt><trkpt lat="39.5415317" lon="15.9056233"><ele>230.0</ele><time>2026-04-27T06:13:43.296Z</time></trkpt><trkpt lat="39.5415883" lon="15.9055717"><ele>230.0</ele><time>2026-04-27T06:13:44.266Z</time></trkpt><trkpt lat="39.5416767" lon="15.9055767"><ele>230.0</ele><time>2026-04-27T06:13:46.268Z</time></trkpt><trkpt lat="39.5416767" lon="15.9057067"><ele>230.0</ele><time>2026-04-27T06:13:48.266Z</time></trkpt><trkpt lat="39.5416517" lon="15.905825"><ele>230.0</ele><time>2026-04-27T06:13:49.3Z</time></trkpt><trkpt lat="39.5416317" lon="15.9059633"><ele>232.0</ele><time>2026-04-27T06:13:50.27Z</time></trkpt><trkpt lat="39.5416267" lon="15.906095"><ele>234.0</ele><time>2026-04-27T06:13:51.28Z</time></trkpt><trkpt lat="39.54162" lon="15.9062317"><ele>236.0</ele><time>2026-04-27T06:13:52.268Z</time></trkpt><trkpt lat="39.5416183" lon="15.90638"><ele>238.0</ele><time>2026-04-27T06:13:53.272Z</time></trkpt><trkpt lat="39.5416217" lon="15.906535"><ele>240.0</ele><time>2026-04-27T06:13:54.273Z</time></trkpt><trkpt lat="39.5416283" lon="15.9066833"><ele>239.66666666666666</ele><time>2026-04-27T06:13:55.296Z</time></trkpt><trkpt lat="39.54164" lon="15.9068083"><ele>239.33333333333331</ele><time>2026-04-27T06:13:56.264Z</time></trkpt><trkpt lat="39.5416533" lon="15.90691"><ele>239.0</ele><time>2026-04-27T06:13:57.281Z</time></trkpt><trkpt lat="39.541675" lon="15.9069983"><ele>238.66666666666666</ele><time>2026-04-27T06:13:58.269Z</time></trkpt><trkpt lat="39.54171" lon="15.9070817"><ele>238.33333333333331</ele><time>2026-04-27T06:13:59.264Z</time></trkpt><trkpt lat="39.5417667" lon="15.9071717"><ele>238.0</ele><time>2026-04-27T06:14:00.273Z</time></trkpt><trkpt lat="39.541835" lon="15.907275"><ele>238.0</ele><time>2026-04-27T06:14:01.291Z</time></trkpt><trkpt lat="39.5418917" lon="15.90739"><ele>238.0</ele><time>2026-04-27T06:14:02.264Z</time></trkpt><trkpt lat="39.5419317" lon="15.9075133"><ele>238.0</ele><time>2026-04-27T06:14:03.275Z</time></trkpt><trkpt lat="39.5419333" lon="15.9076533"><ele>238.0</ele><time>2026-04-27T06:14:04.264Z</time></trkpt><trkpt lat="39.5419233" lon="15.9077933"><ele>238.0</ele><time>2026-04-27T06:14:05.268Z</time></trkpt><trkpt lat="39.5419283" lon="15.90793"><ele>237.2</ele><time>2026-04-27T06:14:06.267Z</time></trkpt><trkpt lat="39.54193" lon="15.9080433"><ele>236.4</ele><time>2026-04-27T06:14:07.303Z</time></trkpt><trkpt lat="39.5419567" lon="15.908145"><ele>235.59999999999997</ele><time>2026-04-27T06:14:08.266Z</time></trkpt><trkpt lat="39.5420067" lon="15.9082333"><ele>234.79999999999998</ele><time>2026-04-27T06:14:09.268Z</time></trkpt><trkpt lat="39.5421067" lon="15.908305"><ele>234.0</ele><time>2026-04-27T06:14:10.27Z</time></trkpt><trkpt lat="39.542205" lon="15.9083883"><ele>240.6</ele><time>2026-04-27T06:14:11.272Z</time></trkpt><trkpt lat="39.5422883" lon="15.9084833"><ele>247.2</ele><time>2026-04-27T06:14:12.271Z</time></trkpt><trkpt lat="39.5423567" lon="15.9085883"><ele>253.79999999999998</ele><time>2026-04-27T06:14:13.3Z</time></trkpt><trkpt lat="39.5424133" lon="15.9086883"><ele>260.4</ele><time>2026-04-27T06:14:14.27Z</time></trkpt><trkpt lat="39.5424567" lon="15.9087867"><ele>267.0</ele><time>2026-04-27T06:14:15.274Z</time></trkpt><trkpt lat="39.5424883" lon="15.9088783"><ele>267.0</ele><time>2026-04-27T06:14:16.272Z</time></trkpt><trkpt lat="39.54251" lon="15.9089617"><ele>267.0</ele><time>2026-04-27T06:14:17.272Z</time></trkpt><trkpt lat="39.54254" lon="15.9090933"><ele>267.0</ele><time>2026-04-27T06:14:19.293Z</time></trkpt><trkpt lat="39.542575" lon="15.9092483"><ele>267.0</ele><time>2026-04-27T06:14:21.267Z</time></trkpt><trkpt lat="39.5425933" lon="15.9093283"><ele>267.0</ele><time>2026-04-27T06:14:22.262Z</time></trkpt><trkpt lat="39.5426083" lon="15.9094083"><ele>267.0</ele><time>2026-04-27T06:14:23.273Z</time></trkpt><trkpt lat="39.5426183" lon="15.9094933"><ele>269.0</ele><time>2026-04-27T06:14:24.266Z</time></trkpt><trkpt lat="39.5426333" lon="15.9095733"><ele>271.0</ele><time>2026-04-27T06:14:25.296Z</time></trkpt><trkpt lat="39.5425967" lon="15.9097167"><ele>273.0</ele><time>2026-04-27T06:14:27.274Z</time></trkpt><trkpt lat="39.542545" lon="15.909765"><ele>275.0</ele><time>2026-04-27T06:14:28.266Z</time></trkpt><trkpt lat="39.542445" lon="15.9098083"><ele>277.0</ele><time>2026-04-27T06:14:30.269Z</time></trkpt><trkpt lat="39.5423717" lon="15.909815"><ele>279.0</ele><time>2026-04-27T06:14:32.27Z</time></trkpt><trkpt lat="39.5422967" lon="15.9098383"><ele>279.0</ele><time>2026-04-27T06:14:34.264Z</time></trkpt><trkpt lat="39.5422067" lon="15.909865"><ele>279.0</ele><time>2026-04-27T06:14:36.269Z</time></trkpt><trkpt lat="39.5421283" lon="15.9099483"><ele>279.0</ele><time>2026-04-27T06:14:38.27Z</time></trkpt><trkpt lat="39.5420833" lon="15.9100117"><ele>279.0</ele><time>2026-04-27T06:14:39.268Z</time></trkpt><trkpt lat="39.5420367" lon="15.9100867"><ele>279.0</ele><time>2026-04-27T06:14:40.271Z</time></trkpt><trkpt lat="39.5419883" lon="15.9101767"><ele>279.0</ele><time>2026-04-27T06:14:41.276Z</time></trkpt><trkpt lat="39.5419517" lon="15.9102867"><ele>276.8</ele><time>2026-04-27T06:14:42.274Z</time></trkpt><trkpt lat="39.54193" lon="15.910425"><ele>274.59999999999997</ele><time>2026-04-27T06:14:43.298Z</time></trkpt><trkpt lat="39.5419333" lon="15.9105717"><ele>272.4</ele><time>2026-04-27T06:14:44.265Z</time></trkpt><trkpt lat="39.54194" lon="15.9107"><ele>270.2</ele><time>2026-04-27T06:14:45.265Z</time></trkpt><trkpt lat="39.5419417" lon="15.9108183"><ele>268.0</ele><time>2026-04-27T06:14:46.262Z</time></trkpt><trkpt lat="39.54195" lon="15.9109317"><ele>268.0</ele><time>2026-04-27T06:14:47.273Z</time></trkpt><trkpt lat="39.5419483" lon="15.9110333"><ele>268.0</ele><time>2026-04-27T06:14:48.268Z</time></trkpt><trkpt lat="39.5419467" lon="15.91113"><ele>268.0</ele><time>2026-04-27T06:14:49.298Z</time></trkpt><trkpt lat="39.5419233" lon="15.9112183"><ele>268.0</ele><time>2026-04-27T06:14:50.263Z</time></trkpt><trkpt lat="39.5419" lon="15.9113133"><ele>268.0</ele><time>2026-04-27T06:14:51.27Z</time></trkpt><trkpt lat="39.5418867" lon="15.9114117"><ele>268.0</ele><time>2026-04-27T06:14:52.271Z</time></trkpt><trkpt lat="39.5418817" lon="15.9115133"><ele>268.0</ele><time>2026-04-27T06:14:53.272Z</time></trkpt><trkpt lat="39.54189" lon="15.91162"><ele>268.0</ele><time>2026-04-27T06:14:54.267Z</time></trkpt><trkpt lat="39.5419083" lon="15.9117267"><ele>268.0</ele><time>2026-04-27T06:14:55.331Z</time></trkpt><trkpt lat="39.54193" lon="15.9118417"><ele>268.0</ele><time>2026-04-27T06:14:56.262Z</time></trkpt><trkpt lat="39.5419417" lon="15.9119583"><ele>268.0</ele><time>2026-04-27T06:14:57.267Z</time></trkpt><trkpt lat="39.5419517" lon="15.9120933"><ele>268.66666666666663</ele><time>2026-04-27T06:14:58.264Z</time></trkpt><trkpt lat="39.541935" lon="15.91225"><ele>269.3333333333333</ele><time>2026-04-27T06:14:59.27Z</time></trkpt><trkpt lat="39.5418733" lon="15.9124567"><ele>270.0</ele><time>2026-04-27T06:15:00.267Z</time></trkpt><trkpt lat="39.5418217" lon="15.91266"><ele>273.0</ele><time>2026-04-27T06:15:01.297Z</time></trkpt><trkpt lat="39.5417767" lon="15.9128783"><ele>276.0</ele><time>2026-04-27T06:15:02.262Z</time></trkpt><trkpt lat="39.54173" lon="15.9131083"><ele>279.0</ele><time>2026-04-27T06:15:03.259Z</time></trkpt><trkpt lat="39.5416867" lon="15.9133433"><ele>281.0</ele><time>2026-04-27T06:15:04.267Z</time></trkpt><trkpt lat="39.5416483" lon="15.9135883"><ele>283.0</ele><time>2026-04-27T06:15:05.27Z</time></trkpt><trkpt lat="39.5416167" lon="15.913835"><ele>285.0</ele><time>2026-04-27T06:15:06.264Z</time></trkpt><trkpt lat="39.5415883" lon="15.914075"><ele>288.0</ele><time>2026-04-27T06:15:07.299Z</time></trkpt><trkpt lat="39.54157" lon="15.914305"><ele>291.0</ele><time>2026-04-27T06:15:08.268Z</time></trkpt><trkpt lat="39.5415517" lon="15.9145117"><ele>294.0</ele><time>2026-04-27T06:15:09.269Z</time></trkpt><trkpt lat="39.5415333" lon="15.9147067"><ele>294.0</ele><time>2026-04-27T06:15:10.273Z</time></trkpt><trkpt lat="39.5414933" lon="15.9148867"><ele>294.0</ele><time>2026-04-27T06:15:11.268Z</time></trkpt><trkpt lat="39.54144" lon="15.9150617"><ele>294.0</ele><time>2026-04-27T06:15:12.262Z</time></trkpt><trkpt lat="39.541375" lon="15.9152283"><ele>294.0</ele><time>2026-04-27T06:15:13.307Z</time></trkpt><trkpt lat="39.541315" lon="15.9153883"><ele>294.8</ele><time>2026-04-27T06:15:14.267Z</time></trkpt><trkpt lat="39.541255" lon="15.9155267"><ele>295.59999999999997</ele><time>2026-04-27T06:15:15.272Z</time></trkpt><trkpt lat="39.5412" lon="15.915635"><ele>296.4</ele><time>2026-04-27T06:15:16.268Z</time></trkpt><trkpt lat="39.541155" lon="15.9157333"><ele>297.2</ele><time>2026-04-27T06:15:17.278Z</time></trkpt><trkpt lat="39.541135" lon="15.915835"><ele>298.0</ele><time>2026-04-27T06:15:18.267Z</time></trkpt><trkpt lat="39.5411333" lon="15.9159217"><ele>298.0</ele><time>2026-04-27T06:15:19.301Z</time></trkpt><trkpt lat="39.5412217" lon="15.915945"><ele>298.0</ele><time>2026-04-27T06:15:20.268Z</time></trkpt><trkpt lat="39.54131" lon="15.9159317"><ele>298.0</ele><time>2026-04-27T06:15:21.266Z</time></trkpt><trkpt lat="39.5413917" lon="15.9158867"><ele>298.0</ele><time>2026-04-27T06:15:22.263Z</time></trkpt><trkpt lat="39.54147" lon="15.9158167"><ele>298.0</ele><time>2026-04-27T06:15:23.266Z</time></trkpt><trkpt lat="39.5415517" lon="15.915695"><ele>298.0</ele><time>2026-04-27T06:15:24.265Z</time></trkpt><trkpt lat="39.5416383" lon="15.9155667"><ele>298.0</ele><time>2026-04-27T06:15:25.292Z</time></trkpt><trkpt lat="39.5417383" lon="15.9154383"><ele>298.0</ele><time>2026-04-27T06:15:26.268Z</time></trkpt><trkpt lat="39.541835" lon="15.9153067"><ele>298.0</ele><time>2026-04-27T06:15:27.271Z</time></trkpt><trkpt lat="39.5419233" lon="15.91517"><ele>297.0</ele><time>2026-04-27T06:15:28.265Z</time></trkpt><trkpt lat="39.5419967" lon="15.9150317"><ele>296.0</ele><time>2026-04-27T06:15:29.277Z</time></trkpt><trkpt lat="39.5420667" lon="15.9149067"><ele>295.0</ele><time>2026-04-27T06:15:30.272Z</time></trkpt><trkpt lat="39.5421533" lon="15.9148"><ele>294.0</ele><time>2026-04-27T06:15:31.303Z</time></trkpt><trkpt lat="39.5422483" lon="15.91471"><ele>301.0</ele><time>2026-04-27T06:15:32.266Z</time></trkpt><trkpt lat="39.542345" lon="15.9146217"><ele>308.0</ele><time>2026-04-27T06:15:33.271Z</time></trkpt><trkpt lat="39.5424333" lon="15.914525"><ele>315.0</ele><time>2026-04-27T06:15:34.269Z</time></trkpt><trkpt lat="39.5425133" lon="15.9144167"><ele>322.0</ele><time>2026-04-27T06:15:35.267Z</time></trkpt><trkpt lat="39.5425983" lon="15.9143033"><ele>321.40000000000003</ele><time>2026-04-27T06:15:36.266Z</time></trkpt><trkpt lat="39.5426633" lon="15.9141717"><ele>320.8</ele><time>2026-04-27T06:15:37.308Z</time></trkpt><trkpt lat="39.5427183" lon="15.9140383"><ele>320.2</ele><time>2026-04-27T06:15:38.271Z</time></trkpt><trkpt lat="39.5427683" lon="15.91392"><ele>319.6</ele><time>2026-04-27T06:15:39.267Z</time></trkpt><trkpt lat="39.5428167" lon="15.9138283"><ele>319.0</ele><time>2026-04-27T06:15:40.268Z</time></trkpt><trkpt lat="39.5428667" lon="15.9137533"><ele>322.6</ele><time>2026-04-27T06:15:41.271Z</time></trkpt><trkpt lat="39.5429333" lon="15.91369"><ele>326.2</ele><time>2026-04-27T06:15:42.269Z</time></trkpt><trkpt lat="39.5430183" lon="15.9136267"><ele>329.8</ele><time>2026-04-27T06:15:43.303Z</time></trkpt><trkpt lat="39.5431083" lon="15.9135567"><ele>333.40000000000003</ele><time>2026-04-27T06:15:44.268Z</time></trkpt><trkpt lat="39.5431917" lon="15.9134767"><ele>337.0</ele><time>2026-04-27T06:15:45.263Z</time></trkpt><trkpt lat="39.54327" lon="15.913385"><ele>337.0</ele><time>2026-04-27T06:15:46.269Z</time></trkpt><trkpt lat="39.543345" lon="15.91329"><ele>337.0</ele><time>2026-04-27T06:15:47.271Z</time></trkpt><trkpt lat="39.5434083" lon="15.9131867"><ele>337.0</ele><time>2026-04-27T06:15:48.279Z</time></trkpt><trkpt lat="39.54347" lon="15.9130883"><ele>337.0</ele><time>2026-04-27T06:15:49.294Z</time></trkpt><trkpt lat="39.543525" lon="15.912985"><ele>337.0</ele><time>2026-04-27T06:15:50.268Z</time></trkpt><trkpt lat="39.5435717" lon="15.9128783"><ele>337.00000000000006</ele><time>2026-04-27T06:15:51.272Z</time></trkpt><trkpt lat="39.5436083" lon="15.912785"><ele>337.0</ele><time>2026-04-27T06:15:52.268Z</time></trkpt><trkpt lat="39.5436483" lon="15.9126983"><ele>337.0</ele><time>2026-04-27T06:15:53.276Z</time></trkpt><trkpt lat="39.5437" lon="15.9126167"><ele>337.0</ele><time>2026-04-27T06:15:54.267Z</time></trkpt><trkpt lat="39.5437483" lon="15.9125583"><ele>337.0</ele><time>2026-04-27T06:15:55.294Z</time></trkpt><trkpt lat="39.5437967" lon="15.9125017"><ele>337.00000000000006</ele><time>2026-04-27T06:15:56.263Z</time></trkpt><trkpt lat="39.5438483" lon="15.9124433"><ele>337.0</ele><time>2026-04-27T06:15:57.267Z</time></trkpt><trkpt lat="39.5438983" lon="15.9123833"><ele>339.3333333333333</ele><time>2026-04-27T06:15:58.272Z</time></trkpt><trkpt lat="39.543945" lon="15.9123233"><ele>341.66666666666663</ele><time>2026-04-27T06:15:59.27Z</time></trkpt><trkpt lat="39.5440383" lon="15.9122183"><ele>344.0</ele><time>2026-04-27T06:16:01.312Z</time></trkpt><trkpt lat="39.5440883" lon="15.912165"><ele>346.3333333333333</ele><time>2026-04-27T06:16:02.272Z</time></trkpt><trkpt lat="39.54414" lon="15.9121067"><ele>348.6666666666667</ele><time>2026-04-27T06:16:03.265Z</time></trkpt><trkpt lat="39.5441967" lon="15.912045"><ele>351.0</ele><time>2026-04-27T06:16:04.269Z</time></trkpt><trkpt lat="39.5442567" lon="15.911985"><ele>351.00000000000006</ele><time>2026-04-27T06:16:05.27Z</time></trkpt><trkpt lat="39.5443167" lon="15.9119167"><ele>351.0</ele><time>2026-04-27T06:16:06.271Z</time></trkpt><trkpt lat="39.5443717" lon="15.911855"><ele>351.0</ele><time>2026-04-27T06:16:07.292Z</time></trkpt><trkpt lat="39.54442" lon="15.9117867"><ele>351.0</ele><time>2026-04-27T06:16:08.267Z</time></trkpt><trkpt lat="39.54447" lon="15.9117183"><ele>351.0</ele><time>2026-04-27T06:16:09.267Z</time></trkpt><trkpt lat="39.54452" lon="15.9116533"><ele>351.00000000000006</ele><time>2026-04-27T06:16:10.268Z</time></trkpt><trkpt lat="39.5445767" lon="15.9115933"><ele>351.0</ele><time>2026-04-27T06:16:11.262Z</time></trkpt><trkpt lat="39.5446317" lon="15.9115383"><ele>353.8333333333333</ele><time>2026-04-27T06:16:12.27Z</time></trkpt><trkpt lat="39.5446867" lon="15.9114833"><ele>356.6666666666667</ele><time>2026-04-27T06:16:13.298Z</time></trkpt><trkpt lat="39.54473" lon="15.9114167"><ele>359.5</ele><time>2026-04-27T06:16:14.262Z</time></trkpt><trkpt lat="39.5447733" lon="15.9113383"><ele>362.33333333333337</ele><time>2026-04-27T06:16:15.266Z</time></trkpt><trkpt lat="39.544815" lon="15.911255"><ele>365.1666666666667</ele><time>2026-04-27T06:16:16.272Z</time></trkpt><trkpt lat="39.5448583" lon="15.9111617"><ele>368.0</ele><time>2026-04-27T06:16:17.263Z</time></trkpt><trkpt lat="39.5449067" lon="15.9110767"><ele>368.0</ele><time>2026-04-27T06:16:18.268Z</time></trkpt><trkpt lat="39.5449567" lon="15.911"><ele>368.0</ele><time>2026-04-27T06:16:19.297Z</time></trkpt><trkpt lat="39.5450133" lon="15.9109383"><ele>368.0</ele><time>2026-04-27T06:16:20.262Z</time></trkpt><trkpt lat="39.54508" lon="15.910895"><ele>368.0</ele><time>2026-04-27T06:16:21.27Z</time></trkpt><trkpt lat="39.545145" lon="15.91086"><ele>368.0</ele><time>2026-04-27T06:16:22.266Z</time></trkpt><trkpt lat="39.5452233" lon="15.910785"><ele>368.0</ele><time>2026-04-27T06:16:24.272Z</time></trkpt><trkpt lat="39.5452267" lon="15.910675"><ele>366.5</ele><time>2026-04-27T06:16:26.271Z</time></trkpt><trkpt lat="39.54521" lon="15.9105317"><ele>365.0</ele><time>2026-04-27T06:16:28.265Z</time></trkpt><trkpt lat="39.5451817" lon="15.91042"><ele>363.5</ele><time>2026-04-27T06:16:29.263Z</time></trkpt><trkpt lat="39.54518" lon="15.9103117"><ele>362.0</ele><time>2026-04-27T06:16:30.267Z</time></trkpt><trkpt lat="39.5451967" lon="15.9102183"><ele>360.5</ele><time>2026-04-27T06:16:31.345Z</time></trkpt><trkpt lat="39.5452183" lon="15.910125"><ele>359.0</ele><time>2026-04-27T06:16:32.275Z</time></trkpt><trkpt lat="39.545245" lon="15.91005"><ele>359.0</ele><time>2026-04-27T06:16:33.268Z</time></trkpt><trkpt lat="39.5453" lon="15.909985"><ele>359.0</ele><time>2026-04-27T06:16:35.278Z</time></trkpt><trkpt lat="39.54534" lon="15.91007"><ele>359.0</ele><time>2026-04-27T06:16:41.274Z</time></trkpt><trkpt lat="39.545425" lon="15.910045"><ele>359.0</ele><time>2026-04-27T06:16:43.291Z</time></trkpt><trkpt lat="39.54555" lon="15.9100217"><ele>359.0</ele><time>2026-04-27T06:16:45.277Z</time></trkpt><trkpt lat="39.54562" lon="15.910025"><ele>359.0</ele><time>2026-04-27T06:16:46.266Z</time></trkpt><trkpt lat="39.54569" lon="15.9100467"><ele>360.83333333333337</ele><time>2026-04-27T06:16:47.264Z</time></trkpt><trkpt lat="39.545755" lon="15.9100717"><ele>362.6666666666667</ele><time>2026-04-27T06:16:48.265Z</time></trkpt><trkpt lat="39.5458267" lon="15.9101083"><ele>364.5</ele><time>2026-04-27T06:16:49.303Z</time></trkpt><trkpt lat="39.5459017" lon="15.9101567"><ele>366.3333333333333</ele><time>2026-04-27T06:16:50.262Z</time></trkpt><trkpt lat="39.54598" lon="15.9102283"><ele>368.16666666666663</ele><time>2026-04-27T06:16:51.271Z</time></trkpt><trkpt lat="39.546065" lon="15.9103033"><ele>370.0</ele><time>2026-04-27T06:16:52.266Z</time></trkpt><trkpt lat="39.5461533" lon="15.9103833"><ele>376.25</ele><time>2026-04-27T06:16:53.27Z</time></trkpt><trkpt lat="39.5462533" lon="15.91047"><ele>382.5</ele><time>2026-04-27T06:16:54.261Z</time></trkpt><trkpt lat="39.5463433" lon="15.9105667"><ele>388.75</ele><time>2026-04-27T06:16:55.312Z</time></trkpt><trkpt lat="39.546425" lon="15.9106683"><ele>395.0</ele><time>2026-04-27T06:16:56.27Z</time></trkpt><trkpt lat="39.5465183" lon="15.9107633"><ele>395.0</ele><time>2026-04-27T06:16:57.274Z</time></trkpt><trkpt lat="39.5466183" lon="15.9108517"><ele>395.0</ele><time>2026-04-27T06:16:58.265Z</time></trkpt><trkpt lat="39.5467117" lon="15.9109217"><ele>395.0</ele><time>2026-04-27T06:16:59.265Z</time></trkpt><trkpt lat="39.546815" lon="15.9109883"><ele>395.0</ele><time>2026-04-27T06:17:00.262Z</time></trkpt><trkpt lat="39.5469333" lon="15.9110483"><ele>401.5</ele><time>2026-04-27T06:17:01.311Z</time></trkpt><trkpt lat="39.5470567" lon="15.911105"><ele>408.0</ele><time>2026-04-27T06:17:02.267Z</time></trkpt><trkpt lat="39.547175" lon="15.9111517"><ele>414.5</ele><time>2026-04-27T06:17:03.274Z</time></trkpt><trkpt lat="39.5473033" lon="15.9111867"><ele>421.0</ele><time>2026-04-27T06:17:04.263Z</time></trkpt><trkpt lat="39.54742" lon="15.91122"><ele>421.0</ele><time>2026-04-27T06:17:05.266Z</time></trkpt><trkpt lat="39.54753" lon="15.9112217"><ele>421.0</ele><time>2026-04-27T06:17:06.265Z</time></trkpt><trkpt lat="39.5476383" lon="15.91121"><ele>421.0</ele><time>2026-04-27T06:17:07.29Z</time></trkpt><trkpt lat="39.547735" lon="15.911165"><ele>421.0</ele><time>2026-04-27T06:17:08.263Z</time></trkpt><trkpt lat="39.5477867" lon="15.911085"><ele>421.0</ele><time>2026-04-27T06:17:09.26Z</time></trkpt><trkpt lat="39.5478533" lon="15.91103"><ele>421.1666666666667</ele><time>2026-04-27T06:17:10.262Z</time></trkpt><trkpt lat="39.5479183" lon="15.9109917"><ele>421.33333333333337</ele><time>2026-04-27T06:17:11.27Z</time></trkpt><trkpt lat="39.547995" lon="15.91098"><ele>421.5</ele><time>2026-04-27T06:17:12.271Z</time></trkpt><trkpt lat="39.5480617" lon="15.910995"><ele>421.66666666666663</ele><time>2026-04-27T06:17:13.299Z</time></trkpt><trkpt lat="39.5481217" lon="15.9111267"><ele>421.8333333333333</ele><time>2026-04-27T06:17:15.272Z</time></trkpt><trkpt lat="39.5481317" lon="15.911255"><ele>422.0</ele><time>2026-04-27T06:17:17.272Z</time></trkpt><trkpt lat="39.548105" lon="15.9113417"><ele>422.0</ele><time>2026-04-27T06:17:18.271Z</time></trkpt><trkpt lat="39.548065" lon="15.9114583"><ele>422.0</ele><time>2026-04-27T06:17:19.301Z</time></trkpt><trkpt lat="39.5480267" lon="15.91156"><ele>422.0</ele><time>2026-04-27T06:17:20.263Z</time></trkpt><trkpt lat="39.5479683" lon="15.9116783"><ele>422.0</ele><time>2026-04-27T06:17:21.261Z</time></trkpt><trkpt lat="39.54789" lon="15.9117867"><ele>422.0</ele><time>2026-04-27T06:17:22.267Z</time></trkpt><trkpt lat="39.547795" lon="15.9118867"><ele>428.0</ele><time>2026-04-27T06:17:23.269Z</time></trkpt><trkpt lat="39.5476867" lon="15.9119667"><ele>434.0</ele><time>2026-04-27T06:17:24.271Z</time></trkpt><trkpt lat="39.5475533" lon="15.9120167"><ele>440.0</ele><time>2026-04-27T06:17:25.335Z</time></trkpt><trkpt lat="39.5474217" lon="15.912055"><ele>446.0</ele><time>2026-04-27T06:17:26.264Z</time></trkpt><trkpt lat="39.5472983" lon="15.9120917"><ele>446.0</ele><time>2026-04-27T06:17:27.274Z</time></trkpt><trkpt lat="39.5471917" lon="15.91213"><ele>446.0</ele><time>2026-04-27T06:17:28.266Z</time></trkpt><trkpt lat="39.5470917" lon="15.9121883"><ele>446.0</ele><time>2026-04-27T06:17:30.268Z</time></trkpt><trkpt lat="39.5471217" lon="15.9123133"><ele>446.0</ele><time>2026-04-27T06:17:32.269Z</time></trkpt><trkpt lat="39.547155" lon="15.9124067"><ele>446.0</ele><time>2026-04-27T06:17:33.273Z</time></trkpt><trkpt lat="39.547195" lon="15.9125033"><ele>448.4</ele><time>2026-04-27T06:17:34.266Z</time></trkpt><trkpt lat="39.547245" lon="15.9126117"><ele>450.8</ele><time>2026-04-27T06:17:35.261Z</time></trkpt><trkpt lat="39.5472933" lon="15.9127333"><ele>453.19999999999993</ele><time>2026-04-27T06:17:36.264Z</time></trkpt><trkpt lat="39.5473283" lon="15.9128617"><ele>455.59999999999997</ele><time>2026-04-27T06:17:37.295Z</time></trkpt><trkpt lat="39.5473533" lon="15.9129733"><ele>458.0</ele><time>2026-04-27T06:17:38.263Z</time></trkpt><trkpt lat="39.5473667" lon="15.9130733"><ele>458.0</ele><time>2026-04-27T06:17:39.269Z</time></trkpt><trkpt lat="39.5473083" lon="15.9132083"><ele>457.99999999999994</ele><time>2026-04-27T06:17:41.274Z</time></trkpt><trkpt lat="39.54726" lon="15.91327"><ele>457.99999999999994</ele><time>2026-04-27T06:17:42.269Z</time></trkpt><trkpt lat="39.5472217" lon="15.913335"><ele>458.0</ele><time>2026-04-27T06:17:43.292Z</time></trkpt><trkpt lat="39.5471733" lon="15.9134583"><ele>458.0</ele><time>2026-04-27T06:17:45.265Z</time></trkpt><trkpt lat="39.547195" lon="15.9135917"><ele>460.0</ele><time>2026-04-27T06:17:47.27Z</time></trkpt><trkpt lat="39.54724" lon="15.91368"><ele>461.99999999999994</ele><time>2026-04-27T06:17:48.262Z</time></trkpt><trkpt lat="39.54731" lon="15.9137733"><ele>463.99999999999994</ele><time>2026-04-27T06:17:49.297Z</time></trkpt><trkpt lat="39.5473783" lon="15.9138683"><ele>466.0</ele><time>2026-04-27T06:17:50.263Z</time></trkpt><trkpt lat="39.5474633" lon="15.913955"><ele>468.0</ele><time>2026-04-27T06:17:51.264Z</time></trkpt><trkpt lat="39.54757" lon="15.9140383"><ele>468.0</ele><time>2026-04-27T06:17:52.264Z</time></trkpt><trkpt lat="39.547675" lon="15.9141083"><ele>467.99999999999994</ele><time>2026-04-27T06:17:53.27Z</time></trkpt><trkpt lat="39.5477733" lon="15.91417"><ele>467.99999999999994</ele><time>2026-04-27T06:17:54.27Z</time></trkpt><trkpt lat="39.547855" lon="15.9142067"><ele>468.0</ele><time>2026-04-27T06:17:55.335Z</time></trkpt><trkpt lat="39.5479217" lon="15.9142583"><ele>468.0</ele><time>2026-04-27T06:17:56.264Z</time></trkpt><trkpt lat="39.5479017" lon="15.9143367"><ele>469.25</ele><time>2026-04-27T06:17:58.265Z</time></trkpt><trkpt lat="39.547815" lon="15.91441"><ele>470.5</ele><time>2026-04-27T06:18:00.27Z</time></trkpt><trkpt lat="39.5477133" lon="15.9144767"><ele>471.75</ele><time>2026-04-27T06:18:02.264Z</time></trkpt><trkpt lat="39.5476633" lon="15.9145783"><ele>473.0</ele><time>2026-04-27T06:18:04.259Z</time></trkpt><trkpt lat="39.5477067" lon="15.9147917"><ele>473.0</ele><time>2026-04-27T06:18:06.266Z</time></trkpt><trkpt lat="39.547755" lon="15.9149267"><ele>473.0</ele><time>2026-04-27T06:18:07.302Z</time></trkpt><trkpt lat="39.54782" lon="15.91507"><ele>473.0</ele><time>2026-04-27T06:18:08.266Z</time></trkpt><trkpt lat="39.54788" lon="15.9152133"><ele>473.0</ele><time>2026-04-27T06:18:09.266Z</time></trkpt><trkpt lat="39.5479417" lon="15.915345"><ele>476.4</ele><time>2026-04-27T06:18:10.271Z</time></trkpt><trkpt lat="39.548" lon="15.91546"><ele>479.79999999999995</ele><time>2026-04-27T06:18:11.275Z</time></trkpt><trkpt lat="39.5480633" lon="15.91556"><ele>483.2</ele><time>2026-04-27T06:18:12.267Z</time></trkpt><trkpt lat="39.54814" lon="15.9156383"><ele>486.6</ele><time>2026-04-27T06:18:13.303Z</time></trkpt><trkpt lat="39.5482233" lon="15.9156983"><ele>490.0</ele><time>2026-04-27T06:18:14.262Z</time></trkpt><trkpt lat="39.548315" lon="15.91576"><ele>490.0</ele><time>2026-04-27T06:18:15.273Z</time></trkpt><trkpt lat="39.548415" lon="15.9158467"><ele>490.0</ele><time>2026-04-27T06:18:16.264Z</time></trkpt><trkpt lat="39.5485133" lon="15.915955"><ele>490.0</ele><time>2026-04-27T06:18:17.27Z</time></trkpt><trkpt lat="39.548605" lon="15.9160583"><ele>490.0</ele><time>2026-04-27T06:18:18.272Z</time></trkpt><trkpt lat="39.548675" lon="15.91615"><ele>493.4</ele><time>2026-04-27T06:18:19.3Z</time></trkpt><trkpt lat="39.548725" lon="15.9162317"><ele>496.8</ele><time>2026-04-27T06:18:20.264Z</time></trkpt><trkpt lat="39.5487867" lon="15.91634"><ele>500.20000000000005</ele><time>2026-04-27T06:18:22.271Z</time></trkpt><trkpt lat="39.548885" lon="15.9162683"><ele>503.6</ele><time>2026-04-27T06:18:25.291Z</time></trkpt><trkpt lat="39.5489583" lon="15.9161333"><ele>507.0</ele><time>2026-04-27T06:18:27.267Z</time></trkpt><trkpt lat="39.54899" lon="15.916045"><ele>507.0</ele><time>2026-04-27T06:18:28.266Z</time></trkpt><trkpt lat="39.54902" lon="15.9159533"><ele>507.0</ele><time>2026-04-27T06:18:29.271Z</time></trkpt><trkpt lat="39.5490467" lon="15.9158517"><ele>507.0</ele><time>2026-04-27T06:18:30.259Z</time></trkpt><trkpt lat="39.5490783" lon="15.915765"><ele>507.0</ele><time>2026-04-27T06:18:31.263Z</time></trkpt><trkpt lat="39.5491433" lon="15.91565"><ele>507.0</ele><time>2026-04-27T06:18:33.264Z</time></trkpt><trkpt lat="39.5492217" lon="15.9155967"><ele>507.0</ele><time>2026-04-27T06:18:35.263Z</time></trkpt><trkpt lat="39.5493217" lon="15.9156383"><ele>507.0</ele><time>2026-04-27T06:18:37.303Z</time></trkpt><trkpt lat="39.549375" lon="15.9156867"><ele>507.0</ele><time>2026-04-27T06:18:38.269Z</time></trkpt><trkpt lat="39.54944" lon="15.9157917"><ele>507.0</ele><time>2026-04-27T06:18:39.276Z</time></trkpt><trkpt lat="39.549505" lon="15.9159267"><ele>507.0</ele><time>2026-04-27T06:18:40.269Z</time></trkpt><trkpt lat="39.5495983" lon="15.9160983"><ele>512.0</ele><time>2026-04-27T06:18:41.271Z</time></trkpt><trkpt lat="39.54969" lon="15.91626"><ele>517.0</ele><time>2026-04-27T06:18:42.266Z</time></trkpt><trkpt lat="39.54978" lon="15.9163917"><ele>522.0</ele><time>2026-04-27T06:18:43.301Z</time></trkpt><trkpt lat="39.54988" lon="15.9165133"><ele>527.0</ele><time>2026-04-27T06:18:44.268Z</time></trkpt><trkpt lat="39.5499783" lon="15.9166117"><ele>527.0</ele><time>2026-04-27T06:18:45.272Z</time></trkpt><trkpt lat="39.5500867" lon="15.9167"><ele>527.0</ele><time>2026-04-27T06:18:46.268Z</time></trkpt><trkpt lat="39.5501833" lon="15.9167783"><ele>527.0</ele><time>2026-04-27T06:18:47.266Z</time></trkpt><trkpt lat="39.550285" lon="15.9168483"><ele>527.0</ele><time>2026-04-27T06:18:48.267Z</time></trkpt><trkpt lat="39.550385" lon="15.916905"><ele>529.6</ele><time>2026-04-27T06:18:49.302Z</time></trkpt><trkpt lat="39.5504733" lon="15.9169467"><ele>532.2</ele><time>2026-04-27T06:18:50.272Z</time></trkpt><trkpt lat="39.5505733" lon="15.916975"><ele>534.8</ele><time>2026-04-27T06:18:51.26Z</time></trkpt><trkpt lat="39.55068" lon="15.9170017"><ele>537.4</ele><time>2026-04-27T06:18:52.269Z</time></trkpt><trkpt lat="39.5507867" lon="15.917025"><ele>540.0</ele><time>2026-04-27T06:18:53.268Z</time></trkpt><trkpt lat="39.5508917" lon="15.917045"><ele>540.0</ele><time>2026-04-27T06:18:54.269Z</time></trkpt><trkpt lat="39.5510033" lon="15.9170617"><ele>540.0</ele><time>2026-04-27T06:18:55.329Z</time></trkpt><trkpt lat="39.55111" lon="15.9170683"><ele>540.0</ele><time>2026-04-27T06:18:56.26Z</time></trkpt><trkpt lat="39.551215" lon="15.9170567"><ele>540.0</ele><time>2026-04-27T06:18:57.272Z</time></trkpt><trkpt lat="39.5513183" lon="15.9170217"><ele>540.0</ele><time>2026-04-27T06:18:58.264Z</time></trkpt><trkpt lat="39.5514317" lon="15.9169783"><ele>542.6</ele><time>2026-04-27T06:18:59.271Z</time></trkpt><trkpt lat="39.5515383" lon="15.9169383"><ele>545.2</ele><time>2026-04-27T06:19:00.265Z</time></trkpt><trkpt lat="39.5516317" lon="15.9168983"><ele>547.8</ele><time>2026-04-27T06:19:01.313Z</time></trkpt><trkpt lat="39.5517167" lon="15.916845"><ele>550.4</ele><time>2026-04-27T06:19:02.269Z</time></trkpt><trkpt lat="39.5517983" lon="15.9167867"><ele>553.0</ele><time>2026-04-27T06:19:03.268Z</time></trkpt><trkpt lat="39.551875" lon="15.91673"><ele>553.0</ele><time>2026-04-27T06:19:04.268Z</time></trkpt><trkpt lat="39.5519783" lon="15.9166417"><ele>553.0</ele><time>2026-04-27T06:19:06.266Z</time></trkpt><trkpt lat="39.5521133" lon="15.91663"><ele>553.0</ele><time>2026-04-27T06:19:08.263Z</time></trkpt><trkpt lat="39.5522083" lon="15.9166583"><ele>553.0</ele><time>2026-04-27T06:19:09.27Z</time></trkpt><trkpt lat="39.5523117" lon="15.916725"><ele>561.3333333333334</ele><time>2026-04-27T06:19:10.268Z</time></trkpt><trkpt lat="39.552445" lon="15.91684"><ele>569.6666666666666</ele><time>2026-04-27T06:19:11.27Z</time></trkpt><trkpt lat="39.55257" lon="15.9169783"><ele>578.0</ele><time>2026-04-27T06:19:12.271Z</time></trkpt><trkpt lat="39.5526717" lon="15.9170967"><ele>578.0</ele><time>2026-04-27T06:19:13.301Z</time></trkpt><trkpt lat="39.5527533" lon="15.917195"><ele>578.0</ele><time>2026-04-27T06:19:14.269Z</time></trkpt><trkpt lat="39.5528317" lon="15.9172817"><ele>578.0</ele><time>2026-04-27T06:19:15.272Z</time></trkpt><trkpt lat="39.5529" lon="15.9173683"><ele>578.0</ele><time>2026-04-27T06:19:16.269Z</time></trkpt><trkpt lat="39.5529133" lon="15.9174933"><ele>578.0</ele><time>2026-04-27T06:19:18.267Z</time></trkpt><trkpt lat="39.5528317" lon="15.9175517"><ele>578.0</ele><time>2026-04-27T06:19:20.265Z</time></trkpt><trkpt lat="39.5527633" lon="15.9175433"><ele>578.0</ele><time>2026-04-27T06:19:21.269Z</time></trkpt><trkpt lat="39.5526767" lon="15.9175283"><ele>578.0</ele><time>2026-04-27T06:19:22.264Z</time></trkpt><trkpt lat="39.5525933" lon="15.91754"><ele>578.0</ele><time>2026-04-27T06:19:23.271Z</time></trkpt><trkpt lat="39.5525167" lon="15.91756"><ele>578.0</ele><time>2026-04-27T06:19:24.269Z</time></trkpt><trkpt lat="39.5524467" lon="15.9175917"><ele>578.0</ele><time>2026-04-27T06:19:25.338Z</time></trkpt><trkpt lat="39.552395" lon="15.9176733"><ele>578.1666666666666</ele><time>2026-04-27T06:19:26.27Z</time></trkpt><trkpt lat="39.5523467" lon="15.9177633"><ele>578.3333333333333</ele><time>2026-04-27T06:19:27.27Z</time></trkpt><trkpt lat="39.5523133" lon="15.9178617"><ele>578.5</ele><time>2026-04-27T06:19:28.262Z</time></trkpt><trkpt lat="39.5522933" lon="15.917955"><ele>578.6666666666666</ele><time>2026-04-27T06:19:29.269Z</time></trkpt><trkpt lat="39.5523233" lon="15.9180483"><ele>578.8333333333334</ele><time>2026-04-27T06:19:30.272Z</time></trkpt><trkpt lat="39.5523467" lon="15.9181367"><ele>579.0</ele><time>2026-04-27T06:19:31.288Z</time></trkpt><trkpt lat="39.55242" lon="15.918225"><ele>579.0</ele><time>2026-04-27T06:19:32.261Z</time></trkpt><trkpt lat="39.55252" lon="15.9182933"><ele>579.0</ele><time>2026-04-27T06:19:33.269Z</time></trkpt><trkpt lat="39.5525817" lon="15.9183667"><ele>579.0</ele><time>2026-04-27T06:19:34.27Z</time></trkpt><trkpt lat="39.5526667" lon="15.9184133"><ele>579.0</ele><time>2026-04-27T06:19:35.268Z</time></trkpt><trkpt lat="39.5527783" lon="15.918425"><ele>579.0</ele><time>2026-04-27T06:19:36.27Z</time></trkpt><trkpt lat="39.55287" lon="15.9184267"><ele>580.5</ele><time>2026-04-27T06:19:37.3Z</time></trkpt><trkpt lat="39.5529417" lon="15.9184417"><ele>582.0</ele><time>2026-04-27T06:19:38.266Z</time></trkpt><trkpt lat="39.5530317" lon="15.9184867"><ele>583.5</ele><time>2026-04-27T06:19:39.27Z</time></trkpt><trkpt lat="39.553155" lon="15.918585"><ele>585.0</ele><time>2026-04-27T06:19:40.264Z</time></trkpt><trkpt lat="39.5532767" lon="15.91869"><ele>585.0</ele><time>2026-04-27T06:19:41.271Z</time></trkpt><trkpt lat="39.5534183" lon="15.918805"><ele>585.0</ele><time>2026-04-27T06:19:42.277Z</time></trkpt><trkpt lat="39.5535517" lon="15.91891"><ele>585.0</ele><time>2026-04-27T06:19:43.3Z</time></trkpt><trkpt lat="39.5536767" lon="15.9190117"><ele>586.25</ele><time>2026-04-27T06:19:44.269Z</time></trkpt><trkpt lat="39.5537967" lon="15.9191167"><ele>587.5</ele><time>2026-04-27T06:19:45.264Z</time></trkpt><trkpt lat="39.553915" lon="15.9192233"><ele>588.75</ele><time>2026-04-27T06:19:46.268Z</time></trkpt><trkpt lat="39.5540267" lon="15.9193333"><ele>590.0</ele><time>2026-04-27T06:19:47.274Z</time></trkpt><trkpt lat="39.5541417" lon="15.9194317"><ele>590.0</ele><time>2026-04-27T06:19:48.269Z</time></trkpt><trkpt lat="39.5542467" lon="15.919525"><ele>590.0</ele><time>2026-04-27T06:19:49.3Z</time></trkpt><trkpt lat="39.55434" lon="15.9196233"><ele>590.0</ele><time>2026-04-27T06:19:50.266Z</time></trkpt><trkpt lat="39.5544317" lon="15.919735"><ele>590.0</ele><time>2026-04-27T06:19:51.263Z</time></trkpt><trkpt lat="39.5545217" lon="15.9198683"><ele>590.75</ele><time>2026-04-27T06:19:52.268Z</time></trkpt><trkpt lat="39.5546117" lon="15.9200033"><ele>591.5</ele><time>2026-04-27T06:19:53.27Z</time></trkpt><trkpt lat="39.5547133" lon="15.9201417"><ele>592.25</ele><time>2026-04-27T06:19:54.269Z</time></trkpt><trkpt lat="39.55482" lon="15.9202767"><ele>593.0</ele><time>2026-04-27T06:19:55.334Z</time></trkpt><trkpt lat="39.55493" lon="15.9204117"><ele>593.0</ele><time>2026-04-27T06:19:56.266Z</time></trkpt><trkpt lat="39.5550417" lon="15.9205417"><ele>593.0</ele><time>2026-04-27T06:19:57.273Z</time></trkpt><trkpt lat="39.5551467" lon="15.92067"><ele>593.0</ele><time>2026-04-27T06:19:58.269Z</time></trkpt><trkpt lat="39.5552733" lon="15.9207833"><ele>593.0</ele><time>2026-04-27T06:19:59.267Z</time></trkpt><trkpt lat="39.5554083" lon="15.9208783"><ele>596.5</ele><time>2026-04-27T06:20:00.268Z</time></trkpt><trkpt lat="39.5555383" lon="15.92096"><ele>600.0</ele><time>2026-04-27T06:20:01.315Z</time></trkpt><trkpt lat="39.555665" lon="15.9210467"><ele>603.5</ele><time>2026-04-27T06:20:02.269Z</time></trkpt><trkpt lat="39.5557867" lon="15.921145"><ele>607.0</ele><time>2026-04-27T06:20:03.275Z</time></trkpt><trkpt lat="39.5559033" lon="15.921255"><ele>607.0</ele><time>2026-04-27T06:20:04.263Z</time></trkpt><trkpt lat="39.5560183" lon="15.9213733"><ele>607.0</ele><time>2026-04-27T06:20:05.27Z</time></trkpt><trkpt lat="39.5561267" lon="15.9214867"><ele>607.0</ele><time>2026-04-27T06:20:06.272Z</time></trkpt><trkpt lat="39.5562233" lon="15.9215883"><ele>607.0</ele><time>2026-04-27T06:20:07.3Z</time></trkpt><trkpt lat="39.5563033" lon="15.9216817"><ele>612.5</ele><time>2026-04-27T06:20:08.268Z</time></trkpt><trkpt lat="39.5563833" lon="15.92178"><ele>618.0</ele><time>2026-04-27T06:20:09.27Z</time></trkpt><trkpt lat="39.5564583" lon="15.92189"><ele>623.5</ele><time>2026-04-27T06:20:10.268Z</time></trkpt><trkpt lat="39.556535" lon="15.92201"><ele>629.0</ele><time>2026-04-27T06:20:11.27Z</time></trkpt><trkpt lat="39.5566083" lon="15.9221283"><ele>629.0</ele><time>2026-04-27T06:20:12.263Z</time></trkpt><trkpt lat="39.556695" lon="15.922245"><ele>629.0</ele><time>2026-04-27T06:20:13.304Z</time></trkpt><trkpt lat="39.556785" lon="15.9223533"><ele>629.0</ele><time>2026-04-27T06:20:14.267Z</time></trkpt><trkpt lat="39.55687" lon="15.92245"><ele>629.0</ele><time>2026-04-27T06:20:15.271Z</time></trkpt><trkpt lat="39.5569533" lon="15.9225317"><ele>627.4</ele><time>2026-04-27T06:20:16.269Z</time></trkpt><trkpt lat="39.5570317" lon="15.9226"><ele>625.8</ele><time>2026-04-27T06:20:17.273Z</time></trkpt><trkpt lat="39.5571067" lon="15.9226583"><ele>624.2</ele><time>2026-04-27T06:20:18.268Z</time></trkpt><trkpt lat="39.5571833" lon="15.9227267"><ele>622.6</ele><time>2026-04-27T06:20:19.301Z</time></trkpt><trkpt lat="39.5572667" lon="15.9228083"><ele>621.0</ele><time>2026-04-27T06:20:20.266Z</time></trkpt><trkpt lat="39.5573383" lon="15.922905"><ele>625.0</ele><time>2026-04-27T06:20:21.269Z</time></trkpt><trkpt lat="39.557405" lon="15.9230017"><ele>629.0</ele><time>2026-04-27T06:20:22.262Z</time></trkpt><trkpt lat="39.5574633" lon="15.923085"><ele>633.0</ele><time>2026-04-27T06:20:23.266Z</time></trkpt><trkpt lat="39.5575183" lon="15.9231417"><ele>637.0</ele><time>2026-04-27T06:20:24.269Z</time></trkpt><trkpt lat="39.5576117" lon="15.9231917"><ele>641.0</ele><time>2026-04-27T06:20:26.263Z</time></trkpt><trkpt lat="39.557665" lon="15.92311"><ele>645.0</ele><time>2026-04-27T06:20:28.273Z</time></trkpt><trkpt lat="39.55767" lon="15.9230017"><ele>645.0</ele><time>2026-04-27T06:20:29.273Z</time></trkpt><trkpt lat="39.5576717" lon="15.9228767"><ele>645.0</ele><time>2026-04-27T06:20:30.258Z</time></trkpt><trkpt lat="39.55768" lon="15.9227567"><ele>645.0</ele><time>2026-04-27T06:20:31.27Z</time></trkpt><trkpt lat="39.5576967" lon="15.9226317"><ele>645.0</ele><time>2026-04-27T06:20:32.268Z</time></trkpt><trkpt lat="39.55772" lon="15.9225017"><ele>645.0</ele><time>2026-04-27T06:20:33.267Z</time></trkpt><trkpt lat="39.5577517" lon="15.9223183"><ele>646.0</ele><time>2026-04-27T06:20:34.264Z</time></trkpt><trkpt lat="39.5577867" lon="15.9221433"><ele>647.0</ele><time>2026-04-27T06:20:35.26Z</time></trkpt><trkpt lat="39.557835" lon="15.92197"><ele>648.0</ele><time>2026-04-27T06:20:36.265Z</time></trkpt><trkpt lat="39.5578767" lon="15.9218117"><ele>649.0</ele><time>2026-04-27T06:20:37.298Z</time></trkpt><trkpt lat="39.5579183" lon="15.9216783"><ele>652.1666666666667</ele><time>2026-04-27T06:20:38.268Z</time></trkpt><trkpt lat="39.5579583" lon="15.9215633"><ele>655.3333333333334</ele><time>2026-04-27T06:20:39.268Z</time></trkpt><trkpt lat="39.5580033" lon="15.9214683"><ele>658.5</ele><time>2026-04-27T06:20:40.266Z</time></trkpt><trkpt lat="39.5580583" lon="15.921395"><ele>661.6666666666666</ele><time>2026-04-27T06:20:41.268Z</time></trkpt><trkpt lat="39.5581183" lon="15.9213433"><ele>664.8333333333333</ele><time>2026-04-27T06:20:42.271Z</time></trkpt><trkpt lat="39.558175" lon="15.9212983"><ele>668.0</ele><time>2026-04-27T06:20:43.303Z</time></trkpt><trkpt lat="39.5582883" lon="15.921275"><ele>668.0</ele><time>2026-04-27T06:20:45.271Z</time></trkpt><trkpt lat="39.5583933" lon="15.9214867"><ele>668.0</ele><time>2026-04-27T06:20:47.268Z</time></trkpt><trkpt lat="39.5584283" lon="15.921615"><ele>668.0</ele><time>2026-04-27T06:20:48.264Z</time></trkpt><trkpt lat="39.5584567" lon="15.9217667"><ele>668.0</ele><time>2026-04-27T06:20:49.3Z</time></trkpt><trkpt lat="39.5584817" lon="15.9219267"><ele>670.0</ele><time>2026-04-27T06:20:50.267Z</time></trkpt><trkpt lat="39.5584967" lon="15.922085"><ele>672.0</ele><time>2026-04-27T06:20:51.269Z</time></trkpt><trkpt lat="39.5585033" lon="15.9222317"><ele>674.0</ele><time>2026-04-27T06:20:52.267Z</time></trkpt><trkpt lat="39.5585167" lon="15.9223733"><ele>676.0</ele><time>2026-04-27T06:20:53.274Z</time></trkpt><trkpt lat="39.5585417" lon="15.9225117"><ele>675.5</ele><time>2026-04-27T06:20:54.263Z</time></trkpt><trkpt lat="39.55858" lon="15.9226533"><ele>675.0</ele><time>2026-04-27T06:20:55.275Z</time></trkpt><trkpt lat="39.558625" lon="15.9227917"><ele>674.5</ele><time>2026-04-27T06:20:56.27Z</time></trkpt><trkpt lat="39.55868" lon="15.92293"><ele>674.0</ele><time>2026-04-27T06:20:57.27Z</time></trkpt><trkpt lat="39.55874" lon="15.923065"><ele>677.0</ele><time>2026-04-27T06:20:58.271Z</time></trkpt><trkpt lat="39.5588017" lon="15.9231933"><ele>680.0</ele><time>2026-04-27T06:20:59.267Z</time></trkpt><trkpt lat="39.558865" lon="15.9233167"><ele>683.0</ele><time>2026-04-27T06:21:00.268Z</time></trkpt><trkpt lat="39.558925" lon="15.923435"><ele>686.0</ele><time>2026-04-27T06:21:01.289Z</time></trkpt><trkpt lat="39.5589817" lon="15.92356"><ele>686.8</ele><time>2026-04-27T06:21:02.27Z</time></trkpt><trkpt lat="39.5590317" lon="15.9236867"><ele>687.5999999999999</ele><time>2026-04-27T06:21:03.27Z</time></trkpt><trkpt lat="39.5590767" lon="15.9238133"><ele>688.4</ele><time>2026-04-27T06:21:04.269Z</time></trkpt><trkpt lat="39.5591167" lon="15.9239467"><ele>689.2</ele><time>2026-04-27T06:21:05.266Z</time></trkpt><trkpt lat="39.55915" lon="15.9240983"><ele>690.0</ele><time>2026-04-27T06:21:06.271Z</time></trkpt><trkpt lat="39.559165" lon="15.9242683"><ele>690.25</ele><time>2026-04-27T06:21:07.292Z</time></trkpt><trkpt lat="39.5591767" lon="15.9244283"><ele>690.5</ele><time>2026-04-27T06:21:08.261Z</time></trkpt><trkpt lat="39.5591933" lon="15.924575"><ele>690.75</ele><time>2026-04-27T06:21:09.262Z</time></trkpt><trkpt lat="39.5592083" lon="15.9247183"><ele>691.0</ele><time>2026-04-27T06:21:10.263Z</time></trkpt><trkpt lat="39.5592283" lon="15.924855"><ele>691.0</ele><time>2026-04-27T06:21:11.269Z</time></trkpt><trkpt lat="39.55926" lon="15.924995"><ele>691.0</ele><time>2026-04-27T06:21:12.266Z</time></trkpt><trkpt lat="39.5592883" lon="15.9251367"><ele>691.0</ele><time>2026-04-27T06:21:13.303Z</time></trkpt><trkpt lat="39.5593117" lon="15.9252917"><ele>691.0</ele><time>2026-04-27T06:21:14.26Z</time></trkpt><trkpt lat="39.5593367" lon="15.925445"><ele>689.75</ele><time>2026-04-27T06:21:15.265Z</time></trkpt><trkpt lat="39.5593733" lon="15.9255883"><ele>688.5</ele><time>2026-04-27T06:21:16.26Z</time></trkpt><trkpt lat="39.5594283" lon="15.9257217"><ele>687.25</ele><time>2026-04-27T06:21:17.27Z</time></trkpt><trkpt lat="39.559495" lon="15.92585"><ele>686.0</ele><time>2026-04-27T06:21:18.262Z</time></trkpt><trkpt lat="39.559575" lon="15.9259667"><ele>688.5999999999999</ele><time>2026-04-27T06:21:19.301Z</time></trkpt><trkpt lat="39.559655" lon="15.92606"><ele>691.2</ele><time>2026-04-27T06:21:20.265Z</time></trkpt><trkpt lat="39.55973" lon="15.9261433"><ele>693.8</ele><time>2026-04-27T06:21:21.275Z</time></trkpt><trkpt lat="39.5598167" lon="15.92622"><ele>696.4000000000001</ele><time>2026-04-27T06:21:22.265Z</time></trkpt><trkpt lat="39.5598983" lon="15.9262967"><ele>699.0</ele><time>2026-04-27T06:21:23.272Z</time></trkpt><trkpt lat="39.5599783" lon="15.9263733"><ele>699.0</ele><time>2026-04-27T06:21:24.269Z</time></trkpt><trkpt lat="39.5600333" lon="15.9264483"><ele>699.0</ele><time>2026-04-27T06:21:25.336Z</time></trkpt><trkpt lat="39.5600767" lon="15.92654"><ele>699.0</ele><time>2026-04-27T06:21:26.266Z</time></trkpt><trkpt lat="39.5601183" lon="15.9266483"><ele>699.0</ele><time>2026-04-27T06:21:27.268Z</time></trkpt><trkpt lat="39.5601633" lon="15.9268"><ele>699.0</ele><time>2026-04-27T06:21:28.273Z</time></trkpt><trkpt lat="39.560205" lon="15.9269433"><ele>699.3333333333334</ele><time>2026-04-27T06:21:29.27Z</time></trkpt><trkpt lat="39.5602433" lon="15.9270717"><ele>699.6666666666666</ele><time>2026-04-27T06:21:30.27Z</time></trkpt><trkpt lat="39.560285" lon="15.92717"><ele>700.0</ele><time>2026-04-27T06:21:31.312Z</time></trkpt><trkpt lat="39.560325" lon="15.9272583"><ele>700.3333333333333</ele><time>2026-04-27T06:21:32.268Z</time></trkpt><trkpt lat="39.5603867" lon="15.9273367"><ele>700.6666666666666</ele><time>2026-04-27T06:21:33.268Z</time></trkpt><trkpt lat="39.5604433" lon="15.92741"><ele>701.0</ele><time>2026-04-27T06:21:34.266Z</time></trkpt><trkpt lat="39.5605017" lon="15.9274967"><ele>703.5</ele><time>2026-04-27T06:21:35.275Z</time></trkpt><trkpt lat="39.56056" lon="15.9275933"><ele>706.0</ele><time>2026-04-27T06:21:36.269Z</time></trkpt><trkpt lat="39.5606117" lon="15.9276983"><ele>708.5</ele><time>2026-04-27T06:21:37.299Z</time></trkpt><trkpt lat="39.56065" lon="15.9277933"><ele>711.0</ele><time>2026-04-27T06:21:38.27Z</time></trkpt><trkpt lat="39.5606833" lon="15.9278933"><ele>713.5</ele><time>2026-04-27T06:21:39.268Z</time></trkpt><trkpt lat="39.560715" lon="15.9279983"><ele>716.0</ele><time>2026-04-27T06:21:40.268Z</time></trkpt><trkpt lat="39.5607533" lon="15.9281033"><ele>716.0</ele><time>2026-04-27T06:21:41.27Z</time></trkpt><trkpt lat="39.5607933" lon="15.92821"><ele>716.0</ele><time>2026-04-27T06:21:42.262Z</time></trkpt><trkpt lat="39.5608417" lon="15.9283083"><ele>716.0</ele><time>2026-04-27T06:21:43.305Z</time></trkpt><trkpt lat="39.560895" lon="15.9284067"><ele>716.0</ele><time>2026-04-27T06:21:44.271Z</time></trkpt><trkpt lat="39.5609467" lon="15.9284933"><ele>716.0</ele><time>2026-04-27T06:21:45.264Z</time></trkpt><trkpt lat="39.5609883" lon="15.9285817"><ele>716.0</ele><time>2026-04-27T06:21:46.276Z</time></trkpt><trkpt lat="39.5610267" lon="15.928665"><ele>716.4</ele><time>2026-04-27T06:21:47.275Z</time></trkpt><trkpt lat="39.561065" lon="15.9287583"><ele>716.8</ele><time>2026-04-27T06:21:48.266Z</time></trkpt><trkpt lat="39.561105" lon="15.9288517"><ele>717.1999999999999</ele><time>2026-04-27T06:21:49.3Z</time></trkpt><trkpt lat="39.5611567" lon="15.9289483"><ele>717.5999999999999</ele><time>2026-04-27T06:21:50.262Z</time></trkpt><trkpt lat="39.5612117" lon="15.92905"><ele>718.0</ele><time>2026-04-27T06:21:51.269Z</time></trkpt><trkpt lat="39.5612817" lon="15.9291517"><ele>721.5999999999999</ele><time>2026-04-27T06:21:52.262Z</time></trkpt><trkpt lat="39.5613583" lon="15.9292517"><ele>725.1999999999999</ele><time>2026-04-27T06:21:53.265Z</time></trkpt><trkpt lat="39.5614317" lon="15.9293417"><ele>728.8</ele><time>2026-04-27T06:21:54.267Z</time></trkpt><trkpt lat="39.5615017" lon="15.9294233"><ele>732.4</ele><time>2026-04-27T06:21:55.33Z</time></trkpt><trkpt lat="39.5615583" lon="15.929495"><ele>736.0</ele><time>2026-04-27T06:21:56.263Z</time></trkpt><trkpt lat="39.56158" lon="15.9296117"><ele>736.0</ele><time>2026-04-27T06:21:58.268Z</time></trkpt><trkpt lat="39.5615883" lon="15.9297667"><ele>736.0</ele><time>2026-04-27T06:22:00.27Z</time></trkpt><trkpt lat="39.5615867" lon="15.9298733"><ele>736.0</ele><time>2026-04-27T06:22:01.288Z</time></trkpt><trkpt lat="39.561585" lon="15.929985"><ele>736.0</ele><time>2026-04-27T06:22:02.269Z</time></trkpt><trkpt lat="39.5615733" lon="15.9301"><ele>736.0</ele><time>2026-04-27T06:22:03.268Z</time></trkpt><trkpt lat="39.56156" lon="15.9302183"><ele>737.1428571428572</ele><time>2026-04-27T06:22:04.268Z</time></trkpt><trkpt lat="39.5615433" lon="15.9303317"><ele>738.2857142857142</ele><time>2026-04-27T06:22:05.268Z</time></trkpt><trkpt lat="39.5615317" lon="15.9304267"><ele>739.4285714285714</ele><time>2026-04-27T06:22:06.268Z</time></trkpt><trkpt lat="39.5615367" lon="15.93051"><ele>740.5714285714287</ele><time>2026-04-27T06:22:07.301Z</time></trkpt><trkpt lat="39.5615517" lon="15.930595"><ele>741.7142857142858</ele><time>2026-04-27T06:22:08.268Z</time></trkpt><trkpt lat="39.5615783" lon="15.9306817"><ele>742.8571428571429</ele><time>2026-04-27T06:22:09.27Z</time></trkpt><trkpt lat="39.5616183" lon="15.9307633"><ele>744.0</ele><time>2026-04-27T06:22:10.269Z</time></trkpt><trkpt lat="39.5616683" lon="15.9308417"><ele>745.2</ele><time>2026-04-27T06:22:11.274Z</time></trkpt><trkpt lat="39.561735" lon="15.93093"><ele>746.4000000000001</ele><time>2026-04-27T06:22:12.265Z</time></trkpt><trkpt lat="39.5617983" lon="15.9310283"><ele>747.6</ele><time>2026-04-27T06:22:13.297Z</time></trkpt><trkpt lat="39.5618567" lon="15.9311333"><ele>748.8</ele><time>2026-04-27T06:22:14.263Z</time></trkpt><trkpt lat="39.5619083" lon="15.9312367"><ele>750.0</ele><time>2026-04-27T06:22:15.268Z</time></trkpt><trkpt lat="39.5619617" lon="15.9313283"><ele>750.0</ele><time>2026-04-27T06:22:16.264Z</time></trkpt><trkpt lat="39.562015" lon="15.93141"><ele>750.0</ele><time>2026-04-27T06:22:17.273Z</time></trkpt><trkpt lat="39.562075" lon="15.9314983"><ele>750.0</ele><time>2026-04-27T06:22:18.267Z</time></trkpt><trkpt lat="39.5621367" lon="15.93159"><ele>750.0</ele><time>2026-04-27T06:22:19.297Z</time></trkpt><trkpt lat="39.5621917" lon="15.93169"><ele>750.0</ele><time>2026-04-27T06:22:20.274Z</time></trkpt><trkpt lat="39.56224" lon="15.93178"><ele>750.0</ele><time>2026-04-27T06:22:21.277Z</time></trkpt><trkpt lat="39.56228" lon="15.9318717"><ele>754.5</ele><time>2026-04-27T06:22:22.268Z</time></trkpt><trkpt lat="39.5623217" lon="15.9319767"><ele>759.0</ele><time>2026-04-27T06:22:23.27Z</time></trkpt><trkpt lat="39.5623633" lon="15.9320817"><ele>763.5</ele><time>2026-04-27T06:22:24.268Z</time></trkpt><trkpt lat="39.5623933" lon="15.9321833"><ele>768.0</ele><time>2026-04-27T06:22:25.336Z</time></trkpt><trkpt lat="39.5624133" lon="15.9322717"><ele>772.5</ele><time>2026-04-27T06:22:26.265Z</time></trkpt><trkpt lat="39.5624267" lon="15.9323533"><ele>777.0</ele><time>2026-04-27T06:22:27.265Z</time></trkpt><trkpt lat="39.5624383" lon="15.9324383"><ele>777.0</ele><time>2026-04-27T06:22:28.266Z</time></trkpt><trkpt lat="39.56247" lon="15.93254"><ele>777.0</ele><time>2026-04-27T06:22:29.27Z</time></trkpt><trkpt lat="39.562485" lon="15.932645"><ele>777.0</ele><time>2026-04-27T06:22:30.267Z</time></trkpt><trkpt lat="39.5625067" lon="15.9327633"><ele>777.0</ele><time>2026-04-27T06:22:31.29Z</time></trkpt><trkpt lat="39.5625283" lon="15.9328883"><ele>777.0</ele><time>2026-04-27T06:22:32.262Z</time></trkpt><trkpt lat="39.5625367" lon="15.933015"><ele>779.0</ele><time>2026-04-27T06:22:33.267Z</time></trkpt><trkpt lat="39.562535" lon="15.9331433"><ele>781.0</ele><time>2026-04-27T06:22:34.267Z</time></trkpt><trkpt lat="39.56252" lon="15.9332533"><ele>783.0</ele><time>2026-04-27T06:22:35.273Z</time></trkpt><trkpt lat="39.5624933" lon="15.9333433"><ele>785.0</ele><time>2026-04-27T06:22:36.269Z</time></trkpt><trkpt lat="39.5624683" lon="15.9334267"><ele>787.0</ele><time>2026-04-27T06:22:37.299Z</time></trkpt><trkpt lat="39.5624567" lon="15.9335583"><ele>789.0</ele><time>2026-04-27T06:22:39.271Z</time></trkpt><trkpt lat="39.5625433" lon="15.9336383"><ele>789.5</ele><time>2026-04-27T06:22:41.271Z</time></trkpt><trkpt lat="39.5626133" lon="15.9336267"><ele>790.0</ele><time>2026-04-27T06:22:42.27Z</time></trkpt><trkpt lat="39.5626867" lon="15.9336033"><ele>790.5</ele><time>2026-04-27T06:22:43.299Z</time></trkpt><trkpt lat="39.56277" lon="15.9335583"><ele>791.0</ele><time>2026-04-27T06:22:44.27Z</time></trkpt><trkpt lat="39.5628583" lon="15.93351"><ele>791.5</ele><time>2026-04-27T06:22:45.268Z</time></trkpt><trkpt lat="39.5629417" lon="15.9334517"><ele>792.0</ele><time>2026-04-27T06:22:46.272Z</time></trkpt><trkpt lat="39.56301" lon="15.9333817"><ele>795.2</ele><time>2026-04-27T06:22:47.267Z</time></trkpt><trkpt lat="39.5630717" lon="15.9333133"><ele>798.4000000000001</ele><time>2026-04-27T06:22:48.263Z</time></trkpt><trkpt lat="39.5631183" lon="15.9332383"><ele>801.5999999999999</ele><time>2026-04-27T06:22:49.315Z</time></trkpt><trkpt lat="39.563135" lon="15.933145"><ele>804.8</ele><time>2026-04-27T06:22:50.269Z</time></trkpt><trkpt lat="39.563205" lon="15.9330483"><ele>808.0</ele><time>2026-04-27T06:22:52.266Z</time></trkpt><trkpt lat="39.5633383" lon="15.9331083"><ele>808.0</ele><time>2026-04-27T06:22:54.262Z</time></trkpt><trkpt lat="39.5634183" lon="15.933155"><ele>808.0</ele><time>2026-04-27T06:22:55.269Z</time></trkpt><trkpt lat="39.5634967" lon="15.9331933"><ele>808.0</ele><time>2026-04-27T06:22:56.262Z</time></trkpt><trkpt lat="39.5635683" lon="15.93323"><ele>808.0</ele><time>2026-04-27T06:22:57.267Z</time></trkpt><trkpt lat="39.5636217" lon="15.933275"><ele>808.0</ele><time>2026-04-27T06:22:58.264Z</time></trkpt><trkpt lat="39.5636667" lon="15.9333333"><ele>808.0</ele><time>2026-04-27T06:22:59.272Z</time></trkpt><trkpt lat="39.5637017" lon="15.9334067"><ele>808.0</ele><time>2026-04-27T06:23:00.272Z</time></trkpt><trkpt lat="39.5637133" lon="15.933515"><ele>808.0</ele><time>2026-04-27T06:23:01.288Z</time></trkpt><trkpt lat="39.5637267" lon="15.9336267"><ele>808.0</ele><time>2026-04-27T06:23:02.262Z</time></trkpt><trkpt lat="39.5637333" lon="15.9337367"><ele>808.0</ele><time>2026-04-27T06:23:03.273Z</time></trkpt><trkpt lat="39.5637267" lon="15.93385"><ele>808.0</ele><time>2026-04-27T06:23:04.271Z</time></trkpt><trkpt lat="39.5637133" lon="15.933975"><ele>808.0</ele><time>2026-04-27T06:23:05.266Z</time></trkpt><trkpt lat="39.5637017" lon="15.9341067"><ele>811.8</ele><time>2026-04-27T06:23:06.268Z</time></trkpt><trkpt lat="39.5637" lon="15.9342333"><ele>815.5999999999999</ele><time>2026-04-27T06:23:07.298Z</time></trkpt><trkpt lat="39.5637133" lon="15.934365"><ele>819.4000000000001</ele><time>2026-04-27T06:23:08.266Z</time></trkpt><trkpt lat="39.5637367" lon="15.9344883"><ele>823.2</ele><time>2026-04-27T06:23:09.268Z</time></trkpt><trkpt lat="39.56377" lon="15.93461"><ele>827.0</ele><time>2026-04-27T06:23:10.27Z</time></trkpt><trkpt lat="39.5638133" lon="15.934725"><ele>827.0</ele><time>2026-04-27T06:23:11.274Z</time></trkpt><trkpt lat="39.5638667" lon="15.9348383"><ele>827.0</ele><time>2026-04-27T06:23:12.264Z</time></trkpt><trkpt lat="39.56393" lon="15.93496"><ele>827.0</ele><time>2026-04-27T06:23:13.298Z</time></trkpt><trkpt lat="39.5639983" lon="15.9351"><ele>827.0</ele><time>2026-04-27T06:23:14.268Z</time></trkpt><trkpt lat="39.56407" lon="15.93525"><ele>828.25</ele><time>2026-04-27T06:23:15.266Z</time></trkpt><trkpt lat="39.5641417" lon="15.935395"><ele>829.5</ele><time>2026-04-27T06:23:16.267Z</time></trkpt><trkpt lat="39.5642167" lon="15.9355333"><ele>830.75</ele><time>2026-04-27T06:23:17.267Z</time></trkpt><trkpt lat="39.5642867" lon="15.9356567"><ele>832.0</ele><time>2026-04-27T06:23:18.271Z</time></trkpt><trkpt lat="39.56435" lon="15.9357683"><ele>832.0</ele><time>2026-04-27T06:23:19.301Z</time></trkpt><trkpt lat="39.5644067" lon="15.9358817"><ele>832.0</ele><time>2026-04-27T06:23:20.265Z</time></trkpt><trkpt lat="39.564455" lon="15.9359967"><ele>832.0</ele><time>2026-04-27T06:23:21.269Z</time></trkpt><trkpt lat="39.5644983" lon="15.9361"><ele>832.0</ele><time>2026-04-27T06:23:22.266Z</time></trkpt><trkpt lat="39.56455" lon="15.9361983"><ele>832.0</ele><time>2026-04-27T06:23:23.271Z</time></trkpt><trkpt lat="39.56461" lon="15.9363033"><ele>832.75</ele><time>2026-04-27T06:23:24.268Z</time></trkpt><trkpt lat="39.56468" lon="15.9364167"><ele>833.5</ele><time>2026-04-27T06:23:25.34Z</time></trkpt><trkpt lat="39.5647533" lon="15.9365417"><ele>834.25</ele><time>2026-04-27T06:23:26.264Z</time></trkpt><trkpt lat="39.5648267" lon="15.93667"><ele>835.0</ele><time>2026-04-27T06:23:27.271Z</time></trkpt><trkpt lat="39.5648983" lon="15.9367917"><ele>835.0</ele><time>2026-04-27T06:23:28.267Z</time></trkpt><trkpt lat="39.5649717" lon="15.9368933"><ele>835.0</ele><time>2026-04-27T06:23:29.283Z</time></trkpt><trkpt lat="39.5650567" lon="15.936995"><ele>835.0</ele><time>2026-04-27T06:23:30.263Z</time></trkpt><trkpt lat="39.5651433" lon="15.937095"><ele>835.0</ele><time>2026-04-27T06:23:31.285Z</time></trkpt><trkpt lat="39.56522" lon="15.9372033"><ele>835.0</ele><time>2026-04-27T06:23:32.262Z</time></trkpt><trkpt lat="39.565275" lon="15.93732"><ele>835.0</ele><time>2026-04-27T06:23:33.27Z</time></trkpt><trkpt lat="39.5653117" lon="15.93745"><ele>835.0</ele><time>2026-04-27T06:23:34.265Z</time></trkpt><trkpt lat="39.5653417" lon="15.9376"><ele>835.0</ele><time>2026-04-27T06:23:35.269Z</time></trkpt><trkpt lat="39.56538" lon="15.9377617"><ele>836.0</ele><time>2026-04-27T06:23:36.265Z</time></trkpt><trkpt lat="39.565415" lon="15.9379333"><ele>837.0</ele><time>2026-04-27T06:23:37.293Z</time></trkpt><trkpt lat="39.56544" lon="15.93811"><ele>838.0</ele><time>2026-04-27T06:23:38.262Z</time></trkpt><trkpt lat="39.565465" lon="15.9382867"><ele>839.0</ele><time>2026-04-27T06:23:39.267Z</time></trkpt><trkpt lat="39.5654967" lon="15.9384617"><ele>840.25</ele><time>2026-04-27T06:23:40.261Z</time></trkpt><trkpt lat="39.56554" lon="15.938635"><ele>841.5</ele><time>2026-04-27T06:23:41.27Z</time></trkpt><trkpt lat="39.5655933" lon="15.9388067"><ele>842.75</ele><time>2026-04-27T06:23:42.268Z</time></trkpt><trkpt lat="39.5656567" lon="15.93897"><ele>844.0</ele><time>2026-04-27T06:23:43.3Z</time></trkpt><trkpt lat="39.5657183" lon="15.9391333"><ele>843.75</ele><time>2026-04-27T06:23:44.269Z</time></trkpt><trkpt lat="39.565775" lon="15.9392983"><ele>843.5</ele><time>2026-04-27T06:23:45.265Z</time></trkpt><trkpt lat="39.565835" lon="15.93946"><ele>843.25</ele><time>2026-04-27T06:23:46.261Z</time></trkpt><trkpt lat="39.5659" lon="15.9396167"><ele>843.0</ele><time>2026-04-27T06:23:47.271Z</time></trkpt><trkpt lat="39.5659683" lon="15.9397683"><ele>843.0</ele><time>2026-04-27T06:23:48.263Z</time></trkpt><trkpt lat="39.5660367" lon="15.9399133"><ele>843.0</ele><time>2026-04-27T06:23:49.3Z</time></trkpt><trkpt lat="39.5661033" lon="15.94005"><ele>843.0</ele><time>2026-04-27T06:23:50.265Z</time></trkpt><trkpt lat="39.5661633" lon="15.9401717"><ele>843.0</ele><time>2026-04-27T06:23:51.275Z</time></trkpt><trkpt lat="39.566215" lon="15.94028"><ele>844.0</ele><time>2026-04-27T06:23:52.269Z</time></trkpt><trkpt lat="39.566265" lon="15.940375"><ele>845.0</ele><time>2026-04-27T06:23:53.27Z</time></trkpt><trkpt lat="39.5663117" lon="15.9404733"><ele>846.0</ele><time>2026-04-27T06:23:54.267Z</time></trkpt><trkpt lat="39.5663667" lon="15.9405867"><ele>847.0</ele><time>2026-04-27T06:23:55.333Z</time></trkpt><trkpt lat="39.5664283" lon="15.940695"><ele>848.0</ele><time>2026-04-27T06:23:56.266Z</time></trkpt><trkpt lat="39.5664967" lon="15.9408067"><ele>846.2</ele><time>2026-04-27T06:23:57.269Z</time></trkpt><trkpt lat="39.5665633" lon="15.9409133"><ele>844.4</ele><time>2026-04-27T06:23:58.267Z</time></trkpt><trkpt lat="39.56663" lon="15.9410183"><ele>842.6</ele><time>2026-04-27T06:23:59.271Z</time></trkpt><trkpt lat="39.5666917" lon="15.94111"><ele>840.8000000000001</ele><time>2026-04-27T06:24:00.27Z</time></trkpt><trkpt lat="39.56675" lon="15.9411817"><ele>839.0</ele><time>2026-04-27T06:24:01.31Z</time></trkpt><trkpt lat="39.5668033" lon="15.9412417"><ele>839.0</ele><time>2026-04-27T06:24:02.266Z</time></trkpt><trkpt lat="39.5669133" lon="15.9413267"><ele>839.0</ele><time>2026-04-27T06:24:04.267Z</time></trkpt><trkpt lat="39.56697" lon="15.9413667"><ele>839.0</ele><time>2026-04-27T06:24:05.265Z</time></trkpt><trkpt lat="39.5670617" lon="15.9414567"><ele>839.0</ele><time>2026-04-27T06:24:07.3Z</time></trkpt><trkpt lat="39.5671367" lon="15.941575"><ele>839.0</ele><time>2026-04-27T06:24:09.269Z</time></trkpt><trkpt lat="39.5671783" lon="15.94164"><ele>840.3333333333334</ele><time>2026-04-27T06:24:10.263Z</time></trkpt><trkpt lat="39.5672183" lon="15.9417183"><ele>841.6666666666667</ele><time>2026-04-27T06:24:11.269Z</time></trkpt><trkpt lat="39.5672617" lon="15.9418183"><ele>843.0</ele><time>2026-04-27T06:24:12.267Z</time></trkpt><trkpt lat="39.5673067" lon="15.9419233"><ele>844.3333333333333</ele><time>2026-04-27T06:24:13.295Z</time></trkpt><trkpt lat="39.5673567" lon="15.9420267"><ele>845.6666666666666</ele><time>2026-04-27T06:24:14.263Z</time></trkpt><trkpt lat="39.5674083" lon="15.94213"><ele>847.0</ele><time>2026-04-27T06:24:15.268Z</time></trkpt><trkpt lat="39.56747" lon="15.94224"><ele>847.0</ele><time>2026-04-27T06:24:16.255Z</time></trkpt><trkpt lat="39.5675383" lon="15.9423533"><ele>847.0</ele><time>2026-04-27T06:24:17.261Z</time></trkpt><trkpt lat="39.5676083" lon="15.9424633"><ele>847.0</ele><time>2026-04-27T06:24:18.26Z</time></trkpt><trkpt lat="39.567675" lon="15.942565"><ele>847.0</ele><time>2026-04-27T06:24:19.297Z</time></trkpt><trkpt lat="39.567755" lon="15.9426533"><ele>847.0</ele><time>2026-04-27T06:24:20.267Z</time></trkpt><trkpt lat="39.5678417" lon="15.9427317"><ele>848.6</ele><time>2026-04-27T06:24:21.263Z</time></trkpt><trkpt lat="39.5679267" lon="15.94279"><ele>850.2</ele><time>2026-04-27T06:24:22.266Z</time></trkpt><trkpt lat="39.5680133" lon="15.9428367"><ele>851.8</ele><time>2026-04-27T06:24:23.269Z</time></trkpt><trkpt lat="39.5680967" lon="15.9428967"><ele>853.4</ele><time>2026-04-27T06:24:24.262Z</time></trkpt><trkpt lat="39.5681867" lon="15.9429667"><ele>855.0</ele><time>2026-04-27T06:24:25.335Z</time></trkpt><trkpt lat="39.5682783" lon="15.9430367"><ele>855.0</ele><time>2026-04-27T06:24:26.262Z</time></trkpt><trkpt lat="39.5683733" lon="15.9431183"><ele>855.0</ele><time>2026-04-27T06:24:27.263Z</time></trkpt><trkpt lat="39.568465" lon="15.9432167"><ele>855.0</ele><time>2026-04-27T06:24:28.26Z</time></trkpt><trkpt lat="39.5685483" lon="15.943325"><ele>855.0</ele><time>2026-04-27T06:24:29.265Z</time></trkpt><trkpt lat="39.568625" lon="15.943435"><ele>858.75</ele><time>2026-04-27T06:24:30.269Z</time></trkpt><trkpt lat="39.5687" lon="15.943555"><ele>862.5</ele><time>2026-04-27T06:24:31.332Z</time></trkpt><trkpt lat="39.5687683" lon="15.9436783"><ele>866.25</ele><time>2026-04-27T06:24:32.265Z</time></trkpt><trkpt lat="39.568835" lon="15.9438033"><ele>870.0</ele><time>2026-04-27T06:24:33.269Z</time></trkpt><trkpt lat="39.568905" lon="15.9439283"><ele>870.0</ele><time>2026-04-27T06:24:34.265Z</time></trkpt><trkpt lat="39.5689767" lon="15.9440417"><ele>870.0</ele><time>2026-04-27T06:24:35.266Z</time></trkpt><trkpt lat="39.569045" lon="15.9441517"><ele>870.0</ele><time>2026-04-27T06:24:36.27Z</time></trkpt><trkpt lat="39.5691167" lon="15.9442617"><ele>870.0</ele><time>2026-04-27T06:24:37.298Z</time></trkpt><trkpt lat="39.5691917" lon="15.9443617"><ele>870.0</ele><time>2026-04-27T06:24:38.266Z</time></trkpt><trkpt lat="39.569255" lon="15.9444683"><ele>871.25</ele><time>2026-04-27T06:24:39.266Z</time></trkpt><trkpt lat="39.5693067" lon="15.9445883"><ele>872.5</ele><time>2026-04-27T06:24:40.267Z</time></trkpt><trkpt lat="39.5693433" lon="15.9447233"><ele>873.75</ele><time>2026-04-27T06:24:41.27Z</time></trkpt><trkpt lat="39.5693717" lon="15.944875"><ele>875.0</ele><time>2026-04-27T06:24:42.271Z</time></trkpt><trkpt lat="39.5693983" lon="15.9450183"><ele>873.6666666666667</ele><time>2026-04-27T06:24:43.298Z</time></trkpt><trkpt lat="39.5694317" lon="15.9451483"><ele>872.3333333333334</ele><time>2026-04-27T06:24:44.271Z</time></trkpt><trkpt lat="39.5694783" lon="15.9452133"><ele>871.0</ele><time>2026-04-27T06:24:45.271Z</time></trkpt><trkpt lat="39.5695333" lon="15.945255"><ele>869.6666666666667</ele><time>2026-04-27T06:24:46.269Z</time></trkpt><trkpt lat="39.5695983" lon="15.9452883"><ele>868.3333333333334</ele><time>2026-04-27T06:24:47.272Z</time></trkpt><trkpt lat="39.5696783" lon="15.9453183"><ele>867.0</ele><time>2026-04-27T06:24:48.26Z</time></trkpt><trkpt lat="39.5697683" lon="15.9453667"><ele>870.6</ele><time>2026-04-27T06:24:49.295Z</time></trkpt><trkpt lat="39.5698583" lon="15.9454283"><ele>874.2</ele><time>2026-04-27T06:24:50.258Z</time></trkpt><trkpt lat="39.5699417" lon="15.945505"><ele>877.8</ele><time>2026-04-27T06:24:51.265Z</time></trkpt><trkpt lat="39.5700183" lon="15.94559"><ele>881.4</ele><time>2026-04-27T06:24:52.264Z</time></trkpt><trkpt lat="39.5700867" lon="15.94569"><ele>885.0</ele><time>2026-04-27T06:24:53.258Z</time></trkpt><trkpt lat="39.5701383" lon="15.94582"><ele>883.0</ele><time>2026-04-27T06:24:54.268Z</time></trkpt><trkpt lat="39.5701783" lon="15.9459567"><ele>881.0</ele><time>2026-04-27T06:24:55.336Z</time></trkpt><trkpt lat="39.5702233" lon="15.946085"><ele>879.0</ele><time>2026-04-27T06:24:56.262Z</time></trkpt><trkpt lat="39.5702817" lon="15.9462167"><ele>877.0</ele><time>2026-04-27T06:24:57.266Z</time></trkpt><trkpt lat="39.5703517" lon="15.9463383"><ele>880.8</ele><time>2026-04-27T06:24:58.265Z</time></trkpt><trkpt lat="39.5704267" lon="15.9464433"><ele>884.6</ele><time>2026-04-27T06:24:59.274Z</time></trkpt><trkpt lat="39.570495" lon="15.9465383"><ele>888.3999999999999</ele><time>2026-04-27T06:25:00.264Z</time></trkpt><trkpt lat="39.5705517" lon="15.9466333"><ele>892.1999999999999</ele><time>2026-04-27T06:25:01.304Z</time></trkpt><trkpt lat="39.5706" lon="15.9467433"><ele>896.0</ele><time>2026-04-27T06:25:02.262Z</time></trkpt><trkpt lat="39.5706367" lon="15.9468667"><ele>896.0</ele><time>2026-04-27T06:25:03.27Z</time></trkpt><trkpt lat="39.5706683" lon="15.94699"><ele>895.9999999999999</ele><time>2026-04-27T06:25:04.26Z</time></trkpt><trkpt lat="39.5706983" lon="15.9471133"><ele>895.9999999999999</ele><time>2026-04-27T06:25:05.273Z</time></trkpt><trkpt lat="39.5707333" lon="15.9472283"><ele>896.0</ele><time>2026-04-27T06:25:06.266Z</time></trkpt><trkpt lat="39.5707667" lon="15.9473333"><ele>896.0</ele><time>2026-04-27T06:25:07.295Z</time></trkpt><trkpt lat="39.5708067" lon="15.9474267"><ele>896.0000000000001</ele><time>2026-04-27T06:25:08.267Z</time></trkpt><trkpt lat="39.57085" lon="15.9475133"><ele>896.0</ele><time>2026-04-27T06:25:09.271Z</time></trkpt><trkpt lat="39.5709083" lon="15.9475917"><ele>896.0</ele><time>2026-04-27T06:25:10.264Z</time></trkpt><trkpt lat="39.5709667" lon="15.947675"><ele>896.0</ele><time>2026-04-27T06:25:11.273Z</time></trkpt><trkpt lat="39.5710083" lon="15.947765"><ele>896.0000000000001</ele><time>2026-04-27T06:25:12.267Z</time></trkpt><trkpt lat="39.5710383" lon="15.947875"><ele>896.0</ele><time>2026-04-27T06:25:13.3Z</time></trkpt><trkpt lat="39.5710533" lon="15.9480133"><ele>894.4</ele><time>2026-04-27T06:25:14.26Z</time></trkpt><trkpt lat="39.5710517" lon="15.94816"><ele>892.8</ele><time>2026-04-27T06:25:15.269Z</time></trkpt><trkpt lat="39.5710483" lon="15.94829"><ele>891.1999999999999</ele><time>2026-04-27T06:25:16.266Z</time></trkpt><trkpt lat="39.57105" lon="15.948405"><ele>889.5999999999999</ele><time>2026-04-27T06:25:17.27Z</time></trkpt><trkpt lat="39.5710567" lon="15.948515"><ele>888.0</ele><time>2026-04-27T06:25:18.274Z</time></trkpt><trkpt lat="39.57108" lon="15.9486233"><ele>887.0</ele><time>2026-04-27T06:25:19.3Z</time></trkpt><trkpt lat="39.571115" lon="15.9487267"><ele>886.0</ele><time>2026-04-27T06:25:20.266Z</time></trkpt><trkpt lat="39.5711617" lon="15.9488133"><ele>885.0</ele><time>2026-04-27T06:25:21.272Z</time></trkpt><trkpt lat="39.571215" lon="15.9488783"><ele>884.0</ele><time>2026-04-27T06:25:22.271Z</time></trkpt><trkpt lat="39.571255" lon="15.9489517"><ele>883.0</ele><time>2026-04-27T06:25:23.274Z</time></trkpt><trkpt lat="39.5713083" lon="15.9491167"><ele>882.0</ele><time>2026-04-27T06:25:25.314Z</time></trkpt><trkpt lat="39.5713283" lon="15.9492467"><ele>882.0</ele><time>2026-04-27T06:25:26.27Z</time></trkpt><trkpt lat="39.5713567" lon="15.9493883"><ele>882.0</ele><time>2026-04-27T06:25:27.273Z</time></trkpt><trkpt lat="39.571395" lon="15.949515"><ele>882.0</ele><time>2026-04-27T06:25:28.267Z</time></trkpt><trkpt lat="39.5714367" lon="15.9496217"><ele>882.0</ele><time>2026-04-27T06:25:29.274Z</time></trkpt><trkpt lat="39.5714883" lon="15.9497067"><ele>882.0</ele><time>2026-04-27T06:25:30.272Z</time></trkpt><trkpt lat="39.571545" lon="15.949775"><ele>882.0</ele><time>2026-04-27T06:25:31.311Z</time></trkpt><trkpt lat="39.5716217" lon="15.9498217"><ele>882.0</ele><time>2026-04-27T06:25:32.262Z</time></trkpt><trkpt lat="39.5717117" lon="15.9498483"><ele>882.0</ele><time>2026-04-27T06:25:33.26Z</time></trkpt><trkpt lat="39.5717917" lon="15.9498833"><ele>882.0</ele><time>2026-04-27T06:25:34.262Z</time></trkpt><trkpt lat="39.571885" lon="15.949885"><ele>882.0</ele><time>2026-04-27T06:25:35.266Z</time></trkpt><trkpt lat="39.5719817" lon="15.9498817"><ele>881.0</ele><time>2026-04-27T06:25:36.268Z</time></trkpt><trkpt lat="39.5721" lon="15.9498083"><ele>880.0</ele><time>2026-04-27T06:25:37.299Z</time></trkpt><trkpt lat="39.5722133" lon="15.9497483"><ele>879.0</ele><time>2026-04-27T06:25:38.26Z</time></trkpt><trkpt lat="39.5723167" lon="15.9497067"><ele>878.0</ele><time>2026-04-27T06:25:39.264Z</time></trkpt><trkpt lat="39.5724283" lon="15.9496817"><ele>878.0</ele><time>2026-04-27T06:25:40.265Z</time></trkpt><trkpt lat="39.572535" lon="15.9496717"><ele>878.0</ele><time>2026-04-27T06:25:41.266Z</time></trkpt><trkpt lat="39.57264" lon="15.9496633"><ele>878.0</ele><time>2026-04-27T06:25:42.266Z</time></trkpt><trkpt lat="39.5727417" lon="15.9496383"><ele>878.0</ele><time>2026-04-27T06:25:43.291Z</time></trkpt><trkpt lat="39.57284" lon="15.9496183"><ele>878.0</ele><time>2026-04-27T06:25:44.26Z</time></trkpt><trkpt lat="39.5729267" lon="15.9495883"><ele>880.8333333333334</ele><time>2026-04-27T06:25:45.264Z</time></trkpt><trkpt lat="39.5730133" lon="15.94954"><ele>883.6666666666667</ele><time>2026-04-27T06:25:46.259Z</time></trkpt><trkpt lat="39.5730883" lon="15.9494867"><ele>886.5</ele><time>2026-04-27T06:25:47.269Z</time></trkpt><trkpt lat="39.5731483" lon="15.94944"><ele>889.3333333333333</ele><time>2026-04-27T06:25:48.267Z</time></trkpt><trkpt lat="39.57321" lon="15.9493917"><ele>892.1666666666666</ele><time>2026-04-27T06:25:49.298Z</time></trkpt><trkpt lat="39.57329" lon="15.9493567"><ele>895.0</ele><time>2026-04-27T06:25:51.269Z</time></trkpt><trkpt lat="39.5733333" lon="15.94946"><ele>894.9999999999999</ele><time>2026-04-27T06:25:54.265Z</time></trkpt><trkpt lat="39.5733517" lon="15.9495417"><ele>895.0</ele><time>2026-04-27T06:25:55.286Z</time></trkpt><trkpt lat="39.5734033" lon="15.9497067"><ele>895.0</ele><time>2026-04-27T06:25:57.27Z</time></trkpt><trkpt lat="39.5734517" lon="15.949785"><ele>895.0</ele><time>2026-04-27T06:25:58.27Z</time></trkpt><trkpt lat="39.573505" lon="15.9498717"><ele>894.9999999999999</ele><time>2026-04-27T06:25:59.271Z</time></trkpt><trkpt lat="39.5735617" lon="15.949935"><ele>895.0</ele><time>2026-04-27T06:26:00.268Z</time></trkpt><trkpt lat="39.5736183" lon="15.95"><ele>893.0</ele><time>2026-04-27T06:26:01.292Z</time></trkpt><trkpt lat="39.5736767" lon="15.9500633"><ele>891.0</ele><time>2026-04-27T06:26:02.267Z</time></trkpt><trkpt lat="39.5737817" lon="15.9501017"><ele>889.0</ele><time>2026-04-27T06:26:03.272Z</time></trkpt><trkpt lat="39.5738883" lon="15.9501417"><ele>887.0</ele><time>2026-04-27T06:26:04.268Z</time></trkpt><trkpt lat="39.5740117" lon="15.9501583"><ele>885.0</ele><time>2026-04-27T06:26:05.272Z</time></trkpt><trkpt lat="39.5741167" lon="15.95017"><ele>885.0</ele><time>2026-04-27T06:26:06.273Z</time></trkpt><trkpt lat="39.5742067" lon="15.9501883"><ele>885.0</ele><time>2026-04-27T06:26:07.304Z</time></trkpt><trkpt lat="39.5742783" lon="15.950185"><ele>885.0</ele><time>2026-04-27T06:26:08.27Z</time></trkpt><trkpt lat="39.574355" lon="15.9502017"><ele>885.0</ele><time>2026-04-27T06:26:09.27Z</time></trkpt><trkpt lat="39.5744317" lon="15.9502533"><ele>885.0</ele><time>2026-04-27T06:26:10.265Z</time></trkpt><trkpt lat="39.57451" lon="15.950315"><ele>885.0</ele><time>2026-04-27T06:26:11.265Z</time></trkpt><trkpt lat="39.5745817" lon="15.9503733"><ele>884.6</ele><time>2026-04-27T06:26:12.263Z</time></trkpt><trkpt lat="39.5746517" lon="15.9504217"><ele>884.2</ele><time>2026-04-27T06:26:13.294Z</time></trkpt><trkpt lat="39.5747517" lon="15.9504717"><ele>883.8</ele><time>2026-04-27T06:26:14.269Z</time></trkpt><trkpt lat="39.5748467" lon="15.9504967"><ele>883.4</ele><time>2026-04-27T06:26:15.272Z</time></trkpt><trkpt lat="39.574955" lon="15.9505017"><ele>883.0</ele><time>2026-04-27T06:26:16.266Z</time></trkpt><trkpt lat="39.5750783" lon="15.95048"><ele>883.0</ele><time>2026-04-27T06:26:17.27Z</time></trkpt><trkpt lat="39.5751967" lon="15.9504567"><ele>883.0</ele><time>2026-04-27T06:26:18.278Z</time></trkpt><trkpt lat="39.575315" lon="15.9504483"><ele>883.0</ele><time>2026-04-27T06:26:19.299Z</time></trkpt><trkpt lat="39.5754267" lon="15.9504517"><ele>883.0</ele><time>2026-04-27T06:26:20.262Z</time></trkpt><trkpt lat="39.5755217" lon="15.950465"><ele>883.0</ele><time>2026-04-27T06:26:21.27Z</time></trkpt><trkpt lat="39.5756083" lon="15.950485"><ele>883.5999999999999</ele><time>2026-04-27T06:26:22.266Z</time></trkpt><trkpt lat="39.5756883" lon="15.950505"><ele>884.1999999999999</ele><time>2026-04-27T06:26:23.272Z</time></trkpt><trkpt lat="39.575775" lon="15.9505167"><ele>884.8</ele><time>2026-04-27T06:26:24.266Z</time></trkpt><trkpt lat="39.5758717" lon="15.9505183"><ele>885.4</ele><time>2026-04-27T06:26:25.291Z</time></trkpt><trkpt lat="39.5759783" lon="15.95051"><ele>886.0</ele><time>2026-04-27T06:26:26.265Z</time></trkpt><trkpt lat="39.5760783" lon="15.9504983"><ele>885.9999999999999</ele><time>2026-04-27T06:26:27.27Z</time></trkpt><trkpt lat="39.5761683" lon="15.9504783"><ele>886.0</ele><time>2026-04-27T06:26:28.262Z</time></trkpt><trkpt lat="39.5762433" lon="15.9504617"><ele>886.0</ele><time>2026-04-27T06:26:29.269Z</time></trkpt><trkpt lat="39.5763467" lon="15.9503883"><ele>886.0</ele><time>2026-04-27T06:26:31.292Z</time></trkpt><trkpt lat="39.5763983" lon="15.9503333"><ele>885.9999999999999</ele><time>2026-04-27T06:26:32.265Z</time></trkpt><trkpt lat="39.5764433" lon="15.9502717"><ele>886.0</ele><time>2026-04-27T06:26:33.267Z</time></trkpt><trkpt lat="39.5765333" lon="15.9501533"><ele>889.1666666666666</ele><time>2026-04-27T06:26:35.27Z</time></trkpt><trkpt lat="39.5766083" lon="15.950095"><ele>892.3333333333333</ele><time>2026-04-27T06:26:37.297Z</time></trkpt><trkpt lat="39.5766433" lon="15.950185"><ele>895.5</ele><time>2026-04-27T06:26:39.27Z</time></trkpt><trkpt lat="39.5766667" lon="15.9502617"><ele>898.6666666666667</ele><time>2026-04-27T06:26:40.269Z</time></trkpt><trkpt lat="39.576695" lon="15.9503467"><ele>901.8333333333334</ele><time>2026-04-27T06:26:41.272Z</time></trkpt><trkpt lat="39.576725" lon="15.9504467"><ele>905.0</ele><time>2026-04-27T06:26:42.266Z</time></trkpt><trkpt lat="39.5767517" lon="15.9505433"><ele>905.0000000000001</ele><time>2026-04-27T06:26:43.294Z</time></trkpt><trkpt lat="39.5767667" lon="15.950675"><ele>905.0</ele><time>2026-04-27T06:26:45.261Z</time></trkpt><trkpt lat="39.5767417" lon="15.950765"><ele>905.0</ele><time>2026-04-27T06:26:46.27Z</time></trkpt><trkpt lat="39.57672" lon="15.9508467"><ele>905.0</ele><time>2026-04-27T06:26:47.269Z</time></trkpt><trkpt lat="39.5766917" lon="15.9510033"><ele>905.0000000000001</ele><time>2026-04-27T06:26:49.296Z</time></trkpt><trkpt lat="39.5766633" lon="15.9510783"><ele>905.0</ele><time>2026-04-27T06:26:50.264Z</time></trkpt><trkpt lat="39.5766667" lon="15.9511883"><ele>906.3333333333334</ele><time>2026-04-27T06:26:51.267Z</time></trkpt><trkpt lat="39.57665" lon="15.951315"><ele>907.6666666666667</ele><time>2026-04-27T06:26:52.262Z</time></trkpt><trkpt lat="39.57664" lon="15.9514233"><ele>909.0</ele><time>2026-04-27T06:26:53.268Z</time></trkpt><trkpt lat="39.5766367" lon="15.951525"><ele>910.3333333333333</ele><time>2026-04-27T06:26:54.266Z</time></trkpt><trkpt lat="39.5766667" lon="15.9516417"><ele>911.6666666666666</ele><time>2026-04-27T06:26:55.293Z</time></trkpt><trkpt lat="39.5766833" lon="15.95176"><ele>913.0</ele><time>2026-04-27T06:26:56.265Z</time></trkpt><trkpt lat="39.5766967" lon="15.95189"><ele>915.0</ele><time>2026-04-27T06:26:57.268Z</time></trkpt><trkpt lat="39.5767033" lon="15.9520283"><ele>917.0</ele><time>2026-04-27T06:26:58.269Z</time></trkpt><trkpt lat="39.5767017" lon="15.9521683"><ele>919.0</ele><time>2026-04-27T06:26:59.269Z</time></trkpt><trkpt lat="39.5766817" lon="15.9523017"><ele>921.0</ele><time>2026-04-27T06:27:00.26Z</time></trkpt><trkpt lat="39.5766683" lon="15.952415"><ele>923.0</ele><time>2026-04-27T06:27:01.29Z</time></trkpt><trkpt lat="39.57667" lon="15.95252"><ele>923.8333333333334</ele><time>2026-04-27T06:27:02.266Z</time></trkpt><trkpt lat="39.576665" lon="15.952625"><ele>924.6666666666667</ele><time>2026-04-27T06:27:03.268Z</time></trkpt><trkpt lat="39.5766517" lon="15.9527283"><ele>925.5</ele><time>2026-04-27T06:27:04.27Z</time></trkpt><trkpt lat="39.576635" lon="15.9528233"><ele>926.3333333333333</ele><time>2026-04-27T06:27:05.275Z</time></trkpt><trkpt lat="39.57661" lon="15.9529067"><ele>927.1666666666666</ele><time>2026-04-27T06:27:06.266Z</time></trkpt><trkpt lat="39.5765533" lon="15.9530467"><ele>928.0</ele><time>2026-04-27T06:27:08.262Z</time></trkpt><trkpt lat="39.576475" lon="15.9531883"><ele>928.0</ele><time>2026-04-27T06:27:10.273Z</time></trkpt><trkpt lat="39.5764383" lon="15.9532867"><ele>928.0</ele><time>2026-04-27T06:27:11.275Z</time></trkpt><trkpt lat="39.5764133" lon="15.9534083"><ele>928.0</ele><time>2026-04-27T06:27:12.269Z</time></trkpt><trkpt lat="39.5763933" lon="15.9535433"><ele>928.0</ele><time>2026-04-27T06:27:13.302Z</time></trkpt><trkpt lat="39.5763783" lon="15.95367"><ele>928.0</ele><time>2026-04-27T06:27:14.268Z</time></trkpt><trkpt lat="39.5763633" lon="15.9537933"><ele>927.0</ele><time>2026-04-27T06:27:15.273Z</time></trkpt><trkpt lat="39.5763483" lon="15.9539133"><ele>926.0</ele><time>2026-04-27T06:27:16.271Z</time></trkpt><trkpt lat="39.576335" lon="15.9540267"><ele>925.0</ele><time>2026-04-27T06:27:17.266Z</time></trkpt><trkpt lat="39.5763383" lon="15.9541233"><ele>924.0</ele><time>2026-04-27T06:27:18.267Z</time></trkpt><trkpt lat="39.5764667" lon="15.9542767"><ele>923.0</ele><time>2026-04-27T06:27:20.262Z</time></trkpt><trkpt lat="39.5765483" lon="15.9543517"><ele>917.5</ele><time>2026-04-27T06:27:21.269Z</time></trkpt><trkpt lat="39.5766133" lon="15.95444"><ele>912.0</ele><time>2026-04-27T06:27:22.264Z</time></trkpt><trkpt lat="39.57671" lon="15.9545417"><ele>906.5</ele><time>2026-04-27T06:27:23.266Z</time></trkpt><trkpt lat="39.5768367" lon="15.954665"><ele>901.0</ele><time>2026-04-27T06:27:24.266Z</time></trkpt><trkpt lat="39.57692" lon="15.9547417"><ele>900.9999999999999</ele><time>2026-04-27T06:27:25.333Z</time></trkpt><trkpt lat="39.5769833" lon="15.954785"><ele>901.0</ele><time>2026-04-27T06:27:26.263Z</time></trkpt><trkpt lat="39.5770733" lon="15.95481"><ele>901.0</ele><time>2026-04-27T06:27:28.269Z</time></trkpt><trkpt lat="39.5771817" lon="15.9547917"><ele>901.0</ele><time>2026-04-27T06:27:30.27Z</time></trkpt><trkpt lat="39.57725" lon="15.9548233"><ele>900.9999999999999</ele><time>2026-04-27T06:27:32.266Z</time></trkpt><trkpt lat="39.5773033" lon="15.95493"><ele>901.0</ele><time>2026-04-27T06:27:34.268Z</time></trkpt><trkpt lat="39.577335" lon="15.9550733"><ele>904.8</ele><time>2026-04-27T06:27:36.272Z</time></trkpt><trkpt lat="39.57733" lon="15.955245"><ele>908.5999999999999</ele><time>2026-04-27T06:27:38.265Z</time></trkpt><trkpt lat="39.5772783" lon="15.95533"><ele>912.4</ele><time>2026-04-27T06:27:39.267Z</time></trkpt><trkpt lat="39.5772183" lon="15.9554233"><ele>916.2</ele><time>2026-04-27T06:27:40.274Z</time></trkpt><trkpt lat="39.577165" lon="15.9555067"><ele>920.0</ele><time>2026-04-27T06:27:41.273Z</time></trkpt><trkpt lat="39.5770617" lon="15.9555517"><ele>916.5000000000001</ele><time>2026-04-27T06:27:42.262Z</time></trkpt><trkpt lat="39.5770033" lon="15.955615"><ele>913.0</ele><time>2026-04-27T06:27:43.303Z</time></trkpt><trkpt lat="39.5769483" lon="15.9556867"><ele>909.5</ele><time>2026-04-27T06:27:44.273Z</time></trkpt><trkpt lat="39.576895" lon="15.9557517"><ele>906.0</ele><time>2026-04-27T06:27:45.273Z</time></trkpt><trkpt lat="39.5768633" lon="15.955825"><ele>902.5000000000001</ele><time>2026-04-27T06:27:46.263Z</time></trkpt><trkpt lat="39.57683" lon="15.955965"><ele>899.0</ele><time>2026-04-27T06:27:48.265Z</time></trkpt><trkpt lat="39.5768217" lon="15.9560983"><ele>901.2</ele><time>2026-04-27T06:27:50.27Z</time></trkpt><trkpt lat="39.57688" lon="15.956245"><ele>903.4000000000001</ele><time>2026-04-27T06:27:52.269Z</time></trkpt><trkpt lat="39.57692" lon="15.9563167"><ele>905.6</ele><time>2026-04-27T06:27:53.266Z</time></trkpt><trkpt lat="39.576975" lon="15.9563867"><ele>907.8</ele><time>2026-04-27T06:27:54.272Z</time></trkpt><trkpt lat="39.577045" lon="15.956455"><ele>910.0</ele><time>2026-04-27T06:27:55.29Z</time></trkpt><trkpt lat="39.5771333" lon="15.9565417"><ele>910.0</ele><time>2026-04-27T06:27:56.265Z</time></trkpt><trkpt lat="39.5772183" lon="15.95663"><ele>910.0</ele><time>2026-04-27T06:27:57.269Z</time></trkpt><trkpt lat="39.577295" lon="15.9567"><ele>910.0</ele><time>2026-04-27T06:27:58.267Z</time></trkpt><trkpt lat="39.5773417" lon="15.956775"><ele>910.0</ele><time>2026-04-27T06:28:00.266Z</time></trkpt><trkpt lat="39.57738" lon="15.9568783"><ele>910.0</ele><time>2026-04-27T06:28:02.266Z</time></trkpt><trkpt lat="39.577325" lon="15.9569933"><ele>911.4999999999999</ele><time>2026-04-27T06:28:05.272Z</time></trkpt><trkpt lat="39.577255" lon="15.9570417"><ele>913.0</ele><time>2026-04-27T06:28:06.267Z</time></trkpt><trkpt lat="39.5771883" lon="15.9571167"><ele>914.5</ele><time>2026-04-27T06:28:07.302Z</time></trkpt><trkpt lat="39.5771383" lon="15.9571817"><ele>916.0</ele><time>2026-04-27T06:28:08.269Z</time></trkpt><trkpt lat="39.5771117" lon="15.9572583"><ele>917.4999999999999</ele><time>2026-04-27T06:28:09.274Z</time></trkpt><trkpt lat="39.5770933" lon="15.9573483"><ele>919.0</ele><time>2026-04-27T06:28:10.268Z</time></trkpt><trkpt lat="39.57709" lon="15.9574567"><ele>915.6</ele><time>2026-04-27T06:28:11.271Z</time></trkpt><trkpt lat="39.5770783" lon="15.9575683"><ele>912.2</ele><time>2026-04-27T06:28:12.268Z</time></trkpt><trkpt lat="39.5770517" lon="15.957685"><ele>908.8000000000001</ele><time>2026-04-27T06:28:13.303Z</time></trkpt><trkpt lat="39.57701" lon="15.9577967"><ele>905.4000000000001</ele><time>2026-04-27T06:28:14.265Z</time></trkpt><trkpt lat="39.5769533" lon="15.957895"><ele>902.0</ele><time>2026-04-27T06:28:15.273Z</time></trkpt><trkpt lat="39.5768967" lon="15.957985"><ele>902.0000000000001</ele><time>2026-04-27T06:28:16.273Z</time></trkpt><trkpt lat="39.57684" lon="15.9580767"><ele>902.0</ele><time>2026-04-27T06:28:17.274Z</time></trkpt><trkpt lat="39.5767867" lon="15.9581617"><ele>902.0</ele><time>2026-04-27T06:28:18.269Z</time></trkpt><trkpt lat="39.5767433" lon="15.95824"><ele>902.0</ele><time>2026-04-27T06:28:19.303Z</time></trkpt><trkpt lat="39.5766917" lon="15.9583217"><ele>902.0000000000001</ele><time>2026-04-27T06:28:21.265Z</time></trkpt><trkpt lat="39.5765983" lon="15.958335"><ele>902.0</ele><time>2026-04-27T06:28:24.266Z</time></trkpt><trkpt lat="39.576475" lon="15.95839"><ele>906.1666666666667</ele><time>2026-04-27T06:28:26.264Z</time></trkpt><trkpt lat="39.576405" lon="15.95842"><ele>910.3333333333334</ele><time>2026-04-27T06:28:27.27Z</time></trkpt><trkpt lat="39.5763433" lon="15.9584417"><ele>914.5</ele><time>2026-04-27T06:28:28.265Z</time></trkpt><trkpt lat="39.5762867" lon="15.95857"><ele>918.6666666666667</ele><time>2026-04-27T06:28:30.267Z</time></trkpt><trkpt lat="39.5762717" lon="15.958665"><ele>922.8333333333334</ele><time>2026-04-27T06:28:31.311Z</time></trkpt><trkpt lat="39.576255" lon="15.95878"><ele>927.0</ele><time>2026-04-27T06:28:32.266Z</time></trkpt><trkpt lat="39.5762283" lon="15.958905"><ele>927.0</ele><time>2026-04-27T06:28:33.271Z</time></trkpt><trkpt lat="39.576195" lon="15.9590317"><ele>927.0</ele><time>2026-04-27T06:28:34.267Z</time></trkpt><trkpt lat="39.5761633" lon="15.95916"><ele>927.0</ele><time>2026-04-27T06:28:35.277Z</time></trkpt><trkpt lat="39.5761267" lon="15.959275"><ele>927.0</ele><time>2026-04-27T06:28:36.269Z</time></trkpt><trkpt lat="39.576095" lon="15.9593833"><ele>927.0</ele><time>2026-04-27T06:28:37.299Z</time></trkpt><trkpt lat="39.57608" lon="15.9594883"><ele>924.3333333333334</ele><time>2026-04-27T06:28:38.263Z</time></trkpt><trkpt lat="39.5760783" lon="15.95959"><ele>921.6666666666667</ele><time>2026-04-27T06:28:39.266Z</time></trkpt><trkpt lat="39.576085" lon="15.9597"><ele>919.0</ele><time>2026-04-27T06:28:40.264Z</time></trkpt><trkpt lat="39.576095" lon="15.9598117"><ele>916.3333333333334</ele><time>2026-04-27T06:28:41.272Z</time></trkpt><trkpt lat="39.5760983" lon="15.95993"><ele>913.6666666666667</ele><time>2026-04-27T06:28:42.267Z</time></trkpt><trkpt lat="39.5760967" lon="15.9600533"><ele>911.0</ele><time>2026-04-27T06:28:43.299Z</time></trkpt><trkpt lat="39.5760917" lon="15.9601667"><ele>910.4</ele><time>2026-04-27T06:28:44.267Z</time></trkpt><trkpt lat="39.5760867" lon="15.960265"><ele>909.8</ele><time>2026-04-27T06:28:45.266Z</time></trkpt><trkpt lat="39.576085" lon="15.9604033"><ele>909.1999999999999</ele><time>2026-04-27T06:28:47.274Z</time></trkpt><trkpt lat="39.5761567" lon="15.9605367"><ele>908.5999999999999</ele><time>2026-04-27T06:28:49.298Z</time></trkpt><trkpt lat="39.5762217" lon="15.96061"><ele>908.0</ele><time>2026-04-27T06:28:50.269Z</time></trkpt><trkpt lat="39.5763033" lon="15.9606817"><ele>912.0</ele><time>2026-04-27T06:28:51.268Z</time></trkpt><trkpt lat="39.5763833" lon="15.9607417"><ele>916.0</ele><time>2026-04-27T06:28:52.264Z</time></trkpt><trkpt lat="39.576465" lon="15.9607867"><ele>920.0</ele><time>2026-04-27T06:28:53.261Z</time></trkpt><trkpt lat="39.5765467" lon="15.9608167"><ele>924.0</ele><time>2026-04-27T06:28:54.267Z</time></trkpt><trkpt lat="39.576635" lon="15.9608233"><ele>928.0</ele><time>2026-04-27T06:28:55.311Z</time></trkpt><trkpt lat="39.5767333" lon="15.96082"><ele>927.9999999999999</ele><time>2026-04-27T06:28:56.264Z</time></trkpt><trkpt lat="39.576835" lon="15.96082"><ele>928.0</ele><time>2026-04-27T06:28:57.271Z</time></trkpt><trkpt lat="39.5769233" lon="15.9608367"><ele>928.0</ele><time>2026-04-27T06:28:58.261Z</time></trkpt><trkpt lat="39.5770067" lon="15.9608633"><ele>928.0</ele><time>2026-04-27T06:28:59.268Z</time></trkpt><trkpt lat="39.5770817" lon="15.9609017"><ele>927.9999999999999</ele><time>2026-04-27T06:29:00.263Z</time></trkpt><trkpt lat="39.5771483" lon="15.9609733"><ele>928.0</ele><time>2026-04-27T06:29:01.313Z</time></trkpt><trkpt lat="39.5772183" lon="15.9610683"><ele>931.0</ele><time>2026-04-27T06:29:02.27Z</time></trkpt><trkpt lat="39.5772883" lon="15.9611717"><ele>934.0</ele><time>2026-04-27T06:29:03.267Z</time></trkpt><trkpt lat="39.5773567" lon="15.9612767"><ele>937.0</ele><time>2026-04-27T06:29:04.26Z</time></trkpt><trkpt lat="39.5774167" lon="15.96139"><ele>940.0</ele><time>2026-04-27T06:29:05.265Z</time></trkpt><trkpt lat="39.5774633" lon="15.9615083"><ele>943.0</ele><time>2026-04-27T06:29:06.267Z</time></trkpt><trkpt lat="39.5775067" lon="15.961625"><ele>938.5999999999999</ele><time>2026-04-27T06:29:07.299Z</time></trkpt><trkpt lat="39.5775383" lon="15.9617433"><ele>934.1999999999999</ele><time>2026-04-27T06:29:08.267Z</time></trkpt><trkpt lat="39.5775717" lon="15.9618467"><ele>929.8</ele><time>2026-04-27T06:29:09.274Z</time></trkpt><trkpt lat="39.5775683" lon="15.96196"><ele>925.4</ele><time>2026-04-27T06:29:10.268Z</time></trkpt><trkpt lat="39.5776567" lon="15.9620683"><ele>921.0</ele><time>2026-04-27T06:29:12.267Z</time></trkpt><trkpt lat="39.5777383" lon="15.9620833"><ele>921.0</ele><time>2026-04-27T06:29:13.296Z</time></trkpt><trkpt lat="39.5778067" lon="15.9620883"><ele>921.0</ele><time>2026-04-27T06:29:14.262Z</time></trkpt><trkpt lat="39.5778817" lon="15.9621"><ele>921.0</ele><time>2026-04-27T06:29:15.267Z</time></trkpt><trkpt lat="39.5779383" lon="15.9621617"><ele>921.0</ele><time>2026-04-27T06:29:16.266Z</time></trkpt><trkpt lat="39.57801" lon="15.96219"><ele>921.0</ele><time>2026-04-27T06:29:17.269Z</time></trkpt><trkpt lat="39.5780883" lon="15.9621883"><ele>921.0</ele><time>2026-04-27T06:29:18.26Z</time></trkpt><trkpt lat="39.5781783" lon="15.96215"><ele>926.6666666666666</ele><time>2026-04-27T06:29:19.296Z</time></trkpt><trkpt lat="39.5782617" lon="15.9621117"><ele>932.3333333333333</ele><time>2026-04-27T06:29:20.263Z</time></trkpt><trkpt lat="39.5783233" lon="15.962055"><ele>938.0</ele><time>2026-04-27T06:29:21.27Z</time></trkpt><trkpt lat="39.5784033" lon="15.9619883"><ele>943.6666666666666</ele><time>2026-04-27T06:29:22.268Z</time></trkpt><trkpt lat="39.57846" lon="15.9619217"><ele>949.3333333333333</ele><time>2026-04-27T06:29:23.266Z</time></trkpt><trkpt lat="39.57853" lon="15.9619383"><ele>955.0</ele><time>2026-04-27T06:29:27.267Z</time></trkpt><trkpt lat="39.5785983" lon="15.9620817"><ele>955.0</ele><time>2026-04-27T06:29:29.27Z</time></trkpt><trkpt lat="39.5786483" lon="15.96218"><ele>955.0</ele><time>2026-04-27T06:29:30.271Z</time></trkpt><trkpt lat="39.5787017" lon="15.962275"><ele>955.0</ele><time>2026-04-27T06:29:31.312Z</time></trkpt><trkpt lat="39.5787183" lon="15.9624183"><ele>955.0</ele><time>2026-04-27T06:29:33.273Z</time></trkpt><trkpt lat="39.57871" lon="15.9625833"><ele>955.0</ele><time>2026-04-27T06:29:35.272Z</time></trkpt><trkpt lat="39.5786367" lon="15.9627167"><ele>958.25</ele><time>2026-04-27T06:29:36.267Z</time></trkpt><trkpt lat="39.5785817" lon="15.962855"><ele>961.5</ele><time>2026-04-27T06:29:37.297Z</time></trkpt><trkpt lat="39.5785167" lon="15.9630133"><ele>964.75</ele><time>2026-04-27T06:29:38.268Z</time></trkpt><trkpt lat="39.5784483" lon="15.9631733"><ele>968.0</ele><time>2026-04-27T06:29:39.267Z</time></trkpt><trkpt lat="39.578385" lon="15.9633183"><ele>968.0</ele><time>2026-04-27T06:29:40.263Z</time></trkpt><trkpt lat="39.5783433" lon="15.96344"><ele>968.0</ele><time>2026-04-27T06:29:41.268Z</time></trkpt><trkpt lat="39.5783267" lon="15.963585"><ele>968.0</ele><time>2026-04-27T06:29:43.292Z</time></trkpt><trkpt lat="39.57837" lon="15.9636867"><ele>968.0</ele><time>2026-04-27T06:29:45.26Z</time></trkpt><trkpt lat="39.578485" lon="15.963695"><ele>968.0</ele><time>2026-04-27T06:29:47.27Z</time></trkpt><trkpt lat="39.5785767" lon="15.96366"><ele>968.0</ele><time>2026-04-27T06:29:48.268Z</time></trkpt><trkpt lat="39.5786583" lon="15.9636133"><ele>968.0</ele><time>2026-04-27T06:29:49.298Z</time></trkpt><trkpt lat="39.5787417" lon="15.9635567"><ele>968.0</ele><time>2026-04-27T06:29:50.262Z</time></trkpt><trkpt lat="39.5788383" lon="15.9635133"><ele>968.0</ele><time>2026-04-27T06:29:51.274Z</time></trkpt><trkpt lat="39.578945" lon="15.963425"><ele>968.0</ele><time>2026-04-27T06:29:52.264Z</time></trkpt><trkpt lat="39.5790467" lon="15.9633267"><ele>974.8</ele><time>2026-04-27T06:29:53.262Z</time></trkpt><trkpt lat="39.57913" lon="15.9632483"><ele>981.5999999999999</ele><time>2026-04-27T06:29:54.274Z</time></trkpt><trkpt lat="39.5792067" lon="15.9631667"><ele>988.4000000000001</ele><time>2026-04-27T06:29:55.337Z</time></trkpt><trkpt lat="39.57928" lon="15.9630867"><ele>995.2</ele><time>2026-04-27T06:29:56.266Z</time></trkpt><trkpt lat="39.57936" lon="15.963015"><ele>1002.0</ele><time>2026-04-27T06:29:57.265Z</time></trkpt><trkpt lat="39.5794533" lon="15.9629633"><ele>1005.3333333333334</ele><time>2026-04-27T06:29:58.27Z</time></trkpt><trkpt lat="39.5795583" lon="15.962925"><ele>1008.6666666666667</ele><time>2026-04-27T06:29:59.267Z</time></trkpt><trkpt lat="39.5796483" lon="15.9629017"><ele>1012.0</ele><time>2026-04-27T06:30:00.268Z</time></trkpt><trkpt lat="39.5797283" lon="15.9628967"><ele>1015.3333333333334</ele><time>2026-04-27T06:30:01.306Z</time></trkpt><trkpt lat="39.5798033" lon="15.9629433"><ele>1018.6666666666667</ele><time>2026-04-27T06:30:02.265Z</time></trkpt><trkpt lat="39.5798683" lon="15.96293"><ele>1022.0</ele><time>2026-04-27T06:30:03.265Z</time></trkpt><trkpt lat="39.5799683" lon="15.96287"><ele>1022.0</ele><time>2026-04-27T06:30:05.263Z</time></trkpt><trkpt lat="39.58002" lon="15.9626783"><ele>1022.0</ele><time>2026-04-27T06:30:07.301Z</time></trkpt><trkpt lat="39.5799933" lon="15.9624983"><ele>1022.0</ele><time>2026-04-27T06:30:08.261Z</time></trkpt><trkpt lat="39.579975" lon="15.9623583"><ele>1022.0</ele><time>2026-04-27T06:30:09.265Z</time></trkpt><trkpt lat="39.579885" lon="15.962185"><ele>1018.25</ele><time>2026-04-27T06:30:10.26Z</time></trkpt><trkpt lat="39.579825" lon="15.9620483"><ele>1014.5</ele><time>2026-04-27T06:30:11.264Z</time></trkpt><trkpt lat="39.5797883" lon="15.961915"><ele>1010.75</ele><time>2026-04-27T06:30:12.265Z</time></trkpt><trkpt lat="39.579755" lon="15.9617767"><ele>1007.0</ele><time>2026-04-27T06:30:13.301Z</time></trkpt><trkpt lat="39.5797067" lon="15.96164"><ele>1006.25</ele><time>2026-04-27T06:30:14.263Z</time></trkpt><trkpt lat="39.5796683" lon="15.9615017"><ele>1005.5</ele><time>2026-04-27T06:30:15.265Z</time></trkpt><trkpt lat="39.5795767" lon="15.9612117"><ele>1004.75</ele><time>2026-04-27T06:30:17.267Z</time></trkpt><trkpt lat="39.5795367" lon="15.9611117"><ele>1004.0</ele><time>2026-04-27T06:30:18.266Z</time></trkpt><trkpt lat="39.5795017" lon="15.9610267"><ele>1004.0000000000001</ele><time>2026-04-27T06:30:19.296Z</time></trkpt><trkpt lat="39.5795583" lon="15.9610717"><ele>1004.0</ele><time>2026-04-27T06:30:20.263Z</time></trkpt><trkpt lat="39.57961" lon="15.9611733"><ele>1004.0</ele><time>2026-04-27T06:30:24.266Z</time></trkpt><trkpt lat="39.5796267" lon="15.9612767"><ele>1004.0</ele><time>2026-04-27T06:30:26.264Z</time></trkpt><trkpt lat="39.5796533" lon="15.96136"><ele>1004.0000000000001</ele><time>2026-04-27T06:30:27.27Z</time></trkpt><trkpt lat="39.5796817" lon="15.9614467"><ele>1004.0</ele><time>2026-04-27T06:30:28.267Z</time></trkpt><trkpt lat="39.579735" lon="15.9616167"><ele>1004.75</ele><time>2026-04-27T06:30:29.274Z</time></trkpt><trkpt lat="39.579785" lon="15.96176"><ele>1005.5</ele><time>2026-04-27T06:30:30.265Z</time></trkpt><trkpt lat="39.579835" lon="15.96192"><ele>1006.25</ele><time>2026-04-27T06:30:31.314Z</time></trkpt><trkpt lat="39.5798933" lon="15.9620733"><ele>1007.0</ele><time>2026-04-27T06:30:32.268Z</time></trkpt><trkpt lat="39.5799583" lon="15.96224"><ele>1007.0</ele><time>2026-04-27T06:30:33.271Z</time></trkpt><trkpt lat="39.58001" lon="15.96241"><ele>1007.0</ele><time>2026-04-27T06:30:34.27Z</time></trkpt><trkpt lat="39.5800717" lon="15.9626"><ele>1007.0</ele><time>2026-04-27T06:30:35.271Z</time></trkpt><trkpt lat="39.58012" lon="15.9627883"><ele>1010.0</ele><time>2026-04-27T06:30:36.268Z</time></trkpt><trkpt lat="39.5801567" lon="15.96296"><ele>1013.0</ele><time>2026-04-27T06:30:37.3Z</time></trkpt><trkpt lat="39.5801733" lon="15.9631017"><ele>1016.0</ele><time>2026-04-27T06:30:38.267Z</time></trkpt><trkpt lat="39.5801817" lon="15.9632267"><ele>1019.0</ele><time>2026-04-27T06:30:39.265Z</time></trkpt><trkpt lat="39.5801783" lon="15.9633383"><ele>1022.0</ele><time>2026-04-27T06:30:40.268Z</time></trkpt><trkpt lat="39.5801517" lon="15.9634233"><ele>1024.0</ele><time>2026-04-27T06:30:41.266Z</time></trkpt><trkpt lat="39.5801017" lon="15.96349"><ele>1026.0</ele><time>2026-04-27T06:30:42.267Z</time></trkpt><trkpt lat="39.5800367" lon="15.9635683"><ele>1028.0</ele><time>2026-04-27T06:30:43.298Z</time></trkpt><trkpt lat="39.57997" lon="15.9636667"><ele>1030.0</ele><time>2026-04-27T06:30:44.257Z</time></trkpt><trkpt lat="39.5799083" lon="15.9637383"><ele>1032.0</ele><time>2026-04-27T06:30:45.259Z</time></trkpt><trkpt lat="39.57985" lon="15.9637983"><ele>1034.0</ele><time>2026-04-27T06:30:46.27Z</time></trkpt><trkpt lat="39.5798133" lon="15.9638733"><ele>1034.0</ele><time>2026-04-27T06:30:47.271Z</time></trkpt><trkpt lat="39.57977" lon="15.9639817"><ele>1034.0</ele><time>2026-04-27T06:30:49.299Z</time></trkpt><trkpt lat="39.5797017" lon="15.9640533"><ele>1034.0</ele><time>2026-04-27T06:30:51.27Z</time></trkpt><trkpt lat="39.57966" lon="15.9642033"><ele>1034.0</ele><time>2026-04-27T06:30:53.27Z</time></trkpt><trkpt lat="39.5796317" lon="15.9642767"><ele>1034.0</ele><time>2026-04-27T06:30:54.274Z</time></trkpt><trkpt lat="39.5795933" lon="15.9643633"><ele>1034.0</ele><time>2026-04-27T06:30:55.287Z</time></trkpt><trkpt lat="39.5795467" lon="15.9644683"><ele>1029.4</ele><time>2026-04-27T06:30:56.265Z</time></trkpt><trkpt lat="39.5794617" lon="15.964535"><ele>1024.8000000000002</ele><time>2026-04-27T06:30:57.269Z</time></trkpt><trkpt lat="39.5794317" lon="15.964675"><ele>1020.1999999999999</ele><time>2026-04-27T06:30:58.272Z</time></trkpt><trkpt lat="39.579395" lon="15.9647917"><ele>1015.5999999999999</ele><time>2026-04-27T06:30:59.27Z</time></trkpt><trkpt lat="39.5794033" lon="15.96493"><ele>1011.0</ele><time>2026-04-27T06:31:00.265Z</time></trkpt><trkpt lat="39.57939" lon="15.9650467"><ele>1008.6666666666667</ele><time>2026-04-27T06:31:01.272Z</time></trkpt><trkpt lat="39.5793917" lon="15.965185"><ele>1006.3333333333334</ele><time>2026-04-27T06:31:02.267Z</time></trkpt><trkpt lat="39.5794067" lon="15.9653233"><ele>1004.0</ele><time>2026-04-27T06:31:03.268Z</time></trkpt><trkpt lat="39.57958" lon="15.965555"><ele>1009.75</ele><time>2026-04-27T06:31:04.268Z</time></trkpt><trkpt lat="39.5796383" lon="15.9656933"><ele>1015.5</ele><time>2026-04-27T06:31:05.274Z</time></trkpt><trkpt lat="39.5796617" lon="15.965805"><ele>1021.25</ele><time>2026-04-27T06:31:06.261Z</time></trkpt><trkpt lat="39.5797083" lon="15.9659683"><ele>1027.0</ele><time>2026-04-27T06:31:07.298Z</time></trkpt><trkpt lat="39.5797467" lon="15.9661283"><ele>1027.0</ele><time>2026-04-27T06:31:08.264Z</time></trkpt><trkpt lat="39.579765" lon="15.9663183"><ele>1027.0</ele><time>2026-04-27T06:31:09.276Z</time></trkpt><trkpt lat="39.5797933" lon="15.9665233"><ele>1027.0</ele><time>2026-04-27T06:31:10.265Z</time></trkpt><trkpt lat="39.5798383" lon="15.9667283"><ele>1026.25</ele><time>2026-04-27T06:31:11.27Z</time></trkpt><trkpt lat="39.5798533" lon="15.9668983"><ele>1025.5</ele><time>2026-04-27T06:31:12.27Z</time></trkpt><trkpt lat="39.57989" lon="15.96708"><ele>1024.75</ele><time>2026-04-27T06:31:13.302Z</time></trkpt><trkpt lat="39.5799317" lon="15.9672433"><ele>1024.0</ele><time>2026-04-27T06:31:14.269Z</time></trkpt><trkpt lat="39.57997" lon="15.9673783"><ele>1024.0</ele><time>2026-04-27T06:31:15.271Z</time></trkpt><trkpt lat="39.5800533" lon="15.9675267"><ele>1024.0</ele><time>2026-04-27T06:31:16.269Z</time></trkpt><trkpt lat="39.5801433" lon="15.9676983"><ele>1024.0</ele><time>2026-04-27T06:31:17.269Z</time></trkpt><trkpt lat="39.5802383" lon="15.9678933"><ele>1023.75</ele><time>2026-04-27T06:31:18.268Z</time></trkpt><trkpt lat="39.58032" lon="15.9680267"><ele>1023.5</ele><time>2026-04-27T06:31:19.305Z</time></trkpt><trkpt lat="39.5804" lon="15.9681483"><ele>1023.25</ele><time>2026-04-27T06:31:20.27Z</time></trkpt><trkpt lat="39.5805033" lon="15.9683083"><ele>1023.0</ele><time>2026-04-27T06:31:21.272Z</time></trkpt><trkpt lat="39.5805633" lon="15.9684517"><ele>1023.75</ele><time>2026-04-27T06:31:22.262Z</time></trkpt><trkpt lat="39.5805967" lon="15.9686083"><ele>1024.5</ele><time>2026-04-27T06:31:23.268Z</time></trkpt><trkpt lat="39.580595" lon="15.96877"><ele>1025.25</ele><time>2026-04-27T06:31:24.273Z</time></trkpt><trkpt lat="39.5805733" lon="15.9689433"><ele>1026.0</ele><time>2026-04-27T06:31:25.339Z</time></trkpt><trkpt lat="39.580555" lon="15.9690967"><ele>1025.0</ele><time>2026-04-27T06:31:26.265Z</time></trkpt><trkpt lat="39.5805583" lon="15.9692467"><ele>1023.9999999999999</ele><time>2026-04-27T06:31:27.264Z</time></trkpt><trkpt lat="39.58055" lon="15.96937"><ele>1022.9999999999999</ele><time>2026-04-27T06:31:28.264Z</time></trkpt><trkpt lat="39.5805683" lon="15.9695133"><ele>1022.0</ele><time>2026-04-27T06:31:29.271Z</time></trkpt><trkpt lat="39.5805917" lon="15.9696567"><ele>1021.0</ele><time>2026-04-27T06:31:30.264Z</time></trkpt><trkpt lat="39.5806133" lon="15.9698033"><ele>1021.0</ele><time>2026-04-27T06:31:31.313Z</time></trkpt><trkpt lat="39.5806283" lon="15.9699517"><ele>1020.9999999999999</ele><time>2026-04-27T06:31:32.262Z</time></trkpt><trkpt lat="39.5806517" lon="15.9700883"><ele>1020.9999999999999</ele><time>2026-04-27T06:31:33.271Z</time></trkpt><trkpt lat="39.5806717" lon="15.9702117"><ele>1021.0</ele><time>2026-04-27T06:31:34.267Z</time></trkpt><trkpt lat="39.5806683" lon="15.970335"><ele>1021.0</ele><time>2026-04-27T06:31:35.265Z</time></trkpt><trkpt lat="39.5806583" lon="15.9704567"><ele>1021.0</ele><time>2026-04-27T06:31:36.271Z</time></trkpt><trkpt lat="39.5806283" lon="15.97058"><ele>1020.9999999999999</ele><time>2026-04-27T06:31:37.298Z</time></trkpt><trkpt lat="39.5805867" lon="15.970705"><ele>1020.9999999999999</ele><time>2026-04-27T06:31:38.269Z</time></trkpt><trkpt lat="39.580555" lon="15.9708383"><ele>1021.0</ele><time>2026-04-27T06:31:39.277Z</time></trkpt><trkpt lat="39.5805317" lon="15.9709867"><ele>1021.0</ele><time>2026-04-27T06:31:40.266Z</time></trkpt><trkpt lat="39.5805183" lon="15.971155"><ele>1020.3333333333333</ele><time>2026-04-27T06:31:41.274Z</time></trkpt><trkpt lat="39.5805267" lon="15.9713417"><ele>1019.6666666666667</ele><time>2026-04-27T06:31:42.268Z</time></trkpt><trkpt lat="39.5805467" lon="15.971535"><ele>1019.0</ele><time>2026-04-27T06:31:43.302Z</time></trkpt><trkpt lat="39.58059" lon="15.9717617"><ele>1018.6666666666667</ele><time>2026-04-27T06:31:44.266Z</time></trkpt><trkpt lat="39.58063" lon="15.9719833"><ele>1018.3333333333333</ele><time>2026-04-27T06:31:45.263Z</time></trkpt><trkpt lat="39.5806683" lon="15.9722033"><ele>1018.0</ele><time>2026-04-27T06:31:46.273Z</time></trkpt><trkpt lat="39.5806983" lon="15.972435"><ele>1016.6666666666666</ele><time>2026-04-27T06:31:47.272Z</time></trkpt><trkpt lat="39.5807317" lon="15.9726817"><ele>1015.3333333333333</ele><time>2026-04-27T06:31:48.266Z</time></trkpt><trkpt lat="39.5807533" lon="15.9729117"><ele>1014.0</ele><time>2026-04-27T06:31:49.299Z</time></trkpt><trkpt lat="39.580765" lon="15.9731317"><ele>1013.0</ele><time>2026-04-27T06:31:50.265Z</time></trkpt><trkpt lat="39.5807783" lon="15.97336"><ele>1012.0</ele><time>2026-04-27T06:31:51.274Z</time></trkpt><trkpt lat="39.58078" lon="15.973595"><ele>1011.0</ele><time>2026-04-27T06:31:52.275Z</time></trkpt><trkpt lat="39.5807783" lon="15.9738367"><ele>1011.0</ele><time>2026-04-27T06:31:53.271Z</time></trkpt><trkpt lat="39.580775" lon="15.9740717"><ele>1011.0</ele><time>2026-04-27T06:31:54.269Z</time></trkpt><trkpt lat="39.5807667" lon="15.97431"><ele>1011.0</ele><time>2026-04-27T06:31:55.336Z</time></trkpt><trkpt lat="39.5807583" lon="15.974535"><ele>1009.0</ele><time>2026-04-27T06:31:56.26Z</time></trkpt><trkpt lat="39.5807517" lon="15.9747533"><ele>1007.0</ele><time>2026-04-27T06:31:57.263Z</time></trkpt><trkpt lat="39.5807483" lon="15.9749633"><ele>1005.0</ele><time>2026-04-27T06:31:58.263Z</time></trkpt><trkpt lat="39.5807433" lon="15.9751583"><ele>1004.25</ele><time>2026-04-27T06:31:59.267Z</time></trkpt><trkpt lat="39.580725" lon="15.9753467"><ele>1003.5</ele><time>2026-04-27T06:32:00.268Z</time></trkpt><trkpt lat="39.58069" lon="15.9755367"><ele>1002.75</ele><time>2026-04-27T06:32:01.291Z</time></trkpt><trkpt lat="39.5806433" lon="15.9757233"><ele>1002.0</ele><time>2026-04-27T06:32:02.269Z</time></trkpt><trkpt lat="39.580575" lon="15.9759083"><ele>999.3333333333333</ele><time>2026-04-27T06:32:03.269Z</time></trkpt><trkpt lat="39.5805033" lon="15.9760917"><ele>996.6666666666666</ele><time>2026-04-27T06:32:04.267Z</time></trkpt><trkpt lat="39.580425" lon="15.9762767"><ele>994.0</ele><time>2026-04-27T06:32:05.269Z</time></trkpt><trkpt lat="39.580365" lon="15.9764767"><ele>998.3333333333333</ele><time>2026-04-27T06:32:06.268Z</time></trkpt><trkpt lat="39.58029" lon="15.97666"><ele>1002.6666666666667</ele><time>2026-04-27T06:32:07.301Z</time></trkpt><trkpt lat="39.5802183" lon="15.9768467"><ele>1007.0</ele><time>2026-04-27T06:32:08.265Z</time></trkpt><trkpt lat="39.580145" lon="15.97703"><ele>1007.5</ele><time>2026-04-27T06:32:09.27Z</time></trkpt><trkpt lat="39.580075" lon="15.9772"><ele>1008.0</ele><time>2026-04-27T06:32:10.265Z</time></trkpt><trkpt lat="39.5800333" lon="15.9773583"><ele>1008.5</ele><time>2026-04-27T06:32:11.273Z</time></trkpt><trkpt lat="39.5799783" lon="15.9774983"><ele>1009.0</ele><time>2026-04-27T06:32:12.274Z</time></trkpt><trkpt lat="39.57993" lon="15.9776533"><ele>1010.5</ele><time>2026-04-27T06:32:13.294Z</time></trkpt><trkpt lat="39.5798867" lon="15.9778117"><ele>1012.0</ele><time>2026-04-27T06:32:14.266Z</time></trkpt><trkpt lat="39.579835" lon="15.9779833"><ele>1013.5</ele><time>2026-04-27T06:32:15.268Z</time></trkpt><trkpt lat="39.5797633" lon="15.9781667"><ele>1015.0</ele><time>2026-04-27T06:32:16.266Z</time></trkpt><trkpt lat="39.57969" lon="15.9783533"><ele>1015.75</ele><time>2026-04-27T06:32:17.265Z</time></trkpt><trkpt lat="39.57961" lon="15.9785283"><ele>1016.5</ele><time>2026-04-27T06:32:18.268Z</time></trkpt><trkpt lat="39.57955" lon="15.9787067"><ele>1017.25</ele><time>2026-04-27T06:32:19.292Z</time></trkpt><trkpt lat="39.5795017" lon="15.9788583"><ele>1018.0</ele><time>2026-04-27T06:32:20.266Z</time></trkpt><trkpt lat="39.5794767" lon="15.978995"><ele>1016.0</ele><time>2026-04-27T06:32:21.271Z</time></trkpt><trkpt lat="39.57948" lon="15.979115"><ele>1014.0</ele><time>2026-04-27T06:32:22.27Z</time></trkpt><trkpt lat="39.579485" lon="15.9792467"><ele>1012.0</ele><time>2026-04-27T06:32:23.271Z</time></trkpt><trkpt lat="39.5795" lon="15.9793683"><ele>1010.0</ele><time>2026-04-27T06:32:24.266Z</time></trkpt><trkpt lat="39.5795083" lon="15.9794933"><ele>1008.0</ele><time>2026-04-27T06:32:25.335Z</time></trkpt><trkpt lat="39.5795117" lon="15.9796267"><ele>1007.5999999999999</ele><time>2026-04-27T06:32:26.27Z</time></trkpt><trkpt lat="39.5795067" lon="15.979755"><ele>1007.1999999999999</ele><time>2026-04-27T06:32:27.275Z</time></trkpt><trkpt lat="39.5794783" lon="15.979875"><ele>1006.8</ele><time>2026-04-27T06:32:28.263Z</time></trkpt><trkpt lat="39.579435" lon="15.97998"><ele>1006.4</ele><time>2026-04-27T06:32:29.271Z</time></trkpt><trkpt lat="39.5793733" lon="15.980075"><ele>1006.0</ele><time>2026-04-27T06:32:30.269Z</time></trkpt><trkpt lat="39.5792983" lon="15.9801583"><ele>1007.0</ele><time>2026-04-27T06:32:31.31Z</time></trkpt><trkpt lat="39.5792017" lon="15.9802267"><ele>1007.9999999999999</ele><time>2026-04-27T06:32:32.267Z</time></trkpt><trkpt lat="39.579125" lon="15.980325"><ele>1008.9999999999999</ele><time>2026-04-27T06:32:33.272Z</time></trkpt><trkpt lat="39.5790383" lon="15.9804167"><ele>1010.0</ele><time>2026-04-27T06:32:34.264Z</time></trkpt><trkpt lat="39.57895" lon="15.9805067"><ele>1011.0</ele><time>2026-04-27T06:32:35.271Z</time></trkpt><trkpt lat="39.578855" lon="15.9805883"><ele>1011.0</ele><time>2026-04-27T06:32:36.27Z</time></trkpt><trkpt lat="39.5787567" lon="15.9806733"><ele>1010.9999999999999</ele><time>2026-04-27T06:32:37.299Z</time></trkpt><trkpt lat="39.5786617" lon="15.9807633"><ele>1010.9999999999999</ele><time>2026-04-27T06:32:38.267Z</time></trkpt><trkpt lat="39.57858" lon="15.9808583"><ele>1011.0</ele><time>2026-04-27T06:32:39.272Z</time></trkpt><trkpt lat="39.5785083" lon="15.9809433"><ele>1011.0</ele><time>2026-04-27T06:32:40.268Z</time></trkpt><trkpt lat="39.57843" lon="15.9810117"><ele>1009.5</ele><time>2026-04-27T06:32:41.265Z</time></trkpt><trkpt lat="39.578345" lon="15.9810817"><ele>1008.0</ele><time>2026-04-27T06:32:42.272Z</time></trkpt><trkpt lat="39.5782483" lon="15.9811483"><ele>1006.5</ele><time>2026-04-27T06:32:43.297Z</time></trkpt><trkpt lat="39.5781233" lon="15.9812033"><ele>1005.0</ele><time>2026-04-27T06:32:44.265Z</time></trkpt><trkpt lat="39.5779967" lon="15.981255"><ele>1005.0</ele><time>2026-04-27T06:32:45.278Z</time></trkpt><trkpt lat="39.57787" lon="15.9812967"><ele>1005.0</ele><time>2026-04-27T06:32:46.268Z</time></trkpt><trkpt lat="39.5777667" lon="15.9813483"><ele>1005.0</ele><time>2026-04-27T06:32:47.269Z</time></trkpt><trkpt lat="39.5776833" lon="15.98141"><ele>1005.0</ele><time>2026-04-27T06:32:48.266Z</time></trkpt><trkpt lat="39.5776183" lon="15.9814783"><ele>1005.0</ele><time>2026-04-27T06:32:49.301Z</time></trkpt><trkpt lat="39.577575" lon="15.9815717"><ele>1001.6</ele><time>2026-04-27T06:32:50.266Z</time></trkpt><trkpt lat="39.5775517" lon="15.9816833"><ele>998.2</ele><time>2026-04-27T06:32:51.27Z</time></trkpt><trkpt lat="39.577545" lon="15.9818067"><ele>994.8</ele><time>2026-04-27T06:32:52.269Z</time></trkpt><trkpt lat="39.5775583" lon="15.9819367"><ele>991.4</ele><time>2026-04-27T06:32:53.27Z</time></trkpt><trkpt lat="39.5775883" lon="15.98205"><ele>988.0</ele><time>2026-04-27T06:32:54.267Z</time></trkpt><trkpt lat="39.577645" lon="15.9821783"><ele>988.0</ele><time>2026-04-27T06:32:55.268Z</time></trkpt><trkpt lat="39.5776733" lon="15.9822933"><ele>988.0</ele><time>2026-04-27T06:32:56.27Z</time></trkpt><trkpt lat="39.577685" lon="15.9824017"><ele>988.0</ele><time>2026-04-27T06:32:57.267Z</time></trkpt><trkpt lat="39.57769" lon="15.9825033"><ele>988.0</ele><time>2026-04-27T06:32:58.267Z</time></trkpt><trkpt lat="39.5776317" lon="15.982605"><ele>988.0</ele><time>2026-04-27T06:33:00.263Z</time></trkpt><trkpt lat="39.577515" lon="15.9826583"><ele>987.8</ele><time>2026-04-27T06:33:02.272Z</time></trkpt><trkpt lat="39.5774567" lon="15.982715"><ele>987.5999999999999</ele><time>2026-04-27T06:33:03.272Z</time></trkpt><trkpt lat="39.57738" lon="15.982795"><ele>987.4000000000001</ele><time>2026-04-27T06:33:04.269Z</time></trkpt><trkpt lat="39.5772833" lon="15.9829033"><ele>987.2</ele><time>2026-04-27T06:33:05.272Z</time></trkpt><trkpt lat="39.5771917" lon="15.9830383"><ele>987.0</ele><time>2026-04-27T06:33:06.266Z</time></trkpt><trkpt lat="39.5771017" lon="15.9831983"><ele>982.5</ele><time>2026-04-27T06:33:07.297Z</time></trkpt><trkpt lat="39.5770033" lon="15.983375"><ele>978.0</ele><time>2026-04-27T06:33:08.264Z</time></trkpt><trkpt lat="39.5769267" lon="15.9835217"><ele>973.5</ele><time>2026-04-27T06:33:09.274Z</time></trkpt><trkpt lat="39.5768567" lon="15.9836533"><ele>969.0</ele><time>2026-04-27T06:33:10.271Z</time></trkpt><trkpt lat="39.5767967" lon="15.9837733"><ele>969.0</ele><time>2026-04-27T06:33:11.271Z</time></trkpt><trkpt lat="39.57675" lon="15.9839033"><ele>969.0000000000001</ele><time>2026-04-27T06:33:12.266Z</time></trkpt><trkpt lat="39.5767283" lon="15.984035"><ele>969.0000000000001</ele><time>2026-04-27T06:33:13.299Z</time></trkpt><trkpt lat="39.5767117" lon="15.98415"><ele>969.0</ele><time>2026-04-27T06:33:14.271Z</time></trkpt><trkpt lat="39.5767267" lon="15.9842783"><ele>969.0</ele><time>2026-04-27T06:33:15.271Z</time></trkpt><trkpt lat="39.576755" lon="15.9844633"><ele>968.25</ele><time>2026-04-27T06:33:16.267Z</time></trkpt><trkpt lat="39.5767567" lon="15.98462"><ele>967.5</ele><time>2026-04-27T06:33:17.265Z</time></trkpt><trkpt lat="39.5767567" lon="15.98477"><ele>966.75</ele><time>2026-04-27T06:33:18.267Z</time></trkpt><trkpt lat="39.5767417" lon="15.9849233"><ele>966.0</ele><time>2026-04-27T06:33:19.299Z</time></trkpt><trkpt lat="39.5767533" lon="15.98508"><ele>964.25</ele><time>2026-04-27T06:33:20.269Z</time></trkpt><trkpt lat="39.5767533" lon="15.985245"><ele>962.5</ele><time>2026-04-27T06:33:21.27Z</time></trkpt><trkpt lat="39.57676" lon="15.9854167"><ele>960.75</ele><time>2026-04-27T06:33:22.267Z</time></trkpt><trkpt lat="39.5767483" lon="15.98557"><ele>959.0</ele><time>2026-04-27T06:33:23.27Z</time></trkpt><trkpt lat="39.5767483" lon="15.985735"><ele>959.5</ele><time>2026-04-27T06:33:24.269Z</time></trkpt><trkpt lat="39.5767333" lon="15.9859"><ele>960.0</ele><time>2026-04-27T06:33:25.277Z</time></trkpt><trkpt lat="39.5767" lon="15.9860517"><ele>960.5</ele><time>2026-04-27T06:33:26.264Z</time></trkpt><trkpt lat="39.5766367" lon="15.986215"><ele>961.0</ele><time>2026-04-27T06:33:27.269Z</time></trkpt><trkpt lat="39.57656" lon="15.9863617"><ele>961.0</ele><time>2026-04-27T06:33:28.267Z</time></trkpt><trkpt lat="39.5764967" lon="15.9865033"><ele>961.0</ele><time>2026-04-27T06:33:29.266Z</time></trkpt><trkpt lat="39.5764317" lon="15.9866517"><ele>961.0</ele><time>2026-04-27T06:33:30.266Z</time></trkpt><trkpt lat="39.5763617" lon="15.98681"><ele>961.0</ele><time>2026-04-27T06:33:31.285Z</time></trkpt><trkpt lat="39.5762967" lon="15.9869717"><ele>961.75</ele><time>2026-04-27T06:33:32.271Z</time></trkpt><trkpt lat="39.5762417" lon="15.9871367"><ele>962.5</ele><time>2026-04-27T06:33:33.269Z</time></trkpt><trkpt lat="39.5761933" lon="15.9872967"><ele>963.25</ele><time>2026-04-27T06:33:34.265Z</time></trkpt><trkpt lat="39.5761683" lon="15.987445"><ele>964.0</ele><time>2026-04-27T06:33:35.272Z</time></trkpt><trkpt lat="39.5761467" lon="15.9875783"><ele>962.4000000000001</ele><time>2026-04-27T06:33:36.271Z</time></trkpt><trkpt lat="39.5761383" lon="15.98771"><ele>960.8000000000001</ele><time>2026-04-27T06:33:37.302Z</time></trkpt><trkpt lat="39.5761433" lon="15.9878467"><ele>959.1999999999999</ele><time>2026-04-27T06:33:38.273Z</time></trkpt><trkpt lat="39.5761633" lon="15.98799"><ele>957.5999999999999</ele><time>2026-04-27T06:33:39.277Z</time></trkpt><trkpt lat="39.57618" lon="15.98815"><ele>956.0</ele><time>2026-04-27T06:33:40.264Z</time></trkpt><trkpt lat="39.5761917" lon="15.9883317"><ele>953.0</ele><time>2026-04-27T06:33:41.268Z</time></trkpt><trkpt lat="39.5761883" lon="15.9885433"><ele>950.0</ele><time>2026-04-27T06:33:42.269Z</time></trkpt><trkpt lat="39.5761767" lon="15.98877"><ele>947.0</ele><time>2026-04-27T06:33:43.3Z</time></trkpt><trkpt lat="39.5761533" lon="15.9889933"><ele>939.0</ele><time>2026-04-27T06:33:44.263Z</time></trkpt><trkpt lat="39.5761283" lon="15.9892033"><ele>931.0</ele><time>2026-04-27T06:33:45.269Z</time></trkpt><trkpt lat="39.5761033" lon="15.9894033"><ele>923.0</ele><time>2026-04-27T06:33:46.269Z</time></trkpt><trkpt lat="39.5760833" lon="15.9895933"><ele>923.0</ele><time>2026-04-27T06:33:47.277Z</time></trkpt><trkpt lat="39.5760533" lon="15.9897517"><ele>923.0</ele><time>2026-04-27T06:33:48.271Z</time></trkpt><trkpt lat="39.57603" lon="15.989915"><ele>923.0</ele><time>2026-04-27T06:33:49.296Z</time></trkpt><trkpt lat="39.57602" lon="15.99008"><ele>923.0</ele><time>2026-04-27T06:33:50.266Z</time></trkpt><trkpt lat="39.57601" lon="15.9902283"><ele>924.0</ele><time>2026-04-27T06:33:51.264Z</time></trkpt><trkpt lat="39.5759783" lon="15.9903783"><ele>925.0</ele><time>2026-04-27T06:33:52.262Z</time></trkpt><trkpt lat="39.575925" lon="15.9905283"><ele>926.0</ele><time>2026-04-27T06:33:53.269Z</time></trkpt><trkpt lat="39.5758667" lon="15.99068"><ele>927.0</ele><time>2026-04-27T06:33:54.264Z</time></trkpt><trkpt lat="39.5757967" lon="15.9908117"><ele>928.0</ele><time>2026-04-27T06:33:55.335Z</time></trkpt><trkpt lat="39.5757" lon="15.99093"><ele>929.0</ele><time>2026-04-27T06:33:56.265Z</time></trkpt><trkpt lat="39.5756067" lon="15.9910417"><ele>930.0</ele><time>2026-04-27T06:33:57.272Z</time></trkpt><trkpt lat="39.5755217" lon="15.991145"><ele>931.0</ele><time>2026-04-27T06:33:58.268Z</time></trkpt><trkpt lat="39.5754567" lon="15.99125"><ele>931.0</ele><time>2026-04-27T06:33:59.275Z</time></trkpt><trkpt lat="39.575395" lon="15.9913533"><ele>930.9999999999999</ele><time>2026-04-27T06:34:00.268Z</time></trkpt><trkpt lat="39.5753483" lon="15.9914683"><ele>930.9999999999999</ele><time>2026-04-27T06:34:01.31Z</time></trkpt><trkpt lat="39.5753133" lon="15.9916067"><ele>931.0</ele><time>2026-04-27T06:34:02.269Z</time></trkpt><trkpt lat="39.5752833" lon="15.9917617"><ele>931.0</ele><time>2026-04-27T06:34:03.265Z</time></trkpt><trkpt lat="39.5752583" lon="15.991925"><ele>926.25</ele><time>2026-04-27T06:34:04.263Z</time></trkpt><trkpt lat="39.5752367" lon="15.992075"><ele>921.5</ele><time>2026-04-27T06:34:05.269Z</time></trkpt><trkpt lat="39.5752233" lon="15.9922217"><ele>916.75</ele><time>2026-04-27T06:34:06.265Z</time></trkpt><trkpt lat="39.5752133" lon="15.9923683"><ele>912.0</ele><time>2026-04-27T06:34:07.302Z</time></trkpt><trkpt lat="39.575205" lon="15.9925217"><ele>912.0</ele><time>2026-04-27T06:34:08.267Z</time></trkpt><trkpt lat="39.5751867" lon="15.992675"><ele>912.0</ele><time>2026-04-27T06:34:09.27Z</time></trkpt><trkpt lat="39.57516" lon="15.9928317"><ele>912.0</ele><time>2026-04-27T06:34:10.267Z</time></trkpt><trkpt lat="39.5751233" lon="15.9929933"><ele>912.0</ele><time>2026-04-27T06:34:11.271Z</time></trkpt><trkpt lat="39.57508" lon="15.99315"><ele>912.0</ele><time>2026-04-27T06:34:12.267Z</time></trkpt><trkpt lat="39.5750367" lon="15.9932967"><ele>912.0</ele><time>2026-04-27T06:34:13.299Z</time></trkpt><trkpt lat="39.5749933" lon="15.9934567"><ele>912.0</ele><time>2026-04-27T06:34:14.269Z</time></trkpt><trkpt lat="39.5749183" lon="15.9936033"><ele>912.0</ele><time>2026-04-27T06:34:15.277Z</time></trkpt><trkpt lat="39.574835" lon="15.993735"><ele>914.75</ele><time>2026-04-27T06:34:16.268Z</time></trkpt><trkpt lat="39.5747467" lon="15.993855"><ele>917.5</ele><time>2026-04-27T06:34:17.273Z</time></trkpt><trkpt lat="39.5746567" lon="15.9939717"><ele>920.25</ele><time>2026-04-27T06:34:18.264Z</time></trkpt><trkpt lat="39.5745533" lon="15.994085"><ele>923.0</ele><time>2026-04-27T06:34:19.3Z</time></trkpt><trkpt lat="39.5744333" lon="15.9941783"><ele>926.6666666666667</ele><time>2026-04-27T06:34:20.268Z</time></trkpt><trkpt lat="39.5743117" lon="15.9942833"><ele>930.3333333333333</ele><time>2026-04-27T06:34:21.273Z</time></trkpt><trkpt lat="39.5741883" lon="15.9944017"><ele>934.0</ele><time>2026-04-27T06:34:22.265Z</time></trkpt><trkpt lat="39.574045" lon="15.9945133"><ele>934.0</ele><time>2026-04-27T06:34:23.272Z</time></trkpt><trkpt lat="39.5739317" lon="15.9946283"><ele>934.0</ele><time>2026-04-27T06:34:24.264Z</time></trkpt><trkpt lat="39.573805" lon="15.9947"><ele>934.0</ele><time>2026-04-27T06:34:25.34Z</time></trkpt><trkpt lat="39.5736717" lon="15.99476"><ele>934.0</ele><time>2026-04-27T06:34:26.263Z</time></trkpt><trkpt lat="39.57355" lon="15.994895"><ele>937.0</ele><time>2026-04-27T06:34:27.27Z</time></trkpt><trkpt lat="39.5734183" lon="15.994985"><ele>940.0</ele><time>2026-04-27T06:34:28.268Z</time></trkpt><trkpt lat="39.5732983" lon="15.9950617"><ele>943.0</ele><time>2026-04-27T06:34:29.268Z</time></trkpt><trkpt lat="39.57317" lon="15.995135"><ele>946.0</ele><time>2026-04-27T06:34:30.265Z</time></trkpt><trkpt lat="39.5730233" lon="15.9951983"><ele>946.0</ele><time>2026-04-27T06:34:31.287Z</time></trkpt><trkpt lat="39.5728833" lon="15.99527"><ele>946.0</ele><time>2026-04-27T06:34:32.266Z</time></trkpt><trkpt lat="39.5727317" lon="15.9953733"><ele>946.0</ele><time>2026-04-27T06:34:33.272Z</time></trkpt><trkpt lat="39.5725817" lon="15.9954633"><ele>940.6666666666666</ele><time>2026-04-27T06:34:34.264Z</time></trkpt><trkpt lat="39.572425" lon="15.9955583"><ele>935.3333333333333</ele><time>2026-04-27T06:34:35.272Z</time></trkpt><trkpt lat="39.5722617" lon="15.9956817"><ele>930.0</ele><time>2026-04-27T06:34:36.266Z</time></trkpt><trkpt lat="39.5721133" lon="15.9957933"><ele>932.3333333333333</ele><time>2026-04-27T06:34:37.3Z</time></trkpt><trkpt lat="39.571975" lon="15.99588"><ele>934.6666666666666</ele><time>2026-04-27T06:34:38.27Z</time></trkpt><trkpt lat="39.5718417" lon="15.9959617"><ele>937.0</ele><time>2026-04-27T06:34:39.266Z</time></trkpt><trkpt lat="39.5717067" lon="15.9960433"><ele>937.0</ele><time>2026-04-27T06:34:40.267Z</time></trkpt><trkpt lat="39.571575" lon="15.9961333"><ele>937.0</ele><time>2026-04-27T06:34:41.272Z</time></trkpt><trkpt lat="39.5714533" lon="15.996225"><ele>937.0</ele><time>2026-04-27T06:34:42.263Z</time></trkpt><trkpt lat="39.5713467" lon="15.996345"><ele>937.0</ele><time>2026-04-27T06:34:43.298Z</time></trkpt><trkpt lat="39.57125" lon="15.996475"><ele>935.75</ele><time>2026-04-27T06:34:44.266Z</time></trkpt><trkpt lat="39.571155" lon="15.996605"><ele>934.5</ele><time>2026-04-27T06:34:45.271Z</time></trkpt><trkpt lat="39.5710733" lon="15.9967483"><ele>933.25</ele><time>2026-04-27T06:34:46.267Z</time></trkpt><trkpt lat="39.571015" lon="15.9968983"><ele>932.0</ele><time>2026-04-27T06:34:47.271Z</time></trkpt><trkpt lat="39.57098" lon="15.99705"><ele>932.0000000000001</ele><time>2026-04-27T06:34:48.271Z</time></trkpt><trkpt lat="39.5709583" lon="15.9971817"><ele>932.0</ele><time>2026-04-27T06:34:49.296Z</time></trkpt><trkpt lat="39.570955" lon="15.9972933"><ele>932.0</ele><time>2026-04-27T06:34:50.267Z</time></trkpt><trkpt lat="39.5709783" lon="15.9973883"><ele>932.0</ele><time>2026-04-27T06:34:51.27Z</time></trkpt><trkpt lat="39.5710183" lon="15.997485"><ele>932.0000000000001</ele><time>2026-04-27T06:34:52.265Z</time></trkpt><trkpt lat="39.571065" lon="15.99755"><ele>932.0</ele><time>2026-04-27T06:34:53.272Z</time></trkpt><trkpt lat="39.571135" lon="15.9976067"><ele>936.5</ele><time>2026-04-27T06:34:54.266Z</time></trkpt><trkpt lat="39.5711867" lon="15.9977417"><ele>941.0</ele><time>2026-04-27T06:34:56.264Z</time></trkpt><trkpt lat="39.5711933" lon="15.9978783"><ele>945.5</ele><time>2026-04-27T06:34:58.267Z</time></trkpt><trkpt lat="39.57112" lon="15.9980083"><ele>950.0</ele><time>2026-04-27T06:35:00.268Z</time></trkpt><trkpt lat="39.5710383" lon="15.9981083"><ele>950.0</ele><time>2026-04-27T06:35:01.304Z</time></trkpt><trkpt lat="39.5709783" lon="15.9981967"><ele>950.0</ele><time>2026-04-27T06:35:02.266Z</time></trkpt><trkpt lat="39.570925" lon="15.998315"><ele>950.0</ele><time>2026-04-27T06:35:03.267Z</time></trkpt><trkpt lat="39.5708817" lon="15.9984533"><ele>950.0</ele><time>2026-04-27T06:35:04.265Z</time></trkpt><trkpt lat="39.57084" lon="15.9985683"><ele>950.0</ele><time>2026-04-27T06:35:05.262Z</time></trkpt><trkpt lat="39.570815" lon="15.9986967"><ele>951.8</ele><time>2026-04-27T06:35:06.268Z</time></trkpt><trkpt lat="39.5707967" lon="15.9988267"><ele>953.6</ele><time>2026-04-27T06:35:07.303Z</time></trkpt><trkpt lat="39.5708067" lon="15.9989767"><ele>955.4000000000001</ele><time>2026-04-27T06:35:08.267Z</time></trkpt><trkpt lat="39.5708333" lon="15.9991133"><ele>957.2</ele><time>2026-04-27T06:35:09.27Z</time></trkpt><trkpt lat="39.5709117" lon="15.9991933"><ele>959.0</ele><time>2026-04-27T06:35:10.27Z</time></trkpt><trkpt lat="39.5709467" lon="15.9992867"><ele>963.1666666666667</ele><time>2026-04-27T06:35:11.27Z</time></trkpt><trkpt lat="39.57097" lon="15.99937"><ele>967.3333333333334</ele><time>2026-04-27T06:35:12.269Z</time></trkpt><trkpt lat="39.571" lon="15.9994917"><ele>971.5</ele><time>2026-04-27T06:35:14.26Z</time></trkpt><trkpt lat="39.57098" lon="15.9996033"><ele>975.6666666666667</ele><time>2026-04-27T06:35:16.269Z</time></trkpt><trkpt lat="39.5708983" lon="15.9995533"><ele>979.8333333333334</ele><time>2026-04-27T06:35:17.272Z</time></trkpt><trkpt lat="39.5708133" lon="15.9995317"><ele>984.0</ele><time>2026-04-27T06:35:18.263Z</time></trkpt><trkpt lat="39.5707" lon="15.99948"><ele>984.0</ele><time>2026-04-27T06:35:19.301Z</time></trkpt><trkpt lat="39.5706183" lon="15.9994633"><ele>984.0000000000001</ele><time>2026-04-27T06:35:20.27Z</time></trkpt><trkpt lat="39.5705433" lon="15.9994433"><ele>984.0000000000001</ele><time>2026-04-27T06:35:21.276Z</time></trkpt><trkpt lat="39.5704617" lon="15.9994233"><ele>984.0</ele><time>2026-04-27T06:35:22.265Z</time></trkpt><trkpt lat="39.57036" lon="15.99939"><ele>984.0</ele><time>2026-04-27T06:35:23.27Z</time></trkpt><trkpt lat="39.5702333" lon="15.9993517"><ele>984.0</ele><time>2026-04-27T06:35:24.267Z</time></trkpt><trkpt lat="39.57013" lon="15.99933"><ele>984.0000000000001</ele><time>2026-04-27T06:35:25.265Z</time></trkpt><trkpt lat="39.570035" lon="15.9993167"><ele>984.0000000000001</ele><time>2026-04-27T06:35:26.264Z</time></trkpt><trkpt lat="39.56994" lon="15.999315"><ele>984.0</ele><time>2026-04-27T06:35:27.265Z</time></trkpt><trkpt lat="39.5698517" lon="15.9993217"><ele>984.0</ele><time>2026-04-27T06:35:28.264Z</time></trkpt><trkpt lat="39.5697683" lon="15.9993283"><ele>984.0</ele><time>2026-04-27T06:35:29.27Z</time></trkpt><trkpt lat="39.5696783" lon="15.999355"><ele>984.0000000000001</ele><time>2026-04-27T06:35:30.263Z</time></trkpt><trkpt lat="39.5695817" lon="15.9994217"><ele>984.0000000000001</ele><time>2026-04-27T06:35:31.289Z</time></trkpt><trkpt lat="39.5694883" lon="15.9995"><ele>984.0</ele><time>2026-04-27T06:35:32.266Z</time></trkpt><trkpt lat="39.5693917" lon="15.9995717"><ele>984.0</ele><time>2026-04-27T06:35:33.268Z</time></trkpt><trkpt lat="39.5692933" lon="15.99962"><ele>982.2</ele><time>2026-04-27T06:35:34.265Z</time></trkpt><trkpt lat="39.5692133" lon="15.9996833"><ele>980.4000000000001</ele><time>2026-04-27T06:35:35.265Z</time></trkpt><trkpt lat="39.5691367" lon="15.9997567"><ele>978.6</ele><time>2026-04-27T06:35:36.269Z</time></trkpt><trkpt lat="39.5690767" lon="15.9998217"><ele>976.8</ele><time>2026-04-27T06:35:37.298Z</time></trkpt><trkpt lat="39.56905" lon="15.9999"><ele>975.0</ele><time>2026-04-27T06:35:38.267Z</time></trkpt><trkpt lat="39.56903" lon="16.00009"><ele>975.0</ele><time>2026-04-27T06:35:40.266Z</time></trkpt><trkpt lat="39.5690717" lon="16.0002117"><ele>975.0</ele><time>2026-04-27T06:35:41.27Z</time></trkpt><trkpt lat="39.56914" lon="16.000365"><ele>975.0</ele><time>2026-04-27T06:35:42.272Z</time></trkpt><trkpt lat="39.5692067" lon="16.0005017"><ele>975.0</ele><time>2026-04-27T06:35:43.302Z</time></trkpt><trkpt lat="39.5692933" lon="16.0006517"><ele>975.0</ele><time>2026-04-27T06:35:44.267Z</time></trkpt><trkpt lat="39.569375" lon="16.0008067"><ele>975.0</ele><time>2026-04-27T06:35:45.265Z</time></trkpt><trkpt lat="39.569445" lon="16.000975"><ele>975.0</ele><time>2026-04-27T06:35:46.26Z</time></trkpt><trkpt lat="39.5694833" lon="16.001135"><ele>975.0</ele><time>2026-04-27T06:35:47.263Z</time></trkpt><trkpt lat="39.5695133" lon="16.00129"><ele>981.0</ele><time>2026-04-27T06:35:48.259Z</time></trkpt><trkpt lat="39.5695483" lon="16.001445"><ele>987.0</ele><time>2026-04-27T06:35:49.296Z</time></trkpt><trkpt lat="39.5695817" lon="16.0016217"><ele>993.0</ele><time>2026-04-27T06:35:50.263Z</time></trkpt><trkpt lat="39.5696033" lon="16.0017917"><ele>999.0</ele><time>2026-04-27T06:35:51.271Z</time></trkpt><trkpt lat="39.56962" lon="16.0019633"><ele>1002.0</ele><time>2026-04-27T06:35:52.269Z</time></trkpt><trkpt lat="39.5696417" lon="16.0021367"><ele>1005.0</ele><time>2026-04-27T06:35:53.263Z</time></trkpt><trkpt lat="39.5696667" lon="16.0023117"><ele>1008.0</ele><time>2026-04-27T06:35:54.273Z</time></trkpt><trkpt lat="39.56969" lon="16.00251"><ele>1011.0</ele><time>2026-04-27T06:35:55.329Z</time></trkpt><trkpt lat="39.5697217" lon="16.00268"><ele>1011.75</ele><time>2026-04-27T06:35:56.266Z</time></trkpt><trkpt lat="39.5697683" lon="16.0028533"><ele>1012.5</ele><time>2026-04-27T06:35:57.266Z</time></trkpt><trkpt lat="39.5697933" lon="16.003005"><ele>1013.25</ele><time>2026-04-27T06:35:58.268Z</time></trkpt><trkpt lat="39.5698017" lon="16.0031517"><ele>1014.0</ele><time>2026-04-27T06:35:59.269Z</time></trkpt><trkpt lat="39.5697867" lon="16.0032833"><ele>1012.25</ele><time>2026-04-27T06:36:00.267Z</time></trkpt><trkpt lat="39.5697417" lon="16.0034267"><ele>1010.5</ele><time>2026-04-27T06:36:01.285Z</time></trkpt><trkpt lat="39.5696683" lon="16.00355"><ele>1008.75</ele><time>2026-04-27T06:36:02.262Z</time></trkpt><trkpt lat="39.5695817" lon="16.003635"><ele>1007.0</ele><time>2026-04-27T06:36:03.264Z</time></trkpt><trkpt lat="39.56949" lon="16.0037067"><ele>997.75</ele><time>2026-04-27T06:36:04.265Z</time></trkpt><trkpt lat="39.5693733" lon="16.0037683"><ele>988.5</ele><time>2026-04-27T06:36:05.27Z</time></trkpt><trkpt lat="39.5692633" lon="16.0038367"><ele>979.25</ele><time>2026-04-27T06:36:06.269Z</time></trkpt><trkpt lat="39.56915" lon="16.0039067"><ele>970.0</ele><time>2026-04-27T06:36:07.295Z</time></trkpt><trkpt lat="39.5690317" lon="16.0039567"><ele>970.0</ele><time>2026-04-27T06:36:08.271Z</time></trkpt><trkpt lat="39.5689033" lon="16.00398"><ele>970.0</ele><time>2026-04-27T06:36:09.267Z</time></trkpt><trkpt lat="39.5688033" lon="16.00406"><ele>970.0</ele><time>2026-04-27T06:36:10.266Z</time></trkpt><trkpt lat="39.5687133" lon="16.0041317"><ele>970.0</ele><time>2026-04-27T06:36:11.26Z</time></trkpt><trkpt lat="39.568635" lon="16.0042167"><ele>972.2</ele><time>2026-04-27T06:36:12.267Z</time></trkpt><trkpt lat="39.5685483" lon="16.0043133"><ele>974.4</ele><time>2026-04-27T06:36:13.296Z</time></trkpt><trkpt lat="39.5684733" lon="16.0044233"><ele>976.5999999999999</ele><time>2026-04-27T06:36:14.266Z</time></trkpt><trkpt lat="39.56841" lon="16.0045417"><ele>978.8</ele><time>2026-04-27T06:36:15.267Z</time></trkpt><trkpt lat="39.5683683" lon="16.004655"><ele>981.0</ele><time>2026-04-27T06:36:16.267Z</time></trkpt><trkpt lat="39.568345" lon="16.00479"><ele>981.0</ele><time>2026-04-27T06:36:17.275Z</time></trkpt><trkpt lat="39.5683383" lon="16.0049333"><ele>980.9999999999999</ele><time>2026-04-27T06:36:18.269Z</time></trkpt><trkpt lat="39.5683567" lon="16.00508"><ele>980.9999999999999</ele><time>2026-04-27T06:36:19.3Z</time></trkpt><trkpt lat="39.5683717" lon="16.005185"><ele>981.0</ele><time>2026-04-27T06:36:20.268Z</time></trkpt><trkpt lat="39.5683733" lon="16.005275"><ele>981.0</ele><time>2026-04-27T06:36:21.271Z</time></trkpt><trkpt lat="39.5683533" lon="16.0053667"><ele>984.5999999999999</ele><time>2026-04-27T06:36:22.276Z</time></trkpt><trkpt lat="39.5683283" lon="16.0054433"><ele>988.1999999999999</ele><time>2026-04-27T06:36:23.269Z</time></trkpt><trkpt lat="39.5682433" lon="16.0055483"><ele>991.8000000000001</ele><time>2026-04-27T06:36:25.338Z</time></trkpt><trkpt lat="39.5681783" lon="16.00557"><ele>995.4000000000001</ele><time>2026-04-27T06:36:26.262Z</time></trkpt><trkpt lat="39.568075" lon="16.0055283"><ele>999.0</ele><time>2026-04-27T06:36:27.269Z</time></trkpt><trkpt lat="39.56797" lon="16.0054933"><ele>1001.0</ele><time>2026-04-27T06:36:28.271Z</time></trkpt><trkpt lat="39.5678567" lon="16.00544"><ele>1003.0</ele><time>2026-04-27T06:36:29.272Z</time></trkpt><trkpt lat="39.5677367" lon="16.0053733"><ele>1005.0</ele><time>2026-04-27T06:36:30.269Z</time></trkpt><trkpt lat="39.5675617" lon="16.00528"><ele>1007.0</ele><time>2026-04-27T06:36:31.313Z</time></trkpt><trkpt lat="39.5673717" lon="16.00518"><ele>1007.0</ele><time>2026-04-27T06:36:32.26Z</time></trkpt><trkpt lat="39.567215" lon="16.0051"><ele>1007.0</ele><time>2026-04-27T06:36:33.273Z</time></trkpt><trkpt lat="39.5670683" lon="16.00502"><ele>1007.0</ele><time>2026-04-27T06:36:34.268Z</time></trkpt><trkpt lat="39.5669417" lon="16.0049683"><ele>1009.8</ele><time>2026-04-27T06:36:35.267Z</time></trkpt><trkpt lat="39.566835" lon="16.0049417"><ele>1012.6</ele><time>2026-04-27T06:36:36.27Z</time></trkpt><trkpt lat="39.5667567" lon="16.00497"><ele>1015.3999999999999</ele><time>2026-04-27T06:36:37.3Z</time></trkpt><trkpt lat="39.5667617" lon="16.005075"><ele>1018.1999999999999</ele><time>2026-04-27T06:36:39.263Z</time></trkpt><trkpt lat="39.5668367" lon="16.0052183"><ele>1021.0</ele><time>2026-04-27T06:36:41.267Z</time></trkpt><trkpt lat="39.566885" lon="16.0052817"><ele>1021.0</ele><time>2026-04-27T06:36:42.269Z</time></trkpt><trkpt lat="39.566995" lon="16.0054183"><ele>1021.0</ele><time>2026-04-27T06:36:44.267Z</time></trkpt><trkpt lat="39.5671017" lon="16.0055517"><ele>1021.0</ele><time>2026-04-27T06:36:45.27Z</time></trkpt><trkpt lat="39.5672" lon="16.0056467"><ele>1021.0</ele><time>2026-04-27T06:36:46.269Z</time></trkpt><trkpt lat="39.5673" lon="16.0057467"><ele>1024.0</ele><time>2026-04-27T06:36:47.272Z</time></trkpt><trkpt lat="39.56744" lon="16.005845"><ele>1027.0</ele><time>2026-04-27T06:36:48.268Z</time></trkpt><trkpt lat="39.567535" lon="16.0059233"><ele>1030.0</ele><time>2026-04-27T06:36:49.297Z</time></trkpt><trkpt lat="39.5676317" lon="16.006"><ele>1033.0</ele><time>2026-04-27T06:36:50.266Z</time></trkpt><trkpt lat="39.56771" lon="16.0060717"><ele>1033.0</ele><time>2026-04-27T06:36:51.266Z</time></trkpt><trkpt lat="39.567765" lon="16.00615"><ele>1033.0</ele><time>2026-04-27T06:36:52.268Z</time></trkpt><trkpt lat="39.567835" lon="16.0062217"><ele>1033.0</ele><time>2026-04-27T06:36:53.274Z</time></trkpt><trkpt lat="39.567785" lon="16.0063183"><ele>1033.0</ele><time>2026-04-27T06:36:56.266Z</time></trkpt><trkpt lat="39.567715" lon="16.006335"><ele>1033.0</ele><time>2026-04-27T06:36:57.265Z</time></trkpt><trkpt lat="39.5676433" lon="16.006335"><ele>1033.0</ele><time>2026-04-27T06:36:58.268Z</time></trkpt><trkpt lat="39.56752" lon="16.006295"><ele>1033.0</ele><time>2026-04-27T06:36:59.268Z</time></trkpt><trkpt lat="39.5674283" lon="16.0062933"><ele>1033.0</ele><time>2026-04-27T06:37:00.27Z</time></trkpt><trkpt lat="39.5672667" lon="16.0062233"><ele>1033.0</ele><time>2026-04-27T06:37:01.34Z</time></trkpt><trkpt lat="39.567125" lon="16.006165"><ele>1033.0</ele><time>2026-04-27T06:37:02.268Z</time></trkpt><trkpt lat="39.566955" lon="16.0060783"><ele>1036.75</ele><time>2026-04-27T06:37:03.265Z</time></trkpt><trkpt lat="39.5668217" lon="16.006015"><ele>1040.5</ele><time>2026-04-27T06:37:04.27Z</time></trkpt><trkpt lat="39.5666883" lon="16.0059617"><ele>1044.25</ele><time>2026-04-27T06:37:05.269Z</time></trkpt><trkpt lat="39.56657" lon="16.00594"><ele>1048.0</ele><time>2026-04-27T06:37:06.268Z</time></trkpt><trkpt lat="39.5664617" lon="16.0059683"><ele>1048.0</ele><time>2026-04-27T06:37:07.297Z</time></trkpt><trkpt lat="39.56636" lon="16.0060117"><ele>1048.0</ele><time>2026-04-27T06:37:08.266Z</time></trkpt><trkpt lat="39.566305" lon="16.0060667"><ele>1048.0</ele><time>2026-04-27T06:37:09.265Z</time></trkpt><trkpt lat="39.566225" lon="16.00616"><ele>1048.0</ele><time>2026-04-27T06:37:11.267Z</time></trkpt><trkpt lat="39.5662583" lon="16.0062517"><ele>1048.0</ele><time>2026-04-27T06:37:13.301Z</time></trkpt><trkpt lat="39.5663233" lon="16.0063333"><ele>1048.0</ele><time>2026-04-27T06:37:14.263Z</time></trkpt><trkpt lat="39.5663667" lon="16.0064083"><ele>1048.0</ele><time>2026-04-27T06:37:15.271Z</time></trkpt><trkpt lat="39.5664167" lon="16.00652"><ele>1048.0</ele><time>2026-04-27T06:37:17.271Z</time></trkpt><trkpt lat="39.5664467" lon="16.0066383"><ele>1048.0</ele><time>2026-04-27T06:37:19.303Z</time></trkpt><trkpt lat="39.5663917" lon="16.006775"><ele>1048.0</ele><time>2026-04-27T06:37:21.276Z</time></trkpt><trkpt lat="39.5662417" lon="16.0067383"><ele>1051.8</ele><time>2026-04-27T06:37:22.269Z</time></trkpt><trkpt lat="39.5661383" lon="16.00678"><ele>1055.6</ele><time>2026-04-27T06:37:23.265Z</time></trkpt><trkpt lat="39.5660567" lon="16.0068333"><ele>1059.4</ele><time>2026-04-27T06:37:24.264Z</time></trkpt><trkpt lat="39.5659817" lon="16.0068767"><ele>1063.2</ele><time>2026-04-27T06:37:25.33Z</time></trkpt><trkpt lat="39.565905" lon="16.00694"><ele>1067.0</ele><time>2026-04-27T06:37:26.265Z</time></trkpt><trkpt lat="39.5658183" lon="16.0070283"><ele>1067.0</ele><time>2026-04-27T06:37:27.269Z</time></trkpt><trkpt lat="39.5657167" lon="16.0071433"><ele>1067.0</ele><time>2026-04-27T06:37:28.266Z</time></trkpt><trkpt lat="39.5655917" lon="16.0072833"><ele>1067.0</ele><time>2026-04-27T06:37:29.269Z</time></trkpt><trkpt lat="39.5655017" lon="16.0074317"><ele>1067.0</ele><time>2026-04-27T06:37:30.265Z</time></trkpt><trkpt lat="39.5653867" lon="16.0076183"><ele>1069.6666666666667</ele><time>2026-04-27T06:37:31.312Z</time></trkpt><trkpt lat="39.5652717" lon="16.00779"><ele>1072.3333333333333</ele><time>2026-04-27T06:37:32.263Z</time></trkpt><trkpt lat="39.5651617" lon="16.0079683"><ele>1075.0</ele><time>2026-04-27T06:37:33.267Z</time></trkpt><trkpt lat="39.5650517" lon="16.0081467"><ele>1075.0</ele><time>2026-04-27T06:37:34.264Z</time></trkpt><trkpt lat="39.564965" lon="16.0083033"><ele>1075.0</ele><time>2026-04-27T06:37:35.267Z</time></trkpt><trkpt lat="39.5648833" lon="16.0084467"><ele>1075.0</ele><time>2026-04-27T06:37:36.27Z</time></trkpt><trkpt lat="39.5648183" lon="16.0086267"><ele>1075.0</ele><time>2026-04-27T06:37:37.299Z</time></trkpt><trkpt lat="39.5647483" lon="16.00882"><ele>1076.4</ele><time>2026-04-27T06:37:38.266Z</time></trkpt><trkpt lat="39.5646717" lon="16.0089783"><ele>1077.8</ele><time>2026-04-27T06:37:39.27Z</time></trkpt><trkpt lat="39.5646467" lon="16.0091"><ele>1079.2</ele><time>2026-04-27T06:37:40.27Z</time></trkpt><trkpt lat="39.564595" lon="16.0091717"><ele>1080.6</ele><time>2026-04-27T06:37:41.261Z</time></trkpt><trkpt lat="39.5645317" lon="16.0092367"><ele>1082.0</ele><time>2026-04-27T06:37:42.268Z</time></trkpt><trkpt lat="39.5644417" lon="16.009325"><ele>1082.2</ele><time>2026-04-27T06:37:43.297Z</time></trkpt><trkpt lat="39.564355" lon="16.00941"><ele>1082.4</ele><time>2026-04-27T06:37:44.262Z</time></trkpt><trkpt lat="39.5642433" lon="16.009485"><ele>1082.6</ele><time>2026-04-27T06:37:45.268Z</time></trkpt><trkpt lat="39.5641567" lon="16.0095433"><ele>1082.8</ele><time>2026-04-27T06:37:46.268Z</time></trkpt><trkpt lat="39.56409" lon="16.0096167"><ele>1083.0</ele><time>2026-04-27T06:37:47.272Z</time></trkpt><trkpt lat="39.5640383" lon="16.009685"><ele>1083.0</ele><time>2026-04-27T06:37:48.267Z</time></trkpt><trkpt lat="39.5639917" lon="16.0097433"><ele>1083.0</ele><time>2026-04-27T06:37:49.298Z</time></trkpt><trkpt lat="39.56394" lon="16.009815"><ele>1083.0</ele><time>2026-04-27T06:37:50.265Z</time></trkpt><trkpt lat="39.5638817" lon="16.009895"><ele>1083.0</ele><time>2026-04-27T06:37:51.273Z</time></trkpt><trkpt lat="39.563805" lon="16.01006"><ele>1083.0</ele><time>2026-04-27T06:37:52.269Z</time></trkpt><trkpt lat="39.5637333" lon="16.0101733"><ele>1081.5</ele><time>2026-04-27T06:37:53.266Z</time></trkpt><trkpt lat="39.5636517" lon="16.010345"><ele>1080.0</ele><time>2026-04-27T06:37:54.266Z</time></trkpt><trkpt lat="39.56359" lon="16.0104767"><ele>1078.5</ele><time>2026-04-27T06:37:55.326Z</time></trkpt><trkpt lat="39.5635417" lon="16.01063"><ele>1077.0</ele><time>2026-04-27T06:37:56.261Z</time></trkpt><trkpt lat="39.5635633" lon="16.0108817"><ele>1077.0</ele><time>2026-04-27T06:37:57.268Z</time></trkpt><trkpt lat="39.5635417" lon="16.0110617"><ele>1077.0</ele><time>2026-04-27T06:37:58.265Z</time></trkpt><trkpt lat="39.5635133" lon="16.0112567"><ele>1077.0</ele><time>2026-04-27T06:37:59.27Z</time></trkpt><trkpt lat="39.5635133" lon="16.0114483"><ele>1077.0</ele><time>2026-04-27T06:38:00.265Z</time></trkpt><trkpt lat="39.56354" lon="16.0116483"><ele>1075.6666666666667</ele><time>2026-04-27T06:38:01.312Z</time></trkpt><trkpt lat="39.563585" lon="16.011855"><ele>1074.3333333333335</ele><time>2026-04-27T06:38:02.262Z</time></trkpt><trkpt lat="39.5636233" lon="16.012035"><ele>1073.0</ele><time>2026-04-27T06:38:03.27Z</time></trkpt><trkpt lat="39.5636867" lon="16.0122067"><ele>1078.0</ele><time>2026-04-27T06:38:04.268Z</time></trkpt><trkpt lat="39.5637283" lon="16.0123983"><ele>1083.0</ele><time>2026-04-27T06:38:05.265Z</time></trkpt><trkpt lat="39.5637717" lon="16.0126033"><ele>1088.0</ele><time>2026-04-27T06:38:06.264Z</time></trkpt><trkpt lat="39.5638033" lon="16.0128167"><ele>1088.0</ele><time>2026-04-27T06:38:07.297Z</time></trkpt><trkpt lat="39.5638267" lon="16.0130183"><ele>1088.0</ele><time>2026-04-27T06:38:08.269Z</time></trkpt><trkpt lat="39.563845" lon="16.013225"><ele>1088.0</ele><time>2026-04-27T06:38:09.261Z</time></trkpt><trkpt lat="39.5638567" lon="16.0133983"><ele>1090.25</ele><time>2026-04-27T06:38:10.266Z</time></trkpt><trkpt lat="39.56385" lon="16.0135667"><ele>1092.5</ele><time>2026-04-27T06:38:11.268Z</time></trkpt><trkpt lat="39.5638267" lon="16.0137383"><ele>1094.75</ele><time>2026-04-27T06:38:12.268Z</time></trkpt><trkpt lat="39.563795" lon="16.013875"><ele>1097.0</ele><time>2026-04-27T06:38:13.297Z</time></trkpt><trkpt lat="39.563755" lon="16.0140167"><ele>1098.75</ele><time>2026-04-27T06:38:14.262Z</time></trkpt><trkpt lat="39.5637017" lon="16.01417"><ele>1100.5</ele><time>2026-04-27T06:38:15.266Z</time></trkpt><trkpt lat="39.5636617" lon="16.0143233"><ele>1102.25</ele><time>2026-04-27T06:38:16.263Z</time></trkpt><trkpt lat="39.5636333" lon="16.01449"><ele>1104.0</ele><time>2026-04-27T06:38:17.267Z</time></trkpt><trkpt lat="39.5636117" lon="16.01466"><ele>1102.25</ele><time>2026-04-27T06:38:18.266Z</time></trkpt><trkpt lat="39.56359" lon="16.01481"><ele>1100.5</ele><time>2026-04-27T06:38:19.302Z</time></trkpt><trkpt lat="39.5635517" lon="16.0149667"><ele>1098.75</ele><time>2026-04-27T06:38:20.263Z</time></trkpt><trkpt lat="39.563525" lon="16.01512"><ele>1097.0</ele><time>2026-04-27T06:38:21.265Z</time></trkpt><trkpt lat="39.5634833" lon="16.0152533"><ele>1097.0</ele><time>2026-04-27T06:38:22.267Z</time></trkpt><trkpt lat="39.5634267" lon="16.0153733"><ele>1097.0</ele><time>2026-04-27T06:38:23.269Z</time></trkpt><trkpt lat="39.5633517" lon="16.0154983"><ele>1097.0</ele><time>2026-04-27T06:38:24.27Z</time></trkpt><trkpt lat="39.563275" lon="16.0156283"><ele>1097.0</ele><time>2026-04-27T06:38:25.29Z</time></trkpt><trkpt lat="39.563185" lon="16.0157733"><ele>1095.75</ele><time>2026-04-27T06:38:26.265Z</time></trkpt><trkpt lat="39.563075" lon="16.0158767"><ele>1094.5</ele><time>2026-04-27T06:38:27.268Z</time></trkpt><trkpt lat="39.5629483" lon="16.0159817"><ele>1093.25</ele><time>2026-04-27T06:38:28.265Z</time></trkpt><trkpt lat="39.5628033" lon="16.0160317"><ele>1092.0</ele><time>2026-04-27T06:38:29.266Z</time></trkpt><trkpt lat="39.562665" lon="16.0161217"><ele>1092.0</ele><time>2026-04-27T06:38:30.267Z</time></trkpt><trkpt lat="39.5625017" lon="16.01621"><ele>1092.0</ele><time>2026-04-27T06:38:31.29Z</time></trkpt><trkpt lat="39.562335" lon="16.0162983"><ele>1092.0</ele><time>2026-04-27T06:38:32.266Z</time></trkpt><trkpt lat="39.5621867" lon="16.01642"><ele>1089.6666666666667</ele><time>2026-04-27T06:38:33.271Z</time></trkpt><trkpt lat="39.5620217" lon="16.0165417"><ele>1087.3333333333335</ele><time>2026-04-27T06:38:34.27Z</time></trkpt><trkpt lat="39.5618583" lon="16.0166333"><ele>1085.0</ele><time>2026-04-27T06:38:35.268Z</time></trkpt><trkpt lat="39.5616983" lon="16.0167317"><ele>1085.0</ele><time>2026-04-27T06:38:36.266Z</time></trkpt><trkpt lat="39.5615417" lon="16.0168317"><ele>1085.0</ele><time>2026-04-27T06:38:37.295Z</time></trkpt><trkpt lat="39.5613883" lon="16.0169267"><ele>1085.0</ele><time>2026-04-27T06:38:38.262Z</time></trkpt><trkpt lat="39.5612417" lon="16.01702"><ele>1082.5</ele><time>2026-04-27T06:38:39.264Z</time></trkpt><trkpt lat="39.56111" lon="16.0170867"><ele>1080.0</ele><time>2026-04-27T06:38:40.261Z</time></trkpt><trkpt lat="39.56096" lon="16.0170283"><ele>1077.5</ele><time>2026-04-27T06:38:41.264Z</time></trkpt><trkpt lat="39.5609517" lon="16.017125"><ele>1075.0</ele><time>2026-04-27T06:38:42.265Z</time></trkpt><trkpt lat="39.5608883" lon="16.0171883"><ele>1075.0</ele><time>2026-04-27T06:38:43.297Z</time></trkpt><trkpt lat="39.5608867" lon="16.0172883"><ele>1075.0</ele><time>2026-04-27T06:38:44.263Z</time></trkpt><trkpt lat="39.5609133" lon="16.0174383"><ele>1075.0</ele><time>2026-04-27T06:38:45.273Z</time></trkpt><trkpt lat="39.5609283" lon="16.0175933"><ele>1075.0</ele><time>2026-04-27T06:38:46.268Z</time></trkpt><trkpt lat="39.5610067" lon="16.0177867"><ele>1073.25</ele><time>2026-04-27T06:38:47.265Z</time></trkpt><trkpt lat="39.5610567" lon="16.01796"><ele>1071.5</ele><time>2026-04-27T06:38:48.269Z</time></trkpt><trkpt lat="39.56109" lon="16.0181383"><ele>1069.75</ele><time>2026-04-27T06:38:49.295Z</time></trkpt><trkpt lat="39.5611033" lon="16.0183"><ele>1068.0</ele><time>2026-04-27T06:38:50.262Z</time></trkpt><trkpt lat="39.5611133" lon="16.01846"><ele>1067.25</ele><time>2026-04-27T06:38:51.267Z</time></trkpt><trkpt lat="39.5610983" lon="16.01863"><ele>1066.5</ele><time>2026-04-27T06:38:52.268Z</time></trkpt><trkpt lat="39.5610533" lon="16.0188117"><ele>1065.75</ele><time>2026-04-27T06:38:53.275Z</time></trkpt><trkpt lat="39.56097" lon="16.018995"><ele>1065.0</ele><time>2026-04-27T06:38:54.282Z</time></trkpt><trkpt lat="39.56086" lon="16.01915"><ele>1068.6666666666667</ele><time>2026-04-27T06:38:55.288Z</time></trkpt><trkpt lat="39.5607317" lon="16.0192833"><ele>1072.3333333333335</ele><time>2026-04-27T06:38:56.269Z</time></trkpt><trkpt lat="39.5606183" lon="16.0194167"><ele>1076.0</ele><time>2026-04-27T06:38:57.271Z</time></trkpt><trkpt lat="39.5605067" lon="16.0195467"><ele>1071.0</ele><time>2026-04-27T06:38:58.266Z</time></trkpt><trkpt lat="39.5603533" lon="16.019685"><ele>1066.0</ele><time>2026-04-27T06:38:59.273Z</time></trkpt><trkpt lat="39.5602083" lon="16.0198267"><ele>1061.0</ele><time>2026-04-27T06:39:00.266Z</time></trkpt><trkpt lat="39.5600233" lon="16.0199333"><ele>1062.0</ele><time>2026-04-27T06:39:01.305Z</time></trkpt><trkpt lat="39.559835" lon="16.0200383"><ele>1063.0</ele><time>2026-04-27T06:39:02.264Z</time></trkpt><trkpt lat="39.5596467" lon="16.02017"><ele>1064.0</ele><time>2026-04-27T06:39:03.267Z</time></trkpt><trkpt lat="39.5594817" lon="16.0203667"><ele>1064.0</ele><time>2026-04-27T06:39:04.266Z</time></trkpt><trkpt lat="39.559315" lon="16.0205317"><ele>1064.0</ele><time>2026-04-27T06:39:05.269Z</time></trkpt><trkpt lat="39.5591567" lon="16.020695"><ele>1064.0</ele><time>2026-04-27T06:39:06.266Z</time></trkpt><trkpt lat="39.5590083" lon="16.0208267"><ele>1065.0</ele><time>2026-04-27T06:39:07.299Z</time></trkpt><trkpt lat="39.5588683" lon="16.02095"><ele>1066.0</ele><time>2026-04-27T06:39:08.264Z</time></trkpt><trkpt lat="39.5587067" lon="16.02106"><ele>1067.0</ele><time>2026-04-27T06:39:09.262Z</time></trkpt><trkpt lat="39.558565" lon="16.02118"><ele>1067.0</ele><time>2026-04-27T06:39:10.265Z</time></trkpt><trkpt lat="39.5584183" lon="16.0212717"><ele>1067.0</ele><time>2026-04-27T06:39:11.273Z</time></trkpt><trkpt lat="39.5582433" lon="16.02136"><ele>1067.0</ele><time>2026-04-27T06:39:12.269Z</time></trkpt><trkpt lat="39.5580767" lon="16.021435"><ele>1063.6666666666667</ele><time>2026-04-27T06:39:13.297Z</time></trkpt><trkpt lat="39.5578667" lon="16.021445"><ele>1060.3333333333333</ele><time>2026-04-27T06:39:14.265Z</time></trkpt><trkpt lat="39.5577017" lon="16.02146"><ele>1057.0</ele><time>2026-04-27T06:39:15.273Z</time></trkpt><trkpt lat="39.5575167" lon="16.0214983"><ele>1057.0</ele><time>2026-04-27T06:39:16.262Z</time></trkpt><trkpt lat="39.557335" lon="16.02154"><ele>1057.0</ele><time>2026-04-27T06:39:17.265Z</time></trkpt><trkpt lat="39.557165" lon="16.0215917"><ele>1057.0</ele><time>2026-04-27T06:39:18.265Z</time></trkpt><trkpt lat="39.5570083" lon="16.0216283"><ele>1056.25</ele><time>2026-04-27T06:39:19.298Z</time></trkpt><trkpt lat="39.5568617" lon="16.0216517"><ele>1055.5</ele><time>2026-04-27T06:39:20.262Z</time></trkpt><trkpt lat="39.5567317" lon="16.02165"><ele>1054.75</ele><time>2026-04-27T06:39:21.27Z</time></trkpt><trkpt lat="39.5566133" lon="16.0216217"><ele>1054.0</ele><time>2026-04-27T06:39:22.272Z</time></trkpt><trkpt lat="39.5565167" lon="16.0215717"><ele>1054.0</ele><time>2026-04-27T06:39:23.266Z</time></trkpt><trkpt lat="39.5564333" lon="16.0214733"><ele>1054.0</ele><time>2026-04-27T06:39:24.265Z</time></trkpt><trkpt lat="39.5563533" lon="16.0213667"><ele>1054.0</ele><time>2026-04-27T06:39:25.295Z</time></trkpt><trkpt lat="39.5562933" lon="16.0212467"><ele>1054.0</ele><time>2026-04-27T06:39:26.267Z</time></trkpt><trkpt lat="39.5562417" lon="16.0211067"><ele>1057.0</ele><time>2026-04-27T06:39:27.273Z</time></trkpt><trkpt lat="39.5561933" lon="16.0209467"><ele>1060.0</ele><time>2026-04-27T06:39:28.265Z</time></trkpt><trkpt lat="39.55615" lon="16.0207717"><ele>1063.0</ele><time>2026-04-27T06:39:29.265Z</time></trkpt><trkpt lat="39.556095" lon="16.0205933"><ele>1066.0</ele><time>2026-04-27T06:39:30.265Z</time></trkpt><trkpt lat="39.5560033" lon="16.0203883"><ele>1066.0</ele><time>2026-04-27T06:39:31.297Z</time></trkpt><trkpt lat="39.555915" lon="16.0202067"><ele>1066.0</ele><time>2026-04-27T06:39:32.264Z</time></trkpt><trkpt lat="39.5558" lon="16.0200283"><ele>1066.0</ele><time>2026-04-27T06:39:33.27Z</time></trkpt><trkpt lat="39.55568" lon="16.0198617"><ele>1066.3333333333333</ele><time>2026-04-27T06:39:34.278Z</time></trkpt><trkpt lat="39.5555617" lon="16.0196967"><ele>1066.6666666666667</ele><time>2026-04-27T06:39:35.27Z</time></trkpt><trkpt lat="39.5554183" lon="16.0196417"><ele>1067.0</ele><time>2026-04-27T06:39:36.268Z</time></trkpt><trkpt lat="39.5552683" lon="16.0196383"><ele>1067.0</ele><time>2026-04-27T06:39:37.297Z</time></trkpt><trkpt lat="39.555125" lon="16.0196133"><ele>1067.0</ele><time>2026-04-27T06:39:38.265Z</time></trkpt><trkpt lat="39.554985" lon="16.0196167"><ele>1067.0</ele><time>2026-04-27T06:39:39.271Z</time></trkpt><trkpt lat="39.5548483" lon="16.0196733"><ele>1067.0</ele><time>2026-04-27T06:39:40.269Z</time></trkpt><trkpt lat="39.5546933" lon="16.0197867"><ele>1065.3333333333335</ele><time>2026-04-27T06:39:41.275Z</time></trkpt><trkpt lat="39.5545217" lon="16.0199333"><ele>1063.6666666666667</ele><time>2026-04-27T06:39:42.264Z</time></trkpt><trkpt lat="39.554365" lon="16.0201017"><ele>1062.0</ele><time>2026-04-27T06:39:43.299Z</time></trkpt><trkpt lat="39.5542067" lon="16.0202417"><ele>1066.0</ele><time>2026-04-27T06:39:44.268Z</time></trkpt><trkpt lat="39.5540333" lon="16.0203617"><ele>1070.0</ele><time>2026-04-27T06:39:45.271Z</time></trkpt><trkpt lat="39.5538367" lon="16.0204483"><ele>1074.0</ele><time>2026-04-27T06:39:46.268Z</time></trkpt><trkpt lat="39.5536317" lon="16.0205383"><ele>1074.3333333333333</ele><time>2026-04-27T06:39:47.27Z</time></trkpt><trkpt lat="39.5534183" lon="16.02062"><ele>1074.6666666666665</ele><time>2026-04-27T06:39:48.269Z</time></trkpt><trkpt lat="39.5532083" lon="16.020695"><ele>1075.0</ele><time>2026-04-27T06:39:49.299Z</time></trkpt><trkpt lat="39.55298" lon="16.0207567"><ele>1075.5</ele><time>2026-04-27T06:39:50.263Z</time></trkpt><trkpt lat="39.55276" lon="16.0207967"><ele>1076.0</ele><time>2026-04-27T06:39:51.271Z</time></trkpt><trkpt lat="39.5525317" lon="16.02082"><ele>1076.3333333333335</ele><time>2026-04-27T06:39:52.27Z</time></trkpt><trkpt lat="39.55232" lon="16.020825"><ele>1076.6666666666667</ele><time>2026-04-27T06:39:53.268Z</time></trkpt><trkpt lat="39.552155" lon="16.0208183"><ele>1077.0</ele><time>2026-04-27T06:39:54.266Z</time></trkpt><trkpt lat="39.5519983" lon="16.0208083"><ele>1079.25</ele><time>2026-04-27T06:39:55.331Z</time></trkpt><trkpt lat="39.5518933" lon="16.020825"><ele>1081.5</ele><time>2026-04-27T06:39:56.261Z</time></trkpt><trkpt lat="39.55178" lon="16.0208467"><ele>1083.75</ele><time>2026-04-27T06:39:57.263Z</time></trkpt><trkpt lat="39.5516633" lon="16.0209"><ele>1086.0</ele><time>2026-04-27T06:39:58.263Z</time></trkpt><trkpt lat="39.5515767" lon="16.02099"><ele>1086.0</ele><time>2026-04-27T06:39:59.27Z</time></trkpt><trkpt lat="39.5514883" lon="16.0211"><ele>1086.0</ele><time>2026-04-27T06:40:00.266Z</time></trkpt><trkpt lat="39.5513933" lon="16.0212233"><ele>1086.0</ele><time>2026-04-27T06:40:01.308Z</time></trkpt><trkpt lat="39.55131" lon="16.0213767"><ele>1086.0</ele><time>2026-04-27T06:40:02.262Z</time></trkpt><trkpt lat="39.5512267" lon="16.0215517"><ele>1087.0</ele><time>2026-04-27T06:40:03.27Z</time></trkpt><trkpt lat="39.5511517" lon="16.0217433"><ele>1088.0</ele><time>2026-04-27T06:40:04.271Z</time></trkpt><trkpt lat="39.55105" lon="16.021925"><ele>1089.0</ele><time>2026-04-27T06:40:05.271Z</time></trkpt><trkpt lat="39.5509717" lon="16.0221133"><ele>1089.0</ele><time>2026-04-27T06:40:06.268Z</time></trkpt><trkpt lat="39.5508917" lon="16.0222783"><ele>1089.0</ele><time>2026-04-27T06:40:07.297Z</time></trkpt><trkpt lat="39.5508267" lon="16.0224083"><ele>1089.0</ele><time>2026-04-27T06:40:08.265Z</time></trkpt><trkpt lat="39.5507733" lon="16.022525"><ele>1089.0</ele><time>2026-04-27T06:40:09.262Z</time></trkpt><trkpt lat="39.5507317" lon="16.02259"><ele>1089.0</ele><time>2026-04-27T06:40:10.265Z</time></trkpt><trkpt lat="39.55074" lon="16.0224233"><ele>1089.0</ele><time>2026-04-27T06:40:15.264Z</time></trkpt><trkpt lat="39.5508917" lon="16.02217"><ele>1089.0</ele><time>2026-04-27T06:40:16.263Z</time></trkpt><trkpt lat="39.55099" lon="16.0220117"><ele>1089.0</ele><time>2026-04-27T06:40:17.267Z</time></trkpt><trkpt lat="39.5510567" lon="16.0219"><ele>1089.0</ele><time>2026-04-27T06:40:18.264Z</time></trkpt><trkpt lat="39.5510817" lon="16.021755"><ele>1089.0</ele><time>2026-04-27T06:40:19.292Z</time></trkpt><trkpt lat="39.5511633" lon="16.0216667"><ele>1089.0</ele><time>2026-04-27T06:40:20.261Z</time></trkpt><trkpt lat="39.5512533" lon="16.0215717"><ele>1089.0</ele><time>2026-04-27T06:40:21.267Z</time></trkpt><trkpt lat="39.551355" lon="16.0214717"><ele>1088.25</ele><time>2026-04-27T06:40:22.265Z</time></trkpt><trkpt lat="39.55146" lon="16.0213517"><ele>1087.5</ele><time>2026-04-27T06:40:23.268Z</time></trkpt><trkpt lat="39.55153" lon="16.0212267"><ele>1086.75</ele><time>2026-04-27T06:40:24.26Z</time></trkpt><trkpt lat="39.551615" lon="16.021125"><ele>1086.0</ele><time>2026-04-27T06:40:25.289Z</time></trkpt><trkpt lat="39.5516833" lon="16.0210317"><ele>1086.0</ele><time>2026-04-27T06:40:26.266Z</time></trkpt><trkpt lat="39.5517233" lon="16.02094"><ele>1086.0</ele><time>2026-04-27T06:40:27.267Z</time></trkpt><trkpt lat="39.5518233" lon="16.0208383"><ele>1086.0</ele><time>2026-04-27T06:40:29.27Z</time></trkpt><trkpt lat="39.551875" lon="16.0207767"><ele>1086.0</ele><time>2026-04-27T06:40:30.268Z</time></trkpt><trkpt lat="39.55193" lon="16.0207267"><ele>1086.0</ele><time>2026-04-27T06:40:31.292Z</time></trkpt><trkpt lat="39.5520117" lon="16.0207467"><ele>1086.0</ele><time>2026-04-27T06:40:33.272Z</time></trkpt><trkpt lat="39.5519967" lon="16.0208267"><ele>1086.0</ele><time>2026-04-27T06:40:36.267Z</time></trkpt><trkpt lat="39.5518967" lon="16.0208683"><ele>1086.0</ele><time>2026-04-27T06:40:38.27Z</time></trkpt><trkpt lat="39.5517917" lon="16.0209333"><ele>1086.0</ele><time>2026-04-27T06:40:40.263Z</time></trkpt><trkpt lat="39.5517183" lon="16.021015"><ele>1086.0</ele><time>2026-04-27T06:40:42.264Z</time></trkpt><trkpt lat="39.55168" lon="16.0210967"><ele>1086.0</ele><time>2026-04-27T06:40:44.266Z</time></trkpt><trkpt lat="39.5516783" lon="16.021205"><ele>1086.0</ele><time>2026-04-27T06:40:47.275Z</time></trkpt><trkpt lat="39.5517367" lon="16.021165"><ele>1086.0</ele><time>2026-04-27T06:40:55.291Z</time></trkpt><trkpt lat="39.5518017" lon="16.021135"><ele>1086.0</ele><time>2026-04-27T06:40:58.266Z</time></trkpt><trkpt lat="39.5518667" lon="16.0211467"><ele>1086.0</ele><time>2026-04-27T06:40:59.269Z</time></trkpt><trkpt lat="39.5519417" lon="16.0211683"><ele>1086.0</ele><time>2026-04-27T06:41:00.268Z</time></trkpt><trkpt lat="39.5520283" lon="16.0211967"><ele>1086.0</ele><time>2026-04-27T06:41:01.313Z</time></trkpt><trkpt lat="39.5521167" lon="16.021225"><ele>1085.2</ele><time>2026-04-27T06:41:02.269Z</time></trkpt><trkpt lat="39.55223" lon="16.021285"><ele>1084.3999999999999</ele><time>2026-04-27T06:41:03.27Z</time></trkpt><trkpt lat="39.5523267" lon="16.0213417"><ele>1083.6</ele><time>2026-04-27T06:41:04.266Z</time></trkpt><trkpt lat="39.5524" lon="16.0214"><ele>1082.8</ele><time>2026-04-27T06:41:05.275Z</time></trkpt><trkpt lat="39.552465" lon="16.0214517"><ele>1082.0</ele><time>2026-04-27T06:41:06.266Z</time></trkpt><trkpt lat="39.5525133" lon="16.021505"><ele>1082.0</ele><time>2026-04-27T06:41:07.295Z</time></trkpt><trkpt lat="39.5524817" lon="16.02159"><ele>1082.0</ele><time>2026-04-27T06:41:10.266Z</time></trkpt><trkpt lat="39.5523867" lon="16.021635"><ele>1082.0</ele><time>2026-04-27T06:41:12.27Z</time></trkpt><trkpt lat="39.5523183" lon="16.0216083"><ele>1082.0</ele><time>2026-04-27T06:41:13.303Z</time></trkpt><trkpt lat="39.55222" lon="16.0216033"><ele>1082.0</ele><time>2026-04-27T06:41:14.266Z</time></trkpt><trkpt lat="39.552105" lon="16.0216"><ele>1082.6666666666667</ele><time>2026-04-27T06:41:15.269Z</time></trkpt><trkpt lat="39.552005" lon="16.021605"><ele>1083.3333333333335</ele><time>2026-04-27T06:41:16.273Z</time></trkpt><trkpt lat="39.5519183" lon="16.0216017"><ele>1084.0</ele><time>2026-04-27T06:41:17.273Z</time></trkpt><trkpt lat="39.551845" lon="16.0216167"><ele>1084.6666666666667</ele><time>2026-04-27T06:41:18.268Z</time></trkpt><trkpt lat="39.5517733" lon="16.021625"><ele>1085.3333333333333</ele><time>2026-04-27T06:41:19.305Z</time></trkpt><trkpt lat="39.55171" lon="16.0216283"><ele>1086.0</ele><time>2026-04-27T06:41:20.266Z</time></trkpt><trkpt lat="39.5516183" lon="16.0216467"><ele>1086.5</ele><time>2026-04-27T06:41:22.266Z</time></trkpt><trkpt lat="39.5515433" lon="16.021675"><ele>1087.0</ele><time>2026-04-27T06:41:24.263Z</time></trkpt><trkpt lat="39.551515" lon="16.0217483"><ele>1087.5</ele><time>2026-04-27T06:41:26.263Z</time></trkpt><trkpt lat="39.5514933" lon="16.0218617"><ele>1088.0</ele><time>2026-04-27T06:41:28.268Z</time></trkpt><trkpt lat="39.55147" lon="16.0219617"><ele>1088.5</ele><time>2026-04-27T06:41:30.266Z</time></trkpt><trkpt lat="39.5514433" lon="16.0220567"><ele>1089.0</ele><time>2026-04-27T06:41:32.268Z</time></trkpt><trkpt lat="39.5514283" lon="16.0221533"><ele>1089.0</ele><time>2026-04-27T06:41:34.268Z</time></trkpt><trkpt lat="39.55138" lon="16.022275"><ele>1089.0</ele><time>2026-04-27T06:41:36.268Z</time></trkpt><trkpt lat="39.5513467" lon="16.0223483"><ele>1089.0</ele><time>2026-04-27T06:41:37.293Z</time></trkpt><trkpt lat="39.5513083" lon="16.0224283"><ele>1089.0</ele><time>2026-04-27T06:41:38.262Z</time></trkpt><trkpt lat="39.5512667" lon="16.0225017"><ele>1089.0</ele><time>2026-04-27T06:41:39.262Z</time></trkpt><trkpt lat="39.551245" lon="16.022585"><ele>1089.0</ele><time>2026-04-27T06:41:40.267Z</time></trkpt><trkpt lat="39.5512133" lon="16.022695"><ele>1089.0</ele><time>2026-04-27T06:41:41.272Z</time></trkpt><trkpt lat="39.5511717" lon="16.0228183"><ele>1089.0</ele><time>2026-04-27T06:41:42.266Z</time></trkpt><trkpt lat="39.5511233" lon="16.0229483"><ele>1089.0</ele><time>2026-04-27T06:41:43.303Z</time></trkpt><trkpt lat="39.5510717" lon="16.0230733"><ele>1089.0</ele><time>2026-04-27T06:41:44.269Z</time></trkpt><trkpt lat="39.550985" lon="16.02316"><ele>1089.0</ele><time>2026-04-27T06:41:45.27Z</time></trkpt><trkpt lat="39.5509267" lon="16.0232683"><ele>1089.6000000000001</ele><time>2026-04-27T06:41:46.264Z</time></trkpt><trkpt lat="39.550865" lon="16.02337"><ele>1090.2</ele><time>2026-04-27T06:41:47.27Z</time></trkpt><trkpt lat="39.5508267" lon="16.023445"><ele>1090.8000000000002</ele><time>2026-04-27T06:41:48.267Z</time></trkpt><trkpt lat="39.550775" lon="16.0235183"><ele>1091.4</ele><time>2026-04-27T06:41:49.297Z</time></trkpt><trkpt lat="39.5507317" lon="16.0235883"><ele>1092.0</ele><time>2026-04-27T06:41:50.262Z</time></trkpt><trkpt lat="39.550635" lon="16.0237233"><ele>1092.0</ele><time>2026-04-27T06:41:52.269Z</time></trkpt><trkpt lat="39.5505833" lon="16.02386"><ele>1092.0</ele><time>2026-04-27T06:41:54.258Z</time></trkpt><trkpt lat="39.5505633" lon="16.0239383"><ele>1092.0</ele><time>2026-04-27T06:41:55.349Z</time></trkpt><trkpt lat="39.5505517" lon="16.02404"><ele>1092.0</ele><time>2026-04-27T06:41:56.266Z</time></trkpt><trkpt lat="39.5505467" lon="16.0241383"><ele>1092.0</ele><time>2026-04-27T06:41:57.267Z</time></trkpt><trkpt lat="39.5505217" lon="16.024275"><ele>1092.0</ele><time>2026-04-27T06:41:59.279Z</time></trkpt><trkpt lat="39.550535" lon="16.0243817"><ele>1092.8333333333333</ele><time>2026-04-27T06:42:01.308Z</time></trkpt><trkpt lat="39.550595" lon="16.024465"><ele>1093.6666666666667</ele><time>2026-04-27T06:42:03.269Z</time></trkpt><trkpt lat="39.5506467" lon="16.0245367"><ele>1094.5</ele><time>2026-04-27T06:42:05.269Z</time></trkpt><trkpt lat="39.5506633" lon="16.0246167"><ele>1095.3333333333335</ele><time>2026-04-27T06:42:07.289Z</time></trkpt><trkpt lat="39.5506833" lon="16.0247017"><ele>1096.1666666666667</ele><time>2026-04-27T06:42:09.268Z</time></trkpt><trkpt lat="39.550645" lon="16.02479"><ele>1097.0</ele><time>2026-04-27T06:42:11.269Z</time></trkpt><trkpt lat="39.5505733" lon="16.0248567"><ele>1097.0</ele><time>2026-04-27T06:42:12.27Z</time></trkpt><trkpt lat="39.5504917" lon="16.024935"><ele>1097.0</ele><time>2026-04-27T06:42:13.298Z</time></trkpt><trkpt lat="39.5504067" lon="16.0249783"><ele>1097.0</ele><time>2026-04-27T06:42:14.267Z</time></trkpt><trkpt lat="39.550345" lon="16.025055"><ele>1097.0</ele><time>2026-04-27T06:42:15.271Z</time></trkpt><trkpt lat="39.5503133" lon="16.0251417"><ele>1097.0</ele><time>2026-04-27T06:42:16.268Z</time></trkpt><trkpt lat="39.5503067" lon="16.0252367"><ele>1097.0</ele><time>2026-04-27T06:42:17.271Z</time></trkpt><trkpt lat="39.5503667" lon="16.0253667"><ele>1098.6</ele><time>2026-04-27T06:42:19.301Z</time></trkpt><trkpt lat="39.5504183" lon="16.0254433"><ele>1100.2</ele><time>2026-04-27T06:42:20.262Z</time></trkpt><trkpt lat="39.5504483" lon="16.0255567"><ele>1101.8</ele><time>2026-04-27T06:42:22.265Z</time></trkpt><trkpt lat="39.55046" lon="16.0256967"><ele>1103.4</ele><time>2026-04-27T06:42:24.267Z</time></trkpt><trkpt lat="39.5504233" lon="16.0257683"><ele>1105.0</ele><time>2026-04-27T06:42:25.338Z</time></trkpt><trkpt lat="39.5503767" lon="16.0258967"><ele>1106.5</ele><time>2026-04-27T06:42:27.267Z</time></trkpt><trkpt lat="39.55038" lon="16.0259883"><ele>1108.0</ele><time>2026-04-27T06:42:28.27Z</time></trkpt><trkpt lat="39.5503733" lon="16.0260983"><ele>1109.5</ele><time>2026-04-27T06:42:30.267Z</time></trkpt><trkpt lat="39.5503867" lon="16.02618"><ele>1111.0</ele><time>2026-04-27T06:42:32.268Z</time></trkpt><trkpt lat="39.5504267" lon="16.0262683"><ele>1112.5</ele><time>2026-04-27T06:42:38.259Z</time></trkpt><trkpt lat="39.5503433" lon="16.0263567"><ele>1114.0</ele><time>2026-04-27T06:42:41.264Z</time></trkpt><trkpt lat="39.5502217" lon="16.0264117"><ele>1114.3333333333333</ele><time>2026-04-27T06:42:43.293Z</time></trkpt><trkpt lat="39.55015" lon="16.026415"><ele>1114.6666666666665</ele><time>2026-04-27T06:42:44.26Z</time></trkpt><trkpt lat="39.55007" lon="16.02641"><ele>1115.0</ele><time>2026-04-27T06:42:45.265Z</time></trkpt><trkpt lat="39.549985" lon="16.0264283"><ele>1115.3333333333333</ele><time>2026-04-27T06:42:46.271Z</time></trkpt><trkpt lat="39.549905" lon="16.02644"><ele>1115.6666666666667</ele><time>2026-04-27T06:42:47.262Z</time></trkpt><trkpt lat="39.5498267" lon="16.0264367"><ele>1116.0</ele><time>2026-04-27T06:42:48.266Z</time></trkpt><trkpt lat="39.54976" lon="16.0264433"><ele>1116.0</ele><time>2026-04-27T06:42:49.294Z</time></trkpt><trkpt lat="39.5496317" lon="16.0264767"><ele>1116.0</ele><time>2026-04-27T06:42:51.267Z</time></trkpt><trkpt lat="39.549565" lon="16.0265117"><ele>1116.0</ele><time>2026-04-27T06:42:52.263Z</time></trkpt><trkpt lat="39.5495" lon="16.026565"><ele>1116.0</ele><time>2026-04-27T06:42:53.268Z</time></trkpt><trkpt lat="39.5494033" lon="16.02664"><ele>1116.0</ele><time>2026-04-27T06:42:55.329Z</time></trkpt><trkpt lat="39.549325" lon="16.0267017"><ele>1114.6666666666667</ele><time>2026-04-27T06:42:57.267Z</time></trkpt><trkpt lat="39.5492483" lon="16.0267617"><ele>1113.3333333333333</ele><time>2026-04-27T06:42:59.267Z</time></trkpt><trkpt lat="39.549165" lon="16.0268517"><ele>1112.0</ele><time>2026-04-27T06:43:01.306Z</time></trkpt><trkpt lat="39.54911" lon="16.0268967"><ele>1110.6666666666665</ele><time>2026-04-27T06:43:02.267Z</time></trkpt><trkpt lat="39.5490483" lon="16.0269567"><ele>1109.3333333333333</ele><time>2026-04-27T06:43:03.268Z</time></trkpt><trkpt lat="39.5489767" lon="16.0270217"><ele>1108.0</ele><time>2026-04-27T06:43:04.266Z</time></trkpt><trkpt lat="39.54889" lon="16.0270917"><ele>1108.0</ele><time>2026-04-27T06:43:05.265Z</time></trkpt><trkpt lat="39.5488117" lon="16.027145"><ele>1108.0</ele><time>2026-04-27T06:43:06.264Z</time></trkpt><trkpt lat="39.5487333" lon="16.0272167"><ele>1108.0</ele><time>2026-04-27T06:43:07.298Z</time></trkpt><trkpt lat="39.5486517" lon="16.0272967"><ele>1108.0</ele><time>2026-04-27T06:43:08.266Z</time></trkpt><trkpt lat="39.5485783" lon="16.0273817"><ele>1108.0</ele><time>2026-04-27T06:43:09.261Z</time></trkpt><trkpt lat="39.5485083" lon="16.02746"><ele>1104.3333333333333</ele><time>2026-04-27T06:43:10.268Z</time></trkpt><trkpt lat="39.5484483" lon="16.02753"><ele>1100.6666666666665</ele><time>2026-04-27T06:43:11.266Z</time></trkpt><trkpt lat="39.5484117" lon="16.0275967"><ele>1097.0</ele><time>2026-04-27T06:43:12.265Z</time></trkpt><trkpt lat="39.548365" lon="16.0276767"><ele>1093.3333333333333</ele><time>2026-04-27T06:43:13.296Z</time></trkpt><trkpt lat="39.5483267" lon="16.027745"><ele>1089.6666666666667</ele><time>2026-04-27T06:43:14.266Z</time></trkpt><trkpt lat="39.5482833" lon="16.0278917"><ele>1086.0</ele><time>2026-04-27T06:43:16.266Z</time></trkpt><trkpt lat="39.548255" lon="16.02798"><ele>1086.0</ele><time>2026-04-27T06:43:18.261Z</time></trkpt><trkpt lat="39.5481983" lon="16.0280317"><ele>1086.0</ele><time>2026-04-27T06:43:21.27Z</time></trkpt><trkpt lat="39.5481517" lon="16.0281067"><ele>1086.0</ele><time>2026-04-27T06:43:24.266Z</time></trkpt><trkpt lat="39.5481283" lon="16.0282133"><ele>1086.0</ele><time>2026-04-27T06:43:26.266Z</time></trkpt><trkpt lat="39.5480867" lon="16.0283233"><ele>1086.0</ele><time>2026-04-27T06:43:28.269Z</time></trkpt><trkpt lat="39.54805" lon="16.0284417"><ele>1086.0</ele><time>2026-04-27T06:43:30.262Z</time></trkpt><trkpt lat="39.5479833" lon="16.02857"><ele>1084.1666666666667</ele><time>2026-04-27T06:43:32.266Z</time></trkpt><trkpt lat="39.5479317" lon="16.0286583"><ele>1082.3333333333333</ele><time>2026-04-27T06:43:33.261Z</time></trkpt><trkpt lat="39.5478933" lon="16.0287267"><ele>1080.5</ele><time>2026-04-27T06:43:34.266Z</time></trkpt><trkpt lat="39.54785" lon="16.0288133"><ele>1078.6666666666665</ele><time>2026-04-27T06:43:35.268Z</time></trkpt><trkpt lat="39.5478067" lon="16.0289033"><ele>1076.8333333333333</ele><time>2026-04-27T06:43:36.265Z</time></trkpt><trkpt lat="39.5477533" lon="16.0290167"><ele>1075.0</ele><time>2026-04-27T06:43:37.297Z</time></trkpt><trkpt lat="39.5477033" lon="16.0291317"><ele>1072.1666666666665</ele><time>2026-04-27T06:43:38.265Z</time></trkpt><trkpt lat="39.5476667" lon="16.0292167"><ele>1069.3333333333333</ele><time>2026-04-27T06:43:39.264Z</time></trkpt><trkpt lat="39.5476333" lon="16.0293133"><ele>1066.5</ele><time>2026-04-27T06:43:40.265Z</time></trkpt><trkpt lat="39.5475933" lon="16.02941"><ele>1063.6666666666667</ele><time>2026-04-27T06:43:41.277Z</time></trkpt><trkpt lat="39.5475483" lon="16.0294933"><ele>1060.8333333333335</ele><time>2026-04-27T06:43:42.263Z</time></trkpt><trkpt lat="39.5474933" lon="16.0295817"><ele>1058.0</ele><time>2026-04-27T06:43:43.293Z</time></trkpt><trkpt lat="39.5474317" lon="16.0296883"><ele>1058.0</ele><time>2026-04-27T06:43:44.269Z</time></trkpt><trkpt lat="39.5473783" lon="16.029795"><ele>1058.0</ele><time>2026-04-27T06:43:45.266Z</time></trkpt><trkpt lat="39.5473333" lon="16.0298883"><ele>1058.0</ele><time>2026-04-27T06:43:46.266Z</time></trkpt><trkpt lat="39.5472783" lon="16.0300083"><ele>1058.0</ele><time>2026-04-27T06:43:47.266Z</time></trkpt><trkpt lat="39.547225" lon="16.0301017"><ele>1058.0</ele><time>2026-04-27T06:43:48.265Z</time></trkpt><trkpt lat="39.5471717" lon="16.0301867"><ele>1057.6666666666667</ele><time>2026-04-27T06:43:49.305Z</time></trkpt><trkpt lat="39.5471183" lon="16.030255"><ele>1057.3333333333335</ele><time>2026-04-27T06:43:50.265Z</time></trkpt><trkpt lat="39.5470633" lon="16.03034"><ele>1057.0</ele><time>2026-04-27T06:43:51.269Z</time></trkpt><trkpt lat="39.5470167" lon="16.0304167"><ele>1056.6666666666667</ele><time>2026-04-27T06:43:52.269Z</time></trkpt><trkpt lat="39.5469817" lon="16.03051"><ele>1056.3333333333333</ele><time>2026-04-27T06:43:53.269Z</time></trkpt><trkpt lat="39.54694" lon="16.0305833"><ele>1056.0</ele><time>2026-04-27T06:43:54.267Z</time></trkpt><trkpt lat="39.5468983" lon="16.0306533"><ele>1055.8</ele><time>2026-04-27T06:43:55.332Z</time></trkpt><trkpt lat="39.546855" lon="16.03072"><ele>1055.6</ele><time>2026-04-27T06:43:56.261Z</time></trkpt><trkpt lat="39.5467867" lon="16.0307967"><ele>1055.4</ele><time>2026-04-27T06:43:58.264Z</time></trkpt><trkpt lat="39.5467067" lon="16.0309083"><ele>1055.2</ele><time>2026-04-27T06:44:00.268Z</time></trkpt><trkpt lat="39.5466217" lon="16.0309883"><ele>1055.0</ele><time>2026-04-27T06:44:01.305Z</time></trkpt><trkpt lat="39.5465517" lon="16.0310733"><ele>1055.3333333333335</ele><time>2026-04-27T06:44:02.265Z</time></trkpt><trkpt lat="39.546485" lon="16.0311617"><ele>1055.6666666666667</ele><time>2026-04-27T06:44:03.267Z</time></trkpt><trkpt lat="39.5464167" lon="16.031255"><ele>1056.0</ele><time>2026-04-27T06:44:04.261Z</time></trkpt><trkpt lat="39.5463533" lon="16.0313217"><ele>1056.3333333333333</ele><time>2026-04-27T06:44:05.266Z</time></trkpt><trkpt lat="39.5462733" lon="16.0313617"><ele>1056.6666666666665</ele><time>2026-04-27T06:44:06.27Z</time></trkpt><trkpt lat="39.5461933" lon="16.031405"><ele>1057.0</ele><time>2026-04-27T06:44:07.299Z</time></trkpt><trkpt lat="39.5461333" lon="16.0314467"><ele>1054.4285714285713</ele><time>2026-04-27T06:44:08.267Z</time></trkpt><trkpt lat="39.546065" lon="16.0315"><ele>1051.857142857143</ele><time>2026-04-27T06:44:09.273Z</time></trkpt><trkpt lat="39.5459983" lon="16.0315533"><ele>1049.2857142857142</ele><time>2026-04-27T06:44:10.263Z</time></trkpt><trkpt lat="39.5459283" lon="16.0316"><ele>1046.7142857142858</ele><time>2026-04-27T06:44:11.262Z</time></trkpt><trkpt lat="39.5458617" lon="16.031635"><ele>1044.142857142857</ele><time>2026-04-27T06:44:12.262Z</time></trkpt><trkpt lat="39.545795" lon="16.0316617"><ele>1041.5714285714284</ele><time>2026-04-27T06:44:13.301Z</time></trkpt><trkpt lat="39.5457333" lon="16.031685"><ele>1039.0</ele><time>2026-04-27T06:44:14.262Z</time></trkpt><trkpt lat="39.5456733" lon="16.0317183"><ele>1038.6666666666665</ele><time>2026-04-27T06:44:15.264Z</time></trkpt><trkpt lat="39.5456217" lon="16.0317717"><ele>1038.3333333333333</ele><time>2026-04-27T06:44:16.26Z</time></trkpt><trkpt lat="39.545565" lon="16.0318333"><ele>1038.0</ele><time>2026-04-27T06:44:17.261Z</time></trkpt><trkpt lat="39.5455017" lon="16.031915"><ele>1037.6666666666667</ele><time>2026-04-27T06:44:18.263Z</time></trkpt><trkpt lat="39.5454383" lon="16.0320067"><ele>1037.3333333333335</ele><time>2026-04-27T06:44:19.299Z</time></trkpt><trkpt lat="39.5453633" lon="16.03209"><ele>1037.0</ele><time>2026-04-27T06:44:20.265Z</time></trkpt><trkpt lat="39.545275" lon="16.0321567"><ele>1036.6666666666667</ele><time>2026-04-27T06:44:21.268Z</time></trkpt><trkpt lat="39.5451833" lon="16.03222"><ele>1036.3333333333335</ele><time>2026-04-27T06:44:22.263Z</time></trkpt><trkpt lat="39.5450967" lon="16.03228"><ele>1036.0</ele><time>2026-04-27T06:44:23.268Z</time></trkpt><trkpt lat="39.545035" lon="16.0323317"><ele>1035.6666666666667</ele><time>2026-04-27T06:44:24.264Z</time></trkpt><trkpt lat="39.54497" lon="16.03238"><ele>1035.3333333333333</ele><time>2026-04-27T06:44:25.334Z</time></trkpt><trkpt lat="39.5449117" lon="16.032455"><ele>1035.0</ele><time>2026-04-27T06:44:26.264Z</time></trkpt><trkpt lat="39.5448367" lon="16.03252"><ele>1035.0</ele><time>2026-04-27T06:44:27.265Z</time></trkpt><trkpt lat="39.544755" lon="16.0326"><ele>1035.0</ele><time>2026-04-27T06:44:28.265Z</time></trkpt><trkpt lat="39.544675" lon="16.032675"><ele>1035.0</ele><time>2026-04-27T06:44:29.264Z</time></trkpt><trkpt lat="39.54457" lon="16.0327567"><ele>1035.0</ele><time>2026-04-27T06:44:30.269Z</time></trkpt><trkpt lat="39.544465" lon="16.0328283"><ele>1035.0</ele><time>2026-04-27T06:44:31.291Z</time></trkpt><trkpt lat="39.5443667" lon="16.0328967"><ele>1033.25</ele><time>2026-04-27T06:44:32.261Z</time></trkpt><trkpt lat="39.5442717" lon="16.0329683"><ele>1031.5</ele><time>2026-04-27T06:44:33.271Z</time></trkpt><trkpt lat="39.54418" lon="16.0330517"><ele>1029.75</ele><time>2026-04-27T06:44:34.265Z</time></trkpt><trkpt lat="39.5440833" lon="16.0331433"><ele>1028.0</ele><time>2026-04-27T06:44:35.266Z</time></trkpt><trkpt lat="39.5439883" lon="16.0332567"><ele>1028.6</ele><time>2026-04-27T06:44:36.275Z</time></trkpt><trkpt lat="39.54389" lon="16.0333567"><ele>1029.1999999999998</ele><time>2026-04-27T06:44:37.295Z</time></trkpt><trkpt lat="39.5438033" lon="16.033445"><ele>1029.8</ele><time>2026-04-27T06:44:38.264Z</time></trkpt><trkpt lat="39.5437233" lon="16.03352"><ele>1030.3999999999999</ele><time>2026-04-27T06:44:39.271Z</time></trkpt><trkpt lat="39.54365" lon="16.033585"><ele>1031.0</ele><time>2026-04-27T06:44:40.265Z</time></trkpt><trkpt lat="39.543565" lon="16.03365"><ele>1028.8333333333335</ele><time>2026-04-27T06:44:41.273Z</time></trkpt><trkpt lat="39.54349" lon="16.0336983"><ele>1026.6666666666667</ele><time>2026-04-27T06:44:42.267Z</time></trkpt><trkpt lat="39.5434083" lon="16.033745"><ele>1024.5</ele><time>2026-04-27T06:44:43.296Z</time></trkpt><trkpt lat="39.5433317" lon="16.0337933"><ele>1022.3333333333333</ele><time>2026-04-27T06:44:44.265Z</time></trkpt><trkpt lat="39.5432617" lon="16.0338267"><ele>1020.1666666666666</ele><time>2026-04-27T06:44:45.268Z</time></trkpt><trkpt lat="39.5431983" lon="16.0337833"><ele>1018.0</ele><time>2026-04-27T06:44:46.265Z</time></trkpt><trkpt lat="39.5431283" lon="16.0337967"><ele>1017.9999999999999</ele><time>2026-04-27T06:44:47.263Z</time></trkpt><trkpt lat="39.543065" lon="16.0337983"><ele>1018.0</ele><time>2026-04-27T06:44:48.261Z</time></trkpt><trkpt lat="39.5429983" lon="16.0337917"><ele>1017.9999999999999</ele><time>2026-04-27T06:44:49.296Z</time></trkpt><trkpt lat="39.5429417" lon="16.033745"><ele>1017.9999999999999</ele><time>2026-04-27T06:44:51.265Z</time></trkpt><trkpt lat="39.54291" lon="16.0336667"><ele>1018.0</ele><time>2026-04-27T06:44:58.262Z</time></trkpt><trkpt lat="39.54289" lon="16.03356"><ele>1017.9999999999999</ele><time>2026-04-27T06:45:01.309Z</time></trkpt><trkpt lat="39.542835" lon="16.03348"><ele>1017.9999999999999</ele><time>2026-04-27T06:45:03.267Z</time></trkpt><trkpt lat="39.5427517" lon="16.0334417"><ele>1016.142857142857</ele><time>2026-04-27T06:45:06.261Z</time></trkpt><trkpt lat="39.54271" lon="16.0335167"><ele>1014.2857142857142</ele><time>2026-04-27T06:45:11.266Z</time></trkpt><trkpt lat="39.542695" lon="16.0336083"><ele>1012.4285714285714</ele><time>2026-04-27T06:45:14.264Z</time></trkpt><trkpt lat="39.5426517" lon="16.0336983"><ele>1010.5714285714286</ele><time>2026-04-27T06:45:17.27Z</time></trkpt><trkpt lat="39.5426433" lon="16.0337883"><ele>1008.7142857142858</ele><time>2026-04-27T06:45:21.27Z</time></trkpt><trkpt lat="39.5426633" lon="16.0337067"><ele>1006.857142857143</ele><time>2026-04-27T06:45:56.266Z</time></trkpt><trkpt lat="39.54264" lon="16.0336217"><ele>1005.0000000000001</ele><time>2026-04-27T06:46:00.268Z</time></trkpt><trkpt lat="39.5426783" lon="16.0335467"><ele>1005.0</ele><time>2026-04-27T06:46:06.265Z</time></trkpt><trkpt lat="39.5427467" lon="16.03359"><ele>1005.0</ele><time>2026-04-27T06:46:09.273Z</time></trkpt><trkpt lat="39.5428167" lon="16.033635"><ele>1005.0</ele><time>2026-04-27T06:46:12.27Z</time></trkpt><trkpt lat="39.5429017" lon="16.0336683"><ele>1005.0</ele><time>2026-04-27T06:46:15.266Z</time></trkpt><trkpt lat="39.54301" lon="16.03367"><ele>1005.0</ele><time>2026-04-27T06:46:18.268Z</time></trkpt><trkpt lat="39.5431167" lon="16.033675"><ele>1007.6</ele><time>2026-04-27T06:46:20.267Z</time></trkpt><trkpt lat="39.5432283" lon="16.033705"><ele>1010.2</ele><time>2026-04-27T06:46:22.262Z</time></trkpt><trkpt lat="39.5433233" lon="16.03374"><ele>1012.8</ele><time>2026-04-27T06:46:24.265Z</time></trkpt><trkpt lat="39.54342" lon="16.0337717"><ele>1015.4</ele><time>2026-04-27T06:46:26.262Z</time></trkpt><trkpt lat="39.543495" lon="16.0337483"><ele>1018.0</ele><time>2026-04-27T06:46:29.265Z</time></trkpt><trkpt lat="39.5434917" lon="16.0338517"><ele>1017.9999999999999</ele><time>2026-04-27T06:46:38.259Z</time></trkpt><trkpt lat="39.543435" lon="16.033895"><ele>1018.0</ele><time>2026-04-27T06:46:52.261Z</time></trkpt><trkpt lat="39.54341" lon="16.03399"><ele>1017.9999999999999</ele><time>2026-04-27T06:46:57.267Z</time></trkpt><trkpt lat="39.5433883" lon="16.0340917"><ele>1017.9999999999999</ele><time>2026-04-27T06:47:02.263Z</time></trkpt><trkpt lat="39.543385" lon="16.0341967"><ele>1018.0</ele><time>2026-04-27T06:47:06.26Z</time></trkpt><trkpt lat="39.543365" lon="16.034275"><ele>1017.9999999999999</ele><time>2026-04-27T06:47:08.266Z</time></trkpt><trkpt lat="39.5433333" lon="16.0343567"><ele>1017.9999999999999</ele><time>2026-04-27T06:47:10.267Z</time></trkpt><trkpt lat="39.5432683" lon="16.0344683"><ele>1017.8333333333333</ele><time>2026-04-27T06:47:12.265Z</time></trkpt><trkpt lat="39.5432183" lon="16.0345517"><ele>1017.6666666666666</ele><time>2026-04-27T06:47:13.29Z</time></trkpt><trkpt lat="39.5431717" lon="16.0346333"><ele>1017.5</ele><time>2026-04-27T06:47:14.266Z</time></trkpt><trkpt lat="39.5431317" lon="16.0347117"><ele>1017.3333333333333</ele><time>2026-04-27T06:47:15.271Z</time></trkpt><trkpt lat="39.5430933" lon="16.034785"><ele>1017.1666666666666</ele><time>2026-04-27T06:47:16.265Z</time></trkpt><trkpt lat="39.5430533" lon="16.0348483"><ele>1017.0</ele><time>2026-04-27T06:47:17.266Z</time></trkpt><trkpt lat="39.54299" lon="16.0349717"><ele>1014.0</ele><time>2026-04-27T06:47:19.296Z</time></trkpt><trkpt lat="39.5429517" lon="16.0350367"><ele>1011.0</ele><time>2026-04-27T06:47:20.261Z</time></trkpt><trkpt lat="39.5429067" lon="16.035135"><ele>1008.0</ele><time>2026-04-27T06:47:22.267Z</time></trkpt><trkpt lat="39.5428567" lon="16.0352333"><ele>1005.0</ele><time>2026-04-27T06:47:24.258Z</time></trkpt><trkpt lat="39.542805" lon="16.0353383"><ele>1002.0</ele><time>2026-04-27T06:47:26.257Z</time></trkpt><trkpt lat="39.5427667" lon="16.0354333"><ele>999.0</ele><time>2026-04-27T06:47:28.264Z</time></trkpt><trkpt lat="39.5427417" lon="16.035525"><ele>997.8000000000001</ele><time>2026-04-27T06:47:30.257Z</time></trkpt><trkpt lat="39.5426967" lon="16.03564"><ele>996.6000000000001</ele><time>2026-04-27T06:47:32.261Z</time></trkpt><trkpt lat="39.5426483" lon="16.0357633"><ele>995.4</ele><time>2026-04-27T06:47:34.267Z</time></trkpt><trkpt lat="39.5426217" lon="16.0358417"><ele>994.2</ele><time>2026-04-27T06:47:35.27Z</time></trkpt><trkpt lat="39.5425583" lon="16.0359567"><ele>993.0</ele><time>2026-04-27T06:47:37.301Z</time></trkpt><trkpt lat="39.542505" lon="16.0360483"><ele>990.8333333333334</ele><time>2026-04-27T06:47:39.27Z</time></trkpt><trkpt lat="39.542495" lon="16.036145"><ele>988.6666666666667</ele><time>2026-04-27T06:47:41.27Z</time></trkpt><trkpt lat="39.5424617" lon="16.0362833"><ele>986.5</ele><time>2026-04-27T06:47:43.3Z</time></trkpt><trkpt lat="39.5424317" lon="16.03637"><ele>984.3333333333334</ele><time>2026-04-27T06:47:44.261Z</time></trkpt><trkpt lat="39.5424017" lon="16.0364517"><ele>982.1666666666667</ele><time>2026-04-27T06:47:45.271Z</time></trkpt><trkpt lat="39.5423683" lon="16.0365567"><ele>980.0</ele><time>2026-04-27T06:47:46.265Z</time></trkpt><trkpt lat="39.542335" lon="16.036655"><ele>978.0</ele><time>2026-04-27T06:47:47.269Z</time></trkpt><trkpt lat="39.5423117" lon="16.0367433"><ele>976.0</ele><time>2026-04-27T06:47:48.267Z</time></trkpt><trkpt lat="39.542295" lon="16.0368467"><ele>974.0</ele><time>2026-04-27T06:47:49.297Z</time></trkpt><trkpt lat="39.5422833" lon="16.036935"><ele>972.0</ele><time>2026-04-27T06:47:50.267Z</time></trkpt><trkpt lat="39.54227" lon="16.037025"><ele>970.0</ele><time>2026-04-27T06:47:51.266Z</time></trkpt><trkpt lat="39.5422733" lon="16.0371267"><ele>968.0</ele><time>2026-04-27T06:47:52.264Z</time></trkpt><trkpt lat="39.54227" lon="16.0372233"><ele>966.0</ele><time>2026-04-27T06:47:53.271Z</time></trkpt><trkpt lat="39.54229" lon="16.037305"><ele>966.0</ele><time>2026-04-27T06:47:54.266Z</time></trkpt><trkpt lat="39.54232" lon="16.037445"><ele>966.0</ele><time>2026-04-27T06:47:56.262Z</time></trkpt><trkpt lat="39.54235" lon="16.037595"><ele>966.0</ele><time>2026-04-27T06:47:58.264Z</time></trkpt><trkpt lat="39.5423617" lon="16.0377467"><ele>966.0</ele><time>2026-04-27T06:48:00.262Z</time></trkpt><trkpt lat="39.5423383" lon="16.037875"><ele>962.4</ele><time>2026-04-27T06:48:02.261Z</time></trkpt><trkpt lat="39.5422867" lon="16.0380033"><ele>958.8</ele><time>2026-04-27T06:48:04.267Z</time></trkpt><trkpt lat="39.5422583" lon="16.0381433"><ele>955.1999999999999</ele><time>2026-04-27T06:48:06.26Z</time></trkpt><trkpt lat="39.5422367" lon="16.0382933"><ele>951.5999999999999</ele><time>2026-04-27T06:48:08.261Z</time></trkpt><trkpt lat="39.5422217" lon="16.0383867"><ele>948.0</ele><time>2026-04-27T06:48:09.265Z</time></trkpt><trkpt lat="39.5422083" lon="16.0384767"><ele>945.6666666666666</ele><time>2026-04-27T06:48:10.265Z</time></trkpt><trkpt lat="39.5421933" lon="16.03858"><ele>943.3333333333333</ele><time>2026-04-27T06:48:11.264Z</time></trkpt><trkpt lat="39.542185" lon="16.0386617"><ele>941.0</ele><time>2026-04-27T06:48:12.258Z</time></trkpt><trkpt lat="39.54219" lon="16.0388067"><ele>938.6666666666666</ele><time>2026-04-27T06:48:14.263Z</time></trkpt><trkpt lat="39.5422183" lon="16.03888"><ele>936.3333333333333</ele><time>2026-04-27T06:48:16.265Z</time></trkpt><trkpt lat="39.5422683" lon="16.038975"><ele>934.0</ele><time>2026-04-27T06:48:18.263Z</time></trkpt><trkpt lat="39.5422983" lon="16.0390733"><ele>934.0</ele><time>2026-04-27T06:48:20.265Z</time></trkpt><trkpt lat="39.5423117" lon="16.0392567"><ele>934.0000000000001</ele><time>2026-04-27T06:48:25.327Z</time></trkpt><trkpt lat="39.5422733" lon="16.0393617"><ele>934.0000000000001</ele><time>2026-04-27T06:48:31.282Z</time></trkpt><trkpt lat="39.5424133" lon="16.039355"><ele>934.0</ele><time>2026-04-27T06:48:53.265Z</time></trkpt><trkpt lat="39.54247" lon="16.0393133"><ele>934.0</ele><time>2026-04-27T06:48:55.338Z</time></trkpt><trkpt lat="39.542515" lon="16.0392433"><ele>934.0</ele><time>2026-04-27T06:48:59.26Z</time></trkpt><trkpt lat="39.54245" lon="16.0391717"><ele>934.0000000000001</ele><time>2026-04-27T06:49:05.263Z</time></trkpt><trkpt lat="39.54238" lon="16.0392533"><ele>934.0000000000001</ele><time>2026-04-27T06:49:23.261Z</time></trkpt><trkpt lat="39.5424017" lon="16.03939"><ele>934.0</ele><time>2026-04-27T06:49:57.267Z</time></trkpt><trkpt lat="39.5424667" lon="16.03949"><ele>934.0</ele><time>2026-04-27T06:50:32.262Z</time></trkpt><trkpt lat="39.5424217" lon="16.039395"><ele>934.0</ele><time>2026-04-27T06:52:04.261Z</time></trkpt><trkpt lat="39.5424233" lon="16.0392717"><ele>934.0000000000001</ele><time>2026-04-27T06:52:27.263Z</time></trkpt><trkpt lat="39.5423533" lon="16.03926"><ele>934.0000000000001</ele><time>2026-04-27T06:52:33.262Z</time></trkpt><trkpt lat="39.54232" lon="16.0393317"><ele>934.0</ele><time>2026-04-27T06:52:37.287Z</time></trkpt><trkpt lat="39.5422533" lon="16.0394417"><ele>934.0</ele><time>2026-04-27T06:54:38.261Z</time></trkpt><trkpt lat="39.542255" lon="16.0392617"><ele>933.9999999999999</ele><time>2026-04-27T06:55:11.267Z</time></trkpt><trkpt lat="39.5423367" lon="16.0392367"><ele>934.0</ele><time>2026-04-27T06:55:17.267Z</time></trkpt><trkpt lat="39.5424" lon="16.039175"><ele>934.0</ele><time>2026-04-27T06:55:21.265Z</time></trkpt><trkpt lat="39.5424933" lon="16.03915"><ele>934.0</ele><time>2026-04-27T06:55:23.262Z</time></trkpt><trkpt lat="39.542585" lon="16.0391867"><ele>933.9999999999999</ele><time>2026-04-27T06:55:26.261Z</time></trkpt><trkpt lat="39.5426583" lon="16.039245"><ele>934.0</ele><time>2026-04-27T06:55:28.263Z</time></trkpt><trkpt lat="39.542745" lon="16.03931"><ele>934.0</ele><time>2026-04-27T06:55:30.26Z</time></trkpt><trkpt lat="39.54284" lon="16.039385"><ele>934.0000000000001</ele><time>2026-04-27T06:55:32.265Z</time></trkpt><trkpt lat="39.5429617" lon="16.039475"><ele>934.0000000000001</ele><time>2026-04-27T06:55:34.265Z</time></trkpt><trkpt lat="39.5430267" lon="16.039535"><ele>934.0</ele><time>2026-04-27T06:55:35.265Z</time></trkpt><trkpt lat="39.5430917" lon="16.0395883"><ele>934.0</ele><time>2026-04-27T06:55:36.267Z</time></trkpt><trkpt lat="39.5431583" lon="16.0396433"><ele>933.2</ele><time>2026-04-27T06:55:37.283Z</time></trkpt><trkpt lat="39.543225" lon="16.03972"><ele>932.4000000000001</ele><time>2026-04-27T06:55:38.263Z</time></trkpt><trkpt lat="39.5432983" lon="16.039835"><ele>931.6</ele><time>2026-04-27T06:55:39.26Z</time></trkpt><trkpt lat="39.5433733" lon="16.0399417"><ele>930.8</ele><time>2026-04-27T06:55:40.262Z</time></trkpt><trkpt lat="39.5434567" lon="16.0400683"><ele>930.0</ele><time>2026-04-27T06:55:41.262Z</time></trkpt><trkpt lat="39.54348" lon="16.0401517"><ele>930.0</ele><time>2026-04-27T06:55:42.259Z</time></trkpt><trkpt lat="39.5435267" lon="16.0402517"><ele>930.0</ele><time>2026-04-27T06:55:43.287Z</time></trkpt><trkpt lat="39.54358" lon="16.0403383"><ele>930.0</ele><time>2026-04-27T06:55:44.264Z</time></trkpt><trkpt lat="39.5436317" lon="16.04041"><ele>930.0</ele><time>2026-04-27T06:55:45.264Z</time></trkpt><trkpt lat="39.5436967" lon="16.04052"><ele>930.0</ele><time>2026-04-27T06:55:48.264Z</time></trkpt><trkpt lat="39.5437167" lon="16.0406033"><ele>930.0</ele><time>2026-04-27T06:55:51.263Z</time></trkpt><trkpt lat="39.54377" lon="16.0406667"><ele>924.8333333333334</ele><time>2026-04-27T06:55:54.269Z</time></trkpt><trkpt lat="39.5438383" lon="16.040695"><ele>919.6666666666667</ele><time>2026-04-27T06:55:58.277Z</time></trkpt><trkpt lat="39.5439233" lon="16.0406583"><ele>914.5</ele><time>2026-04-27T06:56:02.265Z</time></trkpt><trkpt lat="39.5440117" lon="16.0406333"><ele>909.3333333333334</ele><time>2026-04-27T06:56:05.264Z</time></trkpt><trkpt lat="39.5440867" lon="16.0406017"><ele>904.1666666666667</ele><time>2026-04-27T06:56:07.287Z</time></trkpt><trkpt lat="39.5441583" lon="16.040605"><ele>899.0</ele><time>2026-04-27T06:56:09.271Z</time></trkpt><trkpt lat="39.5442517" lon="16.04049"><ele>899.0000000000001</ele><time>2026-04-27T06:56:16.264Z</time></trkpt><trkpt lat="39.5443267" lon="16.04042"><ele>899.0</ele><time>2026-04-27T06:56:33.259Z</time></trkpt><trkpt lat="39.5443733" lon="16.0404817"><ele>899.0</ele><time>2026-04-27T06:56:35.259Z</time></trkpt><trkpt lat="39.5444133" lon="16.0406367"><ele>899.0</ele><time>2026-04-27T06:56:37.286Z</time></trkpt><trkpt lat="39.544435" lon="16.0407317"><ele>899.0000000000001</ele><time>2026-04-27T06:56:38.264Z</time></trkpt><trkpt lat="39.5444667" lon="16.0408183"><ele>899.0</ele><time>2026-04-27T06:56:39.256Z</time></trkpt><trkpt lat="39.5445017" lon="16.0409333"><ele>900.8000000000001</ele><time>2026-04-27T06:56:40.264Z</time></trkpt><trkpt lat="39.5445283" lon="16.0410567"><ele>902.6000000000001</ele><time>2026-04-27T06:56:41.256Z</time></trkpt><trkpt lat="39.5445767" lon="16.0412183"><ele>904.4</ele><time>2026-04-27T06:56:42.268Z</time></trkpt><trkpt lat="39.5446067" lon="16.04136"><ele>906.2</ele><time>2026-04-27T06:56:43.284Z</time></trkpt><trkpt lat="39.544625" lon="16.04148"><ele>908.0</ele><time>2026-04-27T06:56:44.26Z</time></trkpt><trkpt lat="39.5446433" lon="16.0416"><ele>901.5999999999999</ele><time>2026-04-27T06:56:45.257Z</time></trkpt><trkpt lat="39.544655" lon="16.0417083"><ele>895.1999999999999</ele><time>2026-04-27T06:56:46.259Z</time></trkpt><trkpt lat="39.544675" lon="16.0418317"><ele>888.8</ele><time>2026-04-27T06:56:47.264Z</time></trkpt><trkpt lat="39.544665" lon="16.04195"><ele>882.4</ele><time>2026-04-27T06:56:48.265Z</time></trkpt><trkpt lat="39.5446433" lon="16.042065"><ele>876.0</ele><time>2026-04-27T06:56:49.29Z</time></trkpt><trkpt lat="39.5446233" lon="16.0422183"><ele>876.0</ele><time>2026-04-27T06:56:50.266Z</time></trkpt><trkpt lat="39.54459" lon="16.0423483"><ele>875.9999999999999</ele><time>2026-04-27T06:56:51.26Z</time></trkpt><trkpt lat="39.54457" lon="16.0424717"><ele>875.9999999999999</ele><time>2026-04-27T06:56:52.268Z</time></trkpt><trkpt lat="39.5445517" lon="16.0425733"><ele>876.0</ele><time>2026-04-27T06:56:53.265Z</time></trkpt><trkpt lat="39.54453" lon="16.0426517"><ele>876.0</ele><time>2026-04-27T06:56:55.329Z</time></trkpt><trkpt lat="39.5444683" lon="16.0425233"><ele>883.75</ele><time>2026-04-27T06:56:57.266Z</time></trkpt><trkpt lat="39.544425" lon="16.0424167"><ele>891.5</ele><time>2026-04-27T06:56:58.264Z</time></trkpt><trkpt lat="39.5443967" lon="16.0423333"><ele>899.25</ele><time>2026-04-27T06:56:59.259Z</time></trkpt><trkpt lat="39.5443267" lon="16.0421233"><ele>907.0</ele><time>2026-04-27T06:57:00.261Z</time></trkpt><trkpt lat="39.544285" lon="16.0419867"><ele>907.0</ele><time>2026-04-27T06:57:01.289Z</time></trkpt><trkpt lat="39.544255" lon="16.041885"><ele>907.0</ele><time>2026-04-27T06:57:02.26Z</time></trkpt><trkpt lat="39.5441883" lon="16.041805"><ele>907.0</ele><time>2026-04-27T06:57:04.262Z</time></trkpt><trkpt lat="39.54411" lon="16.04177"><ele>907.0</ele><time>2026-04-27T06:57:06.266Z</time></trkpt><trkpt lat="39.54406" lon="16.0421117"><ele>907.0</ele><time>2026-04-27T06:57:08.261Z</time></trkpt><trkpt lat="39.5440267" lon="16.0422617"><ele>907.0</ele><time>2026-04-27T06:57:09.263Z</time></trkpt><trkpt lat="39.5440017" lon="16.0424067"><ele>907.0</ele><time>2026-04-27T06:57:10.261Z</time></trkpt><trkpt lat="39.5439817" lon="16.0425417"><ele>907.0</ele><time>2026-04-27T06:57:11.266Z</time></trkpt><trkpt lat="39.5439583" lon="16.0426583"><ele>907.0</ele><time>2026-04-27T06:57:12.269Z</time></trkpt><trkpt lat="39.5439433" lon="16.042775"><ele>905.6</ele><time>2026-04-27T06:57:13.289Z</time></trkpt><trkpt lat="39.54392" lon="16.0428867"><ele>904.2</ele><time>2026-04-27T06:57:14.264Z</time></trkpt><trkpt lat="39.54387" lon="16.0430133"><ele>902.8</ele><time>2026-04-27T06:57:15.261Z</time></trkpt><trkpt lat="39.543835" lon="16.0431433"><ele>901.4</ele><time>2026-04-27T06:57:16.262Z</time></trkpt><trkpt lat="39.5437883" lon="16.0432583"><ele>900.0</ele><time>2026-04-27T06:57:17.268Z</time></trkpt><trkpt lat="39.5437383" lon="16.0433783"><ele>899.0</ele><time>2026-04-27T06:57:18.26Z</time></trkpt><trkpt lat="39.5436933" lon="16.0434967"><ele>898.0</ele><time>2026-04-27T06:57:19.286Z</time></trkpt><trkpt lat="39.5436583" lon="16.0436033"><ele>897.0</ele><time>2026-04-27T06:57:20.264Z</time></trkpt><trkpt lat="39.5436" lon="16.043705"><ele>896.0</ele><time>2026-04-27T06:57:21.261Z</time></trkpt><trkpt lat="39.5435467" lon="16.043805"><ele>895.0</ele><time>2026-04-27T06:57:22.262Z</time></trkpt><trkpt lat="39.543485" lon="16.0439067"><ele>894.9999999999999</ele><time>2026-04-27T06:57:23.266Z</time></trkpt><trkpt lat="39.543405" lon="16.0439967"><ele>895.0</ele><time>2026-04-27T06:57:24.266Z</time></trkpt><trkpt lat="39.5433383" lon="16.04408"><ele>895.0</ele><time>2026-04-27T06:57:25.329Z</time></trkpt><trkpt lat="39.5432817" lon="16.044145"><ele>895.0</ele><time>2026-04-27T06:57:26.264Z</time></trkpt><trkpt lat="39.543235" lon="16.0442017"><ele>894.9999999999999</ele><time>2026-04-27T06:57:27.265Z</time></trkpt><trkpt lat="39.5433067" lon="16.0442433"><ele>895.0</ele><time>2026-04-27T06:57:32.263Z</time></trkpt><trkpt lat="39.543405" lon="16.0441867"><ele>894.9999999999999</ele><time>2026-04-27T06:57:34.261Z</time></trkpt><trkpt lat="39.5434767" lon="16.0441517"><ele>895.0</ele><time>2026-04-27T06:57:35.265Z</time></trkpt><trkpt lat="39.5435583" lon="16.044125"><ele>895.0</ele><time>2026-04-27T06:57:36.264Z</time></trkpt><trkpt lat="39.543645" lon="16.044095"><ele>895.0</ele><time>2026-04-27T06:57:37.285Z</time></trkpt><trkpt lat="39.5437317" lon="16.04407"><ele>894.9999999999999</ele><time>2026-04-27T06:57:38.261Z</time></trkpt><trkpt lat="39.5438067" lon="16.044035"><ele>895.0</ele><time>2026-04-27T06:57:39.264Z</time></trkpt><trkpt lat="39.5438683" lon="16.0439967"><ele>894.4</ele><time>2026-04-27T06:57:40.275Z</time></trkpt><trkpt lat="39.5439333" lon="16.0439667"><ele>893.8</ele><time>2026-04-27T06:57:42.258Z</time></trkpt><trkpt lat="39.5439983" lon="16.0440017"><ele>893.2</ele><time>2026-04-27T06:57:44.261Z</time></trkpt><trkpt lat="39.5440317" lon="16.0441567"><ele>892.6</ele><time>2026-04-27T06:57:46.266Z</time></trkpt><trkpt lat="39.5440533" lon="16.04426"><ele>892.0</ele><time>2026-04-27T06:57:47.262Z</time></trkpt><trkpt lat="39.5440833" lon="16.044425"><ele>889.1666666666666</ele><time>2026-04-27T06:57:49.287Z</time></trkpt><trkpt lat="39.5441" lon="16.0445167"><ele>886.3333333333333</ele><time>2026-04-27T06:57:50.262Z</time></trkpt><trkpt lat="39.5441083" lon="16.0446017"><ele>883.5</ele><time>2026-04-27T06:57:51.261Z</time></trkpt><trkpt lat="39.544095" lon="16.0446917"><ele>880.6666666666667</ele><time>2026-04-27T06:57:54.263Z</time></trkpt><trkpt lat="39.5440233" lon="16.0446517"><ele>877.8333333333334</ele><time>2026-04-27T06:57:56.263Z</time></trkpt><trkpt lat="39.543905" lon="16.044665"><ele>875.0</ele><time>2026-04-27T06:57:58.265Z</time></trkpt><trkpt lat="39.54384" lon="16.04468"><ele>875.0000000000001</ele><time>2026-04-27T06:57:59.267Z</time></trkpt><trkpt lat="39.543755" lon="16.0447333"><ele>875.0</ele><time>2026-04-27T06:58:01.267Z</time></trkpt><trkpt lat="39.543745" lon="16.0448433"><ele>875.0</ele><time>2026-04-27T06:58:03.272Z</time></trkpt><trkpt lat="39.5437817" lon="16.0449167"><ele>875.0</ele><time>2026-04-27T06:58:04.268Z</time></trkpt><trkpt lat="39.5438267" lon="16.04499"><ele>875.0000000000001</ele><time>2026-04-27T06:58:05.264Z</time></trkpt><trkpt lat="39.5438783" lon="16.0450683"><ele>875.0</ele><time>2026-04-27T06:58:06.262Z</time></trkpt><trkpt lat="39.5439117" lon="16.0451383"><ele>871.3333333333334</ele><time>2026-04-27T06:58:07.283Z</time></trkpt><trkpt lat="39.543905" lon="16.04522"><ele>867.6666666666667</ele><time>2026-04-27T06:58:10.279Z</time></trkpt><trkpt lat="39.5438383" lon="16.0452333"><ele>864.0</ele><time>2026-04-27T06:58:12.267Z</time></trkpt><trkpt lat="39.54377" lon="16.045235"><ele>860.3333333333333</ele><time>2026-04-27T06:58:13.29Z</time></trkpt><trkpt lat="39.5436883" lon="16.0452383"><ele>856.6666666666666</ele><time>2026-04-27T06:58:14.258Z</time></trkpt><trkpt lat="39.5435933" lon="16.04524"><ele>853.0</ele><time>2026-04-27T06:58:15.264Z</time></trkpt><trkpt lat="39.543515" lon="16.0452467"><ele>851.8333333333333</ele><time>2026-04-27T06:58:16.263Z</time></trkpt><trkpt lat="39.5434367" lon="16.04526"><ele>850.6666666666666</ele><time>2026-04-27T06:58:17.273Z</time></trkpt><trkpt lat="39.5433317" lon="16.04527"><ele>849.5</ele><time>2026-04-27T06:58:18.265Z</time></trkpt><trkpt lat="39.5432433" lon="16.0452933"><ele>848.3333333333333</ele><time>2026-04-27T06:58:19.289Z</time></trkpt><trkpt lat="39.5431767" lon="16.045325"><ele>847.1666666666666</ele><time>2026-04-27T06:58:20.266Z</time></trkpt><trkpt lat="39.5431017" lon="16.0454033"><ele>846.0</ele><time>2026-04-27T06:58:22.26Z</time></trkpt><trkpt lat="39.5431317" lon="16.0454867"><ele>846.0</ele><time>2026-04-27T06:58:24.263Z</time></trkpt><trkpt lat="39.543195" lon="16.04554"><ele>846.0</ele><time>2026-04-27T06:58:25.274Z</time></trkpt><trkpt lat="39.54329" lon="16.0456083"><ele>846.0</ele><time>2026-04-27T06:58:26.262Z</time></trkpt><trkpt lat="39.5433933" lon="16.045665"><ele>846.0</ele><time>2026-04-27T06:58:27.269Z</time></trkpt><trkpt lat="39.5434783" lon="16.0457217"><ele>846.0</ele><time>2026-04-27T06:58:28.265Z</time></trkpt><trkpt lat="39.54355" lon="16.0457883"><ele>841.8333333333334</ele><time>2026-04-27T06:58:29.263Z</time></trkpt><trkpt lat="39.5435867" lon="16.04588"><ele>837.6666666666667</ele><time>2026-04-27T06:58:31.284Z</time></trkpt><trkpt lat="39.5435783" lon="16.0459617"><ele>833.5</ele><time>2026-04-27T06:58:33.267Z</time></trkpt><trkpt lat="39.5434883" lon="16.045975"><ele>829.3333333333334</ele><time>2026-04-27T06:58:35.271Z</time></trkpt><trkpt lat="39.5433733" lon="16.04595"><ele>825.1666666666667</ele><time>2026-04-27T06:58:37.286Z</time></trkpt><trkpt lat="39.5432967" lon="16.0459183"><ele>821.0</ele><time>2026-04-27T06:58:38.261Z</time></trkpt><trkpt lat="39.5432067" lon="16.04588"><ele>821.0</ele><time>2026-04-27T06:58:39.259Z</time></trkpt><trkpt lat="39.5431133" lon="16.0458483"><ele>821.0</ele><time>2026-04-27T06:58:40.261Z</time></trkpt><trkpt lat="39.5430233" lon="16.0458233"><ele>821.0</ele><time>2026-04-27T06:58:41.263Z</time></trkpt><trkpt lat="39.5429233" lon="16.045785"><ele>821.0</ele><time>2026-04-27T06:58:42.259Z</time></trkpt><trkpt lat="39.542835" lon="16.0457533"><ele>821.0</ele><time>2026-04-27T06:58:43.293Z</time></trkpt><trkpt lat="39.5427433" lon="16.0457133"><ele>824.8333333333334</ele><time>2026-04-27T06:58:44.262Z</time></trkpt><trkpt lat="39.54266" lon="16.0456783"><ele>828.6666666666667</ele><time>2026-04-27T06:58:45.262Z</time></trkpt><trkpt lat="39.5425867" lon="16.04565"><ele>832.5</ele><time>2026-04-27T06:58:46.268Z</time></trkpt><trkpt lat="39.54251" lon="16.0456333"><ele>836.3333333333333</ele><time>2026-04-27T06:58:47.264Z</time></trkpt><trkpt lat="39.542425" lon="16.0456433"><ele>840.1666666666666</ele><time>2026-04-27T06:58:48.262Z</time></trkpt><trkpt lat="39.5423333" lon="16.04567"><ele>844.0</ele><time>2026-04-27T06:58:49.291Z</time></trkpt><trkpt lat="39.5422333" lon="16.045705"><ele>844.0</ele><time>2026-04-27T06:58:50.255Z</time></trkpt><trkpt lat="39.542125" lon="16.0457317"><ele>844.0</ele><time>2026-04-27T06:58:51.261Z</time></trkpt><trkpt lat="39.542025" lon="16.0457817"><ele>844.0</ele><time>2026-04-27T06:58:52.262Z</time></trkpt><trkpt lat="39.5419233" lon="16.0458317"><ele>844.0</ele><time>2026-04-27T06:58:53.267Z</time></trkpt><trkpt lat="39.541815" lon="16.0458667"><ele>844.0</ele><time>2026-04-27T06:58:54.264Z</time></trkpt><trkpt lat="39.541715" lon="16.0459083"><ele>835.5</ele><time>2026-04-27T06:58:55.335Z</time></trkpt><trkpt lat="39.5416017" lon="16.0459433"><ele>827.0</ele><time>2026-04-27T06:58:56.26Z</time></trkpt><trkpt lat="39.5414917" lon="16.0460083"><ele>818.5</ele><time>2026-04-27T06:58:57.266Z</time></trkpt><trkpt lat="39.5413867" lon="16.0460783"><ele>810.0</ele><time>2026-04-27T06:58:58.266Z</time></trkpt><trkpt lat="39.5412883" lon="16.0461467"><ele>813.0</ele><time>2026-04-27T06:58:59.269Z</time></trkpt><trkpt lat="39.5411883" lon="16.0462167"><ele>816.0</ele><time>2026-04-27T06:59:00.267Z</time></trkpt><trkpt lat="39.5410883" lon="16.046285"><ele>819.0</ele><time>2026-04-27T06:59:01.301Z</time></trkpt><trkpt lat="39.5409867" lon="16.0463433"><ele>822.0</ele><time>2026-04-27T06:59:02.254Z</time></trkpt><trkpt lat="39.540885" lon="16.0463867"><ele>825.0</ele><time>2026-04-27T06:59:03.263Z</time></trkpt><trkpt lat="39.540775" lon="16.04642"><ele>825.0</ele><time>2026-04-27T06:59:04.264Z</time></trkpt><trkpt lat="39.5406583" lon="16.0464483"><ele>825.0</ele><time>2026-04-27T06:59:05.264Z</time></trkpt><trkpt lat="39.5405417" lon="16.0464767"><ele>825.0</ele><time>2026-04-27T06:59:06.268Z</time></trkpt><trkpt lat="39.540425" lon="16.0465067"><ele>825.0</ele><time>2026-04-27T06:59:07.282Z</time></trkpt><trkpt lat="39.5403033" lon="16.0465267"><ele>825.25</ele><time>2026-04-27T06:59:08.267Z</time></trkpt><trkpt lat="39.540185" lon="16.046545"><ele>825.5</ele><time>2026-04-27T06:59:09.26Z</time></trkpt><trkpt lat="39.54006" lon="16.0465683"><ele>825.75</ele><time>2026-04-27T06:59:10.26Z</time></trkpt><trkpt lat="39.5399467" lon="16.0465933"><ele>826.0</ele><time>2026-04-27T06:59:11.264Z</time></trkpt><trkpt lat="39.5398483" lon="16.04661"><ele>823.6666666666666</ele><time>2026-04-27T06:59:12.258Z</time></trkpt><trkpt lat="39.5397483" lon="16.0466367"><ele>821.3333333333333</ele><time>2026-04-27T06:59:13.281Z</time></trkpt><trkpt lat="39.5396533" lon="16.0466683"><ele>819.0</ele><time>2026-04-27T06:59:14.259Z</time></trkpt><trkpt lat="39.539585" lon="16.0466967"><ele>816.6666666666667</ele><time>2026-04-27T06:59:15.257Z</time></trkpt><trkpt lat="39.5395167" lon="16.046725"><ele>814.3333333333334</ele><time>2026-04-27T06:59:17.265Z</time></trkpt><trkpt lat="39.5394383" lon="16.0466517"><ele>812.0</ele><time>2026-04-27T06:59:19.292Z</time></trkpt><trkpt lat="39.539385" lon="16.046575"><ele>812.0</ele><time>2026-04-27T06:59:20.261Z</time></trkpt><trkpt lat="39.5393317" lon="16.04648"><ele>812.0</ele><time>2026-04-27T06:59:21.264Z</time></trkpt><trkpt lat="39.5392833" lon="16.0463633"><ele>812.0</ele><time>2026-04-27T06:59:22.261Z</time></trkpt><trkpt lat="39.5392433" lon="16.0462383"><ele>812.0</ele><time>2026-04-27T06:59:23.265Z</time></trkpt><trkpt lat="39.5392067" lon="16.0460883"><ele>812.0</ele><time>2026-04-27T06:59:24.26Z</time></trkpt><trkpt lat="39.5391817" lon="16.04593"><ele>817.2</ele><time>2026-04-27T06:59:25.327Z</time></trkpt><trkpt lat="39.539155" lon="16.0457833"><ele>822.4000000000001</ele><time>2026-04-27T06:59:26.261Z</time></trkpt><trkpt lat="39.539145" lon="16.0456633"><ele>827.5999999999999</ele><time>2026-04-27T06:59:27.266Z</time></trkpt><trkpt lat="39.5391167" lon="16.0455767"><ele>832.8</ele><time>2026-04-27T06:59:28.261Z</time></trkpt><trkpt lat="39.5390267" lon="16.045525"><ele>838.0</ele><time>2026-04-27T06:59:30.262Z</time></trkpt><trkpt lat="39.5389517" lon="16.0455383"><ele>838.0</ele><time>2026-04-27T06:59:31.282Z</time></trkpt><trkpt lat="39.5388667" lon="16.04557"><ele>838.0</ele><time>2026-04-27T06:59:32.265Z</time></trkpt><trkpt lat="39.5387667" lon="16.0455717"><ele>838.0</ele><time>2026-04-27T06:59:33.267Z</time></trkpt><trkpt lat="39.53864" lon="16.0455617"><ele>838.0</ele><time>2026-04-27T06:59:34.265Z</time></trkpt><trkpt lat="39.5385317" lon="16.045545"><ele>838.0</ele><time>2026-04-27T06:59:35.265Z</time></trkpt><trkpt lat="39.5384417" lon="16.045545"><ele>834.4</ele><time>2026-04-27T06:59:36.265Z</time></trkpt><trkpt lat="39.5383683" lon="16.0455533"><ele>830.8</ele><time>2026-04-27T06:59:37.291Z</time></trkpt><trkpt lat="39.5383583" lon="16.04564"><ele>827.2</ele><time>2026-04-27T06:59:40.267Z</time></trkpt><trkpt lat="39.5384633" lon="16.045725"><ele>823.6</ele><time>2026-04-27T06:59:42.266Z</time></trkpt><trkpt lat="39.53854" lon="16.0457767"><ele>820.0</ele><time>2026-04-27T06:59:43.289Z</time></trkpt><trkpt lat="39.5386367" lon="16.0458383"><ele>818.4</ele><time>2026-04-27T06:59:44.258Z</time></trkpt><trkpt lat="39.5387283" lon="16.0458983"><ele>816.8</ele><time>2026-04-27T06:59:45.267Z</time></trkpt><trkpt lat="39.53881" lon="16.04595"><ele>815.2</ele><time>2026-04-27T06:59:46.262Z</time></trkpt><trkpt lat="39.538885" lon="16.0459983"><ele>813.6</ele><time>2026-04-27T06:59:47.26Z</time></trkpt><trkpt lat="39.5389517" lon="16.0460433"><ele>812.0</ele><time>2026-04-27T06:59:48.265Z</time></trkpt><trkpt lat="39.5390333" lon="16.0461517"><ele>812.0</ele><time>2026-04-27T06:59:50.256Z</time></trkpt><trkpt lat="39.5390433" lon="16.0462367"><ele>812.0</ele><time>2026-04-27T06:59:51.258Z</time></trkpt><trkpt lat="39.5390467" lon="16.0463633"><ele>812.0</ele><time>2026-04-27T06:59:52.259Z</time></trkpt><trkpt lat="39.5390267" lon="16.04652"><ele>812.0</ele><time>2026-04-27T06:59:53.26Z</time></trkpt><trkpt lat="39.5390167" lon="16.0466683"><ele>812.0</ele><time>2026-04-27T06:59:54.252Z</time></trkpt><trkpt lat="39.5389967" lon="16.0468183"><ele>808.25</ele><time>2026-04-27T06:59:55.325Z</time></trkpt><trkpt lat="39.53896" lon="16.0469783"><ele>804.5</ele><time>2026-04-27T06:59:56.257Z</time></trkpt><trkpt lat="39.5388983" lon="16.047135"><ele>800.75</ele><time>2026-04-27T06:59:57.259Z</time></trkpt><trkpt lat="39.5388167" lon="16.04728"><ele>797.0</ele><time>2026-04-27T06:59:58.259Z</time></trkpt><trkpt lat="39.5387533" lon="16.047435"><ele>789.75</ele><time>2026-04-27T06:59:59.259Z</time></trkpt><trkpt lat="39.5386967" lon="16.0476"><ele>782.5</ele><time>2026-04-27T07:00:00.266Z</time></trkpt><trkpt lat="39.5386417" lon="16.0477733"><ele>775.25</ele><time>2026-04-27T07:00:01.287Z</time></trkpt><trkpt lat="39.53859" lon="16.047945"><ele>768.0</ele><time>2026-04-27T07:00:02.262Z</time></trkpt><trkpt lat="39.5385717" lon="16.04815"><ele>767.0</ele><time>2026-04-27T07:00:03.27Z</time></trkpt><trkpt lat="39.5385717" lon="16.048365"><ele>766.0</ele><time>2026-04-27T07:00:04.266Z</time></trkpt><trkpt lat="39.5385633" lon="16.0485783"><ele>765.0</ele><time>2026-04-27T07:00:05.266Z</time></trkpt><trkpt lat="39.5385333" lon="16.0487817"><ele>765.0</ele><time>2026-04-27T07:00:06.267Z</time></trkpt><trkpt lat="39.53848" lon="16.0489817"><ele>765.0</ele><time>2026-04-27T07:00:07.285Z</time></trkpt><trkpt lat="39.5384267" lon="16.0491867"><ele>765.0</ele><time>2026-04-27T07:00:08.262Z</time></trkpt><trkpt lat="39.5383817" lon="16.04941"><ele>766.3333333333333</ele><time>2026-04-27T07:00:09.264Z</time></trkpt><trkpt lat="39.5383433" lon="16.0496333"><ele>767.6666666666666</ele><time>2026-04-27T07:00:10.259Z</time></trkpt><trkpt lat="39.5383167" lon="16.0498733"><ele>769.0</ele><time>2026-04-27T07:00:11.265Z</time></trkpt><trkpt lat="39.5382833" lon="16.050115"><ele>769.0</ele><time>2026-04-27T07:00:12.266Z</time></trkpt><trkpt lat="39.5382417" lon="16.0503317"><ele>769.0</ele><time>2026-04-27T07:00:13.286Z</time></trkpt><trkpt lat="39.538205" lon="16.0505283"><ele>769.0</ele><time>2026-04-27T07:00:14.263Z</time></trkpt><trkpt lat="39.5381467" lon="16.0506883"><ele>768.5</ele><time>2026-04-27T07:00:15.263Z</time></trkpt><trkpt lat="39.5380767" lon="16.0508183"><ele>768.0</ele><time>2026-04-27T07:00:16.264Z</time></trkpt><trkpt lat="39.537995" lon="16.0509383"><ele>767.5</ele><time>2026-04-27T07:00:17.265Z</time></trkpt><trkpt lat="39.5379133" lon="16.0510767"><ele>767.0</ele><time>2026-04-27T07:00:18.268Z</time></trkpt><trkpt lat="39.5378067" lon="16.051205"><ele>767.0</ele><time>2026-04-27T07:00:19.294Z</time></trkpt><trkpt lat="39.5376583" lon="16.051285"><ele>767.0</ele><time>2026-04-27T07:00:20.264Z</time></trkpt><trkpt lat="39.5375267" lon="16.0513783"><ele>767.0</ele><time>2026-04-27T07:00:21.272Z</time></trkpt><trkpt lat="39.5374367" lon="16.0515083"><ele>767.0</ele><time>2026-04-27T07:00:22.265Z</time></trkpt><trkpt lat="39.5373567" lon="16.051645"><ele>763.5</ele><time>2026-04-27T07:00:23.264Z</time></trkpt><trkpt lat="39.5372733" lon="16.0517883"><ele>760.0</ele><time>2026-04-27T07:00:24.258Z</time></trkpt><trkpt lat="39.5372067" lon="16.0519367"><ele>756.5</ele><time>2026-04-27T07:00:25.267Z</time></trkpt><trkpt lat="39.5371367" lon="16.052075"><ele>753.0</ele><time>2026-04-27T07:00:26.254Z</time></trkpt><trkpt lat="39.5370783" lon="16.0521683"><ele>750.0</ele><time>2026-04-27T07:00:27.274Z</time></trkpt><trkpt lat="39.5370283" lon="16.05222"><ele>747.0</ele><time>2026-04-27T07:00:28.264Z</time></trkpt><trkpt lat="39.5369217" lon="16.0521617"><ele>744.0</ele><time>2026-04-27T07:00:30.264Z</time></trkpt><trkpt lat="39.5368867" lon="16.0520467"><ele>741.0</ele><time>2026-04-27T07:00:31.288Z</time></trkpt><trkpt lat="39.5368983" lon="16.05187"><ele>738.0</ele><time>2026-04-27T07:00:32.26Z</time></trkpt><trkpt lat="39.5369067" lon="16.0516783"><ele>737.3333333333334</ele><time>2026-04-27T07:00:33.259Z</time></trkpt><trkpt lat="39.5369183" lon="16.051525"><ele>736.6666666666666</ele><time>2026-04-27T07:00:34.26Z</time></trkpt><trkpt lat="39.5369017" lon="16.0513983"><ele>736.0</ele><time>2026-04-27T07:00:35.266Z</time></trkpt><trkpt lat="39.5368617" lon="16.051315"><ele>735.3333333333333</ele><time>2026-04-27T07:00:36.259Z</time></trkpt><trkpt lat="39.5367867" lon="16.0513067"><ele>734.6666666666666</ele><time>2026-04-27T07:00:37.284Z</time></trkpt><trkpt lat="39.5367117" lon="16.0513267"><ele>734.0</ele><time>2026-04-27T07:00:38.267Z</time></trkpt><trkpt lat="39.5365817" lon="16.0514617"><ele>734.0</ele><time>2026-04-27T07:00:39.267Z</time></trkpt><trkpt lat="39.536465" lon="16.0515783"><ele>734.0</ele><time>2026-04-27T07:00:40.257Z</time></trkpt><trkpt lat="39.5363433" lon="16.0517083"><ele>734.0</ele><time>2026-04-27T07:00:41.259Z</time></trkpt><trkpt lat="39.5362317" lon="16.0518433"><ele>728.0</ele><time>2026-04-27T07:00:42.259Z</time></trkpt><trkpt lat="39.5361383" lon="16.0519917"><ele>722.0</ele><time>2026-04-27T07:00:43.285Z</time></trkpt><trkpt lat="39.53607" lon="16.052145"><ele>716.0</ele><time>2026-04-27T07:00:44.266Z</time></trkpt><trkpt lat="39.5360267" lon="16.0522867"><ele>710.0</ele><time>2026-04-27T07:00:45.263Z</time></trkpt><trkpt lat="39.5360583" lon="16.0524117"><ele>710.75</ele><time>2026-04-27T07:00:46.266Z</time></trkpt><trkpt lat="39.5361333" lon="16.05251"><ele>711.5</ele><time>2026-04-27T07:00:47.261Z</time></trkpt><trkpt lat="39.5362183" lon="16.0526"><ele>712.25</ele><time>2026-04-27T07:00:48.264Z</time></trkpt><trkpt lat="39.5363667" lon="16.0526917"><ele>713.0</ele><time>2026-04-27T07:00:49.286Z</time></trkpt><trkpt lat="39.536515" lon="16.0527933"><ele>720.6666666666666</ele><time>2026-04-27T07:00:50.262Z</time></trkpt><trkpt lat="39.5366783" lon="16.0529"><ele>728.3333333333334</ele><time>2026-04-27T07:00:51.262Z</time></trkpt><trkpt lat="39.5368383" lon="16.053005"><ele>736.0</ele><time>2026-04-27T07:00:52.258Z</time></trkpt><trkpt lat="39.5369867" lon="16.053105"><ele>736.8</ele><time>2026-04-27T07:00:53.268Z</time></trkpt><trkpt lat="39.53712" lon="16.053195"><ele>737.5999999999999</ele><time>2026-04-27T07:00:54.26Z</time></trkpt><trkpt lat="39.5371833" lon="16.0532767"><ele>738.4</ele><time>2026-04-27T07:00:55.327Z</time></trkpt><trkpt lat="39.537235" lon="16.0533583"><ele>739.2</ele><time>2026-04-27T07:00:56.259Z</time></trkpt><trkpt lat="39.5372717" lon="16.0534317"><ele>740.0</ele><time>2026-04-27T07:00:57.262Z</time></trkpt><trkpt lat="39.537095" lon="16.0534733"><ele>733.75</ele><time>2026-04-27T07:00:59.257Z</time></trkpt><trkpt lat="39.5369667" lon="16.0534717"><ele>727.5</ele><time>2026-04-27T07:01:00.267Z</time></trkpt><trkpt lat="39.53683" lon="16.05347"><ele>721.25</ele><time>2026-04-27T07:01:01.285Z</time></trkpt><trkpt lat="39.5366667" lon="16.0534717"><ele>715.0</ele><time>2026-04-27T07:01:02.261Z</time></trkpt><trkpt lat="39.5365133" lon="16.0534767"><ele>715.0</ele><time>2026-04-27T07:01:03.261Z</time></trkpt><trkpt lat="39.5363733" lon="16.05348"><ele>715.0</ele><time>2026-04-27T07:01:04.263Z</time></trkpt><trkpt lat="39.5362433" lon="16.05348"><ele>715.0</ele><time>2026-04-27T07:01:05.265Z</time></trkpt><trkpt lat="39.5361383" lon="16.0534917"><ele>715.0</ele><time>2026-04-27T07:01:06.263Z</time></trkpt><trkpt lat="39.536075" lon="16.0535383"><ele>715.0</ele><time>2026-04-27T07:01:07.286Z</time></trkpt><trkpt lat="39.536175" lon="16.0536333"><ele>715.0</ele><time>2026-04-27T07:01:08.262Z</time></trkpt><trkpt lat="39.5362633" lon="16.0536983"><ele>715.0</ele><time>2026-04-27T07:01:09.266Z</time></trkpt><trkpt lat="39.5363767" lon="16.0537733"><ele>715.0</ele><time>2026-04-27T07:01:10.263Z</time></trkpt><trkpt lat="39.5365" lon="16.0538583"><ele>715.0</ele><time>2026-04-27T07:01:11.268Z</time></trkpt><trkpt lat="39.536635" lon="16.0539417"><ele>715.0</ele><time>2026-04-27T07:01:12.261Z</time></trkpt><trkpt lat="39.53677" lon="16.0540133"><ele>715.0</ele><time>2026-04-27T07:01:13.291Z</time></trkpt><trkpt lat="39.5368967" lon="16.0540883"><ele>715.0</ele><time>2026-04-27T07:01:14.258Z</time></trkpt><trkpt lat="39.5370083" lon="16.0541717"><ele>715.0</ele><time>2026-04-27T07:01:15.269Z</time></trkpt><trkpt lat="39.5370017" lon="16.0543167"><ele>710.25</ele><time>2026-04-27T07:01:17.259Z</time></trkpt><trkpt lat="39.536925" lon="16.05446"><ele>705.5</ele><time>2026-04-27T07:01:19.288Z</time></trkpt><trkpt lat="39.5368183" lon="16.0545117"><ele>700.75</ele><time>2026-04-27T07:01:20.26Z</time></trkpt><trkpt lat="39.53665" lon="16.054535"><ele>696.0</ele><time>2026-04-27T07:01:21.268Z</time></trkpt><trkpt lat="39.5364617" lon="16.0545383"><ele>696.0</ele><time>2026-04-27T07:01:22.258Z</time></trkpt><trkpt lat="39.53628" lon="16.0545133"><ele>696.0</ele><time>2026-04-27T07:01:23.27Z</time></trkpt><trkpt lat="39.536125" lon="16.0544217"><ele>696.0</ele><time>2026-04-27T07:01:24.262Z</time></trkpt><trkpt lat="39.5359933" lon="16.0543433"><ele>696.8</ele><time>2026-04-27T07:01:25.331Z</time></trkpt><trkpt lat="39.5359033" lon="16.05421"><ele>697.5999999999999</ele><time>2026-04-27T07:01:26.26Z</time></trkpt><trkpt lat="39.53582" lon="16.05409"><ele>698.4</ele><time>2026-04-27T07:01:27.261Z</time></trkpt><trkpt lat="39.5357433" lon="16.054"><ele>699.2</ele><time>2026-04-27T07:01:28.262Z</time></trkpt><trkpt lat="39.5356783" lon="16.0539467"><ele>700.0</ele><time>2026-04-27T07:01:29.26Z</time></trkpt><trkpt lat="39.5356083" lon="16.053915"><ele>700.0</ele><time>2026-04-27T07:01:30.262Z</time></trkpt><trkpt lat="39.535595" lon="16.054015"><ele>700.0</ele><time>2026-04-27T07:01:31.305Z</time></trkpt><trkpt lat="39.535565" lon="16.05419"><ele>700.0</ele><time>2026-04-27T07:01:33.269Z</time></trkpt><trkpt lat="39.53556" lon="16.054315"><ele>700.0</ele><time>2026-04-27T07:01:34.265Z</time></trkpt><trkpt lat="39.5355717" lon="16.0544667"><ele>700.0</ele><time>2026-04-27T07:01:35.261Z</time></trkpt><trkpt lat="39.535585" lon="16.0546217"><ele>695.75</ele><time>2026-04-27T07:01:36.262Z</time></trkpt><trkpt lat="39.5356433" lon="16.054785"><ele>691.5</ele><time>2026-04-27T07:01:37.293Z</time></trkpt><trkpt lat="39.535705" lon="16.0549417"><ele>687.25</ele><time>2026-04-27T07:01:38.263Z</time></trkpt><trkpt lat="39.5357833" lon="16.055075"><ele>683.0</ele><time>2026-04-27T07:01:39.266Z</time></trkpt><trkpt lat="39.5358883" lon="16.0551917"><ele>682.6666666666666</ele><time>2026-04-27T07:01:40.262Z</time></trkpt><trkpt lat="39.536025" lon="16.0552733"><ele>682.3333333333334</ele><time>2026-04-27T07:01:41.266Z</time></trkpt><trkpt lat="39.5361767" lon="16.055335"><ele>682.0</ele><time>2026-04-27T07:01:42.26Z</time></trkpt><trkpt lat="39.536335" lon="16.0553817"><ele>682.0</ele><time>2026-04-27T07:01:43.287Z</time></trkpt><trkpt lat="39.5364633" lon="16.055445"><ele>682.0</ele><time>2026-04-27T07:01:44.26Z</time></trkpt><trkpt lat="39.536595" lon="16.0555317"><ele>682.0</ele><time>2026-04-27T07:01:45.264Z</time></trkpt><trkpt lat="39.5366633" lon="16.0556583"><ele>682.0</ele><time>2026-04-27T07:01:46.256Z</time></trkpt><trkpt lat="39.5367317" lon="16.0558033"><ele>678.25</ele><time>2026-04-27T07:01:47.27Z</time></trkpt><trkpt lat="39.5367483" lon="16.0559783"><ele>674.5</ele><time>2026-04-27T07:01:48.263Z</time></trkpt><trkpt lat="39.5367683" lon="16.0561483"><ele>670.75</ele><time>2026-04-27T07:01:49.286Z</time></trkpt><trkpt lat="39.5368" lon="16.0563183"><ele>667.0</ele><time>2026-04-27T07:01:50.261Z</time></trkpt><trkpt lat="39.5368667" lon="16.0564717"><ele>667.0</ele><time>2026-04-27T07:01:51.27Z</time></trkpt><trkpt lat="39.5369667" lon="16.0566117"><ele>667.0</ele><time>2026-04-27T07:01:52.264Z</time></trkpt><trkpt lat="39.5371033" lon="16.0567417"><ele>667.0</ele><time>2026-04-27T07:01:53.263Z</time></trkpt><trkpt lat="39.5372517" lon="16.056875"><ele>666.6666666666667</ele><time>2026-04-27T07:01:54.258Z</time></trkpt><trkpt lat="39.5374083" lon="16.0569933"><ele>666.3333333333334</ele><time>2026-04-27T07:01:55.336Z</time></trkpt><trkpt lat="39.53757" lon="16.0570933"><ele>666.0</ele><time>2026-04-27T07:01:56.256Z</time></trkpt><trkpt lat="39.537735" lon="16.0571783"><ele>665.3333333333334</ele><time>2026-04-27T07:01:57.26Z</time></trkpt><trkpt lat="39.5378983" lon="16.0572317"><ele>664.6666666666667</ele><time>2026-04-27T07:01:58.26Z</time></trkpt><trkpt lat="39.53805" lon="16.0572383"><ele>664.0</ele><time>2026-04-27T07:01:59.264Z</time></trkpt><trkpt lat="39.53811" lon="16.0570533"><ele>664.0</ele><time>2026-04-27T07:02:00.259Z</time></trkpt><trkpt lat="39.53822" lon="16.0569917"><ele>664.0</ele><time>2026-04-27T07:02:01.331Z</time></trkpt><trkpt lat="39.53832" lon="16.0569283"><ele>664.0</ele><time>2026-04-27T07:02:02.261Z</time></trkpt><trkpt lat="39.5384167" lon="16.05688"><ele>664.0</ele><time>2026-04-27T07:02:03.26Z</time></trkpt><trkpt lat="39.5385117" lon="16.0569267"><ele>664.0</ele><time>2026-04-27T07:02:04.264Z</time></trkpt><trkpt lat="39.5386083" lon="16.0569767"><ele>664.0</ele><time>2026-04-27T07:02:05.257Z</time></trkpt><trkpt lat="39.5387167" lon="16.0570417"><ele>664.0</ele><time>2026-04-27T07:02:06.262Z</time></trkpt><trkpt lat="39.5388417" lon="16.0571233"><ele>664.0</ele><time>2026-04-27T07:02:07.284Z</time></trkpt><trkpt lat="39.5389717" lon="16.057225"><ele>664.0</ele><time>2026-04-27T07:02:08.26Z</time></trkpt><trkpt lat="39.5391033" lon="16.0573383"><ele>664.5</ele><time>2026-04-27T07:02:09.263Z</time></trkpt><trkpt lat="39.5392233" lon="16.0574483"><ele>665.0</ele><time>2026-04-27T07:02:10.261Z</time></trkpt><trkpt lat="39.5393283" lon="16.0575583"><ele>665.5</ele><time>2026-04-27T07:02:11.266Z</time></trkpt><trkpt lat="39.539415" lon="16.0576683"><ele>666.0</ele><time>2026-04-27T07:02:12.266Z</time></trkpt><trkpt lat="39.53949" lon="16.05776"><ele>662.5999999999999</ele><time>2026-04-27T07:02:13.286Z</time></trkpt><trkpt lat="39.539565" lon="16.05783"><ele>659.2</ele><time>2026-04-27T07:02:14.26Z</time></trkpt><trkpt lat="39.53964" lon="16.057885"><ele>655.8</ele><time>2026-04-27T07:02:15.261Z</time></trkpt><trkpt lat="39.5397217" lon="16.057815"><ele>652.4000000000001</ele><time>2026-04-27T07:02:16.266Z</time></trkpt><trkpt lat="39.5398217" lon="16.0577517"><ele>649.0</ele><time>2026-04-27T07:02:17.265Z</time></trkpt><trkpt lat="39.539935" lon="16.0576767"><ele>649.0</ele><time>2026-04-27T07:02:18.261Z</time></trkpt><trkpt lat="39.5400633" lon="16.057625"><ele>649.0</ele><time>2026-04-27T07:02:19.289Z</time></trkpt><trkpt lat="39.5402" lon="16.057585"><ele>649.0</ele><time>2026-04-27T07:02:20.259Z</time></trkpt><trkpt lat="39.5403383" lon="16.0575467"><ele>649.0</ele><time>2026-04-27T07:02:21.263Z</time></trkpt><trkpt lat="39.5404717" lon="16.0574917"><ele>653.3333333333334</ele><time>2026-04-27T07:02:22.257Z</time></trkpt><trkpt lat="39.5406067" lon="16.0574167"><ele>657.6666666666666</ele><time>2026-04-27T07:02:23.273Z</time></trkpt><trkpt lat="39.5407367" lon="16.057305"><ele>662.0</ele><time>2026-04-27T07:02:24.263Z</time></trkpt><trkpt lat="39.5408633" lon="16.0571917"><ele>662.0</ele><time>2026-04-27T07:02:25.333Z</time></trkpt><trkpt lat="39.5409817" lon="16.0570883"><ele>662.0</ele><time>2026-04-27T07:02:26.261Z</time></trkpt><trkpt lat="39.54109" lon="16.0570017"><ele>662.0</ele><time>2026-04-27T07:02:27.254Z</time></trkpt><trkpt lat="39.541195" lon="16.056935"><ele>662.0</ele><time>2026-04-27T07:02:28.265Z</time></trkpt><trkpt lat="39.5413" lon="16.0569233"><ele>662.0</ele><time>2026-04-27T07:02:30.264Z</time></trkpt><trkpt lat="39.5413383" lon="16.0569983"><ele>662.0</ele><time>2026-04-27T07:02:32.267Z</time></trkpt><trkpt lat="39.541255" lon="16.05709"><ele>662.0</ele><time>2026-04-27T07:02:34.258Z</time></trkpt><trkpt lat="39.5411817" lon="16.057135"><ele>662.0</ele><time>2026-04-27T07:02:35.272Z</time></trkpt><trkpt lat="39.5410883" lon="16.0571983"><ele>662.0</ele><time>2026-04-27T07:02:36.259Z</time></trkpt><trkpt lat="39.5409983" lon="16.05728"><ele>662.0</ele><time>2026-04-27T07:02:37.288Z</time></trkpt><trkpt lat="39.5409083" lon="16.05739"><ele>662.0</ele><time>2026-04-27T07:02:38.261Z</time></trkpt><trkpt lat="39.5408267" lon="16.0574933"><ele>662.0</ele><time>2026-04-27T07:02:39.268Z</time></trkpt><trkpt lat="39.5407583" lon="16.0575883"><ele>662.0</ele><time>2026-04-27T07:02:40.264Z</time></trkpt><trkpt lat="39.54071" lon="16.0576733"><ele>662.0</ele><time>2026-04-27T07:02:41.273Z</time></trkpt><trkpt lat="39.5406817" lon="16.0577517"><ele>656.5</ele><time>2026-04-27T07:02:42.265Z</time></trkpt><trkpt lat="39.54073" lon="16.0578283"><ele>651.0</ele><time>2026-04-27T07:02:44.259Z</time></trkpt><trkpt lat="39.5408283" lon="16.0577983"><ele>645.5</ele><time>2026-04-27T07:02:45.26Z</time></trkpt><trkpt lat="39.5409517" lon="16.0577433"><ele>640.0</ele><time>2026-04-27T07:02:46.263Z</time></trkpt><trkpt lat="39.5411033" lon="16.05768"><ele>638.25</ele><time>2026-04-27T07:02:47.269Z</time></trkpt><trkpt lat="39.5412483" lon="16.0576083"><ele>636.5</ele><time>2026-04-27T07:02:48.263Z</time></trkpt><trkpt lat="39.5413567" lon="16.057545"><ele>634.75</ele><time>2026-04-27T07:02:49.285Z</time></trkpt><trkpt lat="39.5414483" lon="16.0574733"><ele>633.0</ele><time>2026-04-27T07:02:50.262Z</time></trkpt><trkpt lat="39.541515" lon="16.05744"><ele>631.0</ele><time>2026-04-27T07:02:51.267Z</time></trkpt><trkpt lat="39.54158" lon="16.0574917"><ele>629.0</ele><time>2026-04-27T07:02:53.276Z</time></trkpt><trkpt lat="39.541555" lon="16.0576483"><ele>627.0</ele><time>2026-04-27T07:02:55.312Z</time></trkpt><trkpt lat="39.541525" lon="16.05777"><ele>625.0</ele><time>2026-04-27T07:02:56.267Z</time></trkpt><trkpt lat="39.5415017" lon="16.0579133"><ele>623.0</ele><time>2026-04-27T07:02:57.265Z</time></trkpt><trkpt lat="39.5414967" lon="16.0580483"><ele>623.0</ele><time>2026-04-27T07:02:58.26Z</time></trkpt><trkpt lat="39.541525" lon="16.0581917"><ele>623.0</ele><time>2026-04-27T07:02:59.262Z</time></trkpt><trkpt lat="39.5415483" lon="16.0583317"><ele>623.0</ele><time>2026-04-27T07:03:00.257Z</time></trkpt><trkpt lat="39.5415567" lon="16.058465"><ele>623.0</ele><time>2026-04-27T07:03:01.302Z</time></trkpt><trkpt lat="39.5415483" lon="16.0585933"><ele>623.0</ele><time>2026-04-27T07:03:02.265Z</time></trkpt><trkpt lat="39.5415167" lon="16.058725"><ele>621.4</ele><time>2026-04-27T07:03:03.26Z</time></trkpt><trkpt lat="39.5414717" lon="16.0588483"><ele>619.8</ele><time>2026-04-27T07:03:04.26Z</time></trkpt><trkpt lat="39.541405" lon="16.058955"><ele>618.2</ele><time>2026-04-27T07:03:05.265Z</time></trkpt><trkpt lat="39.54133" lon="16.05904"><ele>616.6</ele><time>2026-04-27T07:03:06.264Z</time></trkpt><trkpt lat="39.5412267" lon="16.0590867"><ele>615.0</ele><time>2026-04-27T07:03:07.293Z</time></trkpt><trkpt lat="39.5411217" lon="16.0591367"><ele>614.5</ele><time>2026-04-27T07:03:08.264Z</time></trkpt><trkpt lat="39.5409933" lon="16.0591667"><ele>614.0</ele><time>2026-04-27T07:03:09.271Z</time></trkpt><trkpt lat="39.54085" lon="16.0591883"><ele>613.5</ele><time>2026-04-27T07:03:10.27Z</time></trkpt><trkpt lat="39.5407017" lon="16.0591983"><ele>613.0</ele><time>2026-04-27T07:03:11.262Z</time></trkpt><trkpt lat="39.5405517" lon="16.0591967"><ele>613.0</ele><time>2026-04-27T07:03:12.262Z</time></trkpt><trkpt lat="39.540385" lon="16.0591633"><ele>613.0</ele><time>2026-04-27T07:03:13.291Z</time></trkpt><trkpt lat="39.54022" lon="16.0591167"><ele>613.0</ele><time>2026-04-27T07:03:14.268Z</time></trkpt><trkpt lat="39.5400517" lon="16.059065"><ele>619.6666666666667</ele><time>2026-04-27T07:03:15.262Z</time></trkpt><trkpt lat="39.539885" lon="16.0590083"><ele>626.3333333333334</ele><time>2026-04-27T07:03:16.26Z</time></trkpt><trkpt lat="39.53973" lon="16.0589533"><ele>633.0</ele><time>2026-04-27T07:03:17.268Z</time></trkpt><trkpt lat="39.5395883" lon="16.0588933"><ele>632.8</ele><time>2026-04-27T07:03:18.261Z</time></trkpt><trkpt lat="39.5394517" lon="16.0588383"><ele>632.5999999999999</ele><time>2026-04-27T07:03:19.293Z</time></trkpt><trkpt lat="39.5393417" lon="16.0587933"><ele>632.4000000000001</ele><time>2026-04-27T07:03:20.259Z</time></trkpt><trkpt lat="39.5392633" lon="16.05874"><ele>632.2</ele><time>2026-04-27T07:03:21.264Z</time></trkpt><trkpt lat="39.5391633" lon="16.0587283"><ele>632.0</ele><time>2026-04-27T07:03:23.265Z</time></trkpt><trkpt lat="39.5390683" lon="16.0588533"><ele>632.0</ele><time>2026-04-27T07:03:25.305Z</time></trkpt><trkpt lat="39.5390167" lon="16.0589667"><ele>632.0</ele><time>2026-04-27T07:03:27.265Z</time></trkpt><trkpt lat="39.538985" lon="16.0590833"><ele>632.0</ele><time>2026-04-27T07:03:29.263Z</time></trkpt><trkpt lat="39.53889" lon="16.059195"><ele>632.0</ele><time>2026-04-27T07:03:31.307Z</time></trkpt><trkpt lat="39.538805" lon="16.0592467"><ele>632.0</ele><time>2026-04-27T07:03:32.266Z</time></trkpt><trkpt lat="39.5386933" lon="16.059285"><ele>628.5</ele><time>2026-04-27T07:03:33.261Z</time></trkpt><trkpt lat="39.538565" lon="16.05934"><ele>625.0</ele><time>2026-04-27T07:03:34.26Z</time></trkpt><trkpt lat="39.5384317" lon="16.0594033"><ele>621.5</ele><time>2026-04-27T07:03:35.269Z</time></trkpt><trkpt lat="39.5383067" lon="16.0594767"><ele>618.0</ele><time>2026-04-27T07:03:36.264Z</time></trkpt><trkpt lat="39.53818" lon="16.0595467"><ele>618.0</ele><time>2026-04-27T07:03:37.286Z</time></trkpt><trkpt lat="39.5380533" lon="16.0596033"><ele>618.0</ele><time>2026-04-27T07:03:38.266Z</time></trkpt><trkpt lat="39.537925" lon="16.0596517"><ele>618.0</ele><time>2026-04-27T07:03:39.265Z</time></trkpt><trkpt lat="39.5378" lon="16.0596867"><ele>618.0</ele><time>2026-04-27T07:03:40.262Z</time></trkpt><trkpt lat="39.53769" lon="16.0597133"><ele>618.0</ele><time>2026-04-27T07:03:41.265Z</time></trkpt><trkpt lat="39.5375817" lon="16.0597083"><ele>618.0</ele><time>2026-04-27T07:03:42.26Z</time></trkpt><trkpt lat="39.5374683" lon="16.0596833"><ele>618.0</ele><time>2026-04-27T07:03:43.287Z</time></trkpt><trkpt lat="39.537345" lon="16.0596633"><ele>618.0</ele><time>2026-04-27T07:03:44.258Z</time></trkpt><trkpt lat="39.537215" lon="16.0596467"><ele>618.0</ele><time>2026-04-27T07:03:45.263Z</time></trkpt><trkpt lat="39.5370933" lon="16.05965"><ele>618.0</ele><time>2026-04-27T07:03:46.262Z</time></trkpt><trkpt lat="39.5369767" lon="16.0596733"><ele>618.0</ele><time>2026-04-27T07:03:47.266Z</time></trkpt><trkpt lat="39.5368617" lon="16.0596883"><ele>618.0</ele><time>2026-04-27T07:03:48.262Z</time></trkpt><trkpt lat="39.5367533" lon="16.05968"><ele>617.5</ele><time>2026-04-27T07:03:49.292Z</time></trkpt><trkpt lat="39.5366467" lon="16.0596483"><ele>617.0</ele><time>2026-04-27T07:03:50.261Z</time></trkpt><trkpt lat="39.536525" lon="16.0596083"><ele>616.5</ele><time>2026-04-27T07:03:51.262Z</time></trkpt><trkpt lat="39.5364117" lon="16.059585"><ele>616.0</ele><time>2026-04-27T07:03:52.26Z</time></trkpt><trkpt lat="39.5363067" lon="16.059575"><ele>616.0</ele><time>2026-04-27T07:03:53.264Z</time></trkpt><trkpt lat="39.53622" lon="16.059575"><ele>616.0</ele><time>2026-04-27T07:03:54.263Z</time></trkpt><trkpt lat="39.5361617" lon="16.0596133"><ele>616.0</ele><time>2026-04-27T07:03:55.305Z</time></trkpt><trkpt lat="39.53616" lon="16.0597583"><ele>616.0</ele><time>2026-04-27T07:03:57.265Z</time></trkpt><trkpt lat="39.5362517" lon="16.059805"><ele>616.0</ele><time>2026-04-27T07:03:58.261Z</time></trkpt><trkpt lat="39.5363167" lon="16.0598333"><ele>616.0</ele><time>2026-04-27T07:03:59.265Z</time></trkpt><trkpt lat="39.536415" lon="16.0598833"><ele>616.0</ele><time>2026-04-27T07:04:01.301Z</time></trkpt><trkpt lat="39.536325" lon="16.0599317"><ele>616.0</ele><time>2026-04-27T07:04:04.261Z</time></trkpt><trkpt lat="39.536205" lon="16.0599067"><ele>616.0</ele><time>2026-04-27T07:04:05.265Z</time></trkpt><trkpt lat="39.5360967" lon="16.0598983"><ele>616.0</ele><time>2026-04-27T07:04:06.263Z</time></trkpt><trkpt lat="39.5359733" lon="16.0598967"><ele>615.0</ele><time>2026-04-27T07:04:07.285Z</time></trkpt><trkpt lat="39.53582" lon="16.0598867"><ele>614.0</ele><time>2026-04-27T07:04:08.264Z</time></trkpt><trkpt lat="39.5356633" lon="16.05986"><ele>613.0</ele><time>2026-04-27T07:04:09.267Z</time></trkpt><trkpt lat="39.53548" lon="16.05983"><ele>610.3333333333334</ele><time>2026-04-27T07:04:10.264Z</time></trkpt><trkpt lat="39.5353017" lon="16.059805"><ele>607.6666666666666</ele><time>2026-04-27T07:04:11.266Z</time></trkpt><trkpt lat="39.5351283" lon="16.0597933"><ele>605.0</ele><time>2026-04-27T07:04:12.265Z</time></trkpt><trkpt lat="39.53497" lon="16.059795"><ele>605.0</ele><time>2026-04-27T07:04:13.281Z</time></trkpt><trkpt lat="39.53482" lon="16.0598167"><ele>605.0</ele><time>2026-04-27T07:04:14.256Z</time></trkpt><trkpt lat="39.534685" lon="16.0598317"><ele>605.0</ele><time>2026-04-27T07:04:15.261Z</time></trkpt><trkpt lat="39.5345567" lon="16.0598317"><ele>605.0</ele><time>2026-04-27T07:04:16.254Z</time></trkpt><trkpt lat="39.53444" lon="16.059795"><ele>601.5</ele><time>2026-04-27T07:04:17.263Z</time></trkpt><trkpt lat="39.5343117" lon="16.05973"><ele>598.0</ele><time>2026-04-27T07:04:18.263Z</time></trkpt><trkpt lat="39.5341867" lon="16.059655"><ele>594.5</ele><time>2026-04-27T07:04:19.271Z</time></trkpt><trkpt lat="39.534075" lon="16.0595683"><ele>591.0</ele><time>2026-04-27T07:04:20.26Z</time></trkpt><trkpt lat="39.5339833" lon="16.0594783"><ele>591.0</ele><time>2026-04-27T07:04:21.267Z</time></trkpt><trkpt lat="39.5339083" lon="16.059405"><ele>591.0</ele><time>2026-04-27T07:04:22.265Z</time></trkpt><trkpt lat="39.5339533" lon="16.059575"><ele>591.0</ele><time>2026-04-27T07:04:26.261Z</time></trkpt><trkpt lat="39.5340067" lon="16.059695"><ele>591.0</ele><time>2026-04-27T07:04:27.263Z</time></trkpt><trkpt lat="39.5340383" lon="16.0598183"><ele>591.0</ele><time>2026-04-27T07:04:28.258Z</time></trkpt><trkpt lat="39.5340517" lon="16.0599333"><ele>588.5</ele><time>2026-04-27T07:04:29.26Z</time></trkpt><trkpt lat="39.53402" lon="16.0600133"><ele>586.0</ele><time>2026-04-27T07:04:30.259Z</time></trkpt><trkpt lat="39.5339717" lon="16.060075"><ele>583.5</ele><time>2026-04-27T07:04:31.282Z</time></trkpt><trkpt lat="39.5338683" lon="16.06006"><ele>581.0</ele><time>2026-04-27T07:04:32.257Z</time></trkpt><trkpt lat="39.533785" lon="16.0600317"><ele>578.5</ele><time>2026-04-27T07:04:33.259Z</time></trkpt><trkpt lat="39.5337067" lon="16.0599617"><ele>576.0</ele><time>2026-04-27T07:04:34.262Z</time></trkpt><trkpt lat="39.5336483" lon="16.0598317"><ele>573.0</ele><time>2026-04-27T07:04:35.264Z</time></trkpt><trkpt lat="39.5335933" lon="16.05969"><ele>570.0</ele><time>2026-04-27T07:04:36.259Z</time></trkpt><trkpt lat="39.5335467" lon="16.05953"><ele>567.0</ele><time>2026-04-27T07:04:37.282Z</time></trkpt><trkpt lat="39.5334917" lon="16.0593583"><ele>564.0</ele><time>2026-04-27T07:04:38.261Z</time></trkpt><trkpt lat="39.5334233" lon="16.059195"><ele>566.75</ele><time>2026-04-27T07:04:39.268Z</time></trkpt><trkpt lat="39.5333417" lon="16.05905"><ele>569.5</ele><time>2026-04-27T07:04:40.264Z</time></trkpt><trkpt lat="39.5332483" lon="16.0589083"><ele>572.25</ele><time>2026-04-27T07:04:41.263Z</time></trkpt><trkpt lat="39.5331383" lon="16.0587833"><ele>575.0</ele><time>2026-04-27T07:04:42.266Z</time></trkpt><trkpt lat="39.5330083" lon="16.0586683"><ele>567.3333333333333</ele><time>2026-04-27T07:04:43.278Z</time></trkpt><trkpt lat="39.5328617" lon="16.0585583"><ele>559.6666666666666</ele><time>2026-04-27T07:04:44.261Z</time></trkpt><trkpt lat="39.53272" lon="16.058455"><ele>552.0</ele><time>2026-04-27T07:04:45.259Z</time></trkpt><trkpt lat="39.53258" lon="16.0583617"><ele>553.2</ele><time>2026-04-27T07:04:46.259Z</time></trkpt><trkpt lat="39.532455" lon="16.0582767"><ele>554.4000000000001</ele><time>2026-04-27T07:04:47.264Z</time></trkpt><trkpt lat="39.53235" lon="16.058205"><ele>555.5999999999999</ele><time>2026-04-27T07:04:48.263Z</time></trkpt><trkpt lat="39.5322617" lon="16.058145"><ele>556.8</ele><time>2026-04-27T07:04:49.276Z</time></trkpt><trkpt lat="39.5322017" lon="16.058115"><ele>558.0</ele><time>2026-04-27T07:04:50.26Z</time></trkpt><trkpt lat="39.53212" lon="16.0581933"><ele>556.5</ele><time>2026-04-27T07:04:52.257Z</time></trkpt><trkpt lat="39.532195" lon="16.0583733"><ele>555.0</ele><time>2026-04-27T07:04:53.26Z</time></trkpt><trkpt lat="39.53223" lon="16.0585033"><ele>553.5</ele><time>2026-04-27T07:04:54.265Z</time></trkpt><trkpt lat="39.5322733" lon="16.0586383"><ele>552.0</ele><time>2026-04-27T07:04:55.326Z</time></trkpt><trkpt lat="39.532315" lon="16.0587817"><ele>552.0</ele><time>2026-04-27T07:04:56.258Z</time></trkpt><trkpt lat="39.5323267" lon="16.0588967"><ele>552.0</ele><time>2026-04-27T07:04:57.264Z</time></trkpt><trkpt lat="39.532325" lon="16.0589867"><ele>552.0</ele><time>2026-04-27T07:04:58.262Z</time></trkpt><trkpt lat="39.5322167" lon="16.0589533"><ele>552.0</ele><time>2026-04-27T07:05:00.271Z</time></trkpt><trkpt lat="39.5321483" lon="16.0588833"><ele>552.0</ele><time>2026-04-27T07:05:01.299Z</time></trkpt><trkpt lat="39.532085" lon="16.0587583"><ele>546.2</ele><time>2026-04-27T07:05:02.261Z</time></trkpt><trkpt lat="39.5320417" lon="16.058645"><ele>540.4000000000001</ele><time>2026-04-27T07:05:03.262Z</time></trkpt><trkpt lat="39.5320417" lon="16.058525"><ele>534.5999999999999</ele><time>2026-04-27T07:05:04.256Z</time></trkpt><trkpt lat="39.53205" lon="16.0583983"><ele>528.8</ele><time>2026-04-27T07:05:05.27Z</time></trkpt><trkpt lat="39.532055" lon="16.0582617"><ele>523.0</ele><time>2026-04-27T07:05:06.261Z</time></trkpt><trkpt lat="39.5320517" lon="16.0581183"><ele>523.0</ele><time>2026-04-27T07:05:07.283Z</time></trkpt><trkpt lat="39.5320367" lon="16.057955"><ele>523.0</ele><time>2026-04-27T07:05:08.264Z</time></trkpt><trkpt lat="39.532015" lon="16.0577783"><ele>523.0</ele><time>2026-04-27T07:05:09.266Z</time></trkpt><trkpt lat="39.531995" lon="16.057585"><ele>523.0</ele><time>2026-04-27T07:05:10.258Z</time></trkpt><trkpt lat="39.5319783" lon="16.0573983"><ele>522.0</ele><time>2026-04-27T07:05:11.269Z</time></trkpt><trkpt lat="39.5319517" lon="16.0572233"><ele>521.0</ele><time>2026-04-27T07:05:12.267Z</time></trkpt><trkpt lat="39.5319217" lon="16.0570633"><ele>520.0</ele><time>2026-04-27T07:05:13.273Z</time></trkpt><trkpt lat="39.531895" lon="16.0569133"><ele>519.0</ele><time>2026-04-27T07:05:14.261Z</time></trkpt><trkpt lat="39.5318917" lon="16.0567683"><ele>519.0</ele><time>2026-04-27T07:05:15.26Z</time></trkpt><trkpt lat="39.5319017" lon="16.056625"><ele>519.0</ele><time>2026-04-27T07:05:16.26Z</time></trkpt><trkpt lat="39.5319433" lon="16.0564717"><ele>519.0</ele><time>2026-04-27T07:05:17.27Z</time></trkpt><trkpt lat="39.5319917" lon="16.0563083"><ele>519.0</ele><time>2026-04-27T07:05:18.264Z</time></trkpt><trkpt lat="39.532075" lon="16.0561267"><ele>525.3333333333334</ele><time>2026-04-27T07:05:19.279Z</time></trkpt><trkpt lat="39.532165" lon="16.055935"><ele>531.6666666666667</ele><time>2026-04-27T07:05:20.259Z</time></trkpt><trkpt lat="39.532245" lon="16.0557583"><ele>538.0</ele><time>2026-04-27T07:05:21.262Z</time></trkpt><trkpt lat="39.5323" lon="16.0555983"><ele>539.0</ele><time>2026-04-27T07:05:22.263Z</time></trkpt><trkpt lat="39.5323217" lon="16.0554367"><ele>540.0</ele><time>2026-04-27T07:05:23.266Z</time></trkpt><trkpt lat="39.5323583" lon="16.0553083"><ele>541.0</ele><time>2026-04-27T07:05:25.279Z</time></trkpt><trkpt lat="39.532245" lon="16.0552417"><ele>542.0</ele><time>2026-04-27T07:05:27.266Z</time></trkpt><trkpt lat="39.5321683" lon="16.05521"><ele>543.0</ele><time>2026-04-27T07:05:28.254Z</time></trkpt><trkpt lat="39.5320883" lon="16.0552017"><ele>544.1999999999999</ele><time>2026-04-27T07:05:29.264Z</time></trkpt><trkpt lat="39.53199" lon="16.0551867"><ele>545.4</ele><time>2026-04-27T07:05:30.257Z</time></trkpt><trkpt lat="39.5318817" lon="16.055175"><ele>546.5999999999999</ele><time>2026-04-27T07:05:31.287Z</time></trkpt><trkpt lat="39.531765" lon="16.0551383"><ele>547.8</ele><time>2026-04-27T07:05:32.26Z</time></trkpt><trkpt lat="39.53165" lon="16.0551133"><ele>549.0</ele><time>2026-04-27T07:05:33.264Z</time></trkpt><trkpt lat="39.5315483" lon="16.0550983"><ele>522.0</ele><time>2026-04-27T07:05:34.268Z</time></trkpt><trkpt lat="39.5320417" lon="16.058525"><ele>522.0</ele><time>2026-04-27T07:05:04.256Z</time></trkpt><trkpt lat="39.53205" lon="16.0583983"><ele>522.0</ele><time>2026-04-27T07:05:05.27Z</time></trkpt><trkpt lat="39.532055" lon="16.0582617"><ele>522.0</ele><time>2026-04-27T07:05:06.261Z</time></trkpt><trkpt lat="39.5320517" lon="16.0581183"><ele>522.0</ele><time>2026-04-27T07:05:07.283Z</time></trkpt><trkpt lat="39.5320367" lon="16.057955"><ele>522.0</ele><time>2026-04-27T07:05:08.264Z</time></trkpt><trkpt lat="39.532015" lon="16.0577783"><ele>522.25</ele><time>2026-04-27T07:05:09.266Z</time></trkpt><trkpt lat="39.531995" lon="16.057585"><ele>522.5</ele><time>2026-04-27T07:05:10.258Z</time></trkpt><trkpt lat="39.5319783" lon="16.0573983"><ele>522.75</ele><time>2026-04-27T07:05:11.269Z</time></trkpt><trkpt lat="39.5319517" lon="16.0572233"><ele>523.0</ele><time>2026-04-27T07:05:12.267Z</time></trkpt><trkpt lat="39.5319217" lon="16.0570633"><ele>522.0</ele><time>2026-04-27T07:05:13.273Z</time></trkpt><trkpt lat="39.531895" lon="16.0569133"><ele>521.0</ele><time>2026-04-27T07:05:14.261Z</time></trkpt><trkpt lat="39.5318917" lon="16.0567683"><ele>520.0</ele><time>2026-04-27T07:05:15.26Z</time></trkpt><trkpt lat="39.5319017" lon="16.056625"><ele>519.0</ele><time>2026-04-27T07:05:16.26Z</time></trkpt><trkpt lat="39.5319433" lon="16.0564717"><ele>518.3333333333334</ele><time>2026-04-27T07:05:17.27Z</time></trkpt><trkpt lat="39.5319917" lon="16.0563083"><ele>517.6666666666667</ele><time>2026-04-27T07:05:18.264Z</time></trkpt><trkpt lat="39.532075" lon="16.0561267"><ele>517.0</ele><time>2026-04-27T07:05:19.279Z</time></trkpt><trkpt lat="39.532165" lon="16.055935"><ele>523.5</ele><time>2026-04-27T07:05:20.259Z</time></trkpt><trkpt lat="39.532245" lon="16.0557583"><ele>530.0</ele><time>2026-04-27T07:05:21.262Z</time></trkpt><trkpt lat="39.5323" lon="16.0555983"><ele>536.5</ele><time>2026-04-27T07:05:22.263Z</time></trkpt><trkpt lat="39.5323217" lon="16.0554367"><ele>543.0</ele><time>2026-04-27T07:05:23.266Z</time></trkpt><trkpt lat="39.5323583" lon="16.0553083"><ele>543.0</ele><time>2026-04-27T07:05:25.279Z</time></trkpt><trkpt lat="39.532245" lon="16.0552417"><ele>543.0</ele><time>2026-04-27T07:05:27.266Z</time></trkpt><trkpt lat="39.5321683" lon="16.05521"><ele>543.0</ele><time>2026-04-27T07:05:28.254Z</time></trkpt><trkpt lat="39.5320883" lon="16.0552017"><ele>543.0</ele><time>2026-04-27T07:05:29.264Z</time></trkpt><trkpt lat="39.53199" lon="16.0551867"><ele>543.0</ele><time>2026-04-27T07:05:30.257Z</time></trkpt><trkpt lat="39.5318817" lon="16.055175"><ele>544.1999999999999</ele><time>2026-04-27T07:05:31.287Z</time></trkpt><trkpt lat="39.531765" lon="16.0551383"><ele>545.4</ele><time>2026-04-27T07:05:32.26Z</time></trkpt><trkpt lat="39.53165" lon="16.0551133"><ele>546.5999999999999</ele><time>2026-04-27T07:05:33.264Z</time></trkpt><trkpt lat="39.5315483" lon="16.0550983"><ele>547.8</ele><time>2026-04-27T07:05:34.268Z</time></trkpt><trkpt lat="39.5314467" lon="16.0550933"><ele>549.0</ele><time>2026-04-27T07:05:35.264Z</time></trkpt><trkpt lat="39.5313467" lon="16.0551033"><ele>549.0</ele><time>2026-04-27T07:05:36.256Z</time></trkpt><trkpt lat="39.5312433" lon="16.0551367"><ele>549.0</ele><time>2026-04-27T07:05:37.281Z</time></trkpt><trkpt lat="39.5311267" lon="16.0551917"><ele>549.0</ele><time>2026-04-27T07:05:38.264Z</time></trkpt><trkpt lat="39.53099" lon="16.0552833"><ele>549.0</ele><time>2026-04-27T07:05:39.258Z</time></trkpt><trkpt lat="39.5308667" lon="16.0553467"><ele>549.25</ele><time>2026-04-27T07:05:40.263Z</time></trkpt><trkpt lat="39.5307417" lon="16.0554217"><ele>549.5</ele><time>2026-04-27T07:05:41.267Z</time></trkpt><trkpt lat="39.5306083" lon="16.0554517"><ele>549.75</ele><time>2026-04-27T07:05:42.259Z</time></trkpt><trkpt lat="39.5304683" lon="16.05549"><ele>550.0</ele><time>2026-04-27T07:05:43.288Z</time></trkpt><trkpt lat="39.5303267" lon="16.0555433"><ele>550.3333333333334</ele><time>2026-04-27T07:05:44.258Z</time></trkpt><trkpt lat="39.5301983" lon="16.0556217"><ele>550.6666666666666</ele><time>2026-04-27T07:05:45.256Z</time></trkpt><trkpt lat="39.5300783" lon="16.0557383"><ele>551.0</ele><time>2026-04-27T07:05:46.256Z</time></trkpt><trkpt lat="39.5299433" lon="16.0558733"><ele>552.6666666666666</ele><time>2026-04-27T07:05:47.272Z</time></trkpt><trkpt lat="39.5298083" lon="16.0560133"><ele>554.3333333333334</ele><time>2026-04-27T07:05:48.267Z</time></trkpt><trkpt lat="39.5296683" lon="16.056145"><ele>556.0</ele><time>2026-04-27T07:05:49.276Z</time></trkpt><trkpt lat="39.5295233" lon="16.0562783"><ele>556.0</ele><time>2026-04-27T07:05:50.26Z</time></trkpt><trkpt lat="39.5293867" lon="16.0564017"><ele>556.0</ele><time>2026-04-27T07:05:51.254Z</time></trkpt><trkpt lat="39.5292617" lon="16.0565033"><ele>556.0</ele><time>2026-04-27T07:05:52.258Z</time></trkpt><trkpt lat="39.5291483" lon="16.0565917"><ele>556.0</ele><time>2026-04-27T07:05:53.263Z</time></trkpt><trkpt lat="39.529045" lon="16.0566567"><ele>555.75</ele><time>2026-04-27T07:05:54.256Z</time></trkpt><trkpt lat="39.528925" lon="16.0566733"><ele>555.5</ele><time>2026-04-27T07:05:55.278Z</time></trkpt><trkpt lat="39.5288067" lon="16.0566783"><ele>555.25</ele><time>2026-04-27T07:05:56.254Z</time></trkpt><trkpt lat="39.52867" lon="16.05665"><ele>555.0</ele><time>2026-04-27T07:05:57.264Z</time></trkpt><trkpt lat="39.5285117" lon="16.0565983"><ele>555.0</ele><time>2026-04-27T07:05:58.258Z</time></trkpt><trkpt lat="39.5283583" lon="16.0565617"><ele>555.0</ele><time>2026-04-27T07:05:59.268Z</time></trkpt><trkpt lat="39.52821" lon="16.0565567"><ele>555.0</ele><time>2026-04-27T07:06:00.261Z</time></trkpt><trkpt lat="39.52807" lon="16.05657"><ele>555.0</ele><time>2026-04-27T07:06:01.293Z</time></trkpt><trkpt lat="39.52793" lon="16.0565933"><ele>549.25</ele><time>2026-04-27T07:06:02.257Z</time></trkpt><trkpt lat="39.5277867" lon="16.056635"><ele>543.5</ele><time>2026-04-27T07:06:03.27Z</time></trkpt><trkpt lat="39.5276467" lon="16.0566867"><ele>537.75</ele><time>2026-04-27T07:06:04.261Z</time></trkpt><trkpt lat="39.5275017" lon="16.0567217"><ele>532.0</ele><time>2026-04-27T07:06:05.266Z</time></trkpt><trkpt lat="39.5273533" lon="16.0567433"><ele>532.0</ele><time>2026-04-27T07:06:06.262Z</time></trkpt><trkpt lat="39.5272083" lon="16.05678"><ele>532.0</ele><time>2026-04-27T07:06:07.28Z</time></trkpt><trkpt lat="39.5270717" lon="16.0568233"><ele>532.0</ele><time>2026-04-27T07:06:08.261Z</time></trkpt><trkpt lat="39.526945" lon="16.0568683"><ele>532.0</ele><time>2026-04-27T07:06:09.262Z</time></trkpt><trkpt lat="39.52683" lon="16.0569117"><ele>535.2</ele><time>2026-04-27T07:06:10.264Z</time></trkpt><trkpt lat="39.5267233" lon="16.0569433"><ele>538.4000000000001</ele><time>2026-04-27T07:06:11.265Z</time></trkpt><trkpt lat="39.5266117" lon="16.0569633"><ele>541.5999999999999</ele><time>2026-04-27T07:06:12.257Z</time></trkpt><trkpt lat="39.5265017" lon="16.0569817"><ele>544.8</ele><time>2026-04-27T07:06:13.28Z</time></trkpt><trkpt lat="39.5263917" lon="16.0570217"><ele>548.0</ele><time>2026-04-27T07:06:14.264Z</time></trkpt><trkpt lat="39.5262783" lon="16.0570917"><ele>550.5</ele><time>2026-04-27T07:06:15.267Z</time></trkpt><trkpt lat="39.526165" lon="16.0571833"><ele>553.0</ele><time>2026-04-27T07:06:16.256Z</time></trkpt><trkpt lat="39.52606" lon="16.0572833"><ele>555.5</ele><time>2026-04-27T07:06:17.267Z</time></trkpt><trkpt lat="39.525965" lon="16.0573633"><ele>558.0</ele><time>2026-04-27T07:06:18.259Z</time></trkpt><trkpt lat="39.525875" lon="16.0574283"><ele>555.5</ele><time>2026-04-27T07:06:19.281Z</time></trkpt><trkpt lat="39.5257883" lon="16.0574617"><ele>553.0</ele><time>2026-04-27T07:06:20.26Z</time></trkpt><trkpt lat="39.52571" lon="16.0574883"><ele>550.5</ele><time>2026-04-27T07:06:21.273Z</time></trkpt><trkpt lat="39.52563" lon="16.0575367"><ele>548.0</ele><time>2026-04-27T07:06:22.27Z</time></trkpt><trkpt lat="39.525555" lon="16.0576017"><ele>545.5</ele><time>2026-04-27T07:06:23.264Z</time></trkpt><trkpt lat="39.5254817" lon="16.057655"><ele>543.0</ele><time>2026-04-27T07:06:24.257Z</time></trkpt><trkpt lat="39.5254083" lon="16.0576967"><ele>544.25</ele><time>2026-04-27T07:06:25.297Z</time></trkpt><trkpt lat="39.52532" lon="16.05773"><ele>545.5</ele><time>2026-04-27T07:06:26.253Z</time></trkpt><trkpt lat="39.525215" lon="16.05776"><ele>546.75</ele><time>2026-04-27T07:06:27.261Z</time></trkpt><trkpt lat="39.5250917" lon="16.0577467"><ele>548.0</ele><time>2026-04-27T07:06:28.258Z</time></trkpt><trkpt lat="39.5249567" lon="16.0577233"><ele>548.0</ele><time>2026-04-27T07:06:29.263Z</time></trkpt><trkpt lat="39.5248083" lon="16.0576767"><ele>548.0</ele><time>2026-04-27T07:06:30.263Z</time></trkpt><trkpt lat="39.5246333" lon="16.0576167"><ele>548.0</ele><time>2026-04-27T07:06:31.297Z</time></trkpt><trkpt lat="39.52448" lon="16.05757"><ele>549.5</ele><time>2026-04-27T07:06:32.261Z</time></trkpt><trkpt lat="39.52433" lon="16.05753"><ele>551.0</ele><time>2026-04-27T07:06:33.266Z</time></trkpt><trkpt lat="39.5241933" lon="16.0574867"><ele>552.5</ele><time>2026-04-27T07:06:34.262Z</time></trkpt><trkpt lat="39.5240683" lon="16.057455"><ele>554.0</ele><time>2026-04-27T07:06:35.265Z</time></trkpt><trkpt lat="39.5239517" lon="16.057425"><ele>557.3333333333333</ele><time>2026-04-27T07:06:36.267Z</time></trkpt><trkpt lat="39.5238583" lon="16.057405"><ele>560.6666666666666</ele><time>2026-04-27T07:06:37.283Z</time></trkpt><trkpt lat="39.523765" lon="16.05738"><ele>564.0</ele><time>2026-04-27T07:06:38.261Z</time></trkpt><trkpt lat="39.5236883" lon="16.0573633"><ele>567.3333333333334</ele><time>2026-04-27T07:06:39.256Z</time></trkpt><trkpt lat="39.523615" lon="16.0573567"><ele>570.6666666666667</ele><time>2026-04-27T07:06:40.268Z</time></trkpt><trkpt lat="39.5235467" lon="16.0573667"><ele>574.0</ele><time>2026-04-27T07:06:41.261Z</time></trkpt><trkpt lat="39.52349" lon="16.0574033"><ele>572.8</ele><time>2026-04-27T07:06:42.255Z</time></trkpt><trkpt lat="39.52343" lon="16.057445"><ele>571.5999999999999</ele><time>2026-04-27T07:06:43.276Z</time></trkpt><trkpt lat="39.5233617" lon="16.057505"><ele>570.4</ele><time>2026-04-27T07:06:44.26Z</time></trkpt><trkpt lat="39.5232917" lon="16.0575783"><ele>569.1999999999999</ele><time>2026-04-27T07:06:45.264Z</time></trkpt><trkpt lat="39.5232117" lon="16.0576583"><ele>568.0</ele><time>2026-04-27T07:06:46.26Z</time></trkpt><trkpt lat="39.5231183" lon="16.0577517"><ele>568.0</ele><time>2026-04-27T07:06:47.267Z</time></trkpt><trkpt lat="39.5230233" lon="16.057845"><ele>568.0</ele><time>2026-04-27T07:06:48.253Z</time></trkpt><trkpt lat="39.5229183" lon="16.0579283"><ele>568.0</ele><time>2026-04-27T07:06:49.279Z</time></trkpt><trkpt lat="39.5228117" lon="16.0580183"><ele>568.0</ele><time>2026-04-27T07:06:50.258Z</time></trkpt><trkpt lat="39.5227133" lon="16.0581033"><ele>569.4</ele><time>2026-04-27T07:06:51.266Z</time></trkpt><trkpt lat="39.5226417" lon="16.0582117"><ele>570.8</ele><time>2026-04-27T07:06:52.26Z</time></trkpt><trkpt lat="39.52257" lon="16.0582967"><ele>572.2</ele><time>2026-04-27T07:06:53.261Z</time></trkpt><trkpt lat="39.522495" lon="16.058385"><ele>573.6</ele><time>2026-04-27T07:06:54.262Z</time></trkpt><trkpt lat="39.5224167" lon="16.058475"><ele>575.0</ele><time>2026-04-27T07:06:55.295Z</time></trkpt><trkpt lat="39.5223283" lon="16.05856"><ele>575.0</ele><time>2026-04-27T07:06:56.255Z</time></trkpt><trkpt lat="39.5222467" lon="16.05864"><ele>575.0</ele><time>2026-04-27T07:06:57.255Z</time></trkpt><trkpt lat="39.5221667" lon="16.058715"><ele>575.0</ele><time>2026-04-27T07:06:58.264Z</time></trkpt><trkpt lat="39.52205" lon="16.0587817"><ele>575.0</ele><time>2026-04-27T07:06:59.263Z</time></trkpt><trkpt lat="39.5219217" lon="16.05885"><ele>576.2</ele><time>2026-04-27T07:07:00.263Z</time></trkpt><trkpt lat="39.521825" lon="16.058925"><ele>577.4</ele><time>2026-04-27T07:07:01.299Z</time></trkpt><trkpt lat="39.5217317" lon="16.058995"><ele>578.6</ele><time>2026-04-27T07:07:02.259Z</time></trkpt><trkpt lat="39.5216567" lon="16.059055"><ele>579.8</ele><time>2026-04-27T07:07:03.265Z</time></trkpt><trkpt lat="39.5216" lon="16.0591033"><ele>581.0</ele><time>2026-04-27T07:07:04.262Z</time></trkpt><trkpt lat="39.5215233" lon="16.0592133"><ele>581.0</ele><time>2026-04-27T07:07:06.259Z</time></trkpt><trkpt lat="39.5214867" lon="16.0593017"><ele>581.0</ele><time>2026-04-27T07:07:07.286Z</time></trkpt><trkpt lat="39.521455" lon="16.0594067"><ele>581.0</ele><time>2026-04-27T07:07:08.257Z</time></trkpt><trkpt lat="39.5214117" lon="16.059505"><ele>581.0</ele><time>2026-04-27T07:07:09.263Z</time></trkpt><trkpt lat="39.5213733" lon="16.0595833"><ele>581.0</ele><time>2026-04-27T07:07:10.257Z</time></trkpt><trkpt lat="39.521335" lon="16.0596483"><ele>581.0</ele><time>2026-04-27T07:07:11.257Z</time></trkpt><trkpt lat="39.5212583" lon="16.0596933"><ele>583.5</ele><time>2026-04-27T07:07:13.283Z</time></trkpt><trkpt lat="39.52121" lon="16.0595733"><ele>586.0</ele><time>2026-04-27T07:07:15.262Z</time></trkpt><trkpt lat="39.521195" lon="16.05949"><ele>588.5</ele><time>2026-04-27T07:07:16.263Z</time></trkpt><trkpt lat="39.5211917" lon="16.0594"><ele>591.0</ele><time>2026-04-27T07:07:17.27Z</time></trkpt><trkpt lat="39.5212067" lon="16.0592917"><ele>593.5</ele><time>2026-04-27T07:07:18.258Z</time></trkpt><trkpt lat="39.52122" lon="16.0591767"><ele>596.0</ele><time>2026-04-27T07:07:19.278Z</time></trkpt><trkpt lat="39.5212467" lon="16.0590567"><ele>597.0</ele><time>2026-04-27T07:07:20.257Z</time></trkpt><trkpt lat="39.52128" lon="16.0589367"><ele>598.0</ele><time>2026-04-27T07:07:21.268Z</time></trkpt><trkpt lat="39.5213033" lon="16.0588283"><ele>599.0</ele><time>2026-04-27T07:07:22.262Z</time></trkpt><trkpt lat="39.5213017" lon="16.0587283"><ele>600.0</ele><time>2026-04-27T07:07:23.264Z</time></trkpt><trkpt lat="39.5212917" lon="16.0586317"><ele>601.0</ele><time>2026-04-27T07:07:24.259Z</time></trkpt><trkpt lat="39.5212333" lon="16.0584917"><ele>603.4</ele><time>2026-04-27T07:07:26.257Z</time></trkpt><trkpt lat="39.521135" lon="16.0584533"><ele>605.8</ele><time>2026-04-27T07:07:28.262Z</time></trkpt><trkpt lat="39.5210617" lon="16.0584933"><ele>608.1999999999999</ele><time>2026-04-27T07:07:29.269Z</time></trkpt><trkpt lat="39.5209717" lon="16.05857"><ele>610.6</ele><time>2026-04-27T07:07:30.268Z</time></trkpt><trkpt lat="39.5208733" lon="16.0586733"><ele>613.0</ele><time>2026-04-27T07:07:31.303Z</time></trkpt><trkpt lat="39.5207933" lon="16.0587783"><ele>613.0</ele><time>2026-04-27T07:07:32.26Z</time></trkpt><trkpt lat="39.5207233" lon="16.0588583"><ele>613.0</ele><time>2026-04-27T07:07:33.259Z</time></trkpt><trkpt lat="39.5206533" lon="16.0589233"><ele>613.0</ele><time>2026-04-27T07:07:34.257Z</time></trkpt><trkpt lat="39.5205883" lon="16.0589383"><ele>613.0</ele><time>2026-04-27T07:07:35.268Z</time></trkpt><trkpt lat="39.5205467" lon="16.058855"><ele>613.0</ele><time>2026-04-27T07:07:37.279Z</time></trkpt><trkpt lat="39.520555" lon="16.0587483"><ele>613.0</ele><time>2026-04-27T07:07:38.261Z</time></trkpt><trkpt lat="39.520575" lon="16.0586067"><ele>613.0</ele><time>2026-04-27T07:07:39.263Z</time></trkpt><trkpt lat="39.52059" lon="16.0584717"><ele>613.0</ele><time>2026-04-27T07:07:40.258Z</time></trkpt><trkpt lat="39.5205917" lon="16.0583517"><ele>613.0</ele><time>2026-04-27T07:07:41.267Z</time></trkpt><trkpt lat="39.520595" lon="16.058255"><ele>613.0</ele><time>2026-04-27T07:07:42.26Z</time></trkpt><trkpt lat="39.520615" lon="16.05817"><ele>613.0</ele><time>2026-04-27T07:07:43.279Z</time></trkpt><trkpt lat="39.5206617" lon="16.058095"><ele>613.0</ele><time>2026-04-27T07:07:44.257Z</time></trkpt><trkpt lat="39.5207283" lon="16.0580233"><ele>621.0</ele><time>2026-04-27T07:07:45.257Z</time></trkpt><trkpt lat="39.52081" lon="16.0579383"><ele>629.0</ele><time>2026-04-27T07:07:46.262Z</time></trkpt><trkpt lat="39.5209117" lon="16.0578667"><ele>637.0</ele><time>2026-04-27T07:07:47.267Z</time></trkpt><trkpt lat="39.5210233" lon="16.057805"><ele>645.0</ele><time>2026-04-27T07:07:48.259Z</time></trkpt><trkpt lat="39.5211633" lon="16.0577217"><ele>647.25</ele><time>2026-04-27T07:07:49.28Z</time></trkpt><trkpt lat="39.52129" lon="16.0576417"><ele>649.5</ele><time>2026-04-27T07:07:50.267Z</time></trkpt><trkpt lat="39.5214033" lon="16.057565"><ele>651.75</ele><time>2026-04-27T07:07:51.263Z</time></trkpt><trkpt lat="39.521515" lon="16.0574783"><ele>654.0</ele><time>2026-04-27T07:07:52.259Z</time></trkpt><trkpt lat="39.52163" lon="16.0573717"><ele>654.0</ele><time>2026-04-27T07:07:53.262Z</time></trkpt><trkpt lat="39.5217517" lon="16.0572817"><ele>654.0</ele><time>2026-04-27T07:07:54.262Z</time></trkpt><trkpt lat="39.5218567" lon="16.0571583"><ele>654.0</ele><time>2026-04-27T07:07:55.319Z</time></trkpt><trkpt lat="39.5219417" lon="16.0570233"><ele>654.0</ele><time>2026-04-27T07:07:56.26Z</time></trkpt><trkpt lat="39.522025" lon="16.05691"><ele>649.2</ele><time>2026-04-27T07:07:57.262Z</time></trkpt><trkpt lat="39.5220967" lon="16.05681"><ele>644.4000000000001</ele><time>2026-04-27T07:07:58.262Z</time></trkpt><trkpt lat="39.52214" lon="16.0567017"><ele>639.6</ele><time>2026-04-27T07:07:59.265Z</time></trkpt><trkpt lat="39.52217" lon="16.0565917"><ele>634.8</ele><time>2026-04-27T07:08:00.262Z</time></trkpt><trkpt lat="39.5221483" lon="16.0564617"><ele>630.0</ele><time>2026-04-27T07:08:01.298Z</time></trkpt><trkpt lat="39.522125" lon="16.0563233"><ele>630.0</ele><time>2026-04-27T07:08:02.258Z</time></trkpt><trkpt lat="39.52208" lon="16.056195"><ele>630.0</ele><time>2026-04-27T07:08:03.254Z</time></trkpt><trkpt lat="39.5220233" lon="16.0560567"><ele>630.0</ele><time>2026-04-27T07:08:04.257Z</time></trkpt><trkpt lat="39.52196" lon="16.055955"><ele>630.0</ele><time>2026-04-27T07:08:05.264Z</time></trkpt><trkpt lat="39.5219233" lon="16.0558233"><ele>630.0</ele><time>2026-04-27T07:08:06.262Z</time></trkpt><trkpt lat="39.521895" lon="16.0556917"><ele>638.6</ele><time>2026-04-27T07:08:07.274Z</time></trkpt><trkpt lat="39.5218917" lon="16.0555733"><ele>647.2</ele><time>2026-04-27T07:08:08.259Z</time></trkpt><trkpt lat="39.5218967" lon="16.0554517"><ele>655.8</ele><time>2026-04-27T07:08:09.264Z</time></trkpt><trkpt lat="39.52193" lon="16.0553167"><ele>664.4</ele><time>2026-04-27T07:08:10.268Z</time></trkpt><trkpt lat="39.52194" lon="16.0551917"><ele>673.0</ele><time>2026-04-27T07:08:11.266Z</time></trkpt><trkpt lat="39.5219383" lon="16.055055"><ele>675.0</ele><time>2026-04-27T07:08:12.263Z</time></trkpt><trkpt lat="39.5219267" lon="16.0549317"><ele>677.0</ele><time>2026-04-27T07:08:13.28Z</time></trkpt><trkpt lat="39.521915" lon="16.05481"><ele>679.0</ele><time>2026-04-27T07:08:14.255Z</time></trkpt><trkpt lat="39.521895" lon="16.0546967"><ele>681.0</ele><time>2026-04-27T07:08:15.266Z</time></trkpt><trkpt lat="39.5218683" lon="16.054595"><ele>683.0</ele><time>2026-04-27T07:08:16.264Z</time></trkpt><trkpt lat="39.5218483" lon="16.054505"><ele>685.0</ele><time>2026-04-27T07:08:17.264Z</time></trkpt><trkpt lat="39.5218333" lon="16.054425"><ele>685.0</ele><time>2026-04-27T07:08:18.26Z</time></trkpt><trkpt lat="39.52182" lon="16.0543433"><ele>685.0</ele><time>2026-04-27T07:08:19.276Z</time></trkpt><trkpt lat="39.5218233" lon="16.0542583"><ele>685.0</ele><time>2026-04-27T07:08:20.257Z</time></trkpt><trkpt lat="39.5218933" lon="16.0542383"><ele>685.0</ele><time>2026-04-27T07:08:21.267Z</time></trkpt><trkpt lat="39.521995" lon="16.0542417"><ele>685.0</ele><time>2026-04-27T07:08:22.259Z</time></trkpt><trkpt lat="39.5220983" lon="16.0542133"><ele>685.0</ele><time>2026-04-27T07:08:23.265Z</time></trkpt><trkpt lat="39.5222267" lon="16.0541667"><ele>684.4</ele><time>2026-04-27T07:08:24.259Z</time></trkpt><trkpt lat="39.5223333" lon="16.0540967"><ele>683.8</ele><time>2026-04-27T07:08:25.281Z</time></trkpt><trkpt lat="39.52241" lon="16.05401"><ele>683.2</ele><time>2026-04-27T07:08:26.263Z</time></trkpt><trkpt lat="39.5224867" lon="16.053925"><ele>682.6</ele><time>2026-04-27T07:08:27.266Z</time></trkpt><trkpt lat="39.5225367" lon="16.05383"><ele>682.0</ele><time>2026-04-27T07:08:28.258Z</time></trkpt><trkpt lat="39.5225633" lon="16.0537383"><ele>682.0</ele><time>2026-04-27T07:08:29.265Z</time></trkpt><trkpt lat="39.5225483" lon="16.05364"><ele>682.0</ele><time>2026-04-27T07:08:30.263Z</time></trkpt><trkpt lat="39.5225067" lon="16.053545"><ele>682.0</ele><time>2026-04-27T07:08:31.27Z</time></trkpt><trkpt lat="39.5224767" lon="16.0534517"><ele>682.0</ele><time>2026-04-27T07:08:32.265Z</time></trkpt><trkpt lat="39.522455" lon="16.0533517"><ele>682.0</ele><time>2026-04-27T07:08:33.261Z</time></trkpt><trkpt lat="39.5224567" lon="16.0532017"><ele>682.0</ele><time>2026-04-27T07:08:35.257Z</time></trkpt><trkpt lat="39.5224033" lon="16.053115"><ele>688.2</ele><time>2026-04-27T07:08:37.284Z</time></trkpt><trkpt lat="39.5223" lon="16.0531133"><ele>694.4000000000001</ele><time>2026-04-27T07:08:39.263Z</time></trkpt><trkpt lat="39.522215" lon="16.0530917"><ele>700.5999999999999</ele><time>2026-04-27T07:08:40.258Z</time></trkpt><trkpt lat="39.522105" lon="16.0531833"><ele>706.8</ele><time>2026-04-27T07:08:42.261Z</time></trkpt><trkpt lat="39.5219983" lon="16.053235"><ele>713.0</ele><time>2026-04-27T07:08:44.258Z</time></trkpt><trkpt lat="39.521905" lon="16.053245"><ele>714.8</ele><time>2026-04-27T07:08:46.262Z</time></trkpt><trkpt lat="39.52185" lon="16.0531533"><ele>716.5999999999999</ele><time>2026-04-27T07:08:48.261Z</time></trkpt><trkpt lat="39.521865" lon="16.053065"><ele>718.4000000000001</ele><time>2026-04-27T07:08:49.284Z</time></trkpt><trkpt lat="39.5218983" lon="16.0529617"><ele>720.2</ele><time>2026-04-27T07:08:50.256Z</time></trkpt><trkpt lat="39.5219283" lon="16.0528817"><ele>722.0</ele><time>2026-04-27T07:08:51.263Z</time></trkpt><trkpt lat="39.5220517" lon="16.0527833"><ele>719.75</ele><time>2026-04-27T07:08:52.262Z</time></trkpt><trkpt lat="39.522175" lon="16.05272"><ele>717.5</ele><time>2026-04-27T07:08:53.264Z</time></trkpt><trkpt lat="39.522305" lon="16.05267"><ele>715.25</ele><time>2026-04-27T07:08:54.265Z</time></trkpt><trkpt lat="39.522455" lon="16.0526233"><ele>713.0</ele><time>2026-04-27T07:08:55.321Z</time></trkpt><trkpt lat="39.5225833" lon="16.052545"><ele>713.0</ele><time>2026-04-27T07:08:56.26Z</time></trkpt><trkpt lat="39.5227083" lon="16.052475"><ele>713.0</ele><time>2026-04-27T07:08:57.263Z</time></trkpt><trkpt lat="39.5228417" lon="16.0524283"><ele>713.0</ele><time>2026-04-27T07:08:58.267Z</time></trkpt><trkpt lat="39.52296" lon="16.0523683"><ele>713.0</ele><time>2026-04-27T07:08:59.263Z</time></trkpt><trkpt lat="39.523065" lon="16.0523267"><ele>718.8</ele><time>2026-04-27T07:09:00.263Z</time></trkpt><trkpt lat="39.5231767" lon="16.0522933"><ele>724.5999999999999</ele><time>2026-04-27T07:09:01.298Z</time></trkpt><trkpt lat="39.52329" lon="16.05228"><ele>730.4000000000001</ele><time>2026-04-27T07:09:02.269Z</time></trkpt><trkpt lat="39.52341" lon="16.0522833"><ele>736.2</ele><time>2026-04-27T07:09:03.263Z</time></trkpt><trkpt lat="39.5234983" lon="16.0523417"><ele>742.0</ele><time>2026-04-27T07:09:04.264Z</time></trkpt><trkpt lat="39.5235883" lon="16.0523617"><ele>742.0</ele><time>2026-04-27T07:09:05.263Z</time></trkpt><trkpt lat="39.5236433" lon="16.052405"><ele>742.0</ele><time>2026-04-27T07:09:06.256Z</time></trkpt><trkpt lat="39.5237083" lon="16.0524367"><ele>742.0</ele><time>2026-04-27T07:09:07.282Z</time></trkpt><trkpt lat="39.52377" lon="16.0524033"><ele>742.0</ele><time>2026-04-27T07:09:08.258Z</time></trkpt><trkpt lat="39.5238517" lon="16.0522933"><ele>742.0</ele><time>2026-04-27T07:09:10.257Z</time></trkpt><trkpt lat="39.5238883" lon="16.0522117"><ele>742.0</ele><time>2026-04-27T07:09:11.26Z</time></trkpt><trkpt lat="39.52392" lon="16.05212"><ele>741.0</ele><time>2026-04-27T07:09:12.269Z</time></trkpt><trkpt lat="39.5239633" lon="16.05205"><ele>740.0</ele><time>2026-04-27T07:09:13.275Z</time></trkpt><trkpt lat="39.52402" lon="16.0519817"><ele>739.0</ele><time>2026-04-27T07:09:14.261Z</time></trkpt><trkpt lat="39.5240867" lon="16.0519217"><ele>738.0</ele><time>2026-04-27T07:09:15.262Z</time></trkpt><trkpt lat="39.5241483" lon="16.05186"><ele>737.0</ele><time>2026-04-27T07:09:16.259Z</time></trkpt><trkpt lat="39.5242" lon="16.0518017"><ele>736.0</ele><time>2026-04-27T07:09:17.267Z</time></trkpt><trkpt lat="39.5242433" lon="16.051725"><ele>735.0</ele><time>2026-04-27T07:09:19.278Z</time></trkpt><trkpt lat="39.5241583" lon="16.0517033"><ele>735.0</ele><time>2026-04-27T07:09:22.258Z</time></trkpt><trkpt lat="39.52406" lon="16.0517267"><ele>735.0</ele><time>2026-04-27T07:09:23.264Z</time></trkpt><trkpt lat="39.52393" lon="16.0517533"><ele>735.0</ele><time>2026-04-27T07:09:24.263Z</time></trkpt><trkpt lat="39.52383" lon="16.0517767"><ele>735.0</ele><time>2026-04-27T07:09:25.324Z</time></trkpt><trkpt lat="39.5236933" lon="16.05186"><ele>736.4</ele><time>2026-04-27T07:09:26.256Z</time></trkpt><trkpt lat="39.5235883" lon="16.0519067"><ele>737.8</ele><time>2026-04-27T07:09:27.266Z</time></trkpt><trkpt lat="39.5234783" lon="16.0519317"><ele>739.2</ele><time>2026-04-27T07:09:28.26Z</time></trkpt><trkpt lat="39.5233717" lon="16.0519233"><ele>740.6</ele><time>2026-04-27T07:09:29.262Z</time></trkpt><trkpt lat="39.5232667" lon="16.05188"><ele>742.0</ele><time>2026-04-27T07:09:30.261Z</time></trkpt><trkpt lat="39.5231533" lon="16.0518117"><ele>742.0</ele><time>2026-04-27T07:09:31.288Z</time></trkpt><trkpt lat="39.5230417" lon="16.0517533"><ele>742.0</ele><time>2026-04-27T07:09:32.261Z</time></trkpt><trkpt lat="39.5229283" lon="16.0517083"><ele>742.0</ele><time>2026-04-27T07:09:33.263Z</time></trkpt><trkpt lat="39.5228133" lon="16.051655"><ele>742.0</ele><time>2026-04-27T07:09:34.256Z</time></trkpt><trkpt lat="39.5227083" lon="16.051595"><ele>747.8</ele><time>2026-04-27T07:09:35.255Z</time></trkpt><trkpt lat="39.5225983" lon="16.0515467"><ele>753.6</ele><time>2026-04-27T07:09:36.264Z</time></trkpt><trkpt lat="39.5225" lon="16.051505"><ele>759.4</ele><time>2026-04-27T07:09:37.279Z</time></trkpt><trkpt lat="39.5224183" lon="16.05148"><ele>765.1999999999999</ele><time>2026-04-27T07:09:38.263Z</time></trkpt><trkpt lat="39.5223317" lon="16.0514783"><ele>771.0</ele><time>2026-04-27T07:09:39.258Z</time></trkpt><trkpt lat="39.5222367" lon="16.0515"><ele>771.0</ele><time>2026-04-27T07:09:40.267Z</time></trkpt><trkpt lat="39.5221333" lon="16.051515"><ele>771.0</ele><time>2026-04-27T07:09:41.264Z</time></trkpt><trkpt lat="39.52201" lon="16.05152"><ele>771.0</ele><time>2026-04-27T07:09:42.259Z</time></trkpt><trkpt lat="39.5218867" lon="16.051515"><ele>771.0</ele><time>2026-04-27T07:09:43.277Z</time></trkpt><trkpt lat="39.52177" lon="16.05149"><ele>773.1999999999999</ele><time>2026-04-27T07:09:44.264Z</time></trkpt><trkpt lat="39.5216567" lon="16.05146"><ele>775.4</ele><time>2026-04-27T07:09:45.26Z</time></trkpt><trkpt lat="39.5215617" lon="16.0514633"><ele>777.6</ele><time>2026-04-27T07:09:46.261Z</time></trkpt><trkpt lat="39.5214633" lon="16.051435"><ele>779.8</ele><time>2026-04-27T07:09:47.261Z</time></trkpt><trkpt lat="39.5213617" lon="16.05138"><ele>782.0</ele><time>2026-04-27T07:09:48.257Z</time></trkpt><trkpt lat="39.5212583" lon="16.0512867"><ele>781.2</ele><time>2026-04-27T07:09:49.283Z</time></trkpt><trkpt lat="39.52117" lon="16.0511833"><ele>780.4000000000001</ele><time>2026-04-27T07:09:50.263Z</time></trkpt><trkpt lat="39.52108" lon="16.0511133"><ele>779.5999999999999</ele><time>2026-04-27T07:09:51.264Z</time></trkpt><trkpt lat="39.5209983" lon="16.0510483"><ele>778.8</ele><time>2026-04-27T07:09:52.261Z</time></trkpt><trkpt lat="39.5209283" lon="16.0509917"><ele>778.0</ele><time>2026-04-27T07:09:53.256Z</time></trkpt><trkpt lat="39.5208667" lon="16.0509717"><ele>778.0</ele><time>2026-04-27T07:09:54.262Z</time></trkpt><trkpt lat="39.5208033" lon="16.0509667"><ele>778.0</ele><time>2026-04-27T07:09:55.325Z</time></trkpt><trkpt lat="39.5206733" lon="16.0510517"><ele>778.0</ele><time>2026-04-27T07:09:57.265Z</time></trkpt><trkpt lat="39.520585" lon="16.051125"><ele>778.0</ele><time>2026-04-27T07:09:58.261Z</time></trkpt><trkpt lat="39.5205" lon="16.0512017"><ele>778.0</ele><time>2026-04-27T07:09:59.258Z</time></trkpt><trkpt lat="39.520415" lon="16.0512583"><ele>777.4</ele><time>2026-04-27T07:10:00.263Z</time></trkpt><trkpt lat="39.5203367" lon="16.051295"><ele>776.8</ele><time>2026-04-27T07:10:01.293Z</time></trkpt><trkpt lat="39.5202583" lon="16.0513167"><ele>776.2</ele><time>2026-04-27T07:10:02.257Z</time></trkpt><trkpt lat="39.5201817" lon="16.05131"><ele>775.6</ele><time>2026-04-27T07:10:03.257Z</time></trkpt><trkpt lat="39.52011" lon="16.0511817"><ele>775.0</ele><time>2026-04-27T07:10:04.258Z</time></trkpt><trkpt lat="39.52002" lon="16.0510683"><ele>775.0</ele><time>2026-04-27T07:10:05.264Z</time></trkpt><trkpt lat="39.5199267" lon="16.0509467"><ele>775.0</ele><time>2026-04-27T07:10:06.259Z</time></trkpt><trkpt lat="39.519825" lon="16.0508033"><ele>775.0</ele><time>2026-04-27T07:10:07.277Z</time></trkpt><trkpt lat="39.5197283" lon="16.05068"><ele>775.0</ele><time>2026-04-27T07:10:08.272Z</time></trkpt><trkpt lat="39.519635" lon="16.05058"><ele>778.8</ele><time>2026-04-27T07:10:09.269Z</time></trkpt><trkpt lat="39.51954" lon="16.050495"><ele>782.6</ele><time>2026-04-27T07:10:10.266Z</time></trkpt><trkpt lat="39.5194717" lon="16.0504433"><ele>786.4000000000001</ele><time>2026-04-27T07:10:11.265Z</time></trkpt><trkpt lat="39.519375" lon="16.050435"><ele>790.2</ele><time>2026-04-27T07:10:13.278Z</time></trkpt><trkpt lat="39.5192833" lon="16.0505567"><ele>794.0</ele><time>2026-04-27T07:10:15.269Z</time></trkpt><trkpt lat="39.5191817" lon="16.0506283"><ele>794.0</ele><time>2026-04-27T07:10:17.26Z</time></trkpt><trkpt lat="39.51911" lon="16.0506067"><ele>794.0</ele><time>2026-04-27T07:10:19.281Z</time></trkpt><trkpt lat="39.51902" lon="16.0505067"><ele>794.0</ele><time>2026-04-27T07:10:21.262Z</time></trkpt><trkpt lat="39.5189717" lon="16.0504283"><ele>794.0</ele><time>2026-04-27T07:10:22.255Z</time></trkpt><trkpt lat="39.5189333" lon="16.0502917"><ele>794.0</ele><time>2026-04-27T07:10:23.268Z</time></trkpt><trkpt lat="39.5189" lon="16.0501733"><ele>794.0000000000001</ele><time>2026-04-27T07:10:24.262Z</time></trkpt><trkpt lat="39.5188633" lon="16.0500617"><ele>794.0</ele><time>2026-04-27T07:10:25.26Z</time></trkpt><trkpt lat="39.5188283" lon="16.0499683"><ele>794.0</ele><time>2026-04-27T07:10:26.261Z</time></trkpt><trkpt lat="39.51879" lon="16.0499"><ele>794.0</ele><time>2026-04-27T07:10:27.262Z</time></trkpt><trkpt lat="39.5186867" lon="16.04984"><ele>794.0000000000001</ele><time>2026-04-27T07:10:29.255Z</time></trkpt><trkpt lat="39.5186233" lon="16.049855"><ele>794.0</ele><time>2026-04-27T07:10:30.265Z</time></trkpt><trkpt lat="39.5185083" lon="16.049905"><ele>797.5000000000001</ele><time>2026-04-27T07:10:32.263Z</time></trkpt><trkpt lat="39.5183883" lon="16.0498717"><ele>801.0</ele><time>2026-04-27T07:10:34.263Z</time></trkpt><trkpt lat="39.5183283" lon="16.0498217"><ele>804.5</ele><time>2026-04-27T07:10:35.262Z</time></trkpt><trkpt lat="39.5182683" lon="16.0497767"><ele>808.0</ele><time>2026-04-27T07:10:36.271Z</time></trkpt><trkpt lat="39.5181733" lon="16.04975"><ele>811.5000000000001</ele><time>2026-04-27T07:10:38.261Z</time></trkpt><trkpt lat="39.518095" lon="16.0497833"><ele>815.0</ele><time>2026-04-27T07:10:39.262Z</time></trkpt><trkpt lat="39.5180083" lon="16.04982"><ele>815.0000000000001</ele><time>2026-04-27T07:10:40.257Z</time></trkpt><trkpt lat="39.51792" lon="16.0498333"><ele>815.0</ele><time>2026-04-27T07:10:41.255Z</time></trkpt><trkpt lat="39.5178417" lon="16.049835"><ele>815.0</ele><time>2026-04-27T07:10:42.259Z</time></trkpt><trkpt lat="39.5177717" lon="16.0498233"><ele>815.0</ele><time>2026-04-27T07:10:43.279Z</time></trkpt><trkpt lat="39.5176683" lon="16.0498067"><ele>815.0000000000001</ele><time>2026-04-27T07:10:45.263Z</time></trkpt><trkpt lat="39.5175917" lon="16.0498733"><ele>815.0</ele><time>2026-04-27T07:10:47.263Z</time></trkpt><trkpt lat="39.5175067" lon="16.0499117"><ele>815.6</ele><time>2026-04-27T07:10:49.277Z</time></trkpt><trkpt lat="39.5173983" lon="16.0499033"><ele>816.2</ele><time>2026-04-27T07:10:51.265Z</time></trkpt><trkpt lat="39.517315" lon="16.049845"><ele>816.8</ele><time>2026-04-27T07:10:52.263Z</time></trkpt><trkpt lat="39.5172383" lon="16.049765"><ele>817.4</ele><time>2026-04-27T07:10:53.264Z</time></trkpt><trkpt lat="39.5171567" lon="16.0496883"><ele>818.0</ele><time>2026-04-27T07:10:54.263Z</time></trkpt><trkpt lat="39.5170683" lon="16.04961"><ele>818.0</ele><time>2026-04-27T07:10:55.273Z</time></trkpt><trkpt lat="39.5169733" lon="16.049545"><ele>818.0</ele><time>2026-04-27T07:10:56.259Z</time></trkpt><trkpt lat="39.5168883" lon="16.0494867"><ele>818.0</ele><time>2026-04-27T07:10:57.267Z</time></trkpt><trkpt lat="39.5168083" lon="16.0494267"><ele>818.0</ele><time>2026-04-27T07:10:58.259Z</time></trkpt><trkpt lat="39.5167283" lon="16.04936"><ele>818.0</ele><time>2026-04-27T07:10:59.261Z</time></trkpt><trkpt lat="39.516645" lon="16.0492767"><ele>818.0</ele><time>2026-04-27T07:11:00.26Z</time></trkpt><trkpt lat="39.5165683" lon="16.0491933"><ele>818.0</ele><time>2026-04-27T07:11:01.271Z</time></trkpt><trkpt lat="39.5165183" lon="16.04909"><ele>818.0</ele><time>2026-04-27T07:11:02.259Z</time></trkpt><trkpt lat="39.5164717" lon="16.0489883"><ele>818.0</ele><time>2026-04-27T07:11:03.269Z</time></trkpt><trkpt lat="39.51641" lon="16.0489017"><ele>818.0</ele><time>2026-04-27T07:11:04.261Z</time></trkpt><trkpt lat="39.5163433" lon="16.0488167"><ele>817.8</ele><time>2026-04-27T07:11:05.265Z</time></trkpt><trkpt lat="39.5162733" lon="16.048735"><ele>817.5999999999999</ele><time>2026-04-27T07:11:06.254Z</time></trkpt><trkpt lat="39.5161817" lon="16.0486783"><ele>817.4000000000001</ele><time>2026-04-27T07:11:07.276Z</time></trkpt><trkpt lat="39.5160883" lon="16.0486233"><ele>817.2</ele><time>2026-04-27T07:11:08.263Z</time></trkpt><trkpt lat="39.5159617" lon="16.04859"><ele>817.0</ele><time>2026-04-27T07:11:09.258Z</time></trkpt><trkpt lat="39.515825" lon="16.048555"><ele>817.0</ele><time>2026-04-27T07:11:10.257Z</time></trkpt><trkpt lat="39.5156967" lon="16.04852"><ele>817.0</ele><time>2026-04-27T07:11:11.268Z</time></trkpt><trkpt lat="39.515575" lon="16.0484933"><ele>817.0</ele><time>2026-04-27T07:11:12.255Z</time></trkpt><trkpt lat="39.5154533" lon="16.0484933"><ele>817.0</ele><time>2026-04-27T07:11:13.279Z</time></trkpt><trkpt lat="39.5153367" lon="16.0485233"><ele>816.0</ele><time>2026-04-27T07:11:14.262Z</time></trkpt><trkpt lat="39.5151933" lon="16.048545"><ele>815.0</ele><time>2026-04-27T07:11:15.266Z</time></trkpt><trkpt lat="39.5150533" lon="16.0485733"><ele>814.0</ele><time>2026-04-27T07:11:16.257Z</time></trkpt><trkpt lat="39.5149183" lon="16.0486117"><ele>813.0</ele><time>2026-04-27T07:11:17.264Z</time></trkpt><trkpt lat="39.514785" lon="16.0486267"><ele>813.0</ele><time>2026-04-27T07:11:18.257Z</time></trkpt><trkpt lat="39.5146633" lon="16.0486383"><ele>813.0</ele><time>2026-04-27T07:11:19.278Z</time></trkpt><trkpt lat="39.5145367" lon="16.0486433"><ele>813.0</ele><time>2026-04-27T07:11:20.264Z</time></trkpt><trkpt lat="39.5144067" lon="16.0486617"><ele>813.0</ele><time>2026-04-27T07:11:21.26Z</time></trkpt><trkpt lat="39.5142933" lon="16.0486917"><ele>812.0</ele><time>2026-04-27T07:11:22.265Z</time></trkpt><trkpt lat="39.5141783" lon="16.04874"><ele>811.0</ele><time>2026-04-27T07:11:23.261Z</time></trkpt><trkpt lat="39.514065" lon="16.048805"><ele>810.0</ele><time>2026-04-27T07:11:24.258Z</time></trkpt><trkpt lat="39.5139467" lon="16.04887"><ele>809.0</ele><time>2026-04-27T07:11:25.319Z</time></trkpt><trkpt lat="39.51382" lon="16.0489483"><ele>807.6666666666667</ele><time>2026-04-27T07:11:26.251Z</time></trkpt><trkpt lat="39.513685" lon="16.0490383"><ele>806.3333333333333</ele><time>2026-04-27T07:11:27.26Z</time></trkpt><trkpt lat="39.5135383" lon="16.049125"><ele>805.0</ele><time>2026-04-27T07:11:28.258Z</time></trkpt><trkpt lat="39.5134" lon="16.0492217"><ele>809.25</ele><time>2026-04-27T07:11:29.256Z</time></trkpt><trkpt lat="39.51327" lon="16.0493217"><ele>813.5</ele><time>2026-04-27T07:11:30.259Z</time></trkpt><trkpt lat="39.5131433" lon="16.0493533"><ele>817.75</ele><time>2026-04-27T07:11:31.301Z</time></trkpt><trkpt lat="39.5130483" lon="16.0493583"><ele>822.0</ele><time>2026-04-27T07:11:32.264Z</time></trkpt><trkpt lat="39.5129567" lon="16.049355"><ele>825.6</ele><time>2026-04-27T07:11:33.266Z</time></trkpt><trkpt lat="39.5128767" lon="16.049325"><ele>829.2</ele><time>2026-04-27T07:11:34.258Z</time></trkpt><trkpt lat="39.5127983" lon="16.049285"><ele>832.8</ele><time>2026-04-27T07:11:35.264Z</time></trkpt><trkpt lat="39.5127117" lon="16.0492483"><ele>836.4</ele><time>2026-04-27T07:11:36.265Z</time></trkpt><trkpt lat="39.5126217" lon="16.0492067"><ele>840.0</ele><time>2026-04-27T07:11:37.281Z</time></trkpt><trkpt lat="39.5125233" lon="16.049165"><ele>837.25</ele><time>2026-04-27T07:11:38.258Z</time></trkpt><trkpt lat="39.512415" lon="16.0490867"><ele>834.5</ele><time>2026-04-27T07:11:39.262Z</time></trkpt><trkpt lat="39.5123017" lon="16.0490167"><ele>831.75</ele><time>2026-04-27T07:11:40.261Z</time></trkpt><trkpt lat="39.5122" lon="16.04892"><ele>829.0</ele><time>2026-04-27T07:11:41.265Z</time></trkpt><trkpt lat="39.51212" lon="16.0488067"><ele>833.0</ele><time>2026-04-27T07:11:42.256Z</time></trkpt><trkpt lat="39.512025" lon="16.0486233"><ele>837.0</ele><time>2026-04-27T07:11:43.279Z</time></trkpt><trkpt lat="39.5119517" lon="16.0485183"><ele>841.0</ele><time>2026-04-27T07:11:44.259Z</time></trkpt><trkpt lat="39.5118833" lon="16.0484333"><ele>845.0</ele><time>2026-04-27T07:11:45.26Z</time></trkpt><trkpt lat="39.5117867" lon="16.04837"><ele>845.0</ele><time>2026-04-27T07:11:46.271Z</time></trkpt><trkpt lat="39.5116867" lon="16.0483767"><ele>845.0</ele><time>2026-04-27T07:11:47.255Z</time></trkpt><trkpt lat="39.5115883" lon="16.0483733"><ele>845.0</ele><time>2026-04-27T07:11:48.257Z</time></trkpt><trkpt lat="39.5114883" lon="16.04841"><ele>845.0</ele><time>2026-04-27T07:11:49.275Z</time></trkpt><trkpt lat="39.51133" lon="16.0486017"><ele>842.3333333333334</ele><time>2026-04-27T07:11:50.258Z</time></trkpt><trkpt lat="39.5111917" lon="16.0487667"><ele>839.6666666666667</ele><time>2026-04-27T07:11:51.265Z</time></trkpt><trkpt lat="39.5110583" lon="16.0488683"><ele>837.0</ele><time>2026-04-27T07:11:52.264Z</time></trkpt><trkpt lat="39.5109183" lon="16.0489433"><ele>837.0</ele><time>2026-04-27T07:11:53.258Z</time></trkpt><trkpt lat="39.5107883" lon="16.0490017"><ele>837.0</ele><time>2026-04-27T07:11:54.257Z</time></trkpt><trkpt lat="39.5106633" lon="16.0490533"><ele>837.0</ele><time>2026-04-27T07:11:55.322Z</time></trkpt><trkpt lat="39.51054" lon="16.0490983"><ele>837.0</ele><time>2026-04-27T07:11:56.263Z</time></trkpt><trkpt lat="39.5104233" lon="16.049155"><ele>838.0</ele><time>2026-04-27T07:11:57.26Z</time></trkpt><trkpt lat="39.510315" lon="16.0492"><ele>839.0</ele><time>2026-04-27T07:11:58.255Z</time></trkpt><trkpt lat="39.5102017" lon="16.0491367"><ele>840.0</ele><time>2026-04-27T07:11:59.261Z</time></trkpt><trkpt lat="39.510095" lon="16.0491117"><ele>841.0</ele><time>2026-04-27T07:12:00.252Z</time></trkpt><trkpt lat="39.5099883" lon="16.049095"><ele>841.0</ele><time>2026-04-27T07:12:01.269Z</time></trkpt><trkpt lat="39.5098817" lon="16.049095"><ele>841.0</ele><time>2026-04-27T07:12:02.251Z</time></trkpt><trkpt lat="39.50978" lon="16.0491067"><ele>841.0</ele><time>2026-04-27T07:12:03.268Z</time></trkpt><trkpt lat="39.509685" lon="16.04913"><ele>841.0</ele><time>2026-04-27T07:12:04.257Z</time></trkpt><trkpt lat="39.5096183" lon="16.0491667"><ele>841.0</ele><time>2026-04-27T07:12:05.264Z</time></trkpt><trkpt lat="39.509605" lon="16.0492733"><ele>846.0</ele><time>2026-04-27T07:12:07.275Z</time></trkpt><trkpt lat="39.50965" lon="16.049365"><ele>851.0</ele><time>2026-04-27T07:12:10.26Z</time></trkpt><trkpt lat="39.509765" lon="16.0493767"><ele>855.9999999999999</ele><time>2026-04-27T07:12:12.264Z</time></trkpt><trkpt lat="39.5098833" lon="16.0494033"><ele>861.0</ele><time>2026-04-27T07:12:13.279Z</time></trkpt><trkpt lat="39.5100033" lon="16.04941"><ele>866.0</ele><time>2026-04-27T07:12:14.272Z</time></trkpt><trkpt lat="39.51014" lon="16.0494283"><ele>866.0</ele><time>2026-04-27T07:12:15.262Z</time></trkpt><trkpt lat="39.5102683" lon="16.049445"><ele>865.9999999999999</ele><time>2026-04-27T07:12:16.269Z</time></trkpt><trkpt lat="39.51037" lon="16.049465"><ele>865.9999999999999</ele><time>2026-04-27T07:12:17.257Z</time></trkpt><trkpt lat="39.510445" lon="16.0494817"><ele>866.0</ele><time>2026-04-27T07:12:18.258Z</time></trkpt><trkpt lat="39.5104733" lon="16.0495633"><ele>866.0</ele><time>2026-04-27T07:12:20.259Z</time></trkpt><trkpt lat="39.5104017" lon="16.0496733"><ele>866.0</ele><time>2026-04-27T07:12:22.258Z</time></trkpt><trkpt lat="39.51034" lon="16.0497233"><ele>866.0</ele><time>2026-04-27T07:12:23.267Z</time></trkpt><trkpt lat="39.51009" lon="16.0497333"><ele>866.0</ele><time>2026-04-27T07:12:24.263Z</time></trkpt><trkpt lat="39.509925" lon="16.04979"><ele>866.0</ele><time>2026-04-27T07:12:25.322Z</time></trkpt><trkpt lat="39.50978" lon="16.0498467"><ele>866.0</ele><time>2026-04-27T07:12:26.258Z</time></trkpt><trkpt lat="39.5096417" lon="16.0498983"><ele>866.0</ele><time>2026-04-27T07:12:27.26Z</time></trkpt><trkpt lat="39.5094717" lon="16.0499167"><ele>869.5</ele><time>2026-04-27T07:12:28.261Z</time></trkpt><trkpt lat="39.5093233" lon="16.049965"><ele>873.0</ele><time>2026-04-27T07:12:29.261Z</time></trkpt><trkpt lat="39.509195" lon="16.05003"><ele>876.5</ele><time>2026-04-27T07:12:30.26Z</time></trkpt><trkpt lat="39.5090767" lon="16.05009"><ele>880.0</ele><time>2026-04-27T07:12:31.279Z</time></trkpt><trkpt lat="39.5089617" lon="16.0501733"><ele>880.0</ele><time>2026-04-27T07:12:32.263Z</time></trkpt><trkpt lat="39.50884" lon="16.0502633"><ele>880.0</ele><time>2026-04-27T07:12:33.262Z</time></trkpt><trkpt lat="39.5087133" lon="16.0503617"><ele>880.0</ele><time>2026-04-27T07:12:34.263Z</time></trkpt><trkpt lat="39.5085933" lon="16.050445"><ele>880.0</ele><time>2026-04-27T07:12:35.261Z</time></trkpt><trkpt lat="39.5084817" lon="16.0505233"><ele>879.25</ele><time>2026-04-27T07:12:36.257Z</time></trkpt><trkpt lat="39.50839" lon="16.0506167"><ele>878.5</ele><time>2026-04-27T07:12:37.275Z</time></trkpt><trkpt lat="39.5083033" lon="16.0507167"><ele>877.75</ele><time>2026-04-27T07:12:38.259Z</time></trkpt><trkpt lat="39.5082133" lon="16.05082"><ele>877.0</ele><time>2026-04-27T07:12:39.275Z</time></trkpt><trkpt lat="39.5081283" lon="16.0509333"><ele>876.75</ele><time>2026-04-27T07:12:40.259Z</time></trkpt><trkpt lat="39.50804" lon="16.051055"><ele>876.5</ele><time>2026-04-27T07:12:41.262Z</time></trkpt><trkpt lat="39.5079633" lon="16.0511767"><ele>876.25</ele><time>2026-04-27T07:12:42.264Z</time></trkpt><trkpt lat="39.5079017" lon="16.0513"><ele>876.0</ele><time>2026-04-27T07:12:43.277Z</time></trkpt><trkpt lat="39.50784" lon="16.0514233"><ele>876.0</ele><time>2026-04-27T07:12:44.254Z</time></trkpt><trkpt lat="39.5077817" lon="16.051535"><ele>875.9999999999999</ele><time>2026-04-27T07:12:45.263Z</time></trkpt><trkpt lat="39.50775" lon="16.0516317"><ele>875.9999999999999</ele><time>2026-04-27T07:12:46.257Z</time></trkpt><trkpt lat="39.50772" lon="16.0518167"><ele>876.0</ele><time>2026-04-27T07:12:48.262Z</time></trkpt><trkpt lat="39.50771" lon="16.05193"><ele>876.0</ele><time>2026-04-27T07:12:49.281Z</time></trkpt><trkpt lat="39.5077133" lon="16.0520367"><ele>878.5999999999999</ele><time>2026-04-27T07:12:50.261Z</time></trkpt><trkpt lat="39.5077317" lon="16.052155"><ele>881.1999999999999</ele><time>2026-04-27T07:12:51.264Z</time></trkpt><trkpt lat="39.5077667" lon="16.0522667"><ele>883.8000000000001</ele><time>2026-04-27T07:12:52.26Z</time></trkpt><trkpt lat="39.5078117" lon="16.0523933"><ele>886.4000000000001</ele><time>2026-04-27T07:12:53.259Z</time></trkpt><trkpt lat="39.5078833" lon="16.0525333"><ele>889.0</ele><time>2026-04-27T07:12:54.258Z</time></trkpt><trkpt lat="39.5079567" lon="16.0526717"><ele>889.0</ele><time>2026-04-27T07:12:55.264Z</time></trkpt><trkpt lat="39.5080083" lon="16.0527867"><ele>889.0000000000001</ele><time>2026-04-27T07:12:56.259Z</time></trkpt><trkpt lat="39.5080467" lon="16.0529083"><ele>889.0000000000001</ele><time>2026-04-27T07:12:57.263Z</time></trkpt><trkpt lat="39.5080633" lon="16.0530333"><ele>889.0</ele><time>2026-04-27T07:12:58.259Z</time></trkpt><trkpt lat="39.5081167" lon="16.05319"><ele>889.0</ele><time>2026-04-27T07:12:59.265Z</time></trkpt><trkpt lat="39.508195" lon="16.0533533"><ele>893.6666666666666</ele><time>2026-04-27T07:13:00.259Z</time></trkpt><trkpt lat="39.5082983" lon="16.053595"><ele>898.3333333333333</ele><time>2026-04-27T07:13:01.283Z</time></trkpt><trkpt lat="39.5083533" lon="16.0537833"><ele>903.0</ele><time>2026-04-27T07:13:02.259Z</time></trkpt><trkpt lat="39.5083983" lon="16.05397"><ele>903.0</ele><time>2026-04-27T07:13:03.264Z</time></trkpt><trkpt lat="39.5084417" lon="16.05409"><ele>903.0</ele><time>2026-04-27T07:13:04.267Z</time></trkpt><trkpt lat="39.508465" lon="16.0541867"><ele>903.0</ele><time>2026-04-27T07:13:05.258Z</time></trkpt><trkpt lat="39.5084183" lon="16.0542667"><ele>903.0</ele><time>2026-04-27T07:13:07.273Z</time></trkpt><trkpt lat="39.50839" lon="16.054365"><ele>903.0</ele><time>2026-04-27T07:13:09.257Z</time></trkpt><trkpt lat="39.5082617" lon="16.05436"><ele>903.0</ele><time>2026-04-27T07:13:11.268Z</time></trkpt><trkpt lat="39.5081583" lon="16.0543017"><ele>903.0</ele><time>2026-04-27T07:13:12.256Z</time></trkpt><trkpt lat="39.508045" lon="16.0542067"><ele>903.0</ele><time>2026-04-27T07:13:13.284Z</time></trkpt><trkpt lat="39.5079333" lon="16.054115"><ele>903.0</ele><time>2026-04-27T07:13:14.26Z</time></trkpt><trkpt lat="39.5078083" lon="16.05401"><ele>909.3333333333333</ele><time>2026-04-27T07:13:15.264Z</time></trkpt><trkpt lat="39.507685" lon="16.0538933"><ele>915.6666666666666</ele><time>2026-04-27T07:13:16.258Z</time></trkpt><trkpt lat="39.5074867" lon="16.0536617"><ele>922.0</ele><time>2026-04-27T07:13:17.254Z</time></trkpt><trkpt lat="39.5074133" lon="16.053595"><ele>922.0</ele><time>2026-04-27T07:13:18.261Z</time></trkpt><trkpt lat="39.5073467" lon="16.053545"><ele>922.0</ele><time>2026-04-27T07:13:19.284Z</time></trkpt><trkpt lat="39.5072417" lon="16.0535283"><ele>922.0</ele><time>2026-04-27T07:13:21.26Z</time></trkpt><trkpt lat="39.5071567" lon="16.0536"><ele>922.0</ele><time>2026-04-27T07:13:22.261Z</time></trkpt><trkpt lat="39.5070517" lon="16.0536883"><ele>922.0</ele><time>2026-04-27T07:13:23.27Z</time></trkpt><trkpt lat="39.5069633" lon="16.0537567"><ele>923.8</ele><time>2026-04-27T07:13:24.254Z</time></trkpt><trkpt lat="39.50687" lon="16.0537933"><ele>925.6</ele><time>2026-04-27T07:13:25.321Z</time></trkpt><trkpt lat="39.50678" lon="16.05379"><ele>927.3999999999999</ele><time>2026-04-27T07:13:26.257Z</time></trkpt><trkpt lat="39.5066917" lon="16.0538117"><ele>929.1999999999999</ele><time>2026-04-27T07:13:27.256Z</time></trkpt><trkpt lat="39.5066017" lon="16.0538583"><ele>931.0</ele><time>2026-04-27T07:13:28.253Z</time></trkpt><trkpt lat="39.5065133" lon="16.0539133"><ele>930.9999999999999</ele><time>2026-04-27T07:13:29.258Z</time></trkpt><trkpt lat="39.5064367" lon="16.0539833"><ele>931.0</ele><time>2026-04-27T07:13:30.263Z</time></trkpt><trkpt lat="39.5063667" lon="16.0540533"><ele>931.0</ele><time>2026-04-27T07:13:31.273Z</time></trkpt><trkpt lat="39.5063067" lon="16.0541117"><ele>931.0</ele><time>2026-04-27T07:13:32.256Z</time></trkpt><trkpt lat="39.5062483" lon="16.0541833"><ele>930.9999999999999</ele><time>2026-04-27T07:13:33.264Z</time></trkpt><trkpt lat="39.5061933" lon="16.0542617"><ele>931.0</ele><time>2026-04-27T07:13:34.262Z</time></trkpt><trkpt lat="39.506155" lon="16.054355"><ele>933.6666666666666</ele><time>2026-04-27T07:13:35.267Z</time></trkpt><trkpt lat="39.506115" lon="16.054435"><ele>936.3333333333333</ele><time>2026-04-27T07:13:36.261Z</time></trkpt><trkpt lat="39.50607" lon="16.0545033"><ele>939.0</ele><time>2026-04-27T07:13:37.28Z</time></trkpt><trkpt lat="39.50602" lon="16.0545983"><ele>941.6666666666667</ele><time>2026-04-27T07:13:38.267Z</time></trkpt><trkpt lat="39.505975" lon="16.05468"><ele>944.3333333333334</ele><time>2026-04-27T07:13:39.265Z</time></trkpt><trkpt lat="39.5058817" lon="16.05474"><ele>947.0</ele><time>2026-04-27T07:13:40.265Z</time></trkpt><trkpt lat="39.5058167" lon="16.0548583"><ele>947.0</ele><time>2026-04-27T07:13:42.261Z</time></trkpt><trkpt lat="39.5057183" lon="16.0548717"><ele>947.0</ele><time>2026-04-27T07:13:43.28Z</time></trkpt><trkpt lat="39.5056067" lon="16.05486"><ele>947.0</ele><time>2026-04-27T07:13:44.26Z</time></trkpt><trkpt lat="39.5055167" lon="16.0548783"><ele>947.0</ele><time>2026-04-27T07:13:45.257Z</time></trkpt><trkpt lat="39.5054433" lon="16.0549"><ele>947.0</ele><time>2026-04-27T07:13:46.258Z</time></trkpt><trkpt lat="39.505365" lon="16.0549283"><ele>945.6</ele><time>2026-04-27T07:13:47.262Z</time></trkpt><trkpt lat="39.5052767" lon="16.0549667"><ele>944.2</ele><time>2026-04-27T07:13:48.26Z</time></trkpt><trkpt lat="39.5051933" lon="16.0549817"><ele>942.8</ele><time>2026-04-27T07:13:49.278Z</time></trkpt><trkpt lat="39.50508" lon="16.05496"><ele>941.4</ele><time>2026-04-27T07:13:50.262Z</time></trkpt><trkpt lat="39.5049583" lon="16.054935"><ele>940.0</ele><time>2026-04-27T07:13:51.26Z</time></trkpt><trkpt lat="39.5048267" lon="16.0549067"><ele>947.25</ele><time>2026-04-27T07:13:52.26Z</time></trkpt><trkpt lat="39.5047067" lon="16.0548633"><ele>954.5</ele><time>2026-04-27T07:13:53.259Z</time></trkpt><trkpt lat="39.5045867" lon="16.054835"><ele>961.75</ele><time>2026-04-27T07:13:54.259Z</time></trkpt><trkpt lat="39.504465" lon="16.05478"><ele>969.0</ele><time>2026-04-27T07:13:55.324Z</time></trkpt><trkpt lat="39.50434" lon="16.0547367"><ele>970.5</ele><time>2026-04-27T07:13:56.261Z</time></trkpt><trkpt lat="39.5042183" lon="16.0547233"><ele>972.0</ele><time>2026-04-27T07:13:57.262Z</time></trkpt><trkpt lat="39.5041" lon="16.054705"><ele>973.5</ele><time>2026-04-27T07:13:58.259Z</time></trkpt><trkpt lat="39.503985" lon="16.0546967"><ele>975.0</ele><time>2026-04-27T07:13:59.264Z</time></trkpt><trkpt lat="39.5038883" lon="16.05468"><ele>975.0</ele><time>2026-04-27T07:14:00.258Z</time></trkpt><trkpt lat="39.5037983" lon="16.054675"><ele>975.0</ele><time>2026-04-27T07:14:01.295Z</time></trkpt><trkpt lat="39.5037183" lon="16.05469"><ele>975.0</ele><time>2026-04-27T07:14:02.258Z</time></trkpt><trkpt lat="39.503635" lon="16.0547067"><ele>975.0</ele><time>2026-04-27T07:14:03.256Z</time></trkpt><trkpt lat="39.5035517" lon="16.05472"><ele>975.0</ele><time>2026-04-27T07:14:04.263Z</time></trkpt><trkpt lat="39.5034817" lon="16.0547383"><ele>975.0</ele><time>2026-04-27T07:14:05.264Z</time></trkpt><trkpt lat="39.50346" lon="16.0548283"><ele>975.3333333333333</ele><time>2026-04-27T07:14:06.266Z</time></trkpt><trkpt lat="39.50342" lon="16.0548933"><ele>975.6666666666666</ele><time>2026-04-27T07:14:07.281Z</time></trkpt><trkpt lat="39.5035633" lon="16.0551983"><ele>976.0</ele><time>2026-04-27T07:14:08.259Z</time></trkpt><trkpt lat="39.5036717" lon="16.0554733"><ele>975.0</ele><time>2026-04-27T07:14:09.264Z</time></trkpt><trkpt lat="39.5037117" lon="16.0556767"><ele>974.0</ele><time>2026-04-27T07:14:10.259Z</time></trkpt><trkpt lat="39.5037283" lon="16.0558317"><ele>973.0</ele><time>2026-04-27T07:14:11.266Z</time></trkpt><trkpt lat="39.50373" lon="16.0559617"><ele>972.0</ele><time>2026-04-27T07:14:12.261Z</time></trkpt><trkpt lat="39.5037183" lon="16.05608"><ele>971.75</ele><time>2026-04-27T07:14:13.279Z</time></trkpt><trkpt lat="39.5037033" lon="16.0561983"><ele>971.5</ele><time>2026-04-27T07:14:14.261Z</time></trkpt><trkpt lat="39.5036683" lon="16.0563117"><ele>971.25</ele><time>2026-04-27T07:14:15.262Z</time></trkpt><trkpt lat="39.50353" lon="16.0564067"><ele>971.0</ele><time>2026-04-27T07:14:16.256Z</time></trkpt><trkpt lat="39.5033733" lon="16.0565017"><ele>971.0</ele><time>2026-04-27T07:14:17.256Z</time></trkpt><trkpt lat="39.5032317" lon="16.056585"><ele>971.0</ele><time>2026-04-27T07:14:18.254Z</time></trkpt><trkpt lat="39.5031033" lon="16.05665"><ele>971.0</ele><time>2026-04-27T07:14:19.274Z</time></trkpt><trkpt lat="39.5029983" lon="16.0567283"><ele>971.0</ele><time>2026-04-27T07:14:20.258Z</time></trkpt><trkpt lat="39.5028983" lon="16.056805"><ele>969.25</ele><time>2026-04-27T07:14:21.26Z</time></trkpt><trkpt lat="39.5028017" lon="16.056875"><ele>967.5</ele><time>2026-04-27T07:14:22.261Z</time></trkpt><trkpt lat="39.5026933" lon="16.05693"><ele>965.75</ele><time>2026-04-27T07:14:23.262Z</time></trkpt><trkpt lat="39.5025517" lon="16.0569933"><ele>964.0</ele><time>2026-04-27T07:14:24.259Z</time></trkpt><trkpt lat="39.5024283" lon="16.0570117"><ele>964.0</ele><time>2026-04-27T07:14:25.323Z</time></trkpt><trkpt lat="39.5023217" lon="16.0570517"><ele>964.0</ele><time>2026-04-27T07:14:26.252Z</time></trkpt><trkpt lat="39.5022" lon="16.057095"><ele>964.0</ele><time>2026-04-27T07:14:27.263Z</time></trkpt><trkpt lat="39.502055" lon="16.05715"><ele>964.0</ele><time>2026-04-27T07:14:28.261Z</time></trkpt><trkpt lat="39.5019267" lon="16.0572117"><ele>965.2</ele><time>2026-04-27T07:14:29.263Z</time></trkpt><trkpt lat="39.5018167" lon="16.0572867"><ele>966.4000000000001</ele><time>2026-04-27T07:14:30.259Z</time></trkpt><trkpt lat="39.5017317" lon="16.0573433"><ele>967.6</ele><time>2026-04-27T07:14:31.321Z</time></trkpt><trkpt lat="39.5016583" lon="16.0573517"><ele>968.8</ele><time>2026-04-27T07:14:32.256Z</time></trkpt><trkpt lat="39.5015667" lon="16.0573667"><ele>970.0</ele><time>2026-04-27T07:14:33.257Z</time></trkpt><trkpt lat="39.5014783" lon="16.0573483"><ele>970.0</ele><time>2026-04-27T07:14:34.258Z</time></trkpt><trkpt lat="39.501385" lon="16.05731"><ele>970.0</ele><time>2026-04-27T07:14:35.265Z</time></trkpt><trkpt lat="39.50129" lon="16.0572517"><ele>970.0</ele><time>2026-04-27T07:14:36.262Z</time></trkpt><trkpt lat="39.5011817" lon="16.057175"><ele>970.0</ele><time>2026-04-27T07:14:37.278Z</time></trkpt><trkpt lat="39.501055" lon="16.0570067"><ele>968.75</ele><time>2026-04-27T07:14:38.256Z</time></trkpt><trkpt lat="39.5009433" lon="16.0568717"><ele>967.5</ele><time>2026-04-27T07:14:39.263Z</time></trkpt><trkpt lat="39.50084" lon="16.0567517"><ele>966.25</ele><time>2026-04-27T07:14:40.258Z</time></trkpt><trkpt lat="39.5007417" lon="16.056665"><ele>965.0</ele><time>2026-04-27T07:14:41.259Z</time></trkpt><trkpt lat="39.5006417" lon="16.056585"><ele>969.25</ele><time>2026-04-27T07:14:42.257Z</time></trkpt><trkpt lat="39.5005367" lon="16.0565167"><ele>973.5</ele><time>2026-04-27T07:14:43.278Z</time></trkpt><trkpt lat="39.5004233" lon="16.05647"><ele>977.75</ele><time>2026-04-27T07:14:44.257Z</time></trkpt><trkpt lat="39.5003" lon="16.056425"><ele>982.0</ele><time>2026-04-27T07:14:45.257Z</time></trkpt><trkpt lat="39.5001867" lon="16.0563733"><ele>982.0</ele><time>2026-04-27T07:14:46.26Z</time></trkpt><trkpt lat="39.5000933" lon="16.05635"><ele>982.0</ele><time>2026-04-27T07:14:47.265Z</time></trkpt><trkpt lat="39.4999833" lon="16.0562767"><ele>982.0</ele><time>2026-04-27T07:14:48.26Z</time></trkpt><trkpt lat="39.499875" lon="16.0562167"><ele>982.0</ele><time>2026-04-27T07:14:49.282Z</time></trkpt><trkpt lat="39.49978" lon="16.0561867"><ele>982.0</ele><time>2026-04-27T07:14:50.259Z</time></trkpt><trkpt lat="39.49968" lon="16.0561867"><ele>982.0</ele><time>2026-04-27T07:14:51.264Z</time></trkpt><trkpt lat="39.4995933" lon="16.0562167"><ele>982.0</ele><time>2026-04-27T07:14:52.257Z</time></trkpt><trkpt lat="39.4996233" lon="16.056395"><ele>982.0</ele><time>2026-04-27T07:14:53.26Z</time></trkpt><trkpt lat="39.499545" lon="16.05652"><ele>982.0</ele><time>2026-04-27T07:14:55.32Z</time></trkpt><trkpt lat="39.4994783" lon="16.056535"><ele>982.0</ele><time>2026-04-27T07:14:56.267Z</time></trkpt><trkpt lat="39.4993933" lon="16.05653"><ele>982.0</ele><time>2026-04-27T07:14:57.26Z</time></trkpt><trkpt lat="39.4993083" lon="16.0565317"><ele>982.0</ele><time>2026-04-27T07:14:58.252Z</time></trkpt><trkpt lat="39.499215" lon="16.0565117"><ele>982.0</ele><time>2026-04-27T07:14:59.262Z</time></trkpt><trkpt lat="39.4991117" lon="16.056515"><ele>982.0</ele><time>2026-04-27T07:15:00.257Z</time></trkpt><trkpt lat="39.4989883" lon="16.0565183"><ele>982.0</ele><time>2026-04-27T07:15:01.297Z</time></trkpt><trkpt lat="39.4988717" lon="16.0565317"><ele>982.0</ele><time>2026-04-27T07:15:02.255Z</time></trkpt><trkpt lat="39.49876" lon="16.0565317"><ele>982.0</ele><time>2026-04-27T07:15:03.264Z</time></trkpt><trkpt lat="39.49862" lon="16.0565083"><ele>982.0</ele><time>2026-04-27T07:15:04.258Z</time></trkpt><trkpt lat="39.4984983" lon="16.05649"><ele>982.0</ele><time>2026-04-27T07:15:05.269Z</time></trkpt><trkpt lat="39.498385" lon="16.0564767"><ele>983.6</ele><time>2026-04-27T07:15:06.256Z</time></trkpt><trkpt lat="39.4982917" lon="16.05649"><ele>985.2</ele><time>2026-04-27T07:15:07.283Z</time></trkpt><trkpt lat="39.498175" lon="16.0564917"><ele>986.8</ele><time>2026-04-27T07:15:08.265Z</time></trkpt><trkpt lat="39.4980817" lon="16.0565233"><ele>988.4</ele><time>2026-04-27T07:15:09.263Z</time></trkpt><trkpt lat="39.4980017" lon="16.05656"><ele>990.0</ele><time>2026-04-27T07:15:10.256Z</time></trkpt><trkpt lat="39.49794" lon="16.0566317"><ele>985.4</ele><time>2026-04-27T07:15:11.26Z</time></trkpt><trkpt lat="39.4978533" lon="16.0566717"><ele>980.8</ele><time>2026-04-27T07:15:12.261Z</time></trkpt><trkpt lat="39.4977483" lon="16.0566933"><ele>976.2</ele><time>2026-04-27T07:15:13.283Z</time></trkpt><trkpt lat="39.4976383" lon="16.0567033"><ele>971.6</ele><time>2026-04-27T07:15:14.257Z</time></trkpt><trkpt lat="39.4975367" lon="16.0567067"><ele>967.0</ele><time>2026-04-27T07:15:15.254Z</time></trkpt><trkpt lat="39.4974133" lon="16.056685"><ele>967.0</ele><time>2026-04-27T07:15:16.255Z</time></trkpt><trkpt lat="39.4972933" lon="16.056685"><ele>967.0</ele><time>2026-04-27T07:15:17.257Z</time></trkpt><trkpt lat="39.4971783" lon="16.056675"><ele>967.0</ele><time>2026-04-27T07:15:18.259Z</time></trkpt><trkpt lat="39.4970617" lon="16.0566983"><ele>967.0</ele><time>2026-04-27T07:15:19.271Z</time></trkpt><trkpt lat="39.4969517" lon="16.0567267"><ele>970.6</ele><time>2026-04-27T07:15:20.262Z</time></trkpt><trkpt lat="39.496855" lon="16.0567433"><ele>974.2</ele><time>2026-04-27T07:15:21.255Z</time></trkpt><trkpt lat="39.49676" lon="16.05674"><ele>977.8</ele><time>2026-04-27T07:15:22.257Z</time></trkpt><trkpt lat="39.4966867" lon="16.056725"><ele>981.4</ele><time>2026-04-27T07:15:23.267Z</time></trkpt><trkpt lat="39.4966" lon="16.0567167"><ele>985.0</ele><time>2026-04-27T07:15:25.294Z</time></trkpt><trkpt lat="39.4966217" lon="16.0568583"><ele>985.0</ele><time>2026-04-27T07:15:28.263Z</time></trkpt><trkpt lat="39.4966483" lon="16.0569667"><ele>985.0</ele><time>2026-04-27T07:15:29.251Z</time></trkpt><trkpt lat="39.4966217" lon="16.0570517"><ele>985.0</ele><time>2026-04-27T07:15:30.263Z</time></trkpt><trkpt lat="39.4966167" lon="16.05715"><ele>985.0</ele><time>2026-04-27T07:15:31.296Z</time></trkpt><trkpt lat="39.4966283" lon="16.0572917"><ele>985.0</ele><time>2026-04-27T07:15:32.258Z</time></trkpt><trkpt lat="39.4965983" lon="16.05746"><ele>981.8</ele><time>2026-04-27T07:15:34.262Z</time></trkpt><trkpt lat="39.4965683" lon="16.0575567"><ele>978.6</ele><time>2026-04-27T07:15:35.264Z</time></trkpt><trkpt lat="39.4965617" lon="16.0577167"><ele>975.4000000000001</ele><time>2026-04-27T07:15:37.279Z</time></trkpt><trkpt lat="39.4965683" lon="16.0578567"><ele>972.2</ele><time>2026-04-27T07:15:39.265Z</time></trkpt><trkpt lat="39.4965567" lon="16.0579867"><ele>969.0</ele><time>2026-04-27T07:15:41.259Z</time></trkpt><trkpt lat="39.49652" lon="16.0581567"><ele>969.0</ele><time>2026-04-27T07:15:43.277Z</time></trkpt><trkpt lat="39.496455" lon="16.0582"><ele>969.0</ele><time>2026-04-27T07:15:44.261Z</time></trkpt><trkpt lat="39.4963867" lon="16.0582467"><ele>969.0</ele><time>2026-04-27T07:15:45.258Z</time></trkpt><trkpt lat="39.49629" lon="16.0583067"><ele>969.0</ele><time>2026-04-27T07:15:46.251Z</time></trkpt><trkpt lat="39.4962367" lon="16.05839"><ele>969.0</ele><time>2026-04-27T07:15:47.262Z</time></trkpt><trkpt lat="39.49617" lon="16.0584483"><ele>969.0</ele><time>2026-04-27T07:15:48.261Z</time></trkpt><trkpt lat="39.496085" lon="16.0585233"><ele>969.3333333333334</ele><time>2026-04-27T07:15:50.262Z</time></trkpt><trkpt lat="39.496" lon="16.0585683"><ele>969.6666666666667</ele><time>2026-04-27T07:15:52.262Z</time></trkpt><trkpt lat="39.4959183" lon="16.0585333"><ele>970.0</ele><time>2026-04-27T07:15:54.267Z</time></trkpt><trkpt lat="39.4958383" lon="16.058495"><ele>970.3333333333334</ele><time>2026-04-27T07:15:56.26Z</time></trkpt><trkpt lat="39.4957533" lon="16.0584717"><ele>970.6666666666667</ele><time>2026-04-27T07:15:58.257Z</time></trkpt><trkpt lat="39.49569" lon="16.0584667"><ele>971.0</ele><time>2026-04-27T07:16:00.257Z</time></trkpt><trkpt lat="39.495605" lon="16.05848"><ele>971.0000000000001</ele><time>2026-04-27T07:16:03.263Z</time></trkpt><trkpt lat="39.4955467" lon="16.0585267"><ele>971.0</ele><time>2026-04-27T07:16:06.256Z</time></trkpt><trkpt lat="39.4955317" lon="16.0586117"><ele>971.0</ele><time>2026-04-27T07:16:08.257Z</time></trkpt><trkpt lat="39.4955067" lon="16.058785"><ele>971.0</ele><time>2026-04-27T07:16:10.261Z</time></trkpt><trkpt lat="39.4954983" lon="16.05888"><ele>971.0000000000001</ele><time>2026-04-27T07:16:11.264Z</time></trkpt><trkpt lat="39.4954983" lon="16.0589967"><ele>971.0</ele><time>2026-04-27T07:16:12.274Z</time></trkpt><trkpt lat="39.4954967" lon="16.0591033"><ele>968.5000000000001</ele><time>2026-04-27T07:16:13.28Z</time></trkpt><trkpt lat="39.4954883" lon="16.0591983"><ele>966.0</ele><time>2026-04-27T07:16:14.259Z</time></trkpt><trkpt lat="39.495475" lon="16.0592867"><ele>963.5</ele><time>2026-04-27T07:16:15.262Z</time></trkpt><trkpt lat="39.49544" lon="16.05938"><ele>961.0</ele><time>2026-04-27T07:16:16.259Z</time></trkpt><trkpt lat="39.495415" lon="16.05947"><ele>958.5000000000001</ele><time>2026-04-27T07:16:17.263Z</time></trkpt><trkpt lat="39.4953783" lon="16.059565"><ele>956.0</ele><time>2026-04-27T07:16:18.261Z</time></trkpt><trkpt lat="39.4953283" lon="16.0596617"><ele>960.75</ele><time>2026-04-27T07:16:19.276Z</time></trkpt><trkpt lat="39.4952633" lon="16.0597633"><ele>965.5</ele><time>2026-04-27T07:16:20.259Z</time></trkpt><trkpt lat="39.4951633" lon="16.0598933"><ele>970.25</ele><time>2026-04-27T07:16:21.261Z</time></trkpt><trkpt lat="39.4950567" lon="16.060005"><ele>975.0</ele><time>2026-04-27T07:16:22.259Z</time></trkpt><trkpt lat="39.4949633" lon="16.0600983"><ele>975.0</ele><time>2026-04-27T07:16:23.266Z</time></trkpt><trkpt lat="39.49484" lon="16.06014"><ele>975.0</ele><time>2026-04-27T07:16:24.263Z</time></trkpt><trkpt lat="39.4947433" lon="16.0601483"><ele>975.0</ele><time>2026-04-27T07:16:25.297Z</time></trkpt><trkpt lat="39.4946633" lon="16.06016"><ele>975.0</ele><time>2026-04-27T07:16:26.26Z</time></trkpt><trkpt lat="39.4945667" lon="16.06019"><ele>975.0</ele><time>2026-04-27T07:16:27.257Z</time></trkpt><trkpt lat="39.4944883" lon="16.06021"><ele>978.1666666666666</ele><time>2026-04-27T07:16:28.256Z</time></trkpt><trkpt lat="39.49437" lon="16.06023"><ele>981.3333333333333</ele><time>2026-04-27T07:16:30.26Z</time></trkpt><trkpt lat="39.4943" lon="16.0602233"><ele>984.5</ele><time>2026-04-27T07:16:32.261Z</time></trkpt><trkpt lat="39.4942817" lon="16.060305"><ele>987.6666666666666</ele><time>2026-04-27T07:16:36.257Z</time></trkpt><trkpt lat="39.494325" lon="16.0603967"><ele>990.8333333333333</ele><time>2026-04-27T07:16:37.276Z</time></trkpt><trkpt lat="39.4944067" lon="16.0604867"><ele>994.0</ele><time>2026-04-27T07:16:38.254Z</time></trkpt><trkpt lat="39.4945017" lon="16.06063"><ele>986.75</ele><time>2026-04-27T07:16:39.26Z</time></trkpt><trkpt lat="39.4946067" lon="16.0607933"><ele>979.5</ele><time>2026-04-27T07:16:40.258Z</time></trkpt><trkpt lat="39.4946967" lon="16.0609"><ele>972.25</ele><time>2026-04-27T07:16:41.272Z</time></trkpt><trkpt lat="39.4948033" lon="16.0609967"><ele>965.0</ele><time>2026-04-27T07:16:42.26Z</time></trkpt><trkpt lat="39.494885" lon="16.0611"><ele>965.0</ele><time>2026-04-27T07:16:43.273Z</time></trkpt><trkpt lat="39.49495" lon="16.0612133"><ele>965.0</ele><time>2026-04-27T07:16:44.256Z</time></trkpt><trkpt lat="39.4950083" lon="16.0613217"><ele>965.0</ele><time>2026-04-27T07:16:45.262Z</time></trkpt><trkpt lat="39.4950683" lon="16.0614267"><ele>965.0</ele><time>2026-04-27T07:16:46.257Z</time></trkpt><trkpt lat="39.4951317" lon="16.06152"><ele>965.0</ele><time>2026-04-27T07:16:47.266Z</time></trkpt><trkpt lat="39.4951883" lon="16.0615933"><ele>966.0</ele><time>2026-04-27T07:16:48.269Z</time></trkpt><trkpt lat="39.4952467" lon="16.06166"><ele>967.0</ele><time>2026-04-27T07:16:49.279Z</time></trkpt><trkpt lat="39.4953483" lon="16.0616767"><ele>968.0</ele><time>2026-04-27T07:16:50.256Z</time></trkpt><trkpt lat="39.49544" lon="16.0616717"><ele>969.0</ele><time>2026-04-27T07:16:51.259Z</time></trkpt><trkpt lat="39.4955283" lon="16.06165"><ele>970.0</ele><time>2026-04-27T07:16:52.26Z</time></trkpt><trkpt lat="39.49562" lon="16.061635"><ele>967.2</ele><time>2026-04-27T07:16:53.259Z</time></trkpt><trkpt lat="39.49571" lon="16.061615"><ele>964.4</ele><time>2026-04-27T07:16:54.258Z</time></trkpt><trkpt lat="39.4958" lon="16.0616217"><ele>961.5999999999999</ele><time>2026-04-27T07:16:55.284Z</time></trkpt><trkpt lat="39.4958967" lon="16.0616417"><ele>958.8</ele><time>2026-04-27T07:16:56.257Z</time></trkpt><trkpt lat="39.496" lon="16.06165"><ele>956.0</ele><time>2026-04-27T07:16:57.261Z</time></trkpt><trkpt lat="39.4961283" lon="16.0617117"><ele>956.0</ele><time>2026-04-27T07:16:58.259Z</time></trkpt><trkpt lat="39.49623" lon="16.0617883"><ele>956.0</ele><time>2026-04-27T07:16:59.255Z</time></trkpt><trkpt lat="39.4963217" lon="16.0618917"><ele>956.0</ele><time>2026-04-27T07:17:00.261Z</time></trkpt><trkpt lat="39.496405" lon="16.0620283"><ele>956.0</ele><time>2026-04-27T07:17:01.292Z</time></trkpt><trkpt lat="39.4964983" lon="16.06217"><ele>954.25</ele><time>2026-04-27T07:17:02.266Z</time></trkpt><trkpt lat="39.4966" lon="16.0623183"><ele>952.5</ele><time>2026-04-27T07:17:03.268Z</time></trkpt><trkpt lat="39.4966333" lon="16.0624633"><ele>950.75</ele><time>2026-04-27T07:17:04.264Z</time></trkpt><trkpt lat="39.4966867" lon="16.0625683"><ele>949.0</ele><time>2026-04-27T07:17:05.265Z</time></trkpt><trkpt lat="39.4967283" lon="16.062725"><ele>949.0</ele><time>2026-04-27T07:17:06.256Z</time></trkpt><trkpt lat="39.4967733" lon="16.06289"><ele>949.0</ele><time>2026-04-27T07:17:07.279Z</time></trkpt><trkpt lat="39.4968317" lon="16.06302"><ele>949.0</ele><time>2026-04-27T07:17:08.258Z</time></trkpt><trkpt lat="39.4969" lon="16.06318"><ele>949.0</ele><time>2026-04-27T07:17:09.256Z</time></trkpt><trkpt lat="39.49695" lon="16.063325"><ele>950.4000000000001</ele><time>2026-04-27T07:17:10.252Z</time></trkpt><trkpt lat="39.4970133" lon="16.06345"><ele>951.8000000000001</ele><time>2026-04-27T07:17:11.261Z</time></trkpt><trkpt lat="39.4970417" lon="16.0635717"><ele>953.1999999999999</ele><time>2026-04-27T07:17:12.258Z</time></trkpt><trkpt lat="39.4970817" lon="16.0636667"><ele>954.5999999999999</ele><time>2026-04-27T07:17:13.275Z</time></trkpt><trkpt lat="39.497125" lon="16.0637483"><ele>956.0</ele><time>2026-04-27T07:17:14.253Z</time></trkpt><trkpt lat="39.4971983" lon="16.0638467"><ele>951.5999999999999</ele><time>2026-04-27T07:17:15.263Z</time></trkpt><trkpt lat="39.497285" lon="16.0639583"><ele>947.1999999999999</ele><time>2026-04-27T07:17:16.257Z</time></trkpt><trkpt lat="39.49736" lon="16.0640633"><ele>942.8000000000001</ele><time>2026-04-27T07:17:17.263Z</time></trkpt><trkpt lat="39.4974517" lon="16.064155"><ele>938.4000000000001</ele><time>2026-04-27T07:17:18.259Z</time></trkpt><trkpt lat="39.49749" lon="16.0642383"><ele>934.0</ele><time>2026-04-27T07:17:19.28Z</time></trkpt><trkpt lat="39.4975117" lon="16.064325"><ele>934.0</ele><time>2026-04-27T07:17:20.257Z</time></trkpt><trkpt lat="39.4975183" lon="16.0644083"><ele>934.0</ele><time>2026-04-27T07:17:21.259Z</time></trkpt><trkpt lat="39.4972883" lon="16.0644833"><ele>934.0</ele><time>2026-04-27T07:17:23.265Z</time></trkpt><trkpt lat="39.4971067" lon="16.0645017"><ele>939.0</ele><time>2026-04-27T07:17:24.257Z</time></trkpt><trkpt lat="39.4969817" lon="16.0645867"><ele>944.0</ele><time>2026-04-27T07:17:25.323Z</time></trkpt><trkpt lat="39.49689" lon="16.0646833"><ele>949.0</ele><time>2026-04-27T07:17:26.257Z</time></trkpt><trkpt lat="39.496795" lon="16.064795"><ele>954.0</ele><time>2026-04-27T07:17:27.265Z</time></trkpt><trkpt lat="39.496705" lon="16.0649233"><ele>951.25</ele><time>2026-04-27T07:17:28.261Z</time></trkpt><trkpt lat="39.496605" lon="16.065055"><ele>948.5</ele><time>2026-04-27T07:17:29.262Z</time></trkpt><trkpt lat="39.4964983" lon="16.065185"><ele>945.75</ele><time>2026-04-27T07:17:30.259Z</time></trkpt><trkpt lat="39.4963883" lon="16.0653083"><ele>943.0</ele><time>2026-04-27T07:17:31.295Z</time></trkpt><trkpt lat="39.4962983" lon="16.065425"><ele>943.5999999999999</ele><time>2026-04-27T07:17:32.259Z</time></trkpt><trkpt lat="39.4962067" lon="16.065515"><ele>944.1999999999999</ele><time>2026-04-27T07:17:33.262Z</time></trkpt><trkpt lat="39.496115" lon="16.0656167"><ele>944.8</ele><time>2026-04-27T07:17:34.264Z</time></trkpt><trkpt lat="39.4960283" lon="16.0656967"><ele>945.4</ele><time>2026-04-27T07:17:35.262Z</time></trkpt><trkpt lat="39.49595" lon="16.065775"><ele>946.0</ele><time>2026-04-27T07:17:36.259Z</time></trkpt><trkpt lat="39.4958933" lon="16.0658233"><ele>946.0</ele><time>2026-04-27T07:17:37.279Z</time></trkpt><trkpt lat="39.49583" lon="16.065785"><ele>946.0</ele><time>2026-04-27T07:17:39.265Z</time></trkpt><trkpt lat="39.4958517" lon="16.0655917"><ele>946.0</ele><time>2026-04-27T07:17:41.262Z</time></trkpt><trkpt lat="39.4958883" lon="16.0654433"><ele>946.0</ele><time>2026-04-27T07:17:42.253Z</time></trkpt><trkpt lat="39.4959283" lon="16.0652917"><ele>949.8</ele><time>2026-04-27T07:17:43.274Z</time></trkpt><trkpt lat="39.4959633" lon="16.0651733"><ele>953.5999999999999</ele><time>2026-04-27T07:17:44.255Z</time></trkpt><trkpt lat="39.495995" lon="16.065065"><ele>957.4</ele><time>2026-04-27T07:17:45.259Z</time></trkpt><trkpt lat="39.4960183" lon="16.0649567"><ele>961.2</ele><time>2026-04-27T07:17:46.258Z</time></trkpt><trkpt lat="39.4960383" lon="16.0648383"><ele>965.0</ele><time>2026-04-27T07:17:47.263Z</time></trkpt><trkpt lat="39.496055" lon="16.0647167"><ele>967.0000000000001</ele><time>2026-04-27T07:17:48.259Z</time></trkpt><trkpt lat="39.4960683" lon="16.0645933"><ele>969.0</ele><time>2026-04-27T07:17:49.275Z</time></trkpt><trkpt lat="39.4960683" lon="16.0644683"><ele>971.0</ele><time>2026-04-27T07:17:50.259Z</time></trkpt><trkpt lat="39.4960767" lon="16.0643567"><ele>973.0</ele><time>2026-04-27T07:17:51.263Z</time></trkpt><trkpt lat="39.496095" lon="16.06424"><ele>975.0000000000001</ele><time>2026-04-27T07:17:52.257Z</time></trkpt><trkpt lat="39.4961167" lon="16.064145"><ele>977.0</ele><time>2026-04-27T07:17:53.262Z</time></trkpt><trkpt lat="39.49615" lon="16.06406"><ele>977.8333333333334</ele><time>2026-04-27T07:17:54.257Z</time></trkpt><trkpt lat="39.49619" lon="16.063985"><ele>978.6666666666667</ele><time>2026-04-27T07:17:55.286Z</time></trkpt><trkpt lat="39.4962417" lon="16.0639283"><ele>979.5</ele><time>2026-04-27T07:17:56.258Z</time></trkpt><trkpt lat="39.49633" lon="16.0638417"><ele>980.3333333333333</ele><time>2026-04-27T07:17:58.256Z</time></trkpt><trkpt lat="39.496385" lon="16.0637583"><ele>981.1666666666666</ele><time>2026-04-27T07:18:00.261Z</time></trkpt><trkpt lat="39.4963683" lon="16.06367"><ele>982.0</ele><time>2026-04-27T07:18:02.258Z</time></trkpt><trkpt lat="39.4962833" lon="16.0635367"><ele>982.0</ele><time>2026-04-27T07:18:04.263Z</time></trkpt><trkpt lat="39.496235" lon="16.0634617"><ele>982.0</ele><time>2026-04-27T07:18:05.262Z</time></trkpt><trkpt lat="39.49618" lon="16.0633717"><ele>982.0</ele><time>2026-04-27T07:18:06.256Z</time></trkpt><trkpt lat="39.4961033" lon="16.0632617"><ele>982.0</ele><time>2026-04-27T07:18:07.282Z</time></trkpt><trkpt lat="39.49603" lon="16.06316"><ele>982.0</ele><time>2026-04-27T07:18:08.259Z</time></trkpt><trkpt lat="39.495965" lon="16.06309"><ele>980.25</ele><time>2026-04-27T07:18:09.263Z</time></trkpt><trkpt lat="39.4959" lon="16.0630283"><ele>978.5</ele><time>2026-04-27T07:18:10.252Z</time></trkpt><trkpt lat="39.4958017" lon="16.062965"><ele>976.75</ele><time>2026-04-27T07:18:12.262Z</time></trkpt><trkpt lat="39.4957083" lon="16.062955"><ele>975.0</ele><time>2026-04-27T07:18:14.254Z</time></trkpt><trkpt lat="39.495615" lon="16.0631917"><ele>976.75</ele><time>2026-04-27T07:18:16.256Z</time></trkpt><trkpt lat="39.495525" lon="16.0633067"><ele>978.5</ele><time>2026-04-27T07:18:17.264Z</time></trkpt><trkpt lat="39.4954233" lon="16.06342"><ele>980.25</ele><time>2026-04-27T07:18:18.262Z</time></trkpt><trkpt lat="39.4953233" lon="16.0635167"><ele>982.0</ele><time>2026-04-27T07:18:19.281Z</time></trkpt><trkpt lat="39.4952367" lon="16.06366"><ele>984.6</ele><time>2026-04-27T07:18:20.256Z</time></trkpt><trkpt lat="39.4951633" lon="16.0637583"><ele>987.2</ele><time>2026-04-27T07:18:21.255Z</time></trkpt><trkpt lat="39.495105" lon="16.06386"><ele>989.8</ele><time>2026-04-27T07:18:22.259Z</time></trkpt><trkpt lat="39.4950283" lon="16.0639567"><ele>992.4</ele><time>2026-04-27T07:18:23.261Z</time></trkpt><trkpt lat="39.4949583" lon="16.06404"><ele>995.0</ele><time>2026-04-27T07:18:24.261Z</time></trkpt><trkpt lat="39.4948733" lon="16.06412"><ele>995.25</ele><time>2026-04-27T07:18:25.28Z</time></trkpt><trkpt lat="39.4947767" lon="16.0642267"><ele>995.5</ele><time>2026-04-27T07:18:26.254Z</time></trkpt><trkpt lat="39.4946917" lon="16.06433"><ele>995.75</ele><time>2026-04-27T07:18:27.258Z</time></trkpt><trkpt lat="39.49461" lon="16.064395"><ele>996.0</ele><time>2026-04-27T07:18:28.258Z</time></trkpt><trkpt lat="39.4945" lon="16.0644267"><ele>998.5</ele><time>2026-04-27T07:18:29.261Z</time></trkpt><trkpt lat="39.4943817" lon="16.0644367"><ele>1001.0</ele><time>2026-04-27T07:18:30.259Z</time></trkpt><trkpt lat="39.4942733" lon="16.06442"><ele>1003.5</ele><time>2026-04-27T07:18:31.296Z</time></trkpt><trkpt lat="39.4941683" lon="16.064345"><ele>1006.0</ele><time>2026-04-27T07:18:32.258Z</time></trkpt><trkpt lat="39.494065" lon="16.0642817"><ele>1006.0</ele><time>2026-04-27T07:18:33.257Z</time></trkpt><trkpt lat="39.4939817" lon="16.0642233"><ele>1005.9999999999999</ele><time>2026-04-27T07:18:34.252Z</time></trkpt><trkpt lat="39.4938867" lon="16.06416"><ele>1005.9999999999999</ele><time>2026-04-27T07:18:35.266Z</time></trkpt><trkpt lat="39.4937883" lon="16.0640983"><ele>1006.0</ele><time>2026-04-27T07:18:36.252Z</time></trkpt><trkpt lat="39.49369" lon="16.0640417"><ele>1006.0</ele><time>2026-04-27T07:18:37.282Z</time></trkpt><trkpt lat="39.493585" lon="16.0639933"><ele>1009.1999999999999</ele><time>2026-04-27T07:18:38.255Z</time></trkpt><trkpt lat="39.4934833" lon="16.0639433"><ele>1012.3999999999999</ele><time>2026-04-27T07:18:39.261Z</time></trkpt><trkpt lat="39.493385" lon="16.0638817"><ele>1015.6</ele><time>2026-04-27T07:18:40.257Z</time></trkpt><trkpt lat="39.493285" lon="16.063795"><ele>1018.8</ele><time>2026-04-27T07:18:41.262Z</time></trkpt><trkpt lat="39.493195" lon="16.0637183"><ele>1022.0</ele><time>2026-04-27T07:18:42.257Z</time></trkpt><trkpt lat="39.4931067" lon="16.0636567"><ele>1022.0</ele><time>2026-04-27T07:18:43.275Z</time></trkpt><trkpt lat="39.493" lon="16.063595"><ele>1022.0</ele><time>2026-04-27T07:18:44.258Z</time></trkpt><trkpt lat="39.4928867" lon="16.0635433"><ele>1022.0</ele><time>2026-04-27T07:18:45.261Z</time></trkpt><trkpt lat="39.4927667" lon="16.0635033"><ele>1022.0</ele><time>2026-04-27T07:18:46.26Z</time></trkpt><trkpt lat="39.4926533" lon="16.0634817"><ele>1024.4</ele><time>2026-04-27T07:18:47.266Z</time></trkpt><trkpt lat="39.4925417" lon="16.0634733"><ele>1026.8000000000002</ele><time>2026-04-27T07:18:48.266Z</time></trkpt><trkpt lat="39.4924367" lon="16.0634967"><ele>1029.2</ele><time>2026-04-27T07:18:49.272Z</time></trkpt><trkpt lat="39.4923383" lon="16.0635333"><ele>1031.6000000000001</ele><time>2026-04-27T07:18:50.25Z</time></trkpt><trkpt lat="39.4922483" lon="16.0635867"><ele>1034.0</ele><time>2026-04-27T07:18:51.265Z</time></trkpt><trkpt lat="39.4921717" lon="16.0636467"><ele>1034.0</ele><time>2026-04-27T07:18:52.256Z</time></trkpt><trkpt lat="39.4921233" lon="16.063715"><ele>1034.0</ele><time>2026-04-27T07:18:53.262Z</time></trkpt><trkpt lat="39.4920783" lon="16.0637733"><ele>1034.0</ele><time>2026-04-27T07:18:54.26Z</time></trkpt><trkpt lat="39.4920083" lon="16.063835"><ele>1034.0</ele><time>2026-04-27T07:18:56.259Z</time></trkpt><trkpt lat="39.4919867" lon="16.0637583"><ele>1034.0</ele><time>2026-04-27T07:18:59.264Z</time></trkpt><trkpt lat="39.4919633" lon="16.06361"><ele>1034.0</ele><time>2026-04-27T07:19:01.292Z</time></trkpt><trkpt lat="39.4919417" lon="16.0635067"><ele>1036.75</ele><time>2026-04-27T07:19:02.255Z</time></trkpt><trkpt lat="39.4919283" lon="16.0633717"><ele>1039.5</ele><time>2026-04-27T07:19:03.262Z</time></trkpt><trkpt lat="39.4919" lon="16.0632067"><ele>1042.25</ele><time>2026-04-27T07:19:04.257Z</time></trkpt><trkpt lat="39.4918533" lon="16.06303"><ele>1045.0</ele><time>2026-04-27T07:19:05.263Z</time></trkpt><trkpt lat="39.4918067" lon="16.06288"><ele>1045.75</ele><time>2026-04-27T07:19:06.261Z</time></trkpt><trkpt lat="39.4917433" lon="16.0627117"><ele>1046.5</ele><time>2026-04-27T07:19:07.274Z</time></trkpt><trkpt lat="39.4916883" lon="16.0625433"><ele>1047.25</ele><time>2026-04-27T07:19:08.26Z</time></trkpt><trkpt lat="39.49163" lon="16.062375"><ele>1048.0</ele><time>2026-04-27T07:19:09.259Z</time></trkpt><trkpt lat="39.4915983" lon="16.0622217"><ele>1050.0</ele><time>2026-04-27T07:19:10.258Z</time></trkpt><trkpt lat="39.4915533" lon="16.062075"><ele>1052.0</ele><time>2026-04-27T07:19:11.257Z</time></trkpt><trkpt lat="39.4915217" lon="16.0619533"><ele>1054.0</ele><time>2026-04-27T07:19:12.255Z</time></trkpt><trkpt lat="39.491495" lon="16.0618733"><ele>1056.0</ele><time>2026-04-27T07:19:13.276Z</time></trkpt><trkpt lat="39.4914217" lon="16.0617933"><ele>1058.0</ele><time>2026-04-27T07:19:14.253Z</time></trkpt><trkpt lat="39.4913467" lon="16.0617633"><ele>1062.25</ele><time>2026-04-27T07:19:15.259Z</time></trkpt><trkpt lat="39.4912367" lon="16.0617483"><ele>1066.5</ele><time>2026-04-27T07:19:16.258Z</time></trkpt><trkpt lat="39.4911267" lon="16.0617533"><ele>1070.75</ele><time>2026-04-27T07:19:17.256Z</time></trkpt><trkpt lat="39.4910067" lon="16.0617717"><ele>1075.0</ele><time>2026-04-27T07:19:18.259Z</time></trkpt><trkpt lat="39.4908717" lon="16.06179"><ele>1075.0</ele><time>2026-04-27T07:19:19.277Z</time></trkpt><trkpt lat="39.4907217" lon="16.0618167"><ele>1075.0</ele><time>2026-04-27T07:19:20.262Z</time></trkpt><trkpt lat="39.4905567" lon="16.061845"><ele>1075.0</ele><time>2026-04-27T07:19:21.26Z</time></trkpt><trkpt lat="39.49042" lon="16.0618783"><ele>1077.75</ele><time>2026-04-27T07:19:22.259Z</time></trkpt><trkpt lat="39.49028" lon="16.0618983"><ele>1080.5</ele><time>2026-04-27T07:19:23.256Z</time></trkpt><trkpt lat="39.4901267" lon="16.0619367"><ele>1083.25</ele><time>2026-04-27T07:19:24.257Z</time></trkpt><trkpt lat="39.4899917" lon="16.061975"><ele>1086.0</ele><time>2026-04-27T07:19:25.299Z</time></trkpt><trkpt lat="39.48985" lon="16.06202"><ele>1086.0</ele><time>2026-04-27T07:19:26.253Z</time></trkpt><trkpt lat="39.4897133" lon="16.0620517"><ele>1086.0</ele><time>2026-04-27T07:19:27.258Z</time></trkpt><trkpt lat="39.4895767" lon="16.0620817"><ele>1086.0</ele><time>2026-04-27T07:19:28.263Z</time></trkpt><trkpt lat="39.4894417" lon="16.0621083"><ele>1086.0</ele><time>2026-04-27T07:19:29.26Z</time></trkpt><trkpt lat="39.4893033" lon="16.06212"><ele>1089.0</ele><time>2026-04-27T07:19:30.262Z</time></trkpt><trkpt lat="39.48916" lon="16.06212"><ele>1092.0</ele><time>2026-04-27T07:19:31.298Z</time></trkpt><trkpt lat="39.4890267" lon="16.0621167"><ele>1095.0</ele><time>2026-04-27T07:19:32.258Z</time></trkpt><trkpt lat="39.488895" lon="16.0621133"><ele>1098.0</ele><time>2026-04-27T07:19:33.263Z</time></trkpt><trkpt lat="39.4887567" lon="16.0620083"><ele>1100.8333333333333</ele><time>2026-04-27T07:19:34.257Z</time></trkpt><trkpt lat="39.4886317" lon="16.061995"><ele>1103.6666666666667</ele><time>2026-04-27T07:19:35.265Z</time></trkpt><trkpt lat="39.48855" lon="16.062005"><ele>1106.5</ele><time>2026-04-27T07:19:36.261Z</time></trkpt><trkpt lat="39.48847" lon="16.0620383"><ele>1109.3333333333335</ele><time>2026-04-27T07:19:37.275Z</time></trkpt><trkpt lat="39.4884167" lon="16.0621017"><ele>1112.1666666666667</ele><time>2026-04-27T07:19:38.253Z</time></trkpt><trkpt lat="39.4883417" lon="16.06215"><ele>1115.0</ele><time>2026-04-27T07:19:39.253Z</time></trkpt><trkpt lat="39.488265" lon="16.0622067"><ele>1115.0</ele><time>2026-04-27T07:19:40.259Z</time></trkpt><trkpt lat="39.4882117" lon="16.062285"><ele>1115.0</ele><time>2026-04-27T07:19:41.261Z</time></trkpt><trkpt lat="39.4881433" lon="16.0623633"><ele>1115.0</ele><time>2026-04-27T07:19:42.254Z</time></trkpt><trkpt lat="39.488115" lon="16.0624783"><ele>1115.0</ele><time>2026-04-27T07:19:43.276Z</time></trkpt><trkpt lat="39.4880533" lon="16.06255"><ele>1115.0</ele><time>2026-04-27T07:19:44.255Z</time></trkpt><trkpt lat="39.48799" lon="16.0626283"><ele>1115.0</ele><time>2026-04-27T07:19:45.255Z</time></trkpt><trkpt lat="39.4879233" lon="16.0627117"><ele>1114.1666666666667</ele><time>2026-04-27T07:19:46.252Z</time></trkpt><trkpt lat="39.487845" lon="16.0627583"><ele>1113.3333333333335</ele><time>2026-04-27T07:19:47.254Z</time></trkpt><trkpt lat="39.4877483" lon="16.062775"><ele>1112.5</ele><time>2026-04-27T07:19:48.266Z</time></trkpt><trkpt lat="39.4876617" lon="16.0627967"><ele>1111.6666666666667</ele><time>2026-04-27T07:19:49.274Z</time></trkpt><trkpt lat="39.48758" lon="16.0628333"><ele>1110.8333333333333</ele><time>2026-04-27T07:19:50.261Z</time></trkpt><trkpt lat="39.4875183" lon="16.0628533"><ele>1110.0</ele><time>2026-04-27T07:19:51.258Z</time></trkpt><trkpt lat="39.48745" lon="16.0627767"><ele>1110.0000000000002</ele><time>2026-04-27T07:19:53.257Z</time></trkpt><trkpt lat="39.4874517" lon="16.0626683"><ele>1110.0</ele><time>2026-04-27T07:19:55.33Z</time></trkpt><trkpt lat="39.4874817" lon="16.0625817"><ele>1110.0</ele><time>2026-04-27T07:19:56.258Z</time></trkpt><trkpt lat="39.4875067" lon="16.062505"><ele>1110.0</ele><time>2026-04-27T07:19:57.253Z</time></trkpt><trkpt lat="39.4875217" lon="16.0624117"><ele>1110.0</ele><time>2026-04-27T07:19:58.256Z</time></trkpt><trkpt lat="39.4875183" lon="16.0623133"><ele>1110.0000000000002</ele><time>2026-04-27T07:19:59.261Z</time></trkpt><trkpt lat="39.48752" lon="16.0622133"><ele>1110.0</ele><time>2026-04-27T07:20:00.258Z</time></trkpt><trkpt lat="39.4875033" lon="16.0621133"><ele>1114.0</ele><time>2026-04-27T07:20:01.298Z</time></trkpt><trkpt lat="39.4874883" lon="16.0620267"><ele>1118.0</ele><time>2026-04-27T07:20:02.259Z</time></trkpt><trkpt lat="39.48742" lon="16.0619033"><ele>1122.0</ele><time>2026-04-27T07:20:04.253Z</time></trkpt><trkpt lat="39.4872867" lon="16.0618383"><ele>1126.0</ele><time>2026-04-27T07:20:06.261Z</time></trkpt><trkpt lat="39.4872217" lon="16.061815"><ele>1130.0</ele><time>2026-04-27T07:20:07.277Z</time></trkpt><trkpt lat="39.4871583" lon="16.0617983"><ele>1133.3333333333335</ele><time>2026-04-27T07:20:08.26Z</time></trkpt><trkpt lat="39.487085" lon="16.0617917"><ele>1136.6666666666667</ele><time>2026-04-27T07:20:09.257Z</time></trkpt><trkpt lat="39.4870033" lon="16.0618017"><ele>1140.0</ele><time>2026-04-27T07:20:10.254Z</time></trkpt><trkpt lat="39.48693" lon="16.0618183"><ele>1143.3333333333333</ele><time>2026-04-27T07:20:11.256Z</time></trkpt><trkpt lat="39.48687" lon="16.061845"><ele>1146.6666666666665</ele><time>2026-04-27T07:20:12.258Z</time></trkpt><trkpt lat="39.4867667" lon="16.0619017"><ele>1150.0</ele><time>2026-04-27T07:20:14.252Z</time></trkpt><trkpt lat="39.4866933" lon="16.0619383"><ele>1150.0</ele><time>2026-04-27T07:20:15.261Z</time></trkpt><trkpt lat="39.4866317" lon="16.061975"><ele>1150.0</ele><time>2026-04-27T07:20:16.262Z</time></trkpt><trkpt lat="39.4865667" lon="16.0621217"><ele>1150.0</ele><time>2026-04-27T07:20:17.265Z</time></trkpt><trkpt lat="39.4865133" lon="16.0622367"><ele>1150.0</ele><time>2026-04-27T07:20:18.253Z</time></trkpt><trkpt lat="39.4864517" lon="16.0623283"><ele>1150.0</ele><time>2026-04-27T07:20:19.279Z</time></trkpt><trkpt lat="39.4863733" lon="16.062375"><ele>1150.0</ele><time>2026-04-27T07:20:20.258Z</time></trkpt><trkpt lat="39.4863" lon="16.0624167"><ele>1150.0</ele><time>2026-04-27T07:20:21.259Z</time></trkpt><trkpt lat="39.486235" lon="16.06244"><ele>1150.0</ele><time>2026-04-27T07:20:22.255Z</time></trkpt><trkpt lat="39.4861467" lon="16.062465"><ele>1150.0</ele><time>2026-04-27T07:20:23.262Z</time></trkpt><trkpt lat="39.48607" lon="16.0624817"><ele>1150.0</ele><time>2026-04-27T07:20:24.258Z</time></trkpt><trkpt lat="39.4859817" lon="16.0625117"><ele>1150.0</ele><time>2026-04-27T07:20:25.318Z</time></trkpt><trkpt lat="39.4859133" lon="16.0625533"><ele>1149.2</ele><time>2026-04-27T07:20:26.253Z</time></trkpt><trkpt lat="39.48585" lon="16.0625967"><ele>1148.4</ele><time>2026-04-27T07:20:27.259Z</time></trkpt><trkpt lat="39.4857617" lon="16.0626533"><ele>1147.6</ele><time>2026-04-27T07:20:29.266Z</time></trkpt><trkpt lat="39.4856533" lon="16.062685"><ele>1146.8</ele><time>2026-04-27T07:20:31.303Z</time></trkpt><trkpt lat="39.4855733" lon="16.06272"><ele>1146.0</ele><time>2026-04-27T07:20:33.265Z</time></trkpt><trkpt lat="39.4855067" lon="16.0628017"><ele>1146.0</ele><time>2026-04-27T07:20:36.255Z</time></trkpt><trkpt lat="39.4854633" lon="16.0629117"><ele>1146.0</ele><time>2026-04-27T07:20:38.263Z</time></trkpt><trkpt lat="39.4854217" lon="16.0629983"><ele>1146.0</ele><time>2026-04-27T07:20:39.262Z</time></trkpt><trkpt lat="39.485365" lon="16.06308"><ele>1146.0</ele><time>2026-04-27T07:20:40.254Z</time></trkpt><trkpt lat="39.4853283" lon="16.0631567"><ele>1146.0</ele><time>2026-04-27T07:20:41.262Z</time></trkpt><trkpt lat="39.4852867" lon="16.0632217"><ele>1146.0</ele><time>2026-04-27T07:20:42.259Z</time></trkpt><trkpt lat="39.4852417" lon="16.0632917"><ele>1146.6666666666667</ele><time>2026-04-27T07:20:43.277Z</time></trkpt><trkpt lat="39.4851917" lon="16.0633517"><ele>1147.3333333333333</ele><time>2026-04-27T07:20:44.253Z</time></trkpt><trkpt lat="39.4850733" lon="16.063425"><ele>1148.0</ele><time>2026-04-27T07:20:46.26Z</time></trkpt><trkpt lat="39.4849867" lon="16.0634333"><ele>1148.6666666666665</ele><time>2026-04-27T07:20:47.265Z</time></trkpt><trkpt lat="39.48492" lon="16.0634483"><ele>1149.3333333333333</ele><time>2026-04-27T07:20:48.259Z</time></trkpt><trkpt lat="39.4848567" lon="16.0634683"><ele>1150.0</ele><time>2026-04-27T07:20:49.276Z</time></trkpt><trkpt lat="39.4848" lon="16.063505"><ele>1150.0</ele><time>2026-04-27T07:20:50.258Z</time></trkpt><trkpt lat="39.484735" lon="16.0635483"><ele>1150.0</ele><time>2026-04-27T07:20:51.27Z</time></trkpt><trkpt lat="39.4846683" lon="16.0635817"><ele>1150.0</ele><time>2026-04-27T07:20:52.255Z</time></trkpt><trkpt lat="39.4845933" lon="16.0636067"><ele>1150.0</ele><time>2026-04-27T07:20:53.261Z</time></trkpt><trkpt lat="39.48451" lon="16.0636317"><ele>1150.0</ele><time>2026-04-27T07:20:54.257Z</time></trkpt><trkpt lat="39.4844333" lon="16.0636733"><ele>1150.0</ele><time>2026-04-27T07:20:55.277Z</time></trkpt><trkpt lat="39.48435" lon="16.0637"><ele>1154.0</ele><time>2026-04-27T07:20:56.255Z</time></trkpt><trkpt lat="39.4842817" lon="16.06375"><ele>1158.0</ele><time>2026-04-27T07:20:57.258Z</time></trkpt><trkpt lat="39.4841967" lon="16.0638017"><ele>1162.0</ele><time>2026-04-27T07:20:58.257Z</time></trkpt><trkpt lat="39.4841233" lon="16.063865"><ele>1166.0</ele><time>2026-04-27T07:20:59.251Z</time></trkpt><trkpt lat="39.484045" lon="16.0639283"><ele>1170.0</ele><time>2026-04-27T07:21:00.258Z</time></trkpt><trkpt lat="39.48397" lon="16.0639983"><ele>1174.0</ele><time>2026-04-27T07:21:01.26Z</time></trkpt><trkpt lat="39.483855" lon="16.0641"><ele>1175.75</ele><time>2026-04-27T07:21:02.257Z</time></trkpt><trkpt lat="39.4837267" lon="16.0641967"><ele>1177.5</ele><time>2026-04-27T07:21:03.255Z</time></trkpt><trkpt lat="39.48363" lon="16.0642983"><ele>1179.25</ele><time>2026-04-27T07:21:04.256Z</time></trkpt><trkpt lat="39.4835067" lon="16.0644317"><ele>1181.0</ele><time>2026-04-27T07:21:05.262Z</time></trkpt><trkpt lat="39.4833833" lon="16.06458"><ele>1181.0</ele><time>2026-04-27T07:21:06.258Z</time></trkpt><trkpt lat="39.4832717" lon="16.064715"><ele>1181.0</ele><time>2026-04-27T07:21:07.274Z</time></trkpt><trkpt lat="39.4831467" lon="16.064855"><ele>1181.0</ele><time>2026-04-27T07:21:08.251Z</time></trkpt><trkpt lat="39.4830333" lon="16.0649883"><ele>1179.25</ele><time>2026-04-27T07:21:09.261Z</time></trkpt><trkpt lat="39.4829283" lon="16.0650933"><ele>1177.5</ele><time>2026-04-27T07:21:10.26Z</time></trkpt><trkpt lat="39.4828267" lon="16.065195"><ele>1175.75</ele><time>2026-04-27T07:21:11.258Z</time></trkpt><trkpt lat="39.48273" lon="16.0652583"><ele>1174.0</ele><time>2026-04-27T07:21:12.255Z</time></trkpt><trkpt lat="39.48265" lon="16.0653"><ele>1174.0</ele><time>2026-04-27T07:21:13.273Z</time></trkpt><trkpt lat="39.482565" lon="16.0653617"><ele>1174.0</ele><time>2026-04-27T07:21:14.256Z</time></trkpt><trkpt lat="39.4824733" lon="16.0653933"><ele>1174.0</ele><time>2026-04-27T07:21:15.257Z</time></trkpt><trkpt lat="39.4823983" lon="16.0654"><ele>1174.0</ele><time>2026-04-27T07:21:16.258Z</time></trkpt><trkpt lat="39.4822983" lon="16.0653933"><ele>1174.0</ele><time>2026-04-27T07:21:17.262Z</time></trkpt><trkpt lat="39.4821783" lon="16.0653717"><ele>1173.0</ele><time>2026-04-27T07:21:18.256Z</time></trkpt><trkpt lat="39.4820567" lon="16.0653617"><ele>1172.0</ele><time>2026-04-27T07:21:19.271Z</time></trkpt><trkpt lat="39.48193" lon="16.0653383"><ele>1171.0</ele><time>2026-04-27T07:21:20.253Z</time></trkpt><trkpt lat="39.4818" lon="16.0653067"><ele>1170.0</ele><time>2026-04-27T07:21:21.261Z</time></trkpt><trkpt lat="39.481665" lon="16.0652567"><ele>1170.0</ele><time>2026-04-27T07:21:22.256Z</time></trkpt><trkpt lat="39.481535" lon="16.0652033"><ele>1170.0</ele><time>2026-04-27T07:21:23.259Z</time></trkpt><trkpt lat="39.481405" lon="16.0651467"><ele>1170.0</ele><time>2026-04-27T07:21:24.261Z</time></trkpt><trkpt lat="39.4812767" lon="16.0650733"><ele>1170.0</ele><time>2026-04-27T07:21:25.322Z</time></trkpt><trkpt lat="39.481165" lon="16.0650083"><ele>1172.8</ele><time>2026-04-27T07:21:26.256Z</time></trkpt><trkpt lat="39.4810617" lon="16.0649333"><ele>1175.6</ele><time>2026-04-27T07:21:27.262Z</time></trkpt><trkpt lat="39.480965" lon="16.0648833"><ele>1178.4</ele><time>2026-04-27T07:21:28.263Z</time></trkpt><trkpt lat="39.4808883" lon="16.0648317"><ele>1181.2</ele><time>2026-04-27T07:21:29.257Z</time></trkpt><trkpt lat="39.480805" lon="16.06475"><ele>1184.0</ele><time>2026-04-27T07:21:30.258Z</time></trkpt><trkpt lat="39.4807167" lon="16.06469"><ele>1184.0</ele><time>2026-04-27T07:21:31.295Z</time></trkpt><trkpt lat="39.480625" lon="16.0646183"><ele>1184.0</ele><time>2026-04-27T07:21:32.261Z</time></trkpt><trkpt lat="39.4805417" lon="16.0645483"><ele>1184.0</ele><time>2026-04-27T07:21:33.258Z</time></trkpt><trkpt lat="39.4804483" lon="16.0644583"><ele>1184.0</ele><time>2026-04-27T07:21:34.258Z</time></trkpt><trkpt lat="39.4803467" lon="16.06437"><ele>1184.0</ele><time>2026-04-27T07:21:35.261Z</time></trkpt><trkpt lat="39.480245" lon="16.0642917"><ele>1183.0</ele><time>2026-04-27T07:21:36.263Z</time></trkpt><trkpt lat="39.4801417" lon="16.0642117"><ele>1182.0</ele><time>2026-04-27T07:21:37.278Z</time></trkpt><trkpt lat="39.4800383" lon="16.0641333"><ele>1181.0</ele><time>2026-04-27T07:21:38.264Z</time></trkpt><trkpt lat="39.4799117" lon="16.064055"><ele>1180.0</ele><time>2026-04-27T07:21:39.27Z</time></trkpt><trkpt lat="39.4797667" lon="16.0639883"><ele>1180.0</ele><time>2026-04-27T07:21:40.257Z</time></trkpt><trkpt lat="39.4796217" lon="16.063915"><ele>1180.0</ele><time>2026-04-27T07:21:41.264Z</time></trkpt><trkpt lat="39.4794833" lon="16.063875"><ele>1180.0</ele><time>2026-04-27T07:21:42.26Z</time></trkpt><trkpt lat="39.479345" lon="16.0638367"><ele>1180.0</ele><time>2026-04-27T07:21:43.277Z</time></trkpt><trkpt lat="39.479195" lon="16.0637983"><ele>1174.25</ele><time>2026-04-27T07:21:44.256Z</time></trkpt><trkpt lat="39.4790517" lon="16.0637867"><ele>1168.5</ele><time>2026-04-27T07:21:45.258Z</time></trkpt><trkpt lat="39.4789167" lon="16.0637917"><ele>1162.75</ele><time>2026-04-27T07:21:46.258Z</time></trkpt><trkpt lat="39.4787883" lon="16.0638117"><ele>1157.0</ele><time>2026-04-27T07:21:47.26Z</time></trkpt><trkpt lat="39.4786517" lon="16.0638567"><ele>1152.75</ele><time>2026-04-27T07:21:48.262Z</time></trkpt><trkpt lat="39.4785283" lon="16.0638917"><ele>1148.5</ele><time>2026-04-27T07:21:49.289Z</time></trkpt><trkpt lat="39.4783917" lon="16.0639117"><ele>1144.25</ele><time>2026-04-27T07:21:50.259Z</time></trkpt><trkpt lat="39.4782583" lon="16.0639517"><ele>1140.0</ele><time>2026-04-27T07:21:51.262Z</time></trkpt><trkpt lat="39.4781367" lon="16.0639867"><ele>1140.0</ele><time>2026-04-27T07:21:52.26Z</time></trkpt><trkpt lat="39.4780317" lon="16.064005"><ele>1140.0</ele><time>2026-04-27T07:21:53.256Z</time></trkpt><trkpt lat="39.4779267" lon="16.06402"><ele>1140.0</ele><time>2026-04-27T07:21:54.255Z</time></trkpt><trkpt lat="39.47783" lon="16.0640333"><ele>1140.0</ele><time>2026-04-27T07:21:55.322Z</time></trkpt><trkpt lat="39.4777267" lon="16.0640317"><ele>1140.0</ele><time>2026-04-27T07:21:56.253Z</time></trkpt><trkpt lat="39.47764" lon="16.0640283"><ele>1138.5714285714284</ele><time>2026-04-27T07:21:57.259Z</time></trkpt><trkpt lat="39.477555" lon="16.0640233"><ele>1137.142857142857</ele><time>2026-04-27T07:21:59.256Z</time></trkpt><trkpt lat="39.4774917" lon="16.063985"><ele>1135.7142857142858</ele><time>2026-04-27T07:22:03.253Z</time></trkpt><trkpt lat="39.4774333" lon="16.06394"><ele>1134.2857142857142</ele><time>2026-04-27T07:22:07.28Z</time></trkpt><trkpt lat="39.4773767" lon="16.0638933"><ele>1132.857142857143</ele><time>2026-04-27T07:22:10.262Z</time></trkpt><trkpt lat="39.477305" lon="16.06386"><ele>1131.4285714285713</ele><time>2026-04-27T07:22:12.259Z</time></trkpt><trkpt lat="39.477225" lon="16.06385"><ele>1130.0</ele><time>2026-04-27T07:22:14.261Z</time></trkpt><trkpt lat="39.4772983" lon="16.06385"><ele>1130.0</ele><time>2026-04-27T07:22:24.265Z</time></trkpt><trkpt lat="39.477385" lon="16.0638433"><ele>1130.0</ele><time>2026-04-27T07:22:26.254Z</time></trkpt><trkpt lat="39.47747" lon="16.06388"><ele>1130.0</ele><time>2026-04-27T07:22:28.259Z</time></trkpt><trkpt lat="39.47754" lon="16.063965"><ele>1130.0</ele><time>2026-04-27T07:22:31.291Z</time></trkpt><trkpt lat="39.4775833" lon="16.0640433"><ele>1130.0</ele><time>2026-04-27T07:22:33.261Z</time></trkpt><trkpt lat="39.47761" lon="16.0641333"><ele>1130.0</ele><time>2026-04-27T07:22:36.256Z</time></trkpt><trkpt lat="39.4776067" lon="16.0642183"><ele>1131.6666666666667</ele><time>2026-04-27T07:22:38.257Z</time></trkpt><trkpt lat="39.477575" lon="16.064375"><ele>1133.3333333333335</ele><time>2026-04-27T07:22:40.257Z</time></trkpt><trkpt lat="39.4775467" lon="16.0644567"><ele>1135.0</ele><time>2026-04-27T07:22:41.256Z</time></trkpt><trkpt lat="39.4775133" lon="16.0645367"><ele>1136.6666666666667</ele><time>2026-04-27T07:22:42.254Z</time></trkpt><trkpt lat="39.4774717" lon="16.0646267"><ele>1138.3333333333333</ele><time>2026-04-27T07:22:43.278Z</time></trkpt><trkpt lat="39.4774017" lon="16.0646967"><ele>1140.0</ele><time>2026-04-27T07:22:44.251Z</time></trkpt><trkpt lat="39.47733" lon="16.0647783"><ele>1140.0</ele><time>2026-04-27T07:22:45.26Z</time></trkpt><trkpt lat="39.4772383" lon="16.0648783"><ele>1140.0</ele><time>2026-04-27T07:22:46.257Z</time></trkpt><trkpt lat="39.477155" lon="16.0649883"><ele>1140.0</ele><time>2026-04-27T07:22:47.263Z</time></trkpt><trkpt lat="39.477075" lon="16.0650917"><ele>1140.0</ele><time>2026-04-27T07:22:48.251Z</time></trkpt><trkpt lat="39.4770033" lon="16.0652"><ele>1140.6</ele><time>2026-04-27T07:22:49.278Z</time></trkpt><trkpt lat="39.47694" lon="16.0653017"><ele>1141.2</ele><time>2026-04-27T07:22:50.257Z</time></trkpt><trkpt lat="39.47689" lon="16.0654067"><ele>1141.8</ele><time>2026-04-27T07:22:51.265Z</time></trkpt><trkpt lat="39.4768233" lon="16.065505"><ele>1142.4</ele><time>2026-04-27T07:22:52.262Z</time></trkpt><trkpt lat="39.4767533" lon="16.0656167"><ele>1143.0</ele><time>2026-04-27T07:22:53.274Z</time></trkpt><trkpt lat="39.476685" lon="16.0657083"><ele>1138.8</ele><time>2026-04-27T07:22:54.262Z</time></trkpt><trkpt lat="39.4766183" lon="16.0658033"><ele>1134.6</ele><time>2026-04-27T07:22:55.258Z</time></trkpt><trkpt lat="39.476555" lon="16.06589"><ele>1130.4</ele><time>2026-04-27T07:22:56.253Z</time></trkpt><trkpt lat="39.47649" lon="16.0659767"><ele>1126.2</ele><time>2026-04-27T07:22:57.255Z</time></trkpt><trkpt lat="39.4764217" lon="16.0660717"><ele>1122.0</ele><time>2026-04-27T07:22:58.261Z</time></trkpt><trkpt lat="39.4763533" lon="16.0661633"><ele>1122.0</ele><time>2026-04-27T07:22:59.258Z</time></trkpt><trkpt lat="39.47628" lon="16.0662583"><ele>1122.0</ele><time>2026-04-27T07:23:00.255Z</time></trkpt><trkpt lat="39.476205" lon="16.06635"><ele>1122.0</ele><time>2026-04-27T07:23:01.261Z</time></trkpt><trkpt lat="39.4761283" lon="16.0664283"><ele>1122.0</ele><time>2026-04-27T07:23:02.253Z</time></trkpt><trkpt lat="39.4760483" lon="16.0665033"><ele>1122.0</ele><time>2026-04-27T07:23:03.26Z</time></trkpt><trkpt lat="39.4759733" lon="16.0665617"><ele>1119.4</ele><time>2026-04-27T07:23:04.257Z</time></trkpt><trkpt lat="39.4758833" lon="16.06662"><ele>1116.8000000000002</ele><time>2026-04-27T07:23:05.256Z</time></trkpt><trkpt lat="39.4758033" lon="16.066695"><ele>1114.2</ele><time>2026-04-27T07:23:06.265Z</time></trkpt><trkpt lat="39.4757217" lon="16.0667683"><ele>1111.6000000000001</ele><time>2026-04-27T07:23:07.281Z</time></trkpt><trkpt lat="39.475645" lon="16.06685"><ele>1109.0</ele><time>2026-04-27T07:23:08.253Z</time></trkpt><trkpt lat="39.47557" lon="16.0669383"><ele>1109.0</ele><time>2026-04-27T07:23:09.258Z</time></trkpt><trkpt lat="39.4755033" lon="16.0670433"><ele>1109.0</ele><time>2026-04-27T07:23:10.258Z</time></trkpt><trkpt lat="39.4754317" lon="16.0671667"><ele>1109.0</ele><time>2026-04-27T07:23:11.261Z</time></trkpt><trkpt lat="39.4753667" lon="16.067295"><ele>1109.0</ele><time>2026-04-27T07:23:12.261Z</time></trkpt><trkpt lat="39.47529" lon="16.0674267"><ele>1108.8</ele><time>2026-04-27T07:23:13.277Z</time></trkpt><trkpt lat="39.4752133" lon="16.0675283"><ele>1108.6000000000001</ele><time>2026-04-27T07:23:14.254Z</time></trkpt><trkpt lat="39.4751417" lon="16.0676317"><ele>1108.4</ele><time>2026-04-27T07:23:15.25Z</time></trkpt><trkpt lat="39.4750567" lon="16.0677267"><ele>1108.2</ele><time>2026-04-27T07:23:16.261Z</time></trkpt><trkpt lat="39.4749633" lon="16.0678033"><ele>1108.0</ele><time>2026-04-27T07:23:17.255Z</time></trkpt><trkpt lat="39.4748817" lon="16.0678817"><ele>1108.0</ele><time>2026-04-27T07:23:18.259Z</time></trkpt><trkpt lat="39.4748017" lon="16.0679633"><ele>1108.0</ele><time>2026-04-27T07:23:19.278Z</time></trkpt><trkpt lat="39.4747117" lon="16.0680383"><ele>1108.0</ele><time>2026-04-27T07:23:20.257Z</time></trkpt><trkpt lat="39.47463" lon="16.0680933"><ele>1108.0</ele><time>2026-04-27T07:23:21.252Z</time></trkpt><trkpt lat="39.4745617" lon="16.0681667"><ele>1108.0</ele><time>2026-04-27T07:23:22.254Z</time></trkpt><trkpt lat="39.4745017" lon="16.0682617"><ele>1108.2</ele><time>2026-04-27T07:23:23.262Z</time></trkpt><trkpt lat="39.4744433" lon="16.068365"><ele>1108.4</ele><time>2026-04-27T07:23:24.259Z</time></trkpt><trkpt lat="39.47438" lon="16.0684483"><ele>1108.6000000000001</ele><time>2026-04-27T07:23:25.26Z</time></trkpt><trkpt lat="39.4743283" lon="16.0685617"><ele>1108.8</ele><time>2026-04-27T07:23:26.259Z</time></trkpt><trkpt lat="39.4742783" lon="16.0686667"><ele>1109.0</ele><time>2026-04-27T07:23:27.257Z</time></trkpt><trkpt lat="39.4742183" lon="16.068765"><ele>1109.0</ele><time>2026-04-27T07:23:28.257Z</time></trkpt><trkpt lat="39.474155" lon="16.0688467"><ele>1109.0</ele><time>2026-04-27T07:23:29.259Z</time></trkpt><trkpt lat="39.4740817" lon="16.0689333"><ele>1109.0</ele><time>2026-04-27T07:23:30.259Z</time></trkpt><trkpt lat="39.47399" lon="16.0690183"><ele>1109.0</ele><time>2026-04-27T07:23:31.268Z</time></trkpt><trkpt lat="39.4738983" lon="16.0691033"><ele>1109.0</ele><time>2026-04-27T07:23:32.253Z</time></trkpt><trkpt lat="39.4738117" lon="16.069195"><ele>1107.5</ele><time>2026-04-27T07:23:33.262Z</time></trkpt><trkpt lat="39.4737283" lon="16.069295"><ele>1106.0</ele><time>2026-04-27T07:23:34.261Z</time></trkpt><trkpt lat="39.4736533" lon="16.0694133"><ele>1104.5</ele><time>2026-04-27T07:23:35.264Z</time></trkpt><trkpt lat="39.4735833" lon="16.0695433"><ele>1103.0</ele><time>2026-04-27T07:23:36.252Z</time></trkpt><trkpt lat="39.4735033" lon="16.06967"><ele>1103.0</ele><time>2026-04-27T07:23:37.277Z</time></trkpt><trkpt lat="39.47347" lon="16.069815"><ele>1103.0</ele><time>2026-04-27T07:23:38.256Z</time></trkpt><trkpt lat="39.473385" lon="16.0699067"><ele>1103.0</ele><time>2026-04-27T07:23:39.262Z</time></trkpt><trkpt lat="39.4733017" lon="16.070005"><ele>1103.0</ele><time>2026-04-27T07:23:40.261Z</time></trkpt><trkpt lat="39.4732183" lon="16.07009"><ele>1103.0</ele><time>2026-04-27T07:23:41.264Z</time></trkpt><trkpt lat="39.473135" lon="16.0701717"><ele>1102.5</ele><time>2026-04-27T07:23:42.258Z</time></trkpt><trkpt lat="39.4730467" lon="16.0702583"><ele>1102.0</ele><time>2026-04-27T07:23:43.275Z</time></trkpt><trkpt lat="39.47293" lon="16.070315"><ele>1101.5</ele><time>2026-04-27T07:23:45.265Z</time></trkpt><trkpt lat="39.4728467" lon="16.070345"><ele>1101.0</ele><time>2026-04-27T07:23:47.269Z</time></trkpt><trkpt lat="39.4727217" lon="16.0704433"><ele>1101.0</ele><time>2026-04-27T07:23:49.277Z</time></trkpt><trkpt lat="39.4726483" lon="16.0705067"><ele>1101.0</ele><time>2026-04-27T07:23:50.259Z</time></trkpt><trkpt lat="39.4725567" lon="16.070555"><ele>1101.0</ele><time>2026-04-27T07:23:51.259Z</time></trkpt><trkpt lat="39.4724717" lon="16.0706017"><ele>1101.0</ele><time>2026-04-27T07:23:52.261Z</time></trkpt><trkpt lat="39.4723883" lon="16.07061"><ele>1101.0</ele><time>2026-04-27T07:23:53.26Z</time></trkpt><trkpt lat="39.472275" lon="16.0706617"><ele>1101.0</ele><time>2026-04-27T07:23:55.324Z</time></trkpt><trkpt lat="39.4722217" lon="16.070745"><ele>1101.0</ele><time>2026-04-27T07:23:57.264Z</time></trkpt><trkpt lat="39.472185" lon="16.07087"><ele>1101.0</ele><time>2026-04-27T07:23:59.256Z</time></trkpt><trkpt lat="39.472105" lon="16.07101"><ele>1101.0</ele><time>2026-04-27T07:24:01.296Z</time></trkpt><trkpt lat="39.4720383" lon="16.071085"><ele>1101.0</ele><time>2026-04-27T07:24:02.253Z</time></trkpt><trkpt lat="39.471975" lon="16.0711433"><ele>1098.0</ele><time>2026-04-27T07:24:03.261Z</time></trkpt><trkpt lat="39.4719183" lon="16.0712083"><ele>1095.0</ele><time>2026-04-27T07:24:04.257Z</time></trkpt><trkpt lat="39.47186" lon="16.0712717"><ele>1092.0</ele><time>2026-04-27T07:24:05.261Z</time></trkpt><trkpt lat="39.4717383" lon="16.07135"><ele>1089.0</ele><time>2026-04-27T07:24:07.276Z</time></trkpt><trkpt lat="39.4716417" lon="16.0713533"><ele>1086.0</ele><time>2026-04-27T07:24:08.259Z</time></trkpt><trkpt lat="39.471535" lon="16.0713833"><ele>1086.0</ele><time>2026-04-27T07:24:09.255Z</time></trkpt><trkpt lat="39.47144" lon="16.071415"><ele>1086.0</ele><time>2026-04-27T07:24:10.259Z</time></trkpt><trkpt lat="39.4713233" lon="16.0714317"><ele>1086.0</ele><time>2026-04-27T07:24:11.26Z</time></trkpt><trkpt lat="39.4712367" lon="16.07145"><ele>1086.0</ele><time>2026-04-27T07:24:12.258Z</time></trkpt><trkpt lat="39.4711117" lon="16.0714317"><ele>1086.0</ele><time>2026-04-27T07:24:13.277Z</time></trkpt><trkpt lat="39.471" lon="16.0714283"><ele>1087.6</ele><time>2026-04-27T07:24:14.254Z</time></trkpt><trkpt lat="39.4708833" lon="16.0714317"><ele>1089.1999999999998</ele><time>2026-04-27T07:24:15.25Z</time></trkpt><trkpt lat="39.4707733" lon="16.0714233"><ele>1090.8000000000002</ele><time>2026-04-27T07:24:16.254Z</time></trkpt><trkpt lat="39.470665" lon="16.0714417"><ele>1092.4</ele><time>2026-04-27T07:24:17.252Z</time></trkpt><trkpt lat="39.4705617" lon="16.0714717"><ele>1094.0</ele><time>2026-04-27T07:24:18.26Z</time></trkpt><trkpt lat="39.4704583" lon="16.0715017"><ele>1095.1666666666667</ele><time>2026-04-27T07:24:19.275Z</time></trkpt><trkpt lat="39.47039" lon="16.0715367"><ele>1096.3333333333335</ele><time>2026-04-27T07:24:20.252Z</time></trkpt><trkpt lat="39.4703283" lon="16.071585"><ele>1097.5</ele><time>2026-04-27T07:24:21.259Z</time></trkpt><trkpt lat="39.4702867" lon="16.0716483"><ele>1098.6666666666667</ele><time>2026-04-27T07:24:22.259Z</time></trkpt><trkpt lat="39.4702317" lon="16.0717283"><ele>1099.8333333333333</ele><time>2026-04-27T07:24:24.256Z</time></trkpt><trkpt lat="39.470215" lon="16.0718633"><ele>1101.0</ele><time>2026-04-27T07:24:26.257Z</time></trkpt><trkpt lat="39.4701617" lon="16.0720067"><ele>1096.0</ele><time>2026-04-27T07:24:28.254Z</time></trkpt><trkpt lat="39.4701517" lon="16.0721283"><ele>1091.0</ele><time>2026-04-27T07:24:30.258Z</time></trkpt><trkpt lat="39.4701267" lon="16.07223"><ele>1086.0</ele><time>2026-04-27T07:24:32.259Z</time></trkpt><trkpt lat="39.4700783" lon="16.0723333"><ele>1081.0</ele><time>2026-04-27T07:24:34.261Z</time></trkpt><trkpt lat="39.4700333" lon="16.072435"><ele>1076.0</ele><time>2026-04-27T07:24:36.257Z</time></trkpt><trkpt lat="39.4699883" lon="16.0725283"><ele>1071.0</ele><time>2026-04-27T07:24:38.258Z</time></trkpt><trkpt lat="39.46994" lon="16.072615"><ele>1068.3333333333333</ele><time>2026-04-27T07:24:40.255Z</time></trkpt><trkpt lat="39.4698633" lon="16.0727433"><ele>1065.6666666666667</ele><time>2026-04-27T07:24:42.258Z</time></trkpt><trkpt lat="39.4698333" lon="16.0728283"><ele>1063.0</ele><time>2026-04-27T07:24:43.28Z</time></trkpt><trkpt lat="39.4697967" lon="16.0729017"><ele>1060.3333333333335</ele><time>2026-04-27T07:24:44.257Z</time></trkpt><trkpt lat="39.4697567" lon="16.07301"><ele>1057.6666666666667</ele><time>2026-04-27T07:24:46.256Z</time></trkpt><trkpt lat="39.46971" lon="16.0730733"><ele>1055.0</ele><time>2026-04-27T07:24:47.264Z</time></trkpt><trkpt lat="39.469655" lon="16.0731433"><ele>1053.6</ele><time>2026-04-27T07:24:48.261Z</time></trkpt><trkpt lat="39.4695967" lon="16.0732067"><ele>1052.2</ele><time>2026-04-27T07:24:49.274Z</time></trkpt><trkpt lat="39.4695183" lon="16.0732717"><ele>1050.8</ele><time>2026-04-27T07:24:50.257Z</time></trkpt><trkpt lat="39.4694267" lon="16.0733217"><ele>1049.4</ele><time>2026-04-27T07:24:51.259Z</time></trkpt><trkpt lat="39.4693333" lon="16.07337"><ele>1048.0</ele><time>2026-04-27T07:24:52.258Z</time></trkpt><trkpt lat="39.4692333" lon="16.073415"><ele>1048.0</ele><time>2026-04-27T07:24:53.266Z</time></trkpt><trkpt lat="39.4691333" lon="16.0734483"><ele>1048.0</ele><time>2026-04-27T07:24:54.258Z</time></trkpt><trkpt lat="39.46904" lon="16.0734767"><ele>1048.0</ele><time>2026-04-27T07:24:55.323Z</time></trkpt><trkpt lat="39.468935" lon="16.0734917"><ele>1048.0</ele><time>2026-04-27T07:24:56.255Z</time></trkpt><trkpt lat="39.4688383" lon="16.0735183"><ele>1048.0</ele><time>2026-04-27T07:24:57.256Z</time></trkpt><trkpt lat="39.4687417" lon="16.0735433"><ele>1049.8333333333333</ele><time>2026-04-27T07:24:58.254Z</time></trkpt><trkpt lat="39.4686717" lon="16.0735817"><ele>1051.6666666666665</ele><time>2026-04-27T07:24:59.263Z</time></trkpt><trkpt lat="39.468605" lon="16.0736183"><ele>1053.5</ele><time>2026-04-27T07:25:00.254Z</time></trkpt><trkpt lat="39.4685217" lon="16.0736567"><ele>1055.3333333333333</ele><time>2026-04-27T07:25:01.287Z</time></trkpt><trkpt lat="39.4684383" lon="16.0737017"><ele>1057.1666666666667</ele><time>2026-04-27T07:25:02.256Z</time></trkpt><trkpt lat="39.4683667" lon="16.073765"><ele>1059.0</ele><time>2026-04-27T07:25:03.265Z</time></trkpt><trkpt lat="39.4682983" lon="16.07383"><ele>1059.0</ele><time>2026-04-27T07:25:04.262Z</time></trkpt><trkpt lat="39.4682533" lon="16.0739233"><ele>1059.0</ele><time>2026-04-27T07:25:05.263Z</time></trkpt><trkpt lat="39.46822" lon="16.0740017"><ele>1059.0</ele><time>2026-04-27T07:25:06.256Z</time></trkpt><trkpt lat="39.4681983" lon="16.0740917"><ele>1059.0</ele><time>2026-04-27T07:25:07.273Z</time></trkpt><trkpt lat="39.468185" lon="16.0741917"><ele>1059.0</ele><time>2026-04-27T07:25:09.257Z</time></trkpt><trkpt lat="39.468345" lon="16.074145"><ele>1055.1666666666667</ele><time>2026-04-27T07:25:11.259Z</time></trkpt><trkpt lat="39.4684283" lon="16.074115"><ele>1051.3333333333333</ele><time>2026-04-27T07:25:12.257Z</time></trkpt><trkpt lat="39.468505" lon="16.0741083"><ele>1047.5</ele><time>2026-04-27T07:25:13.282Z</time></trkpt><trkpt lat="39.468575" lon="16.0741217"><ele>1043.6666666666665</ele><time>2026-04-27T07:25:14.251Z</time></trkpt><trkpt lat="39.46865" lon="16.074155"><ele>1039.8333333333333</ele><time>2026-04-27T07:25:15.255Z</time></trkpt><trkpt lat="39.4687183" lon="16.0741967"><ele>1036.0</ele><time>2026-04-27T07:25:16.258Z</time></trkpt><trkpt lat="39.4687917" lon="16.0742383"><ele>1034.1666666666665</ele><time>2026-04-27T07:25:17.261Z</time></trkpt><trkpt lat="39.468865" lon="16.074305"><ele>1032.3333333333333</ele><time>2026-04-27T07:25:18.259Z</time></trkpt><trkpt lat="39.4689333" lon="16.074365"><ele>1030.5</ele><time>2026-04-27T07:25:19.278Z</time></trkpt><trkpt lat="39.469005" lon="16.0744333"><ele>1028.6666666666667</ele><time>2026-04-27T07:25:20.254Z</time></trkpt><trkpt lat="39.46909" lon="16.074475"><ele>1026.8333333333335</ele><time>2026-04-27T07:25:21.261Z</time></trkpt><trkpt lat="39.4691733" lon="16.0745017"><ele>1025.0</ele><time>2026-04-27T07:25:22.259Z</time></trkpt><trkpt lat="39.4692417" lon="16.07452"><ele>1024.9999999999998</ele><time>2026-04-27T07:25:23.258Z</time></trkpt><trkpt lat="39.469305" lon="16.0745183"><ele>1025.0</ele><time>2026-04-27T07:25:24.257Z</time></trkpt><trkpt lat="39.469375" lon="16.0745233"><ele>1025.0</ele><time>2026-04-27T07:25:25.262Z</time></trkpt><trkpt lat="39.46945" lon="16.07452"><ele>1025.0</ele><time>2026-04-27T07:25:26.26Z</time></trkpt><trkpt lat="39.4695267" lon="16.07453"><ele>1025.0</ele><time>2026-04-27T07:25:27.264Z</time></trkpt><trkpt lat="39.4695983" lon="16.0745433"><ele>1024.9999999999998</ele><time>2026-04-27T07:25:28.254Z</time></trkpt><trkpt lat="39.4696633" lon="16.074535"><ele>1025.0</ele><time>2026-04-27T07:25:29.26Z</time></trkpt><trkpt lat="39.4697267" lon="16.0745283"><ele>1022.8333333333334</ele><time>2026-04-27T07:25:30.253Z</time></trkpt><trkpt lat="39.4697933" lon="16.0745383"><ele>1020.6666666666667</ele><time>2026-04-27T07:25:31.286Z</time></trkpt><trkpt lat="39.469905" lon="16.0745717"><ele>1018.5</ele><time>2026-04-27T07:25:33.257Z</time></trkpt><trkpt lat="39.469955" lon="16.074625"><ele>1016.3333333333333</ele><time>2026-04-27T07:25:34.257Z</time></trkpt><trkpt lat="39.4700083" lon="16.074695"><ele>1014.1666666666666</ele><time>2026-04-27T07:25:35.26Z</time></trkpt><trkpt lat="39.4700533" lon="16.0747733"><ele>1012.0</ele><time>2026-04-27T07:25:36.253Z</time></trkpt><trkpt lat="39.4700917" lon="16.0748533"><ele>1011.9999999999999</ele><time>2026-04-27T07:25:37.273Z</time></trkpt><trkpt lat="39.47015" lon="16.0749267"><ele>1012.0</ele><time>2026-04-27T07:25:38.254Z</time></trkpt><trkpt lat="39.4702433" lon="16.0750333"><ele>1012.0</ele><time>2026-04-27T07:25:40.26Z</time></trkpt><trkpt lat="39.4703067" lon="16.0750767"><ele>1012.0</ele><time>2026-04-27T07:25:41.264Z</time></trkpt><trkpt lat="39.4703783" lon="16.0751067"><ele>1011.9999999999999</ele><time>2026-04-27T07:25:42.257Z</time></trkpt><trkpt lat="39.4704417" lon="16.075105"><ele>1012.0</ele><time>2026-04-27T07:25:43.277Z</time></trkpt><trkpt lat="39.4705083" lon="16.07509"><ele>1011.4999999999999</ele><time>2026-04-27T07:25:44.252Z</time></trkpt><trkpt lat="39.4706083" lon="16.07507"><ele>1011.0</ele><time>2026-04-27T07:25:46.253Z</time></trkpt><trkpt lat="39.4705033" lon="16.0751"><ele>1010.5</ele><time>2026-04-27T07:25:53.26Z</time></trkpt><trkpt lat="39.4704267" lon="16.0751483"><ele>1010.0</ele><time>2026-04-27T07:25:55.325Z</time></trkpt><trkpt lat="39.4703567" lon="16.0751917"><ele>1009.4999999999999</ele><time>2026-04-27T07:25:57.261Z</time></trkpt><trkpt lat="39.47035" lon="16.075275"><ele>1009.0</ele><time>2026-04-27T07:26:05.254Z</time></trkpt><trkpt lat="39.47043" lon="16.07531"><ele>1005.4000000000001</ele><time>2026-04-27T07:26:09.253Z</time></trkpt><trkpt lat="39.4705217" lon="16.0753883"><ele>1001.8000000000001</ele><time>2026-04-27T07:26:11.257Z</time></trkpt><trkpt lat="39.4706033" lon="16.0754317"><ele>998.1999999999999</ele><time>2026-04-27T07:26:13.279Z</time></trkpt><trkpt lat="39.47069" lon="16.0754717"><ele>994.5999999999999</ele><time>2026-04-27T07:26:15.259Z</time></trkpt><trkpt lat="39.4708033" lon="16.0755"><ele>991.0</ele><time>2026-04-27T07:26:17.255Z</time></trkpt><trkpt lat="39.4709333" lon="16.0755767"><ele>990.9999999999999</ele><time>2026-04-27T07:26:18.261Z</time></trkpt><trkpt lat="39.4710017" lon="16.07561"><ele>991.0</ele><time>2026-04-27T07:26:19.281Z</time></trkpt><trkpt lat="39.4710783" lon="16.07566"><ele>991.0</ele><time>2026-04-27T07:26:20.256Z</time></trkpt><trkpt lat="39.471155" lon="16.0757067"><ele>991.0</ele><time>2026-04-27T07:26:21.254Z</time></trkpt><trkpt lat="39.4712333" lon="16.0757483"><ele>990.9999999999999</ele><time>2026-04-27T07:26:22.255Z</time></trkpt><trkpt lat="39.4713133" lon="16.075795"><ele>991.0</ele><time>2026-04-27T07:26:23.26Z</time></trkpt><trkpt lat="39.4714917" lon="16.0758683"><ele>990.0</ele><time>2026-04-27T07:26:24.258Z</time></trkpt><trkpt lat="39.47158" lon="16.075915"><ele>989.0</ele><time>2026-04-27T07:26:25.322Z</time></trkpt><trkpt lat="39.4716933" lon="16.076005"><ele>988.0</ele><time>2026-04-27T07:26:26.252Z</time></trkpt><trkpt lat="39.4718033" lon="16.076105"><ele>987.0</ele><time>2026-04-27T07:26:27.26Z</time></trkpt><trkpt lat="39.4718833" lon="16.076175"><ele>987.0</ele><time>2026-04-27T07:26:28.254Z</time></trkpt><trkpt lat="39.4719733" lon="16.0762467"><ele>987.0</ele><time>2026-04-27T07:26:29.264Z</time></trkpt><trkpt lat="39.4720483" lon="16.0763"><ele>987.0</ele><time>2026-04-27T07:26:30.254Z</time></trkpt><trkpt lat="39.4721267" lon="16.0763467"><ele>987.0</ele><time>2026-04-27T07:26:31.295Z</time></trkpt><trkpt lat="39.4722383" lon="16.0763717"><ele>987.0</ele><time>2026-04-27T07:26:33.263Z</time></trkpt><trkpt lat="39.4723517" lon="16.076305"><ele>984.0</ele><time>2026-04-27T07:26:35.262Z</time></trkpt><trkpt lat="39.4724067" lon="16.076265"><ele>981.0</ele><time>2026-04-27T07:26:36.257Z</time></trkpt><trkpt lat="39.4724933" lon="16.07625"><ele>978.0</ele><time>2026-04-27T07:26:38.257Z</time></trkpt><trkpt lat="39.472565" lon="16.076245"><ele>975.0</ele><time>2026-04-27T07:26:40.261Z</time></trkpt><trkpt lat="39.472685" lon="16.0763183"><ele>972.0</ele><time>2026-04-27T07:26:42.259Z</time></trkpt><trkpt lat="39.4727933" lon="16.0763967"><ele>972.0</ele><time>2026-04-27T07:26:43.278Z</time></trkpt><trkpt lat="39.4728933" lon="16.0764433"><ele>972.0</ele><time>2026-04-27T07:26:44.256Z</time></trkpt><trkpt lat="39.472985" lon="16.0764783"><ele>972.0</ele><time>2026-04-27T07:26:45.259Z</time></trkpt><trkpt lat="39.4730817" lon="16.076505"><ele>972.0</ele><time>2026-04-27T07:26:46.254Z</time></trkpt><trkpt lat="39.4731917" lon="16.07654"><ele>972.0</ele><time>2026-04-27T07:26:47.261Z</time></trkpt><trkpt lat="39.4732867" lon="16.076575"><ele>975.4000000000001</ele><time>2026-04-27T07:26:48.258Z</time></trkpt><trkpt lat="39.4733783" lon="16.076605"><ele>978.8000000000001</ele><time>2026-04-27T07:26:49.278Z</time></trkpt><trkpt lat="39.4734633" lon="16.0766317"><ele>982.2</ele><time>2026-04-27T07:26:50.253Z</time></trkpt><trkpt lat="39.4735567" lon="16.076675"><ele>985.6</ele><time>2026-04-27T07:26:51.261Z</time></trkpt><trkpt lat="39.4736417" lon="16.0767083"><ele>989.0</ele><time>2026-04-27T07:26:52.253Z</time></trkpt><trkpt lat="39.4737217" lon="16.076735"><ele>986.1666666666667</ele><time>2026-04-27T07:26:53.253Z</time></trkpt><trkpt lat="39.4738067" lon="16.0767733"><ele>983.3333333333334</ele><time>2026-04-27T07:26:54.258Z</time></trkpt><trkpt lat="39.4738967" lon="16.0768067"><ele>980.5</ele><time>2026-04-27T07:26:55.321Z</time></trkpt><trkpt lat="39.473985" lon="16.0768267"><ele>977.6666666666667</ele><time>2026-04-27T07:26:56.252Z</time></trkpt><trkpt lat="39.47405" lon="16.076825"><ele>974.8333333333334</ele><time>2026-04-27T07:26:57.258Z</time></trkpt><trkpt lat="39.4741167" lon="16.0768217"><ele>972.0</ele><time>2026-04-27T07:26:58.254Z</time></trkpt><trkpt lat="39.474225" lon="16.0768667"><ele>972.0</ele><time>2026-04-27T07:27:00.259Z</time></trkpt><trkpt lat="39.4742917" lon="16.07689"><ele>972.0</ele><time>2026-04-27T07:27:01.322Z</time></trkpt><trkpt lat="39.474355" lon="16.07692"><ele>972.0</ele><time>2026-04-27T07:27:02.256Z</time></trkpt><trkpt lat="39.4744467" lon="16.0769783"><ele>972.0</ele><time>2026-04-27T07:27:04.259Z</time></trkpt><trkpt lat="39.4744983" lon="16.0770317"><ele>972.0</ele><time>2026-04-27T07:27:05.257Z</time></trkpt><trkpt lat="39.4745667" lon="16.0770917"><ele>972.0</ele><time>2026-04-27T07:27:07.277Z</time></trkpt><trkpt lat="39.4746517" lon="16.0771417"><ele>968.0</ele><time>2026-04-27T07:27:09.256Z</time></trkpt><trkpt lat="39.4747217" lon="16.0772267"><ele>964.0</ele><time>2026-04-27T07:27:11.255Z</time></trkpt><trkpt lat="39.4748133" lon="16.0772833"><ele>960.0</ele><time>2026-04-27T07:27:17.263Z</time></trkpt><trkpt lat="39.4748817" lon="16.0773433"><ele>956.0</ele><time>2026-04-27T07:27:19.274Z</time></trkpt><trkpt lat="39.4749883" lon="16.0772767"><ele>952.0</ele><time>2026-04-27T07:27:43.276Z</time></trkpt><trkpt lat="39.4749" lon="16.07714"><ele>952.0</ele><time>2026-04-27T07:27:45.264Z</time></trkpt><trkpt lat="39.4748383" lon="16.0770867"><ele>952.0</ele><time>2026-04-27T07:27:46.253Z</time></trkpt><trkpt lat="39.4747517" lon="16.0770217"><ele>952.0</ele><time>2026-04-27T07:27:47.263Z</time></trkpt><trkpt lat="39.474655" lon="16.076965"><ele>952.0</ele><time>2026-04-27T07:27:48.254Z</time></trkpt><trkpt lat="39.4745417" lon="16.0769283"><ele>952.0</ele><time>2026-04-27T07:27:49.272Z</time></trkpt><trkpt lat="39.47444" lon="16.0768917"><ele>956.0</ele><time>2026-04-27T07:27:50.252Z</time></trkpt><trkpt lat="39.474335" lon="16.0768567"><ele>960.0</ele><time>2026-04-27T07:27:51.256Z</time></trkpt><trkpt lat="39.4742383" lon="16.076815"><ele>964.0</ele><time>2026-04-27T07:27:52.258Z</time></trkpt><trkpt lat="39.4741667" lon="16.0767567"><ele>968.0</ele><time>2026-04-27T07:27:53.248Z</time></trkpt><trkpt lat="39.4740933" lon="16.0767017"><ele>972.0</ele><time>2026-04-27T07:27:54.255Z</time></trkpt><trkpt lat="39.474015" lon="16.07667"><ele>972.0</ele><time>2026-04-27T07:27:55.291Z</time></trkpt><trkpt lat="39.47393" lon="16.0766517"><ele>972.0</ele><time>2026-04-27T07:27:56.257Z</time></trkpt><trkpt lat="39.4738533" lon="16.076645"><ele>972.0</ele><time>2026-04-27T07:27:57.258Z</time></trkpt><trkpt lat="39.4737817" lon="16.0766433"><ele>972.0</ele><time>2026-04-27T07:27:58.263Z</time></trkpt><trkpt lat="39.4737167" lon="16.0766533"><ele>972.0</ele><time>2026-04-27T07:27:59.257Z</time></trkpt><trkpt lat="39.47362" lon="16.076645"><ele>972.0</ele><time>2026-04-27T07:28:00.259Z</time></trkpt><trkpt lat="39.4735183" lon="16.0766467"><ele>974.8333333333334</ele><time>2026-04-27T07:28:01.286Z</time></trkpt><trkpt lat="39.4734217" lon="16.07665"><ele>977.6666666666667</ele><time>2026-04-27T07:28:02.252Z</time></trkpt><trkpt lat="39.4733283" lon="16.0766517"><ele>980.5</ele><time>2026-04-27T07:28:03.253Z</time></trkpt><trkpt lat="39.4732417" lon="16.07664"><ele>983.3333333333334</ele><time>2026-04-27T07:28:04.257Z</time></trkpt><trkpt lat="39.47316" lon="16.0766117"><ele>986.1666666666667</ele><time>2026-04-27T07:28:05.262Z</time></trkpt><trkpt lat="39.4730883" lon="16.0765967"><ele>989.0</ele><time>2026-04-27T07:28:06.259Z</time></trkpt><trkpt lat="39.47297" lon="16.0765633"><ele>985.6</ele><time>2026-04-27T07:28:08.258Z</time></trkpt><trkpt lat="39.4728633" lon="16.0764917"><ele>982.2</ele><time>2026-04-27T07:28:10.259Z</time></trkpt><trkpt lat="39.4727817" lon="16.0764267"><ele>978.8000000000001</ele><time>2026-04-27T07:28:12.26Z</time></trkpt><trkpt lat="39.4726967" lon="16.07636"><ele>975.4000000000001</ele><time>2026-04-27T07:28:14.254Z</time></trkpt><trkpt lat="39.47263" lon="16.0763833"><ele>972.0</ele><time>2026-04-27T07:28:16.259Z</time></trkpt><trkpt lat="39.472565" lon="16.07647"><ele>972.0</ele><time>2026-04-27T07:28:18.258Z</time></trkpt><trkpt lat="39.4725167" lon="16.0765767"><ele>972.0</ele><time>2026-04-27T07:28:20.257Z</time></trkpt><trkpt lat="39.472445" lon="16.076625"><ele>972.0</ele><time>2026-04-27T07:28:23.255Z</time></trkpt><trkpt lat="39.4723533" lon="16.0766017"><ele>972.0</ele><time>2026-04-27T07:28:25.287Z</time></trkpt><trkpt lat="39.4722817" lon="16.07656"><ele>972.0</ele><time>2026-04-27T07:28:27.257Z</time></trkpt><trkpt lat="39.4721467" lon="16.0765217"><ele>977.1666666666666</ele><time>2026-04-27T07:28:45.261Z</time></trkpt><trkpt lat="39.4721817" lon="16.0766033"><ele>982.3333333333333</ele><time>2026-04-27T07:28:48.255Z</time></trkpt><trkpt lat="39.4722617" lon="16.07665"><ele>987.5</ele><time>2026-04-27T07:28:50.256Z</time></trkpt><trkpt lat="39.4723317" lon="16.0766733"><ele>992.6666666666666</ele><time>2026-04-27T07:28:52.259Z</time></trkpt><trkpt lat="39.4724267" lon="16.0766917"><ele>997.8333333333333</ele><time>2026-04-27T07:28:54.261Z</time></trkpt><trkpt lat="39.472485" lon="16.0767267"><ele>1003.0</ele><time>2026-04-27T07:28:55.296Z</time></trkpt><trkpt lat="39.472555" lon="16.0767867"><ele>1002.9999999999999</ele><time>2026-04-27T07:28:56.255Z</time></trkpt><trkpt lat="39.4726117" lon="16.0768517"><ele>1003.0</ele><time>2026-04-27T07:28:57.248Z</time></trkpt><trkpt lat="39.4726983" lon="16.0769433"><ele>1003.0</ele><time>2026-04-27T07:28:58.256Z</time></trkpt><trkpt lat="39.4727533" lon="16.0770017"><ele>1003.0</ele><time>2026-04-27T07:28:59.259Z</time></trkpt><trkpt lat="39.4728217" lon="16.0770333"><ele>1002.9999999999999</ele><time>2026-04-27T07:29:00.252Z</time></trkpt><trkpt lat="39.472885" lon="16.07707"><ele>1003.0</ele><time>2026-04-27T07:29:01.293Z</time></trkpt><trkpt lat="39.4729483" lon="16.0771183"><ele>1000.2</ele><time>2026-04-27T07:29:02.259Z</time></trkpt><trkpt lat="39.473005" lon="16.0771683"><ele>997.4</ele><time>2026-04-27T07:29:03.26Z</time></trkpt><trkpt lat="39.4730817" lon="16.0772267"><ele>994.6000000000001</ele><time>2026-04-27T07:29:04.254Z</time></trkpt><trkpt lat="39.47317" lon="16.0772833"><ele>991.8000000000001</ele><time>2026-04-27T07:29:05.259Z</time></trkpt><trkpt lat="39.4732583" lon="16.0773283"><ele>989.0</ele><time>2026-04-27T07:29:06.253Z</time></trkpt><trkpt lat="39.4733517" lon="16.0773817"><ele>995.0</ele><time>2026-04-27T07:29:07.275Z</time></trkpt><trkpt lat="39.4734483" lon="16.0774433"><ele>1001.0000000000001</ele><time>2026-04-27T07:29:08.253Z</time></trkpt><trkpt lat="39.473535" lon="16.0775083"><ele>1007.0000000000001</ele><time>2026-04-27T07:29:09.258Z</time></trkpt><trkpt lat="39.4736083" lon="16.077565"><ele>1013.0</ele><time>2026-04-27T07:29:10.252Z</time></trkpt><trkpt lat="39.473675" lon="16.0776267"><ele>1019.0</ele><time>2026-04-27T07:29:11.254Z</time></trkpt><trkpt lat="39.4737367" lon="16.0776983"><ele>1019.0000000000001</ele><time>2026-04-27T07:29:12.256Z</time></trkpt><trkpt lat="39.473765" lon="16.077795"><ele>1019.0</ele><time>2026-04-27T07:29:13.271Z</time></trkpt><trkpt lat="39.4737833" lon="16.0779083"><ele>1019.0</ele><time>2026-04-27T07:29:14.253Z</time></trkpt><trkpt lat="39.4738" lon="16.07802"><ele>1019.0</ele><time>2026-04-27T07:29:15.258Z</time></trkpt><trkpt lat="39.4738317" lon="16.0781183"><ele>1019.0000000000001</ele><time>2026-04-27T07:29:16.257Z</time></trkpt><trkpt lat="39.4738783" lon="16.0782233"><ele>1019.0</ele><time>2026-04-27T07:29:17.258Z</time></trkpt><trkpt lat="39.473945" lon="16.0783433"><ele>1019.6</ele><time>2026-04-27T07:29:18.253Z</time></trkpt><trkpt lat="39.4739933" lon="16.0784483"><ele>1020.2</ele><time>2026-04-27T07:29:19.275Z</time></trkpt><trkpt lat="39.4740383" lon="16.07854"><ele>1020.8000000000001</ele><time>2026-04-27T07:29:20.256Z</time></trkpt><trkpt lat="39.4741183" lon="16.0786283"><ele>1021.4000000000001</ele><time>2026-04-27T07:29:21.252Z</time></trkpt><trkpt lat="39.4742033" lon="16.0787317"><ele>1022.0</ele><time>2026-04-27T07:29:22.262Z</time></trkpt><trkpt lat="39.4742783" lon="16.0788433"><ele>1022.0</ele><time>2026-04-27T07:29:23.256Z</time></trkpt><trkpt lat="39.4743533" lon="16.0789483"><ele>1022.0</ele><time>2026-04-27T07:29:24.255Z</time></trkpt><trkpt lat="39.47442" lon="16.0790517"><ele>1022.0</ele><time>2026-04-27T07:29:25.28Z</time></trkpt><trkpt lat="39.474485" lon="16.079155"><ele>1022.0</ele><time>2026-04-27T07:29:26.256Z</time></trkpt><trkpt lat="39.4745333" lon="16.079245"><ele>1022.0</ele><time>2026-04-27T07:29:27.265Z</time></trkpt><trkpt lat="39.4745917" lon="16.079335"><ele>1021.3333333333334</ele><time>2026-04-27T07:29:28.257Z</time></trkpt><trkpt lat="39.4746417" lon="16.07944"><ele>1020.6666666666667</ele><time>2026-04-27T07:29:29.257Z</time></trkpt><trkpt lat="39.4746767" lon="16.0795383"><ele>1020.0</ele><time>2026-04-27T07:29:30.255Z</time></trkpt><trkpt lat="39.4747" lon="16.0796483"><ele>1019.3333333333333</ele><time>2026-04-27T07:29:31.29Z</time></trkpt><trkpt lat="39.4746917" lon="16.079755"><ele>1018.6666666666666</ele><time>2026-04-27T07:29:32.253Z</time></trkpt><trkpt lat="39.474655" lon="16.0798683"><ele>1018.0</ele><time>2026-04-27T07:29:33.253Z</time></trkpt><trkpt lat="39.474625" lon="16.0799767"><ele>1018.0</ele><time>2026-04-27T07:29:34.253Z</time></trkpt><trkpt lat="39.474635" lon="16.0800967"><ele>1018.0</ele><time>2026-04-27T07:29:35.254Z</time></trkpt><trkpt lat="39.4746617" lon="16.0802067"><ele>1018.0</ele><time>2026-04-27T07:29:36.255Z</time></trkpt><trkpt lat="39.4747183" lon="16.08031"><ele>1018.0</ele><time>2026-04-27T07:29:37.28Z</time></trkpt><trkpt lat="39.4747933" lon="16.0804017"><ele>1018.0</ele><time>2026-04-27T07:29:38.258Z</time></trkpt><trkpt lat="39.47485" lon="16.0804617"><ele>1018.0</ele><time>2026-04-27T07:29:39.255Z</time></trkpt><trkpt lat="39.4749133" lon="16.0805333"><ele>1018.0</ele><time>2026-04-27T07:29:40.265Z</time></trkpt><trkpt lat="39.4750167" lon="16.0806267"><ele>1018.0</ele><time>2026-04-27T07:29:42.257Z</time></trkpt><trkpt lat="39.4750817" lon="16.08067"><ele>1018.0</ele><time>2026-04-27T07:29:44.251Z</time></trkpt><trkpt lat="39.4749983" lon="16.0806883"><ele>1018.0</ele><time>2026-04-27T07:29:48.249Z</time></trkpt><trkpt lat="39.474855" lon="16.08068"><ele>1017.9999999999999</ele><time>2026-04-27T07:29:50.254Z</time></trkpt><trkpt lat="39.4747717" lon="16.0806817"><ele>1018.0</ele><time>2026-04-27T07:29:51.25Z</time></trkpt><trkpt lat="39.47469" lon="16.0806733"><ele>1018.0</ele><time>2026-04-27T07:29:52.258Z</time></trkpt><trkpt lat="39.4746067" lon="16.08065"><ele>1018.0</ele><time>2026-04-27T07:29:53.259Z</time></trkpt><trkpt lat="39.4745217" lon="16.08064"><ele>1017.9999999999999</ele><time>2026-04-27T07:29:54.253Z</time></trkpt><trkpt lat="39.474435" lon="16.0806283"><ele>1018.0</ele><time>2026-04-27T07:29:55.33Z</time></trkpt><trkpt lat="39.4743417" lon="16.0806117"><ele>1021.9999999999999</ele><time>2026-04-27T07:29:56.256Z</time></trkpt><trkpt lat="39.4742617" lon="16.080595"><ele>1026.0</ele><time>2026-04-27T07:29:57.255Z</time></trkpt><trkpt lat="39.4741817" lon="16.080595"><ele>1030.0</ele><time>2026-04-27T07:29:58.257Z</time></trkpt><trkpt lat="39.4740783" lon="16.0805783"><ele>1034.0</ele><time>2026-04-27T07:30:00.256Z</time></trkpt><trkpt lat="39.4740083" lon="16.0805867"><ele>1038.0</ele><time>2026-04-27T07:30:04.251Z</time></trkpt><trkpt lat="39.47395" lon="16.0805333"><ele>1042.0</ele><time>2026-04-27T07:30:06.257Z</time></trkpt><trkpt lat="39.4739133" lon="16.0804083"><ele>1042.0</ele><time>2026-04-27T07:30:08.249Z</time></trkpt><trkpt lat="39.4739083" lon="16.08028"><ele>1042.0</ele><time>2026-04-27T07:30:10.255Z</time></trkpt><trkpt lat="39.4738583" lon="16.0801783"><ele>1042.0</ele><time>2026-04-27T07:30:12.255Z</time></trkpt><trkpt lat="39.4737983" lon="16.0801"><ele>1042.0</ele><time>2026-04-27T07:30:14.256Z</time></trkpt><trkpt lat="39.4737383" lon="16.0800733"><ele>1042.0</ele><time>2026-04-27T07:30:16.253Z</time></trkpt><trkpt lat="39.4736533" lon="16.080165"><ele>1045.0</ele><time>2026-04-27T07:30:19.274Z</time></trkpt><trkpt lat="39.4736083" lon="16.0802283"><ele>1048.0</ele><time>2026-04-27T07:30:20.252Z</time></trkpt><trkpt lat="39.4735267" lon="16.0803167"><ele>1051.0</ele><time>2026-04-27T07:30:22.257Z</time></trkpt><trkpt lat="39.4734717" lon="16.0803583"><ele>1054.0</ele><time>2026-04-27T07:30:23.259Z</time></trkpt><trkpt lat="39.4733683" lon="16.0804"><ele>1057.0</ele><time>2026-04-27T07:30:25.277Z</time></trkpt><trkpt lat="39.4732867" lon="16.0804183"><ele>1060.0</ele><time>2026-04-27T07:30:27.258Z</time></trkpt><trkpt lat="39.4732183" lon="16.08036"><ele>1060.0</ele><time>2026-04-27T07:30:30.259Z</time></trkpt><trkpt lat="39.4731717" lon="16.0803033"><ele>1060.0</ele><time>2026-04-27T07:30:33.257Z</time></trkpt><trkpt lat="39.4730717" lon="16.0803167"><ele>1060.0</ele><time>2026-04-27T07:30:38.256Z</time></trkpt><trkpt lat="39.4729617" lon="16.0802783"><ele>1060.0</ele><time>2026-04-27T07:30:40.252Z</time></trkpt><trkpt lat="39.4729133" lon="16.08021"><ele>1060.0</ele><time>2026-04-27T07:30:41.263Z</time></trkpt><trkpt lat="39.4728617" lon="16.0801483"><ele>1060.0</ele><time>2026-04-27T07:30:42.254Z</time></trkpt><trkpt lat="39.4728083" lon="16.0800733"><ele>1061.4</ele><time>2026-04-27T07:30:43.27Z</time></trkpt><trkpt lat="39.47274" lon="16.0799783"><ele>1062.8</ele><time>2026-04-27T07:30:44.258Z</time></trkpt><trkpt lat="39.4726583" lon="16.0798967"><ele>1064.2</ele><time>2026-04-27T07:30:45.267Z</time></trkpt><trkpt lat="39.4725717" lon="16.0798317"><ele>1065.6</ele><time>2026-04-27T07:30:46.251Z</time></trkpt><trkpt lat="39.472495" lon="16.0797683"><ele>1067.0</ele><time>2026-04-27T07:30:47.259Z</time></trkpt><trkpt lat="39.4723983" lon="16.07969"><ele>1067.0</ele><time>2026-04-27T07:30:49.275Z</time></trkpt><trkpt lat="39.472395" lon="16.0798433"><ele>1067.0</ele><time>2026-04-27T07:30:52.258Z</time></trkpt><trkpt lat="39.4724017" lon="16.0799517"><ele>1067.0</ele><time>2026-04-27T07:30:53.257Z</time></trkpt><trkpt lat="39.472395" lon="16.080035"><ele>1067.0</ele><time>2026-04-27T07:30:54.253Z</time></trkpt><trkpt lat="39.472315" lon="16.08014"><ele>1067.0</ele><time>2026-04-27T07:30:56.255Z</time></trkpt><trkpt lat="39.472255" lon="16.080195"><ele>1068.8</ele><time>2026-04-27T07:30:58.265Z</time></trkpt><trkpt lat="39.4721617" lon="16.080205"><ele>1070.6</ele><time>2026-04-27T07:31:00.258Z</time></trkpt><trkpt lat="39.4720967" lon="16.0801567"><ele>1072.3999999999999</ele><time>2026-04-27T07:31:01.292Z</time></trkpt><trkpt lat="39.47203" lon="16.0800867"><ele>1074.2</ele><time>2026-04-27T07:31:02.254Z</time></trkpt><trkpt lat="39.4719583" lon="16.07998"><ele>1076.0</ele><time>2026-04-27T07:31:03.262Z</time></trkpt><trkpt lat="39.4719" lon="16.07984"><ele>1079.75</ele><time>2026-04-27T07:31:04.256Z</time></trkpt><trkpt lat="39.4718167" lon="16.0796967"><ele>1083.5</ele><time>2026-04-27T07:31:05.258Z</time></trkpt><trkpt lat="39.4717983" lon="16.0795167"><ele>1087.25</ele><time>2026-04-27T07:31:06.252Z</time></trkpt><trkpt lat="39.4717483" lon="16.079395"><ele>1091.0</ele><time>2026-04-27T07:31:07.277Z</time></trkpt><trkpt lat="39.4716517" lon="16.079285"><ele>1091.0</ele><time>2026-04-27T07:31:08.255Z</time></trkpt><trkpt lat="39.4715683" lon="16.07919"><ele>1091.0</ele><time>2026-04-27T07:31:09.259Z</time></trkpt><trkpt lat="39.47149" lon="16.0791183"><ele>1091.0</ele><time>2026-04-27T07:31:10.258Z</time></trkpt><trkpt lat="39.4714233" lon="16.079105"><ele>1091.0</ele><time>2026-04-27T07:31:11.257Z</time></trkpt><trkpt lat="39.47136" lon="16.079065"><ele>1091.0</ele><time>2026-04-27T07:31:12.256Z</time></trkpt><trkpt lat="39.4712917" lon="16.079045"><ele>1091.0</ele><time>2026-04-27T07:31:13.271Z</time></trkpt><trkpt lat="39.4711733" lon="16.0790767"><ele>1094.6666666666667</ele><time>2026-04-27T07:31:15.259Z</time></trkpt><trkpt lat="39.4711217" lon="16.0791417"><ele>1098.3333333333335</ele><time>2026-04-27T07:31:16.257Z</time></trkpt><trkpt lat="39.4710617" lon="16.0792017"><ele>1102.0</ele><time>2026-04-27T07:31:17.257Z</time></trkpt><trkpt lat="39.470995" lon="16.0792517"><ele>1105.6666666666667</ele><time>2026-04-27T07:31:18.256Z</time></trkpt><trkpt lat="39.4709067" lon="16.079285"><ele>1109.3333333333333</ele><time>2026-04-27T07:31:19.268Z</time></trkpt><trkpt lat="39.4707883" lon="16.07932"><ele>1113.0</ele><time>2026-04-27T07:31:20.248Z</time></trkpt><trkpt lat="39.4706333" lon="16.0793567"><ele>1113.0</ele><time>2026-04-27T07:31:21.256Z</time></trkpt><trkpt lat="39.4704833" lon="16.0793633"><ele>1113.0</ele><time>2026-04-27T07:31:22.257Z</time></trkpt><trkpt lat="39.4703333" lon="16.07936"><ele>1113.0</ele><time>2026-04-27T07:31:23.256Z</time></trkpt><trkpt lat="39.4701933" lon="16.0793617"><ele>1113.0</ele><time>2026-04-27T07:31:24.255Z</time></trkpt><trkpt lat="39.47007" lon="16.0793667"><ele>1114.4</ele><time>2026-04-27T07:31:25.289Z</time></trkpt><trkpt lat="39.4699633" lon="16.079385"><ele>1115.8</ele><time>2026-04-27T07:31:26.255Z</time></trkpt><trkpt lat="39.4698467" lon="16.0793933"><ele>1117.2</ele><time>2026-04-27T07:31:27.255Z</time></trkpt><trkpt lat="39.4697433" lon="16.07942"><ele>1118.6</ele><time>2026-04-27T07:31:28.254Z</time></trkpt><trkpt lat="39.4696417" lon="16.0794367"><ele>1120.0</ele><time>2026-04-27T07:31:29.254Z</time></trkpt><trkpt lat="39.469535" lon="16.07946"><ele>1122.0</ele><time>2026-04-27T07:31:30.255Z</time></trkpt><trkpt lat="39.4694267" lon="16.0794867"><ele>1124.0</ele><time>2026-04-27T07:31:31.288Z</time></trkpt><trkpt lat="39.46932" lon="16.0795167"><ele>1126.0</ele><time>2026-04-27T07:31:32.255Z</time></trkpt><trkpt lat="39.4692117" lon="16.07955"><ele>1128.0</ele><time>2026-04-27T07:31:33.256Z</time></trkpt><trkpt lat="39.469115" lon="16.0795833"><ele>1130.0</ele><time>2026-04-27T07:31:34.256Z</time></trkpt><trkpt lat="39.4690217" lon="16.0796067"><ele>1130.0</ele><time>2026-04-27T07:31:35.259Z</time></trkpt><trkpt lat="39.4689383" lon="16.079615"><ele>1130.0</ele><time>2026-04-27T07:31:36.251Z</time></trkpt><trkpt lat="39.468855" lon="16.0796167"><ele>1130.0</ele><time>2026-04-27T07:31:37.27Z</time></trkpt><trkpt lat="39.4687667" lon="16.0795867"><ele>1130.0</ele><time>2026-04-27T07:31:38.258Z</time></trkpt><trkpt lat="39.4686867" lon="16.07955"><ele>1130.0</ele><time>2026-04-27T07:31:39.259Z</time></trkpt><trkpt lat="39.46861" lon="16.0795183"><ele>1130.0</ele><time>2026-04-27T07:31:40.259Z</time></trkpt><trkpt lat="39.4685" lon="16.0794917"><ele>1132.8333333333335</ele><time>2026-04-27T07:31:42.254Z</time></trkpt><trkpt lat="39.4684283" lon="16.079475"><ele>1135.6666666666667</ele><time>2026-04-27T07:31:44.255Z</time></trkpt><trkpt lat="39.468385" lon="16.079405"><ele>1138.5</ele><time>2026-04-27T07:31:46.255Z</time></trkpt><trkpt lat="39.46833" lon="16.07933"><ele>1141.3333333333333</ele><time>2026-04-27T07:31:48.252Z</time></trkpt><trkpt lat="39.4682917" lon="16.0792517"><ele>1144.1666666666665</ele><time>2026-04-27T07:31:50.255Z</time></trkpt><trkpt lat="39.4682383" lon="16.079135"><ele>1147.0</ele><time>2026-04-27T07:31:52.251Z</time></trkpt><trkpt lat="39.4682033" lon="16.079025"><ele>1147.0</ele><time>2026-04-27T07:31:53.255Z</time></trkpt><trkpt lat="39.4681667" lon="16.0789333"><ele>1147.0</ele><time>2026-04-27T07:31:54.257Z</time></trkpt><trkpt lat="39.4681283" lon="16.078865"><ele>1147.0</ele><time>2026-04-27T07:31:55.289Z</time></trkpt><trkpt lat="39.4680867" lon="16.0788"><ele>1147.0</ele><time>2026-04-27T07:31:56.256Z</time></trkpt><trkpt lat="39.46803" lon="16.07875"><ele>1147.0</ele><time>2026-04-27T07:31:57.253Z</time></trkpt><trkpt lat="39.467965" lon="16.07869"><ele>1147.0</ele><time>2026-04-27T07:31:58.254Z</time></trkpt><trkpt lat="39.4678983" lon="16.078625"><ele>1147.0</ele><time>2026-04-27T07:31:59.257Z</time></trkpt><trkpt lat="39.467835" lon="16.07857"><ele>1149.0</ele><time>2026-04-27T07:32:00.256Z</time></trkpt><trkpt lat="39.4677383" lon="16.0785067"><ele>1151.0</ele><time>2026-04-27T07:32:01.289Z</time></trkpt><trkpt lat="39.4676417" lon="16.0784467"><ele>1153.0</ele><time>2026-04-27T07:32:02.252Z</time></trkpt><trkpt lat="39.4675483" lon="16.0784183"><ele>1155.0</ele><time>2026-04-27T07:32:03.258Z</time></trkpt><trkpt lat="39.4674467" lon="16.07839"><ele>1157.0</ele><time>2026-04-27T07:32:04.259Z</time></trkpt><trkpt lat="39.46735" lon="16.0783467"><ele>1157.0</ele><time>2026-04-27T07:32:05.256Z</time></trkpt><trkpt lat="39.4672467" lon="16.0783017"><ele>1157.0</ele><time>2026-04-27T07:32:06.259Z</time></trkpt><trkpt lat="39.46714" lon="16.0782433"><ele>1157.0</ele><time>2026-04-27T07:32:07.273Z</time></trkpt><trkpt lat="39.46703" lon="16.07815"><ele>1157.0</ele><time>2026-04-27T07:32:08.256Z</time></trkpt><trkpt lat="39.4669367" lon="16.0780183"><ele>1156.2</ele><time>2026-04-27T07:32:09.255Z</time></trkpt><trkpt lat="39.4668617" lon="16.07788"><ele>1155.4</ele><time>2026-04-27T07:32:10.258Z</time></trkpt><trkpt lat="39.4667933" lon="16.0777633"><ele>1154.6</ele><time>2026-04-27T07:32:11.259Z</time></trkpt><trkpt lat="39.46675" lon="16.077665"><ele>1153.8</ele><time>2026-04-27T07:32:12.253Z</time></trkpt><trkpt lat="39.4666767" lon="16.0775667"><ele>1153.0</ele><time>2026-04-27T07:32:13.271Z</time></trkpt><trkpt lat="39.4666067" lon="16.0774783"><ele>1153.0</ele><time>2026-04-27T07:32:14.257Z</time></trkpt><trkpt lat="39.4665167" lon="16.0774267"><ele>1153.0</ele><time>2026-04-27T07:32:15.265Z</time></trkpt><trkpt lat="39.4664567" lon="16.0773883"><ele>1153.0</ele><time>2026-04-27T07:32:16.255Z</time></trkpt><trkpt lat="39.4663633" lon="16.0773417"><ele>1153.0</ele><time>2026-04-27T07:32:17.265Z</time></trkpt><trkpt lat="39.4662617" lon="16.07728"><ele>1153.0</ele><time>2026-04-27T07:32:18.268Z</time></trkpt><trkpt lat="39.4661583" lon="16.0772333"><ele>1153.0</ele><time>2026-04-27T07:32:19.272Z</time></trkpt><trkpt lat="39.46603" lon="16.0771667"><ele>1153.0</ele><time>2026-04-27T07:32:20.254Z</time></trkpt><trkpt lat="39.465915" lon="16.077125"><ele>1153.0</ele><time>2026-04-27T07:32:21.258Z</time></trkpt><trkpt lat="39.4658033" lon="16.07708"><ele>1153.0</ele><time>2026-04-27T07:32:22.257Z</time></trkpt><trkpt lat="39.46569" lon="16.0770433"><ele>1153.0</ele><time>2026-04-27T07:32:23.259Z</time></trkpt><trkpt lat="39.4655933" lon="16.076995"><ele>1153.0</ele><time>2026-04-27T07:32:24.259Z</time></trkpt><trkpt lat="39.4655067" lon="16.076945"><ele>1153.0</ele><time>2026-04-27T07:32:25.314Z</time></trkpt><trkpt lat="39.4654217" lon="16.0768883"><ele>1153.0</ele><time>2026-04-27T07:32:26.254Z</time></trkpt><trkpt lat="39.465375" lon="16.076805"><ele>1153.0</ele><time>2026-04-27T07:32:27.254Z</time></trkpt><trkpt lat="39.4653183" lon="16.076715"><ele>1157.5</ele><time>2026-04-27T07:32:28.258Z</time></trkpt><trkpt lat="39.46525" lon="16.076685"><ele>1162.0</ele><time>2026-04-27T07:32:29.253Z</time></trkpt><trkpt lat="39.4651833" lon="16.07665"><ele>1166.5</ele><time>2026-04-27T07:32:30.257Z</time></trkpt><trkpt lat="39.46508" lon="16.076645"><ele>1171.0</ele><time>2026-04-27T07:32:32.256Z</time></trkpt><trkpt lat="39.465015" lon="16.0766483"><ele>1175.5</ele><time>2026-04-27T07:32:33.255Z</time></trkpt><trkpt lat="39.464885" lon="16.0766633"><ele>1180.0</ele><time>2026-04-27T07:32:35.258Z</time></trkpt><trkpt lat="39.4648133" lon="16.0766667"><ele>1180.0</ele><time>2026-04-27T07:32:36.254Z</time></trkpt><trkpt lat="39.46474" lon="16.0766783"><ele>1180.0</ele><time>2026-04-27T07:32:37.266Z</time></trkpt><trkpt lat="39.4646233" lon="16.0766917"><ele>1180.0</ele><time>2026-04-27T07:32:39.249Z</time></trkpt><trkpt lat="39.4645333" lon="16.0766917"><ele>1180.0</ele><time>2026-04-27T07:32:41.252Z</time></trkpt><trkpt lat="39.4644267" lon="16.0766583"><ele>1180.0</ele><time>2026-04-27T07:32:43.27Z</time></trkpt><trkpt lat="39.4643667" lon="16.0766267"><ele>1180.0</ele><time>2026-04-27T07:32:44.253Z</time></trkpt><trkpt lat="39.4643067" lon="16.0765883"><ele>1180.0</ele><time>2026-04-27T07:32:45.256Z</time></trkpt><trkpt lat="39.4642517" lon="16.07654"><ele>1180.0</ele><time>2026-04-27T07:32:46.251Z</time></trkpt><trkpt lat="39.4641967" lon="16.0764633"><ele>1180.0</ele><time>2026-04-27T07:32:47.253Z</time></trkpt><trkpt lat="39.46409" lon="16.0763717"><ele>1180.0</ele><time>2026-04-27T07:32:48.253Z</time></trkpt><trkpt lat="39.4639667" lon="16.0763083"><ele>1180.0</ele><time>2026-04-27T07:32:49.265Z</time></trkpt><trkpt lat="39.463885" lon="16.0762633"><ele>1180.0</ele><time>2026-04-27T07:32:50.254Z</time></trkpt><trkpt lat="39.46381" lon="16.0762117"><ele>1180.0</ele><time>2026-04-27T07:32:51.264Z</time></trkpt><trkpt lat="39.4637167" lon="16.0761667"><ele>1180.0</ele><time>2026-04-27T07:32:52.259Z</time></trkpt><trkpt lat="39.463605" lon="16.07613"><ele>1180.0</ele><time>2026-04-27T07:32:53.255Z</time></trkpt><trkpt lat="39.4634767" lon="16.0761067"><ele>1183.4</ele><time>2026-04-27T07:32:54.256Z</time></trkpt><trkpt lat="39.46336" lon="16.0760933"><ele>1186.8</ele><time>2026-04-27T07:32:55.312Z</time></trkpt><trkpt lat="39.4632483" lon="16.0760983"><ele>1190.2</ele><time>2026-04-27T07:32:56.254Z</time></trkpt><trkpt lat="39.463145" lon="16.0761117"><ele>1193.6</ele><time>2026-04-27T07:32:57.261Z</time></trkpt><trkpt lat="39.4630383" lon="16.076135"><ele>1197.0</ele><time>2026-04-27T07:32:58.258Z</time></trkpt><trkpt lat="39.46294" lon="16.0761783"><ele>1201.4</ele><time>2026-04-27T07:32:59.255Z</time></trkpt><trkpt lat="39.4628583" lon="16.076225"><ele>1205.8000000000002</ele><time>2026-04-27T07:33:00.252Z</time></trkpt><trkpt lat="39.4627717" lon="16.07627"><ele>1210.2</ele><time>2026-04-27T07:33:01.29Z</time></trkpt><trkpt lat="39.46268" lon="16.076295"><ele>1214.6000000000001</ele><time>2026-04-27T07:33:02.257Z</time></trkpt><trkpt lat="39.462585" lon="16.0763067"><ele>1219.0</ele><time>2026-04-27T07:33:03.253Z</time></trkpt><trkpt lat="39.4624917" lon="16.0763117"><ele>1219.0</ele><time>2026-04-27T07:33:04.258Z</time></trkpt><trkpt lat="39.4624117" lon="16.076295"><ele>1219.0</ele><time>2026-04-27T07:33:05.258Z</time></trkpt><trkpt lat="39.4623283" lon="16.0762533"><ele>1219.0</ele><time>2026-04-27T07:33:06.258Z</time></trkpt><trkpt lat="39.4622617" lon="16.07621"><ele>1219.0</ele><time>2026-04-27T07:33:07.267Z</time></trkpt><trkpt lat="39.4621833" lon="16.07618"><ele>1219.0</ele><time>2026-04-27T07:33:08.255Z</time></trkpt><trkpt lat="39.4621167" lon="16.0761617"><ele>1219.0</ele><time>2026-04-27T07:33:09.248Z</time></trkpt><trkpt lat="39.4620167" lon="16.0761467"><ele>1223.1666666666665</ele><time>2026-04-27T07:33:11.259Z</time></trkpt><trkpt lat="39.4619417" lon="16.0761117"><ele>1227.3333333333333</ele><time>2026-04-27T07:33:13.267Z</time></trkpt><trkpt lat="39.4618767" lon="16.0760783"><ele>1231.5</ele><time>2026-04-27T07:33:15.258Z</time></trkpt><trkpt lat="39.4618" lon="16.0760767"><ele>1235.6666666666667</ele><time>2026-04-27T07:33:18.253Z</time></trkpt><trkpt lat="39.4617383" lon="16.076055"><ele>1239.8333333333335</ele><time>2026-04-27T07:33:20.252Z</time></trkpt><trkpt lat="39.46167" lon="16.0760333"><ele>1244.0</ele><time>2026-04-27T07:33:22.256Z</time></trkpt><trkpt lat="39.4615767" lon="16.0760083"><ele>1244.0</ele><time>2026-04-27T07:33:37.269Z</time></trkpt><trkpt lat="39.4614983" lon="16.0759833"><ele>1244.0</ele><time>2026-04-27T07:33:39.25Z</time></trkpt><trkpt lat="39.4613833" lon="16.075885"><ele>1244.0</ele><time>2026-04-27T07:33:41.261Z</time></trkpt><trkpt lat="39.4613167" lon="16.075825"><ele>1244.0</ele><time>2026-04-27T07:33:42.256Z</time></trkpt><trkpt lat="39.4612433" lon="16.0757667"><ele>1244.0</ele><time>2026-04-27T07:33:43.269Z</time></trkpt><trkpt lat="39.4611717" lon="16.075715"><ele>1243.8333333333335</ele><time>2026-04-27T07:33:44.252Z</time></trkpt><trkpt lat="39.4611017" lon="16.07565"><ele>1243.6666666666667</ele><time>2026-04-27T07:33:45.259Z</time></trkpt><trkpt lat="39.4610317" lon="16.0756"><ele>1243.5</ele><time>2026-04-27T07:33:46.258Z</time></trkpt><trkpt lat="39.4609467" lon="16.0755717"><ele>1243.3333333333333</ele><time>2026-04-27T07:33:47.258Z</time></trkpt><trkpt lat="39.4608667" lon="16.075555"><ele>1243.1666666666665</ele><time>2026-04-27T07:33:48.255Z</time></trkpt><trkpt lat="39.4607933" lon="16.07553"><ele>1243.0</ele><time>2026-04-27T07:33:49.269Z</time></trkpt><trkpt lat="39.4607283" lon="16.0755233"><ele>1243.0</ele><time>2026-04-27T07:33:50.254Z</time></trkpt><trkpt lat="39.4606517" lon="16.0754667"><ele>1243.0</ele><time>2026-04-27T07:33:51.257Z</time></trkpt><trkpt lat="39.4605733" lon="16.07538"><ele>1243.0</ele><time>2026-04-27T07:33:52.256Z</time></trkpt><trkpt lat="39.4605083" lon="16.0753017"><ele>1243.0</ele><time>2026-04-27T07:33:53.254Z</time></trkpt><trkpt lat="39.4604567" lon="16.0752183"><ele>1243.0</ele><time>2026-04-27T07:33:54.253Z</time></trkpt><trkpt lat="39.46041" lon="16.0751333"><ele>1243.0</ele><time>2026-04-27T07:33:55.324Z</time></trkpt><trkpt lat="39.460385" lon="16.07504"><ele>1245.3333333333333</ele><time>2026-04-27T07:33:56.252Z</time></trkpt><trkpt lat="39.460335" lon="16.0749783"><ele>1247.6666666666665</ele><time>2026-04-27T07:33:57.251Z</time></trkpt><trkpt lat="39.4602583" lon="16.0749483"><ele>1250.0</ele><time>2026-04-27T07:33:58.255Z</time></trkpt><trkpt lat="39.460175" lon="16.0749317"><ele>1252.3333333333333</ele><time>2026-04-27T07:33:59.26Z</time></trkpt><trkpt lat="39.4600883" lon="16.0749433"><ele>1254.6666666666667</ele><time>2026-04-27T07:34:00.266Z</time></trkpt><trkpt lat="39.459995" lon="16.07496"><ele>1257.0</ele><time>2026-04-27T07:34:01.284Z</time></trkpt><trkpt lat="39.4598933" lon="16.074975"><ele>1260.75</ele><time>2026-04-27T07:34:02.26Z</time></trkpt><trkpt lat="39.4597883" lon="16.074985"><ele>1264.5</ele><time>2026-04-27T07:34:03.261Z</time></trkpt><trkpt lat="39.4596383" lon="16.075005"><ele>1268.25</ele><time>2026-04-27T07:34:04.269Z</time></trkpt><trkpt lat="39.4595317" lon="16.0750017"><ele>1272.0</ele><time>2026-04-27T07:34:05.25Z</time></trkpt><trkpt lat="39.4594367" lon="16.075015"><ele>1275.8</ele><time>2026-04-27T07:34:06.251Z</time></trkpt><trkpt lat="39.4593267" lon="16.07504"><ele>1279.6</ele><time>2026-04-27T07:34:07.259Z</time></trkpt><trkpt lat="39.4592217" lon="16.0750783"><ele>1283.3999999999999</ele><time>2026-04-27T07:34:08.255Z</time></trkpt><trkpt lat="39.4591183" lon="16.0751133"><ele>1287.2</ele><time>2026-04-27T07:34:09.255Z</time></trkpt><trkpt lat="39.4590383" lon="16.0751333"><ele>1291.0</ele><time>2026-04-27T07:34:10.252Z</time></trkpt><trkpt lat="39.4589417" lon="16.07515"><ele>1291.0</ele><time>2026-04-27T07:34:11.256Z</time></trkpt><trkpt lat="39.4588383" lon="16.07515"><ele>1291.0</ele><time>2026-04-27T07:34:12.256Z</time></trkpt><trkpt lat="39.4587383" lon="16.07514"><ele>1291.0</ele><time>2026-04-27T07:34:13.273Z</time></trkpt><trkpt lat="39.4586383" lon="16.0751333"><ele>1291.0</ele><time>2026-04-27T07:34:14.247Z</time></trkpt><trkpt lat="39.458555" lon="16.0751233"><ele>1291.0</ele><time>2026-04-27T07:34:15.258Z</time></trkpt><trkpt lat="39.458485" lon="16.075105"><ele>1291.0</ele><time>2026-04-27T07:34:16.27Z</time></trkpt><trkpt lat="39.458405" lon="16.07511"><ele>1291.0</ele><time>2026-04-27T07:34:18.249Z</time></trkpt><trkpt lat="39.458375" lon="16.0752533"><ele>1291.0</ele><time>2026-04-27T07:34:20.254Z</time></trkpt><trkpt lat="39.458365" lon="16.0753767"><ele>1291.0</ele><time>2026-04-27T07:34:21.258Z</time></trkpt><trkpt lat="39.458345" lon="16.0754917"><ele>1291.0</ele><time>2026-04-27T07:34:22.252Z</time></trkpt><trkpt lat="39.4583283" lon="16.0756"><ele>1291.0</ele><time>2026-04-27T07:34:23.254Z</time></trkpt><trkpt lat="39.458295" lon="16.0756917"><ele>1291.0</ele><time>2026-04-27T07:34:24.256Z</time></trkpt><trkpt lat="39.45828" lon="16.0757867"><ele>1291.0</ele><time>2026-04-27T07:34:25.323Z</time></trkpt><trkpt lat="39.4582567" lon="16.07589"><ele>1291.0</ele><time>2026-04-27T07:34:26.256Z</time></trkpt><trkpt lat="39.4582383" lon="16.0759883"><ele>1291.0</ele><time>2026-04-27T07:34:27.254Z</time></trkpt><trkpt lat="39.4582317" lon="16.0760817"><ele>1291.0</ele><time>2026-04-27T07:34:28.251Z</time></trkpt><trkpt lat="39.458215" lon="16.0761783"><ele>1290.8</ele><time>2026-04-27T07:34:29.253Z</time></trkpt><trkpt lat="39.45819" lon="16.0762833"><ele>1290.6</ele><time>2026-04-27T07:34:30.253Z</time></trkpt><trkpt lat="39.4581667" lon="16.07641"><ele>1290.4</ele><time>2026-04-27T07:34:31.276Z</time></trkpt><trkpt lat="39.4581533" lon="16.0765517"><ele>1290.2</ele><time>2026-04-27T07:34:32.257Z</time></trkpt><trkpt lat="39.4581417" lon="16.0767383"><ele>1290.0</ele><time>2026-04-27T07:34:33.259Z</time></trkpt><trkpt lat="39.4581233" lon="16.0769083"><ele>1290.0</ele><time>2026-04-27T07:34:34.256Z</time></trkpt><trkpt lat="39.4580933" lon="16.0770617"><ele>1290.0</ele><time>2026-04-27T07:34:35.256Z</time></trkpt><trkpt lat="39.458125" lon="16.0772317"><ele>1290.0</ele><time>2026-04-27T07:34:36.255Z</time></trkpt><trkpt lat="39.4581933" lon="16.07743"><ele>1290.0</ele><time>2026-04-27T07:34:37.274Z</time></trkpt><trkpt lat="39.4581917" lon="16.07756"><ele>1290.1666666666667</ele><time>2026-04-27T07:34:38.259Z</time></trkpt><trkpt lat="39.4582" lon="16.07766"><ele>1290.3333333333333</ele><time>2026-04-27T07:34:39.251Z</time></trkpt><trkpt lat="39.4582133" lon="16.0777883"><ele>1290.5</ele><time>2026-04-27T07:34:41.26Z</time></trkpt><trkpt lat="39.4581467" lon="16.07788"><ele>1290.6666666666665</ele><time>2026-04-27T07:34:51.259Z</time></trkpt><trkpt lat="39.458135" lon="16.0779683"><ele>1290.8333333333333</ele><time>2026-04-27T07:34:53.258Z</time></trkpt><trkpt lat="39.4581333" lon="16.0780917"><ele>1291.0</ele><time>2026-04-27T07:34:56.254Z</time></trkpt><trkpt lat="39.4581517" lon="16.07823"><ele>1289.1999999999998</ele><time>2026-04-27T07:34:58.26Z</time></trkpt><trkpt lat="39.4581083" lon="16.0783317"><ele>1287.3999999999999</ele><time>2026-04-27T07:35:00.26Z</time></trkpt><trkpt lat="39.4580783" lon="16.0784217"><ele>1285.6</ele><time>2026-04-27T07:35:02.254Z</time></trkpt><trkpt lat="39.4580533" lon="16.0785033"><ele>1283.8</ele><time>2026-04-27T07:35:04.256Z</time></trkpt><trkpt lat="39.45796" lon="16.0786317"><ele>1282.0</ele><time>2026-04-27T07:35:06.254Z</time></trkpt><trkpt lat="39.4579083" lon="16.0787117"><ele>1278.6666666666665</ele><time>2026-04-27T07:35:07.279Z</time></trkpt><trkpt lat="39.457865" lon="16.0787967"><ele>1275.3333333333333</ele><time>2026-04-27T07:35:08.258Z</time></trkpt><trkpt lat="39.45782" lon="16.0788817"><ele>1272.0</ele><time>2026-04-27T07:35:09.254Z</time></trkpt><trkpt lat="39.45776" lon="16.07897"><ele>1268.6666666666667</ele><time>2026-04-27T07:35:10.269Z</time></trkpt><trkpt lat="39.4577067" lon="16.079045"><ele>1265.3333333333335</ele><time>2026-04-27T07:35:11.256Z</time></trkpt><trkpt lat="39.4576283" lon="16.079165"><ele>1262.0</ele><time>2026-04-27T07:35:13.27Z</time></trkpt><trkpt lat="39.457585" lon="16.0792717"><ele>1261.0</ele><time>2026-04-27T07:35:14.259Z</time></trkpt><trkpt lat="39.4575533" lon="16.0793917"><ele>1260.0</ele><time>2026-04-27T07:35:15.255Z</time></trkpt><trkpt lat="39.4575183" lon="16.079495"><ele>1259.0</ele><time>2026-04-27T07:35:16.254Z</time></trkpt><trkpt lat="39.457475" lon="16.079605"><ele>1258.0</ele><time>2026-04-27T07:35:17.258Z</time></trkpt><trkpt lat="39.4574267" lon="16.079715"><ele>1257.0</ele><time>2026-04-27T07:35:18.258Z</time></trkpt><trkpt lat="39.4574017" lon="16.0798333"><ele>1255.5</ele><time>2026-04-27T07:35:19.265Z</time></trkpt><trkpt lat="39.4573767" lon="16.07995"><ele>1254.0</ele><time>2026-04-27T07:35:20.252Z</time></trkpt><trkpt lat="39.4573667" lon="16.0800433"><ele>1252.5</ele><time>2026-04-27T07:35:21.26Z</time></trkpt><trkpt lat="39.4573567" lon="16.0801533"><ele>1251.0</ele><time>2026-04-27T07:35:22.257Z</time></trkpt><trkpt lat="39.4573383" lon="16.08024"><ele>1249.5</ele><time>2026-04-27T07:35:23.262Z</time></trkpt><trkpt lat="39.4573467" lon="16.080385"><ele>1248.0</ele><time>2026-04-27T07:35:25.26Z</time></trkpt><trkpt lat="39.4573583" lon="16.0805067"><ele>1248.0</ele><time>2026-04-27T07:35:27.263Z</time></trkpt><trkpt lat="39.4573567" lon="16.080655"><ele>1248.0</ele><time>2026-04-27T07:35:29.255Z</time></trkpt><trkpt lat="39.457345" lon="16.0807367"><ele>1248.0</ele><time>2026-04-27T07:35:30.255Z</time></trkpt><trkpt lat="39.4573167" lon="16.080865"><ele>1248.0</ele><time>2026-04-27T07:35:32.256Z</time></trkpt><trkpt lat="39.4573333" lon="16.081005"><ele>1248.0</ele><time>2026-04-27T07:35:34.253Z</time></trkpt><trkpt lat="39.4573583" lon="16.0811117"><ele>1247.2</ele><time>2026-04-27T07:35:36.249Z</time></trkpt><trkpt lat="39.457395" lon="16.0811933"><ele>1246.4</ele><time>2026-04-27T07:35:38.259Z</time></trkpt><trkpt lat="39.4574567" lon="16.08128"><ele>1245.6000000000001</ele><time>2026-04-27T07:35:40.256Z</time></trkpt><trkpt lat="39.4575483" lon="16.0813517"><ele>1244.8</ele><time>2026-04-27T07:35:42.256Z</time></trkpt><trkpt lat="39.457715" lon="16.0814083"><ele>1244.0</ele><time>2026-04-27T07:35:45.254Z</time></trkpt><trkpt lat="39.4577867" lon="16.0814433"><ele>1244.0</ele><time>2026-04-27T07:35:46.252Z</time></trkpt><trkpt lat="39.4578567" lon="16.08148"><ele>1244.0</ele><time>2026-04-27T07:35:47.259Z</time></trkpt><trkpt lat="39.457935" lon="16.0815017"><ele>1244.0</ele><time>2026-04-27T07:35:48.257Z</time></trkpt><trkpt lat="39.4580183" lon="16.0815133"><ele>1244.0</ele><time>2026-04-27T07:35:49.263Z</time></trkpt><trkpt lat="39.4580917" lon="16.0815"><ele>1244.0</ele><time>2026-04-27T07:35:50.261Z</time></trkpt><trkpt lat="39.4582117" lon="16.0814783"><ele>1244.0</ele><time>2026-04-27T07:35:52.249Z</time></trkpt><trkpt lat="39.4583233" lon="16.081475"><ele>1243.5</ele><time>2026-04-27T07:35:54.258Z</time></trkpt><trkpt lat="39.4584267" lon="16.081455"><ele>1243.0</ele><time>2026-04-27T07:35:56.249Z</time></trkpt><trkpt lat="39.4585333" lon="16.081485"><ele>1242.5</ele><time>2026-04-27T07:35:58.263Z</time></trkpt><trkpt lat="39.458605" lon="16.0815183"><ele>1242.0</ele><time>2026-04-27T07:35:59.255Z</time></trkpt><trkpt lat="39.4586817" lon="16.0815483"><ele>1241.5</ele><time>2026-04-27T07:36:00.254Z</time></trkpt><trkpt lat="39.4587533" lon="16.0815683"><ele>1241.0</ele><time>2026-04-27T07:36:01.268Z</time></trkpt><trkpt lat="39.4588383" lon="16.0815417"><ele>1238.8</ele><time>2026-04-27T07:36:02.254Z</time></trkpt><trkpt lat="39.4589067" lon="16.0815133"><ele>1236.6</ele><time>2026-04-27T07:36:03.261Z</time></trkpt><trkpt lat="39.4590083" lon="16.081505"><ele>1234.4</ele><time>2026-04-27T07:36:05.261Z</time></trkpt><trkpt lat="39.4591083" lon="16.0814717"><ele>1232.2</ele><time>2026-04-27T07:36:07.272Z</time></trkpt><trkpt lat="39.4592183" lon="16.081465"><ele>1230.0</ele><time>2026-04-27T07:36:09.259Z</time></trkpt><trkpt lat="39.459335" lon="16.08149"><ele>1230.0</ele><time>2026-04-27T07:36:11.261Z</time></trkpt><trkpt lat="39.45941" lon="16.0815133"><ele>1230.0</ele><time>2026-04-27T07:36:13.268Z</time></trkpt><trkpt lat="39.4594717" lon="16.081545"><ele>1230.0</ele><time>2026-04-27T07:36:15.255Z</time></trkpt><trkpt lat="39.4595367" lon="16.0814967"><ele>1230.0</ele><time>2026-04-27T07:36:18.258Z</time></trkpt><trkpt lat="39.45958" lon="16.08143"><ele>1230.0</ele><time>2026-04-27T07:36:20.255Z</time></trkpt><trkpt lat="39.4596367" lon="16.0813767"><ele>1230.0</ele><time>2026-04-27T07:36:22.25Z</time></trkpt><trkpt lat="39.45972" lon="16.081335"><ele>1230.0</ele><time>2026-04-27T07:36:24.25Z</time></trkpt><trkpt lat="39.4598217" lon="16.0812867"><ele>1227.4</ele><time>2026-04-27T07:36:26.252Z</time></trkpt><trkpt lat="39.4599167" lon="16.0812217"><ele>1224.8</ele><time>2026-04-27T07:36:28.249Z</time></trkpt><trkpt lat="39.46002" lon="16.081165"><ele>1222.2</ele><time>2026-04-27T07:36:30.255Z</time></trkpt><trkpt lat="39.4601467" lon="16.0811067"><ele>1219.6</ele><time>2026-04-27T07:36:32.249Z</time></trkpt><trkpt lat="39.4602117" lon="16.0810933"><ele>1217.0</ele><time>2026-04-27T07:36:33.255Z</time></trkpt><trkpt lat="39.460275" lon="16.0810683"><ele>1217.0</ele><time>2026-04-27T07:36:34.259Z</time></trkpt><trkpt lat="39.46034" lon="16.0810583"><ele>1217.0</ele><time>2026-04-27T07:36:35.262Z</time></trkpt><trkpt lat="39.460445" lon="16.0810417"><ele>1217.0</ele><time>2026-04-27T07:36:37.271Z</time></trkpt><trkpt lat="39.4605417" lon="16.0811133"><ele>1217.0</ele><time>2026-04-27T07:36:39.257Z</time></trkpt><trkpt lat="39.4606" lon="16.0812"><ele>1217.0</ele><time>2026-04-27T07:36:40.25Z</time></trkpt><trkpt lat="39.4606517" lon="16.0812567"><ele>1217.0</ele><time>2026-04-27T07:36:41.25Z</time></trkpt><trkpt lat="39.4607467" lon="16.0813167"><ele>1217.0</ele><time>2026-04-27T07:36:43.27Z</time></trkpt><trkpt lat="39.4607983" lon="16.0813717"><ele>1217.0</ele><time>2026-04-27T07:36:46.255Z</time></trkpt><trkpt lat="39.4608517" lon="16.081415"><ele>1217.0</ele><time>2026-04-27T07:36:48.254Z</time></trkpt><trkpt lat="39.4609317" lon="16.0814467"><ele>1217.0</ele><time>2026-04-27T07:36:50.253Z</time></trkpt><trkpt lat="39.461035" lon="16.08147"><ele>1217.0</ele><time>2026-04-27T07:36:52.252Z</time></trkpt><trkpt lat="39.4611533" lon="16.08151"><ele>1217.0</ele><time>2026-04-27T07:36:54.256Z</time></trkpt><trkpt lat="39.461255" lon="16.081545"><ele>1220.8</ele><time>2026-04-27T07:36:56.253Z</time></trkpt><trkpt lat="39.46132" lon="16.0815883"><ele>1224.6</ele><time>2026-04-27T07:36:58.252Z</time></trkpt><trkpt lat="39.4613933" lon="16.081675"><ele>1228.3999999999999</ele><time>2026-04-27T07:37:01.269Z</time></trkpt><trkpt lat="39.4614833" lon="16.0817317"><ele>1232.2</ele><time>2026-04-27T07:37:03.254Z</time></trkpt><trkpt lat="39.4615617" lon="16.0817867"><ele>1236.0</ele><time>2026-04-27T07:37:05.257Z</time></trkpt><trkpt lat="39.4616317" lon="16.0818867"><ele>1228.3999999999999</ele><time>2026-04-27T07:37:07.265Z</time></trkpt><trkpt lat="39.4616917" lon="16.0820483"><ele>1220.8</ele><time>2026-04-27T07:37:09.259Z</time></trkpt><trkpt lat="39.4617417" lon="16.0821617"><ele>1213.1999999999998</ele><time>2026-04-27T07:37:10.251Z</time></trkpt><trkpt lat="39.4618033" lon="16.08225"><ele>1205.6</ele><time>2026-04-27T07:37:11.246Z</time></trkpt><trkpt lat="39.461875" lon="16.082335"><ele>1198.0</ele><time>2026-04-27T07:37:12.254Z</time></trkpt><trkpt lat="39.4619433" lon="16.08241"><ele>1194.6</ele><time>2026-04-27T07:37:13.27Z</time></trkpt><trkpt lat="39.4620133" lon="16.0824767"><ele>1191.1999999999998</ele><time>2026-04-27T07:37:14.254Z</time></trkpt><trkpt lat="39.4620933" lon="16.0825267"><ele>1187.8</ele><time>2026-04-27T07:37:15.261Z</time></trkpt><trkpt lat="39.4622" lon="16.0825333"><ele>1184.3999999999999</ele><time>2026-04-27T07:37:16.25Z</time></trkpt><trkpt lat="39.4622867" lon="16.08256"><ele>1181.0</ele><time>2026-04-27T07:37:17.253Z</time></trkpt><trkpt lat="39.462365" lon="16.0825817"><ele>1181.0</ele><time>2026-04-27T07:37:18.253Z</time></trkpt><trkpt lat="39.4624317" lon="16.082605"><ele>1181.0</ele><time>2026-04-27T07:37:19.261Z</time></trkpt><trkpt lat="39.4625267" lon="16.0826767"><ele>1181.0</ele><time>2026-04-27T07:37:21.251Z</time></trkpt><trkpt lat="39.46254" lon="16.0827567"><ele>1181.0</ele><time>2026-04-27T07:37:22.259Z</time></trkpt><trkpt lat="39.46254" lon="16.08293"><ele>1181.0</ele><time>2026-04-27T07:37:24.254Z</time></trkpt><trkpt lat="39.4625533" lon="16.0830383"><ele>1181.0</ele><time>2026-04-27T07:37:25.319Z</time></trkpt><trkpt lat="39.4625717" lon="16.0831417"><ele>1181.0</ele><time>2026-04-27T07:37:26.258Z</time></trkpt><trkpt lat="39.4625933" lon="16.083235"><ele>1181.0</ele><time>2026-04-27T07:37:27.258Z</time></trkpt><trkpt lat="39.46262" lon="16.0833483"><ele>1181.0</ele><time>2026-04-27T07:37:28.251Z</time></trkpt><trkpt lat="39.4626533" lon="16.08343"><ele>1181.0</ele><time>2026-04-27T07:37:29.258Z</time></trkpt><trkpt lat="39.462745" lon="16.0835433"><ele>1181.0</ele><time>2026-04-27T07:37:31.268Z</time></trkpt><trkpt lat="39.4628" lon="16.0836667"><ele>1181.5</ele><time>2026-04-27T07:37:33.251Z</time></trkpt><trkpt lat="39.46284" lon="16.083735"><ele>1182.0</ele><time>2026-04-27T07:37:34.257Z</time></trkpt><trkpt lat="39.4628867" lon="16.0838017"><ele>1182.5</ele><time>2026-04-27T07:37:35.252Z</time></trkpt><trkpt lat="39.4629217" lon="16.0838733"><ele>1183.0</ele><time>2026-04-27T07:37:36.254Z</time></trkpt><trkpt lat="39.4629867" lon="16.0839833"><ele>1183.5</ele><time>2026-04-27T07:37:38.257Z</time></trkpt><trkpt lat="39.4630467" lon="16.0840933"><ele>1184.0</ele><time>2026-04-27T07:37:40.255Z</time></trkpt><trkpt lat="39.4631017" lon="16.0841833"><ele>1179.3333333333335</ele><time>2026-04-27T07:37:42.254Z</time></trkpt><trkpt lat="39.4631617" lon="16.0842433"><ele>1174.6666666666667</ele><time>2026-04-27T07:37:44.254Z</time></trkpt><trkpt lat="39.4632383" lon="16.0842617"><ele>1170.0</ele><time>2026-04-27T07:37:46.252Z</time></trkpt><trkpt lat="39.463215" lon="16.0843533"><ele>1165.3333333333333</ele><time>2026-04-27T07:37:58.247Z</time></trkpt><trkpt lat="39.4631233" lon="16.0843833"><ele>1160.6666666666665</ele><time>2026-04-27T07:38:00.257Z</time></trkpt><trkpt lat="39.4630733" lon="16.0843183"><ele>1156.0</ele><time>2026-04-27T07:38:01.269Z</time></trkpt><trkpt lat="39.46301" lon="16.08426"><ele>1156.0</ele><time>2026-04-27T07:38:03.255Z</time></trkpt><trkpt lat="39.462955" lon="16.0841767"><ele>1156.0</ele><time>2026-04-27T07:38:05.26Z</time></trkpt><trkpt lat="39.4629083" lon="16.0840767"><ele>1156.0</ele><time>2026-04-27T07:38:07.264Z</time></trkpt><trkpt lat="39.4628767" lon="16.0839517"><ele>1156.0</ele><time>2026-04-27T07:38:09.26Z</time></trkpt><trkpt lat="39.4628333" lon="16.0838417"><ele>1156.0</ele><time>2026-04-27T07:38:11.252Z</time></trkpt><trkpt lat="39.4627917" lon="16.0837733"><ele>1156.0</ele><time>2026-04-27T07:38:17.251Z</time></trkpt><trkpt lat="39.4627583" lon="16.0836767"><ele>1156.5</ele><time>2026-04-27T07:38:20.255Z</time></trkpt><trkpt lat="39.462725" lon="16.0836067"><ele>1157.0</ele><time>2026-04-27T07:38:22.258Z</time></trkpt><trkpt lat="39.462705" lon="16.0835117"><ele>1157.5</ele><time>2026-04-27T07:38:24.252Z</time></trkpt><trkpt lat="39.4627033" lon="16.0833967"><ele>1158.0</ele><time>2026-04-27T07:38:26.249Z</time></trkpt><trkpt lat="39.4627033" lon="16.08325"><ele>1158.5</ele><time>2026-04-27T07:38:28.254Z</time></trkpt><trkpt lat="39.4626733" lon="16.08312"><ele>1159.0</ele><time>2026-04-27T07:38:30.246Z</time></trkpt><trkpt lat="39.462625" lon="16.0829883"><ele>1162.6666666666665</ele><time>2026-04-27T07:38:32.253Z</time></trkpt><trkpt lat="39.4625833" lon="16.08287"><ele>1166.3333333333333</ele><time>2026-04-27T07:38:34.252Z</time></trkpt><trkpt lat="39.4625633" lon="16.0827767"><ele>1170.0</ele><time>2026-04-27T07:38:36.252Z</time></trkpt><trkpt lat="39.4624767" lon="16.0827333"><ele>1173.6666666666667</ele><time>2026-04-27T07:38:39.261Z</time></trkpt><trkpt lat="39.4624133" lon="16.08278"><ele>1177.3333333333335</ele><time>2026-04-27T07:38:40.25Z</time></trkpt><trkpt lat="39.4623433" lon="16.0828267"><ele>1181.0</ele><time>2026-04-27T07:38:41.257Z</time></trkpt><trkpt lat="39.46228" lon="16.0828717"><ele>1181.0</ele><time>2026-04-27T07:38:42.254Z</time></trkpt><trkpt lat="39.46221" lon="16.082925"><ele>1181.0</ele><time>2026-04-27T07:38:43.274Z</time></trkpt><trkpt lat="39.4621417" lon="16.0829617"><ele>1181.0</ele><time>2026-04-27T07:38:44.254Z</time></trkpt><trkpt lat="39.46207" lon="16.0829983"><ele>1181.0</ele><time>2026-04-27T07:38:45.254Z</time></trkpt><trkpt lat="39.4619983" lon="16.08303"><ele>1181.0</ele><time>2026-04-27T07:38:46.252Z</time></trkpt><trkpt lat="39.4619317" lon="16.0830517"><ele>1181.0</ele><time>2026-04-27T07:38:47.249Z</time></trkpt><trkpt lat="39.4618667" lon="16.08306"><ele>1181.0</ele><time>2026-04-27T07:38:48.256Z</time></trkpt><trkpt lat="39.4617517" lon="16.083075"><ele>1177.25</ele><time>2026-04-27T07:38:50.252Z</time></trkpt><trkpt lat="39.46164" lon="16.0830633"><ele>1173.5</ele><time>2026-04-27T07:38:52.251Z</time></trkpt><trkpt lat="39.4615433" lon="16.0829883"><ele>1169.75</ele><time>2026-04-27T07:38:54.256Z</time></trkpt><trkpt lat="39.4615033" lon="16.0828883"><ele>1166.0</ele><time>2026-04-27T07:38:55.319Z</time></trkpt><trkpt lat="39.46144" lon="16.082685"><ele>1166.0</ele><time>2026-04-27T07:38:57.256Z</time></trkpt><trkpt lat="39.461405" lon="16.08261"><ele>1166.0</ele><time>2026-04-27T07:38:58.251Z</time></trkpt><trkpt lat="39.4613317" lon="16.082495"><ele>1166.0</ele><time>2026-04-27T07:39:00.252Z</time></trkpt><trkpt lat="39.4612467" lon="16.082435"><ele>1166.0</ele><time>2026-04-27T07:39:02.252Z</time></trkpt><trkpt lat="39.46117" lon="16.0824033"><ele>1166.0</ele><time>2026-04-27T07:39:04.258Z</time></trkpt><trkpt lat="39.4610867" lon="16.08242"><ele>1166.0</ele><time>2026-04-27T07:39:06.254Z</time></trkpt><trkpt lat="39.4610083" lon="16.0823967"><ele>1168.3999999999999</ele><time>2026-04-27T07:39:08.251Z</time></trkpt><trkpt lat="39.4609167" lon="16.0823883"><ele>1170.8</ele><time>2026-04-27T07:39:10.254Z</time></trkpt><trkpt lat="39.4608517" lon="16.08233"><ele>1173.1999999999998</ele><time>2026-04-27T07:39:12.254Z</time></trkpt><trkpt lat="39.4607683" lon="16.0822367"><ele>1175.6</ele><time>2026-04-27T07:39:14.257Z</time></trkpt><trkpt lat="39.46066" lon="16.082175"><ele>1178.0</ele><time>2026-04-27T07:39:16.249Z</time></trkpt><trkpt lat="39.4605767" lon="16.0821617"><ele>1178.0</ele><time>2026-04-27T07:39:18.255Z</time></trkpt><trkpt lat="39.46049" lon="16.0822033"><ele>1178.0</ele><time>2026-04-27T07:39:20.252Z</time></trkpt><trkpt lat="39.46041" lon="16.08232"><ele>1178.0</ele><time>2026-04-27T07:39:22.254Z</time></trkpt><trkpt lat="39.460335" lon="16.0824317"><ele>1178.0</ele><time>2026-04-27T07:39:24.258Z</time></trkpt><trkpt lat="39.4602283" lon="16.082475"><ele>1178.0</ele><time>2026-04-27T07:39:26.247Z</time></trkpt><trkpt lat="39.460125" lon="16.08251"><ele>1171.8</ele><time>2026-04-27T07:39:28.251Z</time></trkpt><trkpt lat="39.4600233" lon="16.0825617"><ele>1165.6</ele><time>2026-04-27T07:39:30.26Z</time></trkpt><trkpt lat="39.4599283" lon="16.0826"><ele>1159.4</ele><time>2026-04-27T07:39:32.253Z</time></trkpt><trkpt lat="39.45984" lon="16.0826983"><ele>1153.2</ele><time>2026-04-27T07:39:34.257Z</time></trkpt><trkpt lat="39.45978" lon="16.0827567"><ele>1147.0</ele><time>2026-04-27T07:39:35.254Z</time></trkpt><trkpt lat="39.4597283" lon="16.082825"><ele>1147.0</ele><time>2026-04-27T07:39:36.255Z</time></trkpt><trkpt lat="39.459685" lon="16.0828917"><ele>1147.0</ele><time>2026-04-27T07:39:37.27Z</time></trkpt><trkpt lat="39.4596383" lon="16.0829533"><ele>1147.0</ele><time>2026-04-27T07:39:38.256Z</time></trkpt><trkpt lat="39.4595817" lon="16.083015"><ele>1147.0</ele><time>2026-04-27T07:39:39.256Z</time></trkpt><trkpt lat="39.45952" lon="16.083065"><ele>1147.0</ele><time>2026-04-27T07:39:40.254Z</time></trkpt><trkpt lat="39.4594533" lon="16.0831117"><ele>1147.0</ele><time>2026-04-27T07:39:41.258Z</time></trkpt><trkpt lat="39.4593767" lon="16.0831467"><ele>1147.0</ele><time>2026-04-27T07:39:42.25Z</time></trkpt><trkpt lat="39.4593" lon="16.0831783"><ele>1145.0</ele><time>2026-04-27T07:39:43.27Z</time></trkpt><trkpt lat="39.4592233" lon="16.0831983"><ele>1143.0</ele><time>2026-04-27T07:39:44.251Z</time></trkpt><trkpt lat="39.4591567" lon="16.0832133"><ele>1141.0</ele><time>2026-04-27T07:39:45.257Z</time></trkpt><trkpt lat="39.4590617" lon="16.0832733"><ele>1139.0</ele><time>2026-04-27T07:39:47.259Z</time></trkpt><trkpt lat="39.4590067" lon="16.0833767"><ele>1137.0</ele><time>2026-04-27T07:39:49.265Z</time></trkpt><trkpt lat="39.4589283" lon="16.0834767"><ele>1137.0</ele><time>2026-04-27T07:39:51.255Z</time></trkpt><trkpt lat="39.4588583" lon="16.0835517"><ele>1137.0</ele><time>2026-04-27T07:39:53.251Z</time></trkpt><trkpt lat="39.4588083" lon="16.08365"><ele>1137.0</ele><time>2026-04-27T07:39:55.324Z</time></trkpt><trkpt lat="39.458795" lon="16.0837667"><ele>1137.0</ele><time>2026-04-27T07:39:57.248Z</time></trkpt><trkpt lat="39.458755" lon="16.0838967"><ele>1137.0</ele><time>2026-04-27T07:39:59.253Z</time></trkpt><trkpt lat="39.45873" lon="16.0839767"><ele>1137.0</ele><time>2026-04-27T07:40:00.249Z</time></trkpt><trkpt lat="39.4586867" lon="16.08414"><ele>1138.2</ele><time>2026-04-27T07:40:01.286Z</time></trkpt><trkpt lat="39.4586467" lon="16.0842883"><ele>1139.4</ele><time>2026-04-27T07:40:02.251Z</time></trkpt><trkpt lat="39.4585883" lon="16.0844233"><ele>1140.6</ele><time>2026-04-27T07:40:03.256Z</time></trkpt><trkpt lat="39.4585333" lon="16.08453"><ele>1141.8</ele><time>2026-04-27T07:40:04.254Z</time></trkpt><trkpt lat="39.458475" lon="16.08462"><ele>1143.0</ele><time>2026-04-27T07:40:05.256Z</time></trkpt><trkpt lat="39.4584067" lon="16.0846783"><ele>1143.0</ele><time>2026-04-27T07:40:06.25Z</time></trkpt><trkpt lat="39.4583333" lon="16.0847317"><ele>1143.0</ele><time>2026-04-27T07:40:07.264Z</time></trkpt><trkpt lat="39.4582617" lon="16.0847767"><ele>1143.0</ele><time>2026-04-27T07:40:08.247Z</time></trkpt><trkpt lat="39.4582" lon="16.08483"><ele>1143.0</ele><time>2026-04-27T07:40:09.253Z</time></trkpt><trkpt lat="39.4581483" lon="16.08488"><ele>1143.0</ele><time>2026-04-27T07:40:10.25Z</time></trkpt><trkpt lat="39.4580967" lon="16.0849467"><ele>1143.0</ele><time>2026-04-27T07:40:11.251Z</time></trkpt><trkpt lat="39.4580383" lon="16.0850233"><ele>1143.8333333333333</ele><time>2026-04-27T07:40:12.265Z</time></trkpt><trkpt lat="39.4579733" lon="16.085105"><ele>1144.6666666666667</ele><time>2026-04-27T07:40:13.264Z</time></trkpt><trkpt lat="39.4579183" lon="16.0851783"><ele>1145.5</ele><time>2026-04-27T07:40:14.255Z</time></trkpt><trkpt lat="39.45787" lon="16.0852517"><ele>1146.3333333333335</ele><time>2026-04-27T07:40:15.259Z</time></trkpt><trkpt lat="39.45783" lon="16.0853217"><ele>1147.1666666666667</ele><time>2026-04-27T07:40:16.251Z</time></trkpt><trkpt lat="39.4578167" lon="16.0854467"><ele>1148.0</ele><time>2026-04-27T07:40:18.251Z</time></trkpt><trkpt lat="39.45778" lon="16.085595"><ele>1148.0</ele><time>2026-04-27T07:40:20.246Z</time></trkpt><trkpt lat="39.4577567" lon="16.0856767"><ele>1148.0</ele><time>2026-04-27T07:40:21.252Z</time></trkpt><trkpt lat="39.4577233" lon="16.08576"><ele>1148.0</ele><time>2026-04-27T07:40:22.255Z</time></trkpt><trkpt lat="39.4576983" lon="16.0858417"><ele>1148.0</ele><time>2026-04-27T07:40:23.256Z</time></trkpt><trkpt lat="39.4576617" lon="16.0859683"><ele>1148.0</ele><time>2026-04-27T07:40:25.282Z</time></trkpt><trkpt lat="39.4576833" lon="16.0861233"><ele>1148.0</ele><time>2026-04-27T07:40:27.264Z</time></trkpt><trkpt lat="39.4576633" lon="16.08623"><ele>1144.4</ele><time>2026-04-27T07:40:29.259Z</time></trkpt><trkpt lat="39.457605" lon="16.0863283"><ele>1140.8</ele><time>2026-04-27T07:40:31.286Z</time></trkpt><trkpt lat="39.4575383" lon="16.08644"><ele>1137.2</ele><time>2026-04-27T07:40:33.253Z</time></trkpt><trkpt lat="39.4574717" lon="16.08653"><ele>1133.6</ele><time>2026-04-27T07:40:35.259Z</time></trkpt><trkpt lat="39.45743" lon="16.0866783"><ele>1130.0</ele><time>2026-04-27T07:40:37.269Z</time></trkpt><trkpt lat="39.4574383" lon="16.0867833"><ele>1127.2</ele><time>2026-04-27T07:40:38.254Z</time></trkpt><trkpt lat="39.4574617" lon="16.0869167"><ele>1124.4</ele><time>2026-04-27T07:40:39.262Z</time></trkpt><trkpt lat="39.4574817" lon="16.0870583"><ele>1121.6</ele><time>2026-04-27T07:40:40.257Z</time></trkpt><trkpt lat="39.4575017" lon="16.0871917"><ele>1118.8</ele><time>2026-04-27T07:40:41.249Z</time></trkpt><trkpt lat="39.457515" lon="16.0872933"><ele>1116.0</ele><time>2026-04-27T07:40:42.253Z</time></trkpt><trkpt lat="39.4575133" lon="16.087395"><ele>1115.3333333333333</ele><time>2026-04-27T07:40:43.271Z</time></trkpt><trkpt lat="39.4574983" lon="16.0875083"><ele>1114.6666666666667</ele><time>2026-04-27T07:40:44.255Z</time></trkpt><trkpt lat="39.4574767" lon="16.0876183"><ele>1114.0</ele><time>2026-04-27T07:40:45.258Z</time></trkpt><trkpt lat="39.4574633" lon="16.087735"><ele>1113.3333333333335</ele><time>2026-04-27T07:40:46.255Z</time></trkpt><trkpt lat="39.45744" lon="16.08786"><ele>1112.6666666666667</ele><time>2026-04-27T07:40:47.256Z</time></trkpt><trkpt lat="39.4573917" lon="16.087945"><ele>1112.0</ele><time>2026-04-27T07:40:48.26Z</time></trkpt><trkpt lat="39.457335" lon="16.0880083"><ele>1112.0</ele><time>2026-04-27T07:40:49.268Z</time></trkpt><trkpt lat="39.45727" lon="16.0880733"><ele>1112.0</ele><time>2026-04-27T07:40:50.25Z</time></trkpt><trkpt lat="39.4572017" lon="16.08815"><ele>1112.0</ele><time>2026-04-27T07:40:51.258Z</time></trkpt><trkpt lat="39.4571217" lon="16.0881983"><ele>1112.0</ele><time>2026-04-27T07:40:52.25Z</time></trkpt><trkpt lat="39.45705" lon="16.0882283"><ele>1112.0</ele><time>2026-04-27T07:40:53.261Z</time></trkpt><trkpt lat="39.4569833" lon="16.088225"><ele>1112.0</ele><time>2026-04-27T07:40:54.254Z</time></trkpt><trkpt lat="39.4569183" lon="16.0882033"><ele>1114.1666666666667</ele><time>2026-04-27T07:40:55.286Z</time></trkpt><trkpt lat="39.4568483" lon="16.0881617"><ele>1116.3333333333335</ele><time>2026-04-27T07:40:56.258Z</time></trkpt><trkpt lat="39.4567717" lon="16.0881383"><ele>1118.5</ele><time>2026-04-27T07:40:57.251Z</time></trkpt><trkpt lat="39.4566833" lon="16.088145"><ele>1120.6666666666667</ele><time>2026-04-27T07:40:58.253Z</time></trkpt><trkpt lat="39.4565983" lon="16.088135"><ele>1122.8333333333333</ele><time>2026-04-27T07:40:59.257Z</time></trkpt><trkpt lat="39.4565033" lon="16.08814"><ele>1125.0</ele><time>2026-04-27T07:41:00.267Z</time></trkpt><trkpt lat="39.4564383" lon="16.0881467"><ele>1125.0</ele><time>2026-04-27T07:41:01.285Z</time></trkpt><trkpt lat="39.456355" lon="16.0881867"><ele>1125.0</ele><time>2026-04-27T07:41:03.257Z</time></trkpt><trkpt lat="39.456285" lon="16.0883417"><ele>1125.0</ele><time>2026-04-27T07:41:05.253Z</time></trkpt><trkpt lat="39.4562633" lon="16.0884367"><ele>1125.0</ele><time>2026-04-27T07:41:06.257Z</time></trkpt><trkpt lat="39.4562467" lon="16.0885567"><ele>1125.0</ele><time>2026-04-27T07:41:07.265Z</time></trkpt><trkpt lat="39.4562417" lon="16.0886383"><ele>1124.1666666666667</ele><time>2026-04-27T07:41:08.254Z</time></trkpt><trkpt lat="39.456245" lon="16.08872"><ele>1123.3333333333333</ele><time>2026-04-27T07:41:09.258Z</time></trkpt><trkpt lat="39.4562367" lon="16.0888333"><ele>1122.5</ele><time>2026-04-27T07:41:10.257Z</time></trkpt><trkpt lat="39.4562167" lon="16.0889467"><ele>1121.6666666666665</ele><time>2026-04-27T07:41:11.256Z</time></trkpt><trkpt lat="39.4561867" lon="16.0890717"><ele>1120.8333333333333</ele><time>2026-04-27T07:41:12.251Z</time></trkpt><trkpt lat="39.45615" lon="16.0891683"><ele>1120.0</ele><time>2026-04-27T07:41:13.271Z</time></trkpt><trkpt lat="39.4561133" lon="16.0892583"><ele>1118.0</ele><time>2026-04-27T07:41:14.257Z</time></trkpt><trkpt lat="39.4560533" lon="16.0893333"><ele>1116.0</ele><time>2026-04-27T07:41:15.251Z</time></trkpt><trkpt lat="39.4559817" lon="16.0893867"><ele>1114.0</ele><time>2026-04-27T07:41:16.25Z</time></trkpt><trkpt lat="39.4559233" lon="16.0894283"><ele>1112.0</ele><time>2026-04-27T07:41:17.254Z</time></trkpt><trkpt lat="39.455855" lon="16.08946"><ele>1110.0</ele><time>2026-04-27T07:41:18.25Z</time></trkpt><trkpt lat="39.4557867" lon="16.0894933"><ele>1108.0</ele><time>2026-04-27T07:41:19.269Z</time></trkpt><trkpt lat="39.4557067" lon="16.08952"><ele>1108.0</ele><time>2026-04-27T07:41:20.257Z</time></trkpt><trkpt lat="39.4556133" lon="16.08954"><ele>1108.0</ele><time>2026-04-27T07:41:21.255Z</time></trkpt><trkpt lat="39.4555083" lon="16.08954"><ele>1108.0</ele><time>2026-04-27T07:41:22.257Z</time></trkpt><trkpt lat="39.4554283" lon="16.089545"><ele>1108.0</ele><time>2026-04-27T07:41:23.258Z</time></trkpt><trkpt lat="39.455315" lon="16.08954"><ele>1108.0</ele><time>2026-04-27T07:41:25.288Z</time></trkpt><trkpt lat="39.45523" lon="16.0894467"><ele>1107.6</ele><time>2026-04-27T07:41:27.263Z</time></trkpt><trkpt lat="39.45521" lon="16.08936"><ele>1107.1999999999998</ele><time>2026-04-27T07:41:28.25Z</time></trkpt><trkpt lat="39.4551967" lon="16.089245"><ele>1106.8</ele><time>2026-04-27T07:41:29.257Z</time></trkpt><trkpt lat="39.4551833" lon="16.0891133"><ele>1106.3999999999999</ele><time>2026-04-27T07:41:30.254Z</time></trkpt><trkpt lat="39.4551483" lon="16.089"><ele>1106.0</ele><time>2026-04-27T07:41:31.287Z</time></trkpt><trkpt lat="39.4550983" lon="16.0888933"><ele>1107.1666666666667</ele><time>2026-04-27T07:41:32.249Z</time></trkpt><trkpt lat="39.45505" lon="16.0887817"><ele>1108.3333333333335</ele><time>2026-04-27T07:41:33.258Z</time></trkpt><trkpt lat="39.4550067" lon="16.0886983"><ele>1109.5</ele><time>2026-04-27T07:41:34.254Z</time></trkpt><trkpt lat="39.4549617" lon="16.0886033"><ele>1110.6666666666667</ele><time>2026-04-27T07:41:35.256Z</time></trkpt><trkpt lat="39.4549183" lon="16.0885267"><ele>1111.8333333333333</ele><time>2026-04-27T07:41:36.254Z</time></trkpt><trkpt lat="39.454865" lon="16.0884167"><ele>1113.0</ele><time>2026-04-27T07:41:38.25Z</time></trkpt><trkpt lat="39.4548133" lon="16.0882983"><ele>1115.2</ele><time>2026-04-27T07:41:40.256Z</time></trkpt><trkpt lat="39.4547467" lon="16.088235"><ele>1117.4</ele><time>2026-04-27T07:41:41.259Z</time></trkpt><trkpt lat="39.45468" lon="16.088185"><ele>1119.6000000000001</ele><time>2026-04-27T07:41:42.254Z</time></trkpt><trkpt lat="39.4545733" lon="16.088085"><ele>1121.8</ele><time>2026-04-27T07:41:44.252Z</time></trkpt><trkpt lat="39.4545067" lon="16.0880117"><ele>1124.0</ele><time>2026-04-27T07:41:45.259Z</time></trkpt><trkpt lat="39.4544583" lon="16.087915"><ele>1119.4</ele><time>2026-04-27T07:41:46.256Z</time></trkpt><trkpt lat="39.45441" lon="16.0878217"><ele>1114.8000000000002</ele><time>2026-04-27T07:41:47.252Z</time></trkpt><trkpt lat="39.4543833" lon="16.0877467"><ele>1110.1999999999998</ele><time>2026-04-27T07:41:48.25Z</time></trkpt><trkpt lat="39.4543383" lon="16.0876317"><ele>1105.6</ele><time>2026-04-27T07:41:50.256Z</time></trkpt><trkpt lat="39.454235" lon="16.087505"><ele>1101.0</ele><time>2026-04-27T07:41:52.256Z</time></trkpt><trkpt lat="39.45416" lon="16.087395"><ele>1101.0</ele><time>2026-04-27T07:41:54.257Z</time></trkpt><trkpt lat="39.4540667" lon="16.0872817"><ele>1101.0</ele><time>2026-04-27T07:41:56.251Z</time></trkpt><trkpt lat="39.4539917" lon="16.087175"><ele>1101.0</ele><time>2026-04-27T07:41:58.254Z</time></trkpt><trkpt lat="39.4539317" lon="16.0870683"><ele>1101.0</ele><time>2026-04-27T07:42:00.247Z</time></trkpt><trkpt lat="39.4538617" lon="16.0869567"><ele>1095.0</ele><time>2026-04-27T07:42:02.246Z</time></trkpt><trkpt lat="39.4537717" lon="16.08687"><ele>1089.0</ele><time>2026-04-27T07:42:04.251Z</time></trkpt><trkpt lat="39.453685" lon="16.0868167"><ele>1083.0</ele><time>2026-04-27T07:42:06.256Z</time></trkpt><trkpt lat="39.4536217" lon="16.0868167"><ele>1077.0</ele><time>2026-04-27T07:42:08.255Z</time></trkpt><trkpt lat="39.45363" lon="16.0869133"><ele>1071.0</ele><time>2026-04-27T07:42:09.255Z</time></trkpt><trkpt lat="39.4536267" lon="16.0870267"><ele>1065.0</ele><time>2026-04-27T07:42:11.254Z</time></trkpt><trkpt lat="39.4536667" lon="16.0871217"><ele>1065.0</ele><time>2026-04-27T07:42:13.27Z</time></trkpt><trkpt lat="39.4536983" lon="16.0872133"><ele>1065.0</ele><time>2026-04-27T07:42:15.255Z</time></trkpt><trkpt lat="39.4536583" lon="16.0872933"><ele>1065.0</ele><time>2026-04-27T07:42:18.258Z</time></trkpt><trkpt lat="39.45359" lon="16.0872633"><ele>1065.0</ele><time>2026-04-27T07:42:20.255Z</time></trkpt><trkpt lat="39.4535183" lon="16.0872233"><ele>1065.0</ele><time>2026-04-27T07:42:22.254Z</time></trkpt><trkpt lat="39.4534367" lon="16.0871517"><ele>1065.0</ele><time>2026-04-27T07:42:24.254Z</time></trkpt><trkpt lat="39.4533417" lon="16.08709"><ele>1065.0</ele><time>2026-04-27T07:42:26.255Z</time></trkpt><trkpt lat="39.45323" lon="16.0870617"><ele>1065.0</ele><time>2026-04-27T07:42:28.256Z</time></trkpt><trkpt lat="39.4531483" lon="16.087"><ele>1065.0</ele><time>2026-04-27T07:42:30.257Z</time></trkpt><trkpt lat="39.4531167" lon="16.08691"><ele>1065.0</ele><time>2026-04-27T07:42:32.255Z</time></trkpt><trkpt lat="39.4531133" lon="16.0867933"><ele>1065.0</ele><time>2026-04-27T07:42:34.263Z</time></trkpt><trkpt lat="39.4531167" lon="16.086665"><ele>1067.1666666666667</ele><time>2026-04-27T07:42:36.257Z</time></trkpt><trkpt lat="39.4531367" lon="16.0865533"><ele>1069.3333333333333</ele><time>2026-04-27T07:42:38.253Z</time></trkpt><trkpt lat="39.4531383" lon="16.0864433"><ele>1071.5</ele><time>2026-04-27T07:42:40.256Z</time></trkpt><trkpt lat="39.4531067" lon="16.0863367"><ele>1073.6666666666665</ele><time>2026-04-27T07:42:43.268Z</time></trkpt><trkpt lat="39.45304" lon="16.0862533"><ele>1075.8333333333333</ele><time>2026-04-27T07:42:45.258Z</time></trkpt><trkpt lat="39.4529467" lon="16.0862733"><ele>1078.0</ele><time>2026-04-27T07:42:47.26Z</time></trkpt><trkpt lat="39.4528817" lon="16.0862083"><ele>1073.4</ele><time>2026-04-27T07:42:49.268Z</time></trkpt><trkpt lat="39.4528433" lon="16.0860833"><ele>1068.8</ele><time>2026-04-27T07:42:52.253Z</time></trkpt><trkpt lat="39.452855" lon="16.085935"><ele>1064.2</ele><time>2026-04-27T07:42:54.257Z</time></trkpt><trkpt lat="39.45285" lon="16.0857933"><ele>1059.6</ele><time>2026-04-27T07:42:56.257Z</time></trkpt><trkpt lat="39.4528333" lon="16.0857133"><ele>1055.0</ele><time>2026-04-27T07:42:57.246Z</time></trkpt><trkpt lat="39.45279" lon="16.0856467"><ele>1055.0</ele><time>2026-04-27T07:42:58.26Z</time></trkpt><trkpt lat="39.452735" lon="16.0855933"><ele>1055.0</ele><time>2026-04-27T07:42:59.264Z</time></trkpt><trkpt lat="39.4526767" lon="16.08547"><ele>1055.0</ele><time>2026-04-27T07:43:01.278Z</time></trkpt><trkpt lat="39.452675" lon="16.085355"><ele>1055.0</ele><time>2026-04-27T07:43:03.258Z</time></trkpt><trkpt lat="39.4526733" lon="16.0852567"><ele>1055.0</ele><time>2026-04-27T07:43:05.259Z</time></trkpt><trkpt lat="39.452595" lon="16.0851717"><ele>1055.0</ele><time>2026-04-27T07:43:11.259Z</time></trkpt><trkpt lat="39.4525233" lon="16.08517"><ele>1055.0</ele><time>2026-04-27T07:43:12.256Z</time></trkpt><trkpt lat="39.4524383" lon="16.0851583"><ele>1055.0</ele><time>2026-04-27T07:43:13.266Z</time></trkpt><trkpt lat="39.4523717" lon="16.0851333"><ele>1055.0</ele><time>2026-04-27T07:43:14.249Z</time></trkpt><trkpt lat="39.452305" lon="16.0850917"><ele>1055.0</ele><time>2026-04-27T07:43:15.261Z</time></trkpt><trkpt lat="39.4522417" lon="16.085035"><ele>1055.0</ele><time>2026-04-27T07:43:16.26Z</time></trkpt><trkpt lat="39.452195" lon="16.0849467"><ele>1055.0</ele><time>2026-04-27T07:43:17.257Z</time></trkpt><trkpt lat="39.4521483" lon="16.08485"><ele>1049.2</ele><time>2026-04-27T07:43:18.26Z</time></trkpt><trkpt lat="39.4521033" lon="16.084755"><ele>1043.4</ele><time>2026-04-27T07:43:19.265Z</time></trkpt><trkpt lat="39.452065" lon="16.0846817"><ele>1037.6</ele><time>2026-04-27T07:43:20.255Z</time></trkpt><trkpt lat="39.452045" lon="16.0845767"><ele>1031.8</ele><time>2026-04-27T07:43:21.258Z</time></trkpt><trkpt lat="39.452005" lon="16.0844383"><ele>1026.0</ele><time>2026-04-27T07:43:23.259Z</time></trkpt><trkpt lat="39.4519383" lon="16.0842917"><ele>1026.0</ele><time>2026-04-27T07:43:25.277Z</time></trkpt><trkpt lat="39.4519133" lon="16.084195"><ele>1026.0</ele><time>2026-04-27T07:43:26.258Z</time></trkpt><trkpt lat="39.451905" lon="16.08409"><ele>1026.0</ele><time>2026-04-27T07:43:27.259Z</time></trkpt><trkpt lat="39.4519067" lon="16.083995"><ele>1026.0</ele><time>2026-04-27T07:43:28.258Z</time></trkpt><trkpt lat="39.45193" lon="16.0838883"><ele>1026.0</ele><time>2026-04-27T07:43:29.256Z</time></trkpt><trkpt lat="39.4519233" lon="16.0837867"><ele>1026.0</ele><time>2026-04-27T07:43:30.252Z</time></trkpt><trkpt lat="39.4519217" lon="16.0836967"><ele>1026.6666666666667</ele><time>2026-04-27T07:43:31.287Z</time></trkpt><trkpt lat="39.4519233" lon="16.083605"><ele>1027.3333333333333</ele><time>2026-04-27T07:43:32.253Z</time></trkpt><trkpt lat="39.451935" lon="16.083515"><ele>1028.0</ele><time>2026-04-27T07:43:33.259Z</time></trkpt><trkpt lat="39.4519333" lon="16.0834033"><ele>1028.6666666666665</ele><time>2026-04-27T07:43:34.256Z</time></trkpt><trkpt lat="39.45193" lon="16.0832933"><ele>1029.3333333333333</ele><time>2026-04-27T07:43:35.254Z</time></trkpt><trkpt lat="39.4519083" lon="16.0831917"><ele>1030.0</ele><time>2026-04-27T07:43:36.252Z</time></trkpt><trkpt lat="39.4518867" lon="16.083085"><ele>1030.8333333333333</ele><time>2026-04-27T07:43:37.267Z</time></trkpt><trkpt lat="39.4518767" lon="16.0829817"><ele>1031.6666666666665</ele><time>2026-04-27T07:43:38.258Z</time></trkpt><trkpt lat="39.4518633" lon="16.08286"><ele>1032.5</ele><time>2026-04-27T07:43:39.261Z</time></trkpt><trkpt lat="39.4518467" lon="16.0827383"><ele>1033.3333333333333</ele><time>2026-04-27T07:43:40.255Z</time></trkpt><trkpt lat="39.451845" lon="16.0826317"><ele>1034.1666666666667</ele><time>2026-04-27T07:43:41.259Z</time></trkpt><trkpt lat="39.451835" lon="16.0825133"><ele>1035.0</ele><time>2026-04-27T07:43:42.255Z</time></trkpt><trkpt lat="39.45184" lon="16.08242"><ele>1036.6</ele><time>2026-04-27T07:43:43.268Z</time></trkpt><trkpt lat="39.4518417" lon="16.0823117"><ele>1038.2</ele><time>2026-04-27T07:43:44.256Z</time></trkpt><trkpt lat="39.4518617" lon="16.0822167"><ele>1039.8</ele><time>2026-04-27T07:43:45.253Z</time></trkpt><trkpt lat="39.4518717" lon="16.0821083"><ele>1041.4</ele><time>2026-04-27T07:43:46.253Z</time></trkpt><trkpt lat="39.4518783" lon="16.082005"><ele>1043.0</ele><time>2026-04-27T07:43:47.255Z</time></trkpt><trkpt lat="39.4519967" lon="16.0819333"><ele>1043.0</ele><time>2026-04-27T07:43:48.253Z</time></trkpt><trkpt lat="39.45207" lon="16.0818383"><ele>1043.0</ele><time>2026-04-27T07:43:49.264Z</time></trkpt><trkpt lat="39.4519683" lon="16.0818017"><ele>1043.0</ele><time>2026-04-27T07:43:54.255Z</time></trkpt><trkpt lat="39.4519017" lon="16.081835"><ele>1043.0</ele><time>2026-04-27T07:43:55.286Z</time></trkpt><trkpt lat="39.4518167" lon="16.0818733"><ele>1043.0</ele><time>2026-04-27T07:43:57.255Z</time></trkpt><trkpt lat="39.4516817" lon="16.0818617"><ele>1043.0</ele><time>2026-04-27T07:43:59.261Z</time></trkpt><trkpt lat="39.45162" lon="16.0818333"><ele>1043.0</ele><time>2026-04-27T07:44:00.257Z</time></trkpt><trkpt lat="39.4515483" lon="16.0817317"><ele>1043.0</ele><time>2026-04-27T07:44:02.252Z</time></trkpt><trkpt lat="39.4515033" lon="16.0816333"><ele>1043.0</ele><time>2026-04-27T07:44:04.261Z</time></trkpt><trkpt lat="39.4514883" lon="16.0814767"><ele>1043.0</ele><time>2026-04-27T07:44:05.255Z</time></trkpt><trkpt lat="39.4514717" lon="16.08131"><ele>1044.8</ele><time>2026-04-27T07:44:06.249Z</time></trkpt><trkpt lat="39.4514617" lon="16.081135"><ele>1046.6</ele><time>2026-04-27T07:44:07.27Z</time></trkpt><trkpt lat="39.451445" lon="16.0810183"><ele>1048.4</ele><time>2026-04-27T07:44:08.251Z</time></trkpt><trkpt lat="39.45141" lon="16.0808933"><ele>1050.2</ele><time>2026-04-27T07:44:09.258Z</time></trkpt><trkpt lat="39.4513667" lon="16.080765"><ele>1052.0</ele><time>2026-04-27T07:44:10.252Z</time></trkpt><trkpt lat="39.451335" lon="16.0806533"><ele>1047.25</ele><time>2026-04-27T07:44:11.259Z</time></trkpt><trkpt lat="39.4512" lon="16.08049"><ele>1042.5</ele><time>2026-04-27T07:44:12.252Z</time></trkpt><trkpt lat="39.4511217" lon="16.08037"><ele>1037.75</ele><time>2026-04-27T07:44:13.27Z</time></trkpt><trkpt lat="39.4510917" lon="16.0802833"><ele>1033.0</ele><time>2026-04-27T07:44:14.252Z</time></trkpt><trkpt lat="39.4510683" lon="16.080185"><ele>1033.0</ele><time>2026-04-27T07:44:16.251Z</time></trkpt><trkpt lat="39.45114" lon="16.0801117"><ele>1033.0</ele><time>2026-04-27T07:44:19.264Z</time></trkpt><trkpt lat="39.451155" lon="16.0799717"><ele>1033.0</ele><time>2026-04-27T07:44:21.252Z</time></trkpt><trkpt lat="39.4511217" lon="16.079835"><ele>1033.0</ele><time>2026-04-27T07:44:23.251Z</time></trkpt><trkpt lat="39.4511633" lon="16.0796683"><ele>1033.0</ele><time>2026-04-27T07:44:34.252Z</time></trkpt><trkpt lat="39.451165" lon="16.0797683"><ele>1033.0</ele><time>2026-04-27T07:44:36.255Z</time></trkpt><trkpt lat="39.4511033" lon="16.0798933"><ele>1033.0</ele><time>2026-04-27T07:44:38.256Z</time></trkpt><trkpt lat="39.4510333" lon="16.080035"><ele>1033.0</ele><time>2026-04-27T07:44:40.247Z</time></trkpt><trkpt lat="39.4510033" lon="16.0801267"><ele>1033.0</ele><time>2026-04-27T07:44:41.255Z</time></trkpt><trkpt lat="39.4509633" lon="16.0802417"><ele>1033.0</ele><time>2026-04-27T07:44:42.26Z</time></trkpt><trkpt lat="39.45092" lon="16.0803467"><ele>1033.0</ele><time>2026-04-27T07:44:43.275Z</time></trkpt><trkpt lat="39.4508817" lon="16.0804567"><ele>1033.0</ele><time>2026-04-27T07:44:44.25Z</time></trkpt><trkpt lat="39.4508383" lon="16.0805467"><ele>1033.0</ele><time>2026-04-27T07:44:45.26Z</time></trkpt><trkpt lat="39.4507717" lon="16.0807017"><ele>1033.0</ele><time>2026-04-27T07:44:47.258Z</time></trkpt><trkpt lat="39.45074" lon="16.08078"><ele>1033.0</ele><time>2026-04-27T07:44:48.262Z</time></trkpt><trkpt lat="39.450675" lon="16.0809167"><ele>1032.5</ele><time>2026-04-27T07:44:50.252Z</time></trkpt><trkpt lat="39.4506133" lon="16.081"><ele>1032.0</ele><time>2026-04-27T07:44:52.257Z</time></trkpt><trkpt lat="39.45054" lon="16.0809783"><ele>1031.5</ele><time>2026-04-27T07:44:58.25Z</time></trkpt><trkpt lat="39.4504583" lon="16.0809933"><ele>1031.0</ele><time>2026-04-27T07:45:01.283Z</time></trkpt><trkpt lat="39.45032" lon="16.0812117"><ele>1031.0</ele><time>2026-04-27T07:45:03.255Z</time></trkpt><trkpt lat="39.450275" lon="16.0813033"><ele>1031.0</ele><time>2026-04-27T07:45:04.255Z</time></trkpt><trkpt lat="39.4502317" lon="16.0813883"><ele>1031.0</ele><time>2026-04-27T07:45:05.251Z</time></trkpt><trkpt lat="39.4501783" lon="16.0814533"><ele>1031.0</ele><time>2026-04-27T07:45:06.257Z</time></trkpt><trkpt lat="39.450095" lon="16.0815283"><ele>1031.0</ele><time>2026-04-27T07:45:08.254Z</time></trkpt><trkpt lat="39.4499933" lon="16.0815967"><ele>1031.6666666666667</ele><time>2026-04-27T07:45:10.253Z</time></trkpt><trkpt lat="39.4499267" lon="16.0816433"><ele>1032.3333333333335</ele><time>2026-04-27T07:45:11.26Z</time></trkpt><trkpt lat="39.4498433" lon="16.08169"><ele>1033.0</ele><time>2026-04-27T07:45:12.253Z</time></trkpt><trkpt lat="39.4497617" lon="16.081735"><ele>1033.6666666666667</ele><time>2026-04-27T07:45:13.268Z</time></trkpt><trkpt lat="39.4496717" lon="16.081775"><ele>1034.3333333333333</ele><time>2026-04-27T07:45:14.258Z</time></trkpt><trkpt lat="39.4495783" lon="16.08181"><ele>1035.0</ele><time>2026-04-27T07:45:15.261Z</time></trkpt><trkpt lat="39.4494617" lon="16.0818383"><ele>1035.0</ele><time>2026-04-27T07:45:16.257Z</time></trkpt><trkpt lat="39.4493483" lon="16.0818517"><ele>1035.0</ele><time>2026-04-27T07:45:17.263Z</time></trkpt><trkpt lat="39.4492467" lon="16.0818617"><ele>1035.0</ele><time>2026-04-27T07:45:18.259Z</time></trkpt><trkpt lat="39.449155" lon="16.0818717"><ele>1035.0</ele><time>2026-04-27T07:45:19.27Z</time></trkpt><trkpt lat="39.4490733" lon="16.0818817"><ele>1035.0</ele><time>2026-04-27T07:45:20.252Z</time></trkpt><trkpt lat="39.4489717" lon="16.0819017"><ele>1035.0</ele><time>2026-04-27T07:45:22.256Z</time></trkpt><trkpt lat="39.448975" lon="16.0819833"><ele>1035.0</ele><time>2026-04-27T07:45:25.329Z</time></trkpt><trkpt lat="39.44903" lon="16.08207"><ele>1035.0</ele><time>2026-04-27T07:45:27.257Z</time></trkpt><trkpt lat="39.449115" lon="16.0821533"><ele>1035.0</ele><time>2026-04-27T07:45:29.26Z</time></trkpt><trkpt lat="39.4492517" lon="16.082215"><ele>1035.0</ele><time>2026-04-27T07:45:30.257Z</time></trkpt><trkpt lat="39.4493367" lon="16.0822833"><ele>1035.0</ele><time>2026-04-27T07:45:31.283Z</time></trkpt><trkpt lat="39.4493967" lon="16.082375"><ele>1035.0</ele><time>2026-04-27T07:45:32.254Z</time></trkpt><trkpt lat="39.449435" lon="16.0824767"><ele>1035.0</ele><time>2026-04-27T07:45:33.258Z</time></trkpt><trkpt lat="39.4494667" lon="16.0825833"><ele>1035.0</ele><time>2026-04-27T07:45:34.252Z</time></trkpt><trkpt lat="39.4494867" lon="16.0827"><ele>1035.0</ele><time>2026-04-27T07:45:35.251Z</time></trkpt><trkpt lat="39.44951" lon="16.0828233"><ele>1034.5</ele><time>2026-04-27T07:45:36.259Z</time></trkpt><trkpt lat="39.4495267" lon="16.0829617"><ele>1034.0</ele><time>2026-04-27T07:45:37.266Z</time></trkpt><trkpt lat="39.4495483" lon="16.0830883"><ele>1033.5</ele><time>2026-04-27T07:45:38.25Z</time></trkpt><trkpt lat="39.4495517" lon="16.0832467"><ele>1033.0</ele><time>2026-04-27T07:45:39.254Z</time></trkpt><trkpt lat="39.4495217" lon="16.0834533"><ele>1035.0</ele><time>2026-04-27T07:45:40.257Z</time></trkpt><trkpt lat="39.449505" lon="16.0836333"><ele>1037.0</ele><time>2026-04-27T07:45:41.26Z</time></trkpt><trkpt lat="39.4494917" lon="16.0838"><ele>1039.0</ele><time>2026-04-27T07:45:42.253Z</time></trkpt><trkpt lat="39.44949" lon="16.083935"><ele>1041.0</ele><time>2026-04-27T07:45:43.276Z</time></trkpt><trkpt lat="39.4494783" lon="16.0840517"><ele>1041.6</ele><time>2026-04-27T07:45:44.255Z</time></trkpt><trkpt lat="39.4494617" lon="16.0841667"><ele>1042.1999999999998</ele><time>2026-04-27T07:45:45.256Z</time></trkpt><trkpt lat="39.4494517" lon="16.084305"><ele>1042.8000000000002</ele><time>2026-04-27T07:45:47.262Z</time></trkpt><trkpt lat="39.4494567" lon="16.0844333"><ele>1043.4</ele><time>2026-04-27T07:45:48.256Z</time></trkpt><trkpt lat="39.4494617" lon="16.0845533"><ele>1044.0</ele><time>2026-04-27T07:45:49.275Z</time></trkpt><trkpt lat="39.4494533" lon="16.0846883"><ele>1044.0</ele><time>2026-04-27T07:45:50.258Z</time></trkpt><trkpt lat="39.449455" lon="16.0847983"><ele>1044.0</ele><time>2026-04-27T07:45:51.26Z</time></trkpt><trkpt lat="39.44945" lon="16.084915"><ele>1044.0</ele><time>2026-04-27T07:45:52.257Z</time></trkpt><trkpt lat="39.449445" lon="16.085015"><ele>1044.0</ele><time>2026-04-27T07:45:53.26Z</time></trkpt><trkpt lat="39.4494417" lon="16.0851183"><ele>1044.0</ele><time>2026-04-27T07:45:54.256Z</time></trkpt><trkpt lat="39.44944" lon="16.08521"><ele>1044.0</ele><time>2026-04-27T07:45:55.275Z</time></trkpt><trkpt lat="39.4494333" lon="16.0852983"><ele>1043.857142857143</ele><time>2026-04-27T07:45:56.259Z</time></trkpt><trkpt lat="39.4494217" lon="16.0853967"><ele>1043.7142857142858</ele><time>2026-04-27T07:45:57.259Z</time></trkpt><trkpt lat="39.44941" lon="16.0855067"><ele>1043.5714285714284</ele><time>2026-04-27T07:45:58.252Z</time></trkpt><trkpt lat="39.4493967" lon="16.085595"><ele>1043.4285714285716</ele><time>2026-04-27T07:45:59.259Z</time></trkpt><trkpt lat="39.44939" lon="16.08568"><ele>1043.2857142857142</ele><time>2026-04-27T07:46:00.259Z</time></trkpt><trkpt lat="39.44937" lon="16.0857683"><ele>1043.142857142857</ele><time>2026-04-27T07:46:01.257Z</time></trkpt><trkpt lat="39.449345" lon="16.0858617"><ele>1043.0</ele><time>2026-04-27T07:46:02.253Z</time></trkpt><trkpt lat="39.4493117" lon="16.0859633"><ele>1041.0</ele><time>2026-04-27T07:46:03.256Z</time></trkpt><trkpt lat="39.4492783" lon="16.0860667"><ele>1039.0</ele><time>2026-04-27T07:46:04.255Z</time></trkpt><trkpt lat="39.4492317" lon="16.086175"><ele>1037.0</ele><time>2026-04-27T07:46:05.257Z</time></trkpt><trkpt lat="39.4491867" lon="16.0862683"><ele>1035.0</ele><time>2026-04-27T07:46:06.256Z</time></trkpt><trkpt lat="39.449125" lon="16.0863567"><ele>1033.0</ele><time>2026-04-27T07:46:07.268Z</time></trkpt><trkpt lat="39.4490567" lon="16.0864317"><ele>1031.0</ele><time>2026-04-27T07:46:08.257Z</time></trkpt><trkpt lat="39.4489783" lon="16.0864933"><ele>1031.0</ele><time>2026-04-27T07:46:09.261Z</time></trkpt><trkpt lat="39.4488733" lon="16.0865283"><ele>1031.0</ele><time>2026-04-27T07:46:10.254Z</time></trkpt><trkpt lat="39.4487767" lon="16.0865833"><ele>1031.0</ele><time>2026-04-27T07:46:11.26Z</time></trkpt><trkpt lat="39.4486833" lon="16.0866467"><ele>1031.0</ele><time>2026-04-27T07:46:12.256Z</time></trkpt><trkpt lat="39.4485967" lon="16.086725"><ele>1031.0</ele><time>2026-04-27T07:46:13.272Z</time></trkpt><trkpt lat="39.448515" lon="16.0868133"><ele>1030.8333333333335</ele><time>2026-04-27T07:46:14.253Z</time></trkpt><trkpt lat="39.4484383" lon="16.0868933"><ele>1030.6666666666667</ele><time>2026-04-27T07:46:15.256Z</time></trkpt><trkpt lat="39.44837" lon="16.08695"><ele>1030.5</ele><time>2026-04-27T07:46:16.257Z</time></trkpt><trkpt lat="39.448305" lon="16.0869967"><ele>1030.3333333333333</ele><time>2026-04-27T07:46:17.263Z</time></trkpt><trkpt lat="39.44825" lon="16.0870467"><ele>1030.1666666666665</ele><time>2026-04-27T07:46:18.26Z</time></trkpt><trkpt lat="39.4481567" lon="16.0871483"><ele>1030.0</ele><time>2026-04-27T07:46:20.253Z</time></trkpt><trkpt lat="39.4481083" lon="16.0872233"><ele>1030.0</ele><time>2026-04-27T07:46:21.26Z</time></trkpt><trkpt lat="39.4480583" lon="16.0872883"><ele>1030.0</ele><time>2026-04-27T07:46:22.254Z</time></trkpt><trkpt lat="39.4480067" lon="16.087335"><ele>1030.0</ele><time>2026-04-27T07:46:23.258Z</time></trkpt><trkpt lat="39.4479" lon="16.087415"><ele>1030.0</ele><time>2026-04-27T07:46:25.323Z</time></trkpt><trkpt lat="39.4478417" lon="16.08745"><ele>1030.0</ele><time>2026-04-27T07:46:26.249Z</time></trkpt><trkpt lat="39.4477467" lon="16.0874783"><ele>1030.0</ele><time>2026-04-27T07:46:28.262Z</time></trkpt><trkpt lat="39.4476783" lon="16.0874767"><ele>1030.5</ele><time>2026-04-27T07:46:30.252Z</time></trkpt><trkpt lat="39.4476083" lon="16.0876117"><ele>1031.0</ele><time>2026-04-27T07:46:32.26Z</time></trkpt><trkpt lat="39.4475667" lon="16.0876767"><ele>1031.5</ele><time>2026-04-27T07:46:33.257Z</time></trkpt><trkpt lat="39.4475167" lon="16.0877483"><ele>1032.0</ele><time>2026-04-27T07:46:34.255Z</time></trkpt><trkpt lat="39.4474567" lon="16.0877967"><ele>1032.5</ele><time>2026-04-27T07:46:35.257Z</time></trkpt><trkpt lat="39.4473917" lon="16.087855"><ele>1033.0</ele><time>2026-04-27T07:46:36.258Z</time></trkpt><trkpt lat="39.4472933" lon="16.0879083"><ele>1033.0</ele><time>2026-04-27T07:46:37.265Z</time></trkpt><trkpt lat="39.44722" lon="16.08795"><ele>1033.0</ele><time>2026-04-27T07:46:38.25Z</time></trkpt><trkpt lat="39.44711" lon="16.0880367"><ele>1033.0</ele><time>2026-04-27T07:46:40.253Z</time></trkpt><trkpt lat="39.4470567" lon="16.0881083"><ele>1033.0</ele><time>2026-04-27T07:46:42.256Z</time></trkpt><trkpt lat="39.44701" lon="16.0882167"><ele>1033.0</ele><time>2026-04-27T07:46:44.252Z</time></trkpt><trkpt lat="39.4469667" lon="16.0883583"><ele>1037.4</ele><time>2026-04-27T07:46:46.249Z</time></trkpt><trkpt lat="39.4469717" lon="16.0884917"><ele>1041.8</ele><time>2026-04-27T07:46:48.257Z</time></trkpt><trkpt lat="39.4469783" lon="16.0886417"><ele>1046.2</ele><time>2026-04-27T07:46:50.259Z</time></trkpt><trkpt lat="39.4469883" lon="16.0887367"><ele>1050.6</ele><time>2026-04-27T07:46:51.263Z</time></trkpt><trkpt lat="39.4470117" lon="16.0888433"><ele>1055.0</ele><time>2026-04-27T07:46:52.254Z</time></trkpt><trkpt lat="39.4470267" lon="16.088945"><ele>1055.0</ele><time>2026-04-27T07:46:53.257Z</time></trkpt><trkpt lat="39.44704" lon="16.0890433"><ele>1055.0</ele><time>2026-04-27T07:46:54.252Z</time></trkpt><trkpt lat="39.4470633" lon="16.089145"><ele>1055.0</ele><time>2026-04-27T07:46:55.323Z</time></trkpt><trkpt lat="39.4470883" lon="16.0892617"><ele>1055.0</ele><time>2026-04-27T07:46:56.256Z</time></trkpt><trkpt lat="39.4470983" lon="16.0894033"><ele>1055.0</ele><time>2026-04-27T07:46:57.258Z</time></trkpt><trkpt lat="39.4471033" lon="16.08954"><ele>1055.0</ele><time>2026-04-27T07:46:58.257Z</time></trkpt><trkpt lat="39.44711" lon="16.0896867"><ele>1055.0</ele><time>2026-04-27T07:46:59.26Z</time></trkpt><trkpt lat="39.44711" lon="16.0898217"><ele>1055.0</ele><time>2026-04-27T07:47:00.255Z</time></trkpt><trkpt lat="39.4470417" lon="16.0899683"><ele>1055.0</ele><time>2026-04-27T07:47:01.283Z</time></trkpt><trkpt lat="39.4470033" lon="16.0900983"><ele>1054.0</ele><time>2026-04-27T07:47:02.254Z</time></trkpt><trkpt lat="39.446955" lon="16.0902183"><ele>1053.0</ele><time>2026-04-27T07:47:03.258Z</time></trkpt><trkpt lat="39.4469133" lon="16.0903417"><ele>1052.0</ele><time>2026-04-27T07:47:04.255Z</time></trkpt><trkpt lat="39.4468833" lon="16.0904467"><ele>1051.0</ele><time>2026-04-27T07:47:05.26Z</time></trkpt><trkpt lat="39.44682" lon="16.0905383"><ele>1050.0</ele><time>2026-04-27T07:47:06.264Z</time></trkpt><trkpt lat="39.4467533" lon="16.0906233"><ele>1050.0</ele><time>2026-04-27T07:47:07.269Z</time></trkpt><trkpt lat="39.446645" lon="16.09068"><ele>1050.0</ele><time>2026-04-27T07:47:08.258Z</time></trkpt><trkpt lat="39.4465417" lon="16.0907317"><ele>1050.0</ele><time>2026-04-27T07:47:09.257Z</time></trkpt><trkpt lat="39.44645" lon="16.090785"><ele>1050.0</ele><time>2026-04-27T07:47:10.253Z</time></trkpt><trkpt lat="39.4463383" lon="16.0908383"><ele>1050.0</ele><time>2026-04-27T07:47:11.264Z</time></trkpt><trkpt lat="39.4462" lon="16.0908817"><ele>1050.6</ele><time>2026-04-27T07:47:12.254Z</time></trkpt><trkpt lat="39.44609" lon="16.0909533"><ele>1051.2</ele><time>2026-04-27T07:47:13.266Z</time></trkpt><trkpt lat="39.446" lon="16.09102"><ele>1051.8</ele><time>2026-04-27T07:47:14.249Z</time></trkpt><trkpt lat="39.4459167" lon="16.09109"><ele>1052.4</ele><time>2026-04-27T07:47:15.259Z</time></trkpt><trkpt lat="39.445825" lon="16.0911517"><ele>1053.0</ele><time>2026-04-27T07:47:16.255Z</time></trkpt><trkpt lat="39.4457333" lon="16.0912017"><ele>1053.0</ele><time>2026-04-27T07:47:17.259Z</time></trkpt><trkpt lat="39.4456467" lon="16.0912417"><ele>1053.0</ele><time>2026-04-27T07:47:18.254Z</time></trkpt><trkpt lat="39.445575" lon="16.0912717"><ele>1053.0</ele><time>2026-04-27T07:47:19.269Z</time></trkpt><trkpt lat="39.4455067" lon="16.0913083"><ele>1053.0</ele><time>2026-04-27T07:47:20.258Z</time></trkpt><trkpt lat="39.4454433" lon="16.0913583"><ele>1053.0</ele><time>2026-04-27T07:47:21.261Z</time></trkpt><trkpt lat="39.445375" lon="16.0914433"><ele>1053.0</ele><time>2026-04-27T07:47:22.257Z</time></trkpt><trkpt lat="39.4453167" lon="16.09152"><ele>1052.2</ele><time>2026-04-27T07:47:23.258Z</time></trkpt><trkpt lat="39.4452633" lon="16.09163"><ele>1051.4</ele><time>2026-04-27T07:47:24.265Z</time></trkpt><trkpt lat="39.445215" lon="16.0917283"><ele>1050.6000000000001</ele><time>2026-04-27T07:47:25.321Z</time></trkpt><trkpt lat="39.4451667" lon="16.0918433"><ele>1049.8</ele><time>2026-04-27T07:47:26.255Z</time></trkpt><trkpt lat="39.4451183" lon="16.091955"><ele>1049.0</ele><time>2026-04-27T07:47:27.248Z</time></trkpt><trkpt lat="39.4450617" lon="16.09208"><ele>1049.0</ele><time>2026-04-27T07:47:28.251Z</time></trkpt><trkpt lat="39.4450017" lon="16.0922117"><ele>1049.0</ele><time>2026-04-27T07:47:29.262Z</time></trkpt><trkpt lat="39.44493" lon="16.092345"><ele>1049.0</ele><time>2026-04-27T07:47:30.252Z</time></trkpt><trkpt lat="39.4448567" lon="16.0924783"><ele>1049.0</ele><time>2026-04-27T07:47:31.29Z</time></trkpt><trkpt lat="39.4447717" lon="16.0926217"><ele>1050.25</ele><time>2026-04-27T07:47:32.258Z</time></trkpt><trkpt lat="39.4446883" lon="16.0927683"><ele>1051.5</ele><time>2026-04-27T07:47:33.257Z</time></trkpt><trkpt lat="39.4446067" lon="16.0929167"><ele>1052.75</ele><time>2026-04-27T07:47:34.257Z</time></trkpt><trkpt lat="39.4445317" lon="16.0930633"><ele>1054.0</ele><time>2026-04-27T07:47:35.256Z</time></trkpt><trkpt lat="39.4444533" lon="16.0931917"><ele>1047.8</ele><time>2026-04-27T07:47:36.254Z</time></trkpt><trkpt lat="39.4444" lon="16.09326"><ele>1041.6000000000001</ele><time>2026-04-27T07:47:37.267Z</time></trkpt><trkpt lat="39.4443467" lon="16.09338"><ele>1035.4</ele><time>2026-04-27T07:47:38.248Z</time></trkpt><trkpt lat="39.4443" lon="16.0935017"><ele>1029.2</ele><time>2026-04-27T07:47:39.255Z</time></trkpt><trkpt lat="39.44426" lon="16.0935967"><ele>1023.0</ele><time>2026-04-27T07:47:40.257Z</time></trkpt><trkpt lat="39.4442333" lon="16.0936933"><ele>1023.0</ele><time>2026-04-27T07:47:41.261Z</time></trkpt><trkpt lat="39.4442067" lon="16.0938233"><ele>1023.0</ele><time>2026-04-27T07:47:42.257Z</time></trkpt><trkpt lat="39.444195" lon="16.0939417"><ele>1023.0</ele><time>2026-04-27T07:47:43.268Z</time></trkpt><trkpt lat="39.4442183" lon="16.0940783"><ele>1023.0</ele><time>2026-04-27T07:47:44.253Z</time></trkpt><trkpt lat="39.4442817" lon="16.0942433"><ele>1023.0</ele><time>2026-04-27T07:47:45.259Z</time></trkpt><trkpt lat="39.4443767" lon="16.09439"><ele>1018.0</ele><time>2026-04-27T07:47:46.248Z</time></trkpt><trkpt lat="39.444495" lon="16.0945067"><ele>1013.0</ele><time>2026-04-27T07:47:47.259Z</time></trkpt><trkpt lat="39.4445883" lon="16.0946317"><ele>1008.0</ele><time>2026-04-27T07:47:48.251Z</time></trkpt><trkpt lat="39.4446617" lon="16.094755"><ele>1003.0</ele><time>2026-04-27T07:47:49.265Z</time></trkpt><trkpt lat="39.44473" lon="16.0948567"><ele>996.8</ele><time>2026-04-27T07:47:50.248Z</time></trkpt><trkpt lat="39.4447967" lon="16.0949617"><ele>990.5999999999999</ele><time>2026-04-27T07:47:51.268Z</time></trkpt><trkpt lat="39.4448717" lon="16.0950183"><ele>984.4000000000001</ele><time>2026-04-27T07:47:52.248Z</time></trkpt><trkpt lat="39.44493" lon="16.095145"><ele>978.2</ele><time>2026-04-27T07:47:53.26Z</time></trkpt><trkpt lat="39.4449583" lon="16.095295"><ele>972.0</ele><time>2026-04-27T07:47:54.26Z</time></trkpt><trkpt lat="39.4449467" lon="16.0954717"><ele>972.0</ele><time>2026-04-27T07:47:55.257Z</time></trkpt><trkpt lat="39.444905" lon="16.09563"><ele>972.0</ele><time>2026-04-27T07:47:56.254Z</time></trkpt><trkpt lat="39.4448467" lon="16.0957533"><ele>972.0</ele><time>2026-04-27T07:47:57.262Z</time></trkpt><trkpt lat="39.444765" lon="16.09584"><ele>972.0</ele><time>2026-04-27T07:47:58.251Z</time></trkpt><trkpt lat="39.4446883" lon="16.09591"><ele>972.0</ele><time>2026-04-27T07:47:59.257Z</time></trkpt><trkpt lat="39.4446417" lon="16.095995"><ele>973.0</ele><time>2026-04-27T07:48:00.256Z</time></trkpt><trkpt lat="39.444605" lon="16.0960817"><ele>974.0</ele><time>2026-04-27T07:48:01.257Z</time></trkpt><trkpt lat="39.4445633" lon="16.0961617"><ele>975.0</ele><time>2026-04-27T07:48:02.252Z</time></trkpt><trkpt lat="39.4445167" lon="16.0962367"><ele>976.0</ele><time>2026-04-27T07:48:03.252Z</time></trkpt><trkpt lat="39.44446" lon="16.0962983"><ele>977.0</ele><time>2026-04-27T07:48:04.255Z</time></trkpt><trkpt lat="39.4443817" lon="16.096345"><ele>978.0</ele><time>2026-04-27T07:48:05.259Z</time></trkpt><trkpt lat="39.4442867" lon="16.0963767"><ele>978.0</ele><time>2026-04-27T07:48:06.254Z</time></trkpt><trkpt lat="39.4442083" lon="16.0964183"><ele>978.0</ele><time>2026-04-27T07:48:07.266Z</time></trkpt><trkpt lat="39.444155" lon="16.0964683"><ele>978.0</ele><time>2026-04-27T07:48:08.25Z</time></trkpt><trkpt lat="39.4440867" lon="16.0965883"><ele>978.0</ele><time>2026-04-27T07:48:10.256Z</time></trkpt><trkpt lat="39.4440433" lon="16.0967033"><ele>978.0</ele><time>2026-04-27T07:48:12.25Z</time></trkpt><trkpt lat="39.4439633" lon="16.0968117"><ele>980.0</ele><time>2026-04-27T07:48:14.256Z</time></trkpt><trkpt lat="39.4439433" lon="16.0968967"><ele>982.0</ele><time>2026-04-27T07:48:15.256Z</time></trkpt><trkpt lat="39.4439017" lon="16.097035"><ele>984.0</ele><time>2026-04-27T07:48:16.253Z</time></trkpt><trkpt lat="39.4438483" lon="16.0972"><ele>986.0</ele><time>2026-04-27T07:48:17.256Z</time></trkpt><trkpt lat="39.4437817" lon="16.097395"><ele>984.5</ele><time>2026-04-27T07:48:18.252Z</time></trkpt><trkpt lat="39.443725" lon="16.0975733"><ele>983.0</ele><time>2026-04-27T07:48:19.272Z</time></trkpt><trkpt lat="39.443665" lon="16.097735"><ele>981.5</ele><time>2026-04-27T07:48:20.253Z</time></trkpt><trkpt lat="39.4436067" lon="16.0978967"><ele>980.0</ele><time>2026-04-27T07:48:21.248Z</time></trkpt><trkpt lat="39.443575" lon="16.09808"><ele>977.6666666666667</ele><time>2026-04-27T07:48:22.254Z</time></trkpt><trkpt lat="39.4435583" lon="16.0982767"><ele>975.3333333333333</ele><time>2026-04-27T07:48:23.259Z</time></trkpt><trkpt lat="39.4435417" lon="16.098485"><ele>973.0</ele><time>2026-04-27T07:48:24.256Z</time></trkpt><trkpt lat="39.44351" lon="16.0986733"><ele>973.0</ele><time>2026-04-27T07:48:25.262Z</time></trkpt><trkpt lat="39.4434783" lon="16.0988383"><ele>973.0</ele><time>2026-04-27T07:48:26.259Z</time></trkpt><trkpt lat="39.4434317" lon="16.0989833"><ele>973.0</ele><time>2026-04-27T07:48:27.26Z</time></trkpt><trkpt lat="39.4433617" lon="16.0991417"><ele>973.0</ele><time>2026-04-27T07:48:28.25Z</time></trkpt><trkpt lat="39.443185" lon="16.099265"><ele>970.6666666666666</ele><time>2026-04-27T07:48:29.261Z</time></trkpt><trkpt lat="39.443035" lon="16.0993967"><ele>968.3333333333333</ele><time>2026-04-27T07:48:30.255Z</time></trkpt><trkpt lat="39.4428767" lon="16.0995183"><ele>966.0</ele><time>2026-04-27T07:48:31.266Z</time></trkpt><trkpt lat="39.4427233" lon="16.0996333"><ele>972.3333333333333</ele><time>2026-04-27T07:48:32.26Z</time></trkpt><trkpt lat="39.442575" lon="16.0997333"><ele>978.6666666666666</ele><time>2026-04-27T07:48:33.26Z</time></trkpt><trkpt lat="39.4424217" lon="16.0998217"><ele>985.0</ele><time>2026-04-27T07:48:34.258Z</time></trkpt><trkpt lat="39.4422567" lon="16.09987"><ele>986.5</ele><time>2026-04-27T07:48:35.26Z</time></trkpt><trkpt lat="39.4421133" lon="16.0998783"><ele>988.0</ele><time>2026-04-27T07:48:36.25Z</time></trkpt><trkpt lat="39.441975" lon="16.09983"><ele>989.5</ele><time>2026-04-27T07:48:37.273Z</time></trkpt><trkpt lat="39.4418567" lon="16.099755"><ele>991.0</ele><time>2026-04-27T07:48:38.253Z</time></trkpt><trkpt lat="39.44176" lon="16.0996133"><ele>991.0</ele><time>2026-04-27T07:48:39.289Z</time></trkpt><trkpt lat="39.4416917" lon="16.0994417"><ele>991.0</ele><time>2026-04-27T07:48:40.256Z</time></trkpt><trkpt lat="39.4416333" lon="16.099295"><ele>991.0</ele><time>2026-04-27T07:48:41.256Z</time></trkpt><trkpt lat="39.441555" lon="16.09919"><ele>991.0</ele><time>2026-04-27T07:48:42.25Z</time></trkpt><trkpt lat="39.4414567" lon="16.0991033"><ele>996.75</ele><time>2026-04-27T07:48:43.267Z</time></trkpt><trkpt lat="39.4413483" lon="16.0990183"><ele>1002.5</ele><time>2026-04-27T07:48:44.252Z</time></trkpt><trkpt lat="39.4412333" lon="16.0989433"><ele>1008.25</ele><time>2026-04-27T07:48:45.255Z</time></trkpt><trkpt lat="39.4410967" lon="16.0988733"><ele>1014.0</ele><time>2026-04-27T07:48:46.257Z</time></trkpt><trkpt lat="39.44095" lon="16.0988267"><ele>1014.0</ele><time>2026-04-27T07:48:47.259Z</time></trkpt><trkpt lat="39.440775" lon="16.0988033"><ele>1014.0</ele><time>2026-04-27T07:48:48.257Z</time></trkpt><trkpt lat="39.440625" lon="16.098755"><ele>1014.0</ele><time>2026-04-27T07:48:49.274Z</time></trkpt><trkpt lat="39.4404683" lon="16.098715"><ele>1008.5</ele><time>2026-04-27T07:48:50.261Z</time></trkpt><trkpt lat="39.440335" lon="16.0986383"><ele>1003.0</ele><time>2026-04-27T07:48:51.253Z</time></trkpt><trkpt lat="39.4402167" lon="16.0985317"><ele>997.5</ele><time>2026-04-27T07:48:52.254Z</time></trkpt><trkpt lat="39.440115" lon="16.0984233"><ele>992.0</ele><time>2026-04-27T07:48:53.255Z</time></trkpt><trkpt lat="39.4400217" lon="16.0982783"><ele>997.0</ele><time>2026-04-27T07:48:54.255Z</time></trkpt><trkpt lat="39.4399533" lon="16.0981017"><ele>1002.0</ele><time>2026-04-27T07:48:55.329Z</time></trkpt><trkpt lat="39.4399017" lon="16.0978933"><ele>1007.0</ele><time>2026-04-27T07:48:56.252Z</time></trkpt><trkpt lat="39.4398533" lon="16.0977"><ele>1007.0</ele><time>2026-04-27T07:48:57.255Z</time></trkpt><trkpt lat="39.439825" lon="16.0974767"><ele>1007.0</ele><time>2026-04-27T07:48:58.253Z</time></trkpt><trkpt lat="39.4398583" lon="16.0971733"><ele>1007.0</ele><time>2026-04-27T07:48:59.262Z</time></trkpt><trkpt lat="39.4398833" lon="16.0969067"><ele>1009.3333333333334</ele><time>2026-04-27T07:49:00.259Z</time></trkpt><trkpt lat="39.4398933" lon="16.0966567"><ele>1011.6666666666667</ele><time>2026-04-27T07:49:01.286Z</time></trkpt><trkpt lat="39.4399017" lon="16.0964217"><ele>1014.0</ele><time>2026-04-27T07:49:02.253Z</time></trkpt><trkpt lat="39.4398833" lon="16.09621"><ele>1017.3333333333333</ele><time>2026-04-27T07:49:03.258Z</time></trkpt><trkpt lat="39.4398383" lon="16.0960083"><ele>1020.6666666666666</ele><time>2026-04-27T07:49:04.259Z</time></trkpt><trkpt lat="39.4398" lon="16.0958217"><ele>1024.0</ele><time>2026-04-27T07:49:05.257Z</time></trkpt><trkpt lat="39.4397633" lon="16.0956317"><ele>1028.6666666666665</ele><time>2026-04-27T07:49:06.254Z</time></trkpt><trkpt lat="39.4397233" lon="16.0954417"><ele>1033.3333333333333</ele><time>2026-04-27T07:49:07.264Z</time></trkpt><trkpt lat="39.4396683" lon="16.09526"><ele>1038.0</ele><time>2026-04-27T07:49:08.256Z</time></trkpt><trkpt lat="39.4396217" lon="16.0950717"><ele>1028.0</ele><time>2026-04-27T07:49:09.26Z</time></trkpt><trkpt lat="39.4395767" lon="16.0948883"><ele>1018.0</ele><time>2026-04-27T07:49:10.254Z</time></trkpt><trkpt lat="39.4395417" lon="16.0947017"><ele>1008.0</ele><time>2026-04-27T07:49:11.252Z</time></trkpt><trkpt lat="39.4395367" lon="16.0945"><ele>1008.0</ele><time>2026-04-27T07:49:12.253Z</time></trkpt><trkpt lat="39.439565" lon="16.094275"><ele>1008.0</ele><time>2026-04-27T07:49:13.27Z</time></trkpt><trkpt lat="39.4396217" lon="16.0940483"><ele>1008.0</ele><time>2026-04-27T07:49:14.253Z</time></trkpt><trkpt lat="39.43966" lon="16.0938267"><ele>1021.3333333333333</ele><time>2026-04-27T07:49:15.257Z</time></trkpt><trkpt lat="39.4397" lon="16.0936167"><ele>1034.6666666666665</ele><time>2026-04-27T07:49:16.255Z</time></trkpt><trkpt lat="39.4397417" lon="16.0934217"><ele>1048.0</ele><time>2026-04-27T07:49:17.262Z</time></trkpt><trkpt lat="39.4397783" lon="16.0932433"><ele>1053.25</ele><time>2026-04-27T07:49:18.255Z</time></trkpt><trkpt lat="39.4397967" lon="16.0930883"><ele>1058.5</ele><time>2026-04-27T07:49:19.267Z</time></trkpt><trkpt lat="39.4398" lon="16.0929317"><ele>1063.75</ele><time>2026-04-27T07:49:20.252Z</time></trkpt><trkpt lat="39.4397083" lon="16.0928517"><ele>1069.0</ele><time>2026-04-27T07:49:21.253Z</time></trkpt><trkpt lat="39.4396483" lon="16.0927383"><ele>1063.5</ele><time>2026-04-27T07:49:22.258Z</time></trkpt><trkpt lat="39.439605" lon="16.0925867"><ele>1058.0</ele><time>2026-04-27T07:49:23.259Z</time></trkpt><trkpt lat="39.43954" lon="16.092425"><ele>1052.5</ele><time>2026-04-27T07:49:24.256Z</time></trkpt><trkpt lat="39.4394783" lon="16.0922683"><ele>1047.0</ele><time>2026-04-27T07:49:25.321Z</time></trkpt><trkpt lat="39.439405" lon="16.0920833"><ele>1047.0</ele><time>2026-04-27T07:49:26.255Z</time></trkpt><trkpt lat="39.4393367" lon="16.0918517"><ele>1047.0</ele><time>2026-04-27T07:49:27.256Z</time></trkpt><trkpt lat="39.4392733" lon="16.0916433"><ele>1047.0</ele><time>2026-04-27T07:49:28.25Z</time></trkpt><trkpt lat="39.43922" lon="16.0914467"><ele>1053.0</ele><time>2026-04-27T07:49:29.256Z</time></trkpt><trkpt lat="39.439175" lon="16.0912517"><ele>1059.0</ele><time>2026-04-27T07:49:30.251Z</time></trkpt><trkpt lat="39.4391283" lon="16.0910733"><ele>1065.0</ele><time>2026-04-27T07:49:31.272Z</time></trkpt><trkpt lat="39.4390817" lon="16.0909267"><ele>1071.0</ele><time>2026-04-27T07:49:32.259Z</time></trkpt><trkpt lat="39.439025" lon="16.0908167"><ele>1072.5</ele><time>2026-04-27T07:49:33.259Z</time></trkpt><trkpt lat="39.4389767" lon="16.09075"><ele>1074.0</ele><time>2026-04-27T07:49:34.253Z</time></trkpt><trkpt lat="39.4388433" lon="16.0907183"><ele>1075.5</ele><time>2026-04-27T07:49:35.254Z</time></trkpt><trkpt lat="39.43869" lon="16.090665"><ele>1077.0</ele><time>2026-04-27T07:49:36.254Z</time></trkpt><trkpt lat="39.43856" lon="16.0905383"><ele>1077.0</ele><time>2026-04-27T07:49:37.268Z</time></trkpt><trkpt lat="39.4384" lon="16.0904033"><ele>1077.0</ele><time>2026-04-27T07:49:38.25Z</time></trkpt><trkpt lat="39.4382533" lon="16.0903233"><ele>1077.0</ele><time>2026-04-27T07:49:39.261Z</time></trkpt><trkpt lat="39.4381283" lon="16.090225"><ele>1077.0</ele><time>2026-04-27T07:49:40.256Z</time></trkpt><trkpt lat="39.4379733" lon="16.0902167"><ele>1077.0</ele><time>2026-04-27T07:49:41.258Z</time></trkpt><trkpt lat="39.4378417" lon="16.090185"><ele>1077.0</ele><time>2026-04-27T07:49:42.256Z</time></trkpt><trkpt lat="39.4377167" lon="16.0901583"><ele>1077.0</ele><time>2026-04-27T07:49:43.264Z</time></trkpt><trkpt lat="39.4375967" lon="16.09011"><ele>1076.25</ele><time>2026-04-27T07:49:44.256Z</time></trkpt><trkpt lat="39.4374733" lon="16.0900383"><ele>1075.5</ele><time>2026-04-27T07:49:45.256Z</time></trkpt><trkpt lat="39.437355" lon="16.089955"><ele>1074.75</ele><time>2026-04-27T07:49:46.251Z</time></trkpt><trkpt lat="39.4372267" lon="16.0898983"><ele>1074.0</ele><time>2026-04-27T07:49:47.259Z</time></trkpt><trkpt lat="39.4370917" lon="16.089855"><ele>1074.0</ele><time>2026-04-27T07:49:48.253Z</time></trkpt><trkpt lat="39.43695" lon="16.0898267"><ele>1074.0</ele><time>2026-04-27T07:49:49.268Z</time></trkpt><trkpt lat="39.4367883" lon="16.0898383"><ele>1074.0</ele><time>2026-04-27T07:49:50.251Z</time></trkpt><trkpt lat="39.43665" lon="16.089795"><ele>1074.0</ele><time>2026-04-27T07:49:51.26Z</time></trkpt><trkpt lat="39.4365267" lon="16.08973"><ele>1074.0</ele><time>2026-04-27T07:49:52.25Z</time></trkpt><trkpt lat="39.4364133" lon="16.0896367"><ele>1074.0</ele><time>2026-04-27T07:49:53.253Z</time></trkpt><trkpt lat="39.436345" lon="16.0894617"><ele>1074.0</ele><time>2026-04-27T07:49:54.251Z</time></trkpt><trkpt lat="39.4362433" lon="16.0892967"><ele>1074.0</ele><time>2026-04-27T07:49:55.323Z</time></trkpt><trkpt lat="39.4361267" lon="16.0891383"><ele>1077.3333333333333</ele><time>2026-04-27T07:49:56.253Z</time></trkpt><trkpt lat="39.4359933" lon="16.088985"><ele>1080.6666666666665</ele><time>2026-04-27T07:49:57.255Z</time></trkpt><trkpt lat="39.4358467" lon="16.0888467"><ele>1084.0</ele><time>2026-04-27T07:49:58.259Z</time></trkpt><trkpt lat="39.4356983" lon="16.0886967"><ele>1084.0</ele><time>2026-04-27T07:49:59.26Z</time></trkpt><trkpt lat="39.4355517" lon="16.0885467"><ele>1084.0</ele><time>2026-04-27T07:50:00.255Z</time></trkpt><trkpt lat="39.43542" lon="16.0884017"><ele>1084.0</ele><time>2026-04-27T07:50:01.272Z</time></trkpt><trkpt lat="39.43529" lon="16.0882733"><ele>1083.75</ele><time>2026-04-27T07:50:02.255Z</time></trkpt><trkpt lat="39.4351767" lon="16.0881467"><ele>1083.5</ele><time>2026-04-27T07:50:03.257Z</time></trkpt><trkpt lat="39.4350933" lon="16.0880167"><ele>1083.25</ele><time>2026-04-27T07:50:04.255Z</time></trkpt><trkpt lat="39.43505" lon="16.0878717"><ele>1083.0</ele><time>2026-04-27T07:50:05.259Z</time></trkpt><trkpt lat="39.435045" lon="16.0877383"><ele>1083.0</ele><time>2026-04-27T07:50:06.257Z</time></trkpt><trkpt lat="39.43508" lon="16.0876133"><ele>1083.0</ele><time>2026-04-27T07:50:07.266Z</time></trkpt><trkpt lat="39.4351567" lon="16.0875017"><ele>1083.0</ele><time>2026-04-27T07:50:08.25Z</time></trkpt><trkpt lat="39.43524" lon="16.087445"><ele>1083.0</ele><time>2026-04-27T07:50:09.253Z</time></trkpt><trkpt lat="39.4353083" lon="16.0873783"><ele>1083.0</ele><time>2026-04-27T07:50:10.254Z</time></trkpt><trkpt lat="39.4353467" lon="16.0872917"><ele>1086.8333333333333</ele><time>2026-04-27T07:50:11.259Z</time></trkpt><trkpt lat="39.43537" lon="16.0871933"><ele>1090.6666666666667</ele><time>2026-04-27T07:50:12.249Z</time></trkpt><trkpt lat="39.4354017" lon="16.0870783"><ele>1094.5</ele><time>2026-04-27T07:50:13.266Z</time></trkpt><trkpt lat="39.435425" lon="16.0869917"><ele>1098.3333333333335</ele><time>2026-04-27T07:50:14.253Z</time></trkpt><trkpt lat="39.4354283" lon="16.0869017"><ele>1102.1666666666667</ele><time>2026-04-27T07:50:15.254Z</time></trkpt><trkpt lat="39.4354033" lon="16.08681"><ele>1106.0</ele><time>2026-04-27T07:50:16.256Z</time></trkpt><trkpt lat="39.4353167" lon="16.0867367"><ele>1106.0</ele><time>2026-04-27T07:50:17.261Z</time></trkpt><trkpt lat="39.4352033" lon="16.086685"><ele>1106.0</ele><time>2026-04-27T07:50:18.256Z</time></trkpt><trkpt lat="39.435115" lon="16.086625"><ele>1106.0</ele><time>2026-04-27T07:50:19.262Z</time></trkpt><trkpt lat="39.4350367" lon="16.0865383"><ele>1106.0</ele><time>2026-04-27T07:50:20.255Z</time></trkpt><trkpt lat="39.4349683" lon="16.0864683"><ele>1106.0</ele><time>2026-04-27T07:50:21.247Z</time></trkpt><trkpt lat="39.4348883" lon="16.086445"><ele>1111.2</ele><time>2026-04-27T07:50:22.253Z</time></trkpt><trkpt lat="39.4348017" lon="16.086525"><ele>1116.3999999999999</ele><time>2026-04-27T07:50:23.262Z</time></trkpt><trkpt lat="39.4347067" lon="16.0865117"><ele>1121.6</ele><time>2026-04-27T07:50:25.257Z</time></trkpt><trkpt lat="39.4346283" lon="16.08652"><ele>1126.8</ele><time>2026-04-27T07:50:28.26Z</time></trkpt><trkpt lat="39.4345817" lon="16.086465"><ele>1132.0</ele><time>2026-04-27T07:50:31.268Z</time></trkpt><trkpt lat="39.43451" lon="16.08658"><ele>1132.25</ele><time>2026-04-27T07:50:50.246Z</time></trkpt><trkpt lat="39.4344117" lon="16.08653"><ele>1132.5</ele><time>2026-04-27T07:51:04.251Z</time></trkpt><trkpt lat="39.4343133" lon="16.086465"><ele>1132.75</ele><time>2026-04-27T07:51:05.256Z</time></trkpt><trkpt lat="39.4341283" lon="16.0864083"><ele>1133.0</ele><time>2026-04-27T07:51:06.248Z</time></trkpt><trkpt lat="39.43401" lon="16.0863583"><ele>1133.0</ele><time>2026-04-27T07:51:07.263Z</time></trkpt><trkpt lat="39.4338783" lon="16.0862283"><ele>1133.0</ele><time>2026-04-27T07:51:08.254Z</time></trkpt><trkpt lat="39.4337633" lon="16.0861817"><ele>1133.0</ele><time>2026-04-27T07:51:09.25Z</time></trkpt><trkpt lat="39.4336567" lon="16.086155"><ele>1133.0</ele><time>2026-04-27T07:51:10.253Z</time></trkpt><trkpt lat="39.4335483" lon="16.0861283"><ele>1132.5</ele><time>2026-04-27T07:51:11.25Z</time></trkpt><trkpt lat="39.433425" lon="16.0861417"><ele>1132.0</ele><time>2026-04-27T07:51:12.252Z</time></trkpt><trkpt lat="39.433305" lon="16.0861767"><ele>1131.5</ele><time>2026-04-27T07:51:13.265Z</time></trkpt><trkpt lat="39.4331883" lon="16.0861833"><ele>1131.0</ele><time>2026-04-27T07:51:14.248Z</time></trkpt><trkpt lat="39.433075" lon="16.0861583"><ele>1128.75</ele><time>2026-04-27T07:51:15.259Z</time></trkpt><trkpt lat="39.4329617" lon="16.086055"><ele>1126.5</ele><time>2026-04-27T07:51:16.246Z</time></trkpt><trkpt lat="39.43283" lon="16.0860483"><ele>1124.25</ele><time>2026-04-27T07:51:17.254Z</time></trkpt><trkpt lat="39.4327167" lon="16.0859683"><ele>1122.0</ele><time>2026-04-27T07:51:18.259Z</time></trkpt><trkpt lat="39.432585" lon="16.08591"><ele>1122.0</ele><time>2026-04-27T07:51:19.266Z</time></trkpt><trkpt lat="39.4324533" lon="16.0858467"><ele>1122.0</ele><time>2026-04-27T07:51:20.251Z</time></trkpt><trkpt lat="39.43232" lon="16.085775"><ele>1122.0</ele><time>2026-04-27T07:51:21.26Z</time></trkpt><trkpt lat="39.4321917" lon="16.0856983"><ele>1122.0</ele><time>2026-04-27T07:51:22.254Z</time></trkpt><trkpt lat="39.43207" lon="16.085635"><ele>1128.75</ele><time>2026-04-27T07:51:23.249Z</time></trkpt><trkpt lat="39.4319483" lon="16.0855983"><ele>1135.5</ele><time>2026-04-27T07:51:24.249Z</time></trkpt><trkpt lat="39.4318283" lon="16.0855517"><ele>1142.25</ele><time>2026-04-27T07:51:25.312Z</time></trkpt><trkpt lat="39.4317067" lon="16.0855383"><ele>1149.0</ele><time>2026-04-27T07:51:26.247Z</time></trkpt><trkpt lat="39.431565" lon="16.085545"><ele>1149.0</ele><time>2026-04-27T07:51:27.251Z</time></trkpt><trkpt lat="39.4313983" lon="16.0856033"><ele>1149.0</ele><time>2026-04-27T07:51:28.258Z</time></trkpt><trkpt lat="39.43124" lon="16.0856467"><ele>1149.0</ele><time>2026-04-27T07:51:29.252Z</time></trkpt><trkpt lat="39.43108" lon="16.0856867"><ele>1150.0</ele><time>2026-04-27T07:51:30.253Z</time></trkpt><trkpt lat="39.43092" lon="16.0857183"><ele>1151.0</ele><time>2026-04-27T07:51:31.278Z</time></trkpt><trkpt lat="39.4307683" lon="16.0856283"><ele>1152.0</ele><time>2026-04-27T07:51:32.25Z</time></trkpt><trkpt lat="39.430615" lon="16.0856067"><ele>1152.0</ele><time>2026-04-27T07:51:33.266Z</time></trkpt><trkpt lat="39.43048" lon="16.08562"><ele>1152.0</ele><time>2026-04-27T07:51:34.256Z</time></trkpt><trkpt lat="39.4303767" lon="16.0855917"><ele>1152.0</ele><time>2026-04-27T07:51:35.256Z</time></trkpt><trkpt lat="39.4302583" lon="16.0855733"><ele>1152.0</ele><time>2026-04-27T07:51:36.25Z</time></trkpt><trkpt lat="39.4301367" lon="16.085545"><ele>1148.25</ele><time>2026-04-27T07:51:37.266Z</time></trkpt><trkpt lat="39.4300333" lon="16.0854917"><ele>1144.5</ele><time>2026-04-27T07:51:38.258Z</time></trkpt><trkpt lat="39.429955" lon="16.085375"><ele>1140.75</ele><time>2026-04-27T07:51:39.252Z</time></trkpt><trkpt lat="39.429885" lon="16.0852233"><ele>1137.0</ele><time>2026-04-27T07:51:40.25Z</time></trkpt><trkpt lat="39.4298467" lon="16.085015"><ele>1142.0</ele><time>2026-04-27T07:51:41.255Z</time></trkpt><trkpt lat="39.4297617" lon="16.0848717"><ele>1147.0</ele><time>2026-04-27T07:51:42.254Z</time></trkpt><trkpt lat="39.4296717" lon="16.08471"><ele>1152.0</ele><time>2026-04-27T07:51:43.265Z</time></trkpt><trkpt lat="39.4295833" lon="16.084585"><ele>1157.0</ele><time>2026-04-27T07:51:44.25Z</time></trkpt><trkpt lat="39.4295" lon="16.0844683"><ele>1157.0</ele><time>2026-04-27T07:51:45.248Z</time></trkpt><trkpt lat="39.4294083" lon="16.0843533"><ele>1157.0</ele><time>2026-04-27T07:51:46.247Z</time></trkpt><trkpt lat="39.4292917" lon="16.08428"><ele>1157.0</ele><time>2026-04-27T07:51:47.255Z</time></trkpt><trkpt lat="39.4291717" lon="16.0842033"><ele>1157.0</ele><time>2026-04-27T07:51:48.257Z</time></trkpt><trkpt lat="39.4290233" lon="16.0842183"><ele>1157.0</ele><time>2026-04-27T07:51:49.268Z</time></trkpt><trkpt lat="39.4288517" lon="16.0842533"><ele>1157.0</ele><time>2026-04-27T07:51:50.257Z</time></trkpt><trkpt lat="39.42867" lon="16.0842833"><ele>1157.0</ele><time>2026-04-27T07:51:51.254Z</time></trkpt><trkpt lat="39.4284767" lon="16.0843167"><ele>1157.6666666666667</ele><time>2026-04-27T07:51:52.256Z</time></trkpt><trkpt lat="39.42827" lon="16.0843683"><ele>1158.3333333333333</ele><time>2026-04-27T07:51:53.25Z</time></trkpt><trkpt lat="39.4280867" lon="16.0844033"><ele>1159.0</ele><time>2026-04-27T07:51:54.247Z</time></trkpt><trkpt lat="39.4279117" lon="16.0844367"><ele>1157.75</ele><time>2026-04-27T07:51:55.319Z</time></trkpt><trkpt lat="39.4277417" lon="16.0845167"><ele>1156.5</ele><time>2026-04-27T07:51:56.251Z</time></trkpt><trkpt lat="39.427615" lon="16.0845817"><ele>1155.25</ele><time>2026-04-27T07:51:57.254Z</time></trkpt><trkpt lat="39.4275" lon="16.0846067"><ele>1154.0</ele><time>2026-04-27T07:51:58.253Z</time></trkpt><trkpt lat="39.42737" lon="16.0846683"><ele>1154.0</ele><time>2026-04-27T07:51:59.252Z</time></trkpt><trkpt lat="39.4273217" lon="16.084735"><ele>1154.0</ele><time>2026-04-27T07:52:00.26Z</time></trkpt><trkpt lat="39.427235" lon="16.08472"><ele>1154.0</ele><time>2026-04-27T07:52:01.317Z</time></trkpt><trkpt lat="39.4271667" lon="16.0847117"><ele>1154.0</ele><time>2026-04-27T07:52:02.253Z</time></trkpt><trkpt lat="39.4271017" lon="16.0847117"><ele>1154.0</ele><time>2026-04-27T07:52:03.26Z</time></trkpt><trkpt lat="39.42702" lon="16.084745"><ele>1154.0</ele><time>2026-04-27T07:52:05.261Z</time></trkpt><trkpt lat="39.4269583" lon="16.0847183"><ele>1154.0</ele><time>2026-04-27T07:52:07.267Z</time></trkpt><trkpt lat="39.4269783" lon="16.0848083"><ele>1152.6666666666667</ele><time>2026-04-27T07:52:21.254Z</time></trkpt><trkpt lat="39.427015" lon="16.08488"><ele>1151.3333333333335</ele><time>2026-04-27T07:52:26.251Z</time></trkpt><trkpt lat="39.4269367" lon="16.0849117"><ele>1150.0</ele><time>2026-04-27T07:52:29.255Z</time></trkpt><trkpt lat="39.4268333" lon="16.0849717"><ele>1148.6666666666667</ele><time>2026-04-27T07:52:31.29Z</time></trkpt><trkpt lat="39.4267733" lon="16.0850133"><ele>1147.3333333333333</ele><time>2026-04-27T07:52:32.254Z</time></trkpt><trkpt lat="39.4266883" lon="16.0850817"><ele>1146.0</ele><time>2026-04-27T07:52:34.251Z</time></trkpt><trkpt lat="39.4266133" lon="16.08513"><ele>1146.0</ele><time>2026-04-27T07:52:36.251Z</time></trkpt><trkpt lat="39.4265467" lon="16.085165"><ele>1146.0</ele><time>2026-04-27T07:52:38.253Z</time></trkpt><trkpt lat="39.4264683" lon="16.0852183"><ele>1146.0</ele><time>2026-04-27T07:52:40.245Z</time></trkpt><trkpt lat="39.4264" lon="16.0852583"><ele>1146.0</ele><time>2026-04-27T07:52:43.263Z</time></trkpt><trkpt lat="39.4263183" lon="16.085335"><ele>1146.0</ele><time>2026-04-27T07:52:59.256Z</time></trkpt><trkpt lat="39.4261933" lon="16.085375"><ele>1145.6</ele><time>2026-04-27T07:53:01.285Z</time></trkpt><trkpt lat="39.4260967" lon="16.0854033"><ele>1145.1999999999998</ele><time>2026-04-27T07:53:02.25Z</time></trkpt><trkpt lat="39.4259967" lon="16.0854283"><ele>1144.8000000000002</ele><time>2026-04-27T07:53:03.246Z</time></trkpt><trkpt lat="39.4259033" lon="16.0854533"><ele>1144.4</ele><time>2026-04-27T07:53:04.252Z</time></trkpt><trkpt lat="39.4258117" lon="16.0854817"><ele>1144.0</ele><time>2026-04-27T07:53:05.25Z</time></trkpt><trkpt lat="39.4257267" lon="16.085515"><ele>1144.0</ele><time>2026-04-27T07:53:06.256Z</time></trkpt><trkpt lat="39.4256317" lon="16.085525"><ele>1144.0</ele><time>2026-04-27T07:53:07.266Z</time></trkpt><trkpt lat="39.4255483" lon="16.0855333"><ele>1144.0</ele><time>2026-04-27T07:53:08.25Z</time></trkpt><trkpt lat="39.42548" lon="16.0855383"><ele>1144.0</ele><time>2026-04-27T07:53:09.253Z</time></trkpt><trkpt lat="39.42541" lon="16.0855367"><ele>1144.0</ele><time>2026-04-27T07:53:10.246Z</time></trkpt><trkpt lat="39.4253583" lon="16.08561"><ele>1144.0</ele><time>2026-04-27T08:18:28.706Z</time></trkpt><trkpt lat="39.4252917" lon="16.0856083"><ele>1146.3333333333333</ele><time>2026-04-27T08:19:40.706Z</time></trkpt><trkpt lat="39.4252483" lon="16.08554"><ele>1148.6666666666665</ele><time>2026-04-27T08:19:44.747Z</time></trkpt><trkpt lat="39.42518" lon="16.0855067"><ele>1151.0</ele><time>2026-04-27T08:19:47.716Z</time></trkpt><trkpt lat="39.4251133" lon="16.0855083"><ele>1153.3333333333333</ele><time>2026-04-27T08:19:50.742Z</time></trkpt><trkpt lat="39.4250133" lon="16.08556"><ele>1155.6666666666667</ele><time>2026-04-27T08:19:53.712Z</time></trkpt><trkpt lat="39.4249417" lon="16.085605"><ele>1158.0</ele><time>2026-04-27T08:19:55.714Z</time></trkpt><trkpt lat="39.42487" lon="16.0856417"><ele>1158.0</ele><time>2026-04-27T08:19:57.705Z</time></trkpt><trkpt lat="39.4247867" lon="16.0856667"><ele>1158.0</ele><time>2026-04-27T08:19:59.708Z</time></trkpt><trkpt lat="39.4246733" lon="16.0857017"><ele>1158.0</ele><time>2026-04-27T08:20:01.709Z</time></trkpt><trkpt lat="39.4246033" lon="16.085725"><ele>1158.0</ele><time>2026-04-27T08:20:02.755Z</time></trkpt><trkpt lat="39.424485" lon="16.0857467"><ele>1158.0</ele><time>2026-04-27T08:20:04.711Z</time></trkpt><trkpt lat="39.42436" lon="16.0858"><ele>1159.0</ele><time>2026-04-27T08:20:06.714Z</time></trkpt><trkpt lat="39.4242583" lon="16.0858533"><ele>1160.0</ele><time>2026-04-27T08:20:07.714Z</time></trkpt><trkpt lat="39.4241617" lon="16.0859133"><ele>1161.0</ele><time>2026-04-27T08:20:08.751Z</time></trkpt><trkpt lat="39.4240533" lon="16.0859767"><ele>1162.0</ele><time>2026-04-27T08:20:09.709Z</time></trkpt><trkpt lat="39.4238567" lon="16.0860983"><ele>1165.5</ele><time>2026-04-27T08:20:10.712Z</time></trkpt><trkpt lat="39.4237467" lon="16.08618"><ele>1169.0</ele><time>2026-04-27T08:20:11.717Z</time></trkpt><trkpt lat="39.4236417" lon="16.086285"><ele>1172.5</ele><time>2026-04-27T08:20:12.709Z</time></trkpt><trkpt lat="39.423535" lon="16.08638"><ele>1176.0</ele><time>2026-04-27T08:20:13.708Z</time></trkpt><trkpt lat="39.4234067" lon="16.0864783"><ele>1176.0</ele><time>2026-04-27T08:20:14.745Z</time></trkpt><trkpt lat="39.4233067" lon="16.086555"><ele>1176.0</ele><time>2026-04-27T08:20:15.709Z</time></trkpt><trkpt lat="39.4232067" lon="16.086605"><ele>1176.0</ele><time>2026-04-27T08:20:16.709Z</time></trkpt><trkpt lat="39.4230983" lon="16.0866367"><ele>1176.0</ele><time>2026-04-27T08:20:17.712Z</time></trkpt><trkpt lat="39.42299" lon="16.0866667"><ele>1176.0</ele><time>2026-04-27T08:20:18.713Z</time></trkpt><trkpt lat="39.4228917" lon="16.0866833"><ele>1178.3999999999999</ele><time>2026-04-27T08:20:19.71Z</time></trkpt><trkpt lat="39.4227967" lon="16.0866833"><ele>1180.8</ele><time>2026-04-27T08:20:20.746Z</time></trkpt><trkpt lat="39.422715" lon="16.0866633"><ele>1183.1999999999998</ele><time>2026-04-27T08:20:21.701Z</time></trkpt><trkpt lat="39.4226133" lon="16.0866317"><ele>1185.6</ele><time>2026-04-27T08:20:22.715Z</time></trkpt><trkpt lat="39.42251" lon="16.0866017"><ele>1188.0</ele><time>2026-04-27T08:20:23.709Z</time></trkpt><trkpt lat="39.4224067" lon="16.0865833"><ele>1188.0</ele><time>2026-04-27T08:20:24.714Z</time></trkpt><trkpt lat="39.4223133" lon="16.0865767"><ele>1188.0</ele><time>2026-04-27T08:20:25.706Z</time></trkpt><trkpt lat="39.42222" lon="16.08659"><ele>1188.0</ele><time>2026-04-27T08:20:26.759Z</time></trkpt><trkpt lat="39.4221183" lon="16.0866083"><ele>1188.0</ele><time>2026-04-27T08:20:27.706Z</time></trkpt><trkpt lat="39.4220183" lon="16.0866517"><ele>1188.0</ele><time>2026-04-27T08:20:28.711Z</time></trkpt><trkpt lat="39.4219233" lon="16.0866817"><ele>1182.5</ele><time>2026-04-27T08:20:29.707Z</time></trkpt><trkpt lat="39.4218133" lon="16.0866967"><ele>1177.0</ele><time>2026-04-27T08:20:30.71Z</time></trkpt><trkpt lat="39.42169" lon="16.0866983"><ele>1171.5</ele><time>2026-04-27T08:20:31.707Z</time></trkpt><trkpt lat="39.4215583" lon="16.0867017"><ele>1166.0</ele><time>2026-04-27T08:20:32.758Z</time></trkpt><trkpt lat="39.4214283" lon="16.0867167"><ele>1166.5</ele><time>2026-04-27T08:20:33.705Z</time></trkpt><trkpt lat="39.4213067" lon="16.08674"><ele>1167.0</ele><time>2026-04-27T08:20:34.713Z</time></trkpt><trkpt lat="39.4211783" lon="16.086765"><ele>1167.5</ele><time>2026-04-27T08:20:35.714Z</time></trkpt><trkpt lat="39.4210417" lon="16.0867767"><ele>1168.0</ele><time>2026-04-27T08:20:36.706Z</time></trkpt><trkpt lat="39.4209" lon="16.0867817"><ele>1168.0</ele><time>2026-04-27T08:20:37.707Z</time></trkpt><trkpt lat="39.4207533" lon="16.0867867"><ele>1168.0</ele><time>2026-04-27T08:20:38.747Z</time></trkpt><trkpt lat="39.420595" lon="16.0867933"><ele>1168.0</ele><time>2026-04-27T08:20:39.702Z</time></trkpt><trkpt lat="39.420435" lon="16.0868"><ele>1169.5</ele><time>2026-04-27T08:20:40.711Z</time></trkpt><trkpt lat="39.420285" lon="16.086805"><ele>1171.0</ele><time>2026-04-27T08:20:41.708Z</time></trkpt><trkpt lat="39.4201433" lon="16.0868083"><ele>1172.5</ele><time>2026-04-27T08:20:42.706Z</time></trkpt><trkpt lat="39.4200067" lon="16.08682"><ele>1174.0</ele><time>2026-04-27T08:20:43.707Z</time></trkpt><trkpt lat="39.41987" lon="16.0868317"><ele>1174.0</ele><time>2026-04-27T08:20:44.749Z</time></trkpt><trkpt lat="39.4197333" lon="16.08685"><ele>1174.0</ele><time>2026-04-27T08:20:45.71Z</time></trkpt><trkpt lat="39.4196" lon="16.0868717"><ele>1174.0</ele><time>2026-04-27T08:20:46.716Z</time></trkpt><trkpt lat="39.4194817" lon="16.0868917"><ele>1174.0</ele><time>2026-04-27T08:20:47.715Z</time></trkpt><trkpt lat="39.41938" lon="16.086915"><ele>1176.2</ele><time>2026-04-27T08:20:48.713Z</time></trkpt><trkpt lat="39.4192917" lon="16.0869417"><ele>1178.4</ele><time>2026-04-27T08:20:49.708Z</time></trkpt><trkpt lat="39.4192117" lon="16.08693"><ele>1180.6</ele><time>2026-04-27T08:20:50.741Z</time></trkpt><trkpt lat="39.4191233" lon="16.0869117"><ele>1182.8</ele><time>2026-04-27T08:20:51.711Z</time></trkpt><trkpt lat="39.4190283" lon="16.0869117"><ele>1185.0</ele><time>2026-04-27T08:20:52.708Z</time></trkpt><trkpt lat="39.4189317" lon="16.0869017"><ele>1185.0</ele><time>2026-04-27T08:20:53.712Z</time></trkpt><trkpt lat="39.4188317" lon="16.08689"><ele>1185.0</ele><time>2026-04-27T08:20:54.714Z</time></trkpt><trkpt lat="39.4187367" lon="16.0868883"><ele>1185.0</ele><time>2026-04-27T08:20:55.707Z</time></trkpt><trkpt lat="39.418645" lon="16.0869017"><ele>1185.0</ele><time>2026-04-27T08:20:56.764Z</time></trkpt><trkpt lat="39.418555" lon="16.0869283"><ele>1185.0</ele><time>2026-04-27T08:20:57.709Z</time></trkpt><trkpt lat="39.4184633" lon="16.086975"><ele>1184.75</ele><time>2026-04-27T08:20:58.713Z</time></trkpt><trkpt lat="39.4183617" lon="16.0870517"><ele>1184.5</ele><time>2026-04-27T08:20:59.713Z</time></trkpt><trkpt lat="39.4182517" lon="16.0871217"><ele>1184.25</ele><time>2026-04-27T08:21:00.709Z</time></trkpt><trkpt lat="39.4181333" lon="16.0872067"><ele>1184.0</ele><time>2026-04-27T08:21:01.707Z</time></trkpt><trkpt lat="39.418005" lon="16.0872867"><ele>1185.25</ele><time>2026-04-27T08:21:02.757Z</time></trkpt><trkpt lat="39.4178817" lon="16.0873567"><ele>1186.5</ele><time>2026-04-27T08:21:03.712Z</time></trkpt><trkpt lat="39.417765" lon="16.0874233"><ele>1187.75</ele><time>2026-04-27T08:21:04.713Z</time></trkpt><trkpt lat="39.4176583" lon="16.0874683"><ele>1189.0</ele><time>2026-04-27T08:21:05.705Z</time></trkpt><trkpt lat="39.4175583" lon="16.0875067"><ele>1186.2</ele><time>2026-04-27T08:21:06.706Z</time></trkpt><trkpt lat="39.4174683" lon="16.0875417"><ele>1183.4</ele><time>2026-04-27T08:21:07.708Z</time></trkpt><trkpt lat="39.4173783" lon="16.08758"><ele>1180.6</ele><time>2026-04-27T08:21:08.746Z</time></trkpt><trkpt lat="39.41729" lon="16.0876233"><ele>1177.8</ele><time>2026-04-27T08:21:09.703Z</time></trkpt><trkpt lat="39.417205" lon="16.0876767"><ele>1175.0</ele><time>2026-04-27T08:21:10.703Z</time></trkpt><trkpt lat="39.4171283" lon="16.0877417"><ele>1175.0</ele><time>2026-04-27T08:21:11.713Z</time></trkpt><trkpt lat="39.4170517" lon="16.0878133"><ele>1175.0</ele><time>2026-04-27T08:21:12.706Z</time></trkpt><trkpt lat="39.41697" lon="16.0878833"><ele>1175.0</ele><time>2026-04-27T08:21:13.709Z</time></trkpt><trkpt lat="39.416885" lon="16.0879517"><ele>1175.0</ele><time>2026-04-27T08:21:14.745Z</time></trkpt><trkpt lat="39.4167967" lon="16.0879967"><ele>1175.0</ele><time>2026-04-27T08:21:15.709Z</time></trkpt><trkpt lat="39.416705" lon="16.0880133"><ele>1175.0</ele><time>2026-04-27T08:21:16.719Z</time></trkpt><trkpt lat="39.4166183" lon="16.0880283"><ele>1175.0</ele><time>2026-04-27T08:21:17.711Z</time></trkpt><trkpt lat="39.416525" lon="16.0880417"><ele>1175.0</ele><time>2026-04-27T08:21:18.717Z</time></trkpt><trkpt lat="39.41644" lon="16.0880467"><ele>1175.0</ele><time>2026-04-27T08:21:19.714Z</time></trkpt><trkpt lat="39.416355" lon="16.088045"><ele>1175.0</ele><time>2026-04-27T08:21:20.744Z</time></trkpt><trkpt lat="39.4162683" lon="16.08806"><ele>1175.0</ele><time>2026-04-27T08:21:21.708Z</time></trkpt><trkpt lat="39.4161833" lon="16.0880817"><ele>1176.4</ele><time>2026-04-27T08:21:22.715Z</time></trkpt><trkpt lat="39.41609" lon="16.0881067"><ele>1177.8</ele><time>2026-04-27T08:21:23.705Z</time></trkpt><trkpt lat="39.415995" lon="16.088145"><ele>1179.2</ele><time>2026-04-27T08:21:24.712Z</time></trkpt><trkpt lat="39.415905" lon="16.0881933"><ele>1180.6</ele><time>2026-04-27T08:21:25.713Z</time></trkpt><trkpt lat="39.4158183" lon="16.088235"><ele>1182.0</ele><time>2026-04-27T08:21:26.756Z</time></trkpt><trkpt lat="39.4157233" lon="16.0882833"><ele>1176.0</ele><time>2026-04-27T08:21:27.706Z</time></trkpt><trkpt lat="39.4156183" lon="16.0883333"><ele>1170.0</ele><time>2026-04-27T08:21:28.709Z</time></trkpt><trkpt lat="39.4155083" lon="16.0883817"><ele>1164.0</ele><time>2026-04-27T08:21:29.71Z</time></trkpt><trkpt lat="39.4154017" lon="16.088415"><ele>1158.0</ele><time>2026-04-27T08:21:30.713Z</time></trkpt><trkpt lat="39.4153083" lon="16.0884383"><ele>1152.0</ele><time>2026-04-27T08:21:31.704Z</time></trkpt><trkpt lat="39.4152267" lon="16.0884383"><ele>1152.0</ele><time>2026-04-27T08:21:32.762Z</time></trkpt><trkpt lat="39.4151383" lon="16.0884133"><ele>1152.0</ele><time>2026-04-27T08:21:33.709Z</time></trkpt><trkpt lat="39.4150533" lon="16.0883583"><ele>1152.0</ele><time>2026-04-27T08:21:34.709Z</time></trkpt><trkpt lat="39.414965" lon="16.0882867"><ele>1152.0</ele><time>2026-04-27T08:21:35.716Z</time></trkpt><trkpt lat="39.414885" lon="16.0882017"><ele>1152.0</ele><time>2026-04-27T08:21:36.711Z</time></trkpt><trkpt lat="39.4148067" lon="16.0881167"><ele>1156.6666666666667</ele><time>2026-04-27T08:21:37.716Z</time></trkpt><trkpt lat="39.414725" lon="16.088045"><ele>1161.3333333333333</ele><time>2026-04-27T08:21:38.743Z</time></trkpt><trkpt lat="39.41465" lon="16.0879717"><ele>1166.0</ele><time>2026-04-27T08:21:39.709Z</time></trkpt><trkpt lat="39.4145783" lon="16.08792"><ele>1170.6666666666665</ele><time>2026-04-27T08:21:40.708Z</time></trkpt><trkpt lat="39.4145" lon="16.0878817"><ele>1175.3333333333333</ele><time>2026-04-27T08:21:41.707Z</time></trkpt><trkpt lat="39.4144283" lon="16.0878517"><ele>1180.0</ele><time>2026-04-27T08:21:42.706Z</time></trkpt><trkpt lat="39.4143583" lon="16.0878567"><ele>1180.0</ele><time>2026-04-27T08:21:43.709Z</time></trkpt><trkpt lat="39.4142783" lon="16.0878967"><ele>1180.0</ele><time>2026-04-27T08:21:44.747Z</time></trkpt><trkpt lat="39.4141917" lon="16.0879133"><ele>1180.0</ele><time>2026-04-27T08:21:45.713Z</time></trkpt><trkpt lat="39.4141017" lon="16.0879233"><ele>1180.0</ele><time>2026-04-27T08:21:46.714Z</time></trkpt><trkpt lat="39.4140183" lon="16.08792"><ele>1180.0</ele><time>2026-04-27T08:21:47.707Z</time></trkpt><trkpt lat="39.41392" lon="16.0879083"><ele>1180.0</ele><time>2026-04-27T08:21:48.714Z</time></trkpt><trkpt lat="39.4138167" lon="16.0879017"><ele>1181.0</ele><time>2026-04-27T08:21:49.711Z</time></trkpt><trkpt lat="39.4137267" lon="16.087905"><ele>1182.0</ele><time>2026-04-27T08:21:50.744Z</time></trkpt><trkpt lat="39.413605" lon="16.0879117"><ele>1183.0</ele><time>2026-04-27T08:21:51.709Z</time></trkpt><trkpt lat="39.413485" lon="16.0879367"><ele>1184.0</ele><time>2026-04-27T08:21:52.715Z</time></trkpt><trkpt lat="39.4133383" lon="16.0879967"><ele>1184.0</ele><time>2026-04-27T08:21:53.708Z</time></trkpt><trkpt lat="39.4131683" lon="16.08811"><ele>1184.0</ele><time>2026-04-27T08:21:54.71Z</time></trkpt><trkpt lat="39.4130317" lon="16.0881867"><ele>1184.0</ele><time>2026-04-27T08:21:55.708Z</time></trkpt><trkpt lat="39.4129017" lon="16.0882483"><ele>1179.5</ele><time>2026-04-27T08:21:56.756Z</time></trkpt><trkpt lat="39.412775" lon="16.0883117"><ele>1175.0</ele><time>2026-04-27T08:21:57.71Z</time></trkpt><trkpt lat="39.41265" lon="16.0883617"><ele>1170.5</ele><time>2026-04-27T08:21:58.707Z</time></trkpt><trkpt lat="39.412525" lon="16.088415"><ele>1166.0</ele><time>2026-04-27T08:21:59.707Z</time></trkpt><trkpt lat="39.412385" lon="16.0884867"><ele>1166.0</ele><time>2026-04-27T08:22:00.709Z</time></trkpt><trkpt lat="39.4122383" lon="16.08857"><ele>1166.0</ele><time>2026-04-27T08:22:01.711Z</time></trkpt><trkpt lat="39.4120917" lon="16.0886383"><ele>1166.0</ele><time>2026-04-27T08:22:02.765Z</time></trkpt><trkpt lat="39.4119483" lon="16.088695"><ele>1170.0</ele><time>2026-04-27T08:22:03.712Z</time></trkpt><trkpt lat="39.4117867" lon="16.0887383"><ele>1174.0</ele><time>2026-04-27T08:22:04.709Z</time></trkpt><trkpt lat="39.41164" lon="16.08877"><ele>1178.0</ele><time>2026-04-27T08:22:05.705Z</time></trkpt><trkpt lat="39.4115017" lon="16.0888133"><ele>1178.0</ele><time>2026-04-27T08:22:06.712Z</time></trkpt><trkpt lat="39.4113617" lon="16.0888433"><ele>1178.0</ele><time>2026-04-27T08:22:07.712Z</time></trkpt><trkpt lat="39.4112167" lon="16.0888733"><ele>1178.0</ele><time>2026-04-27T08:22:08.752Z</time></trkpt><trkpt lat="39.4110667" lon="16.0889167"><ele>1178.0</ele><time>2026-04-27T08:22:09.708Z</time></trkpt><trkpt lat="39.4109217" lon="16.0889617"><ele>1181.6666666666667</ele><time>2026-04-27T08:22:10.715Z</time></trkpt><trkpt lat="39.4107667" lon="16.0890117"><ele>1185.3333333333333</ele><time>2026-04-27T08:22:11.711Z</time></trkpt><trkpt lat="39.410625" lon="16.0890667"><ele>1189.0</ele><time>2026-04-27T08:22:12.712Z</time></trkpt><trkpt lat="39.41049" lon="16.0891317"><ele>1180.6666666666665</ele><time>2026-04-27T08:22:13.712Z</time></trkpt><trkpt lat="39.4103517" lon="16.0891983"><ele>1172.3333333333333</ele><time>2026-04-27T08:22:14.749Z</time></trkpt><trkpt lat="39.4102017" lon="16.0892583"><ele>1164.0</ele><time>2026-04-27T08:22:15.705Z</time></trkpt><trkpt lat="39.41005" lon="16.0893033"><ele>1164.0</ele><time>2026-04-27T08:22:16.72Z</time></trkpt><trkpt lat="39.4099067" lon="16.0893367"><ele>1164.0</ele><time>2026-04-27T08:22:17.71Z</time></trkpt><trkpt lat="39.4097683" lon="16.089375"><ele>1164.0</ele><time>2026-04-27T08:22:18.715Z</time></trkpt><trkpt lat="39.40963" lon="16.0894267"><ele>1164.0</ele><time>2026-04-27T08:22:19.707Z</time></trkpt><trkpt lat="39.4095083" lon="16.0895"><ele>1162.8</ele><time>2026-04-27T08:22:20.748Z</time></trkpt><trkpt lat="39.40941" lon="16.0895817"><ele>1161.6000000000001</ele><time>2026-04-27T08:22:21.709Z</time></trkpt><trkpt lat="39.4093233" lon="16.0896533"><ele>1160.4</ele><time>2026-04-27T08:22:22.712Z</time></trkpt><trkpt lat="39.4092467" lon="16.0897183"><ele>1159.2</ele><time>2026-04-27T08:22:23.708Z</time></trkpt><trkpt lat="39.4091833" lon="16.0897883"><ele>1158.0</ele><time>2026-04-27T08:22:24.716Z</time></trkpt><trkpt lat="39.4091333" lon="16.089865"><ele>1154.8333333333333</ele><time>2026-04-27T08:22:25.713Z</time></trkpt><trkpt lat="39.4090983" lon="16.0899483"><ele>1151.6666666666667</ele><time>2026-04-27T08:22:26.778Z</time></trkpt><trkpt lat="39.4091267" lon="16.0900417"><ele>1148.5</ele><time>2026-04-27T08:22:27.703Z</time></trkpt><trkpt lat="39.4091417" lon="16.090125"><ele>1145.3333333333335</ele><time>2026-04-27T08:22:28.715Z</time></trkpt><trkpt lat="39.40912" lon="16.0902033"><ele>1142.1666666666667</ele><time>2026-04-27T08:22:30.713Z</time></trkpt><trkpt lat="39.4090483" lon="16.09019"><ele>1139.0</ele><time>2026-04-27T08:22:32.758Z</time></trkpt><trkpt lat="39.4089633" lon="16.0901033"><ele>1139.0</ele><time>2026-04-27T08:22:34.702Z</time></trkpt><trkpt lat="39.408915" lon="16.0900267"><ele>1139.0</ele><time>2026-04-27T08:22:35.705Z</time></trkpt><trkpt lat="39.4088383" lon="16.08991"><ele>1139.0</ele><time>2026-04-27T08:22:36.714Z</time></trkpt><trkpt lat="39.408755" lon="16.0897967"><ele>1139.0</ele><time>2026-04-27T08:22:37.71Z</time></trkpt><trkpt lat="39.4086433" lon="16.0896683"><ele>1142.0</ele><time>2026-04-27T08:22:38.749Z</time></trkpt><trkpt lat="39.4085333" lon="16.0895433"><ele>1145.0</ele><time>2026-04-27T08:22:39.705Z</time></trkpt><trkpt lat="39.40843" lon="16.0894333"><ele>1148.0</ele><time>2026-04-27T08:22:40.704Z</time></trkpt><trkpt lat="39.4083333" lon="16.08934"><ele>1151.0</ele><time>2026-04-27T08:22:41.707Z</time></trkpt><trkpt lat="39.4082517" lon="16.089265"><ele>1151.0</ele><time>2026-04-27T08:22:42.714Z</time></trkpt><trkpt lat="39.4081617" lon="16.0892083"><ele>1151.0</ele><time>2026-04-27T08:22:43.711Z</time></trkpt><trkpt lat="39.4080683" lon="16.089235"><ele>1151.0</ele><time>2026-04-27T08:22:44.748Z</time></trkpt><trkpt lat="39.4079833" lon="16.0892833"><ele>1151.0</ele><time>2026-04-27T08:22:45.71Z</time></trkpt><trkpt lat="39.4078917" lon="16.0893233"><ele>1151.0</ele><time>2026-04-27T08:22:46.713Z</time></trkpt><trkpt lat="39.4077917" lon="16.0893533"><ele>1150.2</ele><time>2026-04-27T08:22:47.71Z</time></trkpt><trkpt lat="39.4076933" lon="16.0893767"><ele>1149.3999999999999</ele><time>2026-04-27T08:22:48.715Z</time></trkpt><trkpt lat="39.407585" lon="16.0893867"><ele>1148.6</ele><time>2026-04-27T08:22:49.712Z</time></trkpt><trkpt lat="39.4074733" lon="16.0893817"><ele>1147.8</ele><time>2026-04-27T08:22:50.75Z</time></trkpt><trkpt lat="39.4073717" lon="16.0893483"><ele>1147.0</ele><time>2026-04-27T08:22:51.706Z</time></trkpt><trkpt lat="39.4072533" lon="16.0893117"><ele>1144.5</ele><time>2026-04-27T08:22:52.707Z</time></trkpt><trkpt lat="39.4071333" lon="16.0892633"><ele>1142.0</ele><time>2026-04-27T08:22:53.709Z</time></trkpt><trkpt lat="39.4070133" lon="16.08919"><ele>1139.5</ele><time>2026-04-27T08:22:54.713Z</time></trkpt><trkpt lat="39.406895" lon="16.0891083"><ele>1137.0</ele><time>2026-04-27T08:22:55.714Z</time></trkpt><trkpt lat="39.4067817" lon="16.08901"><ele>1146.0</ele><time>2026-04-27T08:22:56.778Z</time></trkpt><trkpt lat="39.4066733" lon="16.0888817"><ele>1155.0</ele><time>2026-04-27T08:22:57.708Z</time></trkpt><trkpt lat="39.4065583" lon="16.0887683"><ele>1164.0</ele><time>2026-04-27T08:22:58.71Z</time></trkpt><trkpt lat="39.406445" lon="16.0887017"><ele>1173.0</ele><time>2026-04-27T08:22:59.706Z</time></trkpt><trkpt lat="39.4063367" lon="16.0886283"><ele>1168.5</ele><time>2026-04-27T08:23:00.718Z</time></trkpt><trkpt lat="39.4062267" lon="16.08857"><ele>1164.0</ele><time>2026-04-27T08:23:01.711Z</time></trkpt><trkpt lat="39.4061217" lon="16.0885017"><ele>1159.5</ele><time>2026-04-27T08:23:02.761Z</time></trkpt><trkpt lat="39.4060133" lon="16.0884533"><ele>1155.0</ele><time>2026-04-27T08:23:03.708Z</time></trkpt><trkpt lat="39.40589" lon="16.0884383"><ele>1155.0</ele><time>2026-04-27T08:23:04.711Z</time></trkpt><trkpt lat="39.4057817" lon="16.088375"><ele>1155.0</ele><time>2026-04-27T08:23:05.707Z</time></trkpt><trkpt lat="39.4056683" lon="16.088305"><ele>1155.0</ele><time>2026-04-27T08:23:06.71Z</time></trkpt><trkpt lat="39.40556" lon="16.0882483"><ele>1155.0</ele><time>2026-04-27T08:23:07.705Z</time></trkpt><trkpt lat="39.405445" lon="16.0882133"><ele>1154.0</ele><time>2026-04-27T08:23:08.739Z</time></trkpt><trkpt lat="39.4053383" lon="16.0881783"><ele>1153.0</ele><time>2026-04-27T08:23:09.707Z</time></trkpt><trkpt lat="39.4052333" lon="16.08816"><ele>1152.0</ele><time>2026-04-27T08:23:10.711Z</time></trkpt><trkpt lat="39.4051483" lon="16.0882033"><ele>1151.0</ele><time>2026-04-27T08:23:11.705Z</time></trkpt><trkpt lat="39.4050683" lon="16.0882333"><ele>1150.0</ele><time>2026-04-27T08:23:12.716Z</time></trkpt><trkpt lat="39.404985" lon="16.0882717"><ele>1150.0</ele><time>2026-04-27T08:23:13.71Z</time></trkpt><trkpt lat="39.4048967" lon="16.0883167"><ele>1150.0</ele><time>2026-04-27T08:23:14.74Z</time></trkpt><trkpt lat="39.404805" lon="16.088355"><ele>1150.0</ele><time>2026-04-27T08:23:15.702Z</time></trkpt><trkpt lat="39.4047083" lon="16.0883783"><ele>1150.0</ele><time>2026-04-27T08:23:16.706Z</time></trkpt><trkpt lat="39.404605" lon="16.08838"><ele>1150.0</ele><time>2026-04-27T08:23:17.716Z</time></trkpt><trkpt lat="39.4045083" lon="16.088375"><ele>1150.6</ele><time>2026-04-27T08:23:18.713Z</time></trkpt><trkpt lat="39.4044167" lon="16.088365"><ele>1151.2</ele><time>2026-04-27T08:23:19.71Z</time></trkpt><trkpt lat="39.40433" lon="16.0883383"><ele>1151.8</ele><time>2026-04-27T08:23:20.744Z</time></trkpt><trkpt lat="39.4042667" lon="16.0883133"><ele>1152.4</ele><time>2026-04-27T08:23:21.708Z</time></trkpt><trkpt lat="39.4041633" lon="16.0882933"><ele>1153.0</ele><time>2026-04-27T08:23:23.705Z</time></trkpt><trkpt lat="39.40412" lon="16.088415"><ele>1153.0</ele><time>2026-04-27T08:23:25.712Z</time></trkpt><trkpt lat="39.4040983" lon="16.0885317"><ele>1153.0</ele><time>2026-04-27T08:23:26.735Z</time></trkpt><trkpt lat="39.4040683" lon="16.0886683"><ele>1153.0</ele><time>2026-04-27T08:23:27.706Z</time></trkpt><trkpt lat="39.4040383" lon="16.088785"><ele>1153.0</ele><time>2026-04-27T08:23:28.709Z</time></trkpt><trkpt lat="39.403995" lon="16.0888783"><ele>1153.0</ele><time>2026-04-27T08:23:29.707Z</time></trkpt><trkpt lat="39.4039617" lon="16.0889517"><ele>1153.0</ele><time>2026-04-27T08:23:30.712Z</time></trkpt><trkpt lat="39.4038817" lon="16.0890583"><ele>1156.6</ele><time>2026-04-27T08:23:32.759Z</time></trkpt><trkpt lat="39.40383" lon="16.0891183"><ele>1160.1999999999998</ele><time>2026-04-27T08:23:33.707Z</time></trkpt><trkpt lat="39.4037433" lon="16.089185"><ele>1163.8</ele><time>2026-04-27T08:23:34.709Z</time></trkpt><trkpt lat="39.403655" lon="16.0892567"><ele>1167.3999999999999</ele><time>2026-04-27T08:23:35.711Z</time></trkpt><trkpt lat="39.4035833" lon="16.0893383"><ele>1171.0</ele><time>2026-04-27T08:23:36.707Z</time></trkpt><trkpt lat="39.4035167" lon="16.0894"><ele>1171.0</ele><time>2026-04-27T08:23:37.706Z</time></trkpt><trkpt lat="39.4034033" lon="16.0894917"><ele>1171.0</ele><time>2026-04-27T08:23:39.716Z</time></trkpt><trkpt lat="39.403325" lon="16.0895283"><ele>1171.0</ele><time>2026-04-27T08:23:40.716Z</time></trkpt><trkpt lat="39.4032283" lon="16.0895733"><ele>1171.0</ele><time>2026-04-27T08:23:41.711Z</time></trkpt><trkpt lat="39.4031133" lon="16.0896033"><ele>1171.0</ele><time>2026-04-27T08:23:42.709Z</time></trkpt><trkpt lat="39.4030133" lon="16.089685"><ele>1172.0</ele><time>2026-04-27T08:23:43.71Z</time></trkpt><trkpt lat="39.40292" lon="16.0897667"><ele>1173.0</ele><time>2026-04-27T08:23:44.744Z</time></trkpt><trkpt lat="39.4028317" lon="16.0898283"><ele>1174.0</ele><time>2026-04-27T08:23:45.706Z</time></trkpt><trkpt lat="39.40274" lon="16.0898917"><ele>1175.0</ele><time>2026-04-27T08:23:46.709Z</time></trkpt><trkpt lat="39.4026533" lon="16.0899567"><ele>1176.0</ele><time>2026-04-27T08:23:47.708Z</time></trkpt><trkpt lat="39.4025683" lon="16.0900167"><ele>1176.0</ele><time>2026-04-27T08:23:48.708Z</time></trkpt><trkpt lat="39.4024917" lon="16.0900867"><ele>1176.0</ele><time>2026-04-27T08:23:49.706Z</time></trkpt><trkpt lat="39.4024083" lon="16.09016"><ele>1176.0</ele><time>2026-04-27T08:23:50.753Z</time></trkpt><trkpt lat="39.4023433" lon="16.090245"><ele>1176.0</ele><time>2026-04-27T08:23:51.709Z</time></trkpt><trkpt lat="39.402285" lon="16.0903267"><ele>1176.0</ele><time>2026-04-27T08:23:52.712Z</time></trkpt><trkpt lat="39.4022217" lon="16.0904167"><ele>1176.0</ele><time>2026-04-27T08:23:53.707Z</time></trkpt><trkpt lat="39.4021717" lon="16.0905033"><ele>1176.0</ele><time>2026-04-27T08:23:54.71Z</time></trkpt><trkpt lat="39.4021283" lon="16.090625"><ele>1176.0</ele><time>2026-04-27T08:23:55.71Z</time></trkpt><trkpt lat="39.4021917" lon="16.0907267"><ele>1176.0</ele><time>2026-04-27T08:23:56.783Z</time></trkpt><trkpt lat="39.40224" lon="16.09081"><ele>1176.0</ele><time>2026-04-27T08:23:57.703Z</time></trkpt><trkpt lat="39.4022967" lon="16.0909067"><ele>1172.8</ele><time>2026-04-27T08:23:58.71Z</time></trkpt><trkpt lat="39.4024367" lon="16.090955"><ele>1169.6</ele><time>2026-04-27T08:23:59.708Z</time></trkpt><trkpt lat="39.402465" lon="16.0910567"><ele>1166.4</ele><time>2026-04-27T08:24:01.703Z</time></trkpt><trkpt lat="39.402395" lon="16.0911583"><ele>1163.2</ele><time>2026-04-27T08:24:03.705Z</time></trkpt><trkpt lat="39.402295" lon="16.09121"><ele>1160.0</ele><time>2026-04-27T08:24:05.713Z</time></trkpt><trkpt lat="39.40222" lon="16.0912133"><ele>1165.3333333333335</ele><time>2026-04-27T08:24:06.704Z</time></trkpt><trkpt lat="39.4021517" lon="16.0912"><ele>1170.6666666666667</ele><time>2026-04-27T08:24:07.707Z</time></trkpt><trkpt lat="39.402075" lon="16.0912"><ele>1176.0</ele><time>2026-04-27T08:24:08.738Z</time></trkpt><trkpt lat="39.4019833" lon="16.0911983"><ele>1181.3333333333333</ele><time>2026-04-27T08:24:09.705Z</time></trkpt><trkpt lat="39.401915" lon="16.0912183"><ele>1186.6666666666665</ele><time>2026-04-27T08:24:10.71Z</time></trkpt><trkpt lat="39.4018133" lon="16.09124"><ele>1192.0</ele><time>2026-04-27T08:24:11.713Z</time></trkpt><trkpt lat="39.4016767" lon="16.0913"><ele>1192.0</ele><time>2026-04-27T08:24:12.709Z</time></trkpt><trkpt lat="39.40159" lon="16.091365"><ele>1192.0</ele><time>2026-04-27T08:24:13.705Z</time></trkpt><trkpt lat="39.4015083" lon="16.0914667"><ele>1192.0</ele><time>2026-04-27T08:24:14.745Z</time></trkpt><trkpt lat="39.401435" lon="16.0915917"><ele>1192.0</ele><time>2026-04-27T08:24:15.709Z</time></trkpt><trkpt lat="39.4013867" lon="16.0917233"><ele>1192.0</ele><time>2026-04-27T08:24:16.704Z</time></trkpt><trkpt lat="39.4013433" lon="16.0918183"><ele>1195.3333333333333</ele><time>2026-04-27T08:24:17.703Z</time></trkpt><trkpt lat="39.4012833" lon="16.091905"><ele>1198.6666666666665</ele><time>2026-04-27T08:24:18.714Z</time></trkpt><trkpt lat="39.40123" lon="16.091975"><ele>1202.0</ele><time>2026-04-27T08:24:19.707Z</time></trkpt><trkpt lat="39.40115" lon="16.0920417"><ele>1205.3333333333333</ele><time>2026-04-27T08:24:21.707Z</time></trkpt><trkpt lat="39.4011133" lon="16.0919483"><ele>1208.6666666666667</ele><time>2026-04-27T08:24:23.72Z</time></trkpt><trkpt lat="39.40111" lon="16.0918417"><ele>1212.0</ele><time>2026-04-27T08:24:24.712Z</time></trkpt><trkpt lat="39.40117" lon="16.0916483"><ele>1215.75</ele><time>2026-04-27T08:24:25.711Z</time></trkpt><trkpt lat="39.4012133" lon="16.091475"><ele>1219.5</ele><time>2026-04-27T08:24:26.787Z</time></trkpt><trkpt lat="39.401245" lon="16.09133"><ele>1223.25</ele><time>2026-04-27T08:24:27.704Z</time></trkpt><trkpt lat="39.401265" lon="16.0911833"><ele>1227.0</ele><time>2026-04-27T08:24:28.705Z</time></trkpt><trkpt lat="39.4012883" lon="16.0910317"><ele>1227.0</ele><time>2026-04-27T08:24:29.705Z</time></trkpt><trkpt lat="39.4013183" lon="16.0908833"><ele>1227.0</ele><time>2026-04-27T08:24:30.711Z</time></trkpt><trkpt lat="39.4013417" lon="16.09075"><ele>1227.0</ele><time>2026-04-27T08:24:31.702Z</time></trkpt><trkpt lat="39.4013617" lon="16.0906083"><ele>1227.0</ele><time>2026-04-27T08:24:32.759Z</time></trkpt><trkpt lat="39.4013483" lon="16.0904583"><ele>1227.6</ele><time>2026-04-27T08:24:33.708Z</time></trkpt><trkpt lat="39.401335" lon="16.090325"><ele>1228.2</ele><time>2026-04-27T08:24:34.709Z</time></trkpt><trkpt lat="39.4013217" lon="16.0901983"><ele>1228.8</ele><time>2026-04-27T08:24:35.708Z</time></trkpt><trkpt lat="39.40133" lon="16.09007"><ele>1229.4</ele><time>2026-04-27T08:24:36.706Z</time></trkpt><trkpt lat="39.40133" lon="16.0899633"><ele>1230.0</ele><time>2026-04-27T08:24:37.712Z</time></trkpt><trkpt lat="39.401355" lon="16.0898533"><ele>1230.0</ele><time>2026-04-27T08:24:38.743Z</time></trkpt><trkpt lat="39.4013983" lon="16.0897467"><ele>1230.0</ele><time>2026-04-27T08:24:39.704Z</time></trkpt><trkpt lat="39.4014733" lon="16.089625"><ele>1230.0</ele><time>2026-04-27T08:24:40.712Z</time></trkpt><trkpt lat="39.401575" lon="16.0895067"><ele>1230.0</ele><time>2026-04-27T08:24:41.7Z</time></trkpt><trkpt lat="39.40168" lon="16.0893867"><ele>1230.0</ele><time>2026-04-27T08:24:42.702Z</time></trkpt><trkpt lat="39.4017917" lon="16.0892833"><ele>1230.0</ele><time>2026-04-27T08:24:43.705Z</time></trkpt><trkpt lat="39.401895" lon="16.0891933"><ele>1230.0</ele><time>2026-04-27T08:24:44.746Z</time></trkpt><trkpt lat="39.402" lon="16.0890883"><ele>1230.0</ele><time>2026-04-27T08:24:45.71Z</time></trkpt><trkpt lat="39.4021083" lon="16.0889817"><ele>1229.0</ele><time>2026-04-27T08:24:46.712Z</time></trkpt><trkpt lat="39.4022033" lon="16.08886"><ele>1228.0</ele><time>2026-04-27T08:24:47.707Z</time></trkpt><trkpt lat="39.4022867" lon="16.08872"><ele>1227.0</ele><time>2026-04-27T08:24:48.706Z</time></trkpt><trkpt lat="39.40236" lon="16.088615"><ele>1226.0</ele><time>2026-04-27T08:24:49.705Z</time></trkpt><trkpt lat="39.4024517" lon="16.08851"><ele>1226.0</ele><time>2026-04-27T08:24:50.745Z</time></trkpt><trkpt lat="39.4025417" lon="16.08843"><ele>1226.0</ele><time>2026-04-27T08:24:51.71Z</time></trkpt><trkpt lat="39.40263" lon="16.08838"><ele>1226.0</ele><time>2026-04-27T08:24:52.71Z</time></trkpt><trkpt lat="39.4027033" lon="16.08829"><ele>1226.0</ele><time>2026-04-27T08:24:53.71Z</time></trkpt><trkpt lat="39.4027833" lon="16.0882"><ele>1226.0</ele><time>2026-04-27T08:24:54.71Z</time></trkpt><trkpt lat="39.4028433" lon="16.0880917"><ele>1227.0</ele><time>2026-04-27T08:24:55.708Z</time></trkpt><trkpt lat="39.4028883" lon="16.0879867"><ele>1228.0</ele><time>2026-04-27T08:24:56.776Z</time></trkpt><trkpt lat="39.4029283" lon="16.0878817"><ele>1229.0</ele><time>2026-04-27T08:24:57.708Z</time></trkpt><trkpt lat="39.4029517" lon="16.08779"><ele>1230.0</ele><time>2026-04-27T08:24:58.705Z</time></trkpt><trkpt lat="39.40295" lon="16.087705"><ele>1231.0</ele><time>2026-04-27T08:24:59.706Z</time></trkpt><trkpt lat="39.4029233" lon="16.0876083"><ele>1232.0</ele><time>2026-04-27T08:25:00.713Z</time></trkpt><trkpt lat="39.40285" lon="16.0874917"><ele>1234.2</ele><time>2026-04-27T08:25:01.709Z</time></trkpt><trkpt lat="39.4027533" lon="16.08738"><ele>1236.4</ele><time>2026-04-27T08:25:02.757Z</time></trkpt><trkpt lat="39.40267" lon="16.0872667"><ele>1238.6</ele><time>2026-04-27T08:25:03.705Z</time></trkpt><trkpt lat="39.40261" lon="16.087165"><ele>1240.8</ele><time>2026-04-27T08:25:04.709Z</time></trkpt><trkpt lat="39.40256" lon="16.0870717"><ele>1243.0</ele><time>2026-04-27T08:25:05.703Z</time></trkpt><trkpt lat="39.4025133" lon="16.0869833"><ele>1243.0</ele><time>2026-04-27T08:25:06.712Z</time></trkpt><trkpt lat="39.40246" lon="16.0869033"><ele>1243.0</ele><time>2026-04-27T08:25:07.71Z</time></trkpt><trkpt lat="39.40242" lon="16.086825"><ele>1243.0</ele><time>2026-04-27T08:25:08.748Z</time></trkpt><trkpt lat="39.4024183" lon="16.0867367"><ele>1243.0</ele><time>2026-04-27T08:25:09.704Z</time></trkpt><trkpt lat="39.4024283" lon="16.0866283"><ele>1243.0</ele><time>2026-04-27T08:25:11.709Z</time></trkpt><trkpt lat="39.4023967" lon="16.08676"><ele>1243.0</ele><time>2026-04-27T08:25:14.742Z</time></trkpt><trkpt lat="39.4024267" lon="16.086905"><ele>1243.0</ele><time>2026-04-27T08:25:15.707Z</time></trkpt><trkpt lat="39.40243" lon="16.087035"><ele>1243.0</ele><time>2026-04-27T08:25:16.709Z</time></trkpt><trkpt lat="39.4024433" lon="16.08715"><ele>1243.0</ele><time>2026-04-27T08:25:17.713Z</time></trkpt><trkpt lat="39.4024683" lon="16.0872633"><ele>1243.0</ele><time>2026-04-27T08:25:18.721Z</time></trkpt><trkpt lat="39.4024933" lon="16.087375"><ele>1243.0</ele><time>2026-04-27T08:25:19.707Z</time></trkpt><trkpt lat="39.4025067" lon="16.08748"><ele>1240.25</ele><time>2026-04-27T08:25:20.749Z</time></trkpt><trkpt lat="39.402495" lon="16.0875983"><ele>1237.5</ele><time>2026-04-27T08:25:21.711Z</time></trkpt><trkpt lat="39.4024733" lon="16.0877317"><ele>1234.75</ele><time>2026-04-27T08:25:22.708Z</time></trkpt><trkpt lat="39.4024383" lon="16.087875"><ele>1232.0</ele><time>2026-04-27T08:25:23.709Z</time></trkpt><trkpt lat="39.402375" lon="16.0880333"><ele>1232.0</ele><time>2026-04-27T08:25:24.712Z</time></trkpt><trkpt lat="39.4023117" lon="16.0881767"><ele>1232.0</ele><time>2026-04-27T08:25:25.711Z</time></trkpt><trkpt lat="39.4022483" lon="16.0883033"><ele>1232.0</ele><time>2026-04-27T08:25:26.773Z</time></trkpt><trkpt lat="39.4021933" lon="16.088405"><ele>1232.0</ele><time>2026-04-27T08:25:27.701Z</time></trkpt><trkpt lat="39.40214" lon="16.088505"><ele>1232.0</ele><time>2026-04-27T08:25:28.706Z</time></trkpt><trkpt lat="39.4020617" lon="16.0885883"><ele>1236.2</ele><time>2026-04-27T08:25:29.704Z</time></trkpt><trkpt lat="39.4019817" lon="16.0886633"><ele>1240.4</ele><time>2026-04-27T08:25:30.713Z</time></trkpt><trkpt lat="39.401895" lon="16.0887467"><ele>1244.6</ele><time>2026-04-27T08:25:31.71Z</time></trkpt><trkpt lat="39.401795" lon="16.088815"><ele>1248.8</ele><time>2026-04-27T08:25:32.753Z</time></trkpt><trkpt lat="39.40168" lon="16.0888733"><ele>1253.0</ele><time>2026-04-27T08:25:33.702Z</time></trkpt><trkpt lat="39.4015383" lon="16.08893"><ele>1253.0</ele><time>2026-04-27T08:25:34.709Z</time></trkpt><trkpt lat="39.4014017" lon="16.0889717"><ele>1253.0</ele><time>2026-04-27T08:25:35.708Z</time></trkpt><trkpt lat="39.4012633" lon="16.0890183"><ele>1253.0</ele><time>2026-04-27T08:25:36.717Z</time></trkpt><trkpt lat="39.4011583" lon="16.089045"><ele>1253.0</ele><time>2026-04-27T08:25:37.715Z</time></trkpt><trkpt lat="39.4010433" lon="16.0890767"><ele>1252.75</ele><time>2026-04-27T08:25:38.756Z</time></trkpt><trkpt lat="39.4009367" lon="16.0891383"><ele>1252.5</ele><time>2026-04-27T08:25:39.702Z</time></trkpt><trkpt lat="39.400825" lon="16.089225"><ele>1252.25</ele><time>2026-04-27T08:25:40.713Z</time></trkpt><trkpt lat="39.400705" lon="16.0893167"><ele>1252.0</ele><time>2026-04-27T08:25:41.708Z</time></trkpt><trkpt lat="39.4005917" lon="16.0894133"><ele>1257.2</ele><time>2026-04-27T08:25:42.711Z</time></trkpt><trkpt lat="39.4004783" lon="16.089505"><ele>1262.4</ele><time>2026-04-27T08:25:43.707Z</time></trkpt><trkpt lat="39.400375" lon="16.08958"><ele>1267.6</ele><time>2026-04-27T08:25:44.743Z</time></trkpt><trkpt lat="39.4002867" lon="16.0896333"><ele>1272.8</ele><time>2026-04-27T08:25:45.703Z</time></trkpt><trkpt lat="39.400205" lon="16.089695"><ele>1278.0</ele><time>2026-04-27T08:25:46.706Z</time></trkpt><trkpt lat="39.4001467" lon="16.089775"><ele>1278.0</ele><time>2026-04-27T08:25:47.709Z</time></trkpt><trkpt lat="39.400165" lon="16.0898817"><ele>1278.0</ele><time>2026-04-27T08:25:48.712Z</time></trkpt><trkpt lat="39.40017" lon="16.089985"><ele>1278.0</ele><time>2026-04-27T08:25:49.71Z</time></trkpt><trkpt lat="39.40019" lon="16.0900967"><ele>1278.0</ele><time>2026-04-27T08:25:50.745Z</time></trkpt><trkpt lat="39.4002017" lon="16.0902017"><ele>1278.0</ele><time>2026-04-27T08:25:51.709Z</time></trkpt><trkpt lat="39.4001967" lon="16.0903033"><ele>1278.0</ele><time>2026-04-27T08:25:52.713Z</time></trkpt><trkpt lat="39.4001817" lon="16.0903867"><ele>1275.2</ele><time>2026-04-27T08:25:53.71Z</time></trkpt><trkpt lat="39.4001567" lon="16.0904617"><ele>1272.4</ele><time>2026-04-27T08:25:54.719Z</time></trkpt><trkpt lat="39.4000983" lon="16.0905283"><ele>1269.6000000000001</ele><time>2026-04-27T08:25:56.737Z</time></trkpt><trkpt lat="39.4000067" lon="16.0904633"><ele>1266.8</ele><time>2026-04-27T08:25:59.706Z</time></trkpt><trkpt lat="39.39994" lon="16.090295"><ele>1264.0</ele><time>2026-04-27T08:26:00.713Z</time></trkpt><trkpt lat="39.3999083" lon="16.090145"><ele>1264.0</ele><time>2026-04-27T08:26:01.701Z</time></trkpt><trkpt lat="39.399865" lon="16.089985"><ele>1264.0</ele><time>2026-04-27T08:26:02.749Z</time></trkpt><trkpt lat="39.3998367" lon="16.0898083"><ele>1264.0</ele><time>2026-04-27T08:26:03.707Z</time></trkpt><trkpt lat="39.399825" lon="16.0896533"><ele>1264.0</ele><time>2026-04-27T08:26:04.711Z</time></trkpt><trkpt lat="39.39983" lon="16.0895233"><ele>1267.5</ele><time>2026-04-27T08:26:05.708Z</time></trkpt><trkpt lat="39.3998467" lon="16.0893967"><ele>1271.0</ele><time>2026-04-27T08:26:06.71Z</time></trkpt><trkpt lat="39.399925" lon="16.0892617"><ele>1274.5</ele><time>2026-04-27T08:26:07.708Z</time></trkpt><trkpt lat="39.40001" lon="16.0891367"><ele>1278.0</ele><time>2026-04-27T08:26:08.749Z</time></trkpt><trkpt lat="39.400115" lon="16.0890167"><ele>1279.0</ele><time>2026-04-27T08:26:09.704Z</time></trkpt><trkpt lat="39.400215" lon="16.0889067"><ele>1280.0</ele><time>2026-04-27T08:26:10.711Z</time></trkpt><trkpt lat="39.4003417" lon="16.0888117"><ele>1281.0</ele><time>2026-04-27T08:26:11.709Z</time></trkpt><trkpt lat="39.4004633" lon="16.0887283"><ele>1282.0</ele><time>2026-04-27T08:26:12.715Z</time></trkpt><trkpt lat="39.4005783" lon="16.0886333"><ele>1282.0</ele><time>2026-04-27T08:26:13.717Z</time></trkpt><trkpt lat="39.400695" lon="16.0885233"><ele>1282.0</ele><time>2026-04-27T08:26:14.745Z</time></trkpt><trkpt lat="39.4008017" lon="16.0884183"><ele>1282.0</ele><time>2026-04-27T08:26:15.708Z</time></trkpt><trkpt lat="39.4009133" lon="16.0883133"><ele>1282.0</ele><time>2026-04-27T08:26:16.707Z</time></trkpt><trkpt lat="39.4010183" lon="16.0882017"><ele>1279.0</ele><time>2026-04-27T08:26:17.709Z</time></trkpt><trkpt lat="39.401125" lon="16.0880933"><ele>1276.0</ele><time>2026-04-27T08:26:18.713Z</time></trkpt><trkpt lat="39.4012283" lon="16.0879583"><ele>1273.0</ele><time>2026-04-27T08:26:19.709Z</time></trkpt><trkpt lat="39.4013133" lon="16.0878333"><ele>1270.0</ele><time>2026-04-27T08:26:20.75Z</time></trkpt><trkpt lat="39.401395" lon="16.0877"><ele>1270.0</ele><time>2026-04-27T08:26:21.714Z</time></trkpt><trkpt lat="39.401435" lon="16.0875617"><ele>1270.0</ele><time>2026-04-27T08:26:22.713Z</time></trkpt><trkpt lat="39.4014417" lon="16.0874567"><ele>1270.0</ele><time>2026-04-27T08:26:23.709Z</time></trkpt><trkpt lat="39.4014383" lon="16.0873733"><ele>1270.0</ele><time>2026-04-27T08:26:24.726Z</time></trkpt><trkpt lat="39.4014167" lon="16.087265"><ele>1270.0</ele><time>2026-04-27T08:26:26.78Z</time></trkpt><trkpt lat="39.4013433" lon="16.0872367"><ele>1270.0</ele><time>2026-04-27T08:26:28.712Z</time></trkpt><trkpt lat="39.4012217" lon="16.087315"><ele>1275.5</ele><time>2026-04-27T08:26:30.715Z</time></trkpt><trkpt lat="39.4011517" lon="16.0873683"><ele>1281.0</ele><time>2026-04-27T08:26:31.709Z</time></trkpt><trkpt lat="39.40108" lon="16.087415"><ele>1286.5</ele><time>2026-04-27T08:26:32.761Z</time></trkpt><trkpt lat="39.4010017" lon="16.087465"><ele>1292.0</ele><time>2026-04-27T08:26:33.705Z</time></trkpt><trkpt lat="39.4009233" lon="16.087525"><ele>1297.5</ele><time>2026-04-27T08:26:34.706Z</time></trkpt><trkpt lat="39.400845" lon="16.0875917"><ele>1303.0</ele><time>2026-04-27T08:26:35.705Z</time></trkpt><trkpt lat="39.4007683" lon="16.0876617"><ele>1303.0</ele><time>2026-04-27T08:26:36.714Z</time></trkpt><trkpt lat="39.400695" lon="16.0877317"><ele>1303.0</ele><time>2026-04-27T08:26:37.704Z</time></trkpt><trkpt lat="39.400635" lon="16.0877933"><ele>1303.0</ele><time>2026-04-27T08:26:38.744Z</time></trkpt><trkpt lat="39.4005583" lon="16.0878283"><ele>1303.0</ele><time>2026-04-27T08:26:40.714Z</time></trkpt><trkpt lat="39.40053" lon="16.08771"><ele>1303.0</ele><time>2026-04-27T08:26:42.711Z</time></trkpt><trkpt lat="39.4005617" lon="16.0876167"><ele>1303.0</ele><time>2026-04-27T08:26:43.71Z</time></trkpt><trkpt lat="39.4006083" lon="16.0875217"><ele>1306.75</ele><time>2026-04-27T08:26:44.746Z</time></trkpt><trkpt lat="39.4006683" lon="16.0874067"><ele>1310.5</ele><time>2026-04-27T08:26:45.705Z</time></trkpt><trkpt lat="39.4007417" lon="16.08728"><ele>1314.25</ele><time>2026-04-27T08:26:46.712Z</time></trkpt><trkpt lat="39.4008017" lon="16.0871417"><ele>1318.0</ele><time>2026-04-27T08:26:47.706Z</time></trkpt><trkpt lat="39.4008567" lon="16.0869917"><ele>1318.0</ele><time>2026-04-27T08:26:48.709Z</time></trkpt><trkpt lat="39.4009033" lon="16.0868233"><ele>1318.0</ele><time>2026-04-27T08:26:49.724Z</time></trkpt><trkpt lat="39.4009517" lon="16.08665"><ele>1318.0</ele><time>2026-04-27T08:26:50.743Z</time></trkpt><trkpt lat="39.401005" lon="16.0864833"><ele>1318.0</ele><time>2026-04-27T08:26:51.706Z</time></trkpt><trkpt lat="39.4010667" lon="16.08632"><ele>1318.75</ele><time>2026-04-27T08:26:52.707Z</time></trkpt><trkpt lat="39.4011383" lon="16.0861583"><ele>1319.5</ele><time>2026-04-27T08:26:53.713Z</time></trkpt><trkpt lat="39.4012133" lon="16.085995"><ele>1320.25</ele><time>2026-04-27T08:26:54.713Z</time></trkpt><trkpt lat="39.4012883" lon="16.0858333"><ele>1321.0</ele><time>2026-04-27T08:26:55.706Z</time></trkpt><trkpt lat="39.4013617" lon="16.085685"><ele>1321.0</ele><time>2026-04-27T08:26:56.781Z</time></trkpt><trkpt lat="39.4014283" lon="16.0855383"><ele>1321.0</ele><time>2026-04-27T08:26:57.704Z</time></trkpt><trkpt lat="39.4014833" lon="16.0854"><ele>1321.0</ele><time>2026-04-27T08:26:58.707Z</time></trkpt><trkpt lat="39.4015183" lon="16.0852767"><ele>1321.0</ele><time>2026-04-27T08:26:59.705Z</time></trkpt><trkpt lat="39.4015417" lon="16.08515"><ele>1321.0</ele><time>2026-04-27T08:27:00.712Z</time></trkpt><trkpt lat="39.4015517" lon="16.08502"><ele>1321.0</ele><time>2026-04-27T08:27:01.709Z</time></trkpt><trkpt lat="39.4015667" lon="16.084885"><ele>1321.0</ele><time>2026-04-27T08:27:02.772Z</time></trkpt><trkpt lat="39.4015717" lon="16.0847783"><ele>1321.0</ele><time>2026-04-27T08:27:03.705Z</time></trkpt><trkpt lat="39.4015767" lon="16.084695"><ele>1321.0</ele><time>2026-04-27T08:27:04.708Z</time></trkpt><trkpt lat="39.4015217" lon="16.0846267"><ele>1321.0</ele><time>2026-04-27T08:27:06.711Z</time></trkpt><trkpt lat="39.4014167" lon="16.0846517"><ele>1323.0</ele><time>2026-04-27T08:27:08.748Z</time></trkpt><trkpt lat="39.4013167" lon="16.0847833"><ele>1325.0</ele><time>2026-04-27T08:27:10.709Z</time></trkpt><trkpt lat="39.40127" lon="16.0848717"><ele>1327.0</ele><time>2026-04-27T08:27:11.705Z</time></trkpt><trkpt lat="39.40121" lon="16.0849833"><ele>1329.0</ele><time>2026-04-27T08:27:12.702Z</time></trkpt><trkpt lat="39.4011467" lon="16.0851083"><ele>1331.0</ele><time>2026-04-27T08:27:13.71Z</time></trkpt><trkpt lat="39.4010967" lon="16.0852183"><ele>1331.0</ele><time>2026-04-27T08:27:14.742Z</time></trkpt><trkpt lat="39.401055" lon="16.0853067"><ele>1331.0</ele><time>2026-04-27T08:27:15.705Z</time></trkpt><trkpt lat="39.4009817" lon="16.0854117"><ele>1331.0</ele><time>2026-04-27T08:27:17.708Z</time></trkpt><trkpt lat="39.4008633" lon="16.08548"><ele>1331.0</ele><time>2026-04-27T08:27:19.711Z</time></trkpt><trkpt lat="39.4007983" lon="16.0855217"><ele>1331.0</ele><time>2026-04-27T08:27:20.745Z</time></trkpt><trkpt lat="39.40073" lon="16.0855617"><ele>1331.0</ele><time>2026-04-27T08:27:21.704Z</time></trkpt><trkpt lat="39.4006633" lon="16.0856083"><ele>1331.0</ele><time>2026-04-27T08:27:22.715Z</time></trkpt><trkpt lat="39.4005983" lon="16.0856567"><ele>1331.0</ele><time>2026-04-27T08:27:23.705Z</time></trkpt><trkpt lat="39.4005267" lon="16.0857017"><ele>1331.0</ele><time>2026-04-27T08:27:24.71Z</time></trkpt><trkpt lat="39.400445" lon="16.0857567"><ele>1331.0</ele><time>2026-04-27T08:27:25.709Z</time></trkpt><trkpt lat="39.4003533" lon="16.0858217"><ele>1331.0</ele><time>2026-04-27T08:27:26.766Z</time></trkpt><trkpt lat="39.4002617" lon="16.085905"><ele>1336.25</ele><time>2026-04-27T08:27:27.702Z</time></trkpt><trkpt lat="39.400165" lon="16.0860367"><ele>1341.5</ele><time>2026-04-27T08:27:28.708Z</time></trkpt><trkpt lat="39.4000833" lon="16.0861633"><ele>1346.75</ele><time>2026-04-27T08:27:29.706Z</time></trkpt><trkpt lat="39.4000167" lon="16.0862833"><ele>1352.0</ele><time>2026-04-27T08:27:30.703Z</time></trkpt><trkpt lat="39.399955" lon="16.08639"><ele>1352.0</ele><time>2026-04-27T08:27:31.707Z</time></trkpt><trkpt lat="39.3998967" lon="16.0864783"><ele>1352.0</ele><time>2026-04-27T08:27:32.76Z</time></trkpt><trkpt lat="39.3998333" lon="16.0865583"><ele>1352.0</ele><time>2026-04-27T08:27:33.707Z</time></trkpt><trkpt lat="39.3997783" lon="16.0866167"><ele>1352.0</ele><time>2026-04-27T08:27:34.713Z</time></trkpt><trkpt lat="39.3996783" lon="16.0867133"><ele>1352.0</ele><time>2026-04-27T08:27:36.713Z</time></trkpt><trkpt lat="39.3996133" lon="16.0867683"><ele>1356.8</ele><time>2026-04-27T08:27:37.706Z</time></trkpt><trkpt lat="39.3995283" lon="16.0868183"><ele>1361.6</ele><time>2026-04-27T08:27:38.741Z</time></trkpt><trkpt lat="39.3994433" lon="16.0868817"><ele>1366.3999999999999</ele><time>2026-04-27T08:27:39.706Z</time></trkpt><trkpt lat="39.399355" lon="16.086925"><ele>1371.1999999999998</ele><time>2026-04-27T08:27:40.706Z</time></trkpt><trkpt lat="39.39926" lon="16.0869533"><ele>1376.0</ele><time>2026-04-27T08:27:41.705Z</time></trkpt><trkpt lat="39.399155" lon="16.0869483"><ele>1376.0</ele><time>2026-04-27T08:27:42.707Z</time></trkpt><trkpt lat="39.399055" lon="16.0869533"><ele>1376.0</ele><time>2026-04-27T08:27:43.708Z</time></trkpt><trkpt lat="39.3989617" lon="16.0869767"><ele>1376.0</ele><time>2026-04-27T08:27:44.743Z</time></trkpt><trkpt lat="39.398875" lon="16.08702"><ele>1376.0</ele><time>2026-04-27T08:27:45.703Z</time></trkpt><trkpt lat="39.3988" lon="16.0870617"><ele>1376.0</ele><time>2026-04-27T08:27:46.709Z</time></trkpt><trkpt lat="39.39873" lon="16.087095"><ele>1376.0</ele><time>2026-04-27T08:27:47.713Z</time></trkpt><trkpt lat="39.3985967" lon="16.0870917"><ele>1377.3333333333335</ele><time>2026-04-27T08:27:49.705Z</time></trkpt><trkpt lat="39.398525" lon="16.0870533"><ele>1378.6666666666667</ele><time>2026-04-27T08:27:50.747Z</time></trkpt><trkpt lat="39.398465" lon="16.0870033"><ele>1380.0</ele><time>2026-04-27T08:27:51.709Z</time></trkpt><trkpt lat="39.3984217" lon="16.0869433"><ele>1381.3333333333333</ele><time>2026-04-27T08:27:52.712Z</time></trkpt><trkpt lat="39.3983717" lon="16.086885"><ele>1382.6666666666665</ele><time>2026-04-27T08:27:53.708Z</time></trkpt><trkpt lat="39.3983133" lon="16.0868183"><ele>1384.0</ele><time>2026-04-27T08:27:54.712Z</time></trkpt><trkpt lat="39.39824" lon="16.086745"><ele>1384.0</ele><time>2026-04-27T08:27:55.708Z</time></trkpt><trkpt lat="39.39815" lon="16.0866833"><ele>1384.0</ele><time>2026-04-27T08:27:56.773Z</time></trkpt><trkpt lat="39.398045" lon="16.08663"><ele>1384.0</ele><time>2026-04-27T08:27:57.705Z</time></trkpt><trkpt lat="39.3979233" lon="16.0866"><ele>1384.0</ele><time>2026-04-27T08:27:58.711Z</time></trkpt><trkpt lat="39.3977817" lon="16.08659"><ele>1381.3333333333333</ele><time>2026-04-27T08:27:59.704Z</time></trkpt><trkpt lat="39.39751" lon="16.0865767"><ele>1378.6666666666667</ele><time>2026-04-27T08:28:01.706Z</time></trkpt><trkpt lat="39.3973883" lon="16.08659"><ele>1376.0</ele><time>2026-04-27T08:28:02.757Z</time></trkpt><trkpt lat="39.3972783" lon="16.0866067"><ele>1376.0</ele><time>2026-04-27T08:28:03.706Z</time></trkpt><trkpt lat="39.3971733" lon="16.0866033"><ele>1376.0</ele><time>2026-04-27T08:28:04.712Z</time></trkpt><trkpt lat="39.39706" lon="16.0866183"><ele>1376.0</ele><time>2026-04-27T08:28:05.701Z</time></trkpt><trkpt lat="39.3969483" lon="16.0866217"><ele>1376.0</ele><time>2026-04-27T08:28:06.703Z</time></trkpt><trkpt lat="39.3968483" lon="16.0866167"><ele>1376.0</ele><time>2026-04-27T08:28:07.705Z</time></trkpt><trkpt lat="39.39675" lon="16.0866067"><ele>1375.0</ele><time>2026-04-27T08:28:08.745Z</time></trkpt><trkpt lat="39.3966567" lon="16.0865883"><ele>1374.0</ele><time>2026-04-27T08:28:09.709Z</time></trkpt><trkpt lat="39.396505" lon="16.0865267"><ele>1373.0</ele><time>2026-04-27T08:28:11.704Z</time></trkpt><trkpt lat="39.3964383" lon="16.0865"><ele>1372.0</ele><time>2026-04-27T08:28:12.709Z</time></trkpt><trkpt lat="39.3963317" lon="16.086465"><ele>1371.0</ele><time>2026-04-27T08:28:14.745Z</time></trkpt><trkpt lat="39.3962567" lon="16.0864283"><ele>1373.5</ele><time>2026-04-27T08:28:15.71Z</time></trkpt><trkpt lat="39.39618" lon="16.0863967"><ele>1376.0</ele><time>2026-04-27T08:28:16.705Z</time></trkpt><trkpt lat="39.3959283" lon="16.086305"><ele>1378.5</ele><time>2026-04-27T08:28:19.706Z</time></trkpt><trkpt lat="39.39584" lon="16.0862517"><ele>1381.0</ele><time>2026-04-27T08:28:20.743Z</time></trkpt><trkpt lat="39.39573" lon="16.0861783"><ele>1381.0</ele><time>2026-04-27T08:28:21.713Z</time></trkpt><trkpt lat="39.395655" lon="16.0861017"><ele>1381.0</ele><time>2026-04-27T08:28:22.713Z</time></trkpt><trkpt lat="39.39558" lon="16.0860417"><ele>1381.0</ele><time>2026-04-27T08:28:23.709Z</time></trkpt><trkpt lat="39.3955217" lon="16.0859867"><ele>1381.0</ele><time>2026-04-27T08:28:24.712Z</time></trkpt><trkpt lat="39.3954617" lon="16.0859217"><ele>1381.0</ele><time>2026-04-27T08:28:26.776Z</time></trkpt><trkpt lat="39.3953767" lon="16.085865"><ele>1381.0</ele><time>2026-04-27T08:28:29.707Z</time></trkpt><trkpt lat="39.3953183" lon="16.085825"><ele>1380.0</ele><time>2026-04-27T08:28:31.711Z</time></trkpt><trkpt lat="39.395255" lon="16.08579"><ele>1379.0</ele><time>2026-04-27T08:28:33.708Z</time></trkpt><trkpt lat="39.395165" lon="16.0857683"><ele>1378.0</ele><time>2026-04-27T08:28:35.707Z</time></trkpt><trkpt lat="39.3950867" lon="16.08577"><ele>1377.0</ele><time>2026-04-27T08:28:37.705Z</time></trkpt><trkpt lat="39.3949983" lon="16.0857417"><ele>1376.0</ele><time>2026-04-27T08:28:39.703Z</time></trkpt><trkpt lat="39.39489" lon="16.0857317"><ele>1375.0</ele><time>2026-04-27T08:28:41.702Z</time></trkpt><trkpt lat="39.394785" lon="16.085745"><ele>1372.6</ele><time>2026-04-27T08:28:43.704Z</time></trkpt><trkpt lat="39.394675" lon="16.0857517"><ele>1370.2</ele><time>2026-04-27T08:28:45.709Z</time></trkpt><trkpt lat="39.3945617" lon="16.0857683"><ele>1367.8000000000002</ele><time>2026-04-27T08:28:47.702Z</time></trkpt><trkpt lat="39.3944517" lon="16.0858"><ele>1365.4</ele><time>2026-04-27T08:28:49.703Z</time></trkpt><trkpt lat="39.3943817" lon="16.0858183"><ele>1363.0</ele><time>2026-04-27T08:28:51.703Z</time></trkpt><trkpt lat="39.3942933" lon="16.0858017"><ele>1363.0</ele><time>2026-04-27T08:28:54.715Z</time></trkpt><trkpt lat="39.394225" lon="16.085815"><ele>1363.0</ele><time>2026-04-27T08:28:56.776Z</time></trkpt><trkpt lat="39.3941367" lon="16.0858283"><ele>1363.0</ele><time>2026-04-27T08:28:58.712Z</time></trkpt><trkpt lat="39.3940583" lon="16.0858433"><ele>1363.0</ele><time>2026-04-27T08:29:01.699Z</time></trkpt><trkpt lat="39.39393" lon="16.08599"><ele>1363.0</ele><time>2026-04-27T08:29:12.718Z</time></trkpt><trkpt lat="39.39384" lon="16.08601"><ele>1360.4</ele><time>2026-04-27T08:29:14.744Z</time></trkpt><trkpt lat="39.39375" lon="16.0860267"><ele>1357.8000000000002</ele><time>2026-04-27T08:29:16.704Z</time></trkpt><trkpt lat="39.39365" lon="16.0860583"><ele>1355.2</ele><time>2026-04-27T08:29:18.71Z</time></trkpt><trkpt lat="39.3935467" lon="16.08607"><ele>1352.6</ele><time>2026-04-27T08:29:20.748Z</time></trkpt><trkpt lat="39.39345" lon="16.0860633"><ele>1350.0</ele><time>2026-04-27T08:29:22.709Z</time></trkpt><trkpt lat="39.39337" lon="16.0860467"><ele>1350.0</ele><time>2026-04-27T08:29:24.709Z</time></trkpt><trkpt lat="39.3932833" lon="16.0860233"><ele>1350.0</ele><time>2026-04-27T08:29:26.768Z</time></trkpt><trkpt lat="39.3932017" lon="16.086015"><ele>1350.0</ele><time>2026-04-27T08:29:28.71Z</time></trkpt><trkpt lat="39.393135" lon="16.0860183"><ele>1350.0</ele><time>2026-04-27T08:29:30.711Z</time></trkpt><trkpt lat="39.3930517" lon="16.0860183"><ele>1350.0</ele><time>2026-04-27T08:29:34.712Z</time></trkpt><trkpt lat="39.3929733" lon="16.0859883"><ele>1350.0</ele><time>2026-04-27T08:29:38.748Z</time></trkpt><trkpt lat="39.39289" lon="16.0859783"><ele>1345.3333333333333</ele><time>2026-04-27T08:29:41.714Z</time></trkpt><trkpt lat="39.3928233" lon="16.08598"><ele>1340.6666666666667</ele><time>2026-04-27T08:29:44.746Z</time></trkpt><trkpt lat="39.3927317" lon="16.0859933"><ele>1336.0</ele><time>2026-04-27T08:29:48.71Z</time></trkpt><trkpt lat="39.3926567" lon="16.08601"><ele>1331.3333333333335</ele><time>2026-04-27T08:29:50.749Z</time></trkpt><trkpt lat="39.392565" lon="16.086025"><ele>1326.6666666666667</ele><time>2026-04-27T08:29:52.713Z</time></trkpt><trkpt lat="39.3924783" lon="16.0860567"><ele>1322.0</ele><time>2026-04-27T08:29:54.709Z</time></trkpt><trkpt lat="39.3923633" lon="16.0861133"><ele>1322.0</ele><time>2026-04-27T08:29:56.779Z</time></trkpt><trkpt lat="39.3923033" lon="16.0861483"><ele>1322.0</ele><time>2026-04-27T08:29:57.711Z</time></trkpt><trkpt lat="39.3922433" lon="16.0861783"><ele>1322.0</ele><time>2026-04-27T08:29:58.707Z</time></trkpt><trkpt lat="39.3921433" lon="16.086205"><ele>1322.0</ele><time>2026-04-27T08:30:00.714Z</time></trkpt><trkpt lat="39.39207" lon="16.0862167"><ele>1322.0</ele><time>2026-04-27T08:30:02.76Z</time></trkpt><trkpt lat="39.3919917" lon="16.0861833"><ele>1322.0</ele><time>2026-04-27T08:30:05.707Z</time></trkpt><trkpt lat="39.391925" lon="16.086155"><ele>1318.3333333333335</ele><time>2026-04-27T08:30:08.742Z</time></trkpt><trkpt lat="39.391865" lon="16.086185"><ele>1314.6666666666667</ele><time>2026-04-27T08:30:12.709Z</time></trkpt><trkpt lat="39.3917867" lon="16.0862433"><ele>1311.0</ele><time>2026-04-27T08:30:14.737Z</time></trkpt><trkpt lat="39.3917167" lon="16.0863033"><ele>1307.3333333333333</ele><time>2026-04-27T08:30:16.71Z</time></trkpt><trkpt lat="39.39165" lon="16.08638"><ele>1303.6666666666665</ele><time>2026-04-27T08:30:19.712Z</time></trkpt><trkpt lat="39.3915917" lon="16.086455"><ele>1300.0</ele><time>2026-04-27T08:30:22.708Z</time></trkpt><trkpt lat="39.39152" lon="16.086545"><ele>1299.6</ele><time>2026-04-27T08:30:25.706Z</time></trkpt><trkpt lat="39.3914533" lon="16.0866117"><ele>1299.2</ele><time>2026-04-27T08:30:27.708Z</time></trkpt><trkpt lat="39.391375" lon="16.08668"><ele>1298.8000000000002</ele><time>2026-04-27T08:30:29.706Z</time></trkpt><trkpt lat="39.3912983" lon="16.0867283"><ele>1298.4</ele><time>2026-04-27T08:30:31.71Z</time></trkpt><trkpt lat="39.3912117" lon="16.0867617"><ele>1298.0</ele><time>2026-04-27T08:30:33.71Z</time></trkpt><trkpt lat="39.391115" lon="16.0868067"><ele>1295.6000000000001</ele><time>2026-04-27T08:30:35.71Z</time></trkpt><trkpt lat="39.3910067" lon="16.0868883"><ele>1293.2</ele><time>2026-04-27T08:30:37.707Z</time></trkpt><trkpt lat="39.3909417" lon="16.08694"><ele>1290.8</ele><time>2026-04-27T08:30:38.741Z</time></trkpt><trkpt lat="39.3908833" lon="16.08699"><ele>1288.4</ele><time>2026-04-27T08:30:39.71Z</time></trkpt><trkpt lat="39.3908117" lon="16.0870833"><ele>1286.0</ele><time>2026-04-27T08:30:41.708Z</time></trkpt><trkpt lat="39.3907383" lon="16.08714"><ele>1286.0</ele><time>2026-04-27T08:30:43.705Z</time></trkpt><trkpt lat="39.3906517" lon="16.087145"><ele>1286.0</ele><time>2026-04-27T08:30:46.717Z</time></trkpt><trkpt lat="39.3905483" lon="16.0871383"><ele>1286.0</ele><time>2026-04-27T08:30:48.713Z</time></trkpt><trkpt lat="39.3904833" lon="16.0871417"><ele>1286.0</ele><time>2026-04-27T08:30:49.709Z</time></trkpt><trkpt lat="39.3904133" lon="16.0871467"><ele>1286.0</ele><time>2026-04-27T08:30:50.745Z</time></trkpt><trkpt lat="39.39034" lon="16.0871467"><ele>1286.0</ele><time>2026-04-27T08:30:51.705Z</time></trkpt><trkpt lat="39.3902717" lon="16.0871417"><ele>1283.0</ele><time>2026-04-27T08:30:52.718Z</time></trkpt><trkpt lat="39.3901533" lon="16.0871383"><ele>1280.0</ele><time>2026-04-27T08:30:54.715Z</time></trkpt><trkpt lat="39.3900533" lon="16.08715"><ele>1277.0</ele><time>2026-04-27T08:30:56.757Z</time></trkpt><trkpt lat="39.3899533" lon="16.0872317"><ele>1274.0</ele><time>2026-04-27T08:30:58.705Z</time></trkpt><trkpt lat="39.389895" lon="16.0872833"><ele>1271.0</ele><time>2026-04-27T08:30:59.709Z</time></trkpt><trkpt lat="39.389835" lon="16.0873333"><ele>1271.0</ele><time>2026-04-27T08:31:00.712Z</time></trkpt><trkpt lat="39.3897783" lon="16.0873817"><ele>1271.0</ele><time>2026-04-27T08:31:01.714Z</time></trkpt><trkpt lat="39.3897283" lon="16.0874333"><ele>1271.0</ele><time>2026-04-27T08:31:02.763Z</time></trkpt><trkpt lat="39.3896467" lon="16.0874967"><ele>1271.0</ele><time>2026-04-27T08:31:04.707Z</time></trkpt><trkpt lat="39.38959" lon="16.087555"><ele>1271.0</ele><time>2026-04-27T08:31:07.711Z</time></trkpt><trkpt lat="39.3895317" lon="16.0876017"><ele>1271.0</ele><time>2026-04-27T08:31:09.702Z</time></trkpt><trkpt lat="39.3894483" lon="16.0876983"><ele>1272.0</ele><time>2026-04-27T08:31:11.705Z</time></trkpt><trkpt lat="39.3894067" lon="16.0877633"><ele>1273.0</ele><time>2026-04-27T08:31:12.711Z</time></trkpt><trkpt lat="39.389335" lon="16.0878567"><ele>1274.0</ele><time>2026-04-27T08:31:14.749Z</time></trkpt><trkpt lat="39.3892517" lon="16.087985"><ele>1275.0</ele><time>2026-04-27T08:31:16.709Z</time></trkpt><trkpt lat="39.3892017" lon="16.08806"><ele>1276.0</ele><time>2026-04-27T08:31:17.705Z</time></trkpt><trkpt lat="39.38913" lon="16.0881333"><ele>1276.0</ele><time>2026-04-27T08:31:18.71Z</time></trkpt><trkpt lat="39.3890717" lon="16.0882067"><ele>1276.0</ele><time>2026-04-27T08:31:19.707Z</time></trkpt><trkpt lat="39.3890517" lon="16.0882933"><ele>1276.0</ele><time>2026-04-27T08:31:20.749Z</time></trkpt><trkpt lat="39.389005" lon="16.0884033"><ele>1276.0</ele><time>2026-04-27T08:31:21.704Z</time></trkpt><trkpt lat="39.3889667" lon="16.0884933"><ele>1276.0</ele><time>2026-04-27T08:31:22.701Z</time></trkpt><trkpt lat="39.3889167" lon="16.0885917"><ele>1276.0</ele><time>2026-04-27T08:31:23.712Z</time></trkpt><trkpt lat="39.388875" lon="16.08868"><ele>1277.8333333333333</ele><time>2026-04-27T08:31:24.703Z</time></trkpt><trkpt lat="39.3888483" lon="16.08878"><ele>1279.6666666666665</ele><time>2026-04-27T08:31:25.711Z</time></trkpt><trkpt lat="39.3887867" lon="16.0888833"><ele>1281.5</ele><time>2026-04-27T08:31:26.751Z</time></trkpt><trkpt lat="39.3887183" lon="16.0889483"><ele>1283.3333333333333</ele><time>2026-04-27T08:31:27.702Z</time></trkpt><trkpt lat="39.3886483" lon="16.089015"><ele>1285.1666666666667</ele><time>2026-04-27T08:31:28.704Z</time></trkpt><trkpt lat="39.3885867" lon="16.0890833"><ele>1287.0</ele><time>2026-04-27T08:31:29.714Z</time></trkpt><trkpt lat="39.3885183" lon="16.0891433"><ele>1287.5</ele><time>2026-04-27T08:31:30.706Z</time></trkpt><trkpt lat="39.3884433" lon="16.08919"><ele>1288.0</ele><time>2026-04-27T08:31:31.704Z</time></trkpt><trkpt lat="39.38837" lon="16.0892317"><ele>1288.5</ele><time>2026-04-27T08:31:32.757Z</time></trkpt><trkpt lat="39.3883" lon="16.08926"><ele>1289.0</ele><time>2026-04-27T08:31:33.707Z</time></trkpt><trkpt lat="39.3882317" lon="16.089275"><ele>1289.5</ele><time>2026-04-27T08:31:34.712Z</time></trkpt><trkpt lat="39.3881583" lon="16.089265"><ele>1290.0</ele><time>2026-04-27T08:31:35.71Z</time></trkpt><trkpt lat="39.3880833" lon="16.0892433"><ele>1288.2</ele><time>2026-04-27T08:31:36.711Z</time></trkpt><trkpt lat="39.3880017" lon="16.0892367"><ele>1286.4</ele><time>2026-04-27T08:31:37.715Z</time></trkpt><trkpt lat="39.3878967" lon="16.08922"><ele>1284.6</ele><time>2026-04-27T08:31:38.744Z</time></trkpt><trkpt lat="39.3878083" lon="16.089195"><ele>1282.8</ele><time>2026-04-27T08:31:39.706Z</time></trkpt><trkpt lat="39.3877067" lon="16.089185"><ele>1281.0</ele><time>2026-04-27T08:31:40.707Z</time></trkpt><trkpt lat="39.38761" lon="16.0891833"><ele>1281.0</ele><time>2026-04-27T08:31:41.713Z</time></trkpt><trkpt lat="39.3875267" lon="16.0891933"><ele>1281.0</ele><time>2026-04-27T08:31:42.704Z</time></trkpt><trkpt lat="39.38746" lon="16.0892133"><ele>1281.0</ele><time>2026-04-27T08:31:43.71Z</time></trkpt><trkpt lat="39.3874267" lon="16.08931"><ele>1281.0</ele><time>2026-04-27T08:31:44.751Z</time></trkpt><trkpt lat="39.3873967" lon="16.0893933"><ele>1281.0</ele><time>2026-04-27T08:31:45.711Z</time></trkpt><trkpt lat="39.3873567" lon="16.089495"><ele>1281.0</ele><time>2026-04-27T08:31:46.712Z</time></trkpt><trkpt lat="39.3873217" lon="16.0895983"><ele>1281.0</ele><time>2026-04-27T08:31:47.71Z</time></trkpt><trkpt lat="39.387285" lon="16.0897133"><ele>1281.0</ele><time>2026-04-27T08:31:48.712Z</time></trkpt><trkpt lat="39.38725" lon="16.0898133"><ele>1281.0</ele><time>2026-04-27T08:31:49.708Z</time></trkpt><trkpt lat="39.3872067" lon="16.08991"><ele>1281.0</ele><time>2026-04-27T08:31:50.747Z</time></trkpt><trkpt lat="39.3871483" lon="16.0899983"><ele>1281.0</ele><time>2026-04-27T08:31:51.707Z</time></trkpt><trkpt lat="39.38709" lon="16.0900767"><ele>1281.0</ele><time>2026-04-27T08:31:52.714Z</time></trkpt><trkpt lat="39.387035" lon="16.0901383"><ele>1279.6</ele><time>2026-04-27T08:31:53.704Z</time></trkpt><trkpt lat="39.38698" lon="16.0901817"><ele>1278.1999999999998</ele><time>2026-04-27T08:31:54.708Z</time></trkpt><trkpt lat="39.3868767" lon="16.0902367"><ele>1276.8000000000002</ele><time>2026-04-27T08:31:56.77Z</time></trkpt><trkpt lat="39.38676" lon="16.0902233"><ele>1275.4</ele><time>2026-04-27T08:31:58.711Z</time></trkpt><trkpt lat="39.3866633" lon="16.090145"><ele>1274.0</ele><time>2026-04-27T08:32:00.708Z</time></trkpt><trkpt lat="39.3865867" lon="16.090095"><ele>1274.0</ele><time>2026-04-27T08:32:02.762Z</time></trkpt><trkpt lat="39.3865533" lon="16.089995"><ele>1274.0</ele><time>2026-04-27T08:32:04.703Z</time></trkpt><trkpt lat="39.3864967" lon="16.0899"><ele>1274.0</ele><time>2026-04-27T08:32:06.711Z</time></trkpt><trkpt lat="39.3864183" lon="16.0898383"><ele>1274.0</ele><time>2026-04-27T08:32:09.708Z</time></trkpt><trkpt lat="39.3863783" lon="16.0897567"><ele>1274.0</ele><time>2026-04-27T08:32:11.711Z</time></trkpt><trkpt lat="39.3863533" lon="16.0896533"><ele>1274.0</ele><time>2026-04-27T08:32:13.714Z</time></trkpt><trkpt lat="39.3863267" lon="16.08955"><ele>1267.8333333333335</ele><time>2026-04-27T08:32:14.746Z</time></trkpt><trkpt lat="39.3863017" lon="16.0894617"><ele>1261.6666666666667</ele><time>2026-04-27T08:32:15.71Z</time></trkpt><trkpt lat="39.386295" lon="16.0893567"><ele>1255.5</ele><time>2026-04-27T08:32:17.71Z</time></trkpt><trkpt lat="39.38633" lon="16.0892617"><ele>1249.3333333333333</ele><time>2026-04-27T08:32:19.711Z</time></trkpt><trkpt lat="39.3863417" lon="16.0891667"><ele>1243.1666666666665</ele><time>2026-04-27T08:32:21.706Z</time></trkpt><trkpt lat="39.38633" lon="16.0890583"><ele>1237.0</ele><time>2026-04-27T08:32:23.709Z</time></trkpt><trkpt lat="39.3863083" lon="16.0889333"><ele>1235.8333333333333</ele><time>2026-04-27T08:32:25.709Z</time></trkpt><trkpt lat="39.3862833" lon="16.0888467"><ele>1234.6666666666665</ele><time>2026-04-27T08:32:26.778Z</time></trkpt><trkpt lat="39.386235" lon="16.0887383"><ele>1233.5</ele><time>2026-04-27T08:32:27.704Z</time></trkpt><trkpt lat="39.3861917" lon="16.0886533"><ele>1232.3333333333333</ele><time>2026-04-27T08:32:28.709Z</time></trkpt><trkpt lat="39.3861517" lon="16.0885733"><ele>1231.1666666666667</ele><time>2026-04-27T08:32:29.703Z</time></trkpt><trkpt lat="39.3861117" lon="16.0884883"><ele>1230.0</ele><time>2026-04-27T08:32:30.706Z</time></trkpt><trkpt lat="39.3860517" lon="16.0884"><ele>1230.0</ele><time>2026-04-27T08:32:31.711Z</time></trkpt><trkpt lat="39.38598" lon="16.0883233"><ele>1230.0</ele><time>2026-04-27T08:32:32.756Z</time></trkpt><trkpt lat="39.3859033" lon="16.0882517"><ele>1230.0</ele><time>2026-04-27T08:32:33.707Z</time></trkpt><trkpt lat="39.3858283" lon="16.0881933"><ele>1230.0</ele><time>2026-04-27T08:32:34.708Z</time></trkpt><trkpt lat="39.3857617" lon="16.0881617"><ele>1230.0</ele><time>2026-04-27T08:32:35.71Z</time></trkpt><trkpt lat="39.3856783" lon="16.0881283"><ele>1230.0</ele><time>2026-04-27T08:32:36.713Z</time></trkpt><trkpt lat="39.3856017" lon="16.0881217"><ele>1226.0</ele><time>2026-04-27T08:32:37.704Z</time></trkpt><trkpt lat="39.3855233" lon="16.0881217"><ele>1222.0</ele><time>2026-04-27T08:32:38.751Z</time></trkpt><trkpt lat="39.3854583" lon="16.0881417"><ele>1218.0</ele><time>2026-04-27T08:32:39.705Z</time></trkpt><trkpt lat="39.385365" lon="16.0882483"><ele>1214.0</ele><time>2026-04-27T08:32:41.703Z</time></trkpt><trkpt lat="39.385295" lon="16.0883583"><ele>1210.0</ele><time>2026-04-27T08:32:43.705Z</time></trkpt><trkpt lat="39.3852817" lon="16.0884783"><ele>1209.1666666666665</ele><time>2026-04-27T08:32:45.704Z</time></trkpt><trkpt lat="39.385325" lon="16.0885867"><ele>1208.3333333333333</ele><time>2026-04-27T08:32:46.711Z</time></trkpt><trkpt lat="39.3853767" lon="16.0887083"><ele>1207.5</ele><time>2026-04-27T08:32:47.709Z</time></trkpt><trkpt lat="39.3854067" lon="16.08878"><ele>1206.6666666666667</ele><time>2026-04-27T08:32:48.704Z</time></trkpt><trkpt lat="39.3854417" lon="16.0888883"><ele>1205.8333333333335</ele><time>2026-04-27T08:32:49.708Z</time></trkpt><trkpt lat="39.385465" lon="16.0889833"><ele>1205.0</ele><time>2026-04-27T08:32:50.749Z</time></trkpt><trkpt lat="39.385475" lon="16.0890783"><ele>1207.0</ele><time>2026-04-27T08:32:51.705Z</time></trkpt><trkpt lat="39.38546" lon="16.089235"><ele>1209.0</ele><time>2026-04-27T08:32:53.713Z</time></trkpt><trkpt lat="39.3853633" lon="16.08934"><ele>1211.0</ele><time>2026-04-27T08:32:55.707Z</time></trkpt><trkpt lat="39.38528" lon="16.0893583"><ele>1213.0</ele><time>2026-04-27T08:32:56.755Z</time></trkpt><trkpt lat="39.3851633" lon="16.089375"><ele>1213.0</ele><time>2026-04-27T08:32:57.706Z</time></trkpt><trkpt lat="39.38504" lon="16.089375"><ele>1213.0</ele><time>2026-04-27T08:32:58.707Z</time></trkpt><trkpt lat="39.3849267" lon="16.0893867"><ele>1213.0</ele><time>2026-04-27T08:32:59.709Z</time></trkpt><trkpt lat="39.3848083" lon="16.089425"><ele>1213.0</ele><time>2026-04-27T08:33:00.709Z</time></trkpt><trkpt lat="39.3847" lon="16.0894717"><ele>1207.6666666666665</ele><time>2026-04-27T08:33:01.704Z</time></trkpt><trkpt lat="39.3846133" lon="16.0895267"><ele>1202.3333333333333</ele><time>2026-04-27T08:33:02.761Z</time></trkpt><trkpt lat="39.384535" lon="16.089585"><ele>1197.0</ele><time>2026-04-27T08:33:03.705Z</time></trkpt><trkpt lat="39.3844683" lon="16.0896617"><ele>1191.6666666666667</ele><time>2026-04-27T08:33:04.716Z</time></trkpt><trkpt lat="39.3844083" lon="16.089725"><ele>1186.3333333333335</ele><time>2026-04-27T08:33:05.706Z</time></trkpt><trkpt lat="39.3843483" lon="16.0897917"><ele>1181.0</ele><time>2026-04-27T08:33:06.712Z</time></trkpt><trkpt lat="39.3842883" lon="16.0898517"><ele>1181.0</ele><time>2026-04-27T08:33:07.703Z</time></trkpt><trkpt lat="39.3842317" lon="16.0899"><ele>1181.0</ele><time>2026-04-27T08:33:08.745Z</time></trkpt><trkpt lat="39.38416" lon="16.0900233"><ele>1181.0</ele><time>2026-04-27T08:33:10.711Z</time></trkpt><trkpt lat="39.3841" lon="16.0901367"><ele>1181.0</ele><time>2026-04-27T08:33:11.705Z</time></trkpt><trkpt lat="39.3840683" lon="16.0902617"><ele>1181.0</ele><time>2026-04-27T08:33:12.711Z</time></trkpt><trkpt lat="39.3840467" lon="16.0903833"><ele>1178.0</ele><time>2026-04-27T08:33:13.706Z</time></trkpt><trkpt lat="39.3840183" lon="16.0904867"><ele>1175.0</ele><time>2026-04-27T08:33:14.75Z</time></trkpt><trkpt lat="39.3839983" lon="16.0905817"><ele>1172.0</ele><time>2026-04-27T08:33:15.708Z</time></trkpt><trkpt lat="39.383975" lon="16.090665"><ele>1169.0</ele><time>2026-04-27T08:33:16.711Z</time></trkpt><trkpt lat="39.383915" lon="16.0906983"><ele>1166.0</ele><time>2026-04-27T08:33:17.705Z</time></trkpt><trkpt lat="39.383775" lon="16.0907117"><ele>1163.0</ele><time>2026-04-27T08:33:19.713Z</time></trkpt><trkpt lat="39.3837133" lon="16.0907367"><ele>1167.1666666666667</ele><time>2026-04-27T08:33:20.747Z</time></trkpt><trkpt lat="39.38364" lon="16.0907633"><ele>1171.3333333333335</ele><time>2026-04-27T08:33:21.708Z</time></trkpt><trkpt lat="39.3835517" lon="16.0907783"><ele>1175.5</ele><time>2026-04-27T08:33:22.71Z</time></trkpt><trkpt lat="39.3834833" lon="16.0907933"><ele>1179.6666666666667</ele><time>2026-04-27T08:33:23.706Z</time></trkpt><trkpt lat="39.3834067" lon="16.0908183"><ele>1183.8333333333333</ele><time>2026-04-27T08:33:24.715Z</time></trkpt><trkpt lat="39.3833333" lon="16.09085"><ele>1188.0</ele><time>2026-04-27T08:33:25.708Z</time></trkpt><trkpt lat="39.3832617" lon="16.0908983"><ele>1188.0</ele><time>2026-04-27T08:33:26.752Z</time></trkpt><trkpt lat="39.3831917" lon="16.0909683"><ele>1188.0</ele><time>2026-04-27T08:33:27.702Z</time></trkpt><trkpt lat="39.383115" lon="16.0910317"><ele>1188.0</ele><time>2026-04-27T08:33:28.708Z</time></trkpt><trkpt lat="39.3830383" lon="16.09109"><ele>1188.0</ele><time>2026-04-27T08:33:29.706Z</time></trkpt><trkpt lat="39.38297" lon="16.09115"><ele>1188.0</ele><time>2026-04-27T08:33:30.71Z</time></trkpt><trkpt lat="39.3829" lon="16.091205"><ele>1188.0</ele><time>2026-04-27T08:33:31.708Z</time></trkpt><trkpt lat="39.382835" lon="16.0912783"><ele>1186.2</ele><time>2026-04-27T08:33:32.761Z</time></trkpt><trkpt lat="39.38277" lon="16.09136"><ele>1184.4</ele><time>2026-04-27T08:33:33.704Z</time></trkpt><trkpt lat="39.382705" lon="16.0914317"><ele>1182.6000000000001</ele><time>2026-04-27T08:33:34.714Z</time></trkpt><trkpt lat="39.3826467" lon="16.0915067"><ele>1180.8</ele><time>2026-04-27T08:33:35.711Z</time></trkpt><trkpt lat="39.3825567" lon="16.091575"><ele>1179.0</ele><time>2026-04-27T08:33:36.706Z</time></trkpt><trkpt lat="39.3824833" lon="16.0916383"><ele>1179.0</ele><time>2026-04-27T08:33:37.711Z</time></trkpt><trkpt lat="39.3824133" lon="16.0916883"><ele>1179.0</ele><time>2026-04-27T08:33:38.746Z</time></trkpt><trkpt lat="39.3823133" lon="16.0917933"><ele>1179.0</ele><time>2026-04-27T08:33:40.71Z</time></trkpt><trkpt lat="39.382255" lon="16.0918433"><ele>1179.0</ele><time>2026-04-27T08:33:41.711Z</time></trkpt><trkpt lat="39.3821883" lon="16.0918833"><ele>1179.0</ele><time>2026-04-27T08:33:42.714Z</time></trkpt><trkpt lat="39.382115" lon="16.091905"><ele>1179.0</ele><time>2026-04-27T08:33:43.713Z</time></trkpt><trkpt lat="39.38204" lon="16.0919183"><ele>1175.8</ele><time>2026-04-27T08:33:44.744Z</time></trkpt><trkpt lat="39.3819533" lon="16.0919333"><ele>1172.6000000000001</ele><time>2026-04-27T08:33:45.703Z</time></trkpt><trkpt lat="39.3818667" lon="16.091935"><ele>1169.4</ele><time>2026-04-27T08:33:46.705Z</time></trkpt><trkpt lat="39.3817667" lon="16.091925"><ele>1166.2</ele><time>2026-04-27T08:33:47.713Z</time></trkpt><trkpt lat="39.3816767" lon="16.0919167"><ele>1163.0</ele><time>2026-04-27T08:33:48.714Z</time></trkpt><trkpt lat="39.38158" lon="16.09192"><ele>1163.0</ele><time>2026-04-27T08:33:49.703Z</time></trkpt><trkpt lat="39.38148" lon="16.0919417"><ele>1163.0</ele><time>2026-04-27T08:33:50.751Z</time></trkpt><trkpt lat="39.3813833" lon="16.09198"><ele>1163.0</ele><time>2026-04-27T08:33:51.711Z</time></trkpt><trkpt lat="39.381285" lon="16.0920217"><ele>1163.0</ele><time>2026-04-27T08:33:52.712Z</time></trkpt><trkpt lat="39.381195" lon="16.092075"><ele>1163.0</ele><time>2026-04-27T08:33:53.703Z</time></trkpt><trkpt lat="39.381105" lon="16.0921317"><ele>1162.0</ele><time>2026-04-27T08:33:54.711Z</time></trkpt><trkpt lat="39.3810117" lon="16.0921833"><ele>1161.0</ele><time>2026-04-27T08:33:55.703Z</time></trkpt><trkpt lat="39.3809267" lon="16.0922183"><ele>1160.0</ele><time>2026-04-27T08:33:56.762Z</time></trkpt><trkpt lat="39.3808367" lon="16.092255"><ele>1159.0</ele><time>2026-04-27T08:33:57.707Z</time></trkpt><trkpt lat="39.38075" lon="16.09228"><ele>1158.0</ele><time>2026-04-27T08:33:58.706Z</time></trkpt><trkpt lat="39.380655" lon="16.092305"><ele>1158.0</ele><time>2026-04-27T08:33:59.713Z</time></trkpt><trkpt lat="39.3805483" lon="16.092335"><ele>1158.0</ele><time>2026-04-27T08:34:00.7Z</time></trkpt><trkpt lat="39.3804433" lon="16.0923533"><ele>1158.0</ele><time>2026-04-27T08:34:01.706Z</time></trkpt><trkpt lat="39.3803267" lon="16.0923833"><ele>1158.0</ele><time>2026-04-27T08:34:02.757Z</time></trkpt><trkpt lat="39.3802283" lon="16.0924"><ele>1158.0</ele><time>2026-04-27T08:34:03.703Z</time></trkpt><trkpt lat="39.380115" lon="16.0924317"><ele>1158.4</ele><time>2026-04-27T08:34:04.71Z</time></trkpt><trkpt lat="39.3800117" lon="16.0924633"><ele>1158.8</ele><time>2026-04-27T08:34:05.707Z</time></trkpt><trkpt lat="39.37992" lon="16.0925033"><ele>1159.2</ele><time>2026-04-27T08:34:06.71Z</time></trkpt><trkpt lat="39.3798233" lon="16.0925467"><ele>1159.6</ele><time>2026-04-27T08:34:07.711Z</time></trkpt><trkpt lat="39.3797333" lon="16.0926017"><ele>1160.0</ele><time>2026-04-27T08:34:08.743Z</time></trkpt><trkpt lat="39.37964" lon="16.0926583"><ele>1160.0</ele><time>2026-04-27T08:34:09.706Z</time></trkpt><trkpt lat="39.3795683" lon="16.0927033"><ele>1160.0</ele><time>2026-04-27T08:34:10.708Z</time></trkpt><trkpt lat="39.3794917" lon="16.0927633"><ele>1160.0</ele><time>2026-04-27T08:34:11.707Z</time></trkpt><trkpt lat="39.379415" lon="16.09281"><ele>1160.0</ele><time>2026-04-27T08:34:12.706Z</time></trkpt><trkpt lat="39.37934" lon="16.092845"><ele>1160.0</ele><time>2026-04-27T08:34:13.708Z</time></trkpt><trkpt lat="39.379255" lon="16.0928667"><ele>1160.0</ele><time>2026-04-27T08:34:14.745Z</time></trkpt><trkpt lat="39.379145" lon="16.0928683"><ele>1160.0</ele><time>2026-04-27T08:34:15.712Z</time></trkpt><trkpt lat="39.3790483" lon="16.0928783"><ele>1160.0</ele><time>2026-04-27T08:34:16.71Z</time></trkpt><trkpt lat="39.37897" lon="16.0928917"><ele>1160.0</ele><time>2026-04-27T08:34:17.708Z</time></trkpt><trkpt lat="39.3789067" lon="16.092905"><ele>1160.0</ele><time>2026-04-27T08:34:18.716Z</time></trkpt><trkpt lat="39.3787967" lon="16.0929433"><ele>1160.0</ele><time>2026-04-27T08:34:20.746Z</time></trkpt><trkpt lat="39.378685" lon="16.0929367"><ele>1159.3333333333335</ele><time>2026-04-27T08:34:22.71Z</time></trkpt><trkpt lat="39.3786183" lon="16.0929217"><ele>1158.6666666666667</ele><time>2026-04-27T08:34:23.713Z</time></trkpt><trkpt lat="39.37854" lon="16.0928967"><ele>1158.0</ele><time>2026-04-27T08:34:24.714Z</time></trkpt><trkpt lat="39.3784583" lon="16.0928567"><ele>1157.3333333333333</ele><time>2026-04-27T08:34:25.703Z</time></trkpt><trkpt lat="39.378365" lon="16.0928067"><ele>1156.6666666666665</ele><time>2026-04-27T08:34:26.755Z</time></trkpt><trkpt lat="39.3782783" lon="16.0927367"><ele>1156.0</ele><time>2026-04-27T08:34:27.71Z</time></trkpt><trkpt lat="39.378205" lon="16.0926817"><ele>1156.0</ele><time>2026-04-27T08:34:28.707Z</time></trkpt><trkpt lat="39.37812" lon="16.0926083"><ele>1156.0</ele><time>2026-04-27T08:34:29.704Z</time></trkpt><trkpt lat="39.37804" lon="16.0925183"><ele>1156.0</ele><time>2026-04-27T08:34:30.711Z</time></trkpt><trkpt lat="39.37796" lon="16.0924167"><ele>1156.0</ele><time>2026-04-27T08:34:31.705Z</time></trkpt><trkpt lat="39.37789" lon="16.0923283"><ele>1156.0</ele><time>2026-04-27T08:34:32.755Z</time></trkpt><trkpt lat="39.3778067" lon="16.0922283"><ele>1153.7142857142858</ele><time>2026-04-27T08:34:33.708Z</time></trkpt><trkpt lat="39.3777517" lon="16.09216"><ele>1151.4285714285713</ele><time>2026-04-27T08:34:34.706Z</time></trkpt><trkpt lat="39.37769" lon="16.0921283"><ele>1149.142857142857</ele><time>2026-04-27T08:34:35.711Z</time></trkpt><trkpt lat="39.377615" lon="16.0921033"><ele>1146.857142857143</ele><time>2026-04-27T08:34:36.71Z</time></trkpt><trkpt lat="39.377545" lon="16.092105"><ele>1144.5714285714287</ele><time>2026-04-27T08:34:37.709Z</time></trkpt><trkpt lat="39.3774683" lon="16.09213"><ele>1142.2857142857142</ele><time>2026-04-27T08:34:38.745Z</time></trkpt><trkpt lat="39.3773917" lon="16.09216"><ele>1140.0</ele><time>2026-04-27T08:34:39.71Z</time></trkpt><trkpt lat="39.3772933" lon="16.0921983"><ele>1140.0</ele><time>2026-04-27T08:34:40.709Z</time></trkpt><trkpt lat="39.3772083" lon="16.09221"><ele>1140.0</ele><time>2026-04-27T08:34:41.702Z</time></trkpt><trkpt lat="39.377115" lon="16.092215"><ele>1140.0</ele><time>2026-04-27T08:34:42.717Z</time></trkpt><trkpt lat="39.377015" lon="16.0922017"><ele>1140.0</ele><time>2026-04-27T08:34:43.706Z</time></trkpt><trkpt lat="39.3769" lon="16.09217"><ele>1140.0</ele><time>2026-04-27T08:34:44.753Z</time></trkpt><trkpt lat="39.3767783" lon="16.09215"><ele>1140.75</ele><time>2026-04-27T08:34:45.705Z</time></trkpt><trkpt lat="39.3766583" lon="16.09214"><ele>1141.5</ele><time>2026-04-27T08:34:46.706Z</time></trkpt><trkpt lat="39.37651" lon="16.0921383"><ele>1142.25</ele><time>2026-04-27T08:34:47.706Z</time></trkpt><trkpt lat="39.3763567" lon="16.0921483"><ele>1143.0</ele><time>2026-04-27T08:34:48.702Z</time></trkpt><trkpt lat="39.3762" lon="16.09217"><ele>1143.0</ele><time>2026-04-27T08:34:49.705Z</time></trkpt><trkpt lat="39.376035" lon="16.0921933"><ele>1143.0</ele><time>2026-04-27T08:34:50.744Z</time></trkpt><trkpt lat="39.3758683" lon="16.092215"><ele>1143.0</ele><time>2026-04-27T08:34:51.715Z</time></trkpt><trkpt lat="39.3757067" lon="16.0922317"><ele>1143.0</ele><time>2026-04-27T08:34:52.711Z</time></trkpt><trkpt lat="39.375535" lon="16.09224"><ele>1143.0</ele><time>2026-04-27T08:34:53.707Z</time></trkpt><trkpt lat="39.3753867" lon="16.0922467"><ele>1143.0</ele><time>2026-04-27T08:34:54.71Z</time></trkpt><trkpt lat="39.375245" lon="16.092245"><ele>1143.5</ele><time>2026-04-27T08:34:55.704Z</time></trkpt><trkpt lat="39.3751117" lon="16.0922567"><ele>1144.0</ele><time>2026-04-27T08:34:56.774Z</time></trkpt><trkpt lat="39.3749817" lon="16.092275"><ele>1144.5</ele><time>2026-04-27T08:34:57.709Z</time></trkpt><trkpt lat="39.374855" lon="16.0923"><ele>1145.0</ele><time>2026-04-27T08:34:58.707Z</time></trkpt><trkpt lat="39.374725" lon="16.0923467"><ele>1146.75</ele><time>2026-04-27T08:34:59.712Z</time></trkpt><trkpt lat="39.3745967" lon="16.09242"><ele>1148.5</ele><time>2026-04-27T08:35:00.723Z</time></trkpt><trkpt lat="39.3744767" lon="16.0924933"><ele>1150.25</ele><time>2026-04-27T08:35:01.712Z</time></trkpt><trkpt lat="39.3743717" lon="16.0925767"><ele>1152.0</ele><time>2026-04-27T08:35:02.755Z</time></trkpt><trkpt lat="39.3742583" lon="16.0926583"><ele>1152.0</ele><time>2026-04-27T08:35:03.705Z</time></trkpt><trkpt lat="39.3741367" lon="16.0927333"><ele>1152.0</ele><time>2026-04-27T08:35:04.708Z</time></trkpt><trkpt lat="39.374025" lon="16.092805"><ele>1152.0</ele><time>2026-04-27T08:35:05.71Z</time></trkpt><trkpt lat="39.3739133" lon="16.0928583"><ele>1152.0</ele><time>2026-04-27T08:35:06.704Z</time></trkpt><trkpt lat="39.3737917" lon="16.0929083"><ele>1149.25</ele><time>2026-04-27T08:35:07.706Z</time></trkpt><trkpt lat="39.373665" lon="16.0929367"><ele>1146.5</ele><time>2026-04-27T08:35:08.747Z</time></trkpt><trkpt lat="39.37352" lon="16.0929583"><ele>1143.75</ele><time>2026-04-27T08:35:09.706Z</time></trkpt><trkpt lat="39.3733967" lon="16.092995"><ele>1141.0</ele><time>2026-04-27T08:35:10.708Z</time></trkpt><trkpt lat="39.3732783" lon="16.09305"><ele>1141.0</ele><time>2026-04-27T08:35:11.708Z</time></trkpt><trkpt lat="39.3731533" lon="16.0931133"><ele>1141.0</ele><time>2026-04-27T08:35:12.71Z</time></trkpt><trkpt lat="39.373025" lon="16.0931917"><ele>1141.0</ele><time>2026-04-27T08:35:13.718Z</time></trkpt><trkpt lat="39.372895" lon="16.09329"><ele>1141.0</ele><time>2026-04-27T08:35:14.743Z</time></trkpt><trkpt lat="39.3727583" lon="16.0934067"><ele>1140.6666666666665</ele><time>2026-04-27T08:35:15.708Z</time></trkpt><trkpt lat="39.3726133" lon="16.09353"><ele>1140.3333333333333</ele><time>2026-04-27T08:35:16.705Z</time></trkpt><trkpt lat="39.3724683" lon="16.0936417"><ele>1140.0</ele><time>2026-04-27T08:35:17.706Z</time></trkpt><trkpt lat="39.37233" lon="16.09375"><ele>1140.0</ele><time>2026-04-27T08:35:18.712Z</time></trkpt><trkpt lat="39.3721917" lon="16.09384"><ele>1140.0</ele><time>2026-04-27T08:35:19.709Z</time></trkpt><trkpt lat="39.3720533" lon="16.0939133"><ele>1140.0</ele><time>2026-04-27T08:35:20.743Z</time></trkpt><trkpt lat="39.3719317" lon="16.09397"><ele>1140.0</ele><time>2026-04-27T08:35:21.712Z</time></trkpt><trkpt lat="39.3718283" lon="16.0940283"><ele>1139.6</ele><time>2026-04-27T08:35:22.711Z</time></trkpt><trkpt lat="39.3717267" lon="16.0940617"><ele>1139.2</ele><time>2026-04-27T08:35:23.71Z</time></trkpt><trkpt lat="39.3716217" lon="16.094075"><ele>1138.8</ele><time>2026-04-27T08:35:24.709Z</time></trkpt><trkpt lat="39.3714933" lon="16.09408"><ele>1138.4</ele><time>2026-04-27T08:35:25.703Z</time></trkpt><trkpt lat="39.371385" lon="16.0940933"><ele>1138.0</ele><time>2026-04-27T08:35:26.774Z</time></trkpt><trkpt lat="39.3712733" lon="16.0941067"><ele>1141.25</ele><time>2026-04-27T08:35:27.703Z</time></trkpt><trkpt lat="39.3711467" lon="16.0941317"><ele>1144.5</ele><time>2026-04-27T08:35:28.712Z</time></trkpt><trkpt lat="39.37101" lon="16.0941633"><ele>1147.75</ele><time>2026-04-27T08:35:29.708Z</time></trkpt><trkpt lat="39.3708817" lon="16.094205"><ele>1151.0</ele><time>2026-04-27T08:35:30.706Z</time></trkpt><trkpt lat="39.3707633" lon="16.0942267"><ele>1151.0</ele><time>2026-04-27T08:35:31.712Z</time></trkpt><trkpt lat="39.3706433" lon="16.0942317"><ele>1151.0</ele><time>2026-04-27T08:35:32.755Z</time></trkpt><trkpt lat="39.3705267" lon="16.0942383"><ele>1151.0</ele><time>2026-04-27T08:35:33.705Z</time></trkpt><trkpt lat="39.3704" lon="16.0942283"><ele>1151.0</ele><time>2026-04-27T08:35:34.723Z</time></trkpt><trkpt lat="39.370255" lon="16.0942317"><ele>1151.25</ele><time>2026-04-27T08:35:35.715Z</time></trkpt><trkpt lat="39.370115" lon="16.0942617"><ele>1151.5</ele><time>2026-04-27T08:35:36.712Z</time></trkpt><trkpt lat="39.3699633" lon="16.0943117"><ele>1151.75</ele><time>2026-04-27T08:35:37.709Z</time></trkpt><trkpt lat="39.36982" lon="16.094355"><ele>1152.0</ele><time>2026-04-27T08:35:38.747Z</time></trkpt><trkpt lat="39.3696883" lon="16.094395"><ele>1152.0</ele><time>2026-04-27T08:35:39.7Z</time></trkpt><trkpt lat="39.3695767" lon="16.09442"><ele>1152.0</ele><time>2026-04-27T08:35:40.715Z</time></trkpt><trkpt lat="39.36946" lon="16.0944417"><ele>1152.0</ele><time>2026-04-27T08:35:41.708Z</time></trkpt><trkpt lat="39.36937" lon="16.09442"><ele>1152.0</ele><time>2026-04-27T08:35:42.71Z</time></trkpt><trkpt lat="39.369255" lon="16.094345"><ele>1152.0</ele><time>2026-04-27T08:35:43.703Z</time></trkpt><trkpt lat="39.3691367" lon="16.0942733"><ele>1152.0</ele><time>2026-04-27T08:35:44.743Z</time></trkpt><trkpt lat="39.3690167" lon="16.0942217"><ele>1152.0</ele><time>2026-04-27T08:35:45.706Z</time></trkpt><trkpt lat="39.36888" lon="16.0941683"><ele>1152.0</ele><time>2026-04-27T08:35:46.705Z</time></trkpt><trkpt lat="39.368725" lon="16.0940767"><ele>1151.3333333333333</ele><time>2026-04-27T08:35:47.705Z</time></trkpt><trkpt lat="39.3685683" lon="16.0939617"><ele>1150.6666666666665</ele><time>2026-04-27T08:35:48.709Z</time></trkpt><trkpt lat="39.3684133" lon="16.093855"><ele>1150.0</ele><time>2026-04-27T08:35:49.702Z</time></trkpt><trkpt lat="39.368275" lon="16.09375"><ele>1150.0</ele><time>2026-04-27T08:35:50.742Z</time></trkpt><trkpt lat="39.3681583" lon="16.0936633"><ele>1150.0</ele><time>2026-04-27T08:35:51.703Z</time></trkpt><trkpt lat="39.3680367" lon="16.093605"><ele>1150.0</ele><time>2026-04-27T08:35:52.71Z</time></trkpt><trkpt lat="39.36791" lon="16.0935433"><ele>1150.0</ele><time>2026-04-27T08:35:53.707Z</time></trkpt><trkpt lat="39.3677883" lon="16.0934833"><ele>1152.2</ele><time>2026-04-27T08:35:54.71Z</time></trkpt><trkpt lat="39.367685" lon="16.0934267"><ele>1154.4</ele><time>2026-04-27T08:35:55.71Z</time></trkpt><trkpt lat="39.3675933" lon="16.0933867"><ele>1156.6</ele><time>2026-04-27T08:35:56.735Z</time></trkpt><trkpt lat="39.367515" lon="16.0933733"><ele>1158.8</ele><time>2026-04-27T08:35:57.706Z</time></trkpt><trkpt lat="39.3674333" lon="16.0933967"><ele>1161.0</ele><time>2026-04-27T08:35:58.709Z</time></trkpt><trkpt lat="39.3673483" lon="16.093425"><ele>1161.0</ele><time>2026-04-27T08:35:59.712Z</time></trkpt><trkpt lat="39.3672533" lon="16.0934817"><ele>1161.0</ele><time>2026-04-27T08:36:00.709Z</time></trkpt><trkpt lat="39.36714" lon="16.093465"><ele>1161.0</ele><time>2026-04-27T08:36:01.702Z</time></trkpt><trkpt lat="39.3670083" lon="16.0934133"><ele>1161.0</ele><time>2026-04-27T08:36:02.754Z</time></trkpt><trkpt lat="39.3668767" lon="16.0933883"><ele>1160.5</ele><time>2026-04-27T08:36:03.705Z</time></trkpt><trkpt lat="39.3667417" lon="16.0933417"><ele>1160.0</ele><time>2026-04-27T08:36:04.713Z</time></trkpt><trkpt lat="39.3666133" lon="16.0932967"><ele>1159.5</ele><time>2026-04-27T08:36:05.701Z</time></trkpt><trkpt lat="39.3664683" lon="16.0932817"><ele>1159.0</ele><time>2026-04-27T08:36:06.711Z</time></trkpt><trkpt lat="39.3663717" lon="16.0932983"><ele>1157.75</ele><time>2026-04-27T08:36:07.705Z</time></trkpt><trkpt lat="39.3662433" lon="16.0933033"><ele>1156.5</ele><time>2026-04-27T08:36:08.744Z</time></trkpt><trkpt lat="39.3661267" lon="16.0932933"><ele>1155.25</ele><time>2026-04-27T08:36:09.71Z</time></trkpt><trkpt lat="39.3660167" lon="16.0932617"><ele>1154.0</ele><time>2026-04-27T08:36:10.714Z</time></trkpt><trkpt lat="39.3659067" lon="16.09324"><ele>1153.8</ele><time>2026-04-27T08:36:11.712Z</time></trkpt><trkpt lat="39.3658083" lon="16.0932183"><ele>1153.6000000000001</ele><time>2026-04-27T08:36:12.712Z</time></trkpt><trkpt lat="39.3657017" lon="16.09321"><ele>1153.4</ele><time>2026-04-27T08:36:13.706Z</time></trkpt><trkpt lat="39.3656083" lon="16.0932017"><ele>1153.2</ele><time>2026-04-27T08:36:14.744Z</time></trkpt><trkpt lat="39.365515" lon="16.0932117"><ele>1153.0</ele><time>2026-04-27T08:36:15.712Z</time></trkpt><trkpt lat="39.36541" lon="16.0932483"><ele>1154.5</ele><time>2026-04-27T08:36:16.704Z</time></trkpt><trkpt lat="39.365305" lon="16.0933183"><ele>1156.0</ele><time>2026-04-27T08:36:17.711Z</time></trkpt><trkpt lat="39.365195" lon="16.0934083"><ele>1157.5</ele><time>2026-04-27T08:36:18.709Z</time></trkpt><trkpt lat="39.3651" lon="16.0935083"><ele>1159.0</ele><time>2026-04-27T08:36:19.707Z</time></trkpt><trkpt lat="39.365005" lon="16.09359"><ele>1159.0</ele><time>2026-04-27T08:36:20.745Z</time></trkpt><trkpt lat="39.364905" lon="16.0936583"><ele>1159.0</ele><time>2026-04-27T08:36:21.705Z</time></trkpt><trkpt lat="39.364795" lon="16.093715"><ele>1159.0</ele><time>2026-04-27T08:36:22.706Z</time></trkpt><trkpt lat="39.3646683" lon="16.09375"><ele>1159.0</ele><time>2026-04-27T08:36:23.71Z</time></trkpt><trkpt lat="39.364535" lon="16.0937617"><ele>1158.0</ele><time>2026-04-27T08:36:24.708Z</time></trkpt><trkpt lat="39.3644133" lon="16.0937817"><ele>1157.0</ele><time>2026-04-27T08:36:25.706Z</time></trkpt><trkpt lat="39.3643" lon="16.093805"><ele>1156.0</ele><time>2026-04-27T08:36:26.774Z</time></trkpt><trkpt lat="39.3641833" lon="16.0938433"><ele>1155.0</ele><time>2026-04-27T08:36:27.71Z</time></trkpt><trkpt lat="39.36407" lon="16.0938983"><ele>1155.0</ele><time>2026-04-27T08:36:28.712Z</time></trkpt><trkpt lat="39.363965" lon="16.0940083"><ele>1155.0</ele><time>2026-04-27T08:36:29.703Z</time></trkpt><trkpt lat="39.3638467" lon="16.0941267"><ele>1155.0</ele><time>2026-04-27T08:36:30.712Z</time></trkpt><trkpt lat="39.3637067" lon="16.09422"><ele>1155.0</ele><time>2026-04-27T08:36:31.703Z</time></trkpt><trkpt lat="39.3635783" lon="16.09426"><ele>1151.3333333333333</ele><time>2026-04-27T08:36:32.756Z</time></trkpt><trkpt lat="39.3634383" lon="16.0942717"><ele>1147.6666666666665</ele><time>2026-04-27T08:36:33.704Z</time></trkpt><trkpt lat="39.3632717" lon="16.094275"><ele>1144.0</ele><time>2026-04-27T08:36:34.707Z</time></trkpt><trkpt lat="39.3631133" lon="16.09424"><ele>1143.0</ele><time>2026-04-27T08:36:35.712Z</time></trkpt><trkpt lat="39.3629683" lon="16.0942333"><ele>1142.0</ele><time>2026-04-27T08:36:36.709Z</time></trkpt><trkpt lat="39.3628317" lon="16.094205"><ele>1141.0</ele><time>2026-04-27T08:36:37.712Z</time></trkpt><trkpt lat="39.3627117" lon="16.094185"><ele>1140.0</ele><time>2026-04-27T08:36:38.744Z</time></trkpt><trkpt lat="39.3626183" lon="16.0942083"><ele>1140.0</ele><time>2026-04-27T08:36:39.703Z</time></trkpt><trkpt lat="39.3625133" lon="16.09419"><ele>1140.0</ele><time>2026-04-27T08:36:40.709Z</time></trkpt><trkpt lat="39.3623867" lon="16.094145"><ele>1140.0</ele><time>2026-04-27T08:36:41.705Z</time></trkpt><trkpt lat="39.36225" lon="16.0941117"><ele>1140.0</ele><time>2026-04-27T08:36:42.705Z</time></trkpt><trkpt lat="39.3620917" lon="16.0941"><ele>1139.0</ele><time>2026-04-27T08:36:43.711Z</time></trkpt><trkpt lat="39.361935" lon="16.0941117"><ele>1138.0</ele><time>2026-04-27T08:36:44.744Z</time></trkpt><trkpt lat="39.361745" lon="16.0941417"><ele>1137.0</ele><time>2026-04-27T08:36:45.704Z</time></trkpt><trkpt lat="39.361585" lon="16.09416"><ele>1137.0</ele><time>2026-04-27T08:36:46.707Z</time></trkpt><trkpt lat="39.361455" lon="16.094195"><ele>1137.0</ele><time>2026-04-27T08:36:47.703Z</time></trkpt><trkpt lat="39.3613333" lon="16.0942267"><ele>1137.0</ele><time>2026-04-27T08:36:48.701Z</time></trkpt><trkpt lat="39.3612383" lon="16.0943167"><ele>1137.0</ele><time>2026-04-27T08:36:49.707Z</time></trkpt><trkpt lat="39.36115" lon="16.0943967"><ele>1135.2</ele><time>2026-04-27T08:36:50.745Z</time></trkpt><trkpt lat="39.3610683" lon="16.0944617"><ele>1133.4</ele><time>2026-04-27T08:36:51.707Z</time></trkpt><trkpt lat="39.3609933" lon="16.0945317"><ele>1131.6</ele><time>2026-04-27T08:36:52.707Z</time></trkpt><trkpt lat="39.3609033" lon="16.09463"><ele>1129.8</ele><time>2026-04-27T08:36:53.713Z</time></trkpt><trkpt lat="39.3608117" lon="16.0947117"><ele>1128.0</ele><time>2026-04-27T08:36:54.707Z</time></trkpt><trkpt lat="39.3607033" lon="16.094845"><ele>1129.75</ele><time>2026-04-27T08:36:55.706Z</time></trkpt><trkpt lat="39.3606083" lon="16.0949717"><ele>1131.5</ele><time>2026-04-27T08:36:56.776Z</time></trkpt><trkpt lat="39.3605367" lon="16.0950833"><ele>1133.25</ele><time>2026-04-27T08:36:57.703Z</time></trkpt><trkpt lat="39.3604583" lon="16.0951817"><ele>1135.0</ele><time>2026-04-27T08:36:58.711Z</time></trkpt><trkpt lat="39.36039" lon="16.0952633"><ele>1136.0</ele><time>2026-04-27T08:36:59.706Z</time></trkpt><trkpt lat="39.3603233" lon="16.09534"><ele>1137.0</ele><time>2026-04-27T08:37:00.712Z</time></trkpt><trkpt lat="39.3602417" lon="16.0953917"><ele>1138.0</ele><time>2026-04-27T08:37:01.711Z</time></trkpt><trkpt lat="39.3601833" lon="16.0953567"><ele>1139.0</ele><time>2026-04-27T08:37:02.758Z</time></trkpt><trkpt lat="39.3600883" lon="16.09529"><ele>1140.0</ele><time>2026-04-27T08:37:03.707Z</time></trkpt><trkpt lat="39.3599983" lon="16.095215"><ele>1140.0</ele><time>2026-04-27T08:37:04.709Z</time></trkpt><trkpt lat="39.3599333" lon="16.0950533"><ele>1140.0</ele><time>2026-04-27T08:37:05.707Z</time></trkpt><trkpt lat="39.35987" lon="16.0949367"><ele>1140.0</ele><time>2026-04-27T08:37:06.699Z</time></trkpt><trkpt lat="39.3598067" lon="16.0948283"><ele>1140.0</ele><time>2026-04-27T08:37:07.701Z</time></trkpt><trkpt lat="39.3597367" lon="16.0946967"><ele>1141.5</ele><time>2026-04-27T08:37:08.745Z</time></trkpt><trkpt lat="39.3596817" lon="16.094575"><ele>1143.0</ele><time>2026-04-27T08:37:09.706Z</time></trkpt><trkpt lat="39.359635" lon="16.094415"><ele>1144.5</ele><time>2026-04-27T08:37:10.709Z</time></trkpt><trkpt lat="39.35963" lon="16.0941833"><ele>1146.0</ele><time>2026-04-27T08:37:11.715Z</time></trkpt><trkpt lat="39.3596317" lon="16.0940117"><ele>1146.0</ele><time>2026-04-27T08:37:12.71Z</time></trkpt><trkpt lat="39.3596183" lon="16.09384"><ele>1146.0</ele><time>2026-04-27T08:37:13.705Z</time></trkpt><trkpt lat="39.3595883" lon="16.0937283"><ele>1146.0</ele><time>2026-04-27T08:37:14.749Z</time></trkpt><trkpt lat="39.3595517" lon="16.0936517"><ele>1146.0</ele><time>2026-04-27T08:37:15.705Z</time></trkpt><trkpt lat="39.3594467" lon="16.093795"><ele>1146.0</ele><time>2026-04-27T08:37:17.714Z</time></trkpt><trkpt lat="39.3593483" lon="16.0938733"><ele>1146.0</ele><time>2026-04-27T08:37:19.708Z</time></trkpt><trkpt lat="39.3592117" lon="16.0939"><ele>1146.0</ele><time>2026-04-27T08:37:21.708Z</time></trkpt><trkpt lat="39.3591167" lon="16.093855"><ele>1146.0</ele><time>2026-04-27T08:37:22.708Z</time></trkpt><trkpt lat="39.359" lon="16.0937833"><ele>1146.0</ele><time>2026-04-27T08:37:23.71Z</time></trkpt><trkpt lat="39.358875" lon="16.0937383"><ele>1146.6</ele><time>2026-04-27T08:37:24.709Z</time></trkpt><trkpt lat="39.3587583" lon="16.0937067"><ele>1147.1999999999998</ele><time>2026-04-27T08:37:25.709Z</time></trkpt><trkpt lat="39.35867" lon="16.0936767"><ele>1147.8000000000002</ele><time>2026-04-27T08:37:26.777Z</time></trkpt><trkpt lat="39.3585883" lon="16.093715"><ele>1148.4</ele><time>2026-04-27T08:37:27.701Z</time></trkpt><trkpt lat="39.3585033" lon="16.0937583"><ele>1149.0</ele><time>2026-04-27T08:37:28.712Z</time></trkpt><trkpt lat="39.3584283" lon="16.0938317"><ele>1149.0</ele><time>2026-04-27T08:37:29.708Z</time></trkpt><trkpt lat="39.3583583" lon="16.0939433"><ele>1149.0</ele><time>2026-04-27T08:37:30.712Z</time></trkpt><trkpt lat="39.3582767" lon="16.0940167"><ele>1149.0</ele><time>2026-04-27T08:37:31.708Z</time></trkpt><trkpt lat="39.3582" lon="16.0940867"><ele>1149.0</ele><time>2026-04-27T08:37:32.756Z</time></trkpt><trkpt lat="39.3581333" lon="16.094135"><ele>1149.0</ele><time>2026-04-27T08:37:33.706Z</time></trkpt><trkpt lat="39.3580717" lon="16.0941733"><ele>1149.0</ele><time>2026-04-27T08:37:34.706Z</time></trkpt><trkpt lat="39.3579983" lon="16.094115"><ele>1152.2</ele><time>2026-04-27T08:37:36.715Z</time></trkpt><trkpt lat="39.3579833" lon="16.0940183"><ele>1155.4</ele><time>2026-04-27T08:37:37.707Z</time></trkpt><trkpt lat="39.3579233" lon="16.0939633"><ele>1158.6</ele><time>2026-04-27T08:37:38.747Z</time></trkpt><trkpt lat="39.35786" lon="16.0938917"><ele>1161.8</ele><time>2026-04-27T08:37:39.712Z</time></trkpt><trkpt lat="39.3577633" lon="16.0937083"><ele>1165.0</ele><time>2026-04-27T08:37:40.706Z</time></trkpt><trkpt lat="39.3576333" lon="16.093535"><ele>1165.0</ele><time>2026-04-27T08:37:41.709Z</time></trkpt><trkpt lat="39.3575" lon="16.0934"><ele>1165.0</ele><time>2026-04-27T08:37:42.705Z</time></trkpt><trkpt lat="39.3573733" lon="16.0932933"><ele>1165.0</ele><time>2026-04-27T08:37:43.703Z</time></trkpt><trkpt lat="39.3572217" lon="16.0931933"><ele>1163.0</ele><time>2026-04-27T08:37:44.741Z</time></trkpt><trkpt lat="39.357115" lon="16.093115"><ele>1161.0</ele><time>2026-04-27T08:37:45.706Z</time></trkpt><trkpt lat="39.3570183" lon="16.093055"><ele>1159.0</ele><time>2026-04-27T08:37:46.712Z</time></trkpt><trkpt lat="39.3569" lon="16.09303"><ele>1157.0</ele><time>2026-04-27T08:37:47.71Z</time></trkpt><trkpt lat="39.35679" lon="16.0929867"><ele>1157.0</ele><time>2026-04-27T08:37:48.704Z</time></trkpt><trkpt lat="39.35664" lon="16.09297"><ele>1157.0</ele><time>2026-04-27T08:37:49.708Z</time></trkpt><trkpt lat="39.3565" lon="16.0929433"><ele>1157.0</ele><time>2026-04-27T08:37:50.744Z</time></trkpt><trkpt lat="39.35639" lon="16.092915"><ele>1157.0</ele><time>2026-04-27T08:37:51.704Z</time></trkpt><trkpt lat="39.3563133" lon="16.092895"><ele>1157.8</ele><time>2026-04-27T08:37:52.704Z</time></trkpt><trkpt lat="39.3562417" lon="16.0928667"><ele>1158.6</ele><time>2026-04-27T08:37:53.705Z</time></trkpt><trkpt lat="39.356155" lon="16.0928217"><ele>1159.3999999999999</ele><time>2026-04-27T08:37:54.713Z</time></trkpt><trkpt lat="39.35606" lon="16.09278"><ele>1160.2</ele><time>2026-04-27T08:37:55.708Z</time></trkpt><trkpt lat="39.3559617" lon="16.0927283"><ele>1161.0</ele><time>2026-04-27T08:37:56.772Z</time></trkpt><trkpt lat="39.3558567" lon="16.0926767"><ele>1161.0</ele><time>2026-04-27T08:37:57.705Z</time></trkpt><trkpt lat="39.3557283" lon="16.0926417"><ele>1161.0</ele><time>2026-04-27T08:37:58.711Z</time></trkpt><trkpt lat="39.3555983" lon="16.0926267"><ele>1161.0</ele><time>2026-04-27T08:37:59.706Z</time></trkpt><trkpt lat="39.355475" lon="16.0926017"><ele>1161.0</ele><time>2026-04-27T08:38:00.709Z</time></trkpt><trkpt lat="39.35535" lon="16.0925783"><ele>1161.75</ele><time>2026-04-27T08:38:01.705Z</time></trkpt><trkpt lat="39.35523" lon="16.0925767"><ele>1162.5</ele><time>2026-04-27T08:38:02.758Z</time></trkpt><trkpt lat="39.3551083" lon="16.092565"><ele>1163.25</ele><time>2026-04-27T08:38:03.698Z</time></trkpt><trkpt lat="39.35499" lon="16.0925633"><ele>1164.0</ele><time>2026-04-27T08:38:04.706Z</time></trkpt><trkpt lat="39.35488" lon="16.0925683"><ele>1164.0</ele><time>2026-04-27T08:38:05.702Z</time></trkpt><trkpt lat="39.354765" lon="16.0925467"><ele>1164.0</ele><time>2026-04-27T08:38:06.713Z</time></trkpt><trkpt lat="39.354685" lon="16.0925017"><ele>1164.0</ele><time>2026-04-27T08:38:07.708Z</time></trkpt><trkpt lat="39.3545933" lon="16.09244"><ele>1164.0</ele><time>2026-04-27T08:38:08.739Z</time></trkpt><trkpt lat="39.354505" lon="16.0923667"><ele>1164.0</ele><time>2026-04-27T08:38:09.709Z</time></trkpt><trkpt lat="39.3543883" lon="16.0922933"><ele>1163.25</ele><time>2026-04-27T08:38:10.704Z</time></trkpt><trkpt lat="39.3542733" lon="16.092215"><ele>1162.5</ele><time>2026-04-27T08:38:11.71Z</time></trkpt><trkpt lat="39.3541617" lon="16.092135"><ele>1161.75</ele><time>2026-04-27T08:38:12.71Z</time></trkpt><trkpt lat="39.3540667" lon="16.0920467"><ele>1161.0</ele><time>2026-04-27T08:38:13.705Z</time></trkpt><trkpt lat="39.3539717" lon="16.0919633"><ele>1159.25</ele><time>2026-04-27T08:38:14.742Z</time></trkpt><trkpt lat="39.3538683" lon="16.0918717"><ele>1157.5</ele><time>2026-04-27T08:38:15.701Z</time></trkpt><trkpt lat="39.353765" lon="16.09178"><ele>1155.75</ele><time>2026-04-27T08:38:16.703Z</time></trkpt><trkpt lat="39.3536633" lon="16.0917"><ele>1154.0</ele><time>2026-04-27T08:38:17.705Z</time></trkpt><trkpt lat="39.3535667" lon="16.0916367"><ele>1154.0</ele><time>2026-04-27T08:38:18.711Z</time></trkpt><trkpt lat="39.3534817" lon="16.0916133"><ele>1154.0</ele><time>2026-04-27T08:38:19.706Z</time></trkpt><trkpt lat="39.3533983" lon="16.0916117"><ele>1154.0</ele><time>2026-04-27T08:38:21.701Z</time></trkpt><trkpt lat="39.353455" lon="16.09176"><ele>1154.0</ele><time>2026-04-27T08:38:25.708Z</time></trkpt><trkpt lat="39.3535083" lon="16.0918767"><ele>1154.0</ele><time>2026-04-27T08:38:26.73Z</time></trkpt><trkpt lat="39.3535617" lon="16.092015"><ele>1154.0</ele><time>2026-04-27T08:38:27.701Z</time></trkpt><trkpt lat="39.3535967" lon="16.09216"><ele>1154.0</ele><time>2026-04-27T08:38:28.706Z</time></trkpt><trkpt lat="39.3536317" lon="16.0923167"><ele>1154.0</ele><time>2026-04-27T08:38:29.705Z</time></trkpt><trkpt lat="39.3536683" lon="16.0924883"><ele>1154.0</ele><time>2026-04-27T08:38:30.704Z</time></trkpt><trkpt lat="39.3537017" lon="16.0926533"><ele>1152.75</ele><time>2026-04-27T08:38:31.706Z</time></trkpt><trkpt lat="39.3537517" lon="16.0927967"><ele>1151.5</ele><time>2026-04-27T08:38:32.758Z</time></trkpt><trkpt lat="39.3538117" lon="16.0929233"><ele>1150.25</ele><time>2026-04-27T08:38:33.709Z</time></trkpt><trkpt lat="39.3538983" lon="16.0930683"><ele>1149.0</ele><time>2026-04-27T08:38:34.704Z</time></trkpt><trkpt lat="39.3539767" lon="16.0932167"><ele>1148.5</ele><time>2026-04-27T08:38:35.705Z</time></trkpt><trkpt lat="39.35405" lon="16.0933583"><ele>1148.0</ele><time>2026-04-27T08:38:36.711Z</time></trkpt><trkpt lat="39.3541133" lon="16.0934967"><ele>1147.5</ele><time>2026-04-27T08:38:37.711Z</time></trkpt><trkpt lat="39.354155" lon="16.093625"><ele>1147.0</ele><time>2026-04-27T08:38:38.749Z</time></trkpt><trkpt lat="39.3541967" lon="16.0937367"><ele>1147.0</ele><time>2026-04-27T08:38:39.703Z</time></trkpt><trkpt lat="39.3542033" lon="16.09383"><ele>1147.0</ele><time>2026-04-27T08:38:40.709Z</time></trkpt><trkpt lat="39.3542117" lon="16.09394"><ele>1147.0</ele><time>2026-04-27T08:38:41.703Z</time></trkpt><trkpt lat="39.35422" lon="16.094045"><ele>1147.0</ele><time>2026-04-27T08:38:42.71Z</time></trkpt><trkpt lat="39.3542367" lon="16.0941433"><ele>1147.0</ele><time>2026-04-27T08:38:43.707Z</time></trkpt><trkpt lat="39.354285" lon="16.094285"><ele>1147.0</ele><time>2026-04-27T08:38:45.706Z</time></trkpt><trkpt lat="39.3543067" lon="16.094385"><ele>1143.4</ele><time>2026-04-27T08:38:46.706Z</time></trkpt><trkpt lat="39.3543483" lon="16.0944567"><ele>1139.8000000000002</ele><time>2026-04-27T08:38:47.705Z</time></trkpt><trkpt lat="39.354445" lon="16.0944783"><ele>1136.2</ele><time>2026-04-27T08:38:48.708Z</time></trkpt><trkpt lat="39.3545517" lon="16.0945467"><ele>1132.6000000000001</ele><time>2026-04-27T08:38:49.708Z</time></trkpt><trkpt lat="39.3546217" lon="16.0946267"><ele>1129.0</ele><time>2026-04-27T08:38:50.742Z</time></trkpt><trkpt lat="39.3546883" lon="16.0947133"><ele>1127.8333333333333</ele><time>2026-04-27T08:38:51.707Z</time></trkpt><trkpt lat="39.3547517" lon="16.0948067"><ele>1126.6666666666665</ele><time>2026-04-27T08:38:52.71Z</time></trkpt><trkpt lat="39.35481" lon="16.094895"><ele>1125.5</ele><time>2026-04-27T08:38:53.707Z</time></trkpt><trkpt lat="39.3548633" lon="16.0949833"><ele>1124.3333333333333</ele><time>2026-04-27T08:38:54.703Z</time></trkpt><trkpt lat="39.3548967" lon="16.095085"><ele>1123.1666666666667</ele><time>2026-04-27T08:38:55.706Z</time></trkpt><trkpt lat="39.3549167" lon="16.0951933"><ele>1122.0</ele><time>2026-04-27T08:38:56.773Z</time></trkpt><trkpt lat="39.35493" lon="16.0953183"><ele>1122.0</ele><time>2026-04-27T08:38:57.703Z</time></trkpt><trkpt lat="39.354935" lon="16.0954333"><ele>1122.0</ele><time>2026-04-27T08:38:58.709Z</time></trkpt><trkpt lat="39.3549233" lon="16.095555"><ele>1122.0</ele><time>2026-04-27T08:38:59.717Z</time></trkpt><trkpt lat="39.354915" lon="16.0956817"><ele>1122.0</ele><time>2026-04-27T08:39:00.707Z</time></trkpt><trkpt lat="39.3549033" lon="16.0957983"><ele>1122.0</ele><time>2026-04-27T08:39:01.706Z</time></trkpt><trkpt lat="39.3548817" lon="16.0959317"><ele>1119.8</ele><time>2026-04-27T08:39:02.754Z</time></trkpt><trkpt lat="39.3548417" lon="16.0960467"><ele>1117.6</ele><time>2026-04-27T08:39:03.703Z</time></trkpt><trkpt lat="39.35481" lon="16.09617"><ele>1115.3999999999999</ele><time>2026-04-27T08:39:04.71Z</time></trkpt><trkpt lat="39.354785" lon="16.0962833"><ele>1113.2</ele><time>2026-04-27T08:39:05.71Z</time></trkpt><trkpt lat="39.35474" lon="16.0964067"><ele>1111.0</ele><time>2026-04-27T08:39:06.709Z</time></trkpt><trkpt lat="39.3546917" lon="16.0965233"><ele>1111.0</ele><time>2026-04-27T08:39:07.71Z</time></trkpt><trkpt lat="39.3546433" lon="16.0966117"><ele>1111.0</ele><time>2026-04-27T08:39:08.743Z</time></trkpt><trkpt lat="39.354585" lon="16.0967083"><ele>1111.0</ele><time>2026-04-27T08:39:09.705Z</time></trkpt><trkpt lat="39.3545367" lon="16.09679"><ele>1111.0</ele><time>2026-04-27T08:39:10.704Z</time></trkpt><trkpt lat="39.35448" lon="16.0969"><ele>1111.0</ele><time>2026-04-27T08:39:11.705Z</time></trkpt><trkpt lat="39.3543967" lon="16.0969983"><ele>1111.0</ele><time>2026-04-27T08:39:12.714Z</time></trkpt><trkpt lat="39.3543067" lon="16.0970833"><ele>1111.0</ele><time>2026-04-27T08:39:13.706Z</time></trkpt><trkpt lat="39.3542067" lon="16.0971017"><ele>1111.0</ele><time>2026-04-27T08:39:14.744Z</time></trkpt><trkpt lat="39.3541" lon="16.097165"><ele>1111.0</ele><time>2026-04-27T08:39:15.705Z</time></trkpt><trkpt lat="39.3539967" lon="16.0971967"><ele>1111.0</ele><time>2026-04-27T08:39:16.706Z</time></trkpt><trkpt lat="39.3538933" lon="16.097235"><ele>1109.8333333333333</ele><time>2026-04-27T08:39:17.706Z</time></trkpt><trkpt lat="39.353815" lon="16.0972917"><ele>1108.6666666666665</ele><time>2026-04-27T08:39:18.711Z</time></trkpt><trkpt lat="39.35377" lon="16.0973567"><ele>1107.5</ele><time>2026-04-27T08:39:19.707Z</time></trkpt><trkpt lat="39.3537283" lon="16.0974467"><ele>1106.3333333333333</ele><time>2026-04-27T08:39:21.706Z</time></trkpt><trkpt lat="39.35372" lon="16.09753"><ele>1105.1666666666667</ele><time>2026-04-27T08:39:22.699Z</time></trkpt><trkpt lat="39.3537133" lon="16.09765"><ele>1104.0</ele><time>2026-04-27T08:39:23.704Z</time></trkpt><trkpt lat="39.3537" lon="16.097805"><ele>1104.0</ele><time>2026-04-27T08:39:24.705Z</time></trkpt><trkpt lat="39.35367" lon="16.0979533"><ele>1104.0</ele><time>2026-04-27T08:39:25.709Z</time></trkpt><trkpt lat="39.35365" lon="16.098095"><ele>1104.0</ele><time>2026-04-27T08:39:26.779Z</time></trkpt><trkpt lat="39.3536183" lon="16.0982117"><ele>1104.0</ele><time>2026-04-27T08:39:27.706Z</time></trkpt><trkpt lat="39.3535917" lon="16.0983233"><ele>1104.0</ele><time>2026-04-27T08:39:28.704Z</time></trkpt><trkpt lat="39.35356" lon="16.0984267"><ele>1103.4</ele><time>2026-04-27T08:39:29.706Z</time></trkpt><trkpt lat="39.3535267" lon="16.0985317"><ele>1102.8000000000002</ele><time>2026-04-27T08:39:30.711Z</time></trkpt><trkpt lat="39.3534833" lon="16.0986683"><ele>1102.1999999999998</ele><time>2026-04-27T08:39:31.705Z</time></trkpt><trkpt lat="39.353435" lon="16.0988033"><ele>1101.6</ele><time>2026-04-27T08:39:32.76Z</time></trkpt><trkpt lat="39.3533783" lon="16.0989283"><ele>1101.0</ele><time>2026-04-27T08:39:33.704Z</time></trkpt><trkpt lat="39.3533333" lon="16.0990467"><ele>1101.6666666666667</ele><time>2026-04-27T08:39:34.711Z</time></trkpt><trkpt lat="39.3533067" lon="16.099155"><ele>1102.3333333333333</ele><time>2026-04-27T08:39:35.705Z</time></trkpt><trkpt lat="39.353275" lon="16.09925"><ele>1103.0</ele><time>2026-04-27T08:39:36.706Z</time></trkpt><trkpt lat="39.3532333" lon="16.09934"><ele>1103.6666666666665</ele><time>2026-04-27T08:39:37.704Z</time></trkpt><trkpt lat="39.35318" lon="16.0994383"><ele>1104.3333333333333</ele><time>2026-04-27T08:39:38.736Z</time></trkpt><trkpt lat="39.353115" lon="16.099545"><ele>1105.0</ele><time>2026-04-27T08:39:39.7Z</time></trkpt><trkpt lat="39.3530567" lon="16.0996517"><ele>1106.6</ele><time>2026-04-27T08:39:40.706Z</time></trkpt><trkpt lat="39.352995" lon="16.09976"><ele>1108.2</ele><time>2026-04-27T08:39:41.708Z</time></trkpt><trkpt lat="39.3529233" lon="16.0998767"><ele>1109.8</ele><time>2026-04-27T08:39:42.707Z</time></trkpt><trkpt lat="39.3528633" lon="16.09999"><ele>1111.4</ele><time>2026-04-27T08:39:43.703Z</time></trkpt><trkpt lat="39.3528083" lon="16.1001033"><ele>1113.0</ele><time>2026-04-27T08:39:44.748Z</time></trkpt><trkpt lat="39.3527467" lon="16.100225"><ele>1115.6</ele><time>2026-04-27T08:39:45.71Z</time></trkpt><trkpt lat="39.3526867" lon="16.100335"><ele>1118.1999999999998</ele><time>2026-04-27T08:39:46.705Z</time></trkpt><trkpt lat="39.35264" lon="16.1004133"><ele>1120.8</ele><time>2026-04-27T08:39:47.703Z</time></trkpt><trkpt lat="39.35258" lon="16.1005183"><ele>1123.3999999999999</ele><time>2026-04-27T08:39:48.711Z</time></trkpt><trkpt lat="39.3525317" lon="16.10061"><ele>1126.0</ele><time>2026-04-27T08:39:49.707Z</time></trkpt><trkpt lat="39.352485" lon="16.1007"><ele>1128.5</ele><time>2026-04-27T08:39:50.745Z</time></trkpt><trkpt lat="39.3524467" lon="16.1007933"><ele>1131.0</ele><time>2026-04-27T08:39:51.704Z</time></trkpt><trkpt lat="39.3524" lon="16.1008767"><ele>1133.5</ele><time>2026-04-27T08:39:52.709Z</time></trkpt><trkpt lat="39.3523783" lon="16.1009717"><ele>1136.0</ele><time>2026-04-27T08:39:53.71Z</time></trkpt><trkpt lat="39.3523783" lon="16.10106"><ele>1138.5</ele><time>2026-04-27T08:39:55.706Z</time></trkpt><trkpt lat="39.3523883" lon="16.1011533"><ele>1141.0</ele><time>2026-04-27T08:39:57.709Z</time></trkpt><trkpt lat="39.35239" lon="16.1012767"><ele>1141.0</ele><time>2026-04-27T08:39:59.708Z</time></trkpt><trkpt lat="39.3523817" lon="16.101375"><ele>1141.0</ele><time>2026-04-27T08:40:01.705Z</time></trkpt><trkpt lat="39.3523567" lon="16.10149"><ele>1141.0</ele><time>2026-04-27T08:40:03.702Z</time></trkpt><trkpt lat="39.3523483" lon="16.1015783"><ele>1141.0</ele><time>2026-04-27T08:40:04.702Z</time></trkpt><trkpt lat="39.3523367" lon="16.1017017"><ele>1141.0</ele><time>2026-04-27T08:40:06.708Z</time></trkpt><trkpt lat="39.35234" lon="16.101785"><ele>1141.0</ele><time>2026-04-27T08:40:08.745Z</time></trkpt><trkpt lat="39.3523683" lon="16.1018883"><ele>1144.6</ele><time>2026-04-27T08:40:10.716Z</time></trkpt><trkpt lat="39.3523933" lon="16.1020233"><ele>1148.1999999999998</ele><time>2026-04-27T08:40:12.712Z</time></trkpt><trkpt lat="39.3524183" lon="16.1021433"><ele>1151.8000000000002</ele><time>2026-04-27T08:40:14.746Z</time></trkpt><trkpt lat="39.3524517" lon="16.102275"><ele>1155.4</ele><time>2026-04-27T08:40:16.701Z</time></trkpt><trkpt lat="39.35248" lon="16.1023983"><ele>1159.0</ele><time>2026-04-27T08:40:18.711Z</time></trkpt><trkpt lat="39.35253" lon="16.1025017"><ele>1162.0</ele><time>2026-04-27T08:40:20.742Z</time></trkpt><trkpt lat="39.3525717" lon="16.1026217"><ele>1165.0</ele><time>2026-04-27T08:40:22.702Z</time></trkpt><trkpt lat="39.35257" lon="16.1027167"><ele>1168.0</ele><time>2026-04-27T08:40:24.707Z</time></trkpt><trkpt lat="39.3525883" lon="16.10283"><ele>1171.0</ele><time>2026-04-27T08:40:27.703Z</time></trkpt><trkpt lat="39.3525067" lon="16.1029167"><ele>1174.0</ele><time>2026-04-27T08:40:38.745Z</time></trkpt><trkpt lat="39.3524817" lon="16.1030367"><ele>1174.0</ele><time>2026-04-27T08:40:40.712Z</time></trkpt><trkpt lat="39.3524717" lon="16.1031183"><ele>1174.0</ele><time>2026-04-27T08:40:41.708Z</time></trkpt><trkpt lat="39.3524517" lon="16.1031967"><ele>1174.0</ele><time>2026-04-27T08:40:42.713Z</time></trkpt><trkpt lat="39.352405" lon="16.1033517"><ele>1174.0</ele><time>2026-04-27T08:40:44.744Z</time></trkpt><trkpt lat="39.35238" lon="16.1034283"><ele>1174.0</ele><time>2026-04-27T08:40:45.707Z</time></trkpt><trkpt lat="39.3523533" lon="16.1035067"><ele>1174.0</ele><time>2026-04-27T08:40:46.715Z</time></trkpt><trkpt lat="39.352325" lon="16.103595"><ele>1173.8</ele><time>2026-04-27T08:40:47.702Z</time></trkpt><trkpt lat="39.35228" lon="16.1037"><ele>1173.6000000000001</ele><time>2026-04-27T08:40:48.702Z</time></trkpt><trkpt lat="39.3522317" lon="16.1038067"><ele>1173.4</ele><time>2026-04-27T08:40:49.705Z</time></trkpt><trkpt lat="39.35218" lon="16.1039267"><ele>1173.2</ele><time>2026-04-27T08:40:50.74Z</time></trkpt><trkpt lat="39.352135" lon="16.1040483"><ele>1173.0</ele><time>2026-04-27T08:40:51.707Z</time></trkpt><trkpt lat="39.352095" lon="16.10415"><ele>1175.8333333333333</ele><time>2026-04-27T08:40:52.709Z</time></trkpt><trkpt lat="39.352045" lon="16.1042433"><ele>1178.6666666666667</ele><time>2026-04-27T08:40:53.708Z</time></trkpt><trkpt lat="39.351995" lon="16.1043083"><ele>1181.5</ele><time>2026-04-27T08:40:54.701Z</time></trkpt><trkpt lat="39.3519333" lon="16.1044033"><ele>1184.3333333333335</ele><time>2026-04-27T08:40:55.709Z</time></trkpt><trkpt lat="39.3518967" lon="16.10447"><ele>1187.1666666666667</ele><time>2026-04-27T08:40:56.776Z</time></trkpt><trkpt lat="39.351865" lon="16.1045467"><ele>1190.0</ele><time>2026-04-27T08:40:57.703Z</time></trkpt><trkpt lat="39.3518067" lon="16.104685"><ele>1190.0</ele><time>2026-04-27T08:40:59.705Z</time></trkpt><trkpt lat="39.3517733" lon="16.10476"><ele>1190.0</ele><time>2026-04-27T08:41:00.703Z</time></trkpt><trkpt lat="39.35175" lon="16.1048433"><ele>1190.0</ele><time>2026-04-27T08:41:01.709Z</time></trkpt><trkpt lat="39.3517317" lon="16.10497"><ele>1190.0</ele><time>2026-04-27T08:41:03.706Z</time></trkpt><trkpt lat="39.3517417" lon="16.1051233"><ele>1190.0</ele><time>2026-04-27T08:41:05.703Z</time></trkpt><trkpt lat="39.3517317" lon="16.1052833"><ele>1191.8</ele><time>2026-04-27T08:41:07.708Z</time></trkpt><trkpt lat="39.3517" lon="16.1054333"><ele>1193.6</ele><time>2026-04-27T08:41:09.706Z</time></trkpt><trkpt lat="39.35167" lon="16.1055517"><ele>1195.4</ele><time>2026-04-27T08:41:11.706Z</time></trkpt><trkpt lat="39.3516967" lon="16.1056417"><ele>1197.2</ele><time>2026-04-27T08:41:15.701Z</time></trkpt><trkpt lat="39.3516517" lon="16.1055367"><ele>1199.0</ele><time>2026-04-27T08:41:19.706Z</time></trkpt><trkpt lat="39.35157" lon="16.10552"><ele>1199.0</ele><time>2026-04-27T08:41:21.706Z</time></trkpt><trkpt lat="39.3514717" lon="16.1054933"><ele>1199.0</ele><time>2026-04-27T08:41:23.705Z</time></trkpt><trkpt lat="39.3514033" lon="16.1054633"><ele>1199.0</ele><time>2026-04-27T08:41:25.707Z</time></trkpt><trkpt lat="39.3513333" lon="16.1054817"><ele>1199.0</ele><time>2026-04-27T08:41:28.707Z</time></trkpt><trkpt lat="39.3512883" lon="16.1055717"><ele>1199.0</ele><time>2026-04-27T08:41:30.708Z</time></trkpt><trkpt lat="39.3512367" lon="16.1056567"><ele>1199.0</ele><time>2026-04-27T08:41:32.757Z</time></trkpt><trkpt lat="39.3511867" lon="16.105735"><ele>1198.2</ele><time>2026-04-27T08:41:34.707Z</time></trkpt><trkpt lat="39.35115" lon="16.1058167"><ele>1197.4</ele><time>2026-04-27T08:41:39.704Z</time></trkpt><trkpt lat="39.35111" lon="16.105915"><ele>1196.6</ele><time>2026-04-27T08:41:42.71Z</time></trkpt><trkpt lat="39.351055" lon="16.1060567"><ele>1195.8</ele><time>2026-04-27T08:41:44.739Z</time></trkpt><trkpt lat="39.3509933" lon="16.106215"><ele>1195.0</ele><time>2026-04-27T08:41:46.7Z</time></trkpt><trkpt lat="39.35096" lon="16.1062967"><ele>1195.0</ele><time>2026-04-27T08:41:47.708Z</time></trkpt><trkpt lat="39.3509167" lon="16.10638"><ele>1195.0</ele><time>2026-04-27T08:41:48.711Z</time></trkpt><trkpt lat="39.3508917" lon="16.1065067"><ele>1195.0</ele><time>2026-04-27T08:41:50.744Z</time></trkpt><trkpt lat="39.3508617" lon="16.10659"><ele>1195.0</ele><time>2026-04-27T08:41:51.705Z</time></trkpt><trkpt lat="39.3508433" lon="16.1066767"><ele>1195.0</ele><time>2026-04-27T08:41:52.703Z</time></trkpt><trkpt lat="39.350805" lon="16.106815"><ele>1195.0</ele><time>2026-04-27T08:41:54.709Z</time></trkpt><trkpt lat="39.3508017" lon="16.1069"><ele>1192.2</ele><time>2026-04-27T08:41:55.706Z</time></trkpt><trkpt lat="39.350795" lon="16.107045"><ele>1189.4</ele><time>2026-04-27T08:41:57.702Z</time></trkpt><trkpt lat="39.3507783" lon="16.1071583"><ele>1186.6</ele><time>2026-04-27T08:41:58.709Z</time></trkpt><trkpt lat="39.3507683" lon="16.10726"><ele>1183.8</ele><time>2026-04-27T08:41:59.706Z</time></trkpt><trkpt lat="39.3507567" lon="16.1073567"><ele>1181.0</ele><time>2026-04-27T08:42:00.708Z</time></trkpt><trkpt lat="39.35075" lon="16.10748"><ele>1180.6</ele><time>2026-04-27T08:42:01.708Z</time></trkpt><trkpt lat="39.3507467" lon="16.1076033"><ele>1180.1999999999998</ele><time>2026-04-27T08:42:02.776Z</time></trkpt><trkpt lat="39.350735" lon="16.1077217"><ele>1179.8000000000002</ele><time>2026-04-27T08:42:03.705Z</time></trkpt><trkpt lat="39.35074" lon="16.107835"><ele>1179.4</ele><time>2026-04-27T08:42:04.711Z</time></trkpt><trkpt lat="39.3507333" lon="16.10797"><ele>1179.0</ele><time>2026-04-27T08:42:05.708Z</time></trkpt><trkpt lat="39.350765" lon="16.1081283"><ele>1177.5</ele><time>2026-04-27T08:42:06.704Z</time></trkpt><trkpt lat="39.3507883" lon="16.1082583"><ele>1176.0</ele><time>2026-04-27T08:42:07.71Z</time></trkpt><trkpt lat="39.350815" lon="16.1084067"><ele>1174.5</ele><time>2026-04-27T08:42:08.744Z</time></trkpt><trkpt lat="39.3508533" lon="16.1085633"><ele>1173.0</ele><time>2026-04-27T08:42:09.705Z</time></trkpt><trkpt lat="39.3509033" lon="16.10875"><ele>1173.0</ele><time>2026-04-27T08:42:10.703Z</time></trkpt><trkpt lat="39.3509383" lon="16.108955"><ele>1173.0</ele><time>2026-04-27T08:42:11.713Z</time></trkpt><trkpt lat="39.3509783" lon="16.1091383"><ele>1173.0</ele><time>2026-04-27T08:42:12.698Z</time></trkpt><trkpt lat="39.3510217" lon="16.1093033"><ele>1173.0</ele><time>2026-04-27T08:42:13.704Z</time></trkpt><trkpt lat="39.35107" lon="16.10947"><ele>1173.4</ele><time>2026-04-27T08:42:14.739Z</time></trkpt><trkpt lat="39.351095" lon="16.1096333"><ele>1173.8</ele><time>2026-04-27T08:42:15.703Z</time></trkpt><trkpt lat="39.3510917" lon="16.109755"><ele>1174.2</ele><time>2026-04-27T08:42:16.711Z</time></trkpt><trkpt lat="39.3510967" lon="16.1098617"><ele>1174.6</ele><time>2026-04-27T08:42:17.706Z</time></trkpt><trkpt lat="39.3511117" lon="16.1099417"><ele>1175.0</ele><time>2026-04-27T08:42:18.698Z</time></trkpt><trkpt lat="39.351115" lon="16.11008"><ele>1173.6</ele><time>2026-04-27T08:42:20.743Z</time></trkpt><trkpt lat="39.3510683" lon="16.1101733"><ele>1172.2</ele><time>2026-04-27T08:42:22.707Z</time></trkpt><trkpt lat="39.3509717" lon="16.1102217"><ele>1170.8</ele><time>2026-04-27T08:42:24.713Z</time></trkpt><trkpt lat="39.350855" lon="16.11028"><ele>1169.4</ele><time>2026-04-27T08:42:26.767Z</time></trkpt><trkpt lat="39.350785" lon="16.1103"><ele>1168.0</ele><time>2026-04-27T08:42:27.697Z</time></trkpt><trkpt lat="39.35072" lon="16.1102817"><ele>1168.0</ele><time>2026-04-27T08:42:28.703Z</time></trkpt><trkpt lat="39.3506233" lon="16.11022"><ele>1168.0</ele><time>2026-04-27T08:42:30.713Z</time></trkpt><trkpt lat="39.350525" lon="16.11022"><ele>1168.0</ele><time>2026-04-27T08:42:33.709Z</time></trkpt><trkpt lat="39.3504217" lon="16.1102517"><ele>1168.0</ele><time>2026-04-27T08:42:35.708Z</time></trkpt><trkpt lat="39.3503233" lon="16.1102417"><ele>1168.0</ele><time>2026-04-27T08:42:37.701Z</time></trkpt><trkpt lat="39.3501933" lon="16.1102117"><ele>1168.0</ele><time>2026-04-27T08:42:39.701Z</time></trkpt><trkpt lat="39.350115" lon="16.1102067"><ele>1168.0</ele><time>2026-04-27T08:42:40.705Z</time></trkpt><trkpt lat="39.350035" lon="16.110205"><ele>1168.0</ele><time>2026-04-27T08:42:41.71Z</time></trkpt><trkpt lat="39.3499667" lon="16.11019"><ele>1168.0</ele><time>2026-04-27T08:42:42.704Z</time></trkpt><trkpt lat="39.3498717" lon="16.1101533"><ele>1168.0</ele><time>2026-04-27T08:42:44.742Z</time></trkpt><trkpt lat="39.3497617" lon="16.1101383"><ele>1168.0</ele><time>2026-04-27T08:42:46.706Z</time></trkpt><trkpt lat="39.3496983" lon="16.1101883"><ele>1168.2</ele><time>2026-04-27T08:42:47.704Z</time></trkpt><trkpt lat="39.3496267" lon="16.1102517"><ele>1168.4</ele><time>2026-04-27T08:42:48.71Z</time></trkpt><trkpt lat="39.3495683" lon="16.1103283"><ele>1168.6000000000001</ele><time>2026-04-27T08:42:49.705Z</time></trkpt><trkpt lat="39.34954" lon="16.11046"><ele>1168.8</ele><time>2026-04-27T08:42:50.739Z</time></trkpt><trkpt lat="39.34949" lon="16.1105617"><ele>1169.0</ele><time>2026-04-27T08:42:51.7Z</time></trkpt><trkpt lat="39.3494283" lon="16.1106633"><ele>1164.0</ele><time>2026-04-27T08:42:52.706Z</time></trkpt><trkpt lat="39.34936" lon="16.1107817"><ele>1159.0</ele><time>2026-04-27T08:42:53.706Z</time></trkpt><trkpt lat="39.3492933" lon="16.1109067"><ele>1154.0</ele><time>2026-04-27T08:42:54.708Z</time></trkpt><trkpt lat="39.349235" lon="16.111025"><ele>1149.0</ele><time>2026-04-27T08:42:55.705Z</time></trkpt><trkpt lat="39.3491783" lon="16.1111367"><ele>1144.0</ele><time>2026-04-27T08:42:56.752Z</time></trkpt><trkpt lat="39.3491267" lon="16.1112433"><ele>1144.0</ele><time>2026-04-27T08:42:57.708Z</time></trkpt><trkpt lat="39.3490667" lon="16.11134"><ele>1144.0</ele><time>2026-04-27T08:42:58.707Z</time></trkpt><trkpt lat="39.3489767" lon="16.1114483"><ele>1144.0</ele><time>2026-04-27T08:42:59.703Z</time></trkpt><trkpt lat="39.348925" lon="16.1115133"><ele>1144.0</ele><time>2026-04-27T08:43:00.719Z</time></trkpt><trkpt lat="39.3488617" lon="16.1115783"><ele>1144.0</ele><time>2026-04-27T08:43:01.703Z</time></trkpt><trkpt lat="39.3488117" lon="16.1116283"><ele>1144.0</ele><time>2026-04-27T08:43:02.754Z</time></trkpt><trkpt lat="39.34873" lon="16.1116683"><ele>1139.1666666666665</ele><time>2026-04-27T08:43:04.704Z</time></trkpt><trkpt lat="39.348725" lon="16.1117533"><ele>1134.3333333333333</ele><time>2026-04-27T08:43:07.709Z</time></trkpt><trkpt lat="39.3487633" lon="16.1118633"><ele>1129.5</ele><time>2026-04-27T08:43:09.702Z</time></trkpt><trkpt lat="39.34883" lon="16.111925"><ele>1124.6666666666667</ele><time>2026-04-27T08:43:11.708Z</time></trkpt><trkpt lat="39.3488917" lon="16.1119467"><ele>1119.8333333333335</ele><time>2026-04-27T08:43:13.709Z</time></trkpt><trkpt lat="39.3489733" lon="16.111935"><ele>1115.0</ele><time>2026-04-27T08:43:15.705Z</time></trkpt><trkpt lat="39.3490417" lon="16.111965"><ele>1115.0</ele><time>2026-04-27T08:43:18.711Z</time></trkpt><trkpt lat="39.3491083" lon="16.112075"><ele>1115.0</ele><time>2026-04-27T08:43:21.704Z</time></trkpt><trkpt lat="39.349145" lon="16.1121767"><ele>1115.0</ele><time>2026-04-27T08:43:23.706Z</time></trkpt><trkpt lat="39.3491383" lon="16.1123233"><ele>1115.0</ele><time>2026-04-27T08:43:25.708Z</time></trkpt><trkpt lat="39.3491117" lon="16.112455"><ele>1115.0</ele><time>2026-04-27T08:43:27.708Z</time></trkpt><trkpt lat="39.3490633" lon="16.112605"><ele>1112.0</ele><time>2026-04-27T08:43:29.708Z</time></trkpt><trkpt lat="39.34905" lon="16.1126883"><ele>1109.0</ele><time>2026-04-27T08:43:30.705Z</time></trkpt><trkpt lat="39.3490283" lon="16.1127683"><ele>1106.0</ele><time>2026-04-27T08:43:31.705Z</time></trkpt><trkpt lat="39.3489833" lon="16.1128833"><ele>1103.0</ele><time>2026-04-27T08:43:33.706Z</time></trkpt><trkpt lat="39.3489283" lon="16.113005"><ele>1100.0</ele><time>2026-04-27T08:43:35.706Z</time></trkpt><trkpt lat="39.348875" lon="16.11309"><ele>1097.0</ele><time>2026-04-27T08:43:37.706Z</time></trkpt><trkpt lat="39.34881" lon="16.11315"><ele>1095.5</ele><time>2026-04-27T08:43:39.703Z</time></trkpt><trkpt lat="39.3487333" lon="16.113185"><ele>1094.0</ele><time>2026-04-27T08:43:41.709Z</time></trkpt><trkpt lat="39.348645" lon="16.11319"><ele>1092.5</ele><time>2026-04-27T08:43:43.708Z</time></trkpt><trkpt lat="39.34858" lon="16.1132317"><ele>1091.0</ele><time>2026-04-27T08:43:45.702Z</time></trkpt><trkpt lat="39.3485" lon="16.1132217"><ele>1089.5</ele><time>2026-04-27T08:43:53.705Z</time></trkpt><trkpt lat="39.348445" lon="16.1131567"><ele>1088.0</ele><time>2026-04-27T08:43:55.705Z</time></trkpt><trkpt lat="39.3483733" lon="16.1130883"><ele>1088.0</ele><time>2026-04-27T08:43:57.706Z</time></trkpt><trkpt lat="39.34831" lon="16.1130117"><ele>1088.0</ele><time>2026-04-27T08:43:59.706Z</time></trkpt><trkpt lat="39.3482783" lon="16.1129317"><ele>1088.0</ele><time>2026-04-27T08:44:01.711Z</time></trkpt><trkpt lat="39.34826" lon="16.112795"><ele>1088.0</ele><time>2026-04-27T08:44:03.706Z</time></trkpt><trkpt lat="39.34827" lon="16.112705"><ele>1088.0</ele><time>2026-04-27T08:44:04.706Z</time></trkpt><trkpt lat="39.3482317" lon="16.112545"><ele>1087.9999999999998</ele><time>2026-04-27T08:44:06.703Z</time></trkpt><trkpt lat="39.3481933" lon="16.1124617"><ele>1088.0</ele><time>2026-04-27T08:44:07.706Z</time></trkpt><trkpt lat="39.3481617" lon="16.11238"><ele>1088.0</ele><time>2026-04-27T08:44:08.743Z</time></trkpt><trkpt lat="39.348125" lon="16.112305"><ele>1088.0</ele><time>2026-04-27T08:44:09.704Z</time></trkpt><trkpt lat="39.3480667" lon="16.1122633"><ele>1088.0</ele><time>2026-04-27T08:44:10.707Z</time></trkpt><trkpt lat="39.3480017" lon="16.1122617"><ele>1087.9999999999998</ele><time>2026-04-27T08:44:11.709Z</time></trkpt><trkpt lat="39.3479267" lon="16.11228"><ele>1088.0</ele><time>2026-04-27T08:44:12.717Z</time></trkpt><trkpt lat="39.3478617" lon="16.1123033"><ele>1085.1666666666667</ele><time>2026-04-27T08:44:13.704Z</time></trkpt><trkpt lat="39.3477817" lon="16.1123283"><ele>1082.3333333333335</ele><time>2026-04-27T08:44:14.746Z</time></trkpt><trkpt lat="39.3477183" lon="16.1123367"><ele>1079.5</ele><time>2026-04-27T08:44:15.709Z</time></trkpt><trkpt lat="39.3476433" lon="16.1123017"><ele>1076.6666666666667</ele><time>2026-04-27T08:44:17.705Z</time></trkpt><trkpt lat="39.3476067" lon="16.112195"><ele>1073.8333333333333</ele><time>2026-04-27T08:44:19.708Z</time></trkpt><trkpt lat="39.3476" lon="16.1120367"><ele>1071.0</ele><time>2026-04-27T08:44:21.704Z</time></trkpt><trkpt lat="39.3475933" lon="16.11194"><ele>1071.0</ele><time>2026-04-27T08:44:22.712Z</time></trkpt><trkpt lat="39.3475567" lon="16.1118067"><ele>1071.0</ele><time>2026-04-27T08:44:23.708Z</time></trkpt><trkpt lat="39.34749" lon="16.1116417"><ele>1071.0</ele><time>2026-04-27T08:44:24.71Z</time></trkpt><trkpt lat="39.347415" lon="16.1114967"><ele>1071.0</ele><time>2026-04-27T08:44:25.706Z</time></trkpt><trkpt lat="39.3473333" lon="16.1113567"><ele>1068.0</ele><time>2026-04-27T08:44:26.752Z</time></trkpt><trkpt lat="39.3472483" lon="16.1112333"><ele>1065.0</ele><time>2026-04-27T08:44:27.705Z</time></trkpt><trkpt lat="39.3471683" lon="16.1111467"><ele>1062.0</ele><time>2026-04-27T08:44:28.718Z</time></trkpt><trkpt lat="39.3470867" lon="16.1110633"><ele>1059.0</ele><time>2026-04-27T08:44:29.707Z</time></trkpt><trkpt lat="39.3470033" lon="16.1110017"><ele>1056.0</ele><time>2026-04-27T08:44:30.708Z</time></trkpt><trkpt lat="39.346925" lon="16.1109433"><ele>1056.0</ele><time>2026-04-27T08:44:31.705Z</time></trkpt><trkpt lat="39.3468433" lon="16.11089"><ele>1056.0</ele><time>2026-04-27T08:44:32.756Z</time></trkpt><trkpt lat="39.34677" lon="16.1108367"><ele>1056.0</ele><time>2026-04-27T08:44:33.706Z</time></trkpt><trkpt lat="39.3466933" lon="16.110795"><ele>1056.0</ele><time>2026-04-27T08:44:34.712Z</time></trkpt><trkpt lat="39.3466283" lon="16.1107367"><ele>1056.0</ele><time>2026-04-27T08:44:35.707Z</time></trkpt><trkpt lat="39.3466017" lon="16.1106533"><ele>1056.0</ele><time>2026-04-27T08:44:36.719Z</time></trkpt><trkpt lat="39.3466117" lon="16.1105383"><ele>1059.0</ele><time>2026-04-27T08:44:37.702Z</time></trkpt><trkpt lat="39.3466117" lon="16.1104133"><ele>1062.0</ele><time>2026-04-27T08:44:38.735Z</time></trkpt><trkpt lat="39.3466117" lon="16.1102533"><ele>1065.0</ele><time>2026-04-27T08:44:39.697Z</time></trkpt><trkpt lat="39.3465917" lon="16.110125"><ele>1068.0</ele><time>2026-04-27T08:44:40.713Z</time></trkpt><trkpt lat="39.3465767" lon="16.1099967"><ele>1071.0</ele><time>2026-04-27T08:44:41.704Z</time></trkpt><trkpt lat="39.3465467" lon="16.1098767"><ele>1071.6666666666667</ele><time>2026-04-27T08:44:42.713Z</time></trkpt><trkpt lat="39.346505" lon="16.1097533"><ele>1072.3333333333333</ele><time>2026-04-27T08:44:43.705Z</time></trkpt><trkpt lat="39.3464867" lon="16.1096367"><ele>1073.0</ele><time>2026-04-27T08:44:44.741Z</time></trkpt><trkpt lat="39.346455" lon="16.1095167"><ele>1073.6666666666665</ele><time>2026-04-27T08:44:45.704Z</time></trkpt><trkpt lat="39.3464167" lon="16.1094167"><ele>1074.3333333333333</ele><time>2026-04-27T08:44:46.71Z</time></trkpt><trkpt lat="39.3463917" lon="16.109335"><ele>1075.0</ele><time>2026-04-27T08:44:47.703Z</time></trkpt><trkpt lat="39.3464567" lon="16.1092017"><ele>1075.0</ele><time>2026-04-27T08:44:49.705Z</time></trkpt><trkpt lat="39.3465267" lon="16.1091167"><ele>1075.0</ele><time>2026-04-27T08:44:50.743Z</time></trkpt><trkpt lat="39.34658" lon="16.1090483"><ele>1075.0</ele><time>2026-04-27T08:44:51.702Z</time></trkpt><trkpt lat="39.3466333" lon="16.108985"><ele>1075.0</ele><time>2026-04-27T08:44:52.707Z</time></trkpt><trkpt lat="39.3466967" lon="16.10885"><ele>1075.0</ele><time>2026-04-27T08:44:54.705Z</time></trkpt><trkpt lat="39.3467017" lon="16.1087167"><ele>1076.6666666666665</ele><time>2026-04-27T08:44:56.777Z</time></trkpt><trkpt lat="39.346685" lon="16.1086333"><ele>1078.3333333333333</ele><time>2026-04-27T08:44:58.714Z</time></trkpt><trkpt lat="39.34667" lon="16.10855"><ele>1080.0</ele><time>2026-04-27T08:45:00.714Z</time></trkpt><trkpt lat="39.346585" lon="16.1085267"><ele>1081.6666666666667</ele><time>2026-04-27T08:45:01.706Z</time></trkpt><trkpt lat="39.346515" lon="16.1085"><ele>1083.3333333333335</ele><time>2026-04-27T08:45:02.754Z</time></trkpt><trkpt lat="39.3464133" lon="16.108445"><ele>1085.0</ele><time>2026-04-27T08:45:04.718Z</time></trkpt><trkpt lat="39.3462833" lon="16.1083783"><ele>1084.8</ele><time>2026-04-27T08:45:06.709Z</time></trkpt><trkpt lat="39.3461983" lon="16.1083383"><ele>1084.6</ele><time>2026-04-27T08:45:07.713Z</time></trkpt><trkpt lat="39.3460883" lon="16.1082783"><ele>1084.4</ele><time>2026-04-27T08:45:08.735Z</time></trkpt><trkpt lat="39.3459783" lon="16.1082117"><ele>1084.2</ele><time>2026-04-27T08:45:09.705Z</time></trkpt><trkpt lat="39.3458767" lon="16.1081517"><ele>1084.0</ele><time>2026-04-27T08:45:10.707Z</time></trkpt><trkpt lat="39.3457783" lon="16.1080867"><ele>1084.0</ele><time>2026-04-27T08:45:11.701Z</time></trkpt><trkpt lat="39.3457117" lon="16.1080183"><ele>1084.0</ele><time>2026-04-27T08:45:12.714Z</time></trkpt><trkpt lat="39.345645" lon="16.10796"><ele>1084.0</ele><time>2026-04-27T08:45:13.707Z</time></trkpt><trkpt lat="39.3455633" lon="16.107895"><ele>1084.0</ele><time>2026-04-27T08:45:14.745Z</time></trkpt><trkpt lat="39.3454917" lon="16.1078267"><ele>1084.0</ele><time>2026-04-27T08:45:15.707Z</time></trkpt><trkpt lat="39.3454183" lon="16.1078067"><ele>1084.0</ele><time>2026-04-27T08:45:16.712Z</time></trkpt><trkpt lat="39.3453417" lon="16.10779"><ele>1082.8333333333333</ele><time>2026-04-27T08:45:17.708Z</time></trkpt><trkpt lat="39.34526" lon="16.1077833"><ele>1081.6666666666665</ele><time>2026-04-27T08:45:20.741Z</time></trkpt><trkpt lat="39.34521" lon="16.1078467"><ele>1080.5</ele><time>2026-04-27T08:45:22.716Z</time></trkpt><trkpt lat="39.345175" lon="16.1079683"><ele>1079.3333333333333</ele><time>2026-04-27T08:45:27.702Z</time></trkpt><trkpt lat="39.3451583" lon="16.108065"><ele>1078.1666666666667</ele><time>2026-04-27T08:45:28.71Z</time></trkpt><trkpt lat="39.3451367" lon="16.1081533"><ele>1077.0</ele><time>2026-04-27T08:45:29.71Z</time></trkpt><trkpt lat="39.3451233" lon="16.10825"><ele>1070.6</ele><time>2026-04-27T08:45:30.708Z</time></trkpt><trkpt lat="39.3451233" lon="16.108345"><ele>1064.2</ele><time>2026-04-27T08:45:31.709Z</time></trkpt><trkpt lat="39.345095" lon="16.1084233"><ele>1057.8</ele><time>2026-04-27T08:45:32.751Z</time></trkpt><trkpt lat="39.3450333" lon="16.1085567"><ele>1051.4</ele><time>2026-04-27T08:45:34.715Z</time></trkpt><trkpt lat="39.3449783" lon="16.10864"><ele>1045.0</ele><time>2026-04-27T08:45:35.708Z</time></trkpt><trkpt lat="39.3448867" lon="16.108725"><ele>1045.0</ele><time>2026-04-27T08:45:37.703Z</time></trkpt><trkpt lat="39.3447817" lon="16.1087683"><ele>1045.0</ele><time>2026-04-27T08:45:38.742Z</time></trkpt><trkpt lat="39.3446883" lon="16.1087817"><ele>1045.0</ele><time>2026-04-27T08:45:39.701Z</time></trkpt><trkpt lat="39.3446" lon="16.1087917"><ele>1045.0</ele><time>2026-04-27T08:45:40.707Z</time></trkpt><trkpt lat="39.3445283" lon="16.10881"><ele>1045.0</ele><time>2026-04-27T08:45:41.706Z</time></trkpt><trkpt lat="39.344465" lon="16.1088083"><ele>1045.0</ele><time>2026-04-27T08:45:42.711Z</time></trkpt><trkpt lat="39.3443983" lon="16.10881"><ele>1045.6666666666665</ele><time>2026-04-27T08:45:43.702Z</time></trkpt><trkpt lat="39.3442817" lon="16.10877"><ele>1046.3333333333333</ele><time>2026-04-27T08:45:45.709Z</time></trkpt><trkpt lat="39.3442283" lon="16.108715"><ele>1047.0</ele><time>2026-04-27T08:45:46.706Z</time></trkpt><trkpt lat="39.344165" lon="16.1086333"><ele>1047.6666666666667</ele><time>2026-04-27T08:45:47.705Z</time></trkpt><trkpt lat="39.3440917" lon="16.1085467"><ele>1048.3333333333335</ele><time>2026-04-27T08:45:48.701Z</time></trkpt><trkpt lat="39.3440317" lon="16.1085017"><ele>1049.0</ele><time>2026-04-27T08:45:49.707Z</time></trkpt><trkpt lat="39.34396" lon="16.1084367"><ele>1049.0</ele><time>2026-04-27T08:45:50.745Z</time></trkpt><trkpt lat="39.3439067" lon="16.1083933"><ele>1049.0</ele><time>2026-04-27T08:45:51.707Z</time></trkpt><trkpt lat="39.3438317" lon="16.108325"><ele>1049.0</ele><time>2026-04-27T08:45:53.704Z</time></trkpt><trkpt lat="39.343765" lon="16.108365"><ele>1049.0</ele><time>2026-04-27T08:45:56.749Z</time></trkpt><trkpt lat="39.3436417" lon="16.108455"><ele>1049.0</ele><time>2026-04-27T08:45:58.706Z</time></trkpt><trkpt lat="39.3435583" lon="16.10857"><ele>1050.4</ele><time>2026-04-27T08:45:59.704Z</time></trkpt><trkpt lat="39.3434617" lon="16.1086867"><ele>1051.8000000000002</ele><time>2026-04-27T08:46:00.711Z</time></trkpt><trkpt lat="39.3433883" lon="16.1087467"><ele>1053.1999999999998</ele><time>2026-04-27T08:46:01.709Z</time></trkpt><trkpt lat="39.3433267" lon="16.1088033"><ele>1054.6</ele><time>2026-04-27T08:46:02.757Z</time></trkpt><trkpt lat="39.3432533" lon="16.10887"><ele>1056.0</ele><time>2026-04-27T08:46:03.705Z</time></trkpt><trkpt lat="39.3431383" lon="16.1089433"><ele>1056.0</ele><time>2026-04-27T08:46:04.715Z</time></trkpt><trkpt lat="39.343075" lon="16.109015"><ele>1056.0</ele><time>2026-04-27T08:46:05.71Z</time></trkpt><trkpt lat="39.3430183" lon="16.1091117"><ele>1056.0</ele><time>2026-04-27T08:46:06.722Z</time></trkpt><trkpt lat="39.3429717" lon="16.1092083"><ele>1056.0</ele><time>2026-04-27T08:46:07.705Z</time></trkpt><trkpt lat="39.3429383" lon="16.1092967"><ele>1056.0</ele><time>2026-04-27T08:46:08.74Z</time></trkpt><trkpt lat="39.3429017" lon="16.1094083"><ele>1056.0</ele><time>2026-04-27T08:46:09.704Z</time></trkpt><trkpt lat="39.3428683" lon="16.1095067"><ele>1053.1666666666667</ele><time>2026-04-27T08:46:10.711Z</time></trkpt><trkpt lat="39.342825" lon="16.10961"><ele>1050.3333333333333</ele><time>2026-04-27T08:46:11.709Z</time></trkpt><trkpt lat="39.342765" lon="16.1096867"><ele>1047.5</ele><time>2026-04-27T08:46:12.708Z</time></trkpt><trkpt lat="39.342695" lon="16.109715"><ele>1044.6666666666665</ele><time>2026-04-27T08:46:13.709Z</time></trkpt><trkpt lat="39.3426283" lon="16.10976"><ele>1041.8333333333333</ele><time>2026-04-27T08:46:14.74Z</time></trkpt><trkpt lat="39.342555" lon="16.1098083"><ele>1039.0</ele><time>2026-04-27T08:46:15.702Z</time></trkpt><trkpt lat="39.3424817" lon="16.1098533"><ele>1038.9999999999998</ele><time>2026-04-27T08:46:16.707Z</time></trkpt><trkpt lat="39.3424217" lon="16.109885"><ele>1039.0</ele><time>2026-04-27T08:46:17.705Z</time></trkpt><trkpt lat="39.3423733" lon="16.1098083"><ele>1039.0</ele><time>2026-04-27T08:46:19.705Z</time></trkpt><trkpt lat="39.3423567" lon="16.1097267"><ele>1039.0</ele><time>2026-04-27T08:46:20.739Z</time></trkpt><trkpt lat="39.3423267" lon="16.109645"><ele>1039.0</ele><time>2026-04-27T08:46:21.701Z</time></trkpt><trkpt lat="39.3422817" lon="16.109555"><ele>1038.9999999999998</ele><time>2026-04-27T08:46:22.706Z</time></trkpt><trkpt lat="39.3422233" lon="16.1094817"><ele>1039.0</ele><time>2026-04-27T08:46:23.705Z</time></trkpt><trkpt lat="39.3421633" lon="16.1094233"><ele>1035.1666666666665</ele><time>2026-04-27T08:46:24.703Z</time></trkpt><trkpt lat="39.34207" lon="16.1093817"><ele>1031.3333333333333</ele><time>2026-04-27T08:46:25.709Z</time></trkpt><trkpt lat="39.342" lon="16.1093367"><ele>1027.5</ele><time>2026-04-27T08:46:26.757Z</time></trkpt><trkpt lat="39.3419417" lon="16.109285"><ele>1023.6666666666667</ele><time>2026-04-27T08:46:27.707Z</time></trkpt><trkpt lat="39.34188" lon="16.10923"><ele>1019.8333333333334</ele><time>2026-04-27T08:46:28.705Z</time></trkpt><trkpt lat="39.341815" lon="16.1091717"><ele>1016.0</ele><time>2026-04-27T08:46:29.711Z</time></trkpt><trkpt lat="39.3417583" lon="16.1090883"><ele>1022.8333333333334</ele><time>2026-04-27T08:46:30.704Z</time></trkpt><trkpt lat="39.341705" lon="16.1090167"><ele>1029.6666666666667</ele><time>2026-04-27T08:46:31.705Z</time></trkpt><trkpt lat="39.3416433" lon="16.1089583"><ele>1036.5</ele><time>2026-04-27T08:46:32.758Z</time></trkpt><trkpt lat="39.3415883" lon="16.108915"><ele>1043.3333333333333</ele><time>2026-04-27T08:46:33.701Z</time></trkpt><trkpt lat="39.341515" lon="16.1088933"><ele>1050.1666666666665</ele><time>2026-04-27T08:46:35.708Z</time></trkpt><trkpt lat="39.3413967" lon="16.1089283"><ele>1057.0</ele><time>2026-04-27T08:46:37.708Z</time></trkpt><trkpt lat="39.3412567" lon="16.1090267"><ele>1050.5</ele><time>2026-04-27T08:46:39.702Z</time></trkpt><trkpt lat="39.3411733" lon="16.1090883"><ele>1044.0</ele><time>2026-04-27T08:46:40.712Z</time></trkpt><trkpt lat="39.3411017" lon="16.1091533"><ele>1037.5</ele><time>2026-04-27T08:46:41.709Z</time></trkpt><trkpt lat="39.3410367" lon="16.109195"><ele>1031.0</ele><time>2026-04-27T08:46:42.713Z</time></trkpt><trkpt lat="39.3409883" lon="16.1092517"><ele>1024.5</ele><time>2026-04-27T08:46:43.705Z</time></trkpt><trkpt lat="39.3409417" lon="16.109365"><ele>1018.0</ele><time>2026-04-27T08:46:44.743Z</time></trkpt><trkpt lat="39.3408867" lon="16.1094567"><ele>1017.9999999999999</ele><time>2026-04-27T08:46:45.703Z</time></trkpt><trkpt lat="39.340835" lon="16.10953"><ele>1018.0</ele><time>2026-04-27T08:46:46.702Z</time></trkpt><trkpt lat="39.3407717" lon="16.1095983"><ele>1018.0</ele><time>2026-04-27T08:46:47.71Z</time></trkpt><trkpt lat="39.3407" lon="16.1096567"><ele>1018.0</ele><time>2026-04-27T08:46:48.714Z</time></trkpt><trkpt lat="39.340615" lon="16.1097017"><ele>1017.9999999999999</ele><time>2026-04-27T08:46:49.703Z</time></trkpt><trkpt lat="39.34052" lon="16.1097267"><ele>1018.0</ele><time>2026-04-27T08:46:50.74Z</time></trkpt><trkpt lat="39.3404333" lon="16.109745"><ele>1014.8333333333333</ele><time>2026-04-27T08:46:51.708Z</time></trkpt><trkpt lat="39.3403633" lon="16.109745"><ele>1011.6666666666666</ele><time>2026-04-27T08:46:52.701Z</time></trkpt><trkpt lat="39.3402933" lon="16.1096083"><ele>1008.5</ele><time>2026-04-27T08:46:54.73Z</time></trkpt><trkpt lat="39.3402783" lon="16.1094967"><ele>1005.3333333333333</ele><time>2026-04-27T08:46:55.707Z</time></trkpt><trkpt lat="39.3402583" lon="16.1094167"><ele>1002.1666666666666</ele><time>2026-04-27T08:46:56.762Z</time></trkpt><trkpt lat="39.3402217" lon="16.1093083"><ele>999.0</ele><time>2026-04-27T08:46:57.7Z</time></trkpt><trkpt lat="39.34018" lon="16.109225"><ele>999.0</ele><time>2026-04-27T08:46:58.708Z</time></trkpt><trkpt lat="39.3401267" lon="16.1091267"><ele>999.0</ele><time>2026-04-27T08:46:59.705Z</time></trkpt><trkpt lat="39.34008" lon="16.109035"><ele>999.0</ele><time>2026-04-27T08:47:00.712Z</time></trkpt><trkpt lat="39.3400383" lon="16.10895"><ele>999.0</ele><time>2026-04-27T08:47:01.705Z</time></trkpt><trkpt lat="39.3400067" lon="16.1088733"><ele>999.0</ele><time>2026-04-27T08:47:02.762Z</time></trkpt><trkpt lat="39.339975" lon="16.1087817"><ele>999.0</ele><time>2026-04-27T08:47:03.705Z</time></trkpt><trkpt lat="39.3399517" lon="16.1086767"><ele>1003.3333333333334</ele><time>2026-04-27T08:47:04.706Z</time></trkpt><trkpt lat="39.339935" lon="16.108575"><ele>1007.6666666666667</ele><time>2026-04-27T08:47:05.699Z</time></trkpt><trkpt lat="39.3399" lon="16.1084983"><ele>1012.0</ele><time>2026-04-27T08:47:06.707Z</time></trkpt><trkpt lat="39.3398733" lon="16.1084067"><ele>1016.3333333333334</ele><time>2026-04-27T08:47:07.705Z</time></trkpt><trkpt lat="39.3398367" lon="16.1083233"><ele>1020.6666666666667</ele><time>2026-04-27T08:47:08.742Z</time></trkpt><trkpt lat="39.3397817" lon="16.1082483"><ele>1025.0</ele><time>2026-04-27T08:47:09.704Z</time></trkpt><trkpt lat="39.3397217" lon="16.1081933"><ele>1025.6</ele><time>2026-04-27T08:47:10.707Z</time></trkpt><trkpt lat="39.339655" lon="16.1081417"><ele>1026.2</ele><time>2026-04-27T08:47:11.7Z</time></trkpt><trkpt lat="39.3396033" lon="16.1080883"><ele>1026.8</ele><time>2026-04-27T08:47:12.707Z</time></trkpt><trkpt lat="39.3395267" lon="16.1079717"><ele>1027.4</ele><time>2026-04-27T08:47:14.74Z</time></trkpt><trkpt lat="39.339425" lon="16.1078567"><ele>1028.0</ele><time>2026-04-27T08:47:16.703Z</time></trkpt><trkpt lat="39.3393617" lon="16.1078383"><ele>1028.0</ele><time>2026-04-27T08:47:17.708Z</time></trkpt><trkpt lat="39.3392967" lon="16.1078133"><ele>1028.0</ele><time>2026-04-27T08:47:18.711Z</time></trkpt><trkpt lat="39.339185" lon="16.10786"><ele>1028.0</ele><time>2026-04-27T08:47:19.704Z</time></trkpt><trkpt lat="39.3390833" lon="16.1078633"><ele>1028.0</ele><time>2026-04-27T08:47:20.745Z</time></trkpt><trkpt lat="39.3389867" lon="16.10787"><ele>1028.0</ele><time>2026-04-27T08:47:21.709Z</time></trkpt><trkpt lat="39.33888" lon="16.10786"><ele>1028.4</ele><time>2026-04-27T08:47:22.705Z</time></trkpt><trkpt lat="39.33878" lon="16.1078367"><ele>1028.8</ele><time>2026-04-27T08:47:23.702Z</time></trkpt><trkpt lat="39.3386733" lon="16.1078367"><ele>1029.2</ele><time>2026-04-27T08:47:24.704Z</time></trkpt><trkpt lat="39.3385833" lon="16.10783"><ele>1029.6</ele><time>2026-04-27T08:47:25.706Z</time></trkpt><trkpt lat="39.3384983" lon="16.10784"><ele>1030.0</ele><time>2026-04-27T08:47:26.77Z</time></trkpt><trkpt lat="39.3384233" lon="16.1078533"><ele>1030.0</ele><time>2026-04-27T08:47:27.707Z</time></trkpt><trkpt lat="39.3383367" lon="16.1079283"><ele>1030.0</ele><time>2026-04-27T08:47:28.707Z</time></trkpt><trkpt lat="39.3382633" lon="16.10799"><ele>1030.0</ele><time>2026-04-27T08:47:29.706Z</time></trkpt><trkpt lat="39.3382067" lon="16.1080267"><ele>1030.0</ele><time>2026-04-27T08:47:30.706Z</time></trkpt><trkpt lat="39.33815" lon="16.108075"><ele>1030.0</ele><time>2026-04-27T08:47:31.707Z</time></trkpt><trkpt lat="39.3381067" lon="16.1081367"><ele>1030.0</ele><time>2026-04-27T08:47:32.753Z</time></trkpt><trkpt lat="39.3380433" lon="16.1082033"><ele>1030.6</ele><time>2026-04-27T08:47:33.704Z</time></trkpt><trkpt lat="39.3379367" lon="16.1083183"><ele>1031.2</ele><time>2026-04-27T08:47:35.706Z</time></trkpt><trkpt lat="39.3378733" lon="16.1084167"><ele>1031.8</ele><time>2026-04-27T08:47:36.715Z</time></trkpt><trkpt lat="39.3378" lon="16.1085"><ele>1032.4</ele><time>2026-04-27T08:47:37.706Z</time></trkpt><trkpt lat="39.3377317" lon="16.1086"><ele>1033.0</ele><time>2026-04-27T08:47:38.745Z</time></trkpt><trkpt lat="39.33768" lon="16.1086917"><ele>1033.0</ele><time>2026-04-27T08:47:39.699Z</time></trkpt><trkpt lat="39.337645" lon="16.1087933"><ele>1033.0</ele><time>2026-04-27T08:47:40.704Z</time></trkpt><trkpt lat="39.3376283" lon="16.1088917"><ele>1033.0</ele><time>2026-04-27T08:47:41.71Z</time></trkpt><trkpt lat="39.3376183" lon="16.1089983"><ele>1033.0</ele><time>2026-04-27T08:47:42.706Z</time></trkpt><trkpt lat="39.3376" lon="16.1090883"><ele>1033.0</ele><time>2026-04-27T08:47:43.702Z</time></trkpt><trkpt lat="39.3375883" lon="16.109175"><ele>1033.0</ele><time>2026-04-27T08:47:44.737Z</time></trkpt><trkpt lat="39.337565" lon="16.1093017"><ele>1029.3333333333333</ele><time>2026-04-27T08:47:46.707Z</time></trkpt><trkpt lat="39.3375017" lon="16.10937"><ele>1025.6666666666665</ele><time>2026-04-27T08:47:48.703Z</time></trkpt><trkpt lat="39.3373783" lon="16.109395"><ele>1022.0</ele><time>2026-04-27T08:47:50.741Z</time></trkpt><trkpt lat="39.3373117" lon="16.1094167"><ele>1018.3333333333333</ele><time>2026-04-27T08:47:51.701Z</time></trkpt><trkpt lat="39.3372417" lon="16.109445"><ele>1014.6666666666666</ele><time>2026-04-27T08:47:52.701Z</time></trkpt><trkpt lat="39.337165" lon="16.1094783"><ele>1011.0</ele><time>2026-04-27T08:47:53.701Z</time></trkpt><trkpt lat="39.3370933" lon="16.10955"><ele>1011.0</ele><time>2026-04-27T08:47:54.705Z</time></trkpt><trkpt lat="39.3370283" lon="16.1096367"><ele>1011.0</ele><time>2026-04-27T08:47:55.709Z</time></trkpt><trkpt lat="39.3369667" lon="16.1097283"><ele>1011.0</ele><time>2026-04-27T08:47:56.77Z</time></trkpt><trkpt lat="39.3369233" lon="16.1098183"><ele>1011.0</ele><time>2026-04-27T08:47:57.706Z</time></trkpt><trkpt lat="39.3368867" lon="16.1099417"><ele>1011.0</ele><time>2026-04-27T08:47:58.703Z</time></trkpt><trkpt lat="39.336855" lon="16.1100333"><ele>1011.0</ele><time>2026-04-27T08:47:59.71Z</time></trkpt><trkpt lat="39.3368283" lon="16.11012"><ele>1005.1666666666666</ele><time>2026-04-27T08:48:00.708Z</time></trkpt><trkpt lat="39.33681" lon="16.1102717"><ele>999.3333333333333</ele><time>2026-04-27T08:48:02.757Z</time></trkpt><trkpt lat="39.3368317" lon="16.1103783"><ele>993.5</ele><time>2026-04-27T08:48:04.699Z</time></trkpt><trkpt lat="39.33685" lon="16.1104567"><ele>987.6666666666666</ele><time>2026-04-27T08:48:05.708Z</time></trkpt><trkpt lat="39.33686" lon="16.11055"><ele>981.8333333333333</ele><time>2026-04-27T08:48:06.708Z</time></trkpt><trkpt lat="39.3368733" lon="16.11063"><ele>976.0</ele><time>2026-04-27T08:48:07.702Z</time></trkpt><trkpt lat="39.3368867" lon="16.1107117"><ele>975.9999999999999</ele><time>2026-04-27T08:48:08.737Z</time></trkpt><trkpt lat="39.3368833" lon="16.1108367"><ele>976.0</ele><time>2026-04-27T08:48:10.705Z</time></trkpt><trkpt lat="39.33681" lon="16.1107783"><ele>976.0</ele><time>2026-04-27T08:48:14.745Z</time></trkpt><trkpt lat="39.33679" lon="16.1106467"><ele>976.0</ele><time>2026-04-27T08:48:16.7Z</time></trkpt><trkpt lat="39.336775" lon="16.110565"><ele>975.9999999999999</ele><time>2026-04-27T08:48:17.704Z</time></trkpt><trkpt lat="39.3367417" lon="16.110475"><ele>976.0</ele><time>2026-04-27T08:48:18.708Z</time></trkpt><trkpt lat="39.336695" lon="16.1103933"><ele>975.9999999999999</ele><time>2026-04-27T08:48:19.703Z</time></trkpt><trkpt lat="39.3366433" lon="16.1103217"><ele>976.0</ele><time>2026-04-27T08:48:20.742Z</time></trkpt><trkpt lat="39.3365717" lon="16.110275"><ele>976.0</ele><time>2026-04-27T08:48:21.706Z</time></trkpt><trkpt lat="39.3364933" lon="16.1102633"><ele>976.0</ele><time>2026-04-27T08:48:22.71Z</time></trkpt><trkpt lat="39.33642" lon="16.11027"><ele>975.9999999999999</ele><time>2026-04-27T08:48:23.702Z</time></trkpt><trkpt lat="39.33631" lon="16.1102283"><ele>976.0</ele><time>2026-04-27T08:48:25.7Z</time></trkpt><trkpt lat="39.336195" lon="16.11015"><ele>973.9999999999999</ele><time>2026-04-27T08:48:27.707Z</time></trkpt><trkpt lat="39.336125" lon="16.1101117"><ele>972.0</ele><time>2026-04-27T08:48:28.711Z</time></trkpt><trkpt lat="39.33604" lon="16.1100933"><ele>970.0</ele><time>2026-04-27T08:48:29.707Z</time></trkpt><trkpt lat="39.335955" lon="16.110075"><ele>968.0</ele><time>2026-04-27T08:48:30.713Z</time></trkpt><trkpt lat="39.3358833" lon="16.1100817"><ele>965.9999999999999</ele><time>2026-04-27T08:48:31.702Z</time></trkpt><trkpt lat="39.335815" lon="16.1100733"><ele>964.0</ele><time>2026-04-27T08:48:32.755Z</time></trkpt><trkpt lat="39.3357533" lon="16.1100533"><ele>964.0</ele><time>2026-04-27T08:48:33.71Z</time></trkpt><trkpt lat="39.3356667" lon="16.1100317"><ele>964.0000000000001</ele><time>2026-04-27T08:48:35.701Z</time></trkpt><trkpt lat="39.3356283" lon="16.11016"><ele>964.0000000000001</ele><time>2026-04-27T08:48:39.704Z</time></trkpt><trkpt lat="39.335645" lon="16.1102583"><ele>964.0</ele><time>2026-04-27T08:48:40.707Z</time></trkpt><trkpt lat="39.33566" lon="16.1103733"><ele>964.0</ele><time>2026-04-27T08:48:41.703Z</time></trkpt><trkpt lat="39.3356767" lon="16.1105067"><ele>963.9999999999999</ele><time>2026-04-27T08:48:42.71Z</time></trkpt><trkpt lat="39.335675" lon="16.1106333"><ele>964.0</ele><time>2026-04-27T08:48:43.703Z</time></trkpt><trkpt lat="39.3356733" lon="16.1107483"><ele>964.0</ele><time>2026-04-27T08:48:44.742Z</time></trkpt><trkpt lat="39.3356533" lon="16.1108317"><ele>964.0</ele><time>2026-04-27T08:48:45.7Z</time></trkpt><trkpt lat="39.3355667" lon="16.1108983"><ele>963.9999999999999</ele><time>2026-04-27T08:48:47.704Z</time></trkpt><trkpt lat="39.3354933" lon="16.1108833"><ele>964.0</ele><time>2026-04-27T08:48:48.712Z</time></trkpt><trkpt lat="39.33541" lon="16.1108683"><ele>964.8333333333333</ele><time>2026-04-27T08:48:49.703Z</time></trkpt><trkpt lat="39.33534" lon="16.1108883"><ele>965.6666666666666</ele><time>2026-04-27T08:48:50.748Z</time></trkpt><trkpt lat="39.3352717" lon="16.110935"><ele>966.5</ele><time>2026-04-27T08:48:51.702Z</time></trkpt><trkpt lat="39.335205" lon="16.1109917"><ele>967.3333333333333</ele><time>2026-04-27T08:48:52.713Z</time></trkpt><trkpt lat="39.3351233" lon="16.11107"><ele>968.1666666666666</ele><time>2026-04-27T08:48:53.71Z</time></trkpt><trkpt lat="39.33504" lon="16.1111367"><ele>969.0</ele><time>2026-04-27T08:48:54.708Z</time></trkpt><trkpt lat="39.3349467" lon="16.11118"><ele>969.0</ele><time>2026-04-27T08:48:55.703Z</time></trkpt><trkpt lat="39.3348467" lon="16.111215"><ele>969.0</ele><time>2026-04-27T08:48:56.774Z</time></trkpt><trkpt lat="39.3347467" lon="16.1112467"><ele>969.0</ele><time>2026-04-27T08:48:57.699Z</time></trkpt><trkpt lat="39.334655" lon="16.1112717"><ele>969.0</ele><time>2026-04-27T08:48:58.701Z</time></trkpt><trkpt lat="39.3345833" lon="16.111275"><ele>969.0</ele><time>2026-04-27T08:48:59.704Z</time></trkpt><trkpt lat="39.3345133" lon="16.11125"><ele>969.0</ele><time>2026-04-27T08:49:00.714Z</time></trkpt><trkpt lat="39.3344383" lon="16.1112083"><ele>970.6</ele><time>2026-04-27T08:49:01.711Z</time></trkpt><trkpt lat="39.3343567" lon="16.1111717"><ele>972.2</ele><time>2026-04-27T08:49:02.753Z</time></trkpt><trkpt lat="39.33427" lon="16.1111433"><ele>973.8000000000001</ele><time>2026-04-27T08:49:03.703Z</time></trkpt><trkpt lat="39.3341733" lon="16.11113"><ele>975.4000000000001</ele><time>2026-04-27T08:49:04.705Z</time></trkpt><trkpt lat="39.3340733" lon="16.1111317"><ele>977.0</ele><time>2026-04-27T08:49:05.706Z</time></trkpt><trkpt lat="39.33398" lon="16.1111383"><ele>977.0000000000001</ele><time>2026-04-27T08:49:06.704Z</time></trkpt><trkpt lat="39.333895" lon="16.1111483"><ele>977.0</ele><time>2026-04-27T08:49:07.705Z</time></trkpt><trkpt lat="39.33382" lon="16.1111583"><ele>977.0</ele><time>2026-04-27T08:49:08.75Z</time></trkpt><trkpt lat="39.333745" lon="16.1111517"><ele>977.0</ele><time>2026-04-27T08:49:09.701Z</time></trkpt><trkpt lat="39.3336783" lon="16.1111367"><ele>977.0000000000001</ele><time>2026-04-27T08:49:10.708Z</time></trkpt><trkpt lat="39.3336217" lon="16.1110983"><ele>977.0</ele><time>2026-04-27T08:49:11.702Z</time></trkpt><trkpt lat="39.3335283" lon="16.11101"><ele>974.25</ele><time>2026-04-27T08:49:13.701Z</time></trkpt><trkpt lat="39.333505" lon="16.1109083"><ele>971.5</ele><time>2026-04-27T08:49:14.745Z</time></trkpt><trkpt lat="39.3335617" lon="16.110735"><ele>968.75</ele><time>2026-04-27T08:49:15.703Z</time></trkpt><trkpt lat="39.3335583" lon="16.11059"><ele>966.0</ele><time>2026-04-27T08:49:16.707Z</time></trkpt><trkpt lat="39.33356" lon="16.1104367"><ele>966.0</ele><time>2026-04-27T08:49:17.7Z</time></trkpt><trkpt lat="39.3335383" lon="16.1103017"><ele>965.9999999999999</ele><time>2026-04-27T08:49:18.713Z</time></trkpt><trkpt lat="39.3335083" lon="16.1101783"><ele>965.9999999999999</ele><time>2026-04-27T08:49:19.704Z</time></trkpt><trkpt lat="39.3334767" lon="16.110065"><ele>966.0</ele><time>2026-04-27T08:49:20.742Z</time></trkpt><trkpt lat="39.3334367" lon="16.10996"><ele>966.0</ele><time>2026-04-27T08:49:21.707Z</time></trkpt><trkpt lat="39.333405" lon="16.10987"><ele>966.0</ele><time>2026-04-27T08:49:22.704Z</time></trkpt><trkpt lat="39.333375" lon="16.1097933"><ele>966.0</ele><time>2026-04-27T08:49:23.704Z</time></trkpt><trkpt lat="39.33332" lon="16.1097117"><ele>966.0</ele><time>2026-04-27T08:49:25.706Z</time></trkpt><trkpt lat="39.3332517" lon="16.109725"><ele>966.0</ele><time>2026-04-27T08:49:28.707Z</time></trkpt><trkpt lat="39.3332333" lon="16.1098267"><ele>966.0</ele><time>2026-04-27T08:49:30.701Z</time></trkpt><trkpt lat="39.33321" lon="16.1099467"><ele>966.0</ele><time>2026-04-27T08:49:32.753Z</time></trkpt><trkpt lat="39.3331683" lon="16.11011"><ele>966.0</ele><time>2026-04-27T08:49:34.708Z</time></trkpt><trkpt lat="39.33315" lon="16.11025"><ele>966.0</ele><time>2026-04-27T08:49:35.705Z</time></trkpt><trkpt lat="39.3331283" lon="16.1103567"><ele>966.0</ele><time>2026-04-27T08:49:36.707Z</time></trkpt><trkpt lat="39.3331133" lon="16.1104667"><ele>966.0</ele><time>2026-04-27T08:49:37.702Z</time></trkpt><trkpt lat="39.333085" lon="16.1105683"><ele>966.0</ele><time>2026-04-27T08:49:38.74Z</time></trkpt><trkpt lat="39.3330767" lon="16.110675"><ele>966.0</ele><time>2026-04-27T08:49:39.702Z</time></trkpt><trkpt lat="39.3330383" lon="16.11076"><ele>963.1999999999999</ele><time>2026-04-27T08:49:40.714Z</time></trkpt><trkpt lat="39.3329433" lon="16.11086"><ele>960.3999999999999</ele><time>2026-04-27T08:49:42.702Z</time></trkpt><trkpt lat="39.33281" lon="16.110875"><ele>957.6</ele><time>2026-04-27T08:49:44.746Z</time></trkpt><trkpt lat="39.3327383" lon="16.110905"><ele>954.8</ele><time>2026-04-27T08:49:46.712Z</time></trkpt><trkpt lat="39.3326683" lon="16.1109867"><ele>952.0</ele><time>2026-04-27T08:49:48.708Z</time></trkpt><trkpt lat="39.3326483" lon="16.1110867"><ele>951.9999999999999</ele><time>2026-04-27T08:49:49.705Z</time></trkpt><trkpt lat="39.3326183" lon="16.11116"><ele>952.0</ele><time>2026-04-27T08:49:50.744Z</time></trkpt><trkpt lat="39.332575" lon="16.111245"><ele>952.0</ele><time>2026-04-27T08:49:51.706Z</time></trkpt><trkpt lat="39.33251" lon="16.111335"><ele>952.0</ele><time>2026-04-27T08:49:52.704Z</time></trkpt><trkpt lat="39.33244" lon="16.1114133"><ele>951.9999999999999</ele><time>2026-04-27T08:49:53.704Z</time></trkpt><trkpt lat="39.332375" lon="16.111465"><ele>952.0</ele><time>2026-04-27T08:49:54.712Z</time></trkpt><trkpt lat="39.3322783" lon="16.1114917"><ele>953.6</ele><time>2026-04-27T08:49:56.775Z</time></trkpt><trkpt lat="39.3321667" lon="16.111475"><ele>955.2</ele><time>2026-04-27T08:49:58.707Z</time></trkpt><trkpt lat="39.3321017" lon="16.1115"><ele>956.8</ele><time>2026-04-27T08:49:59.705Z</time></trkpt><trkpt lat="39.332035" lon="16.11153"><ele>958.4</ele><time>2026-04-27T08:50:00.708Z</time></trkpt><trkpt lat="39.3319317" lon="16.1115867"><ele>960.0</ele><time>2026-04-27T08:50:02.755Z</time></trkpt><trkpt lat="39.331915" lon="16.1117417"><ele>960.0</ele><time>2026-04-27T08:50:04.715Z</time></trkpt><trkpt lat="39.331935" lon="16.1118767"><ele>960.0</ele><time>2026-04-27T08:50:05.709Z</time></trkpt><trkpt lat="39.3319417" lon="16.1120183"><ele>960.0</ele><time>2026-04-27T08:50:06.712Z</time></trkpt><trkpt lat="39.3319383" lon="16.1121783"><ele>960.0</ele><time>2026-04-27T08:50:07.704Z</time></trkpt><trkpt lat="39.33194" lon="16.1123433"><ele>957.0</ele><time>2026-04-27T08:50:08.74Z</time></trkpt><trkpt lat="39.3319533" lon="16.1125167"><ele>954.0</ele><time>2026-04-27T08:50:09.708Z</time></trkpt><trkpt lat="39.3319633" lon="16.1126817"><ele>951.0</ele><time>2026-04-27T08:50:10.697Z</time></trkpt><trkpt lat="39.33198" lon="16.1128367"><ele>948.0</ele><time>2026-04-27T08:50:11.697Z</time></trkpt><trkpt lat="39.3319833" lon="16.1129517"><ele>948.0</ele><time>2026-04-27T08:50:12.706Z</time></trkpt><trkpt lat="39.33197" lon="16.1130317"><ele>948.0</ele><time>2026-04-27T08:50:13.702Z</time></trkpt><trkpt lat="39.3318633" lon="16.1131183"><ele>948.0</ele><time>2026-04-27T08:50:15.705Z</time></trkpt><trkpt lat="39.33181" lon="16.1131617"><ele>948.0</ele><time>2026-04-27T08:50:16.707Z</time></trkpt><trkpt lat="39.3317667" lon="16.1132983"><ele>948.0</ele><time>2026-04-27T08:50:18.7Z</time></trkpt><trkpt lat="39.3317867" lon="16.11343"><ele>947.1666666666666</ele><time>2026-04-27T08:50:20.739Z</time></trkpt><trkpt lat="39.3318617" lon="16.113555"><ele>946.3333333333333</ele><time>2026-04-27T08:50:22.71Z</time></trkpt><trkpt lat="39.3319133" lon="16.1136033"><ele>945.5</ele><time>2026-04-27T08:50:23.708Z</time></trkpt><trkpt lat="39.3319667" lon="16.1136467"><ele>944.6666666666666</ele><time>2026-04-27T08:50:24.707Z</time></trkpt><trkpt lat="39.3320383" lon="16.113725"><ele>943.8333333333333</ele><time>2026-04-27T08:50:26.773Z</time></trkpt><trkpt lat="39.332105" lon="16.11381"><ele>943.0</ele><time>2026-04-27T08:50:28.707Z</time></trkpt><trkpt lat="39.3321633" lon="16.1139017"><ele>936.2</ele><time>2026-04-27T08:50:30.707Z</time></trkpt><trkpt lat="39.3322433" lon="16.1139983"><ele>929.4</ele><time>2026-04-27T08:50:32.756Z</time></trkpt><trkpt lat="39.332285" lon="16.1141283"><ele>922.6000000000001</ele><time>2026-04-27T08:50:34.706Z</time></trkpt><trkpt lat="39.3323267" lon="16.11426"><ele>915.8000000000001</ele><time>2026-04-27T08:50:36.709Z</time></trkpt><trkpt lat="39.3323433" lon="16.11434"><ele>909.0</ele><time>2026-04-27T08:50:37.707Z</time></trkpt><trkpt lat="39.33236" lon="16.1145067"><ele>909.0</ele><time>2026-04-27T08:50:39.71Z</time></trkpt><trkpt lat="39.33234" lon="16.114605"><ele>909.0</ele><time>2026-04-27T08:50:40.707Z</time></trkpt><trkpt lat="39.3323033" lon="16.1147067"><ele>909.0</ele><time>2026-04-27T08:50:41.705Z</time></trkpt><trkpt lat="39.332275" lon="16.1148033"><ele>909.0</ele><time>2026-04-27T08:50:42.709Z</time></trkpt><trkpt lat="39.33225" lon="16.11491"><ele>909.0</ele><time>2026-04-27T08:50:43.705Z</time></trkpt><trkpt lat="39.3322067" lon="16.115035"><ele>909.0</ele><time>2026-04-27T08:50:44.74Z</time></trkpt><trkpt lat="39.3321783" lon="16.11517"><ele>912.8333333333334</ele><time>2026-04-27T08:50:45.706Z</time></trkpt><trkpt lat="39.33216" lon="16.1152867"><ele>916.6666666666667</ele><time>2026-04-27T08:50:46.704Z</time></trkpt><trkpt lat="39.3321317" lon="16.1153967"><ele>920.5</ele><time>2026-04-27T08:50:47.708Z</time></trkpt><trkpt lat="39.3321" lon="16.1154817"><ele>924.3333333333334</ele><time>2026-04-27T08:50:48.702Z</time></trkpt><trkpt lat="39.3320467" lon="16.1155417"><ele>928.1666666666667</ele><time>2026-04-27T08:50:49.705Z</time></trkpt><trkpt lat="39.33195" lon="16.1155417"><ele>932.0</ele><time>2026-04-27T08:50:50.741Z</time></trkpt><trkpt lat="39.3318567" lon="16.11556"><ele>932.0</ele><time>2026-04-27T08:50:51.705Z</time></trkpt><trkpt lat="39.33173" lon="16.11556"><ele>932.0</ele><time>2026-04-27T08:50:52.708Z</time></trkpt><trkpt lat="39.3316133" lon="16.115575"><ele>932.0</ele><time>2026-04-27T08:50:53.699Z</time></trkpt><trkpt lat="39.3315067" lon="16.115605"><ele>932.0</ele><time>2026-04-27T08:50:54.709Z</time></trkpt><trkpt lat="39.3314183" lon="16.11564"><ele>932.0</ele><time>2026-04-27T08:50:55.705Z</time></trkpt><trkpt lat="39.3313333" lon="16.115695"><ele>926.2</ele><time>2026-04-27T08:50:56.735Z</time></trkpt><trkpt lat="39.3312417" lon="16.1157517"><ele>920.4000000000001</ele><time>2026-04-27T08:50:57.704Z</time></trkpt><trkpt lat="39.33114" lon="16.1158083"><ele>914.5999999999999</ele><time>2026-04-27T08:50:58.707Z</time></trkpt><trkpt lat="39.3310417" lon="16.11587"><ele>908.8</ele><time>2026-04-27T08:50:59.702Z</time></trkpt><trkpt lat="39.3309417" lon="16.115935"><ele>903.0</ele><time>2026-04-27T08:51:00.709Z</time></trkpt><trkpt lat="39.3308417" lon="16.116005"><ele>903.0</ele><time>2026-04-27T08:51:01.703Z</time></trkpt><trkpt lat="39.3307467" lon="16.11607"><ele>903.0</ele><time>2026-04-27T08:51:02.752Z</time></trkpt><trkpt lat="39.3306667" lon="16.1161167"><ele>903.0</ele><time>2026-04-27T08:51:03.718Z</time></trkpt><trkpt lat="39.330585" lon="16.1161517"><ele>903.0</ele><time>2026-04-27T08:51:04.707Z</time></trkpt><trkpt lat="39.3305067" lon="16.1160633"><ele>903.0</ele><time>2026-04-27T08:51:06.711Z</time></trkpt><trkpt lat="39.33046" lon="16.1159833"><ele>901.25</ele><time>2026-04-27T08:51:07.699Z</time></trkpt><trkpt lat="39.3304" lon="16.11587"><ele>899.5</ele><time>2026-04-27T08:51:08.747Z</time></trkpt><trkpt lat="39.3303167" lon="16.1157483"><ele>897.75</ele><time>2026-04-27T08:51:09.703Z</time></trkpt><trkpt lat="39.3302367" lon="16.11565"><ele>896.0</ele><time>2026-04-27T08:51:10.712Z</time></trkpt><trkpt lat="39.3301483" lon="16.1155583"><ele>898.3333333333334</ele><time>2026-04-27T08:51:11.701Z</time></trkpt><trkpt lat="39.3300667" lon="16.1154933"><ele>900.6666666666667</ele><time>2026-04-27T08:51:12.711Z</time></trkpt><trkpt lat="39.3299917" lon="16.1154467"><ele>903.0</ele><time>2026-04-27T08:51:13.71Z</time></trkpt><trkpt lat="39.3299283" lon="16.11543"><ele>905.3333333333333</ele><time>2026-04-27T08:51:14.745Z</time></trkpt><trkpt lat="39.3298483" lon="16.11545"><ele>907.6666666666666</ele><time>2026-04-27T08:51:16.71Z</time></trkpt><trkpt lat="39.3299117" lon="16.1155567"><ele>910.0</ele><time>2026-04-27T08:51:18.713Z</time></trkpt><trkpt lat="39.3299917" lon="16.1156883"><ele>907.2</ele><time>2026-04-27T08:51:20.742Z</time></trkpt><trkpt lat="39.3300417" lon="16.1157517"><ele>904.4</ele><time>2026-04-27T08:51:21.705Z</time></trkpt><trkpt lat="39.3300683" lon="16.1158717"><ele>901.5999999999999</ele><time>2026-04-27T08:51:23.705Z</time></trkpt><trkpt lat="39.3300017" lon="16.1160133"><ele>898.8</ele><time>2026-04-27T08:51:25.702Z</time></trkpt><trkpt lat="39.329945" lon="16.1160933"><ele>896.0</ele><time>2026-04-27T08:51:26.774Z</time></trkpt><trkpt lat="39.3298417" lon="16.1162083"><ele>896.0</ele><time>2026-04-27T08:51:27.705Z</time></trkpt><trkpt lat="39.3297517" lon="16.1163167"><ele>896.0</ele><time>2026-04-27T08:51:28.713Z</time></trkpt><trkpt lat="39.3296517" lon="16.1164283"><ele>896.0</ele><time>2026-04-27T08:51:29.709Z</time></trkpt><trkpt lat="39.3295567" lon="16.116545"><ele>896.0</ele><time>2026-04-27T08:51:30.714Z</time></trkpt><trkpt lat="39.3294667" lon="16.1166683"><ele>893.0</ele><time>2026-04-27T08:51:31.703Z</time></trkpt><trkpt lat="39.3293817" lon="16.1167967"><ele>890.0</ele><time>2026-04-27T08:51:32.76Z</time></trkpt><trkpt lat="39.32931" lon="16.1169167"><ele>887.0</ele><time>2026-04-27T08:51:33.702Z</time></trkpt><trkpt lat="39.3292483" lon="16.1170433"><ele>884.0</ele><time>2026-04-27T08:51:34.707Z</time></trkpt><trkpt lat="39.3291883" lon="16.1171667"><ele>884.0000000000001</ele><time>2026-04-27T08:51:35.71Z</time></trkpt><trkpt lat="39.3291283" lon="16.1172767"><ele>884.0</ele><time>2026-04-27T08:51:36.703Z</time></trkpt><trkpt lat="39.32907" lon="16.1173617"><ele>884.0</ele><time>2026-04-27T08:51:37.702Z</time></trkpt><trkpt lat="39.3290117" lon="16.1174217"><ele>884.0</ele><time>2026-04-27T08:51:38.737Z</time></trkpt><trkpt lat="39.3289567" lon="16.1174733"><ele>884.0000000000001</ele><time>2026-04-27T08:51:39.697Z</time></trkpt><trkpt lat="39.3289117" lon="16.1175317"><ele>884.0</ele><time>2026-04-27T08:51:40.705Z</time></trkpt><trkpt lat="39.32893" lon="16.1176883"><ele>882.2</ele><time>2026-04-27T08:51:42.71Z</time></trkpt><trkpt lat="39.32893" lon="16.1177967"><ele>880.4000000000001</ele><time>2026-04-27T08:51:43.712Z</time></trkpt><trkpt lat="39.3289283" lon="16.117905"><ele>878.6</ele><time>2026-04-27T08:51:44.741Z</time></trkpt><trkpt lat="39.3289083" lon="16.118025"><ele>876.8</ele><time>2026-04-27T08:51:45.705Z</time></trkpt><trkpt lat="39.328895" lon="16.1181617"><ele>875.0</ele><time>2026-04-27T08:51:46.709Z</time></trkpt><trkpt lat="39.32889" lon="16.1182983"><ele>869.6</ele><time>2026-04-27T08:51:47.706Z</time></trkpt><trkpt lat="39.3288967" lon="16.11845"><ele>864.2</ele><time>2026-04-27T08:51:48.711Z</time></trkpt><trkpt lat="39.3289067" lon="16.11859"><ele>858.8</ele><time>2026-04-27T08:51:49.705Z</time></trkpt><trkpt lat="39.3289167" lon="16.118715"><ele>853.4</ele><time>2026-04-27T08:51:50.744Z</time></trkpt><trkpt lat="39.3289283" lon="16.1188233"><ele>848.0</ele><time>2026-04-27T08:51:51.704Z</time></trkpt><trkpt lat="39.3289217" lon="16.1189283"><ele>848.0</ele><time>2026-04-27T08:51:52.704Z</time></trkpt><trkpt lat="39.3288967" lon="16.119015"><ele>848.0</ele><time>2026-04-27T08:51:53.705Z</time></trkpt><trkpt lat="39.3288417" lon="16.1190867"><ele>848.0</ele><time>2026-04-27T08:51:54.709Z</time></trkpt><trkpt lat="39.3287517" lon="16.119155"><ele>848.0</ele><time>2026-04-27T08:51:55.703Z</time></trkpt><trkpt lat="39.3286633" lon="16.11925"><ele>848.0</ele><time>2026-04-27T08:51:56.775Z</time></trkpt><trkpt lat="39.3285583" lon="16.11936"><ele>848.5999999999999</ele><time>2026-04-27T08:51:57.709Z</time></trkpt><trkpt lat="39.32848" lon="16.119445"><ele>849.1999999999999</ele><time>2026-04-27T08:51:58.707Z</time></trkpt><trkpt lat="39.3283883" lon="16.1195217"><ele>849.8</ele><time>2026-04-27T08:51:59.705Z</time></trkpt><trkpt lat="39.3282933" lon="16.1195917"><ele>850.4</ele><time>2026-04-27T08:52:00.709Z</time></trkpt><trkpt lat="39.328195" lon="16.1196483"><ele>851.0</ele><time>2026-04-27T08:52:01.711Z</time></trkpt><trkpt lat="39.3281" lon="16.1197067"><ele>849.0</ele><time>2026-04-27T08:52:02.755Z</time></trkpt><trkpt lat="39.328015" lon="16.11976"><ele>847.0</ele><time>2026-04-27T08:52:03.712Z</time></trkpt><trkpt lat="39.3279483" lon="16.1198067"><ele>845.0</ele><time>2026-04-27T08:52:04.698Z</time></trkpt><trkpt lat="39.32786" lon="16.1198767"><ele>843.0</ele><time>2026-04-27T08:52:06.707Z</time></trkpt><trkpt lat="39.3278617" lon="16.1199617"><ele>841.0</ele><time>2026-04-27T08:52:08.744Z</time></trkpt><trkpt lat="39.3278883" lon="16.1201383"><ele>841.0</ele><time>2026-04-27T08:52:10.707Z</time></trkpt><trkpt lat="39.327895" lon="16.1202583"><ele>841.0</ele><time>2026-04-27T08:52:11.706Z</time></trkpt><trkpt lat="39.3279033" lon="16.120375"><ele>841.0</ele><time>2026-04-27T08:52:12.701Z</time></trkpt><trkpt lat="39.3279183" lon="16.1205"><ele>841.0</ele><time>2026-04-27T08:52:13.708Z</time></trkpt><trkpt lat="39.3279333" lon="16.1206367"><ele>841.0</ele><time>2026-04-27T08:52:14.747Z</time></trkpt><trkpt lat="39.3279433" lon="16.1207733"><ele>839.8</ele><time>2026-04-27T08:52:15.702Z</time></trkpt><trkpt lat="39.327945" lon="16.1208967"><ele>838.5999999999999</ele><time>2026-04-27T08:52:16.706Z</time></trkpt><trkpt lat="39.3279333" lon="16.1210117"><ele>837.4</ele><time>2026-04-27T08:52:17.704Z</time></trkpt><trkpt lat="39.327905" lon="16.121145"><ele>836.2</ele><time>2026-04-27T08:52:18.703Z</time></trkpt><trkpt lat="39.3278667" lon="16.1213233"><ele>835.0</ele><time>2026-04-27T08:52:19.71Z</time></trkpt><trkpt lat="39.3278467" lon="16.12151"><ele>834.75</ele><time>2026-04-27T08:52:20.738Z</time></trkpt><trkpt lat="39.32783" lon="16.1216967"><ele>834.5</ele><time>2026-04-27T08:52:21.702Z</time></trkpt><trkpt lat="39.3278183" lon="16.1218633"><ele>834.25</ele><time>2026-04-27T08:52:22.703Z</time></trkpt><trkpt lat="39.3278033" lon="16.122015"><ele>834.0</ele><time>2026-04-27T08:52:23.703Z</time></trkpt><trkpt lat="39.3277717" lon="16.12212"><ele>834.0</ele><time>2026-04-27T08:52:24.708Z</time></trkpt><trkpt lat="39.3277383" lon="16.1222233"><ele>834.0</ele><time>2026-04-27T08:52:25.708Z</time></trkpt><trkpt lat="39.3276783" lon="16.122325"><ele>834.0</ele><time>2026-04-27T08:52:27.704Z</time></trkpt><trkpt lat="39.3275917" lon="16.122315"><ele>834.0</ele><time>2026-04-27T08:52:30.716Z</time></trkpt><trkpt lat="39.327525" lon="16.1222067"><ele>834.0</ele><time>2026-04-27T08:52:31.703Z</time></trkpt><trkpt lat="39.3274583" lon="16.1221083"><ele>834.0</ele><time>2026-04-27T08:52:32.745Z</time></trkpt><trkpt lat="39.3273733" lon="16.1219967"><ele>834.0</ele><time>2026-04-27T08:52:33.701Z</time></trkpt><trkpt lat="39.3272833" lon="16.121865"><ele>834.0</ele><time>2026-04-27T08:52:34.703Z</time></trkpt><trkpt lat="39.3271817" lon="16.1217133"><ele>834.0</ele><time>2026-04-27T08:52:35.711Z</time></trkpt><trkpt lat="39.32709" lon="16.1215667"><ele>834.0</ele><time>2026-04-27T08:52:36.705Z</time></trkpt><trkpt lat="39.3270183" lon="16.1214767"><ele>834.0</ele><time>2026-04-27T08:52:37.702Z</time></trkpt><trkpt lat="39.3269667" lon="16.1214283"><ele>834.0</ele><time>2026-04-27T08:52:38.739Z</time></trkpt><trkpt lat="39.3268733" lon="16.121425"><ele>834.0</ele><time>2026-04-27T08:52:40.707Z</time></trkpt><trkpt lat="39.3268133" lon="16.1215083"><ele>834.0</ele><time>2026-04-27T08:52:42.704Z</time></trkpt><trkpt lat="39.3267267" lon="16.1216117"><ele>834.0</ele><time>2026-04-27T08:52:44.743Z</time></trkpt><trkpt lat="39.326655" lon="16.12167"><ele>834.0</ele><time>2026-04-27T08:52:45.704Z</time></trkpt><trkpt lat="39.3265783" lon="16.12172"><ele>834.0</ele><time>2026-04-27T08:52:46.706Z</time></trkpt><trkpt lat="39.326505" lon="16.1217617"><ele>834.0</ele><time>2026-04-27T08:52:47.704Z</time></trkpt><trkpt lat="39.326425" lon="16.1217933"><ele>834.0</ele><time>2026-04-27T08:52:48.704Z</time></trkpt><trkpt lat="39.3263317" lon="16.1218133"><ele>834.0</ele><time>2026-04-27T08:52:49.706Z</time></trkpt><trkpt lat="39.3262117" lon="16.1218117"><ele>834.0</ele><time>2026-04-27T08:52:50.737Z</time></trkpt><trkpt lat="39.3260783" lon="16.1218267"><ele>834.0</ele><time>2026-04-27T08:52:51.702Z</time></trkpt><trkpt lat="39.3259583" lon="16.1218533"><ele>834.0</ele><time>2026-04-27T08:52:52.705Z</time></trkpt><trkpt lat="39.3258433" lon="16.121895"><ele>834.0</ele><time>2026-04-27T08:52:53.708Z</time></trkpt><trkpt lat="39.325735" lon="16.121945"><ele>834.0</ele><time>2026-04-27T08:52:54.705Z</time></trkpt><trkpt lat="39.3256317" lon="16.1220233"><ele>834.0</ele><time>2026-04-27T08:52:55.704Z</time></trkpt><trkpt lat="39.3255283" lon="16.1221017"><ele>834.0</ele><time>2026-04-27T08:52:56.769Z</time></trkpt><trkpt lat="39.3254133" lon="16.122175"><ele>834.0</ele><time>2026-04-27T08:52:57.7Z</time></trkpt><trkpt lat="39.325285" lon="16.1222283"><ele>834.25</ele><time>2026-04-27T08:52:58.703Z</time></trkpt><trkpt lat="39.325155" lon="16.1222817"><ele>834.5</ele><time>2026-04-27T08:52:59.704Z</time></trkpt><trkpt lat="39.3250317" lon="16.122325"><ele>834.75</ele><time>2026-04-27T08:53:00.71Z</time></trkpt><trkpt lat="39.3249067" lon="16.1223583"><ele>835.0</ele><time>2026-04-27T08:53:01.703Z</time></trkpt><trkpt lat="39.32479" lon="16.122375"><ele>834.25</ele><time>2026-04-27T08:53:02.758Z</time></trkpt><trkpt lat="39.3246767" lon="16.1223633"><ele>833.5</ele><time>2026-04-27T08:53:03.701Z</time></trkpt><trkpt lat="39.324555" lon="16.12234"><ele>832.75</ele><time>2026-04-27T08:53:04.704Z</time></trkpt><trkpt lat="39.3244517" lon="16.1222617"><ele>832.0</ele><time>2026-04-27T08:53:05.699Z</time></trkpt><trkpt lat="39.324355" lon="16.122165"><ele>832.0</ele><time>2026-04-27T08:53:06.708Z</time></trkpt><trkpt lat="39.3242567" lon="16.1220467"><ele>832.0</ele><time>2026-04-27T08:53:07.699Z</time></trkpt><trkpt lat="39.3241517" lon="16.1219483"><ele>832.0</ele><time>2026-04-27T08:53:08.737Z</time></trkpt><trkpt lat="39.32404" lon="16.12186"><ele>832.0</ele><time>2026-04-27T08:53:09.703Z</time></trkpt><trkpt lat="39.3239117" lon="16.1217983"><ele>832.0</ele><time>2026-04-27T08:53:10.704Z</time></trkpt><trkpt lat="39.32377" lon="16.12176"><ele>832.0</ele><time>2026-04-27T08:53:11.705Z</time></trkpt><trkpt lat="39.3236283" lon="16.1217383"><ele>832.0</ele><time>2026-04-27T08:53:12.711Z</time></trkpt><trkpt lat="39.323505" lon="16.1217167"><ele>832.0</ele><time>2026-04-27T08:53:13.707Z</time></trkpt><trkpt lat="39.323395" lon="16.121695"><ele>832.0</ele><time>2026-04-27T08:53:14.737Z</time></trkpt><trkpt lat="39.323305" lon="16.1216733"><ele>832.0</ele><time>2026-04-27T08:53:15.706Z</time></trkpt><trkpt lat="39.3232183" lon="16.1216633"><ele>832.0</ele><time>2026-04-27T08:53:16.703Z</time></trkpt><trkpt lat="39.3231317" lon="16.12164"><ele>832.0</ele><time>2026-04-27T08:53:17.702Z</time></trkpt><trkpt lat="39.3230317" lon="16.1216167"><ele>832.0</ele><time>2026-04-27T08:53:18.706Z</time></trkpt><trkpt lat="39.3229133" lon="16.1215783"><ele>836.25</ele><time>2026-04-27T08:53:19.707Z</time></trkpt><trkpt lat="39.3227867" lon="16.1215433"><ele>840.5</ele><time>2026-04-27T08:53:20.741Z</time></trkpt><trkpt lat="39.3226583" lon="16.1215067"><ele>844.75</ele><time>2026-04-27T08:53:21.705Z</time></trkpt><trkpt lat="39.32253" lon="16.12149"><ele>849.0</ele><time>2026-04-27T08:53:22.705Z</time></trkpt><trkpt lat="39.32241" lon="16.1214833"><ele>849.0</ele><time>2026-04-27T08:53:23.698Z</time></trkpt><trkpt lat="39.3222867" lon="16.121485"><ele>849.0</ele><time>2026-04-27T08:53:24.701Z</time></trkpt><trkpt lat="39.3221567" lon="16.121495"><ele>849.0</ele><time>2026-04-27T08:53:25.705Z</time></trkpt><trkpt lat="39.3220317" lon="16.1215117"><ele>849.0</ele><time>2026-04-27T08:53:26.772Z</time></trkpt><trkpt lat="39.3218967" lon="16.121525"><ele>847.25</ele><time>2026-04-27T08:53:27.702Z</time></trkpt><trkpt lat="39.32176" lon="16.12153"><ele>845.5</ele><time>2026-04-27T08:53:28.698Z</time></trkpt><trkpt lat="39.3216333" lon="16.1215267"><ele>843.75</ele><time>2026-04-27T08:53:29.706Z</time></trkpt><trkpt lat="39.3215133" lon="16.1215117"><ele>842.0</ele><time>2026-04-27T08:53:30.707Z</time></trkpt><trkpt lat="39.3213867" lon="16.12148"><ele>838.6</ele><time>2026-04-27T08:53:31.701Z</time></trkpt><trkpt lat="39.3212667" lon="16.1214433"><ele>835.2</ele><time>2026-04-27T08:53:32.751Z</time></trkpt><trkpt lat="39.3211567" lon="16.121415"><ele>831.8</ele><time>2026-04-27T08:53:33.705Z</time></trkpt><trkpt lat="39.3210583" lon="16.1213983"><ele>828.4</ele><time>2026-04-27T08:53:34.701Z</time></trkpt><trkpt lat="39.3209667" lon="16.1213783"><ele>825.0</ele><time>2026-04-27T08:53:35.704Z</time></trkpt><trkpt lat="39.32089" lon="16.1213483"><ele>825.0</ele><time>2026-04-27T08:53:36.716Z</time></trkpt><trkpt lat="39.3208183" lon="16.1213033"><ele>825.0</ele><time>2026-04-27T08:53:37.705Z</time></trkpt><trkpt lat="39.3207633" lon="16.1212333"><ele>825.0</ele><time>2026-04-27T08:53:38.748Z</time></trkpt><trkpt lat="39.3207183" lon="16.121135"><ele>825.0</ele><time>2026-04-27T08:53:39.704Z</time></trkpt><trkpt lat="39.3206983" lon="16.1209733"><ele>825.0</ele><time>2026-04-27T08:53:40.711Z</time></trkpt><trkpt lat="39.3206833" lon="16.1208267"><ele>824.6</ele><time>2026-04-27T08:53:41.706Z</time></trkpt><trkpt lat="39.3206533" lon="16.1206983"><ele>824.2</ele><time>2026-04-27T08:53:42.711Z</time></trkpt><trkpt lat="39.3206083" lon="16.12057"><ele>823.8</ele><time>2026-04-27T08:53:43.702Z</time></trkpt><trkpt lat="39.32055" lon="16.120445"><ele>823.4</ele><time>2026-04-27T08:53:44.741Z</time></trkpt><trkpt lat="39.32048" lon="16.1203183"><ele>823.0</ele><time>2026-04-27T08:53:45.704Z</time></trkpt><trkpt lat="39.3203933" lon="16.120205"><ele>823.0</ele><time>2026-04-27T08:53:46.708Z</time></trkpt><trkpt lat="39.3203117" lon="16.1201083"><ele>823.0</ele><time>2026-04-27T08:53:47.703Z</time></trkpt><trkpt lat="39.320225" lon="16.12005"><ele>823.0</ele><time>2026-04-27T08:53:48.709Z</time></trkpt><trkpt lat="39.3201483" lon="16.120015"><ele>823.0</ele><time>2026-04-27T08:53:49.707Z</time></trkpt><trkpt lat="39.3200817" lon="16.1200167"><ele>823.0</ele><time>2026-04-27T08:53:50.74Z</time></trkpt><trkpt lat="39.32" lon="16.1201567"><ele>823.0</ele><time>2026-04-27T08:53:52.702Z</time></trkpt><trkpt lat="39.3199933" lon="16.1202683"><ele>823.0</ele><time>2026-04-27T08:53:53.706Z</time></trkpt><trkpt lat="39.320055" lon="16.1204183"><ele>823.0</ele><time>2026-04-27T08:53:54.71Z</time></trkpt><trkpt lat="39.32012" lon="16.1205267"><ele>823.0</ele><time>2026-04-27T08:53:55.704Z</time></trkpt><trkpt lat="39.3201833" lon="16.1206367"><ele>823.0</ele><time>2026-04-27T08:53:56.783Z</time></trkpt><trkpt lat="39.3202533" lon="16.120775"><ele>819.0</ele><time>2026-04-27T08:53:57.697Z</time></trkpt><trkpt lat="39.32032" lon="16.1209433"><ele>815.0</ele><time>2026-04-27T08:53:58.711Z</time></trkpt><trkpt lat="39.3203717" lon="16.1211283"><ele>811.0</ele><time>2026-04-27T08:53:59.707Z</time></trkpt><trkpt lat="39.3203933" lon="16.1213117"><ele>807.0</ele><time>2026-04-27T08:54:00.711Z</time></trkpt><trkpt lat="39.320405" lon="16.1214817"><ele>804.5</ele><time>2026-04-27T08:54:01.709Z</time></trkpt><trkpt lat="39.3204183" lon="16.1216333"><ele>802.0</ele><time>2026-04-27T08:54:02.761Z</time></trkpt><trkpt lat="39.32047" lon="16.12186"><ele>799.5</ele><time>2026-04-27T08:54:04.708Z</time></trkpt><trkpt lat="39.32051" lon="16.121935"><ele>797.0</ele><time>2026-04-27T08:54:05.706Z</time></trkpt><trkpt lat="39.3205183" lon="16.1220683"><ele>797.0</ele><time>2026-04-27T08:54:07.706Z</time></trkpt><trkpt lat="39.3204617" lon="16.12211"><ele>797.0</ele><time>2026-04-27T08:54:08.742Z</time></trkpt><trkpt lat="39.3203967" lon="16.1221467"><ele>797.0</ele><time>2026-04-27T08:54:09.703Z</time></trkpt><trkpt lat="39.3203167" lon="16.1221617"><ele>797.0</ele><time>2026-04-27T08:54:10.705Z</time></trkpt><trkpt lat="39.3202283" lon="16.1221717"><ele>797.0</ele><time>2026-04-27T08:54:11.704Z</time></trkpt><trkpt lat="39.32015" lon="16.12218"><ele>797.0</ele><time>2026-04-27T08:54:12.706Z</time></trkpt><trkpt lat="39.3200883" lon="16.1222033"><ele>797.0</ele><time>2026-04-27T08:54:13.7Z</time></trkpt><trkpt lat="39.3200467" lon="16.12227"><ele>794.6</ele><time>2026-04-27T08:54:14.732Z</time></trkpt><trkpt lat="39.3199917" lon="16.1224267"><ele>792.2</ele><time>2026-04-27T08:54:16.699Z</time></trkpt><trkpt lat="39.3199683" lon="16.122505"><ele>789.8</ele><time>2026-04-27T08:54:17.715Z</time></trkpt><trkpt lat="39.3199183" lon="16.1226117"><ele>787.4</ele><time>2026-04-27T08:54:19.698Z</time></trkpt><trkpt lat="39.320005" lon="16.1225683"><ele>785.0</ele><time>2026-04-27T08:54:34.708Z</time></trkpt><trkpt lat="39.32003" lon="16.1224933"><ele>785.0000000000001</ele><time>2026-04-27T08:54:35.702Z</time></trkpt><trkpt lat="39.3200517" lon="16.1224017"><ele>785.0</ele><time>2026-04-27T08:54:36.71Z</time></trkpt><trkpt lat="39.32008" lon="16.122305"><ele>785.0</ele><time>2026-04-27T08:54:37.698Z</time></trkpt><trkpt lat="39.3201183" lon="16.1222017"><ele>785.0</ele><time>2026-04-27T08:54:38.737Z</time></trkpt><trkpt lat="39.32017" lon="16.122115"><ele>785.0000000000001</ele><time>2026-04-27T08:54:39.703Z</time></trkpt><trkpt lat="39.3202317" lon="16.1220567"><ele>785.0</ele><time>2026-04-27T08:54:40.7Z</time></trkpt><trkpt lat="39.3203017" lon="16.1220317"><ele>786.7142857142858</ele><time>2026-04-27T08:54:41.705Z</time></trkpt><trkpt lat="39.3203683" lon="16.122015"><ele>788.4285714285713</ele><time>2026-04-27T08:54:42.699Z</time></trkpt><trkpt lat="39.32043" lon="16.1219867"><ele>790.1428571428571</ele><time>2026-04-27T08:54:43.704Z</time></trkpt><trkpt lat="39.3204817" lon="16.1219067"><ele>791.8571428571429</ele><time>2026-04-27T08:54:45.701Z</time></trkpt><trkpt lat="39.3204533" lon="16.121795"><ele>793.5714285714287</ele><time>2026-04-27T08:54:47.705Z</time></trkpt><trkpt lat="39.3204233" lon="16.1217133"><ele>795.2857142857142</ele><time>2026-04-27T08:54:48.703Z</time></trkpt><trkpt lat="39.3204" lon="16.121625"><ele>797.0</ele><time>2026-04-27T08:54:49.701Z</time></trkpt><trkpt lat="39.320395" lon="16.121535"><ele>798.6666666666667</ele><time>2026-04-27T08:54:50.735Z</time></trkpt><trkpt lat="39.32039" lon="16.121445"><ele>800.3333333333334</ele><time>2026-04-27T08:54:51.697Z</time></trkpt><trkpt lat="39.3203817" lon="16.1213467"><ele>802.0</ele><time>2026-04-27T08:54:52.705Z</time></trkpt><trkpt lat="39.320365" lon="16.1212433"><ele>803.6666666666667</ele><time>2026-04-27T08:54:53.698Z</time></trkpt><trkpt lat="39.320345" lon="16.121135"><ele>805.3333333333334</ele><time>2026-04-27T08:54:54.711Z</time></trkpt><trkpt lat="39.3203217" lon="16.1210233"><ele>807.0</ele><time>2026-04-27T08:54:55.706Z</time></trkpt><trkpt lat="39.3202933" lon="16.120905"><ele>807.0</ele><time>2026-04-27T08:54:56.773Z</time></trkpt><trkpt lat="39.3202617" lon="16.120795"><ele>807.0</ele><time>2026-04-27T08:54:57.701Z</time></trkpt><trkpt lat="39.3202167" lon="16.12068"><ele>807.0</ele><time>2026-04-27T08:54:58.7Z</time></trkpt><trkpt lat="39.3201667" lon="16.1205667"><ele>807.0</ele><time>2026-04-27T08:54:59.705Z</time></trkpt><trkpt lat="39.3201167" lon="16.1204717"><ele>807.0</ele><time>2026-04-27T08:55:00.705Z</time></trkpt><trkpt lat="39.3200083" lon="16.1204083"><ele>809.6666666666666</ele><time>2026-04-27T08:55:02.747Z</time></trkpt><trkpt lat="39.3199267" lon="16.1204133"><ele>812.3333333333333</ele><time>2026-04-27T08:55:03.695Z</time></trkpt><trkpt lat="39.3198667" lon="16.1203883"><ele>815.0</ele><time>2026-04-27T08:55:04.701Z</time></trkpt><trkpt lat="39.3198" lon="16.12036"><ele>817.6666666666666</ele><time>2026-04-27T08:55:05.701Z</time></trkpt><trkpt lat="39.3197267" lon="16.120345"><ele>820.3333333333333</ele><time>2026-04-27T08:55:06.705Z</time></trkpt><trkpt lat="39.3196417" lon="16.12035"><ele>823.0</ele><time>2026-04-27T08:55:07.704Z</time></trkpt><trkpt lat="39.3195433" lon="16.12036"><ele>825.2</ele><time>2026-04-27T08:55:08.741Z</time></trkpt><trkpt lat="39.3194467" lon="16.12037"><ele>827.4</ele><time>2026-04-27T08:55:09.703Z</time></trkpt><trkpt lat="39.3193567" lon="16.1203883"><ele>829.6</ele><time>2026-04-27T08:55:10.707Z</time></trkpt><trkpt lat="39.3192683" lon="16.12043"><ele>831.8000000000001</ele><time>2026-04-27T08:55:11.7Z</time></trkpt><trkpt lat="39.3191867" lon="16.1204783"><ele>834.0</ele><time>2026-04-27T08:55:12.712Z</time></trkpt><trkpt lat="39.3191117" lon="16.1205267"><ele>834.0</ele><time>2026-04-27T08:55:13.701Z</time></trkpt><trkpt lat="39.3190533" lon="16.1205833"><ele>834.0</ele><time>2026-04-27T08:55:14.739Z</time></trkpt><trkpt lat="39.3189933" lon="16.12062"><ele>834.0</ele><time>2026-04-27T08:55:15.704Z</time></trkpt><trkpt lat="39.3189" lon="16.120645"><ele>834.0</ele><time>2026-04-27T08:55:17.708Z</time></trkpt><trkpt lat="39.3188817" lon="16.1204783"><ele>834.0</ele><time>2026-04-27T08:55:20.743Z</time></trkpt><trkpt lat="39.3188983" lon="16.1203967"><ele>834.0</ele><time>2026-04-27T08:55:21.702Z</time></trkpt><trkpt lat="39.3189167" lon="16.1203167"><ele>834.0</ele><time>2026-04-27T08:55:22.703Z</time></trkpt><trkpt lat="39.31895" lon="16.1202"><ele>834.0</ele><time>2026-04-27T08:55:24.706Z</time></trkpt><trkpt lat="39.3190267" lon="16.120135"><ele>834.0</ele><time>2026-04-27T08:55:26.763Z</time></trkpt><trkpt lat="39.3191017" lon="16.120095"><ele>834.0</ele><time>2026-04-27T08:55:27.702Z</time></trkpt><trkpt lat="39.319175" lon="16.1200633"><ele>834.0</ele><time>2026-04-27T08:55:28.705Z</time></trkpt><trkpt lat="39.31924" lon="16.1200383"><ele>834.0</ele><time>2026-04-27T08:55:29.698Z</time></trkpt><trkpt lat="39.319295" lon="16.1199817"><ele>834.0</ele><time>2026-04-27T08:55:31.706Z</time></trkpt><trkpt lat="39.3192417" lon="16.11991"><ele>834.0</ele><time>2026-04-27T08:55:35.704Z</time></trkpt><trkpt lat="39.3191533" lon="16.11991"><ele>834.0</ele><time>2026-04-27T08:55:37.701Z</time></trkpt><trkpt lat="39.31909" lon="16.119905"><ele>834.0</ele><time>2026-04-27T08:55:38.736Z</time></trkpt><trkpt lat="39.3190217" lon="16.1198633"><ele>834.0</ele><time>2026-04-27T08:55:39.705Z</time></trkpt><trkpt lat="39.3189433" lon="16.1198083"><ele>834.0</ele><time>2026-04-27T08:55:40.697Z</time></trkpt><trkpt lat="39.318855" lon="16.11975"><ele>840.2</ele><time>2026-04-27T08:55:41.701Z</time></trkpt><trkpt lat="39.31876" lon="16.1196783"><ele>846.4000000000001</ele><time>2026-04-27T08:55:42.704Z</time></trkpt><trkpt lat="39.318665" lon="16.11962"><ele>852.6</ele><time>2026-04-27T08:55:43.701Z</time></trkpt><trkpt lat="39.318575" lon="16.11958"><ele>858.8</ele><time>2026-04-27T08:55:44.739Z</time></trkpt><trkpt lat="39.3184883" lon="16.1195567"><ele>865.0</ele><time>2026-04-27T08:55:45.702Z</time></trkpt><trkpt lat="39.31841" lon="16.1195433"><ele>864.9999999999999</ele><time>2026-04-27T08:55:46.715Z</time></trkpt><trkpt lat="39.3183333" lon="16.1195217"><ele>865.0</ele><time>2026-04-27T08:55:47.703Z</time></trkpt><trkpt lat="39.3182517" lon="16.1195067"><ele>865.0</ele><time>2026-04-27T08:55:48.709Z</time></trkpt><trkpt lat="39.318165" lon="16.119505"><ele>865.0</ele><time>2026-04-27T08:55:49.702Z</time></trkpt><trkpt lat="39.31808" lon="16.1195133"><ele>864.9999999999999</ele><time>2026-04-27T08:55:50.739Z</time></trkpt><trkpt lat="39.3179933" lon="16.1195283"><ele>865.0</ele><time>2026-04-27T08:55:51.702Z</time></trkpt><trkpt lat="39.317885" lon="16.11955"><ele>865.0</ele><time>2026-04-27T08:55:52.703Z</time></trkpt><trkpt lat="39.3177617" lon="16.119575"><ele>865.0</ele><time>2026-04-27T08:55:53.706Z</time></trkpt><trkpt lat="39.31762" lon="16.119625"><ele>865.0</ele><time>2026-04-27T08:55:54.708Z</time></trkpt><trkpt lat="39.3174767" lon="16.1196733"><ele>865.0</ele><time>2026-04-27T08:55:55.712Z</time></trkpt><trkpt lat="39.31734" lon="16.1197233"><ele>865.0</ele><time>2026-04-27T08:55:56.753Z</time></trkpt><trkpt lat="39.3172283" lon="16.1197667"><ele>865.0</ele><time>2026-04-27T08:55:57.701Z</time></trkpt><trkpt lat="39.31714" lon="16.1198067"><ele>865.0</ele><time>2026-04-27T08:55:58.71Z</time></trkpt><trkpt lat="39.317055" lon="16.1198467"><ele>865.0</ele><time>2026-04-27T08:55:59.706Z</time></trkpt><trkpt lat="39.3169667" lon="16.1198983"><ele>865.0</ele><time>2026-04-27T08:56:00.705Z</time></trkpt><trkpt lat="39.3168767" lon="16.1199683"><ele>862.6</ele><time>2026-04-27T08:56:01.699Z</time></trkpt><trkpt lat="39.316785" lon="16.1200533"><ele>860.2</ele><time>2026-04-27T08:56:02.756Z</time></trkpt><trkpt lat="39.3166933" lon="16.1201433"><ele>857.8</ele><time>2026-04-27T08:56:03.704Z</time></trkpt><trkpt lat="39.316595" lon="16.120215"><ele>855.4</ele><time>2026-04-27T08:56:04.703Z</time></trkpt><trkpt lat="39.3164983" lon="16.120265"><ele>853.0</ele><time>2026-04-27T08:56:05.703Z</time></trkpt><trkpt lat="39.3164067" lon="16.1203133"><ele>852.8</ele><time>2026-04-27T08:56:06.704Z</time></trkpt><trkpt lat="39.3163217" lon="16.1203633"><ele>852.5999999999999</ele><time>2026-04-27T08:56:07.707Z</time></trkpt><trkpt lat="39.3162517" lon="16.1204183"><ele>852.4000000000001</ele><time>2026-04-27T08:56:08.739Z</time></trkpt><trkpt lat="39.3161967" lon="16.1204767"><ele>852.2</ele><time>2026-04-27T08:56:09.704Z</time></trkpt><trkpt lat="39.31612" lon="16.120615"><ele>852.0</ele><time>2026-04-27T08:56:11.705Z</time></trkpt><trkpt lat="39.316085" lon="16.1207167"><ele>851.2</ele><time>2026-04-27T08:56:12.708Z</time></trkpt><trkpt lat="39.3160567" lon="16.1208433"><ele>850.4000000000001</ele><time>2026-04-27T08:56:13.708Z</time></trkpt><trkpt lat="39.3160317" lon="16.120975"><ele>849.5999999999999</ele><time>2026-04-27T08:56:14.737Z</time></trkpt><trkpt lat="39.3160033" lon="16.12109"><ele>848.8</ele><time>2026-04-27T08:56:15.699Z</time></trkpt><trkpt lat="39.3159583" lon="16.1212033"><ele>848.0</ele><time>2026-04-27T08:56:16.707Z</time></trkpt><trkpt lat="39.315905" lon="16.1213067"><ele>848.0000000000001</ele><time>2026-04-27T08:56:17.709Z</time></trkpt><trkpt lat="39.3158533" lon="16.1214"><ele>848.0</ele><time>2026-04-27T08:56:18.705Z</time></trkpt><trkpt lat="39.3157967" lon="16.121475"><ele>848.0</ele><time>2026-04-27T08:56:19.708Z</time></trkpt><trkpt lat="39.315735" lon="16.1215367"><ele>848.0</ele><time>2026-04-27T08:56:20.743Z</time></trkpt><trkpt lat="39.315675" lon="16.121575"><ele>848.0000000000001</ele><time>2026-04-27T08:56:21.704Z</time></trkpt><trkpt lat="39.3155933" lon="16.1216"><ele>848.0</ele><time>2026-04-27T08:56:22.705Z</time></trkpt><trkpt lat="39.3154867" lon="16.1216083"><ele>849.25</ele><time>2026-04-27T08:56:23.707Z</time></trkpt><trkpt lat="39.3153383" lon="16.121615"><ele>850.5</ele><time>2026-04-27T08:56:24.698Z</time></trkpt><trkpt lat="39.3151867" lon="16.121635"><ele>851.75</ele><time>2026-04-27T08:56:25.702Z</time></trkpt><trkpt lat="39.31506" lon="16.1216417"><ele>853.0</ele><time>2026-04-27T08:56:26.756Z</time></trkpt><trkpt lat="39.314935" lon="16.1216633"><ele>853.0</ele><time>2026-04-27T08:56:27.705Z</time></trkpt><trkpt lat="39.3148033" lon="16.1216933"><ele>853.0</ele><time>2026-04-27T08:56:28.703Z</time></trkpt><trkpt lat="39.314675" lon="16.1217317"><ele>853.0</ele><time>2026-04-27T08:56:29.706Z</time></trkpt><trkpt lat="39.3145533" lon="16.12177"><ele>853.0</ele><time>2026-04-27T08:56:30.707Z</time></trkpt><trkpt lat="39.3144383" lon="16.1218033"><ele>854.75</ele><time>2026-04-27T08:56:31.707Z</time></trkpt><trkpt lat="39.314325" lon="16.1218233"><ele>856.5</ele><time>2026-04-27T08:56:32.757Z</time></trkpt><trkpt lat="39.3142183" lon="16.1218517"><ele>858.25</ele><time>2026-04-27T08:56:33.703Z</time></trkpt><trkpt lat="39.31411" lon="16.12188"><ele>860.0</ele><time>2026-04-27T08:56:34.709Z</time></trkpt><trkpt lat="39.3139917" lon="16.1218867"><ele>861.0</ele><time>2026-04-27T08:56:35.7Z</time></trkpt><trkpt lat="39.31387" lon="16.1219033"><ele>862.0</ele><time>2026-04-27T08:56:36.706Z</time></trkpt><trkpt lat="39.31375" lon="16.1219083"><ele>863.0</ele><time>2026-04-27T08:56:37.7Z</time></trkpt><trkpt lat="39.313625" lon="16.1219117"><ele>864.0</ele><time>2026-04-27T08:56:38.74Z</time></trkpt><trkpt lat="39.3135017" lon="16.12191"><ele>864.0</ele><time>2026-04-27T08:56:39.705Z</time></trkpt><trkpt lat="39.3133733" lon="16.1219033"><ele>864.0</ele><time>2026-04-27T08:56:40.705Z</time></trkpt><trkpt lat="39.3132317" lon="16.1218733"><ele>864.0</ele><time>2026-04-27T08:56:41.708Z</time></trkpt><trkpt lat="39.3130617" lon="16.1218183"><ele>864.0</ele><time>2026-04-27T08:56:42.709Z</time></trkpt><trkpt lat="39.3128967" lon="16.12178"><ele>865.75</ele><time>2026-04-27T08:56:43.709Z</time></trkpt><trkpt lat="39.3127467" lon="16.12173"><ele>867.5</ele><time>2026-04-27T08:56:44.743Z</time></trkpt><trkpt lat="39.3126083" lon="16.121695"><ele>869.25</ele><time>2026-04-27T08:56:45.703Z</time></trkpt><trkpt lat="39.31248" lon="16.121675"><ele>871.0</ele><time>2026-04-27T08:56:46.709Z</time></trkpt><trkpt lat="39.3123583" lon="16.1216833"><ele>871.0</ele><time>2026-04-27T08:56:47.704Z</time></trkpt><trkpt lat="39.3122417" lon="16.1216867"><ele>871.0</ele><time>2026-04-27T08:56:48.71Z</time></trkpt><trkpt lat="39.3121183" lon="16.1216883"><ele>871.0</ele><time>2026-04-27T08:56:49.707Z</time></trkpt><trkpt lat="39.31198" lon="16.1216833"><ele>871.0</ele><time>2026-04-27T08:56:50.738Z</time></trkpt><trkpt lat="39.311845" lon="16.1216717"><ele>873.75</ele><time>2026-04-27T08:56:51.699Z</time></trkpt><trkpt lat="39.3117033" lon="16.1216783"><ele>876.5</ele><time>2026-04-27T08:56:52.703Z</time></trkpt><trkpt lat="39.311555" lon="16.1217017"><ele>879.25</ele><time>2026-04-27T08:56:53.706Z</time></trkpt><trkpt lat="39.3114167" lon="16.1217283"><ele>882.0</ele><time>2026-04-27T08:56:54.707Z</time></trkpt><trkpt lat="39.3112967" lon="16.1217633"><ele>882.4000000000001</ele><time>2026-04-27T08:56:55.702Z</time></trkpt><trkpt lat="39.3111883" lon="16.1218"><ele>882.8000000000001</ele><time>2026-04-27T08:56:56.753Z</time></trkpt><trkpt lat="39.3110867" lon="16.1218117"><ele>883.2</ele><time>2026-04-27T08:56:57.706Z</time></trkpt><trkpt lat="39.3109883" lon="16.12179"><ele>883.6</ele><time>2026-04-27T08:56:58.704Z</time></trkpt><trkpt lat="39.3108867" lon="16.12177"><ele>884.0</ele><time>2026-04-27T08:56:59.697Z</time></trkpt><trkpt lat="39.31078" lon="16.121725"><ele>884.0</ele><time>2026-04-27T08:57:00.7Z</time></trkpt><trkpt lat="39.3106817" lon="16.1216767"><ele>884.0000000000001</ele><time>2026-04-27T08:57:01.701Z</time></trkpt><trkpt lat="39.3105883" lon="16.1216133"><ele>884.0000000000001</ele><time>2026-04-27T08:57:02.747Z</time></trkpt><trkpt lat="39.3105017" lon="16.1215567"><ele>884.0</ele><time>2026-04-27T08:57:03.705Z</time></trkpt><trkpt lat="39.3104233" lon="16.1215017"><ele>884.0</ele><time>2026-04-27T08:57:04.704Z</time></trkpt><trkpt lat="39.3103567" lon="16.1214367"><ele>889.8000000000001</ele><time>2026-04-27T08:57:05.699Z</time></trkpt><trkpt lat="39.310295" lon="16.1213717"><ele>895.6000000000001</ele><time>2026-04-27T08:57:06.702Z</time></trkpt><trkpt lat="39.310225" lon="16.1212667"><ele>901.4</ele><time>2026-04-27T08:57:08.736Z</time></trkpt><trkpt lat="39.3100933" lon="16.1212067"><ele>907.2</ele><time>2026-04-27T08:57:10.706Z</time></trkpt><trkpt lat="39.3100183" lon="16.12123"><ele>913.0</ele><time>2026-04-27T08:57:11.697Z</time></trkpt><trkpt lat="39.3099317" lon="16.1212733"><ele>912.9999999999999</ele><time>2026-04-27T08:57:12.708Z</time></trkpt><trkpt lat="39.30984" lon="16.121305"><ele>913.0</ele><time>2026-04-27T08:57:13.706Z</time></trkpt><trkpt lat="39.3097583" lon="16.1213733"><ele>913.0</ele><time>2026-04-27T08:57:14.743Z</time></trkpt><trkpt lat="39.309675" lon="16.121405"><ele>913.0</ele><time>2026-04-27T08:57:15.702Z</time></trkpt><trkpt lat="39.3095917" lon="16.1214017"><ele>912.9999999999999</ele><time>2026-04-27T08:57:16.702Z</time></trkpt><trkpt lat="39.30951" lon="16.1214017"><ele>913.0</ele><time>2026-04-27T08:57:17.705Z</time></trkpt><trkpt lat="39.30943" lon="16.12142"><ele>915.4</ele><time>2026-04-27T08:57:18.71Z</time></trkpt><trkpt lat="39.3093467" lon="16.121455"><ele>917.8</ele><time>2026-04-27T08:57:19.705Z</time></trkpt><trkpt lat="39.3092617" lon="16.1214983"><ele>920.2</ele><time>2026-04-27T08:57:20.738Z</time></trkpt><trkpt lat="39.3091733" lon="16.1215517"><ele>922.6</ele><time>2026-04-27T08:57:21.701Z</time></trkpt><trkpt lat="39.3090817" lon="16.121605"><ele>925.0</ele><time>2026-04-27T08:57:22.703Z</time></trkpt><trkpt lat="39.3089883" lon="16.1216717"><ele>920.8</ele><time>2026-04-27T08:57:23.704Z</time></trkpt><trkpt lat="39.3089033" lon="16.12174"><ele>916.6</ele><time>2026-04-27T08:57:24.701Z</time></trkpt><trkpt lat="39.3088117" lon="16.1217917"><ele>912.4000000000001</ele><time>2026-04-27T08:57:25.701Z</time></trkpt><trkpt lat="39.3087167" lon="16.1218533"><ele>908.2</ele><time>2026-04-27T08:57:26.772Z</time></trkpt><trkpt lat="39.308615" lon="16.1219"><ele>904.0</ele><time>2026-04-27T08:57:27.704Z</time></trkpt><trkpt lat="39.3085133" lon="16.1219333"><ele>904.0</ele><time>2026-04-27T08:57:28.705Z</time></trkpt><trkpt lat="39.3084133" lon="16.1219667"><ele>904.0000000000001</ele><time>2026-04-27T08:57:29.705Z</time></trkpt><trkpt lat="39.3083133" lon="16.122"><ele>904.0000000000001</ele><time>2026-04-27T08:57:30.703Z</time></trkpt><trkpt lat="39.308215" lon="16.12204"><ele>904.0</ele><time>2026-04-27T08:57:31.711Z</time></trkpt><trkpt lat="39.3081233" lon="16.1220717"><ele>904.0</ele><time>2026-04-27T08:57:32.756Z</time></trkpt><trkpt lat="39.3080433" lon="16.1221067"><ele>906.3333333333333</ele><time>2026-04-27T08:57:33.701Z</time></trkpt><trkpt lat="39.3079667" lon="16.1221367"><ele>908.6666666666666</ele><time>2026-04-27T08:57:34.708Z</time></trkpt><trkpt lat="39.3078917" lon="16.1221667"><ele>911.0</ele><time>2026-04-27T08:57:35.71Z</time></trkpt><trkpt lat="39.3078217" lon="16.1221783"><ele>913.3333333333333</ele><time>2026-04-27T08:57:36.709Z</time></trkpt><trkpt lat="39.3077333" lon="16.1222017"><ele>915.6666666666666</ele><time>2026-04-27T08:57:37.703Z</time></trkpt><trkpt lat="39.3076367" lon="16.1222383"><ele>918.0</ele><time>2026-04-27T08:57:38.74Z</time></trkpt><trkpt lat="39.3075483" lon="16.1222167"><ele>918.0</ele><time>2026-04-27T08:57:39.701Z</time></trkpt><trkpt lat="39.3074617" lon="16.1221933"><ele>918.0</ele><time>2026-04-27T08:57:40.704Z</time></trkpt><trkpt lat="39.307375" lon="16.1221967"><ele>918.0</ele><time>2026-04-27T08:57:41.71Z</time></trkpt><trkpt lat="39.3072967" lon="16.1222133"><ele>918.0</ele><time>2026-04-27T08:57:42.703Z</time></trkpt><trkpt lat="39.3072117" lon="16.122245"><ele>918.0</ele><time>2026-04-27T08:57:43.703Z</time></trkpt><trkpt lat="39.3071317" lon="16.1222517"><ele>918.0</ele><time>2026-04-27T08:57:44.739Z</time></trkpt><trkpt lat="39.3070333" lon="16.122265"><ele>920.2</ele><time>2026-04-27T08:57:45.705Z</time></trkpt><trkpt lat="39.306945" lon="16.1222767"><ele>922.4</ele><time>2026-04-27T08:57:46.7Z</time></trkpt><trkpt lat="39.306865" lon="16.1222833"><ele>924.6000000000001</ele><time>2026-04-27T08:57:47.704Z</time></trkpt><trkpt lat="39.3067983" lon="16.12229"><ele>926.8000000000001</ele><time>2026-04-27T08:57:48.706Z</time></trkpt><trkpt lat="39.3066983" lon="16.1222733"><ele>929.0</ele><time>2026-04-27T08:57:50.738Z</time></trkpt><trkpt lat="39.3065683" lon="16.122265"><ele>929.0000000000001</ele><time>2026-04-27T08:57:52.707Z</time></trkpt><trkpt lat="39.306495" lon="16.1222683"><ele>929.0</ele><time>2026-04-27T08:57:53.702Z</time></trkpt><trkpt lat="39.3064317" lon="16.1222567"><ele>929.0</ele><time>2026-04-27T08:57:54.706Z</time></trkpt><trkpt lat="39.3063367" lon="16.12224"><ele>929.0</ele><time>2026-04-27T08:57:56.748Z</time></trkpt><trkpt lat="39.3062767" lon="16.1221817"><ele>929.0000000000001</ele><time>2026-04-27T08:57:58.704Z</time></trkpt><trkpt lat="39.306215" lon="16.1221517"><ele>929.0</ele><time>2026-04-27T08:58:00.703Z</time></trkpt><trkpt lat="39.306145" lon="16.1220567"><ele>928.6</ele><time>2026-04-27T08:58:02.748Z</time></trkpt><trkpt lat="39.3060867" lon="16.1219717"><ele>928.2</ele><time>2026-04-27T08:58:04.708Z</time></trkpt><trkpt lat="39.306" lon="16.121935"><ele>927.8000000000001</ele><time>2026-04-27T08:58:06.703Z</time></trkpt><trkpt lat="39.30589" lon="16.1218733"><ele>927.4000000000001</ele><time>2026-04-27T08:58:08.739Z</time></trkpt><trkpt lat="39.305805" lon="16.1217817"><ele>927.0</ele><time>2026-04-27T08:58:10.702Z</time></trkpt><trkpt lat="39.3057717" lon="16.1216667"><ele>927.0</ele><time>2026-04-27T08:58:12.701Z</time></trkpt><trkpt lat="39.305735" lon="16.12157"><ele>927.0</ele><time>2026-04-27T08:58:15.699Z</time></trkpt><trkpt lat="39.3057067" lon="16.1214917"><ele>927.0</ele><time>2026-04-27T08:58:17.705Z</time></trkpt><trkpt lat="39.3056783" lon="16.1213617"><ele>927.0</ele><time>2026-04-27T08:58:19.701Z</time></trkpt><trkpt lat="39.3056367" lon="16.1212133"><ele>927.0</ele><time>2026-04-27T08:58:21.701Z</time></trkpt><trkpt lat="39.3056" lon="16.12113"><ele>927.5</ele><time>2026-04-27T08:58:22.709Z</time></trkpt><trkpt lat="39.305555" lon="16.1210333"><ele>928.0</ele><time>2026-04-27T08:58:23.702Z</time></trkpt><trkpt lat="39.3055133" lon="16.1209217"><ele>928.5</ele><time>2026-04-27T08:58:24.706Z</time></trkpt><trkpt lat="39.3054633" lon="16.12082"><ele>929.0</ele><time>2026-04-27T08:58:25.707Z</time></trkpt><trkpt lat="39.30543" lon="16.12072"><ele>929.5</ele><time>2026-04-27T08:58:26.751Z</time></trkpt><trkpt lat="39.3054" lon="16.120635"><ele>930.0</ele><time>2026-04-27T08:58:27.7Z</time></trkpt><trkpt lat="39.305365" lon="16.12055"><ele>930.0</ele><time>2026-04-27T08:58:28.706Z</time></trkpt><trkpt lat="39.30529" lon="16.12046"><ele>930.0</ele><time>2026-04-27T08:58:29.698Z</time></trkpt><trkpt lat="39.3051917" lon="16.1203567"><ele>930.0</ele><time>2026-04-27T08:58:30.707Z</time></trkpt><trkpt lat="39.305055" lon="16.120265"><ele>930.0</ele><time>2026-04-27T08:58:31.708Z</time></trkpt><trkpt lat="39.3048983" lon="16.1201933"><ele>930.0</ele><time>2026-04-27T08:58:32.749Z</time></trkpt><trkpt lat="39.3047267" lon="16.1201517"><ele>930.0</ele><time>2026-04-27T08:58:33.7Z</time></trkpt><trkpt lat="39.30457" lon="16.1201117"><ele>930.0</ele><time>2026-04-27T08:58:34.698Z</time></trkpt><trkpt lat="39.3044283" lon="16.1200817"><ele>930.0</ele><time>2026-04-27T08:58:35.704Z</time></trkpt><trkpt lat="39.304295" lon="16.1200617"><ele>930.0</ele><time>2026-04-27T08:58:36.712Z</time></trkpt><trkpt lat="39.3041767" lon="16.1200417"><ele>930.0</ele><time>2026-04-27T08:58:37.704Z</time></trkpt><trkpt lat="39.3040733" lon="16.1200333"><ele>930.0</ele><time>2026-04-27T08:58:38.737Z</time></trkpt><trkpt lat="39.303995" lon="16.1200383"><ele>930.0</ele><time>2026-04-27T08:58:39.697Z</time></trkpt><trkpt lat="39.303905" lon="16.1200867"><ele>930.0</ele><time>2026-04-27T08:58:41.701Z</time></trkpt><trkpt lat="39.3039083" lon="16.120285"><ele>930.0</ele><time>2026-04-27T09:00:31.711Z</time></trkpt><trkpt lat="39.3039133" lon="16.1204717"><ele>930.0</ele><time>2026-04-27T09:00:33.7Z</time></trkpt><trkpt lat="39.30392" lon="16.12061"><ele>930.0</ele><time>2026-04-27T09:00:34.703Z</time></trkpt><trkpt lat="39.3039133" lon="16.1207283"><ele>936.8333333333334</ele><time>2026-04-27T09:00:35.704Z</time></trkpt><trkpt lat="39.3039083" lon="16.120835"><ele>943.6666666666667</ele><time>2026-04-27T09:00:36.704Z</time></trkpt><trkpt lat="39.303895" lon="16.12094"><ele>950.5</ele><time>2026-04-27T09:00:37.7Z</time></trkpt><trkpt lat="39.3038733" lon="16.12104"><ele>957.3333333333334</ele><time>2026-04-27T09:00:38.735Z</time></trkpt><trkpt lat="39.3038533" lon="16.1211367"><ele>964.1666666666667</ele><time>2026-04-27T09:00:39.697Z</time></trkpt><trkpt lat="39.303825" lon="16.1212567"><ele>971.0</ele><time>2026-04-27T09:00:40.702Z</time></trkpt><trkpt lat="39.3037833" lon="16.1214233"><ele>971.0</ele><time>2026-04-27T09:00:41.699Z</time></trkpt><trkpt lat="39.3037367" lon="16.1215583"><ele>970.9999999999999</ele><time>2026-04-27T09:00:42.699Z</time></trkpt><trkpt lat="39.3036767" lon="16.1216917"><ele>970.9999999999999</ele><time>2026-04-27T09:00:43.694Z</time></trkpt><trkpt lat="39.3035833" lon="16.1217483"><ele>971.0</ele><time>2026-04-27T09:00:44.747Z</time></trkpt><trkpt lat="39.3034833" lon="16.1217917"><ele>971.0</ele><time>2026-04-27T09:00:45.706Z</time></trkpt><trkpt lat="39.3033733" lon="16.121875"><ele>973.0</ele><time>2026-04-27T09:00:46.705Z</time></trkpt><trkpt lat="39.3032667" lon="16.1220283"><ele>975.0</ele><time>2026-04-27T09:00:47.707Z</time></trkpt><trkpt lat="39.3031617" lon="16.1221717"><ele>977.0</ele><time>2026-04-27T09:00:48.713Z</time></trkpt><trkpt lat="39.3030817" lon="16.12233"><ele>981.5</ele><time>2026-04-27T09:00:49.702Z</time></trkpt><trkpt lat="39.3029883" lon="16.122465"><ele>986.0</ele><time>2026-04-27T09:00:50.737Z</time></trkpt><trkpt lat="39.3028817" lon="16.1225533"><ele>990.5</ele><time>2026-04-27T09:00:51.701Z</time></trkpt><trkpt lat="39.3028183" lon="16.122705"><ele>995.0</ele><time>2026-04-27T09:00:52.702Z</time></trkpt><trkpt lat="39.302745" lon="16.1228233"><ele>995.0</ele><time>2026-04-27T09:00:53.705Z</time></trkpt><trkpt lat="39.3026717" lon="16.122935"><ele>995.0</ele><time>2026-04-27T09:00:54.706Z</time></trkpt><trkpt lat="39.3026017" lon="16.12305"><ele>995.0</ele><time>2026-04-27T09:00:55.706Z</time></trkpt><trkpt lat="39.302515" lon="16.1231267"><ele>995.0</ele><time>2026-04-27T09:00:56.728Z</time></trkpt><trkpt lat="39.3023667" lon="16.12307"><ele>1000.0</ele><time>2026-04-27T09:00:57.699Z</time></trkpt><trkpt lat="39.3022383" lon="16.1230567"><ele>1005.0</ele><time>2026-04-27T09:00:58.704Z</time></trkpt><trkpt lat="39.302135" lon="16.12313"><ele>1010.0</ele><time>2026-04-27T09:00:59.711Z</time></trkpt><trkpt lat="39.3020317" lon="16.1231967"><ele>1015.0</ele><time>2026-04-27T09:01:00.701Z</time></trkpt><trkpt lat="39.3019233" lon="16.1232617"><ele>1014.9999999999999</ele><time>2026-04-27T09:01:01.699Z</time></trkpt><trkpt lat="39.3018333" lon="16.123305"><ele>1015.0</ele><time>2026-04-27T09:01:02.747Z</time></trkpt><trkpt lat="39.3017567" lon="16.1233383"><ele>1015.0</ele><time>2026-04-27T09:01:03.699Z</time></trkpt><trkpt lat="39.3017017" lon="16.1233817"><ele>1015.0</ele><time>2026-04-27T09:01:05.705Z</time></trkpt><trkpt lat="39.301685" lon="16.1234617"><ele>1014.9999999999999</ele><time>2026-04-27T09:01:07.704Z</time></trkpt><trkpt lat="39.301705" lon="16.12361"><ele>1015.0</ele><time>2026-04-27T09:01:09.7Z</time></trkpt><trkpt lat="39.3017067" lon="16.1237533"><ele>1015.0</ele><time>2026-04-27T09:01:11.702Z</time></trkpt><trkpt lat="39.3017083" lon="16.123895"><ele>1015.0</ele><time>2026-04-27T09:01:13.703Z</time></trkpt><trkpt lat="39.301695" lon="16.1240533"><ele>1015.0</ele><time>2026-04-27T09:01:15.703Z</time></trkpt><trkpt lat="39.3016933" lon="16.1241383"><ele>1015.0</ele><time>2026-04-27T09:01:16.703Z</time></trkpt><trkpt lat="39.301675" lon="16.1242833"><ele>1015.0</ele><time>2026-04-27T09:01:18.703Z</time></trkpt><trkpt lat="39.3016317" lon="16.1244183"><ele>1015.1666666666666</ele><time>2026-04-27T09:01:20.738Z</time></trkpt><trkpt lat="39.30157" lon="16.1244383"><ele>1015.3333333333333</ele><time>2026-04-27T09:01:21.7Z</time></trkpt><trkpt lat="39.301495" lon="16.1244767"><ele>1015.5</ele><time>2026-04-27T09:01:22.703Z</time></trkpt><trkpt lat="39.3014467" lon="16.124545"><ele>1015.6666666666667</ele><time>2026-04-27T09:01:23.703Z</time></trkpt><trkpt lat="39.301375" lon="16.1245183"><ele>1015.8333333333334</ele><time>2026-04-27T09:01:24.708Z</time></trkpt><trkpt lat="39.3012833" lon="16.1245217"><ele>1016.0</ele><time>2026-04-27T09:01:25.695Z</time></trkpt><trkpt lat="39.30117" lon="16.1245183"><ele>1017.1999999999999</ele><time>2026-04-27T09:01:26.772Z</time></trkpt><trkpt lat="39.3010667" lon="16.124485"><ele>1018.3999999999999</ele><time>2026-04-27T09:01:27.698Z</time></trkpt><trkpt lat="39.3009517" lon="16.12445"><ele>1019.6</ele><time>2026-04-27T09:01:28.705Z</time></trkpt><trkpt lat="39.3008517" lon="16.1244233"><ele>1020.8</ele><time>2026-04-27T09:01:29.707Z</time></trkpt><trkpt lat="39.3007567" lon="16.1244033"><ele>1022.0</ele><time>2026-04-27T09:01:30.705Z</time></trkpt><trkpt lat="39.3006667" lon="16.124425"><ele>1021.8</ele><time>2026-04-27T09:01:31.697Z</time></trkpt><trkpt lat="39.3005717" lon="16.1244383"><ele>1021.6</ele><time>2026-04-27T09:01:32.751Z</time></trkpt><trkpt lat="39.3004817" lon="16.1244917"><ele>1021.3999999999999</ele><time>2026-04-27T09:01:33.7Z</time></trkpt><trkpt lat="39.300375" lon="16.124505"><ele>1021.1999999999999</ele><time>2026-04-27T09:01:34.705Z</time></trkpt><trkpt lat="39.3002483" lon="16.1244817"><ele>1021.0</ele><time>2026-04-27T09:01:35.705Z</time></trkpt><trkpt lat="39.30014" lon="16.124465"><ele>1021.0</ele><time>2026-04-27T09:01:36.703Z</time></trkpt><trkpt lat="39.3000267" lon="16.1244667"><ele>1021.0</ele><time>2026-04-27T09:01:37.704Z</time></trkpt><trkpt lat="39.2999133" lon="16.1244517"><ele>1021.0</ele><time>2026-04-27T09:01:38.741Z</time></trkpt><trkpt lat="39.299795" lon="16.1244567"><ele>1021.0</ele><time>2026-04-27T09:01:39.702Z</time></trkpt><trkpt lat="39.2996883" lon="16.12447"><ele>1020.6666666666666</ele><time>2026-04-27T09:01:40.706Z</time></trkpt><trkpt lat="39.2995883" lon="16.1244833"><ele>1020.3333333333333</ele><time>2026-04-27T09:01:41.698Z</time></trkpt><trkpt lat="39.2994983" lon="16.124515"><ele>1020.0</ele><time>2026-04-27T09:01:42.704Z</time></trkpt><trkpt lat="39.2994217" lon="16.1245683"><ele>1019.6666666666667</ele><time>2026-04-27T09:01:43.707Z</time></trkpt><trkpt lat="39.2993533" lon="16.1246383"><ele>1019.3333333333334</ele><time>2026-04-27T09:01:44.737Z</time></trkpt><trkpt lat="39.2993233" lon="16.1247333"><ele>1019.0</ele><time>2026-04-27T09:01:45.697Z</time></trkpt><trkpt lat="39.29924" lon="16.1247733"><ele>1019.0</ele><time>2026-04-27T09:01:46.703Z</time></trkpt><trkpt lat="39.29918" lon="16.1248617"><ele>1019.0000000000001</ele><time>2026-04-27T09:01:47.705Z</time></trkpt><trkpt lat="39.2991" lon="16.1249467"><ele>1019.0000000000001</ele><time>2026-04-27T09:01:48.705Z</time></trkpt><trkpt lat="39.298995" lon="16.12502"><ele>1019.0</ele><time>2026-04-27T09:01:49.703Z</time></trkpt><trkpt lat="39.2988817" lon="16.1250683"><ele>1019.0</ele><time>2026-04-27T09:01:50.736Z</time></trkpt><trkpt lat="39.2987617" lon="16.1251333"><ele>1020.4000000000001</ele><time>2026-04-27T09:01:51.699Z</time></trkpt><trkpt lat="39.298655" lon="16.125215"><ele>1021.8000000000001</ele><time>2026-04-27T09:01:52.703Z</time></trkpt><trkpt lat="39.2985633" lon="16.1253033"><ele>1023.1999999999999</ele><time>2026-04-27T09:01:53.7Z</time></trkpt><trkpt lat="39.2984783" lon="16.1253917"><ele>1024.6</ele><time>2026-04-27T09:01:54.705Z</time></trkpt><trkpt lat="39.2984033" lon="16.125475"><ele>1026.0</ele><time>2026-04-27T09:01:55.694Z</time></trkpt><trkpt lat="39.2983333" lon="16.1255717"><ele>1026.0</ele><time>2026-04-27T09:01:56.767Z</time></trkpt><trkpt lat="39.298315" lon="16.12571"><ele>1026.0</ele><time>2026-04-27T09:01:57.697Z</time></trkpt><trkpt lat="39.2983" lon="16.1258283"><ele>1026.0</ele><time>2026-04-27T09:01:58.701Z</time></trkpt><trkpt lat="39.2982933" lon="16.125955"><ele>1026.0</ele><time>2026-04-27T09:01:59.702Z</time></trkpt><trkpt lat="39.2982867" lon="16.12608"><ele>1026.0</ele><time>2026-04-27T09:02:00.703Z</time></trkpt><trkpt lat="39.298275" lon="16.1262"><ele>1027.0</ele><time>2026-04-27T09:02:01.706Z</time></trkpt><trkpt lat="39.298245" lon="16.1263217"><ele>1028.0</ele><time>2026-04-27T09:02:02.751Z</time></trkpt><trkpt lat="39.2982067" lon="16.1264467"><ele>1029.0</ele><time>2026-04-27T09:02:03.699Z</time></trkpt><trkpt lat="39.2981717" lon="16.1265717"><ele>1030.0</ele><time>2026-04-27T09:02:04.704Z</time></trkpt><trkpt lat="39.2981417" lon="16.1266833"><ele>1031.0</ele><time>2026-04-27T09:02:05.7Z</time></trkpt><trkpt lat="39.2981217" lon="16.1267733"><ele>1032.6666666666667</ele><time>2026-04-27T09:02:06.706Z</time></trkpt><trkpt lat="39.2981117" lon="16.126855"><ele>1034.3333333333335</ele><time>2026-04-27T09:02:07.702Z</time></trkpt><trkpt lat="39.29812" lon="16.1269667"><ele>1036.0</ele><time>2026-04-27T09:02:09.704Z</time></trkpt><trkpt lat="39.2981667" lon="16.1270583"><ele>1037.6666666666667</ele><time>2026-04-27T09:02:11.699Z</time></trkpt><trkpt lat="39.298205" lon="16.1271367"><ele>1039.3333333333333</ele><time>2026-04-27T09:02:12.708Z</time></trkpt><trkpt lat="39.298245" lon="16.1272667"><ele>1041.0</ele><time>2026-04-27T09:02:14.742Z</time></trkpt><trkpt lat="39.2982617" lon="16.1273983"><ele>1042.8</ele><time>2026-04-27T09:02:16.703Z</time></trkpt><trkpt lat="39.2983133" lon="16.127505"><ele>1044.6</ele><time>2026-04-27T09:02:18.705Z</time></trkpt><trkpt lat="39.2983667" lon="16.1276067"><ele>1046.4</ele><time>2026-04-27T09:02:20.74Z</time></trkpt><trkpt lat="39.298405" lon="16.12775"><ele>1048.2</ele><time>2026-04-27T09:02:22.705Z</time></trkpt><trkpt lat="39.29848" lon="16.1278667"><ele>1050.0</ele><time>2026-04-27T09:02:24.699Z</time></trkpt><trkpt lat="39.2985217" lon="16.1279383"><ele>1050.0</ele><time>2026-04-27T09:02:25.703Z</time></trkpt><trkpt lat="39.2985867" lon="16.1280467"><ele>1050.0</ele><time>2026-04-27T09:02:26.771Z</time></trkpt><trkpt lat="39.2986517" lon="16.12817"><ele>1050.0</ele><time>2026-04-27T09:02:27.704Z</time></trkpt><trkpt lat="39.2987083" lon="16.1282983"><ele>1050.0</ele><time>2026-04-27T09:02:28.705Z</time></trkpt><trkpt lat="39.2987783" lon="16.1284517"><ele>1052.75</ele><time>2026-04-27T09:02:29.705Z</time></trkpt><trkpt lat="39.2988267" lon="16.1285867"><ele>1055.5</ele><time>2026-04-27T09:02:30.703Z</time></trkpt><trkpt lat="39.298885" lon="16.128715"><ele>1058.25</ele><time>2026-04-27T09:02:31.697Z</time></trkpt><trkpt lat="39.298945" lon="16.128875"><ele>1061.0</ele><time>2026-04-27T09:02:32.746Z</time></trkpt><trkpt lat="39.299" lon="16.1290017"><ele>1058.75</ele><time>2026-04-27T09:02:33.7Z</time></trkpt><trkpt lat="39.2990283" lon="16.1291233"><ele>1056.5</ele><time>2026-04-27T09:02:34.697Z</time></trkpt><trkpt lat="39.29906" lon="16.12927"><ele>1054.25</ele><time>2026-04-27T09:02:35.705Z</time></trkpt><trkpt lat="39.2990917" lon="16.129445"><ele>1052.0</ele><time>2026-04-27T09:02:36.706Z</time></trkpt><trkpt lat="39.2991133" lon="16.129605"><ele>1052.0</ele><time>2026-04-27T09:02:37.699Z</time></trkpt><trkpt lat="39.29914" lon="16.1297483"><ele>1052.0</ele><time>2026-04-27T09:02:38.742Z</time></trkpt><trkpt lat="39.2991683" lon="16.1298983"><ele>1052.0</ele><time>2026-04-27T09:02:39.713Z</time></trkpt><trkpt lat="39.2991317" lon="16.1300533"><ele>1052.0</ele><time>2026-04-27T09:02:40.706Z</time></trkpt><trkpt lat="39.29911" lon="16.1302017"><ele>1055.2</ele><time>2026-04-27T09:02:41.702Z</time></trkpt><trkpt lat="39.29905" lon="16.1303217"><ele>1058.4</ele><time>2026-04-27T09:02:42.705Z</time></trkpt><trkpt lat="39.2989233" lon="16.1304383"><ele>1061.6</ele><time>2026-04-27T09:02:43.702Z</time></trkpt><trkpt lat="39.2988917" lon="16.1305417"><ele>1064.8</ele><time>2026-04-27T09:02:44.738Z</time></trkpt><trkpt lat="39.2988733" lon="16.13065"><ele>1068.0</ele><time>2026-04-27T09:02:45.701Z</time></trkpt><trkpt lat="39.2988533" lon="16.1307567"><ele>1072.1666666666667</ele><time>2026-04-27T09:02:46.705Z</time></trkpt><trkpt lat="39.2988317" lon="16.1308633"><ele>1076.3333333333333</ele><time>2026-04-27T09:02:47.7Z</time></trkpt><trkpt lat="39.298825" lon="16.1309667"><ele>1080.5</ele><time>2026-04-27T09:02:48.704Z</time></trkpt><trkpt lat="39.298765" lon="16.1310667"><ele>1084.6666666666665</ele><time>2026-04-27T09:02:49.71Z</time></trkpt><trkpt lat="39.2987517" lon="16.1311783"><ele>1088.8333333333333</ele><time>2026-04-27T09:02:50.735Z</time></trkpt><trkpt lat="39.2987383" lon="16.131275"><ele>1093.0</ele><time>2026-04-27T09:02:51.7Z</time></trkpt><trkpt lat="39.2988033" lon="16.1313333"><ele>1093.0</ele><time>2026-04-27T09:02:53.698Z</time></trkpt><trkpt lat="39.2988433" lon="16.1314283"><ele>1093.0</ele><time>2026-04-27T09:02:55.704Z</time></trkpt><trkpt lat="39.29882" lon="16.1315317"><ele>1093.0</ele><time>2026-04-27T09:02:58.7Z</time></trkpt><trkpt lat="39.2987017" lon="16.131525"><ele>1093.0</ele><time>2026-04-27T09:03:00.702Z</time></trkpt><trkpt lat="39.2986267" lon="16.131525"><ele>1093.0</ele><time>2026-04-27T09:03:01.701Z</time></trkpt><trkpt lat="39.2985283" lon="16.13151"><ele>1093.0</ele><time>2026-04-27T09:03:02.75Z</time></trkpt><trkpt lat="39.2984117" lon="16.1314783"><ele>1093.0</ele><time>2026-04-27T09:03:03.701Z</time></trkpt><trkpt lat="39.2982983" lon="16.13144"><ele>1093.0</ele><time>2026-04-27T09:03:04.7Z</time></trkpt><trkpt lat="39.2981833" lon="16.1313717"><ele>1093.0</ele><time>2026-04-27T09:03:05.707Z</time></trkpt><trkpt lat="39.2980683" lon="16.1313267"><ele>1095.8333333333333</ele><time>2026-04-27T09:03:06.701Z</time></trkpt><trkpt lat="39.29796" lon="16.131305"><ele>1098.6666666666665</ele><time>2026-04-27T09:03:07.698Z</time></trkpt><trkpt lat="39.2978433" lon="16.1312983"><ele>1101.5</ele><time>2026-04-27T09:03:08.743Z</time></trkpt><trkpt lat="39.2977567" lon="16.1312883"><ele>1104.3333333333333</ele><time>2026-04-27T09:03:09.704Z</time></trkpt><trkpt lat="39.2977267" lon="16.13137"><ele>1107.1666666666667</ele><time>2026-04-27T09:03:10.706Z</time></trkpt><trkpt lat="39.2976733" lon="16.13142"><ele>1110.0</ele><time>2026-04-27T09:03:11.703Z</time></trkpt><trkpt lat="39.2976033" lon="16.1314783"><ele>1110.0</ele><time>2026-04-27T09:03:12.7Z</time></trkpt><trkpt lat="39.2975267" lon="16.1315567"><ele>1110.0</ele><time>2026-04-27T09:03:13.706Z</time></trkpt><trkpt lat="39.2974617" lon="16.131655"><ele>1110.0</ele><time>2026-04-27T09:03:14.74Z</time></trkpt><trkpt lat="39.2974217" lon="16.1317233"><ele>1110.0</ele><time>2026-04-27T09:03:15.704Z</time></trkpt><trkpt lat="39.2973817" lon="16.1317917"><ele>1110.0</ele><time>2026-04-27T09:03:16.705Z</time></trkpt><trkpt lat="39.297315" lon="16.1318933"><ele>1110.0</ele><time>2026-04-27T09:03:17.702Z</time></trkpt><trkpt lat="39.297265" lon="16.131995"><ele>1110.6666666666667</ele><time>2026-04-27T09:03:18.703Z</time></trkpt><trkpt lat="39.29721" lon="16.1322217"><ele>1111.3333333333335</ele><time>2026-04-27T09:03:19.699Z</time></trkpt><trkpt lat="39.29714" lon="16.1323933"><ele>1112.0</ele><time>2026-04-27T09:03:20.741Z</time></trkpt><trkpt lat="39.2971083" lon="16.132575"><ele>1108.4</ele><time>2026-04-27T09:03:21.7Z</time></trkpt><trkpt lat="39.2970767" lon="16.1327267"><ele>1104.8000000000002</ele><time>2026-04-27T09:03:22.702Z</time></trkpt><trkpt lat="39.2970183" lon="16.1328367"><ele>1101.2</ele><time>2026-04-27T09:03:23.701Z</time></trkpt><trkpt lat="39.2969667" lon="16.1329483"><ele>1097.6000000000001</ele><time>2026-04-27T09:03:24.701Z</time></trkpt><trkpt lat="39.2969417" lon="16.1331017"><ele>1094.0</ele><time>2026-04-27T09:03:26.731Z</time></trkpt><trkpt lat="39.2969983" lon="16.1332317"><ele>1094.0</ele><time>2026-04-27T09:03:28.702Z</time></trkpt><trkpt lat="39.29705" lon="16.1332983"><ele>1094.0</ele><time>2026-04-27T09:03:29.701Z</time></trkpt><trkpt lat="39.29711" lon="16.1333567"><ele>1094.0</ele><time>2026-04-27T09:03:30.697Z</time></trkpt><trkpt lat="39.2971717" lon="16.133425"><ele>1094.0</ele><time>2026-04-27T09:03:31.701Z</time></trkpt><trkpt lat="39.297215" lon="16.1335"><ele>1094.0</ele><time>2026-04-27T09:03:32.748Z</time></trkpt><trkpt lat="39.297245" lon="16.1335733"><ele>1094.0</ele><time>2026-04-27T09:03:33.699Z</time></trkpt><trkpt lat="39.2972317" lon="16.1336817"><ele>1094.0</ele><time>2026-04-27T09:03:35.702Z</time></trkpt><trkpt lat="39.2971583" lon="16.13381"><ele>1094.0</ele><time>2026-04-27T09:03:37.702Z</time></trkpt><trkpt lat="39.2971133" lon="16.133965"><ele>1094.0</ele><time>2026-04-27T09:03:39.703Z</time></trkpt><trkpt lat="39.2970633" lon="16.13407"><ele>1094.0</ele><time>2026-04-27T09:03:40.703Z</time></trkpt><trkpt lat="39.297" lon="16.13421"><ele>1093.5</ele><time>2026-04-27T09:03:41.698Z</time></trkpt><trkpt lat="39.296955" lon="16.1343667"><ele>1093.0</ele><time>2026-04-27T09:03:42.701Z</time></trkpt><trkpt lat="39.2969317" lon="16.1345467"><ele>1092.5</ele><time>2026-04-27T09:03:43.698Z</time></trkpt><trkpt lat="39.2969133" lon="16.1347083"><ele>1092.0</ele><time>2026-04-27T09:03:44.739Z</time></trkpt><trkpt lat="39.2969" lon="16.13488"><ele>1090.5</ele><time>2026-04-27T09:03:45.7Z</time></trkpt><trkpt lat="39.2969033" lon="16.135045"><ele>1089.0</ele><time>2026-04-27T09:03:46.702Z</time></trkpt><trkpt lat="39.2969233" lon="16.1352017"><ele>1087.5</ele><time>2026-04-27T09:03:47.7Z</time></trkpt><trkpt lat="39.29698" lon="16.1353717"><ele>1086.0</ele><time>2026-04-27T09:03:48.7Z</time></trkpt><trkpt lat="39.29704" lon="16.1355217"><ele>1086.0</ele><time>2026-04-27T09:03:49.705Z</time></trkpt><trkpt lat="39.2970967" lon="16.1356683"><ele>1086.0</ele><time>2026-04-27T09:03:50.733Z</time></trkpt><trkpt lat="39.297165" lon="16.1358117"><ele>1086.0</ele><time>2026-04-27T09:03:51.701Z</time></trkpt><trkpt lat="39.29723" lon="16.13596"><ele>1086.0</ele><time>2026-04-27T09:03:52.699Z</time></trkpt><trkpt lat="39.2972933" lon="16.136105"><ele>1087.25</ele><time>2026-04-27T09:03:53.696Z</time></trkpt><trkpt lat="39.2973583" lon="16.1362367"><ele>1088.5</ele><time>2026-04-27T09:03:54.702Z</time></trkpt><trkpt lat="39.297415" lon="16.13637"><ele>1089.75</ele><time>2026-04-27T09:03:55.704Z</time></trkpt><trkpt lat="39.2974667" lon="16.1365033"><ele>1091.0</ele><time>2026-04-27T09:03:56.763Z</time></trkpt><trkpt lat="39.297525" lon="16.1366283"><ele>1091.0</ele><time>2026-04-27T09:03:57.694Z</time></trkpt><trkpt lat="39.2975883" lon="16.13675"><ele>1091.0</ele><time>2026-04-27T09:03:58.698Z</time></trkpt><trkpt lat="39.2976467" lon="16.13686"><ele>1091.0</ele><time>2026-04-27T09:03:59.697Z</time></trkpt><trkpt lat="39.2976967" lon="16.136965"><ele>1091.0</ele><time>2026-04-27T09:04:00.701Z</time></trkpt><trkpt lat="39.2977117" lon="16.1370467"><ele>1091.0</ele><time>2026-04-27T09:04:01.7Z</time></trkpt><trkpt lat="39.2976667" lon="16.13717"><ele>1091.0</ele><time>2026-04-27T09:04:03.696Z</time></trkpt><trkpt lat="39.2976033" lon="16.137225"><ele>1091.0</ele><time>2026-04-27T09:04:04.704Z</time></trkpt><trkpt lat="39.2975017" lon="16.1372717"><ele>1091.0</ele><time>2026-04-27T09:04:05.7Z</time></trkpt><trkpt lat="39.297345" lon="16.1373167"><ele>1091.0</ele><time>2026-04-27T09:04:06.703Z</time></trkpt><trkpt lat="39.2971717" lon="16.1373667"><ele>1091.2</ele><time>2026-04-27T09:04:07.701Z</time></trkpt><trkpt lat="39.2970417" lon="16.137425"><ele>1091.3999999999999</ele><time>2026-04-27T09:04:08.745Z</time></trkpt><trkpt lat="39.29693" lon="16.1374667"><ele>1091.6</ele><time>2026-04-27T09:04:09.7Z</time></trkpt><trkpt lat="39.29684" lon="16.1375283"><ele>1091.8</ele><time>2026-04-27T09:04:10.702Z</time></trkpt><trkpt lat="39.2967633" lon="16.137595"><ele>1092.0</ele><time>2026-04-27T09:04:11.701Z</time></trkpt><trkpt lat="39.2966867" lon="16.1376617"><ele>1092.0</ele><time>2026-04-27T09:04:12.704Z</time></trkpt><trkpt lat="39.29661" lon="16.1377367"><ele>1092.0</ele><time>2026-04-27T09:04:13.696Z</time></trkpt><trkpt lat="39.2965283" lon="16.1377983"><ele>1092.0</ele><time>2026-04-27T09:04:14.737Z</time></trkpt><trkpt lat="39.29644" lon="16.1378483"><ele>1092.0</ele><time>2026-04-27T09:04:15.702Z</time></trkpt><trkpt lat="39.29636" lon="16.13788"><ele>1092.0</ele><time>2026-04-27T09:04:16.704Z</time></trkpt><trkpt lat="39.2962733" lon="16.13788"><ele>1092.0</ele><time>2026-04-27T09:04:18.704Z</time></trkpt><trkpt lat="39.2963367" lon="16.137745"><ele>1092.0</ele><time>2026-04-27T09:04:51.697Z</time></trkpt><trkpt lat="39.296375" lon="16.1376683"><ele>1092.0</ele><time>2026-04-27T09:04:56.766Z</time></trkpt><trkpt lat="39.2964517" lon="16.1376633"><ele>1092.0</ele><time>2026-04-27T09:04:58.7Z</time></trkpt><trkpt lat="39.296515" lon="16.1376183"><ele>1092.0</ele><time>2026-04-27T09:05:15.698Z</time></trkpt><trkpt lat="39.2964917" lon="16.1377033"><ele>1092.0</ele><time>2026-04-27T09:05:45.696Z</time></trkpt><trkpt lat="39.29649" lon="16.1378067"><ele>1092.0</ele><time>2026-04-27T09:05:48.698Z</time></trkpt><trkpt lat="39.29655" lon="16.1378633"><ele>1092.0</ele><time>2026-04-27T09:05:54.694Z</time></trkpt><trkpt lat="39.2965967" lon="16.13794"><ele>1092.0</ele><time>2026-04-27T09:05:56.768Z</time></trkpt><trkpt lat="39.2966417" lon="16.1380217"><ele>1092.0</ele><time>2026-04-27T09:05:58.703Z</time></trkpt><trkpt lat="39.2966817" lon="16.1381133"><ele>1092.0</ele><time>2026-04-27T09:06:01.701Z</time></trkpt><trkpt lat="39.2966483" lon="16.1381867"><ele>1092.0</ele><time>2026-04-27T09:06:05.701Z</time></trkpt><trkpt lat="39.2965583" lon="16.1381117"><ele>1092.0</ele><time>2026-04-27T09:06:07.694Z</time></trkpt><trkpt lat="39.296505" lon="16.13806"><ele>1092.0</ele><time>2026-04-27T09:06:08.735Z</time></trkpt><trkpt lat="39.2964367" lon="16.1379983"><ele>1092.0</ele><time>2026-04-27T09:06:09.694Z</time></trkpt><trkpt lat="39.29638" lon="16.137945"><ele>1092.0</ele><time>2026-04-27T09:06:10.703Z</time></trkpt><trkpt lat="39.296295" lon="16.137875"><ele>1092.0</ele><time>2026-04-27T09:06:11.702Z</time></trkpt><trkpt lat="39.296215" lon="16.1378083"><ele>1092.0</ele><time>2026-04-27T09:06:12.706Z</time></trkpt><trkpt lat="39.2961183" lon="16.1377383"><ele>1090.5</ele><time>2026-04-27T09:06:13.702Z</time></trkpt><trkpt lat="39.296025" lon="16.137655"><ele>1089.0</ele><time>2026-04-27T09:06:14.736Z</time></trkpt><trkpt lat="39.295915" lon="16.1375617"><ele>1087.5</ele><time>2026-04-27T09:06:15.696Z</time></trkpt><trkpt lat="39.2957983" lon="16.1374733"><ele>1086.0</ele><time>2026-04-27T09:06:16.706Z</time></trkpt><trkpt lat="39.2956717" lon="16.1373817"><ele>1084.25</ele><time>2026-04-27T09:06:17.7Z</time></trkpt><trkpt lat="39.2955383" lon="16.1373017"><ele>1082.5</ele><time>2026-04-27T09:06:18.703Z</time></trkpt><trkpt lat="39.2953933" lon="16.13723"><ele>1080.75</ele><time>2026-04-27T09:06:19.702Z</time></trkpt><trkpt lat="39.2952767" lon="16.1371567"><ele>1079.0</ele><time>2026-04-27T09:06:20.737Z</time></trkpt><trkpt lat="39.2951617" lon="16.1371067"><ele>1079.0</ele><time>2026-04-27T09:06:21.698Z</time></trkpt><trkpt lat="39.29505" lon="16.13706"><ele>1079.0</ele><time>2026-04-27T09:06:22.701Z</time></trkpt><trkpt lat="39.29495" lon="16.1370517"><ele>1079.0</ele><time>2026-04-27T09:06:23.699Z</time></trkpt><trkpt lat="39.2948567" lon="16.13706"><ele>1079.0</ele><time>2026-04-27T09:06:24.706Z</time></trkpt><trkpt lat="39.2947667" lon="16.1370883"><ele>1079.0</ele><time>2026-04-27T09:06:25.699Z</time></trkpt><trkpt lat="39.2946683" lon="16.137125"><ele>1078.0</ele><time>2026-04-27T09:06:26.76Z</time></trkpt><trkpt lat="39.2945533" lon="16.1371417"><ele>1077.0</ele><time>2026-04-27T09:06:27.697Z</time></trkpt><trkpt lat="39.2944233" lon="16.13714"><ele>1076.0</ele><time>2026-04-27T09:06:28.697Z</time></trkpt><trkpt lat="39.294285" lon="16.1371217"><ele>1075.0</ele><time>2026-04-27T09:06:29.704Z</time></trkpt><trkpt lat="39.2941433" lon="16.1370833"><ele>1075.0</ele><time>2026-04-27T09:06:30.707Z</time></trkpt><trkpt lat="39.2940133" lon="16.1370217"><ele>1075.0</ele><time>2026-04-27T09:06:31.703Z</time></trkpt><trkpt lat="39.2939033" lon="16.1369667"><ele>1075.0</ele><time>2026-04-27T09:06:32.745Z</time></trkpt><trkpt lat="39.2938033" lon="16.13692"><ele>1075.0</ele><time>2026-04-27T09:06:33.701Z</time></trkpt><trkpt lat="39.29371" lon="16.1368917"><ele>1074.6</ele><time>2026-04-27T09:06:34.701Z</time></trkpt><trkpt lat="39.29363" lon="16.1368733"><ele>1074.2</ele><time>2026-04-27T09:06:35.703Z</time></trkpt><trkpt lat="39.2935717" lon="16.13692"><ele>1073.8</ele><time>2026-04-27T09:06:36.698Z</time></trkpt><trkpt lat="39.2935" lon="16.136975"><ele>1073.4</ele><time>2026-04-27T09:06:37.702Z</time></trkpt><trkpt lat="39.2934283" lon="16.137065"><ele>1073.0</ele><time>2026-04-27T09:06:38.738Z</time></trkpt><trkpt lat="39.2933417" lon="16.13723"><ele>1073.0</ele><time>2026-04-27T09:06:39.704Z</time></trkpt><trkpt lat="39.29325" lon="16.13737"><ele>1073.0</ele><time>2026-04-27T09:06:40.701Z</time></trkpt><trkpt lat="39.2931617" lon="16.13751"><ele>1073.0</ele><time>2026-04-27T09:06:41.703Z</time></trkpt><trkpt lat="39.2930517" lon="16.137615"><ele>1073.0</ele><time>2026-04-27T09:06:42.699Z</time></trkpt><trkpt lat="39.2929267" lon="16.1377117"><ele>1075.75</ele><time>2026-04-27T09:06:43.698Z</time></trkpt><trkpt lat="39.292815" lon="16.137805"><ele>1078.5</ele><time>2026-04-27T09:06:44.739Z</time></trkpt><trkpt lat="39.2926983" lon="16.1379"><ele>1081.25</ele><time>2026-04-27T09:06:45.702Z</time></trkpt><trkpt lat="39.2925917" lon="16.138005"><ele>1084.0</ele><time>2026-04-27T09:06:46.705Z</time></trkpt><trkpt lat="39.2925" lon="16.13811"><ele>1084.0</ele><time>2026-04-27T09:06:47.698Z</time></trkpt><trkpt lat="39.2924017" lon="16.1382167"><ele>1084.0</ele><time>2026-04-27T09:06:48.702Z</time></trkpt><trkpt lat="39.2923033" lon="16.1383467"><ele>1084.0</ele><time>2026-04-27T09:06:49.699Z</time></trkpt><trkpt lat="39.2922117" lon="16.1384733"><ele>1084.0</ele><time>2026-04-27T09:06:50.737Z</time></trkpt><trkpt lat="39.2921183" lon="16.1385983"><ele>1085.5</ele><time>2026-04-27T09:06:51.703Z</time></trkpt><trkpt lat="39.2919883" lon="16.138665"><ele>1087.0</ele><time>2026-04-27T09:06:52.701Z</time></trkpt><trkpt lat="39.2919033" lon="16.13876"><ele>1088.5</ele><time>2026-04-27T09:06:53.701Z</time></trkpt><trkpt lat="39.2918017" lon="16.1388333"><ele>1090.0</ele><time>2026-04-27T09:06:54.699Z</time></trkpt><trkpt lat="39.2917067" lon="16.1389133"><ele>1090.0</ele><time>2026-04-27T09:06:55.694Z</time></trkpt><trkpt lat="39.2915933" lon="16.1389267"><ele>1090.0</ele><time>2026-04-27T09:06:56.765Z</time></trkpt><trkpt lat="39.29147" lon="16.13898"><ele>1090.0</ele><time>2026-04-27T09:06:57.696Z</time></trkpt><trkpt lat="39.291335" lon="16.13901"><ele>1090.0</ele><time>2026-04-27T09:06:58.702Z</time></trkpt><trkpt lat="39.2912017" lon="16.13905"><ele>1093.5</ele><time>2026-04-27T09:06:59.697Z</time></trkpt><trkpt lat="39.2910683" lon="16.139085"><ele>1097.0</ele><time>2026-04-27T09:07:00.703Z</time></trkpt><trkpt lat="39.2909383" lon="16.13912"><ele>1100.5</ele><time>2026-04-27T09:07:01.702Z</time></trkpt><trkpt lat="39.2908183" lon="16.13916"><ele>1104.0</ele><time>2026-04-27T09:07:02.771Z</time></trkpt><trkpt lat="39.2906983" lon="16.1392467"><ele>1104.75</ele><time>2026-04-27T09:07:03.7Z</time></trkpt><trkpt lat="39.29057" lon="16.1393133"><ele>1105.5</ele><time>2026-04-27T09:07:04.701Z</time></trkpt><trkpt lat="39.2904583" lon="16.139415"><ele>1106.25</ele><time>2026-04-27T09:07:05.7Z</time></trkpt><trkpt lat="39.2903583" lon="16.139525"><ele>1107.0</ele><time>2026-04-27T09:07:06.713Z</time></trkpt><trkpt lat="39.2902667" lon="16.1396533"><ele>1107.0</ele><time>2026-04-27T09:07:07.703Z</time></trkpt><trkpt lat="39.2901633" lon="16.139765"><ele>1107.0</ele><time>2026-04-27T09:07:08.737Z</time></trkpt><trkpt lat="39.290045" lon="16.1398617"><ele>1107.0</ele><time>2026-04-27T09:07:09.705Z</time></trkpt><trkpt lat="39.2899217" lon="16.1399533"><ele>1107.0</ele><time>2026-04-27T09:07:10.698Z</time></trkpt><trkpt lat="39.2898083" lon="16.1400333"><ele>1109.0</ele><time>2026-04-27T09:07:11.704Z</time></trkpt><trkpt lat="39.2896917" lon="16.1400967"><ele>1111.0</ele><time>2026-04-27T09:07:12.705Z</time></trkpt><trkpt lat="39.2895717" lon="16.1401283"><ele>1113.0</ele><time>2026-04-27T09:07:13.698Z</time></trkpt><trkpt lat="39.28944" lon="16.14014"><ele>1115.0</ele><time>2026-04-27T09:07:14.734Z</time></trkpt><trkpt lat="39.289295" lon="16.14014"><ele>1115.0</ele><time>2026-04-27T09:07:15.701Z</time></trkpt><trkpt lat="39.2891567" lon="16.14016"><ele>1115.0</ele><time>2026-04-27T09:07:16.7Z</time></trkpt><trkpt lat="39.2890333" lon="16.1401967"><ele>1115.0</ele><time>2026-04-27T09:07:17.701Z</time></trkpt><trkpt lat="39.2889217" lon="16.1402433"><ele>1115.0</ele><time>2026-04-27T09:07:18.701Z</time></trkpt><trkpt lat="39.288815" lon="16.1402933"><ele>1116.2</ele><time>2026-04-27T09:07:19.698Z</time></trkpt><trkpt lat="39.2887167" lon="16.1403367"><ele>1117.4</ele><time>2026-04-27T09:07:20.735Z</time></trkpt><trkpt lat="39.28862" lon="16.1403667"><ele>1118.6</ele><time>2026-04-27T09:07:21.697Z</time></trkpt><trkpt lat="39.2885" lon="16.1403633"><ele>1119.8</ele><time>2026-04-27T09:07:22.702Z</time></trkpt><trkpt lat="39.2884067" lon="16.1403667"><ele>1121.0</ele><time>2026-04-27T09:07:23.701Z</time></trkpt><trkpt lat="39.288315" lon="16.1403683"><ele>1121.0</ele><time>2026-04-27T09:07:24.709Z</time></trkpt><trkpt lat="39.288225" lon="16.14037"><ele>1121.0</ele><time>2026-04-27T09:07:25.7Z</time></trkpt><trkpt lat="39.2881367" lon="16.1403817"><ele>1121.0</ele><time>2026-04-27T09:07:26.762Z</time></trkpt><trkpt lat="39.288055" lon="16.140405"><ele>1121.0</ele><time>2026-04-27T09:07:27.696Z</time></trkpt><trkpt lat="39.287975" lon="16.1404467"><ele>1121.0</ele><time>2026-04-27T09:07:28.709Z</time></trkpt><trkpt lat="39.2878867" lon="16.1405117"><ele>1121.6</ele><time>2026-04-27T09:07:29.695Z</time></trkpt><trkpt lat="39.2878233" lon="16.1405817"><ele>1122.1999999999998</ele><time>2026-04-27T09:07:30.699Z</time></trkpt><trkpt lat="39.28775" lon="16.140625"><ele>1122.8000000000002</ele><time>2026-04-27T09:07:31.7Z</time></trkpt><trkpt lat="39.2876733" lon="16.1406567"><ele>1123.4</ele><time>2026-04-27T09:07:32.751Z</time></trkpt><trkpt lat="39.2875667" lon="16.1406183"><ele>1124.0</ele><time>2026-04-27T09:07:33.698Z</time></trkpt><trkpt lat="39.28745" lon="16.1405617"><ele>1124.0</ele><time>2026-04-27T09:07:34.701Z</time></trkpt><trkpt lat="39.2873117" lon="16.1405"><ele>1124.0</ele><time>2026-04-27T09:07:35.701Z</time></trkpt><trkpt lat="39.28715" lon="16.1404317"><ele>1124.0</ele><time>2026-04-27T09:07:36.694Z</time></trkpt><trkpt lat="39.28699" lon="16.1403683"><ele>1123.0</ele><time>2026-04-27T09:07:37.699Z</time></trkpt><trkpt lat="39.286835" lon="16.1403217"><ele>1122.0</ele><time>2026-04-27T09:07:38.736Z</time></trkpt><trkpt lat="39.2866867" lon="16.1402883"><ele>1121.0</ele><time>2026-04-27T09:07:39.701Z</time></trkpt><trkpt lat="39.28654" lon="16.14026"><ele>1120.25</ele><time>2026-04-27T09:07:40.699Z</time></trkpt><trkpt lat="39.28641" lon="16.1402267"><ele>1119.5</ele><time>2026-04-27T09:07:41.693Z</time></trkpt><trkpt lat="39.2862867" lon="16.1401917"><ele>1118.75</ele><time>2026-04-27T09:07:42.695Z</time></trkpt><trkpt lat="39.2861633" lon="16.1401617"><ele>1118.0</ele><time>2026-04-27T09:07:43.698Z</time></trkpt><trkpt lat="39.2860167" lon="16.14015"><ele>1118.0</ele><time>2026-04-27T09:07:44.738Z</time></trkpt><trkpt lat="39.2858567" lon="16.1401483"><ele>1118.0</ele><time>2026-04-27T09:07:45.7Z</time></trkpt><trkpt lat="39.2856817" lon="16.1401467"><ele>1118.0</ele><time>2026-04-27T09:07:46.702Z</time></trkpt><trkpt lat="39.2855033" lon="16.1401317"><ele>1117.6666666666667</ele><time>2026-04-27T09:07:47.709Z</time></trkpt><trkpt lat="39.2853267" lon="16.1401267"><ele>1117.3333333333333</ele><time>2026-04-27T09:07:48.707Z</time></trkpt><trkpt lat="39.2851667" lon="16.1401233"><ele>1117.0</ele><time>2026-04-27T09:07:49.694Z</time></trkpt><trkpt lat="39.2850217" lon="16.1401333"><ele>1117.0</ele><time>2026-04-27T09:07:50.734Z</time></trkpt><trkpt lat="39.2848733" lon="16.1401417"><ele>1117.0</ele><time>2026-04-27T09:07:51.698Z</time></trkpt><trkpt lat="39.2847267" lon="16.1401483"><ele>1117.0</ele><time>2026-04-27T09:07:52.706Z</time></trkpt><trkpt lat="39.2845933" lon="16.1401417"><ele>1117.0</ele><time>2026-04-27T09:07:53.703Z</time></trkpt><trkpt lat="39.2844733" lon="16.1401183"><ele>1117.0</ele><time>2026-04-27T09:07:54.701Z</time></trkpt><trkpt lat="39.2843633" lon="16.1400683"><ele>1117.0</ele><time>2026-04-27T09:07:55.695Z</time></trkpt><trkpt lat="39.2842483" lon="16.1399883"><ele>1117.0</ele><time>2026-04-27T09:07:56.745Z</time></trkpt><trkpt lat="39.2841283" lon="16.13989"><ele>1117.0</ele><time>2026-04-27T09:07:57.696Z</time></trkpt><trkpt lat="39.284" lon="16.1397867"><ele>1117.3333333333333</ele><time>2026-04-27T09:07:58.699Z</time></trkpt><trkpt lat="39.2838533" lon="16.1396817"><ele>1117.6666666666667</ele><time>2026-04-27T09:07:59.702Z</time></trkpt><trkpt lat="39.283705" lon="16.139575"><ele>1118.0</ele><time>2026-04-27T09:08:00.702Z</time></trkpt><trkpt lat="39.2835667" lon="16.1394733"><ele>1118.0</ele><time>2026-04-27T09:08:01.699Z</time></trkpt><trkpt lat="39.28344" lon="16.1393783"><ele>1118.0</ele><time>2026-04-27T09:08:02.752Z</time></trkpt><trkpt lat="39.2833217" lon="16.1392733"><ele>1118.0</ele><time>2026-04-27T09:08:03.697Z</time></trkpt><trkpt lat="39.2832033" lon="16.13915"><ele>1118.0</ele><time>2026-04-27T09:08:04.706Z</time></trkpt><trkpt lat="39.2830933" lon="16.1390233"><ele>1118.5</ele><time>2026-04-27T09:08:05.697Z</time></trkpt><trkpt lat="39.28299" lon="16.1388933"><ele>1119.0</ele><time>2026-04-27T09:08:06.705Z</time></trkpt><trkpt lat="39.2828967" lon="16.1387633"><ele>1119.5</ele><time>2026-04-27T09:08:07.699Z</time></trkpt><trkpt lat="39.2828033" lon="16.1386367"><ele>1120.0</ele><time>2026-04-27T09:08:08.74Z</time></trkpt><trkpt lat="39.2827033" lon="16.1385167"><ele>1120.0</ele><time>2026-04-27T09:08:09.701Z</time></trkpt><trkpt lat="39.282595" lon="16.1383983"><ele>1120.0</ele><time>2026-04-27T09:08:10.699Z</time></trkpt><trkpt lat="39.282475" lon="16.13829"><ele>1120.0</ele><time>2026-04-27T09:08:11.697Z</time></trkpt><trkpt lat="39.2823583" lon="16.138185"><ele>1120.0</ele><time>2026-04-27T09:08:12.704Z</time></trkpt><trkpt lat="39.2822483" lon="16.1380817"><ele>1117.75</ele><time>2026-04-27T09:08:13.698Z</time></trkpt><trkpt lat="39.28214" lon="16.13799"><ele>1115.5</ele><time>2026-04-27T09:08:14.737Z</time></trkpt><trkpt lat="39.2820367" lon="16.1379017"><ele>1113.25</ele><time>2026-04-27T09:08:15.698Z</time></trkpt><trkpt lat="39.2819333" lon="16.1378367"><ele>1111.0</ele><time>2026-04-27T09:08:16.7Z</time></trkpt><trkpt lat="39.28183" lon="16.137795"><ele>1111.0</ele><time>2026-04-27T09:08:17.7Z</time></trkpt><trkpt lat="39.281745" lon="16.1377717"><ele>1111.0</ele><time>2026-04-27T09:08:18.7Z</time></trkpt><trkpt lat="39.2816433" lon="16.1377733"><ele>1111.0</ele><time>2026-04-27T09:08:19.697Z</time></trkpt><trkpt lat="39.2815133" lon="16.137785"><ele>1111.0</ele><time>2026-04-27T09:08:20.733Z</time></trkpt><trkpt lat="39.281375" lon="16.13781"><ele>1109.75</ele><time>2026-04-27T09:08:21.698Z</time></trkpt><trkpt lat="39.2812417" lon="16.13783"><ele>1108.5</ele><time>2026-04-27T09:08:22.702Z</time></trkpt><trkpt lat="39.2811033" lon="16.137825"><ele>1107.25</ele><time>2026-04-27T09:08:23.701Z</time></trkpt><trkpt lat="39.28097" lon="16.1378067"><ele>1106.0</ele><time>2026-04-27T09:08:24.707Z</time></trkpt><trkpt lat="39.28083" lon="16.137795"><ele>1106.0</ele><time>2026-04-27T09:08:25.704Z</time></trkpt><trkpt lat="39.280705" lon="16.13778"><ele>1106.0</ele><time>2026-04-27T09:08:26.756Z</time></trkpt><trkpt lat="39.2805883" lon="16.1377467"><ele>1106.0</ele><time>2026-04-27T09:08:27.701Z</time></trkpt><trkpt lat="39.2804733" lon="16.1376983"><ele>1106.0</ele><time>2026-04-27T09:08:28.695Z</time></trkpt><trkpt lat="39.280365" lon="16.1376"><ele>1106.0</ele><time>2026-04-27T09:08:29.7Z</time></trkpt><trkpt lat="39.2802583" lon="16.137475"><ele>1106.0</ele><time>2026-04-27T09:08:30.701Z</time></trkpt><trkpt lat="39.2801567" lon="16.1373367"><ele>1106.0</ele><time>2026-04-27T09:08:31.7Z</time></trkpt><trkpt lat="39.2800667" lon="16.1371983"><ele>1106.0</ele><time>2026-04-27T09:08:32.747Z</time></trkpt><trkpt lat="39.2799767" lon="16.1370783"><ele>1106.0</ele><time>2026-04-27T09:08:33.694Z</time></trkpt><trkpt lat="39.27989" lon="16.136975"><ele>1106.0</ele><time>2026-04-27T09:08:34.701Z</time></trkpt><trkpt lat="39.2798083" lon="16.1368967"><ele>1106.0</ele><time>2026-04-27T09:08:35.701Z</time></trkpt><trkpt lat="39.27972" lon="16.1368433"><ele>1106.0</ele><time>2026-04-27T09:08:36.707Z</time></trkpt><trkpt lat="39.279625" lon="16.13682"><ele>1106.0</ele><time>2026-04-27T09:08:37.704Z</time></trkpt><trkpt lat="39.2795283" lon="16.13684"><ele>1107.8</ele><time>2026-04-27T09:08:38.736Z</time></trkpt><trkpt lat="39.27943" lon="16.1368833"><ele>1109.6</ele><time>2026-04-27T09:08:39.698Z</time></trkpt><trkpt lat="39.279335" lon="16.1369417"><ele>1111.4</ele><time>2026-04-27T09:08:40.704Z</time></trkpt><trkpt lat="39.2792283" lon="16.1369783"><ele>1113.2</ele><time>2026-04-27T09:08:41.702Z</time></trkpt><trkpt lat="39.2791167" lon="16.1370183"><ele>1115.0</ele><time>2026-04-27T09:08:42.698Z</time></trkpt><trkpt lat="39.279" lon="16.1370483"><ele>1116.25</ele><time>2026-04-27T09:08:43.701Z</time></trkpt><trkpt lat="39.2788717" lon="16.1370617"><ele>1117.5</ele><time>2026-04-27T09:08:44.742Z</time></trkpt><trkpt lat="39.278735" lon="16.1370667"><ele>1118.75</ele><time>2026-04-27T09:08:45.701Z</time></trkpt><trkpt lat="39.278595" lon="16.137045"><ele>1120.0</ele><time>2026-04-27T09:08:46.699Z</time></trkpt><trkpt lat="39.2784433" lon="16.137005"><ele>1120.0</ele><time>2026-04-27T09:08:47.7Z</time></trkpt><trkpt lat="39.2782917" lon="16.13694"><ele>1120.0</ele><time>2026-04-27T09:08:48.7Z</time></trkpt><trkpt lat="39.27813" lon="16.1368867"><ele>1120.0</ele><time>2026-04-27T09:08:49.698Z</time></trkpt><trkpt lat="39.277985" lon="16.1368267"><ele>1117.75</ele><time>2026-04-27T09:08:50.735Z</time></trkpt><trkpt lat="39.277855" lon="16.1367583"><ele>1115.5</ele><time>2026-04-27T09:08:51.698Z</time></trkpt><trkpt lat="39.2777417" lon="16.1366867"><ele>1113.25</ele><time>2026-04-27T09:08:52.705Z</time></trkpt><trkpt lat="39.2776317" lon="16.13664"><ele>1111.0</ele><time>2026-04-27T09:08:53.703Z</time></trkpt><trkpt lat="39.2775117" lon="16.1365833"><ele>1111.25</ele><time>2026-04-27T09:08:54.703Z</time></trkpt><trkpt lat="39.2773883" lon="16.1365017"><ele>1111.5</ele><time>2026-04-27T09:08:55.697Z</time></trkpt><trkpt lat="39.277265" lon="16.1364033"><ele>1111.75</ele><time>2026-04-27T09:08:56.745Z</time></trkpt><trkpt lat="39.2771517" lon="16.1363217"><ele>1112.0</ele><time>2026-04-27T09:08:57.696Z</time></trkpt><trkpt lat="39.277045" lon="16.13626"><ele>1112.0</ele><time>2026-04-27T09:08:58.699Z</time></trkpt><trkpt lat="39.2769333" lon="16.13623"><ele>1112.0</ele><time>2026-04-27T09:08:59.698Z</time></trkpt><trkpt lat="39.2768033" lon="16.1362367"><ele>1112.0</ele><time>2026-04-27T09:09:00.701Z</time></trkpt><trkpt lat="39.2766667" lon="16.1362617"><ele>1112.0</ele><time>2026-04-27T09:09:01.696Z</time></trkpt><trkpt lat="39.2765333" lon="16.136295"><ele>1111.5</ele><time>2026-04-27T09:09:02.743Z</time></trkpt><trkpt lat="39.2764083" lon="16.1363217"><ele>1111.0</ele><time>2026-04-27T09:09:03.698Z</time></trkpt><trkpt lat="39.2762883" lon="16.1363333"><ele>1110.5</ele><time>2026-04-27T09:09:04.696Z</time></trkpt><trkpt lat="39.2761783" lon="16.1363383"><ele>1110.0</ele><time>2026-04-27T09:09:05.698Z</time></trkpt><trkpt lat="39.2760817" lon="16.1363367"><ele>1110.0</ele><time>2026-04-27T09:09:06.701Z</time></trkpt><trkpt lat="39.2759883" lon="16.13632"><ele>1110.0</ele><time>2026-04-27T09:09:07.7Z</time></trkpt><trkpt lat="39.2759033" lon="16.1362867"><ele>1110.0</ele><time>2026-04-27T09:09:08.732Z</time></trkpt><trkpt lat="39.2758267" lon="16.1362367"><ele>1110.0</ele><time>2026-04-27T09:09:09.7Z</time></trkpt><trkpt lat="39.2757433" lon="16.136185"><ele>1110.0</ele><time>2026-04-27T09:09:10.702Z</time></trkpt><trkpt lat="39.27565" lon="16.1361317"><ele>1112.0</ele><time>2026-04-27T09:09:11.703Z</time></trkpt><trkpt lat="39.275545" lon="16.1360767"><ele>1114.0</ele><time>2026-04-27T09:09:12.705Z</time></trkpt><trkpt lat="39.2754383" lon="16.136025"><ele>1116.0</ele><time>2026-04-27T09:09:13.704Z</time></trkpt><trkpt lat="39.27533" lon="16.1359833"><ele>1118.0</ele><time>2026-04-27T09:09:14.737Z</time></trkpt><trkpt lat="39.2752283" lon="16.1359683"><ele>1120.0</ele><time>2026-04-27T09:09:15.698Z</time></trkpt><trkpt lat="39.275125" lon="16.1359717"><ele>1120.0</ele><time>2026-04-27T09:09:16.701Z</time></trkpt><trkpt lat="39.275015" lon="16.1359867"><ele>1120.0</ele><time>2026-04-27T09:09:17.701Z</time></trkpt><trkpt lat="39.2749017" lon="16.1360167"><ele>1120.0</ele><time>2026-04-27T09:09:18.701Z</time></trkpt><trkpt lat="39.2747867" lon="16.1360433"><ele>1120.0</ele><time>2026-04-27T09:09:19.699Z</time></trkpt><trkpt lat="39.2746733" lon="16.1360567"><ele>1121.2</ele><time>2026-04-27T09:09:20.738Z</time></trkpt><trkpt lat="39.27457" lon="16.1360683"><ele>1122.4</ele><time>2026-04-27T09:09:21.699Z</time></trkpt><trkpt lat="39.274465" lon="16.13608"><ele>1123.6</ele><time>2026-04-27T09:09:22.704Z</time></trkpt><trkpt lat="39.2743867" lon="16.1361067"><ele>1124.8</ele><time>2026-04-27T09:09:23.7Z</time></trkpt><trkpt lat="39.27431" lon="16.1361217"><ele>1126.0</ele><time>2026-04-27T09:09:24.696Z</time></trkpt><trkpt lat="39.274235" lon="16.13618"><ele>1126.0</ele><time>2026-04-27T09:09:26.752Z</time></trkpt><trkpt lat="39.274185" lon="16.1363783"><ele>1126.0</ele><time>2026-04-27T09:09:28.697Z</time></trkpt><trkpt lat="39.2741567" lon="16.1364683"><ele>1126.0</ele><time>2026-04-27T09:09:29.697Z</time></trkpt><trkpt lat="39.27412" lon="16.1365367"><ele>1126.0</ele><time>2026-04-27T09:09:30.7Z</time></trkpt><trkpt lat="39.2740583" lon="16.13658"><ele>1126.0</ele><time>2026-04-27T09:09:31.698Z</time></trkpt><trkpt lat="39.2739767" lon="16.13661"><ele>1130.8</ele><time>2026-04-27T09:09:32.75Z</time></trkpt><trkpt lat="39.2738767" lon="16.1366317"><ele>1135.6</ele><time>2026-04-27T09:09:33.704Z</time></trkpt><trkpt lat="39.2737617" lon="16.136635"><ele>1140.4</ele><time>2026-04-27T09:09:34.702Z</time></trkpt><trkpt lat="39.2736483" lon="16.136635"><ele>1145.2</ele><time>2026-04-27T09:09:35.696Z</time></trkpt><trkpt lat="39.2735517" lon="16.136615"><ele>1150.0</ele><time>2026-04-27T09:09:36.701Z</time></trkpt><trkpt lat="39.2734633" lon="16.1365867"><ele>1150.0</ele><time>2026-04-27T09:09:37.7Z</time></trkpt><trkpt lat="39.2733683" lon="16.1365733"><ele>1150.0</ele><time>2026-04-27T09:09:38.734Z</time></trkpt><trkpt lat="39.2732667" lon="16.13656"><ele>1150.0</ele><time>2026-04-27T09:09:39.697Z</time></trkpt><trkpt lat="39.2731583" lon="16.136535"><ele>1150.0</ele><time>2026-04-27T09:09:40.7Z</time></trkpt><trkpt lat="39.2730533" lon="16.136505"><ele>1150.0</ele><time>2026-04-27T09:09:41.701Z</time></trkpt><trkpt lat="39.2729567" lon="16.1364833"><ele>1147.0</ele><time>2026-04-27T09:09:42.702Z</time></trkpt><trkpt lat="39.2728683" lon="16.1364517"><ele>1144.0</ele><time>2026-04-27T09:09:43.696Z</time></trkpt><trkpt lat="39.2727767" lon="16.1364583"><ele>1141.0</ele><time>2026-04-27T09:09:44.734Z</time></trkpt><trkpt lat="39.2726817" lon="16.1364683"><ele>1138.0</ele><time>2026-04-27T09:09:45.697Z</time></trkpt><trkpt lat="39.2725917" lon="16.1364867"><ele>1135.0</ele><time>2026-04-27T09:09:46.698Z</time></trkpt><trkpt lat="39.2725083" lon="16.1365117"><ele>1135.0</ele><time>2026-04-27T09:09:47.699Z</time></trkpt><trkpt lat="39.2724333" lon="16.1365383"><ele>1135.0</ele><time>2026-04-27T09:09:48.702Z</time></trkpt><trkpt lat="39.2723633" lon="16.1365483"><ele>1135.0</ele><time>2026-04-27T09:09:49.702Z</time></trkpt><trkpt lat="39.2722967" lon="16.136535"><ele>1135.0</ele><time>2026-04-27T09:09:50.734Z</time></trkpt><trkpt lat="39.2722333" lon="16.1365317"><ele>1135.0</ele><time>2026-04-27T09:09:51.696Z</time></trkpt><trkpt lat="39.27217" lon="16.1365383"><ele>1135.0</ele><time>2026-04-27T09:09:52.699Z</time></trkpt><trkpt lat="39.27209" lon="16.13651"><ele>1135.0</ele><time>2026-04-27T09:09:54.698Z</time></trkpt><trkpt lat="39.272" lon="16.1366267"><ele>1138.0</ele><time>2026-04-27T09:09:56.769Z</time></trkpt><trkpt lat="39.2719483" lon="16.1366983"><ele>1141.0</ele><time>2026-04-27T09:09:57.701Z</time></trkpt><trkpt lat="39.2719" lon="16.136785"><ele>1144.0</ele><time>2026-04-27T09:09:58.701Z</time></trkpt><trkpt lat="39.2718533" lon="16.136865"><ele>1147.0</ele><time>2026-04-27T09:09:59.701Z</time></trkpt><trkpt lat="39.2717633" lon="16.1369567"><ele>1150.0</ele><time>2026-04-27T09:10:01.696Z</time></trkpt><trkpt lat="39.2717" lon="16.1369783"><ele>1153.0</ele><time>2026-04-27T09:10:02.748Z</time></trkpt><trkpt lat="39.27162" lon="16.1369633"><ele>1153.0</ele><time>2026-04-27T09:10:03.701Z</time></trkpt><trkpt lat="39.2715317" lon="16.1369383"><ele>1153.0</ele><time>2026-04-27T09:10:04.701Z</time></trkpt><trkpt lat="39.2714483" lon="16.1369033"><ele>1153.0</ele><time>2026-04-27T09:10:05.704Z</time></trkpt><trkpt lat="39.2713833" lon="16.1369017"><ele>1153.0</ele><time>2026-04-27T09:10:06.703Z</time></trkpt><trkpt lat="39.2713183" lon="16.13689"><ele>1153.0</ele><time>2026-04-27T09:10:07.694Z</time></trkpt><trkpt lat="39.2712283" lon="16.136905"><ele>1153.0</ele><time>2026-04-27T09:10:09.701Z</time></trkpt><trkpt lat="39.2712983" lon="16.1369883"><ele>1153.0</ele><time>2026-04-27T09:10:11.698Z</time></trkpt><trkpt lat="39.2713783" lon="16.1370733"><ele>1153.0</ele><time>2026-04-27T09:10:12.701Z</time></trkpt><trkpt lat="39.2714617" lon="16.13718"><ele>1153.0</ele><time>2026-04-27T09:10:13.701Z</time></trkpt><trkpt lat="39.2715183" lon="16.1372933"><ele>1153.0</ele><time>2026-04-27T09:10:14.737Z</time></trkpt><trkpt lat="39.2716083" lon="16.1373917"><ele>1153.0</ele><time>2026-04-27T09:10:15.702Z</time></trkpt><trkpt lat="39.2717167" lon="16.137475"><ele>1157.4</ele><time>2026-04-27T09:10:16.705Z</time></trkpt><trkpt lat="39.27183" lon="16.1375533"><ele>1161.8</ele><time>2026-04-27T09:10:17.697Z</time></trkpt><trkpt lat="39.27191" lon="16.1376233"><ele>1166.2</ele><time>2026-04-27T09:10:18.706Z</time></trkpt><trkpt lat="39.2719983" lon="16.1376883"><ele>1170.6</ele><time>2026-04-27T09:10:19.705Z</time></trkpt><trkpt lat="39.2720817" lon="16.13777"><ele>1175.0</ele><time>2026-04-27T09:10:20.736Z</time></trkpt><trkpt lat="39.2721433" lon="16.13786"><ele>1175.0</ele><time>2026-04-27T09:10:21.701Z</time></trkpt><trkpt lat="39.272205" lon="16.13794"><ele>1175.0</ele><time>2026-04-27T09:10:22.701Z</time></trkpt><trkpt lat="39.2722283" lon="16.138045"><ele>1175.0</ele><time>2026-04-27T09:10:23.703Z</time></trkpt><trkpt lat="39.2722817" lon="16.1381583"><ele>1175.0</ele><time>2026-04-27T09:10:24.705Z</time></trkpt><trkpt lat="39.272315" lon="16.138345"><ele>1175.0</ele><time>2026-04-27T09:10:25.701Z</time></trkpt><trkpt lat="39.27236" lon="16.13854"><ele>1176.0</ele><time>2026-04-27T09:10:26.749Z</time></trkpt><trkpt lat="39.2724083" lon="16.1387867"><ele>1177.0</ele><time>2026-04-27T09:10:27.701Z</time></trkpt><trkpt lat="39.27244" lon="16.1390067"><ele>1178.0</ele><time>2026-04-27T09:10:28.701Z</time></trkpt><trkpt lat="39.2724533" lon="16.1392183"><ele>1178.0</ele><time>2026-04-27T09:10:29.703Z</time></trkpt><trkpt lat="39.27247" lon="16.1394133"><ele>1178.0</ele><time>2026-04-27T09:10:30.705Z</time></trkpt><trkpt lat="39.272485" lon="16.1396017"><ele>1178.0</ele><time>2026-04-27T09:10:31.696Z</time></trkpt><trkpt lat="39.2725083" lon="16.1397617"><ele>1178.0</ele><time>2026-04-27T09:10:32.751Z</time></trkpt><trkpt lat="39.2725317" lon="16.1398933"><ele>1177.1666666666667</ele><time>2026-04-27T09:10:33.698Z</time></trkpt><trkpt lat="39.272565" lon="16.14002"><ele>1176.3333333333335</ele><time>2026-04-27T09:10:34.699Z</time></trkpt><trkpt lat="39.2725733" lon="16.1401267"><ele>1175.5</ele><time>2026-04-27T09:10:35.695Z</time></trkpt><trkpt lat="39.2725717" lon="16.1402117"><ele>1174.6666666666667</ele><time>2026-04-27T09:10:36.701Z</time></trkpt><trkpt lat="39.272565" lon="16.1402933"><ele>1173.8333333333333</ele><time>2026-04-27T09:10:37.698Z</time></trkpt><trkpt lat="39.2725583" lon="16.1404383"><ele>1173.0</ele><time>2026-04-27T09:10:39.702Z</time></trkpt><trkpt lat="39.2725183" lon="16.14055"><ele>1173.0</ele><time>2026-04-27T09:10:41.695Z</time></trkpt><trkpt lat="39.2724267" lon="16.140605"><ele>1173.0</ele><time>2026-04-27T09:10:43.7Z</time></trkpt><trkpt lat="39.2723567" lon="16.1407217"><ele>1173.0</ele><time>2026-04-27T09:10:45.698Z</time></trkpt><trkpt lat="39.2723233" lon="16.140805"><ele>1173.0</ele><time>2026-04-27T09:10:46.7Z</time></trkpt><trkpt lat="39.272305" lon="16.140915"><ele>1173.0</ele><time>2026-04-27T09:10:47.707Z</time></trkpt><trkpt lat="39.2722933" lon="16.1410267"><ele>1173.0</ele><time>2026-04-27T09:10:48.693Z</time></trkpt><trkpt lat="39.2722667" lon="16.1411417"><ele>1173.0</ele><time>2026-04-27T09:10:49.7Z</time></trkpt><trkpt lat="39.2722317" lon="16.141255"><ele>1173.0</ele><time>2026-04-27T09:10:50.738Z</time></trkpt><trkpt lat="39.27217" lon="16.1413617"><ele>1173.0</ele><time>2026-04-27T09:10:51.698Z</time></trkpt><trkpt lat="39.272105" lon="16.1414567"><ele>1173.0</ele><time>2026-04-27T09:10:52.696Z</time></trkpt><trkpt lat="39.27204" lon="16.14156"><ele>1172.2</ele><time>2026-04-27T09:10:53.696Z</time></trkpt><trkpt lat="39.2719733" lon="16.1416367"><ele>1171.4</ele><time>2026-04-27T09:10:54.698Z</time></trkpt><trkpt lat="39.271915" lon="16.1416783"><ele>1170.6000000000001</ele><time>2026-04-27T09:10:55.702Z</time></trkpt><trkpt lat="39.2718467" lon="16.141755"><ele>1169.8</ele><time>2026-04-27T09:10:57.698Z</time></trkpt><trkpt lat="39.271835" lon="16.1418883"><ele>1169.0</ele><time>2026-04-27T09:10:59.7Z</time></trkpt><trkpt lat="39.2718833" lon="16.142055"><ele>1169.0</ele><time>2026-04-27T09:11:01.694Z</time></trkpt><trkpt lat="39.27191" lon="16.1421767"><ele>1169.0</ele><time>2026-04-27T09:11:02.747Z</time></trkpt><trkpt lat="39.2719533" lon="16.142335"><ele>1169.0</ele><time>2026-04-27T09:11:03.694Z</time></trkpt><trkpt lat="39.2719967" lon="16.142475"><ele>1169.0</ele><time>2026-04-27T09:11:04.692Z</time></trkpt><trkpt lat="39.272055" lon="16.1426067"><ele>1170.5</ele><time>2026-04-27T09:11:05.708Z</time></trkpt><trkpt lat="39.2721333" lon="16.14274"><ele>1172.0</ele><time>2026-04-27T09:11:06.697Z</time></trkpt><trkpt lat="39.272215" lon="16.142865"><ele>1173.5</ele><time>2026-04-27T09:11:07.697Z</time></trkpt><trkpt lat="39.2723" lon="16.142985"><ele>1175.0</ele><time>2026-04-27T09:11:08.738Z</time></trkpt><trkpt lat="39.27238" lon="16.1430933"><ele>1167.8</ele><time>2026-04-27T09:11:09.699Z</time></trkpt><trkpt lat="39.2724583" lon="16.1431883"><ele>1160.6</ele><time>2026-04-27T09:11:10.703Z</time></trkpt><trkpt lat="39.27252" lon="16.1432833"><ele>1153.4</ele><time>2026-04-27T09:11:11.699Z</time></trkpt><trkpt lat="39.27254" lon="16.14341"><ele>1146.2</ele><time>2026-04-27T09:11:13.697Z</time></trkpt><trkpt lat="39.2724817" lon="16.1435183"><ele>1139.0</ele><time>2026-04-27T09:11:15.693Z</time></trkpt><trkpt lat="39.2723617" lon="16.143585"><ele>1139.0</ele><time>2026-04-27T09:11:17.701Z</time></trkpt><trkpt lat="39.2723" lon="16.1436167"><ele>1139.0</ele><time>2026-04-27T09:11:18.704Z</time></trkpt><trkpt lat="39.2722383" lon="16.1436667"><ele>1139.0</ele><time>2026-04-27T09:11:19.699Z</time></trkpt><trkpt lat="39.2721833" lon="16.1437383"><ele>1139.0</ele><time>2026-04-27T09:11:20.732Z</time></trkpt><trkpt lat="39.2721217" lon="16.1438283"><ele>1139.0</ele><time>2026-04-27T09:11:21.7Z</time></trkpt><trkpt lat="39.2720617" lon="16.14394"><ele>1139.0</ele><time>2026-04-27T09:11:22.697Z</time></trkpt><trkpt lat="39.2720017" lon="16.1441333"><ele>1141.0</ele><time>2026-04-27T09:11:23.701Z</time></trkpt><trkpt lat="39.271945" lon="16.1443217"><ele>1143.0</ele><time>2026-04-27T09:11:24.701Z</time></trkpt><trkpt lat="39.2718683" lon="16.14449"><ele>1145.0</ele><time>2026-04-27T09:11:25.703Z</time></trkpt><trkpt lat="39.2718067" lon="16.1446517"><ele>1147.0</ele><time>2026-04-27T09:11:26.755Z</time></trkpt><trkpt lat="39.2717333" lon="16.144795"><ele>1145.25</ele><time>2026-04-27T09:11:27.696Z</time></trkpt><trkpt lat="39.2716383" lon="16.1449233"><ele>1143.5</ele><time>2026-04-27T09:11:28.703Z</time></trkpt><trkpt lat="39.27155" lon="16.1450467"><ele>1141.75</ele><time>2026-04-27T09:11:29.697Z</time></trkpt><trkpt lat="39.2714717" lon="16.1451683"><ele>1140.0</ele><time>2026-04-27T09:11:30.707Z</time></trkpt><trkpt lat="39.271405" lon="16.14528"><ele>1141.25</ele><time>2026-04-27T09:11:31.7Z</time></trkpt><trkpt lat="39.271335" lon="16.1453933"><ele>1142.5</ele><time>2026-04-27T09:11:32.747Z</time></trkpt><trkpt lat="39.271255" lon="16.145535"><ele>1143.75</ele><time>2026-04-27T09:11:33.696Z</time></trkpt><trkpt lat="39.2711767" lon="16.1456767"><ele>1145.0</ele><time>2026-04-27T09:11:34.705Z</time></trkpt><trkpt lat="39.2711033" lon="16.1458133"><ele>1145.0</ele><time>2026-04-27T09:11:35.704Z</time></trkpt><trkpt lat="39.2710433" lon="16.1459417"><ele>1145.0</ele><time>2026-04-27T09:11:36.704Z</time></trkpt><trkpt lat="39.2709917" lon="16.1460517"><ele>1145.0</ele><time>2026-04-27T09:11:37.695Z</time></trkpt><trkpt lat="39.2709367" lon="16.1461517"><ele>1145.0</ele><time>2026-04-27T09:11:38.736Z</time></trkpt><trkpt lat="39.2708817" lon="16.14625"><ele>1145.0</ele><time>2026-04-27T09:11:39.699Z</time></trkpt><trkpt lat="39.2708183" lon="16.1463333"><ele>1145.0</ele><time>2026-04-27T09:11:40.7Z</time></trkpt><trkpt lat="39.27073" lon="16.1463767"><ele>1145.0</ele><time>2026-04-27T09:11:41.694Z</time></trkpt><trkpt lat="39.2706317" lon="16.1464017"><ele>1145.0</ele><time>2026-04-27T09:11:42.707Z</time></trkpt><trkpt lat="39.2705183" lon="16.1463867"><ele>1145.0</ele><time>2026-04-27T09:11:43.696Z</time></trkpt><trkpt lat="39.2703917" lon="16.146335"><ele>1145.0</ele><time>2026-04-27T09:11:44.733Z</time></trkpt><trkpt lat="39.27027" lon="16.146275"><ele>1146.25</ele><time>2026-04-27T09:11:45.696Z</time></trkpt><trkpt lat="39.2701533" lon="16.14621"><ele>1147.5</ele><time>2026-04-27T09:11:46.696Z</time></trkpt><trkpt lat="39.2700467" lon="16.1461217"><ele>1148.75</ele><time>2026-04-27T09:11:47.695Z</time></trkpt><trkpt lat="39.269955" lon="16.1459967"><ele>1150.0</ele><time>2026-04-27T09:11:48.701Z</time></trkpt><trkpt lat="39.2698667" lon="16.1458967"><ele>1150.0</ele><time>2026-04-27T09:11:49.697Z</time></trkpt><trkpt lat="39.2697917" lon="16.145795"><ele>1150.0</ele><time>2026-04-27T09:11:50.733Z</time></trkpt><trkpt lat="39.2697167" lon="16.1457433"><ele>1150.0</ele><time>2026-04-27T09:11:51.697Z</time></trkpt><trkpt lat="39.269625" lon="16.1457017"><ele>1150.0</ele><time>2026-04-27T09:11:52.698Z</time></trkpt><trkpt lat="39.2695317" lon="16.1456767"><ele>1150.0</ele><time>2026-04-27T09:11:53.7Z</time></trkpt><trkpt lat="39.2694317" lon="16.14567"><ele>1149.8</ele><time>2026-04-27T09:11:54.7Z</time></trkpt><trkpt lat="39.2693333" lon="16.1456933"><ele>1149.6</ele><time>2026-04-27T09:11:55.7Z</time></trkpt><trkpt lat="39.2692533" lon="16.1456817"><ele>1149.4</ele><time>2026-04-27T09:11:56.744Z</time></trkpt><trkpt lat="39.2691717" lon="16.14568"><ele>1149.2</ele><time>2026-04-27T09:11:57.693Z</time></trkpt><trkpt lat="39.2690633" lon="16.1456917"><ele>1149.0</ele><time>2026-04-27T09:11:58.7Z</time></trkpt><trkpt lat="39.26896" lon="16.1457617"><ele>1148.6000000000001</ele><time>2026-04-27T09:11:59.704Z</time></trkpt><trkpt lat="39.2688767" lon="16.1457833"><ele>1148.2</ele><time>2026-04-27T09:12:00.697Z</time></trkpt><trkpt lat="39.2687867" lon="16.1458817"><ele>1147.8000000000002</ele><time>2026-04-27T09:12:01.705Z</time></trkpt><trkpt lat="39.2687" lon="16.14593"><ele>1147.4</ele><time>2026-04-27T09:12:02.745Z</time></trkpt><trkpt lat="39.26862" lon="16.1459717"><ele>1147.0</ele><time>2026-04-27T09:12:03.698Z</time></trkpt><trkpt lat="39.268545" lon="16.1459767"><ele>1147.0</ele><time>2026-04-27T09:12:04.703Z</time></trkpt><trkpt lat="39.268475" lon="16.1459467"><ele>1147.0</ele><time>2026-04-27T09:12:05.698Z</time></trkpt><trkpt lat="39.2684183" lon="16.145875"><ele>1147.0</ele><time>2026-04-27T09:12:06.701Z</time></trkpt><trkpt lat="39.2683617" lon="16.145805"><ele>1147.0</ele><time>2026-04-27T09:12:07.698Z</time></trkpt><trkpt lat="39.2682983" lon="16.1457167"><ele>1147.0</ele><time>2026-04-27T09:12:08.735Z</time></trkpt><trkpt lat="39.2682617" lon="16.145615"><ele>1147.0</ele><time>2026-04-27T09:12:09.696Z</time></trkpt><trkpt lat="39.2682217" lon="16.1455283"><ele>1151.2</ele><time>2026-04-27T09:12:10.701Z</time></trkpt><trkpt lat="39.2681833" lon="16.145455"><ele>1155.4</ele><time>2026-04-27T09:12:11.698Z</time></trkpt><trkpt lat="39.2681067" lon="16.145345"><ele>1159.6</ele><time>2026-04-27T09:12:13.699Z</time></trkpt><trkpt lat="39.2680583" lon="16.1452867"><ele>1163.8</ele><time>2026-04-27T09:12:14.734Z</time></trkpt><trkpt lat="39.2679667" lon="16.1453083"><ele>1168.0</ele><time>2026-04-27T09:12:16.701Z</time></trkpt><trkpt lat="39.2678917" lon="16.1454467"><ele>1168.8</ele><time>2026-04-27T09:12:18.7Z</time></trkpt><trkpt lat="39.2678183" lon="16.1455233"><ele>1169.6</ele><time>2026-04-27T09:12:19.699Z</time></trkpt><trkpt lat="39.2677417" lon="16.1456067"><ele>1170.4</ele><time>2026-04-27T09:12:20.736Z</time></trkpt><trkpt lat="39.26766" lon="16.1456633"><ele>1171.2</ele><time>2026-04-27T09:12:21.698Z</time></trkpt><trkpt lat="39.2675817" lon="16.1457017"><ele>1172.0</ele><time>2026-04-27T09:12:22.702Z</time></trkpt><trkpt lat="39.2674967" lon="16.1457333"><ele>1168.0</ele><time>2026-04-27T09:12:23.695Z</time></trkpt><trkpt lat="39.26741" lon="16.1457583"><ele>1164.0</ele><time>2026-04-27T09:12:24.703Z</time></trkpt><trkpt lat="39.267335" lon="16.1457633"><ele>1160.0</ele><time>2026-04-27T09:12:25.702Z</time></trkpt><trkpt lat="39.2672667" lon="16.1457983"><ele>1156.0</ele><time>2026-04-27T09:12:26.763Z</time></trkpt><trkpt lat="39.26716" lon="16.1458733"><ele>1152.0</ele><time>2026-04-27T09:12:28.696Z</time></trkpt><trkpt lat="39.2671" lon="16.1459167"><ele>1148.0</ele><time>2026-04-27T09:12:29.694Z</time></trkpt><trkpt lat="39.267045" lon="16.14605"><ele>1148.0</ele><time>2026-04-27T09:12:31.694Z</time></trkpt><trkpt lat="39.2670217" lon="16.1461267"><ele>1148.0</ele><time>2026-04-27T09:12:32.744Z</time></trkpt><trkpt lat="39.26703" lon="16.14622"><ele>1148.0</ele><time>2026-04-27T09:12:33.695Z</time></trkpt><trkpt lat="39.2670533" lon="16.1463033"><ele>1148.0</ele><time>2026-04-27T09:12:34.706Z</time></trkpt><trkpt lat="39.26709" lon="16.146425"><ele>1148.0</ele><time>2026-04-27T09:12:36.697Z</time></trkpt><trkpt lat="39.26702" lon="16.1465617"><ele>1148.0</ele><time>2026-04-27T09:12:38.735Z</time></trkpt><trkpt lat="39.26696" lon="16.14666"><ele>1144.0</ele><time>2026-04-27T09:12:39.701Z</time></trkpt><trkpt lat="39.2668867" lon="16.1468067"><ele>1140.0</ele><time>2026-04-27T09:12:40.702Z</time></trkpt><trkpt lat="39.2668217" lon="16.1469467"><ele>1136.0</ele><time>2026-04-27T09:12:41.707Z</time></trkpt><trkpt lat="39.26678" lon="16.147075"><ele>1132.0</ele><time>2026-04-27T09:12:42.704Z</time></trkpt><trkpt lat="39.2667333" lon="16.1471967"><ele>1132.0</ele><time>2026-04-27T09:12:43.702Z</time></trkpt><trkpt lat="39.2666817" lon="16.1472933"><ele>1132.0</ele><time>2026-04-27T09:12:44.735Z</time></trkpt><trkpt lat="39.2666467" lon="16.1474283"><ele>1132.0</ele><time>2026-04-27T09:12:46.703Z</time></trkpt><trkpt lat="39.2666017" lon="16.147515"><ele>1132.0</ele><time>2026-04-27T09:12:48.702Z</time></trkpt><trkpt lat="39.266495" lon="16.1476317"><ele>1132.0</ele><time>2026-04-27T09:12:50.735Z</time></trkpt><trkpt lat="39.2664333" lon="16.1477033"><ele>1134.8333333333333</ele><time>2026-04-27T09:12:51.7Z</time></trkpt><trkpt lat="39.2663867" lon="16.1477867"><ele>1137.6666666666665</ele><time>2026-04-27T09:12:52.706Z</time></trkpt><trkpt lat="39.2663517" lon="16.1478817"><ele>1140.5</ele><time>2026-04-27T09:12:53.698Z</time></trkpt><trkpt lat="39.26632" lon="16.1479783"><ele>1143.3333333333333</ele><time>2026-04-27T09:12:54.702Z</time></trkpt><trkpt lat="39.266285" lon="16.148055"><ele>1146.1666666666667</ele><time>2026-04-27T09:12:55.702Z</time></trkpt><trkpt lat="39.2662167" lon="16.14817"><ele>1149.0</ele><time>2026-04-27T09:12:57.696Z</time></trkpt><trkpt lat="39.266125" lon="16.1482533"><ele>1142.1666666666667</ele><time>2026-04-27T09:12:59.698Z</time></trkpt><trkpt lat="39.26606" lon="16.1482933"><ele>1135.3333333333333</ele><time>2026-04-27T09:13:00.705Z</time></trkpt><trkpt lat="39.26598" lon="16.1483233"><ele>1128.5</ele><time>2026-04-27T09:13:01.699Z</time></trkpt><trkpt lat="39.26591" lon="16.14836"><ele>1121.6666666666665</ele><time>2026-04-27T09:13:02.752Z</time></trkpt><trkpt lat="39.26585" lon="16.148405"><ele>1114.8333333333333</ele><time>2026-04-27T09:13:03.692Z</time></trkpt><trkpt lat="39.2657883" lon="16.14849"><ele>1108.0</ele><time>2026-04-27T09:13:05.695Z</time></trkpt><trkpt lat="39.26575" lon="16.1486183"><ele>1108.0</ele><time>2026-04-27T09:13:07.706Z</time></trkpt><trkpt lat="39.265725" lon="16.1487883"><ele>1108.0</ele><time>2026-04-27T09:13:09.697Z</time></trkpt><trkpt lat="39.265705" lon="16.14889"><ele>1108.0</ele><time>2026-04-27T09:13:10.704Z</time></trkpt><trkpt lat="39.2656933" lon="16.1490033"><ele>1108.0</ele><time>2026-04-27T09:13:11.709Z</time></trkpt><trkpt lat="39.265675" lon="16.14911"><ele>1108.0</ele><time>2026-04-27T09:13:12.707Z</time></trkpt><trkpt lat="39.26564" lon="16.1492033"><ele>1105.8</ele><time>2026-04-27T09:13:13.702Z</time></trkpt><trkpt lat="39.265605" lon="16.1492967"><ele>1103.6</ele><time>2026-04-27T09:13:14.737Z</time></trkpt><trkpt lat="39.2655517" lon="16.1493867"><ele>1101.4</ele><time>2026-04-27T09:13:15.696Z</time></trkpt><trkpt lat="39.2654767" lon="16.149475"><ele>1099.2</ele><time>2026-04-27T09:13:16.698Z</time></trkpt><trkpt lat="39.2653883" lon="16.14954"><ele>1097.0</ele><time>2026-04-27T09:13:17.704Z</time></trkpt><trkpt lat="39.2652867" lon="16.14958"><ele>1097.0</ele><time>2026-04-27T09:13:18.709Z</time></trkpt><trkpt lat="39.2651817" lon="16.1496067"><ele>1097.0</ele><time>2026-04-27T09:13:19.698Z</time></trkpt><trkpt lat="39.2650567" lon="16.1496217"><ele>1097.0</ele><time>2026-04-27T09:13:20.737Z</time></trkpt><trkpt lat="39.2649317" lon="16.1496417"><ele>1097.0</ele><time>2026-04-27T09:13:21.701Z</time></trkpt><trkpt lat="39.2648067" lon="16.1496517"><ele>1098.5</ele><time>2026-04-27T09:13:22.698Z</time></trkpt><trkpt lat="39.2646933" lon="16.1496833"><ele>1100.0</ele><time>2026-04-27T09:13:23.7Z</time></trkpt><trkpt lat="39.2645783" lon="16.1497267"><ele>1101.5</ele><time>2026-04-27T09:13:24.708Z</time></trkpt><trkpt lat="39.2644583" lon="16.1497917"><ele>1103.0</ele><time>2026-04-27T09:13:25.698Z</time></trkpt><trkpt lat="39.2643583" lon="16.14986"><ele>1102.2</ele><time>2026-04-27T09:13:26.733Z</time></trkpt><trkpt lat="39.2642567" lon="16.1498933"><ele>1101.4</ele><time>2026-04-27T09:13:27.697Z</time></trkpt><trkpt lat="39.264155" lon="16.1499317"><ele>1100.6000000000001</ele><time>2026-04-27T09:13:28.701Z</time></trkpt><trkpt lat="39.26405" lon="16.1499567"><ele>1099.8</ele><time>2026-04-27T09:13:29.698Z</time></trkpt><trkpt lat="39.2639517" lon="16.1499717"><ele>1099.0</ele><time>2026-04-27T09:13:30.7Z</time></trkpt><trkpt lat="39.2638533" lon="16.1499917"><ele>1099.0</ele><time>2026-04-27T09:13:31.7Z</time></trkpt><trkpt lat="39.2637667" lon="16.1499767"><ele>1099.0</ele><time>2026-04-27T09:13:32.753Z</time></trkpt><trkpt lat="39.2636833" lon="16.149925"><ele>1099.0</ele><time>2026-04-27T09:13:33.695Z</time></trkpt><trkpt lat="39.2636183" lon="16.149835"><ele>1099.0</ele><time>2026-04-27T09:13:34.703Z</time></trkpt><trkpt lat="39.263565" lon="16.1497683"><ele>1099.0</ele><time>2026-04-27T09:13:35.698Z</time></trkpt><trkpt lat="39.2635" lon="16.14971"><ele>1099.0</ele><time>2026-04-27T09:13:36.703Z</time></trkpt><trkpt lat="39.263425" lon="16.14968"><ele>1099.0</ele><time>2026-04-27T09:13:37.701Z</time></trkpt><trkpt lat="39.2633517" lon="16.1496717"><ele>1099.0</ele><time>2026-04-27T09:13:38.735Z</time></trkpt><trkpt lat="39.2632633" lon="16.1496967"><ele>1099.0</ele><time>2026-04-27T09:13:39.698Z</time></trkpt><trkpt lat="39.2632117" lon="16.149785"><ele>1099.0</ele><time>2026-04-27T09:13:40.701Z</time></trkpt><trkpt lat="39.2631867" lon="16.1498867"><ele>1099.0</ele><time>2026-04-27T09:13:41.701Z</time></trkpt><trkpt lat="39.2631017" lon="16.1499883"><ele>1099.0</ele><time>2026-04-27T09:13:43.699Z</time></trkpt><trkpt lat="39.2629833" lon="16.149995"><ele>1102.8333333333333</ele><time>2026-04-27T09:13:45.695Z</time></trkpt><trkpt lat="39.2628767" lon="16.1499933"><ele>1106.6666666666665</ele><time>2026-04-27T09:13:47.696Z</time></trkpt><trkpt lat="39.2628267" lon="16.1500433"><ele>1110.5</ele><time>2026-04-27T09:13:49.697Z</time></trkpt><trkpt lat="39.2628133" lon="16.1501417"><ele>1114.3333333333333</ele><time>2026-04-27T09:13:52.7Z</time></trkpt><trkpt lat="39.262855" lon="16.15022"><ele>1118.1666666666667</ele><time>2026-04-27T09:13:54.704Z</time></trkpt><trkpt lat="39.26284" lon="16.150325"><ele>1122.0</ele><time>2026-04-27T09:13:57.701Z</time></trkpt><trkpt lat="39.2628167" lon="16.1504317"><ele>1122.0</ele><time>2026-04-27T09:13:59.699Z</time></trkpt><trkpt lat="39.262765" lon="16.15058"><ele>1122.0</ele><time>2026-04-27T09:14:01.701Z</time></trkpt><trkpt lat="39.2626983" lon="16.15076"><ele>1122.0</ele><time>2026-04-27T09:14:02.745Z</time></trkpt><trkpt lat="39.2626483" lon="16.150855"><ele>1122.0</ele><time>2026-04-27T09:14:03.699Z</time></trkpt><trkpt lat="39.2625883" lon="16.1510217"><ele>1122.0</ele><time>2026-04-27T09:14:04.699Z</time></trkpt><trkpt lat="39.2625517" lon="16.1511117"><ele>1122.0</ele><time>2026-04-27T09:14:05.703Z</time></trkpt><trkpt lat="39.262515" lon="16.1511833"><ele>1122.0</ele><time>2026-04-27T09:14:06.694Z</time></trkpt><trkpt lat="39.2624133" lon="16.1512683"><ele>1122.0</ele><time>2026-04-27T09:14:08.738Z</time></trkpt><trkpt lat="39.26235" lon="16.1512967"><ele>1122.0</ele><time>2026-04-27T09:14:09.693Z</time></trkpt><trkpt lat="39.2622383" lon="16.1513783"><ele>1122.0</ele><time>2026-04-27T09:14:11.699Z</time></trkpt><trkpt lat="39.2621717" lon="16.1514233"><ele>1122.0</ele><time>2026-04-27T09:14:12.702Z</time></trkpt><trkpt lat="39.2620983" lon="16.1514867"><ele>1122.0</ele><time>2026-04-27T09:14:13.7Z</time></trkpt><trkpt lat="39.2619917" lon="16.1515917"><ele>1122.0</ele><time>2026-04-27T09:14:14.739Z</time></trkpt><trkpt lat="39.2618883" lon="16.151685"><ele>1122.0</ele><time>2026-04-27T09:14:15.698Z</time></trkpt><trkpt lat="39.2617817" lon="16.1517717"><ele>1120.0</ele><time>2026-04-27T09:14:16.699Z</time></trkpt><trkpt lat="39.2616767" lon="16.1518567"><ele>1118.0</ele><time>2026-04-27T09:14:17.702Z</time></trkpt><trkpt lat="39.2615633" lon="16.1519367"><ele>1116.0</ele><time>2026-04-27T09:14:18.699Z</time></trkpt><trkpt lat="39.2614567" lon="16.152005"><ele>1114.0</ele><time>2026-04-27T09:14:19.697Z</time></trkpt><trkpt lat="39.2613433" lon="16.15207"><ele>1114.0</ele><time>2026-04-27T09:14:20.732Z</time></trkpt><trkpt lat="39.2612233" lon="16.152135"><ele>1114.0</ele><time>2026-04-27T09:14:21.695Z</time></trkpt><trkpt lat="39.2611117" lon="16.1521883"><ele>1114.0</ele><time>2026-04-27T09:14:22.695Z</time></trkpt><trkpt lat="39.260995" lon="16.15223"><ele>1114.0</ele><time>2026-04-27T09:14:23.7Z</time></trkpt><trkpt lat="39.2608783" lon="16.1522517"><ele>1114.0</ele><time>2026-04-27T09:14:24.7Z</time></trkpt><trkpt lat="39.2607783" lon="16.1523017"><ele>1114.0</ele><time>2026-04-27T09:14:25.699Z</time></trkpt><trkpt lat="39.260695" lon="16.1523567"><ele>1114.0</ele><time>2026-04-27T09:14:26.764Z</time></trkpt><trkpt lat="39.2606117" lon="16.15242"><ele>1114.0</ele><time>2026-04-27T09:14:27.707Z</time></trkpt><trkpt lat="39.26053" lon="16.1524783"><ele>1114.0</ele><time>2026-04-27T09:14:28.7Z</time></trkpt><trkpt lat="39.2604333" lon="16.1525383"><ele>1111.5</ele><time>2026-04-27T09:14:29.698Z</time></trkpt><trkpt lat="39.2603183" lon="16.1525867"><ele>1109.0</ele><time>2026-04-27T09:14:30.698Z</time></trkpt><trkpt lat="39.2601933" lon="16.1526317"><ele>1106.5</ele><time>2026-04-27T09:14:31.694Z</time></trkpt><trkpt lat="39.2600767" lon="16.152675"><ele>1104.0</ele><time>2026-04-27T09:14:32.755Z</time></trkpt><trkpt lat="39.259985" lon="16.1526933"><ele>1104.0</ele><time>2026-04-27T09:14:33.7Z</time></trkpt><trkpt lat="39.2598967" lon="16.1526983"><ele>1104.0</ele><time>2026-04-27T09:14:34.695Z</time></trkpt><trkpt lat="39.259815" lon="16.1526883"><ele>1104.0</ele><time>2026-04-27T09:14:35.697Z</time></trkpt><trkpt lat="39.25974" lon="16.152645"><ele>1104.0</ele><time>2026-04-27T09:14:36.698Z</time></trkpt><trkpt lat="39.25967" lon="16.1526233"><ele>1104.0</ele><time>2026-04-27T09:14:37.701Z</time></trkpt><trkpt lat="39.2595983" lon="16.1526033"><ele>1104.0</ele><time>2026-04-27T09:14:38.732Z</time></trkpt><trkpt lat="39.2595167" lon="16.1525933"><ele>1105.1666666666667</ele><time>2026-04-27T09:14:39.696Z</time></trkpt><trkpt lat="39.2594283" lon="16.1525683"><ele>1106.3333333333333</ele><time>2026-04-27T09:14:40.697Z</time></trkpt><trkpt lat="39.2593383" lon="16.1525383"><ele>1107.5</ele><time>2026-04-27T09:14:41.699Z</time></trkpt><trkpt lat="39.2592817" lon="16.1524967"><ele>1108.6666666666665</ele><time>2026-04-27T09:14:42.693Z</time></trkpt><trkpt lat="39.2592233" lon="16.1524533"><ele>1109.8333333333333</ele><time>2026-04-27T09:14:45.695Z</time></trkpt><trkpt lat="39.2591367" lon="16.152435"><ele>1111.0</ele><time>2026-04-27T09:14:49.698Z</time></trkpt><trkpt lat="39.2590283" lon="16.1524333"><ele>1111.6</ele><time>2026-04-27T09:14:51.695Z</time></trkpt><trkpt lat="39.25895" lon="16.152455"><ele>1112.1999999999998</ele><time>2026-04-27T09:14:52.699Z</time></trkpt><trkpt lat="39.2588633" lon="16.152495"><ele>1112.8000000000002</ele><time>2026-04-27T09:14:53.696Z</time></trkpt><trkpt lat="39.2587867" lon="16.1525383"><ele>1113.4</ele><time>2026-04-27T09:14:54.706Z</time></trkpt><trkpt lat="39.2587067" lon="16.1526133"><ele>1114.0</ele><time>2026-04-27T09:14:55.699Z</time></trkpt><trkpt lat="39.2586283" lon="16.1526917"><ele>1114.0</ele><time>2026-04-27T09:14:56.766Z</time></trkpt><trkpt lat="39.2585533" lon="16.15275"><ele>1114.0</ele><time>2026-04-27T09:14:57.7Z</time></trkpt><trkpt lat="39.2584767" lon="16.1528067"><ele>1114.0</ele><time>2026-04-27T09:14:58.7Z</time></trkpt><trkpt lat="39.2583917" lon="16.15284"><ele>1114.0</ele><time>2026-04-27T09:14:59.696Z</time></trkpt><trkpt lat="39.2583017" lon="16.1528467"><ele>1114.0</ele><time>2026-04-27T09:15:00.703Z</time></trkpt><trkpt lat="39.2582033" lon="16.152855"><ele>1111.4</ele><time>2026-04-27T09:15:01.701Z</time></trkpt><trkpt lat="39.2581067" lon="16.15285"><ele>1108.8000000000002</ele><time>2026-04-27T09:15:02.749Z</time></trkpt><trkpt lat="39.2580083" lon="16.152825"><ele>1106.1999999999998</ele><time>2026-04-27T09:15:03.697Z</time></trkpt><trkpt lat="39.257915" lon="16.152805"><ele>1103.6</ele><time>2026-04-27T09:15:04.707Z</time></trkpt><trkpt lat="39.2578283" lon="16.15279"><ele>1101.0</ele><time>2026-04-27T09:15:05.701Z</time></trkpt><trkpt lat="39.2577517" lon="16.15276"><ele>1101.0</ele><time>2026-04-27T09:15:06.7Z</time></trkpt><trkpt lat="39.2576817" lon="16.1527233"><ele>1101.0</ele><time>2026-04-27T09:15:07.699Z</time></trkpt><trkpt lat="39.257615" lon="16.1526683"><ele>1101.0</ele><time>2026-04-27T09:15:08.734Z</time></trkpt><trkpt lat="39.2575533" lon="16.1525917"><ele>1101.0</ele><time>2026-04-27T09:15:09.694Z</time></trkpt><trkpt lat="39.2575033" lon="16.1524983"><ele>1101.0</ele><time>2026-04-27T09:15:10.7Z</time></trkpt><trkpt lat="39.2574367" lon="16.1523733"><ele>1101.0</ele><time>2026-04-27T09:15:11.693Z</time></trkpt><trkpt lat="39.2573717" lon="16.152255"><ele>1100.3333333333333</ele><time>2026-04-27T09:15:12.704Z</time></trkpt><trkpt lat="39.2573017" lon="16.1521567"><ele>1099.6666666666667</ele><time>2026-04-27T09:15:13.698Z</time></trkpt><trkpt lat="39.2572367" lon="16.1520717"><ele>1099.0</ele><time>2026-04-27T09:15:14.731Z</time></trkpt><trkpt lat="39.2571733" lon="16.152"><ele>1098.3333333333335</ele><time>2026-04-27T09:15:15.693Z</time></trkpt><trkpt lat="39.2571167" lon="16.15195"><ele>1097.6666666666667</ele><time>2026-04-27T09:15:16.703Z</time></trkpt><trkpt lat="39.257035" lon="16.1519717"><ele>1097.0</ele><time>2026-04-27T09:15:17.694Z</time></trkpt><trkpt lat="39.256945" lon="16.1519883"><ele>1097.0</ele><time>2026-04-27T09:15:18.702Z</time></trkpt><trkpt lat="39.2568567" lon="16.1520233"><ele>1097.0</ele><time>2026-04-27T09:15:19.697Z</time></trkpt><trkpt lat="39.25677" lon="16.1520633"><ele>1097.0</ele><time>2026-04-27T09:15:20.733Z</time></trkpt><trkpt lat="39.256695" lon="16.1520783"><ele>1097.0</ele><time>2026-04-27T09:15:21.696Z</time></trkpt><trkpt lat="39.25663" lon="16.1520817"><ele>1097.0</ele><time>2026-04-27T09:15:22.707Z</time></trkpt><trkpt lat="39.25653" lon="16.1519867"><ele>1096.6666666666667</ele><time>2026-04-27T09:15:24.701Z</time></trkpt><trkpt lat="39.2564217" lon="16.1519383"><ele>1096.3333333333335</ele><time>2026-04-27T09:15:26.764Z</time></trkpt><trkpt lat="39.256355" lon="16.1519367"><ele>1096.0</ele><time>2026-04-27T09:15:27.693Z</time></trkpt><trkpt lat="39.25628" lon="16.1519867"><ele>1095.6666666666667</ele><time>2026-04-27T09:15:28.701Z</time></trkpt><trkpt lat="39.2562217" lon="16.15207"><ele>1095.3333333333333</ele><time>2026-04-27T09:15:29.696Z</time></trkpt><trkpt lat="39.2561567" lon="16.1521467"><ele>1095.0</ele><time>2026-04-27T09:15:30.702Z</time></trkpt><trkpt lat="39.256085" lon="16.1522017"><ele>1095.0</ele><time>2026-04-27T09:15:31.699Z</time></trkpt><trkpt lat="39.2560017" lon="16.1522383"><ele>1095.0</ele><time>2026-04-27T09:15:32.752Z</time></trkpt><trkpt lat="39.2559083" lon="16.1522717"><ele>1095.0</ele><time>2026-04-27T09:15:33.692Z</time></trkpt><trkpt lat="39.2558233" lon="16.1523133"><ele>1095.0</ele><time>2026-04-27T09:15:34.694Z</time></trkpt><trkpt lat="39.2557467" lon="16.1523717"><ele>1095.0</ele><time>2026-04-27T09:15:35.693Z</time></trkpt><trkpt lat="39.2556717" lon="16.1524433"><ele>1092.1666666666667</ele><time>2026-04-27T09:15:36.701Z</time></trkpt><trkpt lat="39.2556033" lon="16.1524917"><ele>1089.3333333333333</ele><time>2026-04-27T09:15:37.699Z</time></trkpt><trkpt lat="39.25553" lon="16.1525283"><ele>1086.5</ele><time>2026-04-27T09:15:38.737Z</time></trkpt><trkpt lat="39.25545" lon="16.152545"><ele>1083.6666666666665</ele><time>2026-04-27T09:15:39.699Z</time></trkpt><trkpt lat="39.255365" lon="16.15254"><ele>1080.8333333333333</ele><time>2026-04-27T09:15:40.7Z</time></trkpt><trkpt lat="39.2552667" lon="16.1525117"><ele>1078.0</ele><time>2026-04-27T09:15:41.699Z</time></trkpt><trkpt lat="39.25517" lon="16.1524817"><ele>1078.0</ele><time>2026-04-27T09:15:42.699Z</time></trkpt><trkpt lat="39.2550717" lon="16.1524717"><ele>1078.0</ele><time>2026-04-27T09:15:43.697Z</time></trkpt><trkpt lat="39.254995" lon="16.1524767"><ele>1078.0</ele><time>2026-04-27T09:15:44.736Z</time></trkpt><trkpt lat="39.2549383" lon="16.152515"><ele>1078.0</ele><time>2026-04-27T09:15:45.695Z</time></trkpt><trkpt lat="39.2548483" lon="16.1526067"><ele>1078.0</ele><time>2026-04-27T09:15:47.697Z</time></trkpt><trkpt lat="39.254745" lon="16.1526633"><ele>1079.0</ele><time>2026-04-27T09:15:49.696Z</time></trkpt><trkpt lat="39.2546367" lon="16.1526483"><ele>1080.0</ele><time>2026-04-27T09:15:50.735Z</time></trkpt><trkpt lat="39.254515" lon="16.1526483"><ele>1081.0</ele><time>2026-04-27T09:15:51.699Z</time></trkpt><trkpt lat="39.2543833" lon="16.1526517"><ele>1082.0</ele><time>2026-04-27T09:15:52.697Z</time></trkpt><trkpt lat="39.2542483" lon="16.1526583"><ele>1082.0</ele><time>2026-04-27T09:15:53.701Z</time></trkpt><trkpt lat="39.2541017" lon="16.152655"><ele>1082.0</ele><time>2026-04-27T09:15:54.705Z</time></trkpt><trkpt lat="39.253945" lon="16.1526567"><ele>1082.0</ele><time>2026-04-27T09:15:55.704Z</time></trkpt><trkpt lat="39.25378" lon="16.152665"><ele>1084.0</ele><time>2026-04-27T09:15:56.73Z</time></trkpt><trkpt lat="39.2536" lon="16.1526783"><ele>1086.0</ele><time>2026-04-27T09:15:57.693Z</time></trkpt><trkpt lat="39.25342" lon="16.1527"><ele>1088.0</ele><time>2026-04-27T09:15:58.697Z</time></trkpt><trkpt lat="39.2532333" lon="16.152715"><ele>1088.6666666666667</ele><time>2026-04-27T09:15:59.698Z</time></trkpt><trkpt lat="39.2530583" lon="16.1527267"><ele>1089.3333333333333</ele><time>2026-04-27T09:16:00.698Z</time></trkpt><trkpt lat="39.25289" lon="16.15274"><ele>1090.0</ele><time>2026-04-27T09:16:01.698Z</time></trkpt><trkpt lat="39.25273" lon="16.152755"><ele>1090.0</ele><time>2026-04-27T09:16:02.752Z</time></trkpt><trkpt lat="39.2525767" lon="16.1527783"><ele>1090.0</ele><time>2026-04-27T09:16:03.697Z</time></trkpt><trkpt lat="39.2524217" lon="16.1528117"><ele>1090.0</ele><time>2026-04-27T09:16:04.702Z</time></trkpt><trkpt lat="39.2522633" lon="16.152855"><ele>1092.6666666666665</ele><time>2026-04-27T09:16:05.699Z</time></trkpt><trkpt lat="39.2521033" lon="16.152905"><ele>1095.3333333333333</ele><time>2026-04-27T09:16:06.709Z</time></trkpt><trkpt lat="39.251955" lon="16.1529767"><ele>1098.0</ele><time>2026-04-27T09:16:07.696Z</time></trkpt><trkpt lat="39.2517883" lon="16.15303"><ele>1098.0</ele><time>2026-04-27T09:16:08.734Z</time></trkpt><trkpt lat="39.25161" lon="16.1530833"><ele>1098.0</ele><time>2026-04-27T09:16:09.693Z</time></trkpt><trkpt lat="39.2514233" lon="16.15314"><ele>1098.0</ele><time>2026-04-27T09:16:10.701Z</time></trkpt><trkpt lat="39.2512317" lon="16.1531917"><ele>1090.3333333333333</ele><time>2026-04-27T09:16:11.698Z</time></trkpt><trkpt lat="39.2510383" lon="16.153245"><ele>1082.6666666666665</ele><time>2026-04-27T09:16:12.7Z</time></trkpt><trkpt lat="39.2508533" lon="16.1533133"><ele>1075.0</ele><time>2026-04-27T09:16:13.695Z</time></trkpt><trkpt lat="39.2506733" lon="16.1533683"><ele>1076.0</ele><time>2026-04-27T09:16:14.731Z</time></trkpt><trkpt lat="39.2504983" lon="16.153425"><ele>1077.0</ele><time>2026-04-27T09:16:15.692Z</time></trkpt><trkpt lat="39.2503283" lon="16.153475"><ele>1078.0</ele><time>2026-04-27T09:16:16.697Z</time></trkpt><trkpt lat="39.2501667" lon="16.1535183"><ele>1078.0</ele><time>2026-04-27T09:16:17.696Z</time></trkpt><trkpt lat="39.250005" lon="16.1535533"><ele>1078.0</ele><time>2026-04-27T09:16:18.699Z</time></trkpt><trkpt lat="39.2498417" lon="16.153575"><ele>1078.0</ele><time>2026-04-27T09:16:19.698Z</time></trkpt><trkpt lat="39.2496767" lon="16.1535733"><ele>1075.6666666666665</ele><time>2026-04-27T09:16:20.732Z</time></trkpt><trkpt lat="39.2495133" lon="16.1535583"><ele>1073.3333333333333</ele><time>2026-04-27T09:16:21.695Z</time></trkpt><trkpt lat="39.2493533" lon="16.153525"><ele>1071.0</ele><time>2026-04-27T09:16:22.702Z</time></trkpt><trkpt lat="39.2491967" lon="16.1534617"><ele>1071.0</ele><time>2026-04-27T09:16:23.695Z</time></trkpt><trkpt lat="39.2490417" lon="16.15338"><ele>1071.0</ele><time>2026-04-27T09:16:24.696Z</time></trkpt><trkpt lat="39.2488917" lon="16.15329"><ele>1071.0</ele><time>2026-04-27T09:16:25.699Z</time></trkpt><trkpt lat="39.2487367" lon="16.15322"><ele>1066.0</ele><time>2026-04-27T09:16:26.76Z</time></trkpt><trkpt lat="39.2485833" lon="16.1531767"><ele>1061.0</ele><time>2026-04-27T09:16:27.697Z</time></trkpt><trkpt lat="39.2484417" lon="16.1531583"><ele>1056.0</ele><time>2026-04-27T09:16:28.7Z</time></trkpt><trkpt lat="39.2483067" lon="16.1531583"><ele>1051.0</ele><time>2026-04-27T09:16:29.702Z</time></trkpt><trkpt lat="39.24818" lon="16.153195"><ele>1046.3333333333333</ele><time>2026-04-27T09:16:30.7Z</time></trkpt><trkpt lat="39.2480483" lon="16.1532917"><ele>1041.6666666666667</ele><time>2026-04-27T09:16:31.701Z</time></trkpt><trkpt lat="39.2479233" lon="16.15341"><ele>1037.0</ele><time>2026-04-27T09:16:32.75Z</time></trkpt><trkpt lat="39.2478017" lon="16.15355"><ele>1037.0</ele><time>2026-04-27T09:16:33.696Z</time></trkpt><trkpt lat="39.2477033" lon="16.1537067"><ele>1037.0</ele><time>2026-04-27T09:16:34.702Z</time></trkpt><trkpt lat="39.247615" lon="16.153875"><ele>1037.0</ele><time>2026-04-27T09:16:35.697Z</time></trkpt><trkpt lat="39.2475" lon="16.1540433"><ele>1034.6666666666667</ele><time>2026-04-27T09:16:36.694Z</time></trkpt><trkpt lat="39.2473783" lon="16.154215"><ele>1032.3333333333333</ele><time>2026-04-27T09:16:37.701Z</time></trkpt><trkpt lat="39.2472583" lon="16.1543833"><ele>1030.0</ele><time>2026-04-27T09:16:38.732Z</time></trkpt><trkpt lat="39.2471417" lon="16.15453"><ele>1030.0</ele><time>2026-04-27T09:16:39.701Z</time></trkpt><trkpt lat="39.2470333" lon="16.1546233"><ele>1030.0</ele><time>2026-04-27T09:16:40.698Z</time></trkpt><trkpt lat="39.2469167" lon="16.154695"><ele>1030.0</ele><time>2026-04-27T09:16:41.703Z</time></trkpt><trkpt lat="39.2468017" lon="16.1547717"><ele>1030.0</ele><time>2026-04-27T09:16:42.699Z</time></trkpt><trkpt lat="39.246685" lon="16.15485"><ele>1032.25</ele><time>2026-04-27T09:16:43.697Z</time></trkpt><trkpt lat="39.2465683" lon="16.15495"><ele>1034.5</ele><time>2026-04-27T09:16:44.737Z</time></trkpt><trkpt lat="39.2464483" lon="16.155035"><ele>1036.75</ele><time>2026-04-27T09:16:45.699Z</time></trkpt><trkpt lat="39.246345" lon="16.1551217"><ele>1039.0</ele><time>2026-04-27T09:16:46.699Z</time></trkpt><trkpt lat="39.24624" lon="16.155185"><ele>1039.0</ele><time>2026-04-27T09:16:47.703Z</time></trkpt><trkpt lat="39.2461333" lon="16.1552033"><ele>1039.0</ele><time>2026-04-27T09:16:48.7Z</time></trkpt><trkpt lat="39.2460183" lon="16.155185"><ele>1039.0</ele><time>2026-04-27T09:16:49.697Z</time></trkpt><trkpt lat="39.2458833" lon="16.1551567"><ele>1039.0</ele><time>2026-04-27T09:16:50.734Z</time></trkpt><trkpt lat="39.2457467" lon="16.1551333"><ele>1038.5</ele><time>2026-04-27T09:16:51.7Z</time></trkpt><trkpt lat="39.245625" lon="16.1551167"><ele>1038.0</ele><time>2026-04-27T09:16:52.698Z</time></trkpt><trkpt lat="39.2455217" lon="16.15511"><ele>1037.5</ele><time>2026-04-27T09:16:53.695Z</time></trkpt><trkpt lat="39.2454433" lon="16.1551367"><ele>1037.0</ele><time>2026-04-27T09:16:54.701Z</time></trkpt><trkpt lat="39.2453783" lon="16.1551317"><ele>1036.5</ele><time>2026-04-27T09:16:56.767Z</time></trkpt><trkpt lat="39.2453117" lon="16.1551"><ele>1036.0</ele><time>2026-04-27T09:17:05.701Z</time></trkpt><trkpt lat="39.2452" lon="16.15509"><ele>1036.0</ele><time>2026-04-27T09:17:07.696Z</time></trkpt><trkpt lat="39.24509" lon="16.155135"><ele>1036.0</ele><time>2026-04-27T09:17:09.695Z</time></trkpt><trkpt lat="39.2450367" lon="16.155195"><ele>1036.0</ele><time>2026-04-27T09:17:10.701Z</time></trkpt><trkpt lat="39.2449867" lon="16.1552917"><ele>1036.0</ele><time>2026-04-27T09:17:11.693Z</time></trkpt><trkpt lat="39.244925" lon="16.1554"><ele>1036.0</ele><time>2026-04-27T09:17:12.697Z</time></trkpt><trkpt lat="39.2448583" lon="16.1555117"><ele>1038.0</ele><time>2026-04-27T09:17:13.697Z</time></trkpt><trkpt lat="39.2447767" lon="16.15566"><ele>1040.0</ele><time>2026-04-27T09:17:14.737Z</time></trkpt><trkpt lat="39.2447067" lon="16.1557567"><ele>1042.0</ele><time>2026-04-27T09:17:15.696Z</time></trkpt><trkpt lat="39.2446417" lon="16.1558417"><ele>1044.0</ele><time>2026-04-27T09:17:16.69Z</time></trkpt><trkpt lat="39.2445617" lon="16.15592"><ele>1046.0</ele><time>2026-04-27T09:17:17.7Z</time></trkpt><trkpt lat="39.2444983" lon="16.1559667"><ele>1046.0</ele><time>2026-04-27T09:17:18.7Z</time></trkpt><trkpt lat="39.2444417" lon="16.15603"><ele>1046.0</ele><time>2026-04-27T09:17:19.695Z</time></trkpt><trkpt lat="39.2443833" lon="16.1560667"><ele>1046.0</ele><time>2026-04-27T09:17:20.733Z</time></trkpt><trkpt lat="39.2443067" lon="16.1561183"><ele>1046.0</ele><time>2026-04-27T09:17:22.701Z</time></trkpt><trkpt lat="39.2441783" lon="16.15624"><ele>1046.0</ele><time>2026-04-27T09:17:35.701Z</time></trkpt><trkpt lat="39.24412" lon="16.156315"><ele>1046.0</ele><time>2026-04-27T09:17:36.699Z</time></trkpt><trkpt lat="39.2440383" lon="16.1564117"><ele>1046.0</ele><time>2026-04-27T09:17:37.704Z</time></trkpt><trkpt lat="39.2439467" lon="16.1565117"><ele>1046.0</ele><time>2026-04-27T09:17:38.733Z</time></trkpt><trkpt lat="39.24385" lon="16.156595"><ele>1046.0</ele><time>2026-04-27T09:17:39.697Z</time></trkpt><trkpt lat="39.24376" lon="16.15667"><ele>1045.6</ele><time>2026-04-27T09:17:40.697Z</time></trkpt><trkpt lat="39.2436667" lon="16.1567167"><ele>1045.1999999999998</ele><time>2026-04-27T09:17:41.698Z</time></trkpt><trkpt lat="39.2435783" lon="16.1567767"><ele>1044.8000000000002</ele><time>2026-04-27T09:17:42.696Z</time></trkpt><trkpt lat="39.2434983" lon="16.1567817"><ele>1044.4</ele><time>2026-04-27T09:17:43.701Z</time></trkpt><trkpt lat="39.2434133" lon="16.1568"><ele>1044.0</ele><time>2026-04-27T09:17:44.731Z</time></trkpt><trkpt lat="39.2433267" lon="16.1568183"><ele>1044.0</ele><time>2026-04-27T09:17:45.697Z</time></trkpt><trkpt lat="39.2432317" lon="16.1568267"><ele>1044.0</ele><time>2026-04-27T09:17:46.7Z</time></trkpt><trkpt lat="39.2431383" lon="16.1568367"><ele>1044.0</ele><time>2026-04-27T09:17:47.699Z</time></trkpt><trkpt lat="39.243035" lon="16.15682"><ele>1044.0</ele><time>2026-04-27T09:17:48.694Z</time></trkpt><trkpt lat="39.2429067" lon="16.1567933"><ele>1044.0</ele><time>2026-04-27T09:17:49.692Z</time></trkpt><trkpt lat="39.242775" lon="16.156775"><ele>1044.75</ele><time>2026-04-27T09:17:50.733Z</time></trkpt><trkpt lat="39.2426533" lon="16.156755"><ele>1045.5</ele><time>2026-04-27T09:17:51.697Z</time></trkpt><trkpt lat="39.242545" lon="16.1567233"><ele>1046.25</ele><time>2026-04-27T09:17:52.699Z</time></trkpt><trkpt lat="39.242435" lon="16.1566867"><ele>1047.0</ele><time>2026-04-27T09:17:53.692Z</time></trkpt><trkpt lat="39.2423383" lon="16.1566433"><ele>1051.8</ele><time>2026-04-27T09:17:54.696Z</time></trkpt><trkpt lat="39.2422467" lon="16.1566217"><ele>1056.6</ele><time>2026-04-27T09:17:55.699Z</time></trkpt><trkpt lat="39.2421767" lon="16.1566183"><ele>1061.3999999999999</ele><time>2026-04-27T09:17:56.765Z</time></trkpt><trkpt lat="39.24211" lon="16.1566367"><ele>1066.2</ele><time>2026-04-27T09:17:58.697Z</time></trkpt><trkpt lat="39.2422217" lon="16.1567333"><ele>1071.0</ele><time>2026-04-27T09:18:00.696Z</time></trkpt><trkpt lat="39.24217" lon="16.1568417"><ele>1071.0</ele><time>2026-04-27T09:18:02.741Z</time></trkpt><trkpt lat="39.2421267" lon="16.157055"><ele>1071.0</ele><time>2026-04-27T09:18:03.705Z</time></trkpt><trkpt lat="39.2420467" lon="16.1572233"><ele>1071.0</ele><time>2026-04-27T09:18:04.694Z</time></trkpt><trkpt lat="39.2420033" lon="16.15738"><ele>1071.0</ele><time>2026-04-27T09:18:05.696Z</time></trkpt><trkpt lat="39.241905" lon="16.1574617"><ele>1071.0</ele><time>2026-04-27T09:18:07.697Z</time></trkpt><trkpt lat="39.2418317" lon="16.157435"><ele>1071.0</ele><time>2026-04-27T09:18:08.736Z</time></trkpt><trkpt lat="39.2417583" lon="16.1574117"><ele>1071.0</ele><time>2026-04-27T09:18:09.703Z</time></trkpt><trkpt lat="39.241655" lon="16.1573667"><ele>1071.0</ele><time>2026-04-27T09:18:10.7Z</time></trkpt><trkpt lat="39.2415333" lon="16.1573"><ele>1075.75</ele><time>2026-04-27T09:18:11.697Z</time></trkpt><trkpt lat="39.241395" lon="16.157245"><ele>1080.5</ele><time>2026-04-27T09:18:12.704Z</time></trkpt><trkpt lat="39.241265" lon="16.157215"><ele>1085.25</ele><time>2026-04-27T09:18:13.7Z</time></trkpt><trkpt lat="39.2411417" lon="16.1572017"><ele>1090.0</ele><time>2026-04-27T09:18:14.738Z</time></trkpt><trkpt lat="39.2410317" lon="16.15719"><ele>1090.0</ele><time>2026-04-27T09:18:15.693Z</time></trkpt><trkpt lat="39.2409217" lon="16.157175"><ele>1090.0</ele><time>2026-04-27T09:18:16.695Z</time></trkpt><trkpt lat="39.2408333" lon="16.157165"><ele>1090.0</ele><time>2026-04-27T09:18:17.7Z</time></trkpt><trkpt lat="39.2407583" lon="16.1571583"><ele>1090.0</ele><time>2026-04-27T09:18:18.703Z</time></trkpt><trkpt lat="39.240695" lon="16.1571567"><ele>1090.0</ele><time>2026-04-27T09:18:19.693Z</time></trkpt><trkpt lat="39.2406333" lon="16.1571383"><ele>1090.0</ele><time>2026-04-27T09:18:20.735Z</time></trkpt><trkpt lat="39.24056" lon="16.1570867"><ele>1087.1666666666665</ele><time>2026-04-27T09:18:21.697Z</time></trkpt><trkpt lat="39.240485" lon="16.1570517"><ele>1084.3333333333333</ele><time>2026-04-27T09:18:22.696Z</time></trkpt><trkpt lat="39.2404067" lon="16.1570233"><ele>1081.5</ele><time>2026-04-27T09:18:23.698Z</time></trkpt><trkpt lat="39.2403333" lon="16.1570083"><ele>1078.6666666666667</ele><time>2026-04-27T09:18:24.7Z</time></trkpt><trkpt lat="39.24023" lon="16.156975"><ele>1075.8333333333335</ele><time>2026-04-27T09:18:25.696Z</time></trkpt><trkpt lat="39.2401367" lon="16.1569483"><ele>1073.0</ele><time>2026-04-27T09:18:26.763Z</time></trkpt><trkpt lat="39.2400517" lon="16.1569183"><ele>1073.0</ele><time>2026-04-27T09:18:27.696Z</time></trkpt><trkpt lat="39.2399817" lon="16.1568783"><ele>1073.0</ele><time>2026-04-27T09:18:28.704Z</time></trkpt><trkpt lat="39.2399317" lon="16.15677"><ele>1073.0</ele><time>2026-04-27T09:18:30.705Z</time></trkpt><trkpt lat="39.2399" lon="16.1566483"><ele>1073.0</ele><time>2026-04-27T09:18:32.75Z</time></trkpt><trkpt lat="39.2398967" lon="16.1565567"><ele>1073.0</ele><time>2026-04-27T09:18:34.698Z</time></trkpt><trkpt lat="39.2398033" lon="16.1565217"><ele>1073.0</ele><time>2026-04-27T09:18:38.735Z</time></trkpt><trkpt lat="39.239685" lon="16.156475"><ele>1077.0</ele><time>2026-04-27T09:18:40.699Z</time></trkpt><trkpt lat="39.23961" lon="16.1563967"><ele>1081.0</ele><time>2026-04-27T09:18:41.694Z</time></trkpt><trkpt lat="39.239535" lon="16.1563383"><ele>1085.0</ele><time>2026-04-27T09:18:42.703Z</time></trkpt><trkpt lat="39.23947" lon="16.156285"><ele>1089.0</ele><time>2026-04-27T09:18:43.7Z</time></trkpt><trkpt lat="39.2394117" lon="16.15625"><ele>1093.0</ele><time>2026-04-27T09:18:44.73Z</time></trkpt><trkpt lat="39.239295" lon="16.1561867"><ele>1093.0</ele><time>2026-04-27T09:18:46.699Z</time></trkpt><trkpt lat="39.23918" lon="16.1561333"><ele>1093.0</ele><time>2026-04-27T09:18:48.689Z</time></trkpt><trkpt lat="39.2391167" lon="16.1561183"><ele>1093.0</ele><time>2026-04-27T09:18:49.696Z</time></trkpt><trkpt lat="39.239045" lon="16.15611"><ele>1093.0</ele><time>2026-04-27T09:18:50.741Z</time></trkpt><trkpt lat="39.2389717" lon="16.1561133"><ele>1093.0</ele><time>2026-04-27T09:18:51.693Z</time></trkpt><trkpt lat="39.238895" lon="16.1561133"><ele>1093.0</ele><time>2026-04-27T09:18:52.704Z</time></trkpt><trkpt lat="39.2388267" lon="16.156095"><ele>1093.7142857142858</ele><time>2026-04-27T09:18:53.694Z</time></trkpt><trkpt lat="39.238765" lon="16.1560733"><ele>1094.4285714285713</ele><time>2026-04-27T09:18:54.695Z</time></trkpt><trkpt lat="39.2387" lon="16.1560633"><ele>1095.142857142857</ele><time>2026-04-27T09:18:55.7Z</time></trkpt><trkpt lat="39.2386367" lon="16.15605"><ele>1095.857142857143</ele><time>2026-04-27T09:18:56.766Z</time></trkpt><trkpt lat="39.2385583" lon="16.1560383"><ele>1096.5714285714287</ele><time>2026-04-27T09:18:57.699Z</time></trkpt><trkpt lat="39.238475" lon="16.15606"><ele>1097.2857142857142</ele><time>2026-04-27T09:18:59.702Z</time></trkpt><trkpt lat="39.2383933" lon="16.156085"><ele>1098.0</ele><time>2026-04-27T09:19:01.698Z</time></trkpt><trkpt lat="39.2383233" lon="16.156105"><ele>1098.0</ele><time>2026-04-27T09:19:03.695Z</time></trkpt><trkpt lat="39.238255" lon="16.1560667"><ele>1098.0</ele><time>2026-04-27T09:19:07.697Z</time></trkpt><trkpt lat="39.2381683" lon="16.1560183"><ele>1098.0</ele><time>2026-04-27T09:19:13.7Z</time></trkpt><trkpt lat="39.2380917" lon="16.156005"><ele>1098.0</ele><time>2026-04-27T09:19:16.698Z</time></trkpt><trkpt lat="39.238025" lon="16.155985"><ele>1098.0</ele><time>2026-04-27T09:19:19.703Z</time></trkpt><trkpt lat="39.2378683" lon="16.155885"><ele>1100.2</ele><time>2026-04-27T09:19:43.699Z</time></trkpt><trkpt lat="39.2378083" lon="16.1558167"><ele>1102.4</ele><time>2026-04-27T09:19:46.694Z</time></trkpt><trkpt lat="39.23775" lon="16.1557633"><ele>1104.6000000000001</ele><time>2026-04-27T09:19:48.698Z</time></trkpt><trkpt lat="39.2376583" lon="16.1557"><ele>1106.8</ele><time>2026-04-27T09:19:50.733Z</time></trkpt><trkpt lat="39.2375517" lon="16.15566"><ele>1109.0</ele><time>2026-04-27T09:19:52.701Z</time></trkpt><trkpt lat="39.2374317" lon="16.15564"><ele>1109.8333333333335</ele><time>2026-04-27T09:19:54.696Z</time></trkpt><trkpt lat="39.2373083" lon="16.1556283"><ele>1110.6666666666667</ele><time>2026-04-27T09:19:56.762Z</time></trkpt><trkpt lat="39.2372383" lon="16.1556217"><ele>1111.5</ele><time>2026-04-27T09:19:57.695Z</time></trkpt><trkpt lat="39.2371683" lon="16.15561"><ele>1112.3333333333333</ele><time>2026-04-27T09:19:58.701Z</time></trkpt><trkpt lat="39.2370917" lon="16.1556083"><ele>1113.1666666666665</ele><time>2026-04-27T09:19:59.698Z</time></trkpt><trkpt lat="39.2370283" lon="16.1556017"><ele>1114.0</ele><time>2026-04-27T09:20:00.7Z</time></trkpt><trkpt lat="39.2369117" lon="16.1555733"><ele>1114.0</ele><time>2026-04-27T09:20:02.75Z</time></trkpt><trkpt lat="39.2368333" lon="16.155535"><ele>1114.0</ele><time>2026-04-27T09:20:04.702Z</time></trkpt><trkpt lat="39.2367867" lon="16.155595"><ele>1114.0</ele><time>2026-04-27T09:20:08.734Z</time></trkpt><trkpt lat="39.2368733" lon="16.1555717"><ele>1114.0</ele><time>2026-04-27T09:20:12.706Z</time></trkpt><trkpt lat="39.2369283" lon="16.1554233"><ele>1114.0</ele><time>2026-04-27T09:20:14.743Z</time></trkpt><trkpt lat="39.2369583" lon="16.1553283"><ele>1114.0</ele><time>2026-04-27T09:20:15.696Z</time></trkpt><trkpt lat="39.236985" lon="16.1552417"><ele>1114.0</ele><time>2026-04-27T09:20:16.702Z</time></trkpt><trkpt lat="39.2370017" lon="16.155155"><ele>1114.0</ele><time>2026-04-27T09:20:17.703Z</time></trkpt><trkpt lat="39.236995" lon="16.1549917"><ele>1114.0</ele><time>2026-04-27T09:20:19.695Z</time></trkpt><trkpt lat="39.2369517" lon="16.1549117"><ele>1114.0</ele><time>2026-04-27T09:20:20.726Z</time></trkpt><trkpt lat="39.2369" lon="16.1548183"><ele>1114.0</ele><time>2026-04-27T09:20:21.692Z</time></trkpt><trkpt lat="39.23685" lon="16.15471"><ele>1116.8</ele><time>2026-04-27T09:20:22.698Z</time></trkpt><trkpt lat="39.236785" lon="16.1546083"><ele>1119.6000000000001</ele><time>2026-04-27T09:20:23.704Z</time></trkpt><trkpt lat="39.2367317" lon="16.1544933"><ele>1122.4</ele><time>2026-04-27T09:20:24.705Z</time></trkpt><trkpt lat="39.2366767" lon="16.1543917"><ele>1125.2</ele><time>2026-04-27T09:20:25.7Z</time></trkpt><trkpt lat="39.2366267" lon="16.1543033"><ele>1128.0</ele><time>2026-04-27T09:20:26.745Z</time></trkpt><trkpt lat="39.2365617" lon="16.1542333"><ele>1128.0</ele><time>2026-04-27T09:20:27.695Z</time></trkpt><trkpt lat="39.2365033" lon="16.1541667"><ele>1128.0</ele><time>2026-04-27T09:20:28.697Z</time></trkpt><trkpt lat="39.2364617" lon="16.1541"><ele>1128.0</ele><time>2026-04-27T09:20:29.706Z</time></trkpt><trkpt lat="39.2364267" lon="16.1539483"><ele>1128.0</ele><time>2026-04-27T09:20:31.702Z</time></trkpt><trkpt lat="39.2364117" lon="16.1538383"><ele>1128.0</ele><time>2026-04-27T09:20:32.743Z</time></trkpt><trkpt lat="39.2363967" lon="16.153715"><ele>1122.8</ele><time>2026-04-27T09:20:33.694Z</time></trkpt><trkpt lat="39.2363783" lon="16.1536117"><ele>1117.6</ele><time>2026-04-27T09:20:34.699Z</time></trkpt><trkpt lat="39.23637" lon="16.153485"><ele>1112.4</ele><time>2026-04-27T09:20:35.7Z</time></trkpt><trkpt lat="39.2363567" lon="16.1533567"><ele>1107.2</ele><time>2026-04-27T09:20:36.701Z</time></trkpt><trkpt lat="39.2363517" lon="16.1532233"><ele>1102.0</ele><time>2026-04-27T09:20:37.694Z</time></trkpt><trkpt lat="39.2363533" lon="16.153095"><ele>1101.6</ele><time>2026-04-27T09:20:38.736Z</time></trkpt><trkpt lat="39.2363583" lon="16.15297"><ele>1101.2</ele><time>2026-04-27T09:20:39.699Z</time></trkpt><trkpt lat="39.2363667" lon="16.1528433"><ele>1100.8</ele><time>2026-04-27T09:20:40.702Z</time></trkpt><trkpt lat="39.236385" lon="16.152725"><ele>1100.4</ele><time>2026-04-27T09:20:41.698Z</time></trkpt><trkpt lat="39.236405" lon="16.1526117"><ele>1100.0</ele><time>2026-04-27T09:20:42.697Z</time></trkpt><trkpt lat="39.23642" lon="16.152505"><ele>1100.0</ele><time>2026-04-27T09:20:43.694Z</time></trkpt><trkpt lat="39.236425" lon="16.1523967"><ele>1100.0</ele><time>2026-04-27T09:20:44.733Z</time></trkpt><trkpt lat="39.23646" lon="16.1523133"><ele>1100.0</ele><time>2026-04-27T09:20:45.697Z</time></trkpt><trkpt lat="39.23652" lon="16.1522067"><ele>1100.0</ele><time>2026-04-27T09:20:47.694Z</time></trkpt><trkpt lat="39.2365733" lon="16.15212"><ele>1100.0</ele><time>2026-04-27T09:20:49.7Z</time></trkpt><trkpt lat="39.2365733" lon="16.1520017"><ele>1100.0</ele><time>2026-04-27T09:20:51.698Z</time></trkpt><trkpt lat="39.2365683" lon="16.151865"><ele>1100.7142857142858</ele><time>2026-04-27T09:20:53.696Z</time></trkpt><trkpt lat="39.2365483" lon="16.1517867"><ele>1101.4285714285713</ele><time>2026-04-27T09:20:54.698Z</time></trkpt><trkpt lat="39.23651" lon="16.15172"><ele>1102.142857142857</ele><time>2026-04-27T09:20:55.694Z</time></trkpt><trkpt lat="39.2364733" lon="16.151645"><ele>1102.857142857143</ele><time>2026-04-27T09:20:56.747Z</time></trkpt><trkpt lat="39.2364417" lon="16.1515633"><ele>1103.5714285714287</ele><time>2026-04-27T09:20:57.692Z</time></trkpt><trkpt lat="39.2364133" lon="16.15149"><ele>1104.2857142857142</ele><time>2026-04-27T09:20:58.691Z</time></trkpt><trkpt lat="39.2363617" lon="16.1513683"><ele>1105.0</ele><time>2026-04-27T09:21:00.701Z</time></trkpt><trkpt lat="39.2362917" lon="16.15126"><ele>1107.5</ele><time>2026-04-27T09:21:02.752Z</time></trkpt><trkpt lat="39.2362517" lon="16.1511867"><ele>1110.0</ele><time>2026-04-27T09:21:03.698Z</time></trkpt><trkpt lat="39.2362283" lon="16.15107"><ele>1112.5</ele><time>2026-04-27T09:21:05.695Z</time></trkpt><trkpt lat="39.2361717" lon="16.1510217"><ele>1115.0</ele><time>2026-04-27T09:21:09.695Z</time></trkpt><trkpt lat="39.2362517" lon="16.15099"><ele>1117.5</ele><time>2026-04-27T09:21:14.733Z</time></trkpt><trkpt lat="39.236385" lon="16.150975"><ele>1120.0</ele><time>2026-04-27T09:21:16.701Z</time></trkpt><trkpt lat="39.2364583" lon="16.1509267"><ele>1120.0</ele><time>2026-04-27T09:21:18.703Z</time></trkpt><trkpt lat="39.2364433" lon="16.1507267"><ele>1120.0</ele><time>2026-04-27T09:21:20.737Z</time></trkpt><trkpt lat="39.2364083" lon="16.1505733"><ele>1120.0</ele><time>2026-04-27T09:21:21.7Z</time></trkpt><trkpt lat="39.2363283" lon="16.1504533"><ele>1120.0</ele><time>2026-04-27T09:21:22.697Z</time></trkpt><trkpt lat="39.2362967" lon="16.15037"><ele>1121.0</ele><time>2026-04-27T09:21:23.698Z</time></trkpt><trkpt lat="39.2362367" lon="16.1502667"><ele>1122.0</ele><time>2026-04-27T09:21:24.701Z</time></trkpt><trkpt lat="39.2361983" lon="16.150185"><ele>1123.0</ele><time>2026-04-27T09:21:25.701Z</time></trkpt><trkpt lat="39.2361533" lon="16.1500917"><ele>1124.0</ele><time>2026-04-27T09:21:26.747Z</time></trkpt><trkpt lat="39.2361083" lon="16.1500217"><ele>1125.0</ele><time>2026-04-27T09:21:27.7Z</time></trkpt><trkpt lat="39.2360517" lon="16.149955"><ele>1126.0</ele><time>2026-04-27T09:21:28.702Z</time></trkpt><trkpt lat="39.235925" lon="16.14994"><ele>1126.0</ele><time>2026-04-27T09:21:30.698Z</time></trkpt><trkpt lat="39.2358417" lon="16.1499433"><ele>1126.0</ele><time>2026-04-27T09:21:31.706Z</time></trkpt><trkpt lat="39.2357517" lon="16.149935"><ele>1126.0</ele><time>2026-04-27T09:21:32.747Z</time></trkpt><trkpt lat="39.235645" lon="16.1499183"><ele>1126.0</ele><time>2026-04-27T09:21:33.7Z</time></trkpt><trkpt lat="39.23552" lon="16.1499067"><ele>1126.0</ele><time>2026-04-27T09:21:34.698Z</time></trkpt><trkpt lat="39.235365" lon="16.1499067"><ele>1129.0</ele><time>2026-04-27T09:21:35.693Z</time></trkpt><trkpt lat="39.2352" lon="16.1499267"><ele>1132.0</ele><time>2026-04-27T09:21:36.702Z</time></trkpt><trkpt lat="39.2350383" lon="16.1499733"><ele>1135.0</ele><time>2026-04-27T09:21:37.699Z</time></trkpt><trkpt lat="39.2348817" lon="16.15001"><ele>1137.6666666666665</ele><time>2026-04-27T09:21:38.738Z</time></trkpt><trkpt lat="39.234725" lon="16.1500367"><ele>1140.3333333333333</ele><time>2026-04-27T09:21:39.698Z</time></trkpt><trkpt lat="39.2345733" lon="16.1500283"><ele>1143.0</ele><time>2026-04-27T09:21:40.703Z</time></trkpt><trkpt lat="39.2344083" lon="16.1500067"><ele>1143.0</ele><time>2026-04-27T09:21:41.699Z</time></trkpt><trkpt lat="39.2342367" lon="16.1499933"><ele>1143.0</ele><time>2026-04-27T09:21:42.694Z</time></trkpt><trkpt lat="39.2340683" lon="16.1500067"><ele>1143.0</ele><time>2026-04-27T09:21:43.693Z</time></trkpt><trkpt lat="39.233905" lon="16.1500333"><ele>1147.0</ele><time>2026-04-27T09:21:44.732Z</time></trkpt><trkpt lat="39.2337567" lon="16.15006"><ele>1151.0</ele><time>2026-04-27T09:21:45.7Z</time></trkpt><trkpt lat="39.2336367" lon="16.150085"><ele>1155.0</ele><time>2026-04-27T09:21:46.698Z</time></trkpt><trkpt lat="39.23352" lon="16.1500967"><ele>1159.0</ele><time>2026-04-27T09:21:47.698Z</time></trkpt><trkpt lat="39.2334283" lon="16.1500883"><ele>1159.0</ele><time>2026-04-27T09:21:48.706Z</time></trkpt><trkpt lat="39.233325" lon="16.1500417"><ele>1159.0</ele><time>2026-04-27T09:21:49.7Z</time></trkpt><trkpt lat="39.233235" lon="16.14993"><ele>1159.0</ele><time>2026-04-27T09:21:50.737Z</time></trkpt><trkpt lat="39.2331067" lon="16.1498533"><ele>1159.0</ele><time>2026-04-27T09:21:51.696Z</time></trkpt><trkpt lat="39.2329667" lon="16.1497767"><ele>1158.25</ele><time>2026-04-27T09:21:52.703Z</time></trkpt><trkpt lat="39.2328317" lon="16.1497017"><ele>1157.5</ele><time>2026-04-27T09:21:53.697Z</time></trkpt><trkpt lat="39.2327" lon="16.14964"><ele>1156.75</ele><time>2026-04-27T09:21:54.702Z</time></trkpt><trkpt lat="39.23256" lon="16.1495983"><ele>1156.0</ele><time>2026-04-27T09:21:55.698Z</time></trkpt><trkpt lat="39.2324183" lon="16.149575"><ele>1156.5</ele><time>2026-04-27T09:21:56.747Z</time></trkpt><trkpt lat="39.23228" lon="16.149555"><ele>1157.0</ele><time>2026-04-27T09:21:57.701Z</time></trkpt><trkpt lat="39.23214" lon="16.1495517"><ele>1157.5</ele><time>2026-04-27T09:21:58.693Z</time></trkpt><trkpt lat="39.232005" lon="16.149545"><ele>1158.0</ele><time>2026-04-27T09:21:59.698Z</time></trkpt><trkpt lat="39.23188" lon="16.1495383"><ele>1158.0</ele><time>2026-04-27T09:22:00.699Z</time></trkpt><trkpt lat="39.2317733" lon="16.1495367"><ele>1158.0</ele><time>2026-04-27T09:22:01.697Z</time></trkpt><trkpt lat="39.2316767" lon="16.1495517"><ele>1158.0</ele><time>2026-04-27T09:22:02.751Z</time></trkpt><trkpt lat="39.23159" lon="16.1496067"><ele>1158.0</ele><time>2026-04-27T09:22:03.696Z</time></trkpt><trkpt lat="39.2314983" lon="16.1496933"><ele>1158.0</ele><time>2026-04-27T09:22:04.7Z</time></trkpt><trkpt lat="39.2313917" lon="16.1497567"><ele>1158.0</ele><time>2026-04-27T09:22:05.701Z</time></trkpt><trkpt lat="39.2312783" lon="16.1497983"><ele>1158.0</ele><time>2026-04-27T09:22:06.699Z</time></trkpt><trkpt lat="39.2311667" lon="16.1498233"><ele>1158.0</ele><time>2026-04-27T09:22:07.701Z</time></trkpt><trkpt lat="39.2310567" lon="16.14981"><ele>1158.0</ele><time>2026-04-27T09:22:08.741Z</time></trkpt><trkpt lat="39.23094" lon="16.149795"><ele>1158.0</ele><time>2026-04-27T09:22:09.694Z</time></trkpt><trkpt lat="39.2308283" lon="16.1498"><ele>1158.0</ele><time>2026-04-27T09:22:10.7Z</time></trkpt><trkpt lat="39.2307117" lon="16.1498133"><ele>1158.0</ele><time>2026-04-27T09:22:11.701Z</time></trkpt><trkpt lat="39.23059" lon="16.1498067"><ele>1158.0</ele><time>2026-04-27T09:22:12.706Z</time></trkpt><trkpt lat="39.2304517" lon="16.149795"><ele>1161.0</ele><time>2026-04-27T09:22:13.705Z</time></trkpt><trkpt lat="39.2302967" lon="16.1497667"><ele>1164.0</ele><time>2026-04-27T09:22:14.734Z</time></trkpt><trkpt lat="39.230135" lon="16.1497233"><ele>1167.0</ele><time>2026-04-27T09:22:15.698Z</time></trkpt><trkpt lat="39.2299683" lon="16.1496617"><ele>1167.0</ele><time>2026-04-27T09:22:16.702Z</time></trkpt><trkpt lat="39.229815" lon="16.1495717"><ele>1167.0</ele><time>2026-04-27T09:22:17.698Z</time></trkpt><trkpt lat="39.2296667" lon="16.1495067"><ele>1167.0</ele><time>2026-04-27T09:22:18.704Z</time></trkpt><trkpt lat="39.2295167" lon="16.1494667"><ele>1167.25</ele><time>2026-04-27T09:22:19.696Z</time></trkpt><trkpt lat="39.22938" lon="16.1494483"><ele>1167.5</ele><time>2026-04-27T09:22:20.733Z</time></trkpt><trkpt lat="39.2292617" lon="16.1494383"><ele>1167.75</ele><time>2026-04-27T09:22:21.693Z</time></trkpt><trkpt lat="39.2291483" lon="16.14941"><ele>1168.0</ele><time>2026-04-27T09:22:22.706Z</time></trkpt><trkpt lat="39.2290417" lon="16.1493617"><ele>1169.6</ele><time>2026-04-27T09:22:23.701Z</time></trkpt><trkpt lat="39.2289367" lon="16.1492967"><ele>1171.1999999999998</ele><time>2026-04-27T09:22:24.703Z</time></trkpt><trkpt lat="39.2288333" lon="16.1492367"><ele>1172.8</ele><time>2026-04-27T09:22:25.698Z</time></trkpt><trkpt lat="39.22873" lon="16.14919"><ele>1174.3999999999999</ele><time>2026-04-27T09:22:26.769Z</time></trkpt><trkpt lat="39.228635" lon="16.1491683"><ele>1176.0</ele><time>2026-04-27T09:22:27.695Z</time></trkpt><trkpt lat="39.228545" lon="16.14916"><ele>1176.0</ele><time>2026-04-27T09:22:28.704Z</time></trkpt><trkpt lat="39.22846" lon="16.1491533"><ele>1176.0</ele><time>2026-04-27T09:22:29.7Z</time></trkpt><trkpt lat="39.2283667" lon="16.149165"><ele>1176.0</ele><time>2026-04-27T09:22:30.701Z</time></trkpt><trkpt lat="39.22826" lon="16.1491833"><ele>1176.0</ele><time>2026-04-27T09:22:31.701Z</time></trkpt><trkpt lat="39.2281483" lon="16.1492067"><ele>1176.0</ele><time>2026-04-27T09:22:32.75Z</time></trkpt><trkpt lat="39.228025" lon="16.1492317"><ele>1178.75</ele><time>2026-04-27T09:22:33.704Z</time></trkpt><trkpt lat="39.2279017" lon="16.149255"><ele>1181.5</ele><time>2026-04-27T09:22:34.699Z</time></trkpt><trkpt lat="39.227775" lon="16.1492667"><ele>1184.25</ele><time>2026-04-27T09:22:35.696Z</time></trkpt><trkpt lat="39.2276583" lon="16.149255"><ele>1187.0</ele><time>2026-04-27T09:22:36.703Z</time></trkpt><trkpt lat="39.227545" lon="16.149225"><ele>1187.0</ele><time>2026-04-27T09:22:37.697Z</time></trkpt><trkpt lat="39.2274233" lon="16.1491983"><ele>1187.0</ele><time>2026-04-27T09:22:38.741Z</time></trkpt><trkpt lat="39.2273217" lon="16.1491367"><ele>1187.0</ele><time>2026-04-27T09:22:39.699Z</time></trkpt><trkpt lat="39.227265" lon="16.1490167"><ele>1187.0</ele><time>2026-04-27T09:22:40.7Z</time></trkpt><trkpt lat="39.2271983" lon="16.1489033"><ele>1188.0</ele><time>2026-04-27T09:22:41.697Z</time></trkpt><trkpt lat="39.2271083" lon="16.1488"><ele>1189.0</ele><time>2026-04-27T09:22:42.7Z</time></trkpt><trkpt lat="39.227005" lon="16.14869"><ele>1190.0</ele><time>2026-04-27T09:22:43.69Z</time></trkpt><trkpt lat="39.2268933" lon="16.1485783"><ele>1191.0</ele><time>2026-04-27T09:22:44.734Z</time></trkpt><trkpt lat="39.2267783" lon="16.1484467"><ele>1191.0</ele><time>2026-04-27T09:22:45.696Z</time></trkpt><trkpt lat="39.226665" lon="16.1483183"><ele>1191.0</ele><time>2026-04-27T09:22:46.699Z</time></trkpt><trkpt lat="39.22655" lon="16.1481967"><ele>1191.0</ele><time>2026-04-27T09:22:47.701Z</time></trkpt><trkpt lat="39.22643" lon="16.1480867"><ele>1191.0</ele><time>2026-04-27T09:22:48.699Z</time></trkpt><trkpt lat="39.226315" lon="16.1479817"><ele>1193.6</ele><time>2026-04-27T09:22:49.704Z</time></trkpt><trkpt lat="39.22621" lon="16.1478817"><ele>1196.1999999999998</ele><time>2026-04-27T09:22:50.745Z</time></trkpt><trkpt lat="39.2261217" lon="16.1477883"><ele>1198.8000000000002</ele><time>2026-04-27T09:22:51.696Z</time></trkpt><trkpt lat="39.226055" lon="16.1476983"><ele>1201.4</ele><time>2026-04-27T09:22:52.7Z</time></trkpt><trkpt lat="39.226025" lon="16.1476033"><ele>1204.0</ele><time>2026-04-27T09:22:53.702Z</time></trkpt><trkpt lat="39.2260217" lon="16.1474983"><ele>1204.0</ele><time>2026-04-27T09:22:54.707Z</time></trkpt><trkpt lat="39.2259983" lon="16.147385"><ele>1204.0</ele><time>2026-04-27T09:22:55.695Z</time></trkpt><trkpt lat="39.2259783" lon="16.1472517"><ele>1204.0</ele><time>2026-04-27T09:22:56.749Z</time></trkpt><trkpt lat="39.2259467" lon="16.1471"><ele>1204.0</ele><time>2026-04-27T09:22:57.7Z</time></trkpt><trkpt lat="39.2259067" lon="16.1469417"><ele>1204.0</ele><time>2026-04-27T09:22:58.699Z</time></trkpt><trkpt lat="39.2258617" lon="16.1467867"><ele>1204.75</ele><time>2026-04-27T09:22:59.701Z</time></trkpt><trkpt lat="39.2257983" lon="16.1466217"><ele>1205.5</ele><time>2026-04-27T09:23:00.704Z</time></trkpt><trkpt lat="39.2257133" lon="16.146455"><ele>1206.25</ele><time>2026-04-27T09:23:01.699Z</time></trkpt><trkpt lat="39.2256217" lon="16.1463"><ele>1207.0</ele><time>2026-04-27T09:23:02.747Z</time></trkpt><trkpt lat="39.2255333" lon="16.1461467"><ele>1210.25</ele><time>2026-04-27T09:23:03.697Z</time></trkpt><trkpt lat="39.2254567" lon="16.146"><ele>1213.5</ele><time>2026-04-27T09:23:04.704Z</time></trkpt><trkpt lat="39.22539" lon="16.1458667"><ele>1216.75</ele><time>2026-04-27T09:23:05.699Z</time></trkpt><trkpt lat="39.225325" lon="16.1457333"><ele>1220.0</ele><time>2026-04-27T09:23:06.706Z</time></trkpt><trkpt lat="39.2252633" lon="16.1456217"><ele>1221.8</ele><time>2026-04-27T09:23:07.7Z</time></trkpt><trkpt lat="39.2251983" lon="16.1455217"><ele>1223.6</ele><time>2026-04-27T09:23:08.736Z</time></trkpt><trkpt lat="39.2251433" lon="16.14544"><ele>1225.4</ele><time>2026-04-27T09:23:09.705Z</time></trkpt><trkpt lat="39.2250717" lon="16.145335"><ele>1227.2</ele><time>2026-04-27T09:23:11.694Z</time></trkpt><trkpt lat="39.2250117" lon="16.14531"><ele>1229.0</ele><time>2026-04-27T09:23:14.735Z</time></trkpt><trkpt lat="39.2249167" lon="16.1452583"><ele>1229.0</ele><time>2026-04-27T09:23:17.7Z</time></trkpt><trkpt lat="39.2248133" lon="16.145215"><ele>1229.0</ele><time>2026-04-27T09:23:19.7Z</time></trkpt><trkpt lat="39.2247467" lon="16.1451267"><ele>1229.0</ele><time>2026-04-27T09:23:21.696Z</time></trkpt><trkpt lat="39.22466" lon="16.1450767"><ele>1229.0</ele><time>2026-04-27T09:23:23.697Z</time></trkpt><trkpt lat="39.2246" lon="16.144905"><ele>1229.0</ele><time>2026-04-27T09:23:25.699Z</time></trkpt><trkpt lat="39.224585" lon="16.1448067"><ele>1227.6000000000001</ele><time>2026-04-27T09:23:26.75Z</time></trkpt><trkpt lat="39.2245667" lon="16.1447033"><ele>1226.2</ele><time>2026-04-27T09:23:27.702Z</time></trkpt><trkpt lat="39.2245583" lon="16.1445917"><ele>1224.8000000000002</ele><time>2026-04-27T09:23:28.699Z</time></trkpt><trkpt lat="39.2245517" lon="16.1444717"><ele>1223.4</ele><time>2026-04-27T09:23:29.693Z</time></trkpt><trkpt lat="39.2245833" lon="16.144355"><ele>1222.0</ele><time>2026-04-27T09:23:30.698Z</time></trkpt><trkpt lat="39.2246167" lon="16.1442133"><ele>1220.25</ele><time>2026-04-27T09:23:31.694Z</time></trkpt><trkpt lat="39.22469" lon="16.1440183"><ele>1218.5</ele><time>2026-04-27T09:23:32.749Z</time></trkpt><trkpt lat="39.22473" lon="16.1438567"><ele>1216.75</ele><time>2026-04-27T09:23:33.701Z</time></trkpt><trkpt lat="39.22476" lon="16.1437067"><ele>1215.0</ele><time>2026-04-27T09:23:34.705Z</time></trkpt><trkpt lat="39.224785" lon="16.14355"><ele>1215.0</ele><time>2026-04-27T09:23:35.699Z</time></trkpt><trkpt lat="39.2248" lon="16.1434017"><ele>1215.0</ele><time>2026-04-27T09:23:36.703Z</time></trkpt><trkpt lat="39.224805" lon="16.14324"><ele>1215.0</ele><time>2026-04-27T09:23:37.699Z</time></trkpt><trkpt lat="39.22482" lon="16.143095"><ele>1215.0</ele><time>2026-04-27T09:23:38.737Z</time></trkpt><trkpt lat="39.2248217" lon="16.1429367"><ele>1212.5</ele><time>2026-04-27T09:23:39.701Z</time></trkpt><trkpt lat="39.2248167" lon="16.14278"><ele>1210.0</ele><time>2026-04-27T09:23:40.702Z</time></trkpt><trkpt lat="39.2248067" lon="16.1426067"><ele>1207.5</ele><time>2026-04-27T09:23:41.695Z</time></trkpt><trkpt lat="39.2247883" lon="16.14242"><ele>1205.0</ele><time>2026-04-27T09:23:42.706Z</time></trkpt><trkpt lat="39.2247783" lon="16.1422233"><ele>1203.75</ele><time>2026-04-27T09:23:43.699Z</time></trkpt><trkpt lat="39.2247717" lon="16.14204"><ele>1202.5</ele><time>2026-04-27T09:23:44.74Z</time></trkpt><trkpt lat="39.224765" lon="16.1418633"><ele>1201.25</ele><time>2026-04-27T09:23:45.699Z</time></trkpt><trkpt lat="39.2247617" lon="16.14172"><ele>1200.0</ele><time>2026-04-27T09:23:46.697Z</time></trkpt><trkpt lat="39.2247583" lon="16.1415733"><ele>1204.2</ele><time>2026-04-27T09:23:47.7Z</time></trkpt><trkpt lat="39.2247567" lon="16.1414383"><ele>1208.4</ele><time>2026-04-27T09:23:48.703Z</time></trkpt><trkpt lat="39.2247383" lon="16.141315"><ele>1212.6</ele><time>2026-04-27T09:23:49.7Z</time></trkpt><trkpt lat="39.22472" lon="16.1412017"><ele>1216.8</ele><time>2026-04-27T09:23:50.734Z</time></trkpt><trkpt lat="39.2246717" lon="16.1411"><ele>1221.0</ele><time>2026-04-27T09:23:51.699Z</time></trkpt><trkpt lat="39.2246" lon="16.1410617"><ele>1221.0</ele><time>2026-04-27T09:23:52.697Z</time></trkpt><trkpt lat="39.2245317" lon="16.1410033"><ele>1221.0</ele><time>2026-04-27T09:23:53.697Z</time></trkpt><trkpt lat="39.2244683" lon="16.1409467"><ele>1221.0</ele><time>2026-04-27T09:23:54.697Z</time></trkpt><trkpt lat="39.2243783" lon="16.1409133"><ele>1221.0</ele><time>2026-04-27T09:23:55.708Z</time></trkpt><trkpt lat="39.2242817" lon="16.1408983"><ele>1221.0</ele><time>2026-04-27T09:23:56.75Z</time></trkpt><trkpt lat="39.2241783" lon="16.1408783"><ele>1221.0</ele><time>2026-04-27T09:23:57.702Z</time></trkpt><trkpt lat="39.2240783" lon="16.1408983"><ele>1221.0</ele><time>2026-04-27T09:23:58.701Z</time></trkpt><trkpt lat="39.223985" lon="16.140895"><ele>1221.0</ele><time>2026-04-27T09:23:59.701Z</time></trkpt><trkpt lat="39.2239133" lon="16.140895"><ele>1221.0</ele><time>2026-04-27T09:24:00.697Z</time></trkpt><trkpt lat="39.2237567" lon="16.1409167"><ele>1221.0</ele><time>2026-04-27T09:24:02.747Z</time></trkpt><trkpt lat="39.2236633" lon="16.1409233"><ele>1220.0</ele><time>2026-04-27T09:24:03.696Z</time></trkpt><trkpt lat="39.223595" lon="16.1409267"><ele>1219.0</ele><time>2026-04-27T09:24:04.696Z</time></trkpt><trkpt lat="39.223505" lon="16.1409417"><ele>1218.0</ele><time>2026-04-27T09:24:05.695Z</time></trkpt><trkpt lat="39.2234183" lon="16.1409667"><ele>1217.0</ele><time>2026-04-27T09:24:06.699Z</time></trkpt><trkpt lat="39.2233033" lon="16.1409917"><ele>1216.0</ele><time>2026-04-27T09:24:07.698Z</time></trkpt><trkpt lat="39.2232133" lon="16.14099"><ele>1215.1666666666665</ele><time>2026-04-27T09:24:08.733Z</time></trkpt><trkpt lat="39.223125" lon="16.1409867"><ele>1214.3333333333333</ele><time>2026-04-27T09:24:09.697Z</time></trkpt><trkpt lat="39.2230617" lon="16.140955"><ele>1213.5</ele><time>2026-04-27T09:24:11.696Z</time></trkpt><trkpt lat="39.2229683" lon="16.1409417"><ele>1212.6666666666667</ele><time>2026-04-27T09:24:15.697Z</time></trkpt><trkpt lat="39.22288" lon="16.140955"><ele>1211.8333333333335</ele><time>2026-04-27T09:24:17.701Z</time></trkpt><trkpt lat="39.2228317" lon="16.1410133"><ele>1211.0</ele><time>2026-04-27T09:24:19.698Z</time></trkpt><trkpt lat="39.2227617" lon="16.1410917"><ele>1211.0</ele><time>2026-04-27T09:24:21.705Z</time></trkpt><trkpt lat="39.2227133" lon="16.14116"><ele>1211.0</ele><time>2026-04-27T09:24:23.702Z</time></trkpt><trkpt lat="39.2226117" lon="16.1412117"><ele>1211.0</ele><time>2026-04-27T09:24:31.696Z</time></trkpt><trkpt lat="39.222495" lon="16.1412817"><ele>1211.0</ele><time>2026-04-27T09:24:33.696Z</time></trkpt><trkpt lat="39.2224283" lon="16.1413133"><ele>1211.0</ele><time>2026-04-27T09:24:34.703Z</time></trkpt><trkpt lat="39.222345" lon="16.14137"><ele>1207.8</ele><time>2026-04-27T09:24:35.701Z</time></trkpt><trkpt lat="39.222285" lon="16.1414217"><ele>1204.6</ele><time>2026-04-27T09:24:36.704Z</time></trkpt><trkpt lat="39.2222783" lon="16.1415367"><ele>1201.4</ele><time>2026-04-27T09:24:37.693Z</time></trkpt><trkpt lat="39.222245" lon="16.1416867"><ele>1198.2</ele><time>2026-04-27T09:24:39.697Z</time></trkpt><trkpt lat="39.2222617" lon="16.1418433"><ele>1195.0</ele><time>2026-04-27T09:24:40.695Z</time></trkpt><trkpt lat="39.2222267" lon="16.1419883"><ele>1191.0</ele><time>2026-04-27T09:24:42.703Z</time></trkpt><trkpt lat="39.2221417" lon="16.1420633"><ele>1187.0</ele><time>2026-04-27T09:24:44.744Z</time></trkpt><trkpt lat="39.2220567" lon="16.1420417"><ele>1183.0</ele><time>2026-04-27T09:24:45.698Z</time></trkpt><trkpt lat="39.2219683" lon="16.1420167"><ele>1179.0</ele><time>2026-04-27T09:24:46.697Z</time></trkpt><trkpt lat="39.22188" lon="16.14199"><ele>1175.0</ele><time>2026-04-27T09:24:47.694Z</time></trkpt><trkpt lat="39.2217983" lon="16.1419517"><ele>1175.0</ele><time>2026-04-27T09:24:48.69Z</time></trkpt><trkpt lat="39.22173" lon="16.141885"><ele>1175.0</ele><time>2026-04-27T09:24:49.693Z</time></trkpt><trkpt lat="39.2216633" lon="16.1418217"><ele>1175.0</ele><time>2026-04-27T09:24:50.735Z</time></trkpt><trkpt lat="39.2215883" lon="16.14177"><ele>1175.0</ele><time>2026-04-27T09:24:51.7Z</time></trkpt><trkpt lat="39.221525" lon="16.1417367"><ele>1175.0</ele><time>2026-04-27T09:24:52.699Z</time></trkpt><trkpt lat="39.2214583" lon="16.1417267"><ele>1175.0</ele><time>2026-04-27T09:24:53.701Z</time></trkpt><trkpt lat="39.221395" lon="16.141735"><ele>1171.7142857142858</ele><time>2026-04-27T09:24:54.705Z</time></trkpt><trkpt lat="39.2213283" lon="16.1417667"><ele>1168.4285714285716</ele><time>2026-04-27T09:24:55.698Z</time></trkpt><trkpt lat="39.2212517" lon="16.1418133"><ele>1165.1428571428573</ele><time>2026-04-27T09:24:56.771Z</time></trkpt><trkpt lat="39.2211867" lon="16.1418517"><ele>1161.857142857143</ele><time>2026-04-27T09:24:57.692Z</time></trkpt><trkpt lat="39.2211217" lon="16.14187"><ele>1158.5714285714287</ele><time>2026-04-27T09:24:58.694Z</time></trkpt><trkpt lat="39.2210667" lon="16.1418117"><ele>1155.2857142857144</ele><time>2026-04-27T09:25:00.698Z</time></trkpt><trkpt lat="39.2210833" lon="16.141725"><ele>1152.0</ele><time>2026-04-27T09:25:02.751Z</time></trkpt><trkpt lat="39.2211917" lon="16.1415867"><ele>1154.0</ele><time>2026-04-27T09:25:04.701Z</time></trkpt><trkpt lat="39.2212483" lon="16.1415133"><ele>1156.0</ele><time>2026-04-27T09:25:05.703Z</time></trkpt><trkpt lat="39.221295" lon="16.141445"><ele>1158.0</ele><time>2026-04-27T09:25:06.696Z</time></trkpt><trkpt lat="39.2213433" lon="16.1413267"><ele>1160.0</ele><time>2026-04-27T09:25:08.733Z</time></trkpt><trkpt lat="39.221305" lon="16.1412417"><ele>1162.0</ele><time>2026-04-27T09:25:10.702Z</time></trkpt><trkpt lat="39.22121" lon="16.141175"><ele>1164.0</ele><time>2026-04-27T09:25:12.693Z</time></trkpt><trkpt lat="39.22114" lon="16.14114"><ele>1164.0</ele><time>2026-04-27T09:25:13.701Z</time></trkpt><trkpt lat="39.2210317" lon="16.1410867"><ele>1164.0</ele><time>2026-04-27T09:25:14.739Z</time></trkpt><trkpt lat="39.220945" lon="16.1410317"><ele>1164.0</ele><time>2026-04-27T09:25:15.695Z</time></trkpt><trkpt lat="39.22086" lon="16.1409733"><ele>1164.0</ele><time>2026-04-27T09:25:16.703Z</time></trkpt><trkpt lat="39.2207083" lon="16.1409817"><ele>1160.5</ele><time>2026-04-27T09:25:17.704Z</time></trkpt><trkpt lat="39.2206267" lon="16.1409333"><ele>1157.0</ele><time>2026-04-27T09:25:18.698Z</time></trkpt><trkpt lat="39.2205567" lon="16.140885"><ele>1153.5</ele><time>2026-04-27T09:25:19.698Z</time></trkpt><trkpt lat="39.2204933" lon="16.1408667"><ele>1150.0</ele><time>2026-04-27T09:25:20.738Z</time></trkpt><trkpt lat="39.2204283" lon="16.1408733"><ele>1146.5</ele><time>2026-04-27T09:25:21.693Z</time></trkpt><trkpt lat="39.2203533" lon="16.1409"><ele>1143.0</ele><time>2026-04-27T09:25:22.7Z</time></trkpt><trkpt lat="39.2202683" lon="16.1409383"><ele>1143.0</ele><time>2026-04-27T09:25:23.696Z</time></trkpt><trkpt lat="39.2201767" lon="16.1409883"><ele>1143.0</ele><time>2026-04-27T09:25:24.705Z</time></trkpt><trkpt lat="39.2200867" lon="16.1410433"><ele>1143.0</ele><time>2026-04-27T09:25:25.698Z</time></trkpt><trkpt lat="39.2200033" lon="16.14108"><ele>1143.0</ele><time>2026-04-27T09:25:26.759Z</time></trkpt><trkpt lat="39.2199183" lon="16.1411017"><ele>1143.0</ele><time>2026-04-27T09:25:27.691Z</time></trkpt><trkpt lat="39.2198233" lon="16.1411083"><ele>1140.0</ele><time>2026-04-27T09:25:28.699Z</time></trkpt><trkpt lat="39.219735" lon="16.141115"><ele>1137.0</ele><time>2026-04-27T09:25:29.697Z</time></trkpt><trkpt lat="39.2196467" lon="16.141145"><ele>1134.0</ele><time>2026-04-27T09:25:30.699Z</time></trkpt><trkpt lat="39.2195633" lon="16.141195"><ele>1131.0</ele><time>2026-04-27T09:25:31.701Z</time></trkpt><trkpt lat="39.21948" lon="16.1412467"><ele>1128.0</ele><time>2026-04-27T09:25:32.749Z</time></trkpt><trkpt lat="39.219395" lon="16.1412817"><ele>1128.0</ele><time>2026-04-27T09:25:33.695Z</time></trkpt><trkpt lat="39.2192983" lon="16.141305"><ele>1128.0</ele><time>2026-04-27T09:25:34.703Z</time></trkpt><trkpt lat="39.2191983" lon="16.1413083"><ele>1128.0</ele><time>2026-04-27T09:25:35.698Z</time></trkpt><trkpt lat="39.219105" lon="16.141275"><ele>1128.0</ele><time>2026-04-27T09:25:36.702Z</time></trkpt><trkpt lat="39.219025" lon="16.1412367"><ele>1128.0</ele><time>2026-04-27T09:25:37.7Z</time></trkpt><trkpt lat="39.218965" lon="16.1411583"><ele>1126.6</ele><time>2026-04-27T09:25:38.737Z</time></trkpt><trkpt lat="39.21891" lon="16.1410583"><ele>1125.1999999999998</ele><time>2026-04-27T09:25:39.699Z</time></trkpt><trkpt lat="39.2188567" lon="16.140955"><ele>1123.8</ele><time>2026-04-27T09:25:40.699Z</time></trkpt><trkpt lat="39.218805" lon="16.1408617"><ele>1122.3999999999999</ele><time>2026-04-27T09:25:41.699Z</time></trkpt><trkpt lat="39.2187483" lon="16.1408067"><ele>1121.0</ele><time>2026-04-27T09:25:42.706Z</time></trkpt><trkpt lat="39.2186533" lon="16.14074"><ele>1121.0</ele><time>2026-04-27T09:25:44.741Z</time></trkpt><trkpt lat="39.2185583" lon="16.1407333"><ele>1121.0</ele><time>2026-04-27T09:25:46.695Z</time></trkpt><trkpt lat="39.2184717" lon="16.1408467"><ele>1121.0</ele><time>2026-04-27T09:25:48.703Z</time></trkpt><trkpt lat="39.2183967" lon="16.1409617"><ele>1121.0</ele><time>2026-04-27T09:25:49.699Z</time></trkpt><trkpt lat="39.2183217" lon="16.141065"><ele>1121.0</ele><time>2026-04-27T09:25:50.736Z</time></trkpt><trkpt lat="39.2182233" lon="16.1411417"><ele>1118.8</ele><time>2026-04-27T09:25:51.701Z</time></trkpt><trkpt lat="39.2181283" lon="16.14121"><ele>1116.6</ele><time>2026-04-27T09:25:52.703Z</time></trkpt><trkpt lat="39.21803" lon="16.1412517"><ele>1114.4</ele><time>2026-04-27T09:25:53.692Z</time></trkpt><trkpt lat="39.217945" lon="16.1412933"><ele>1112.2</ele><time>2026-04-27T09:25:54.7Z</time></trkpt><trkpt lat="39.2178667" lon="16.1413"><ele>1110.0</ele><time>2026-04-27T09:25:55.697Z</time></trkpt><trkpt lat="39.2177717" lon="16.1412883"><ele>1110.0</ele><time>2026-04-27T09:25:56.725Z</time></trkpt><trkpt lat="39.2176717" lon="16.1412283"><ele>1110.0</ele><time>2026-04-27T09:25:57.701Z</time></trkpt><trkpt lat="39.21757" lon="16.141145"><ele>1110.0</ele><time>2026-04-27T09:25:58.708Z</time></trkpt><trkpt lat="39.2174733" lon="16.14105"><ele>1110.0</ele><time>2026-04-27T09:25:59.703Z</time></trkpt><trkpt lat="39.2173867" lon="16.140965"><ele>1108.5</ele><time>2026-04-27T09:26:00.7Z</time></trkpt><trkpt lat="39.21729" lon="16.1408917"><ele>1107.0</ele><time>2026-04-27T09:26:01.699Z</time></trkpt><trkpt lat="39.2171783" lon="16.14082"><ele>1105.5</ele><time>2026-04-27T09:26:02.745Z</time></trkpt><trkpt lat="39.2170567" lon="16.1407433"><ele>1104.0</ele><time>2026-04-27T09:26:03.693Z</time></trkpt><trkpt lat="39.2169283" lon="16.1406667"><ele>1104.0</ele><time>2026-04-27T09:26:04.691Z</time></trkpt><trkpt lat="39.216795" lon="16.140585"><ele>1104.0</ele><time>2026-04-27T09:26:05.694Z</time></trkpt><trkpt lat="39.2166517" lon="16.1404933"><ele>1104.0</ele><time>2026-04-27T09:26:06.702Z</time></trkpt><trkpt lat="39.2165167" lon="16.140395"><ele>1100.0</ele><time>2026-04-27T09:26:07.699Z</time></trkpt><trkpt lat="39.2163917" lon="16.1403"><ele>1096.0</ele><time>2026-04-27T09:26:08.733Z</time></trkpt><trkpt lat="39.2162633" lon="16.1402233"><ele>1092.0</ele><time>2026-04-27T09:26:09.693Z</time></trkpt><trkpt lat="39.2161283" lon="16.140165"><ele>1088.0</ele><time>2026-04-27T09:26:10.701Z</time></trkpt><trkpt lat="39.2159933" lon="16.140115"><ele>1088.0</ele><time>2026-04-27T09:26:11.699Z</time></trkpt><trkpt lat="39.2158633" lon="16.1400783"><ele>1088.0</ele><time>2026-04-27T09:26:12.702Z</time></trkpt><trkpt lat="39.21574" lon="16.140065"><ele>1088.0</ele><time>2026-04-27T09:26:13.697Z</time></trkpt><trkpt lat="39.21563" lon="16.14006"><ele>1088.0</ele><time>2026-04-27T09:26:14.736Z</time></trkpt><trkpt lat="39.2155317" lon="16.1400567"><ele>1087.5</ele><time>2026-04-27T09:26:15.697Z</time></trkpt><trkpt lat="39.2154367" lon="16.140045"><ele>1087.0</ele><time>2026-04-27T09:26:16.701Z</time></trkpt><trkpt lat="39.21535" lon="16.140015"><ele>1086.5</ele><time>2026-04-27T09:26:17.701Z</time></trkpt><trkpt lat="39.2152733" lon="16.13997"><ele>1086.0</ele><time>2026-04-27T09:26:18.707Z</time></trkpt><trkpt lat="39.215215" lon="16.1399083"><ele>1085.5</ele><time>2026-04-27T09:26:19.701Z</time></trkpt><trkpt lat="39.215205" lon="16.1398"><ele>1085.0</ele><time>2026-04-27T09:26:20.733Z</time></trkpt><trkpt lat="39.2151933" lon="16.1396883"><ele>1085.0</ele><time>2026-04-27T09:26:21.694Z</time></trkpt><trkpt lat="39.2151933" lon="16.13957"><ele>1085.0</ele><time>2026-04-27T09:26:22.692Z</time></trkpt><trkpt lat="39.2151883" lon="16.1394533"><ele>1085.0</ele><time>2026-04-27T09:26:23.699Z</time></trkpt><trkpt lat="39.2151817" lon="16.1393467"><ele>1085.0</ele><time>2026-04-27T09:26:24.702Z</time></trkpt><trkpt lat="39.2151667" lon="16.1392567"><ele>1085.0</ele><time>2026-04-27T09:26:25.698Z</time></trkpt><trkpt lat="39.2151283" lon="16.13912"><ele>1085.0</ele><time>2026-04-27T09:26:27.702Z</time></trkpt><trkpt lat="39.214985" lon="16.139035"><ele>1085.3333333333335</ele><time>2026-04-27T09:26:29.694Z</time></trkpt><trkpt lat="39.2148583" lon="16.1389817"><ele>1085.6666666666667</ele><time>2026-04-27T09:26:30.697Z</time></trkpt><trkpt lat="39.2147017" lon="16.1389133"><ele>1086.0</ele><time>2026-04-27T09:26:31.698Z</time></trkpt><trkpt lat="39.21456" lon="16.1388317"><ele>1086.0</ele><time>2026-04-27T09:26:32.742Z</time></trkpt><trkpt lat="39.2144483" lon="16.1387483"><ele>1086.0</ele><time>2026-04-27T09:26:33.699Z</time></trkpt><trkpt lat="39.2143517" lon="16.1386567"><ele>1086.0</ele><time>2026-04-27T09:26:34.699Z</time></trkpt><trkpt lat="39.2142583" lon="16.13855"><ele>1086.0</ele><time>2026-04-27T09:26:35.705Z</time></trkpt><trkpt lat="39.214165" lon="16.13844"><ele>1086.0</ele><time>2026-04-27T09:26:36.711Z</time></trkpt><trkpt lat="39.21408" lon="16.138335"><ele>1086.0</ele><time>2026-04-27T09:26:37.7Z</time></trkpt><trkpt lat="39.2139883" lon="16.13824"><ele>1086.0</ele><time>2026-04-27T09:26:38.74Z</time></trkpt><trkpt lat="39.2138783" lon="16.1381683"><ele>1086.0</ele><time>2026-04-27T09:26:39.699Z</time></trkpt><trkpt lat="39.2137283" lon="16.1381183"><ele>1086.75</ele><time>2026-04-27T09:26:40.702Z</time></trkpt><trkpt lat="39.2136" lon="16.1380567"><ele>1087.5</ele><time>2026-04-27T09:26:41.703Z</time></trkpt><trkpt lat="39.2134817" lon="16.1379767"><ele>1088.25</ele><time>2026-04-27T09:26:42.701Z</time></trkpt><trkpt lat="39.21336" lon="16.13787"><ele>1089.0</ele><time>2026-04-27T09:26:43.696Z</time></trkpt><trkpt lat="39.2132417" lon="16.137755"><ele>1087.6000000000001</ele><time>2026-04-27T09:26:44.737Z</time></trkpt><trkpt lat="39.213135" lon="16.1376317"><ele>1086.2</ele><time>2026-04-27T09:26:45.699Z</time></trkpt><trkpt lat="39.213035" lon="16.1375333"><ele>1084.8000000000002</ele><time>2026-04-27T09:26:46.697Z</time></trkpt><trkpt lat="39.2129733" lon="16.13744"><ele>1083.4</ele><time>2026-04-27T09:26:47.696Z</time></trkpt><trkpt lat="39.2129483" lon="16.1373367"><ele>1082.0</ele><time>2026-04-27T09:26:48.701Z</time></trkpt><trkpt lat="39.2129267" lon="16.1372167"><ele>1082.0</ele><time>2026-04-27T09:26:49.698Z</time></trkpt><trkpt lat="39.2128833" lon="16.1371083"><ele>1082.0</ele><time>2026-04-27T09:26:50.734Z</time></trkpt><trkpt lat="39.212835" lon="16.1370117"><ele>1082.0</ele><time>2026-04-27T09:26:51.698Z</time></trkpt><trkpt lat="39.2127817" lon="16.13692"><ele>1082.0</ele><time>2026-04-27T09:26:52.695Z</time></trkpt><trkpt lat="39.21273" lon="16.136825"><ele>1082.0</ele><time>2026-04-27T09:26:53.698Z</time></trkpt><trkpt lat="39.2126683" lon="16.1367133"><ele>1082.0</ele><time>2026-04-27T09:26:54.7Z</time></trkpt><trkpt lat="39.21259" lon="16.1365883"><ele>1082.0</ele><time>2026-04-27T09:26:55.696Z</time></trkpt><trkpt lat="39.2125067" lon="16.13646"><ele>1082.0</ele><time>2026-04-27T09:26:56.769Z</time></trkpt><trkpt lat="39.21243" lon="16.13634"><ele>1082.0</ele><time>2026-04-27T09:26:57.7Z</time></trkpt><trkpt lat="39.2123567" lon="16.13622"><ele>1082.25</ele><time>2026-04-27T09:26:58.705Z</time></trkpt><trkpt lat="39.2122733" lon="16.1361017"><ele>1082.5</ele><time>2026-04-27T09:26:59.699Z</time></trkpt><trkpt lat="39.2121833" lon="16.1359833"><ele>1082.75</ele><time>2026-04-27T09:27:00.702Z</time></trkpt><trkpt lat="39.2120667" lon="16.13588"><ele>1083.0</ele><time>2026-04-27T09:27:01.695Z</time></trkpt><trkpt lat="39.2119433" lon="16.1357967"><ele>1084.4</ele><time>2026-04-27T09:27:02.738Z</time></trkpt><trkpt lat="39.211845" lon="16.1357033"><ele>1085.8</ele><time>2026-04-27T09:27:03.697Z</time></trkpt><trkpt lat="39.2117483" lon="16.1356217"><ele>1087.2</ele><time>2026-04-27T09:27:04.703Z</time></trkpt><trkpt lat="39.21166" lon="16.13555"><ele>1088.6</ele><time>2026-04-27T09:27:05.698Z</time></trkpt><trkpt lat="39.2115683" lon="16.1354917"><ele>1090.0</ele><time>2026-04-27T09:27:06.697Z</time></trkpt><trkpt lat="39.2114833" lon="16.13544"><ele>1090.0</ele><time>2026-04-27T09:27:07.698Z</time></trkpt><trkpt lat="39.2114033" lon="16.13538"><ele>1090.0</ele><time>2026-04-27T09:27:08.735Z</time></trkpt><trkpt lat="39.2113317" lon="16.1353117"><ele>1090.0</ele><time>2026-04-27T09:27:09.703Z</time></trkpt><trkpt lat="39.21125" lon="16.13524"><ele>1090.0</ele><time>2026-04-27T09:27:10.699Z</time></trkpt><trkpt lat="39.21117" lon="16.1351583"><ele>1090.0</ele><time>2026-04-27T09:27:11.697Z</time></trkpt><trkpt lat="39.211095" lon="16.13509"><ele>1090.0</ele><time>2026-04-27T09:27:12.703Z</time></trkpt><trkpt lat="39.21104" lon="16.135015"><ele>1090.0</ele><time>2026-04-27T09:27:13.705Z</time></trkpt><trkpt lat="39.2109967" lon="16.1349283"><ele>1090.0</ele><time>2026-04-27T09:27:14.737Z</time></trkpt><trkpt lat="39.2109833" lon="16.1348083"><ele>1090.0</ele><time>2026-04-27T09:27:15.694Z</time></trkpt><trkpt lat="39.2109567" lon="16.1347033"><ele>1090.0</ele><time>2026-04-27T09:27:16.694Z</time></trkpt><trkpt lat="39.21093" lon="16.1346117"><ele>1090.0</ele><time>2026-04-27T09:27:17.696Z</time></trkpt><trkpt lat="39.2108833" lon="16.1345267"><ele>1090.5</ele><time>2026-04-27T09:27:18.699Z</time></trkpt><trkpt lat="39.210815" lon="16.1344667"><ele>1091.0</ele><time>2026-04-27T09:27:19.691Z</time></trkpt><trkpt lat="39.21074" lon="16.1344383"><ele>1091.5</ele><time>2026-04-27T09:27:20.721Z</time></trkpt><trkpt lat="39.210675" lon="16.1344017"><ele>1092.0</ele><time>2026-04-27T09:27:21.694Z</time></trkpt><trkpt lat="39.21056" lon="16.13434"><ele>1092.5</ele><time>2026-04-27T09:27:23.697Z</time></trkpt><trkpt lat="39.210495" lon="16.13431"><ele>1093.0</ele><time>2026-04-27T09:27:24.7Z</time></trkpt><trkpt lat="39.2104067" lon="16.13428"><ele>1093.0</ele><time>2026-04-27T09:27:25.694Z</time></trkpt><trkpt lat="39.2103317" lon="16.1342317"><ele>1093.0</ele><time>2026-04-27T09:27:26.761Z</time></trkpt><trkpt lat="39.21024" lon="16.1341533"><ele>1093.0</ele><time>2026-04-27T09:27:27.697Z</time></trkpt><trkpt lat="39.2101283" lon="16.1340633"><ele>1093.0</ele><time>2026-04-27T09:27:28.702Z</time></trkpt><trkpt lat="39.210025" lon="16.1339967"><ele>1093.0</ele><time>2026-04-27T09:27:29.704Z</time></trkpt><trkpt lat="39.2099383" lon="16.1339283"><ele>1095.4</ele><time>2026-04-27T09:27:30.707Z</time></trkpt><trkpt lat="39.209865" lon="16.1338533"><ele>1097.8</ele><time>2026-04-27T09:27:31.703Z</time></trkpt><trkpt lat="39.209795" lon="16.1337667"><ele>1100.2</ele><time>2026-04-27T09:27:32.749Z</time></trkpt><trkpt lat="39.209715" lon="16.13368"><ele>1102.6</ele><time>2026-04-27T09:27:33.698Z</time></trkpt><trkpt lat="39.2096233" lon="16.1335817"><ele>1105.0</ele><time>2026-04-27T09:27:34.698Z</time></trkpt><trkpt lat="39.2095267" lon="16.1334817"><ele>1105.0</ele><time>2026-04-27T09:27:35.7Z</time></trkpt><trkpt lat="39.2094283" lon="16.1333833"><ele>1105.0</ele><time>2026-04-27T09:27:36.701Z</time></trkpt><trkpt lat="39.2093283" lon="16.1332933"><ele>1105.0</ele><time>2026-04-27T09:27:37.697Z</time></trkpt><trkpt lat="39.2092317" lon="16.1332233"><ele>1105.0</ele><time>2026-04-27T09:27:38.735Z</time></trkpt><trkpt lat="39.20912" lon="16.13317"><ele>1108.0</ele><time>2026-04-27T09:27:39.7Z</time></trkpt><trkpt lat="39.2090083" lon="16.1331583"><ele>1111.0</ele><time>2026-04-27T09:27:40.7Z</time></trkpt><trkpt lat="39.2089" lon="16.1331317"><ele>1114.0</ele><time>2026-04-27T09:27:41.693Z</time></trkpt><trkpt lat="39.2087833" lon="16.13313"><ele>1117.0</ele><time>2026-04-27T09:27:42.705Z</time></trkpt><trkpt lat="39.20866" lon="16.1330983"><ele>1117.0</ele><time>2026-04-27T09:27:43.694Z</time></trkpt><trkpt lat="39.2085483" lon="16.1330733"><ele>1117.0</ele><time>2026-04-27T09:27:44.725Z</time></trkpt><trkpt lat="39.208435" lon="16.13302"><ele>1117.0</ele><time>2026-04-27T09:27:45.693Z</time></trkpt><trkpt lat="39.2083267" lon="16.132955"><ele>1117.0</ele><time>2026-04-27T09:27:46.7Z</time></trkpt><trkpt lat="39.2082283" lon="16.1328817"><ele>1115.4</ele><time>2026-04-27T09:27:47.7Z</time></trkpt><trkpt lat="39.2081433" lon="16.1328167"><ele>1113.8000000000002</ele><time>2026-04-27T09:27:48.707Z</time></trkpt><trkpt lat="39.20807" lon="16.1327367"><ele>1112.2</ele><time>2026-04-27T09:27:49.693Z</time></trkpt><trkpt lat="39.2080217" lon="16.1326317"><ele>1110.6000000000001</ele><time>2026-04-27T09:27:50.734Z</time></trkpt><trkpt lat="39.2079767" lon="16.1325083"><ele>1109.0</ele><time>2026-04-27T09:27:51.701Z</time></trkpt><trkpt lat="39.2079467" lon="16.1323717"><ele>1109.0</ele><time>2026-04-27T09:27:52.698Z</time></trkpt><trkpt lat="39.2079167" lon="16.1322433"><ele>1109.0</ele><time>2026-04-27T09:27:53.7Z</time></trkpt><trkpt lat="39.20788" lon="16.1321417"><ele>1109.0</ele><time>2026-04-27T09:27:54.706Z</time></trkpt><trkpt lat="39.2078383" lon="16.1320517"><ele>1109.0</ele><time>2026-04-27T09:27:55.7Z</time></trkpt><trkpt lat="39.2077867" lon="16.131985"><ele>1109.0</ele><time>2026-04-27T09:27:56.762Z</time></trkpt><trkpt lat="39.20773" lon="16.13194"><ele>1109.0</ele><time>2026-04-27T09:27:57.693Z</time></trkpt><trkpt lat="39.20762" lon="16.1318933"><ele>1109.0</ele><time>2026-04-27T09:27:59.69Z</time></trkpt><trkpt lat="39.2075883" lon="16.1318183"><ele>1109.0</ele><time>2026-04-27T09:28:00.7Z</time></trkpt><trkpt lat="39.2075567" lon="16.1317133"><ele>1109.0</ele><time>2026-04-27T09:28:01.696Z</time></trkpt><trkpt lat="39.2075183" lon="16.1315933"><ele>1109.0</ele><time>2026-04-27T09:28:02.743Z</time></trkpt><trkpt lat="39.2074783" lon="16.131465"><ele>1109.0</ele><time>2026-04-27T09:28:03.697Z</time></trkpt><trkpt lat="39.2074283" lon="16.1313517"><ele>1109.2</ele><time>2026-04-27T09:28:04.698Z</time></trkpt><trkpt lat="39.2073683" lon="16.131255"><ele>1109.4</ele><time>2026-04-27T09:28:05.696Z</time></trkpt><trkpt lat="39.20731" lon="16.13117"><ele>1109.6</ele><time>2026-04-27T09:28:06.7Z</time></trkpt><trkpt lat="39.2072383" lon="16.1310983"><ele>1109.8</ele><time>2026-04-27T09:28:07.698Z</time></trkpt><trkpt lat="39.2071333" lon="16.131045"><ele>1110.0</ele><time>2026-04-27T09:28:08.739Z</time></trkpt><trkpt lat="39.20699" lon="16.131035"><ele>1110.0</ele><time>2026-04-27T09:28:09.692Z</time></trkpt><trkpt lat="39.2068283" lon="16.131015"><ele>1110.0</ele><time>2026-04-27T09:28:10.695Z</time></trkpt><trkpt lat="39.2066767" lon="16.1309867"><ele>1110.0</ele><time>2026-04-27T09:28:11.696Z</time></trkpt><trkpt lat="39.2065483" lon="16.1309433"><ele>1110.0</ele><time>2026-04-27T09:28:12.699Z</time></trkpt><trkpt lat="39.2064217" lon="16.1308983"><ele>1109.0</ele><time>2026-04-27T09:28:13.696Z</time></trkpt><trkpt lat="39.2062883" lon="16.1308667"><ele>1108.0</ele><time>2026-04-27T09:28:14.728Z</time></trkpt><trkpt lat="39.2061517" lon="16.13085"><ele>1107.0</ele><time>2026-04-27T09:28:15.696Z</time></trkpt><trkpt lat="39.2060133" lon="16.130855"><ele>1106.0</ele><time>2026-04-27T09:28:16.697Z</time></trkpt><trkpt lat="39.205885" lon="16.1308783"><ele>1106.0</ele><time>2026-04-27T09:28:17.698Z</time></trkpt><trkpt lat="39.20576" lon="16.130925"><ele>1106.0</ele><time>2026-04-27T09:28:18.7Z</time></trkpt><trkpt lat="39.2056483" lon="16.13097"><ele>1106.0</ele><time>2026-04-27T09:28:19.699Z</time></trkpt><trkpt lat="39.20554" lon="16.1309933"><ele>1106.0</ele><time>2026-04-27T09:28:20.741Z</time></trkpt><trkpt lat="39.2054333" lon="16.1309967"><ele>1107.0</ele><time>2026-04-27T09:28:21.697Z</time></trkpt><trkpt lat="39.205335" lon="16.1309883"><ele>1108.0</ele><time>2026-04-27T09:28:22.694Z</time></trkpt><trkpt lat="39.2052233" lon="16.13095"><ele>1109.0</ele><time>2026-04-27T09:28:23.706Z</time></trkpt><trkpt lat="39.205105" lon="16.13089"><ele>1110.0</ele><time>2026-04-27T09:28:24.695Z</time></trkpt><trkpt lat="39.2049833" lon="16.13083"><ele>1110.0</ele><time>2026-04-27T09:28:25.695Z</time></trkpt><trkpt lat="39.2048517" lon="16.130775"><ele>1110.0</ele><time>2026-04-27T09:28:26.718Z</time></trkpt><trkpt lat="39.204725" lon="16.1307417"><ele>1110.0</ele><time>2026-04-27T09:28:27.697Z</time></trkpt><trkpt lat="39.2046117" lon="16.1307133"><ele>1110.0</ele><time>2026-04-27T09:28:28.698Z</time></trkpt><trkpt lat="39.20451" lon="16.1306733"><ele>1108.75</ele><time>2026-04-27T09:28:29.697Z</time></trkpt><trkpt lat="39.2044133" lon="16.13062"><ele>1107.5</ele><time>2026-04-27T09:28:30.7Z</time></trkpt><trkpt lat="39.2043067" lon="16.13055"><ele>1106.25</ele><time>2026-04-27T09:28:31.692Z</time></trkpt><trkpt lat="39.20419" lon="16.1304733"><ele>1105.0</ele><time>2026-04-27T09:28:32.738Z</time></trkpt><trkpt lat="39.2040733" lon="16.130395"><ele>1106.75</ele><time>2026-04-27T09:28:33.704Z</time></trkpt><trkpt lat="39.2039617" lon="16.1303167"><ele>1108.5</ele><time>2026-04-27T09:28:34.702Z</time></trkpt><trkpt lat="39.2038583" lon="16.1302617"><ele>1110.25</ele><time>2026-04-27T09:28:35.702Z</time></trkpt><trkpt lat="39.2037517" lon="16.13023"><ele>1112.0</ele><time>2026-04-27T09:28:36.706Z</time></trkpt><trkpt lat="39.2036333" lon="16.1302183"><ele>1112.0</ele><time>2026-04-27T09:28:37.695Z</time></trkpt><trkpt lat="39.2034967" lon="16.13023"><ele>1112.0</ele><time>2026-04-27T09:28:38.734Z</time></trkpt><trkpt lat="39.2033483" lon="16.1302583"><ele>1112.0</ele><time>2026-04-27T09:28:39.696Z</time></trkpt><trkpt lat="39.203175" lon="16.13029"><ele>1112.3333333333335</ele><time>2026-04-27T09:28:40.701Z</time></trkpt><trkpt lat="39.2030033" lon="16.1303233"><ele>1112.6666666666667</ele><time>2026-04-27T09:28:41.695Z</time></trkpt><trkpt lat="39.2028483" lon="16.1303533"><ele>1113.0</ele><time>2026-04-27T09:28:42.699Z</time></trkpt><trkpt lat="39.202705" lon="16.1303717"><ele>1113.0</ele><time>2026-04-27T09:28:43.705Z</time></trkpt><trkpt lat="39.202565" lon="16.1303767"><ele>1113.0</ele><time>2026-04-27T09:28:44.73Z</time></trkpt><trkpt lat="39.202435" lon="16.130355"><ele>1113.0</ele><time>2026-04-27T09:28:45.695Z</time></trkpt><trkpt lat="39.202335" lon="16.1302767"><ele>1113.0</ele><time>2026-04-27T09:28:46.694Z</time></trkpt><trkpt lat="39.2022367" lon="16.1301933"><ele>1113.75</ele><time>2026-04-27T09:28:47.694Z</time></trkpt><trkpt lat="39.2021417" lon="16.13012"><ele>1114.5</ele><time>2026-04-27T09:28:48.7Z</time></trkpt><trkpt lat="39.202035" lon="16.130055"><ele>1115.25</ele><time>2026-04-27T09:28:49.693Z</time></trkpt><trkpt lat="39.2019083" lon="16.1299983"><ele>1116.0</ele><time>2026-04-27T09:28:50.735Z</time></trkpt><trkpt lat="39.201775" lon="16.1299433"><ele>1116.0</ele><time>2026-04-27T09:28:51.69Z</time></trkpt><trkpt lat="39.2016467" lon="16.1299033"><ele>1116.0</ele><time>2026-04-27T09:28:52.698Z</time></trkpt><trkpt lat="39.2015217" lon="16.129875"><ele>1116.0</ele><time>2026-04-27T09:28:53.7Z</time></trkpt><trkpt lat="39.2014" lon="16.1298567"><ele>1116.0</ele><time>2026-04-27T09:28:54.697Z</time></trkpt><trkpt lat="39.2012717" lon="16.1298317"><ele>1111.75</ele><time>2026-04-27T09:28:55.706Z</time></trkpt><trkpt lat="39.2011433" lon="16.12979"><ele>1107.5</ele><time>2026-04-27T09:28:56.769Z</time></trkpt><trkpt lat="39.2010233" lon="16.1297317"><ele>1103.25</ele><time>2026-04-27T09:28:57.697Z</time></trkpt><trkpt lat="39.2008933" lon="16.1296783"><ele>1099.0</ele><time>2026-04-27T09:28:58.698Z</time></trkpt><trkpt lat="39.2007583" lon="16.1296167"><ele>1099.0</ele><time>2026-04-27T09:28:59.698Z</time></trkpt><trkpt lat="39.2006233" lon="16.12955"><ele>1099.0</ele><time>2026-04-27T09:29:00.703Z</time></trkpt><trkpt lat="39.2005017" lon="16.129485"><ele>1099.0</ele><time>2026-04-27T09:29:01.697Z</time></trkpt><trkpt lat="39.2003783" lon="16.1294183"><ele>1099.0</ele><time>2026-04-27T09:29:02.744Z</time></trkpt><trkpt lat="39.2002517" lon="16.12937"><ele>1099.0</ele><time>2026-04-27T09:29:03.696Z</time></trkpt><trkpt lat="39.200125" lon="16.129325"><ele>1099.0</ele><time>2026-04-27T09:29:04.691Z</time></trkpt><trkpt lat="39.2000033" lon="16.1292733"><ele>1099.0</ele><time>2026-04-27T09:29:05.698Z</time></trkpt><trkpt lat="39.1998817" lon="16.12921"><ele>1099.0</ele><time>2026-04-27T09:29:06.7Z</time></trkpt><trkpt lat="39.1997533" lon="16.1291283"><ele>1093.5</ele><time>2026-04-27T09:29:07.702Z</time></trkpt><trkpt lat="39.1996283" lon="16.1290467"><ele>1088.0</ele><time>2026-04-27T09:29:08.739Z</time></trkpt><trkpt lat="39.1995083" lon="16.1289633"><ele>1082.5</ele><time>2026-04-27T09:29:09.696Z</time></trkpt><trkpt lat="39.19939" lon="16.1288867"><ele>1077.0</ele><time>2026-04-27T09:29:10.702Z</time></trkpt><trkpt lat="39.1992833" lon="16.128805"><ele>1077.0</ele><time>2026-04-27T09:29:11.703Z</time></trkpt><trkpt lat="39.1991833" lon="16.1287417"><ele>1077.0</ele><time>2026-04-27T09:29:12.703Z</time></trkpt><trkpt lat="39.1990783" lon="16.1286917"><ele>1077.0</ele><time>2026-04-27T09:29:13.703Z</time></trkpt><trkpt lat="39.1989683" lon="16.1286733"><ele>1077.0</ele><time>2026-04-27T09:29:14.737Z</time></trkpt><trkpt lat="39.1988483" lon="16.12866"><ele>1074.0</ele><time>2026-04-27T09:29:15.696Z</time></trkpt><trkpt lat="39.19871" lon="16.1286483"><ele>1071.0</ele><time>2026-04-27T09:29:16.696Z</time></trkpt><trkpt lat="39.1985583" lon="16.1286367"><ele>1068.0</ele><time>2026-04-27T09:29:17.699Z</time></trkpt><trkpt lat="39.1984" lon="16.1286317"><ele>1065.0</ele><time>2026-04-27T09:29:18.707Z</time></trkpt><trkpt lat="39.1982517" lon="16.12863"><ele>1062.0</ele><time>2026-04-27T09:29:19.699Z</time></trkpt><trkpt lat="39.1981167" lon="16.1286283"><ele>1059.0</ele><time>2026-04-27T09:29:20.737Z</time></trkpt><trkpt lat="39.197995" lon="16.12862"><ele>1056.0</ele><time>2026-04-27T09:29:21.703Z</time></trkpt><trkpt lat="39.1978833" lon="16.1285983"><ele>1053.0</ele><time>2026-04-27T09:29:22.699Z</time></trkpt><trkpt lat="39.19777" lon="16.1285567"><ele>1053.0</ele><time>2026-04-27T09:29:23.701Z</time></trkpt><trkpt lat="39.1976517" lon="16.1284917"><ele>1053.0</ele><time>2026-04-27T09:29:24.702Z</time></trkpt><trkpt lat="39.1975117" lon="16.1284167"><ele>1053.0</ele><time>2026-04-27T09:29:25.698Z</time></trkpt><trkpt lat="39.1973733" lon="16.1283533"><ele>1053.0</ele><time>2026-04-27T09:29:26.762Z</time></trkpt><trkpt lat="39.1972483" lon="16.128295"><ele>1049.75</ele><time>2026-04-27T09:29:27.7Z</time></trkpt><trkpt lat="39.1971367" lon="16.128235"><ele>1046.5</ele><time>2026-04-27T09:29:28.707Z</time></trkpt><trkpt lat="39.1970317" lon="16.12817"><ele>1043.25</ele><time>2026-04-27T09:29:29.696Z</time></trkpt><trkpt lat="39.19693" lon="16.1281083"><ele>1040.0</ele><time>2026-04-27T09:29:30.698Z</time></trkpt><trkpt lat="39.1968317" lon="16.1280533"><ele>1039.5</ele><time>2026-04-27T09:29:31.697Z</time></trkpt><trkpt lat="39.1967283" lon="16.128005"><ele>1039.0</ele><time>2026-04-27T09:29:32.741Z</time></trkpt><trkpt lat="39.1966133" lon="16.12797"><ele>1038.5</ele><time>2026-04-27T09:29:33.699Z</time></trkpt><trkpt lat="39.196485" lon="16.1279417"><ele>1038.0</ele><time>2026-04-27T09:29:34.7Z</time></trkpt><trkpt lat="39.1963467" lon="16.127915"><ele>1036.3333333333333</ele><time>2026-04-27T09:29:35.698Z</time></trkpt><trkpt lat="39.1961983" lon="16.1278667"><ele>1034.6666666666665</ele><time>2026-04-27T09:29:36.701Z</time></trkpt><trkpt lat="39.19605" lon="16.1278067"><ele>1033.0</ele><time>2026-04-27T09:29:37.698Z</time></trkpt><trkpt lat="39.195895" lon="16.1277483"><ele>1033.0</ele><time>2026-04-27T09:29:38.735Z</time></trkpt><trkpt lat="39.1957333" lon="16.1276967"><ele>1033.0</ele><time>2026-04-27T09:29:39.692Z</time></trkpt><trkpt lat="39.1955733" lon="16.1276633"><ele>1033.0</ele><time>2026-04-27T09:29:40.695Z</time></trkpt><trkpt lat="39.1954083" lon="16.1276433"><ele>1032.0</ele><time>2026-04-27T09:29:41.694Z</time></trkpt><trkpt lat="39.1952483" lon="16.127635"><ele>1031.0</ele><time>2026-04-27T09:29:42.706Z</time></trkpt><trkpt lat="39.1951" lon="16.127635"><ele>1030.0</ele><time>2026-04-27T09:29:43.7Z</time></trkpt><trkpt lat="39.1949533" lon="16.1276367"><ele>1029.25</ele><time>2026-04-27T09:29:44.737Z</time></trkpt><trkpt lat="39.19481" lon="16.12763"><ele>1028.5</ele><time>2026-04-27T09:29:45.693Z</time></trkpt><trkpt lat="39.1946733" lon="16.127605"><ele>1027.75</ele><time>2026-04-27T09:29:46.704Z</time></trkpt><trkpt lat="39.194535" lon="16.1275667"><ele>1027.0</ele><time>2026-04-27T09:29:47.698Z</time></trkpt><trkpt lat="39.1943983" lon="16.127525"><ele>1027.0</ele><time>2026-04-27T09:29:48.696Z</time></trkpt><trkpt lat="39.19427" lon="16.127475"><ele>1027.0</ele><time>2026-04-27T09:29:49.696Z</time></trkpt><trkpt lat="39.1941417" lon="16.1274167"><ele>1027.0</ele><time>2026-04-27T09:29:50.739Z</time></trkpt><trkpt lat="39.194015" lon="16.1273633"><ele>1027.0</ele><time>2026-04-27T09:29:51.699Z</time></trkpt><trkpt lat="39.1938833" lon="16.1273383"><ele>1023.0</ele><time>2026-04-27T09:29:52.698Z</time></trkpt><trkpt lat="39.1937417" lon="16.1273233"><ele>1019.0</ele><time>2026-04-27T09:29:53.689Z</time></trkpt><trkpt lat="39.193595" lon="16.1273067"><ele>1015.0</ele><time>2026-04-27T09:29:54.696Z</time></trkpt><trkpt lat="39.1934483" lon="16.1272917"><ele>1011.0</ele><time>2026-04-27T09:29:55.696Z</time></trkpt><trkpt lat="39.1933067" lon="16.1272783"><ele>1011.0</ele><time>2026-04-27T09:29:56.765Z</time></trkpt><trkpt lat="39.1931733" lon="16.1272717"><ele>1011.0</ele><time>2026-04-27T09:29:57.691Z</time></trkpt><trkpt lat="39.19304" lon="16.12727"><ele>1011.0</ele><time>2026-04-27T09:29:58.691Z</time></trkpt><trkpt lat="39.192905" lon="16.12727"><ele>1011.0</ele><time>2026-04-27T09:29:59.698Z</time></trkpt><trkpt lat="39.1927783" lon="16.127265"><ele>1011.8</ele><time>2026-04-27T09:30:00.702Z</time></trkpt><trkpt lat="39.1926633" lon="16.127255"><ele>1012.5999999999999</ele><time>2026-04-27T09:30:01.697Z</time></trkpt><trkpt lat="39.192555" lon="16.1272367"><ele>1013.4</ele><time>2026-04-27T09:30:02.741Z</time></trkpt><trkpt lat="39.1924517" lon="16.1272117"><ele>1014.2</ele><time>2026-04-27T09:30:03.689Z</time></trkpt><trkpt lat="39.19236" lon="16.1271883"><ele>1015.0</ele><time>2026-04-27T09:30:04.694Z</time></trkpt><trkpt lat="39.19229" lon="16.1271667"><ele>1014.9999999999999</ele><time>2026-04-27T09:30:05.692Z</time></trkpt><trkpt lat="39.1921983" lon="16.1271683"><ele>1015.0</ele><time>2026-04-27T09:30:07.7Z</time></trkpt><trkpt lat="39.1922533" lon="16.1273083"><ele>1015.0</ele><time>2026-04-27T09:30:10.698Z</time></trkpt><trkpt lat="39.1922883" lon="16.127395"><ele>1015.0</ele><time>2026-04-27T09:30:11.697Z</time></trkpt><trkpt lat="39.19234" lon="16.1274733"><ele>1014.9999999999999</ele><time>2026-04-27T09:30:12.704Z</time></trkpt><trkpt lat="39.1923917" lon="16.1275383"><ele>1015.0</ele><time>2026-04-27T09:30:13.697Z</time></trkpt><trkpt lat="39.1924533" lon="16.1275983"><ele>1015.6</ele><time>2026-04-27T09:30:14.729Z</time></trkpt><trkpt lat="39.192515" lon="16.1276533"><ele>1016.2</ele><time>2026-04-27T09:30:15.696Z</time></trkpt><trkpt lat="39.192595" lon="16.1277217"><ele>1016.8</ele><time>2026-04-27T09:30:16.7Z</time></trkpt><trkpt lat="39.1926817" lon="16.1277967"><ele>1017.4</ele><time>2026-04-27T09:30:17.703Z</time></trkpt><trkpt lat="39.19278" lon="16.1278817"><ele>1018.0</ele><time>2026-04-27T09:30:18.699Z</time></trkpt><trkpt lat="39.1928733" lon="16.1279633"><ele>1018.0</ele><time>2026-04-27T09:30:19.696Z</time></trkpt><trkpt lat="39.192985" lon="16.1280283"><ele>1018.0</ele><time>2026-04-27T09:30:20.727Z</time></trkpt><trkpt lat="39.1930933" lon="16.128085"><ele>1018.0</ele><time>2026-04-27T09:30:21.693Z</time></trkpt><trkpt lat="39.1931983" lon="16.1281417"><ele>1018.0</ele><time>2026-04-27T09:30:22.703Z</time></trkpt><trkpt lat="39.1933017" lon="16.1281967"><ele>1013.75</ele><time>2026-04-27T09:30:23.698Z</time></trkpt><trkpt lat="39.1934117" lon="16.1282567"><ele>1009.5</ele><time>2026-04-27T09:30:24.698Z</time></trkpt><trkpt lat="39.1935233" lon="16.1283417"><ele>1005.25</ele><time>2026-04-27T09:30:25.694Z</time></trkpt><trkpt lat="39.1936217" lon="16.1284183"><ele>1001.0</ele><time>2026-04-27T09:30:26.76Z</time></trkpt><trkpt lat="39.1937083" lon="16.1284933"><ele>1001.0000000000001</ele><time>2026-04-27T09:30:27.701Z</time></trkpt><trkpt lat="39.19379" lon="16.1285617"><ele>1001.0</ele><time>2026-04-27T09:30:28.705Z</time></trkpt><trkpt lat="39.1938733" lon="16.1286183"><ele>1001.0</ele><time>2026-04-27T09:30:29.695Z</time></trkpt><trkpt lat="39.1939567" lon="16.1286583"><ele>1001.0</ele><time>2026-04-27T09:30:30.696Z</time></trkpt><trkpt lat="39.194035" lon="16.1286817"><ele>1001.0000000000001</ele><time>2026-04-27T09:30:31.697Z</time></trkpt><trkpt lat="39.1941133" lon="16.1286983"><ele>1001.0</ele><time>2026-04-27T09:30:32.744Z</time></trkpt><trkpt lat="39.1942017" lon="16.1287217"><ele>1003.5999999999999</ele><time>2026-04-27T09:30:33.7Z</time></trkpt><trkpt lat="39.1942833" lon="16.1287533"><ele>1006.1999999999999</ele><time>2026-04-27T09:30:34.696Z</time></trkpt><trkpt lat="39.19437" lon="16.128805"><ele>1008.8000000000001</ele><time>2026-04-27T09:30:35.705Z</time></trkpt><trkpt lat="39.19444" lon="16.1288783"><ele>1011.4000000000001</ele><time>2026-04-27T09:30:36.697Z</time></trkpt><trkpt lat="39.1945167" lon="16.12896"><ele>1014.0</ele><time>2026-04-27T09:30:37.696Z</time></trkpt><trkpt lat="39.1945933" lon="16.1290333"><ele>1010.0</ele><time>2026-04-27T09:30:38.727Z</time></trkpt><trkpt lat="39.1946733" lon="16.1291"><ele>1006.0</ele><time>2026-04-27T09:30:39.692Z</time></trkpt><trkpt lat="39.1947483" lon="16.1291583"><ele>1002.0</ele><time>2026-04-27T09:30:40.696Z</time></trkpt><trkpt lat="39.19482" lon="16.1292167"><ele>998.0</ele><time>2026-04-27T09:30:41.692Z</time></trkpt><trkpt lat="39.1948933" lon="16.129285"><ele>994.0</ele><time>2026-04-27T09:30:42.702Z</time></trkpt><trkpt lat="39.1949583" lon="16.1293667"><ele>990.0</ele><time>2026-04-27T09:30:43.698Z</time></trkpt><trkpt lat="39.195025" lon="16.1294517"><ele>990.0</ele><time>2026-04-27T09:30:44.734Z</time></trkpt><trkpt lat="39.1950933" lon="16.1295583"><ele>990.0</ele><time>2026-04-27T09:30:45.697Z</time></trkpt><trkpt lat="39.1951817" lon="16.1296733"><ele>990.0</ele><time>2026-04-27T09:30:46.704Z</time></trkpt><trkpt lat="39.19529" lon="16.1297933"><ele>990.0</ele><time>2026-04-27T09:30:47.696Z</time></trkpt><trkpt lat="39.1954017" lon="16.1299117"><ele>989.0</ele><time>2026-04-27T09:30:48.696Z</time></trkpt><trkpt lat="39.19549" lon="16.1300217"><ele>988.0</ele><time>2026-04-27T09:30:49.695Z</time></trkpt><trkpt lat="39.195555" lon="16.1301067"><ele>987.0</ele><time>2026-04-27T09:30:50.738Z</time></trkpt><trkpt lat="39.1955917" lon="16.1301817"><ele>986.0</ele><time>2026-04-27T09:30:51.696Z</time></trkpt><trkpt lat="39.1956317" lon="16.130265"><ele>985.0</ele><time>2026-04-27T09:30:52.699Z</time></trkpt><trkpt lat="39.1956633" lon="16.13035"><ele>984.0</ele><time>2026-04-27T09:30:53.696Z</time></trkpt><trkpt lat="39.1956867" lon="16.1304483"><ele>984.0</ele><time>2026-04-27T09:30:54.703Z</time></trkpt><trkpt lat="39.1956933" lon="16.130555"><ele>984.0</ele><time>2026-04-27T09:30:55.698Z</time></trkpt><trkpt lat="39.1956783" lon="16.13065"><ele>984.0</ele><time>2026-04-27T09:30:56.767Z</time></trkpt><trkpt lat="39.1956383" lon="16.1307383"><ele>984.0</ele><time>2026-04-27T09:30:57.698Z</time></trkpt><trkpt lat="39.1955767" lon="16.1308133"><ele>984.0</ele><time>2026-04-27T09:30:58.699Z</time></trkpt><trkpt lat="39.1955067" lon="16.1308917"><ele>984.0</ele><time>2026-04-27T09:30:59.702Z</time></trkpt><trkpt lat="39.195405" lon="16.1309383"><ele>979.4000000000001</ele><time>2026-04-27T09:31:00.705Z</time></trkpt><trkpt lat="39.1953067" lon="16.1309767"><ele>974.8000000000001</ele><time>2026-04-27T09:31:01.696Z</time></trkpt><trkpt lat="39.1952133" lon="16.1310033"><ele>970.1999999999999</ele><time>2026-04-27T09:31:02.747Z</time></trkpt><trkpt lat="39.1951117" lon="16.131005"><ele>965.5999999999999</ele><time>2026-04-27T09:31:03.697Z</time></trkpt><trkpt lat="39.1950117" lon="16.1309917"><ele>961.0</ele><time>2026-04-27T09:31:04.697Z</time></trkpt><trkpt lat="39.1949083" lon="16.1309683"><ele>958.0</ele><time>2026-04-27T09:31:05.694Z</time></trkpt><trkpt lat="39.1947967" lon="16.1309567"><ele>954.9999999999999</ele><time>2026-04-27T09:31:06.704Z</time></trkpt><trkpt lat="39.194695" lon="16.1309533"><ele>951.9999999999999</ele><time>2026-04-27T09:31:07.695Z</time></trkpt><trkpt lat="39.1945917" lon="16.1309433"><ele>949.0</ele><time>2026-04-27T09:31:08.737Z</time></trkpt><trkpt lat="39.19449" lon="16.1309283"><ele>946.0</ele><time>2026-04-27T09:31:09.694Z</time></trkpt><trkpt lat="39.1943817" lon="16.130885"><ele>945.9999999999999</ele><time>2026-04-27T09:31:10.698Z</time></trkpt><trkpt lat="39.1943033" lon="16.1308483"><ele>946.0</ele><time>2026-04-27T09:31:11.698Z</time></trkpt><trkpt lat="39.19423" lon="16.13082"><ele>946.0</ele><time>2026-04-27T09:31:12.7Z</time></trkpt><trkpt lat="39.1941383" lon="16.1308117"><ele>946.0</ele><time>2026-04-27T09:31:14.73Z</time></trkpt><trkpt lat="39.1941417" lon="16.1309"><ele>945.9999999999999</ele><time>2026-04-27T09:31:16.697Z</time></trkpt><trkpt lat="39.1941683" lon="16.1309933"><ele>946.0</ele><time>2026-04-27T09:31:17.698Z</time></trkpt><trkpt lat="39.1942067" lon="16.1310867"><ele>945.9999999999999</ele><time>2026-04-27T09:31:18.707Z</time></trkpt><trkpt lat="39.194255" lon="16.1311633"><ele>946.0</ele><time>2026-04-27T09:31:19.692Z</time></trkpt><trkpt lat="39.1943083" lon="16.1312117"><ele>946.0</ele><time>2026-04-27T09:31:20.734Z</time></trkpt><trkpt lat="39.1944017" lon="16.1312733"><ele>946.0</ele><time>2026-04-27T09:31:21.699Z</time></trkpt><trkpt lat="39.1945" lon="16.1313133"><ele>945.9999999999999</ele><time>2026-04-27T09:31:22.701Z</time></trkpt><trkpt lat="39.1945767" lon="16.1313667"><ele>946.0</ele><time>2026-04-27T09:31:23.699Z</time></trkpt><trkpt lat="39.194655" lon="16.1314033"><ele>946.0</ele><time>2026-04-27T09:31:24.696Z</time></trkpt><trkpt lat="39.194715" lon="16.1314367"><ele>945.9999999999999</ele><time>2026-04-27T09:31:25.694Z</time></trkpt><trkpt lat="39.1947667" lon="16.1315517"><ele>945.9999999999999</ele><time>2026-04-27T09:31:27.695Z</time></trkpt><trkpt lat="39.1948183" lon="16.1317117"><ele>946.0</ele><time>2026-04-27T09:31:29.697Z</time></trkpt><trkpt lat="39.194915" lon="16.1318183"><ele>946.0</ele><time>2026-04-27T09:31:31.696Z</time></trkpt><trkpt lat="39.1949883" lon="16.1318667"><ele>946.0</ele><time>2026-04-27T09:31:32.736Z</time></trkpt><trkpt lat="39.1950483" lon="16.1319167"><ele>945.9999999999999</ele><time>2026-04-27T09:31:33.697Z</time></trkpt><trkpt lat="39.195095" lon="16.1319767"><ele>945.9999999999999</ele><time>2026-04-27T09:31:34.699Z</time></trkpt><trkpt lat="39.1951667" lon="16.13214"><ele>946.0</ele><time>2026-04-27T09:31:36.697Z</time></trkpt><trkpt lat="39.195185" lon="16.13227"><ele>946.0</ele><time>2026-04-27T09:31:37.698Z</time></trkpt><trkpt lat="39.1951867" lon="16.132415"><ele>944.1666666666666</ele><time>2026-04-27T09:31:38.733Z</time></trkpt><trkpt lat="39.195195" lon="16.1325417"><ele>942.3333333333333</ele><time>2026-04-27T09:31:39.701Z</time></trkpt><trkpt lat="39.1952017" lon="16.13265"><ele>940.5</ele><time>2026-04-27T09:31:40.701Z</time></trkpt><trkpt lat="39.1951983" lon="16.1327483"><ele>938.6666666666667</ele><time>2026-04-27T09:31:41.698Z</time></trkpt><trkpt lat="39.1951117" lon="16.1327933"><ele>936.8333333333334</ele><time>2026-04-27T09:31:44.735Z</time></trkpt><trkpt lat="39.1950483" lon="16.1327867"><ele>935.0</ele><time>2026-04-27T09:31:45.695Z</time></trkpt><trkpt lat="39.194965" lon="16.13277"><ele>935.0000000000001</ele><time>2026-04-27T09:31:46.696Z</time></trkpt><trkpt lat="39.194865" lon="16.1327583"><ele>935.0</ele><time>2026-04-27T09:31:47.695Z</time></trkpt><trkpt lat="39.1947783" lon="16.1327517"><ele>935.0</ele><time>2026-04-27T09:31:48.701Z</time></trkpt><trkpt lat="39.194695" lon="16.1327433"><ele>935.0</ele><time>2026-04-27T09:31:49.697Z</time></trkpt><trkpt lat="39.19462" lon="16.132725"><ele>935.0000000000001</ele><time>2026-04-27T09:31:50.726Z</time></trkpt><trkpt lat="39.1945417" lon="16.1326967"><ele>935.0</ele><time>2026-04-27T09:31:51.692Z</time></trkpt><trkpt lat="39.194455" lon="16.1326383"><ele>933.8</ele><time>2026-04-27T09:31:52.697Z</time></trkpt><trkpt lat="39.194375" lon="16.13256"><ele>932.6</ele><time>2026-04-27T09:31:53.695Z</time></trkpt><trkpt lat="39.1942983" lon="16.132495"><ele>931.4000000000001</ele><time>2026-04-27T09:31:54.7Z</time></trkpt><trkpt lat="39.19422" lon="16.1324383"><ele>930.2</ele><time>2026-04-27T09:31:55.701Z</time></trkpt><trkpt lat="39.1941267" lon="16.1323817"><ele>929.0</ele><time>2026-04-27T09:31:56.768Z</time></trkpt><trkpt lat="39.1940267" lon="16.132305"><ele>925.4000000000001</ele><time>2026-04-27T09:31:57.697Z</time></trkpt><trkpt lat="39.1939317" lon="16.1322367"><ele>921.8000000000001</ele><time>2026-04-27T09:31:58.692Z</time></trkpt><trkpt lat="39.1938283" lon="16.1321733"><ele>918.1999999999999</ele><time>2026-04-27T09:31:59.693Z</time></trkpt><trkpt lat="39.1937317" lon="16.1321183"><ele>914.5999999999999</ele><time>2026-04-27T09:32:00.702Z</time></trkpt><trkpt lat="39.193625" lon="16.13207"><ele>911.0</ele><time>2026-04-27T09:32:01.696Z</time></trkpt><trkpt lat="39.1935083" lon="16.1320417"><ele>911.0</ele><time>2026-04-27T09:32:02.764Z</time></trkpt><trkpt lat="39.1933733" lon="16.1320183"><ele>911.0</ele><time>2026-04-27T09:32:03.695Z</time></trkpt><trkpt lat="39.19324" lon="16.1320083"><ele>911.0</ele><time>2026-04-27T09:32:04.698Z</time></trkpt><trkpt lat="39.1931217" lon="16.1319967"><ele>911.0</ele><time>2026-04-27T09:32:05.699Z</time></trkpt><trkpt lat="39.1930067" lon="16.13198"><ele>907.8333333333334</ele><time>2026-04-27T09:32:06.703Z</time></trkpt><trkpt lat="39.1929067" lon="16.131955"><ele>904.6666666666667</ele><time>2026-04-27T09:32:07.695Z</time></trkpt><trkpt lat="39.192835" lon="16.131915"><ele>901.5</ele><time>2026-04-27T09:32:08.736Z</time></trkpt><trkpt lat="39.19281" lon="16.13183"><ele>898.3333333333333</ele><time>2026-04-27T09:32:09.693Z</time></trkpt><trkpt lat="39.192765" lon="16.131765"><ele>895.1666666666666</ele><time>2026-04-27T09:32:10.704Z</time></trkpt><trkpt lat="39.19269" lon="16.1316883"><ele>892.0</ele><time>2026-04-27T09:32:12.705Z</time></trkpt><trkpt lat="39.1926983" lon="16.1318533"><ele>892.0</ele><time>2026-04-27T09:32:17.699Z</time></trkpt><trkpt lat="39.192715" lon="16.1319367"><ele>892.0</ele><time>2026-04-27T09:32:18.703Z</time></trkpt><trkpt lat="39.1927333" lon="16.1320383"><ele>892.0</ele><time>2026-04-27T09:32:19.699Z</time></trkpt><trkpt lat="39.1927517" lon="16.1321983"><ele>892.0</ele><time>2026-04-27T09:32:21.692Z</time></trkpt><trkpt lat="39.1927417" lon="16.1323383"><ele>892.0</ele><time>2026-04-27T09:32:23.698Z</time></trkpt><trkpt lat="39.1926617" lon="16.1323283"><ele>891.9999999999999</ele><time>2026-04-27T09:32:24.703Z</time></trkpt><trkpt lat="39.1925833" lon="16.1323267"><ele>892.0</ele><time>2026-04-27T09:32:25.705Z</time></trkpt><trkpt lat="39.1924883" lon="16.1323167"><ele>892.0</ele><time>2026-04-27T09:32:26.768Z</time></trkpt><trkpt lat="39.192385" lon="16.1323183"><ele>892.0</ele><time>2026-04-27T09:32:27.695Z</time></trkpt><trkpt lat="39.1923" lon="16.13232"><ele>891.9999999999999</ele><time>2026-04-27T09:32:28.698Z</time></trkpt><trkpt lat="39.192235" lon="16.13233"><ele>892.0</ele><time>2026-04-27T09:32:29.694Z</time></trkpt><trkpt lat="39.1922433" lon="16.1324517"><ele>886.4000000000001</ele><time>2026-04-27T09:32:34.701Z</time></trkpt><trkpt lat="39.192265" lon="16.13255"><ele>880.8000000000001</ele><time>2026-04-27T09:32:36.702Z</time></trkpt><trkpt lat="39.19228" lon="16.1326833"><ele>875.2</ele><time>2026-04-27T09:32:38.733Z</time></trkpt><trkpt lat="39.192255" lon="16.1328133"><ele>869.6</ele><time>2026-04-27T09:32:40.707Z</time></trkpt><trkpt lat="39.19216" lon="16.1328617"><ele>864.0</ele><time>2026-04-27T09:32:42.697Z</time></trkpt><trkpt lat="39.1920467" lon="16.13283"><ele>864.0</ele><time>2026-04-27T09:32:44.734Z</time></trkpt><trkpt lat="39.1919783" lon="16.1328217"><ele>864.0</ele><time>2026-04-27T09:32:45.697Z</time></trkpt><trkpt lat="39.191905" lon="16.1328317"><ele>864.0</ele><time>2026-04-27T09:32:46.698Z</time></trkpt><trkpt lat="39.1918367" lon="16.13286"><ele>864.0</ele><time>2026-04-27T09:32:47.694Z</time></trkpt><trkpt lat="39.1917683" lon="16.1329083"><ele>864.0</ele><time>2026-04-27T09:32:48.7Z</time></trkpt><trkpt lat="39.1917117" lon="16.1329617"><ele>864.0</ele><time>2026-04-27T09:32:49.692Z</time></trkpt><trkpt lat="39.1916617" lon="16.1330233"><ele>864.0</ele><time>2026-04-27T09:32:50.733Z</time></trkpt><trkpt lat="39.19162" lon="16.1330867"><ele>864.0</ele><time>2026-04-27T09:32:51.692Z</time></trkpt><trkpt lat="39.1916067" lon="16.1331767"><ele>864.0</ele><time>2026-04-27T09:32:52.702Z</time></trkpt><trkpt lat="39.1916133" lon="16.1332833"><ele>864.0</ele><time>2026-04-27T09:32:53.695Z</time></trkpt><trkpt lat="39.1916317" lon="16.1333967"><ele>864.0</ele><time>2026-04-27T09:32:54.694Z</time></trkpt><trkpt lat="39.1916683" lon="16.1335033"><ele>864.0</ele><time>2026-04-27T09:32:55.696Z</time></trkpt><trkpt lat="39.1917267" lon="16.1336017"><ele>864.0</ele><time>2026-04-27T09:32:56.733Z</time></trkpt><trkpt lat="39.1917633" lon="16.133675"><ele>863.4000000000001</ele><time>2026-04-27T09:32:57.692Z</time></trkpt><trkpt lat="39.19176" lon="16.1337833"><ele>862.8000000000001</ele><time>2026-04-27T09:32:59.698Z</time></trkpt><trkpt lat="39.1916917" lon="16.1338317"><ele>862.1999999999999</ele><time>2026-04-27T09:33:01.697Z</time></trkpt><trkpt lat="39.1915517" lon="16.1338367"><ele>861.5999999999999</ele><time>2026-04-27T09:33:03.694Z</time></trkpt><trkpt lat="39.1914267" lon="16.13376"><ele>861.0</ele><time>2026-04-27T09:33:04.7Z</time></trkpt><trkpt lat="39.1913217" lon="16.1337017"><ele>856.25</ele><time>2026-04-27T09:33:05.697Z</time></trkpt><trkpt lat="39.1912083" lon="16.1336467"><ele>851.5</ele><time>2026-04-27T09:33:06.704Z</time></trkpt><trkpt lat="39.1911017" lon="16.1335817"><ele>846.75</ele><time>2026-04-27T09:33:07.702Z</time></trkpt><trkpt lat="39.1910017" lon="16.1335033"><ele>842.0</ele><time>2026-04-27T09:33:08.731Z</time></trkpt><trkpt lat="39.19091" lon="16.1334083"><ele>842.0</ele><time>2026-04-27T09:33:09.696Z</time></trkpt><trkpt lat="39.1908117" lon="16.1333217"><ele>842.0</ele><time>2026-04-27T09:33:10.702Z</time></trkpt><trkpt lat="39.19071" lon="16.1332383"><ele>842.0</ele><time>2026-04-27T09:33:11.694Z</time></trkpt><trkpt lat="39.190585" lon="16.1331733"><ele>842.0</ele><time>2026-04-27T09:33:12.706Z</time></trkpt><trkpt lat="39.1904417" lon="16.1331267"><ele>839.5</ele><time>2026-04-27T09:33:13.702Z</time></trkpt><trkpt lat="39.1903033" lon="16.133095"><ele>837.0</ele><time>2026-04-27T09:33:14.734Z</time></trkpt><trkpt lat="39.1901517" lon="16.133095"><ele>834.5</ele><time>2026-04-27T09:33:15.695Z</time></trkpt><trkpt lat="39.1899967" lon="16.13309"><ele>832.0</ele><time>2026-04-27T09:33:16.696Z</time></trkpt><trkpt lat="39.1898567" lon="16.1330667"><ele>827.75</ele><time>2026-04-27T09:33:17.704Z</time></trkpt><trkpt lat="39.189725" lon="16.1330267"><ele>823.5</ele><time>2026-04-27T09:33:18.698Z</time></trkpt><trkpt lat="39.189595" lon="16.132975"><ele>819.25</ele><time>2026-04-27T09:33:19.699Z</time></trkpt><trkpt lat="39.189475" lon="16.1329233"><ele>815.0</ele><time>2026-04-27T09:33:20.728Z</time></trkpt><trkpt lat="39.1893667" lon="16.1328733"><ele>815.0</ele><time>2026-04-27T09:33:21.695Z</time></trkpt><trkpt lat="39.1892733" lon="16.1328417"><ele>815.0</ele><time>2026-04-27T09:33:22.7Z</time></trkpt><trkpt lat="39.1892067" lon="16.1328917"><ele>815.0</ele><time>2026-04-27T09:33:24.696Z</time></trkpt><trkpt lat="39.18911" lon="16.1329567"><ele>815.0</ele><time>2026-04-27T09:33:25.696Z</time></trkpt><trkpt lat="39.1889983" lon="16.1329933"><ele>815.0</ele><time>2026-04-27T09:33:26.751Z</time></trkpt><trkpt lat="39.1889017" lon="16.1330333"><ele>812.2</ele><time>2026-04-27T09:33:27.698Z</time></trkpt><trkpt lat="39.1888267" lon="16.1330617"><ele>809.4</ele><time>2026-04-27T09:33:28.699Z</time></trkpt><trkpt lat="39.1888567" lon="16.13292"><ele>806.5999999999999</ele><time>2026-04-27T09:33:31.699Z</time></trkpt><trkpt lat="39.188885" lon="16.1327683"><ele>803.8</ele><time>2026-04-27T09:33:33.694Z</time></trkpt><trkpt lat="39.188855" lon="16.13261"><ele>801.0</ele><time>2026-04-27T09:33:35.698Z</time></trkpt><trkpt lat="39.188815" lon="16.132505"><ele>804.4</ele><time>2026-04-27T09:33:36.703Z</time></trkpt><trkpt lat="39.18876" lon="16.1323833"><ele>807.8</ele><time>2026-04-27T09:33:37.701Z</time></trkpt><trkpt lat="39.1887" lon="16.1322717"><ele>811.1999999999999</ele><time>2026-04-27T09:33:38.738Z</time></trkpt><trkpt lat="39.1886433" lon="16.1321733"><ele>814.5999999999999</ele><time>2026-04-27T09:33:39.696Z</time></trkpt><trkpt lat="39.1885733" lon="16.1320933"><ele>818.0</ele><time>2026-04-27T09:33:40.703Z</time></trkpt><trkpt lat="39.188485" lon="16.1320217"><ele>818.0</ele><time>2026-04-27T09:33:41.699Z</time></trkpt><trkpt lat="39.1883633" lon="16.1319683"><ele>818.0</ele><time>2026-04-27T09:33:42.699Z</time></trkpt><trkpt lat="39.1882217" lon="16.1319117"><ele>818.0</ele><time>2026-04-27T09:33:43.7Z</time></trkpt><trkpt lat="39.188105" lon="16.13185"><ele>818.0</ele><time>2026-04-27T09:33:44.732Z</time></trkpt><trkpt lat="39.187985" lon="16.1317967"><ele>816.2</ele><time>2026-04-27T09:33:45.701Z</time></trkpt><trkpt lat="39.1878933" lon="16.1317617"><ele>814.4</ele><time>2026-04-27T09:33:46.692Z</time></trkpt><trkpt lat="39.1878233" lon="16.131755"><ele>812.6</ele><time>2026-04-27T09:33:47.697Z</time></trkpt><trkpt lat="39.1877417" lon="16.1317783"><ele>810.8000000000001</ele><time>2026-04-27T09:33:48.709Z</time></trkpt><trkpt lat="39.187645" lon="16.1318017"><ele>809.0</ele><time>2026-04-27T09:33:49.699Z</time></trkpt><trkpt lat="39.18754" lon="16.131805"><ele>809.0</ele><time>2026-04-27T09:33:50.733Z</time></trkpt><trkpt lat="39.1874133" lon="16.1318133"><ele>809.0</ele><time>2026-04-27T09:33:51.696Z</time></trkpt><trkpt lat="39.18726" lon="16.1318333"><ele>809.0</ele><time>2026-04-27T09:33:52.705Z</time></trkpt><trkpt lat="39.18712" lon="16.1318383"><ele>809.0</ele><time>2026-04-27T09:33:53.7Z</time></trkpt><trkpt lat="39.1869783" lon="16.13188"><ele>806.4000000000001</ele><time>2026-04-27T09:33:54.697Z</time></trkpt><trkpt lat="39.1868617" lon="16.1319083"><ele>803.8</ele><time>2026-04-27T09:33:55.697Z</time></trkpt><trkpt lat="39.186755" lon="16.13194"><ele>801.2</ele><time>2026-04-27T09:33:56.739Z</time></trkpt><trkpt lat="39.186655" lon="16.1319567"><ele>798.5999999999999</ele><time>2026-04-27T09:33:57.693Z</time></trkpt><trkpt lat="39.1865867" lon="16.1319567"><ele>796.0</ele><time>2026-04-27T09:33:58.698Z</time></trkpt><trkpt lat="39.1865233" lon="16.1317983"><ele>800.5</ele><time>2026-04-27T09:34:00.707Z</time></trkpt><trkpt lat="39.18658" lon="16.1315333"><ele>805.0</ele><time>2026-04-27T09:34:01.691Z</time></trkpt><trkpt lat="39.1865717" lon="16.13143"><ele>809.5</ele><time>2026-04-27T09:34:02.743Z</time></trkpt><trkpt lat="39.1865683" lon="16.131325"><ele>814.0</ele><time>2026-04-27T09:34:03.693Z</time></trkpt><trkpt lat="39.1865633" lon="16.1312267"><ele>814.0</ele><time>2026-04-27T09:34:04.698Z</time></trkpt><trkpt lat="39.1865583" lon="16.1310883"><ele>814.0</ele><time>2026-04-27T09:34:06.701Z</time></trkpt><trkpt lat="39.18649" lon="16.1311917"><ele>814.0</ele><time>2026-04-27T09:34:08.732Z</time></trkpt><trkpt lat="39.186425" lon="16.13126"><ele>814.0</ele><time>2026-04-27T09:34:09.696Z</time></trkpt><trkpt lat="39.1863417" lon="16.13139"><ele>814.0</ele><time>2026-04-27T09:34:10.692Z</time></trkpt><trkpt lat="39.1862517" lon="16.1315483"><ele>807.3333333333333</ele><time>2026-04-27T09:34:11.689Z</time></trkpt><trkpt lat="39.1861483" lon="16.1317233"><ele>800.6666666666667</ele><time>2026-04-27T09:34:12.698Z</time></trkpt><trkpt lat="39.1859217" lon="16.131915"><ele>794.0</ele><time>2026-04-27T09:34:13.692Z</time></trkpt><trkpt lat="39.18577" lon="16.131995"><ele>795.3333333333334</ele><time>2026-04-27T09:34:14.733Z</time></trkpt><trkpt lat="39.18563" lon="16.1321067"><ele>796.6666666666667</ele><time>2026-04-27T09:34:15.695Z</time></trkpt><trkpt lat="39.18549" lon="16.1321983"><ele>798.0</ele><time>2026-04-27T09:34:16.701Z</time></trkpt><trkpt lat="39.185365" lon="16.13228"><ele>798.0</ele><time>2026-04-27T09:34:17.698Z</time></trkpt><trkpt lat="39.1852267" lon="16.1323517"><ele>798.0</ele><time>2026-04-27T09:34:18.704Z</time></trkpt><trkpt lat="39.185085" lon="16.1324217"><ele>798.0</ele><time>2026-04-27T09:34:19.704Z</time></trkpt><trkpt lat="39.184935" lon="16.13247"><ele>788.3333333333333</ele><time>2026-04-27T09:34:20.73Z</time></trkpt><trkpt lat="39.1848033" lon="16.1325233"><ele>778.6666666666666</ele><time>2026-04-27T09:34:21.697Z</time></trkpt><trkpt lat="39.1846283" lon="16.132535"><ele>769.0</ele><time>2026-04-27T09:34:22.702Z</time></trkpt><trkpt lat="39.184485" lon="16.1325467"><ele>769.0</ele><time>2026-04-27T09:34:23.699Z</time></trkpt><trkpt lat="39.1843317" lon="16.1324733"><ele>769.0</ele><time>2026-04-27T09:34:24.699Z</time></trkpt><trkpt lat="39.1842017" lon="16.1323617"><ele>769.0</ele><time>2026-04-27T09:34:25.698Z</time></trkpt><trkpt lat="39.1840767" lon="16.1322567"><ele>776.8000000000001</ele><time>2026-04-27T09:34:26.741Z</time></trkpt><trkpt lat="39.1839717" lon="16.132165"><ele>784.6</ele><time>2026-04-27T09:34:27.704Z</time></trkpt><trkpt lat="39.1838817" lon="16.13209"><ele>792.4</ele><time>2026-04-27T09:34:28.704Z</time></trkpt><trkpt lat="39.183795" lon="16.13205"><ele>800.2</ele><time>2026-04-27T09:34:29.699Z</time></trkpt><trkpt lat="39.183825" lon="16.132145"><ele>808.0</ele><time>2026-04-27T09:34:33.693Z</time></trkpt><trkpt lat="39.1838783" lon="16.1322383"><ele>798.25</ele><time>2026-04-27T09:34:34.695Z</time></trkpt><trkpt lat="39.1840533" lon="16.1324433"><ele>788.5</ele><time>2026-04-27T09:34:35.703Z</time></trkpt><trkpt lat="39.1841117" lon="16.132555"><ele>778.75</ele><time>2026-04-27T09:34:36.697Z</time></trkpt><trkpt lat="39.1841567" lon="16.1326483"><ele>769.0</ele><time>2026-04-27T09:34:37.7Z</time></trkpt><trkpt lat="39.1842333" lon="16.13275"><ele>769.0</ele><time>2026-04-27T09:34:38.731Z</time></trkpt><trkpt lat="39.1842717" lon="16.1328367"><ele>769.0</ele><time>2026-04-27T09:34:39.694Z</time></trkpt><trkpt lat="39.1843367" lon="16.132925"><ele>769.0</ele><time>2026-04-27T09:34:40.701Z</time></trkpt><trkpt lat="39.1844183" lon="16.1330183"><ele>769.0</ele><time>2026-04-27T09:34:41.695Z</time></trkpt><trkpt lat="39.1844767" lon="16.133145"><ele>769.0</ele><time>2026-04-27T09:34:42.695Z</time></trkpt><trkpt lat="39.1845267" lon="16.1332533"><ele>765.0</ele><time>2026-04-27T09:34:43.694Z</time></trkpt><trkpt lat="39.1845783" lon="16.13335"><ele>761.0</ele><time>2026-04-27T09:34:44.732Z</time></trkpt><trkpt lat="39.1846367" lon="16.133455"><ele>757.0</ele><time>2026-04-27T09:34:45.69Z</time></trkpt><trkpt lat="39.1847033" lon="16.1335383"><ele>753.0</ele><time>2026-04-27T09:34:46.697Z</time></trkpt><trkpt lat="39.184855" lon="16.1335717"><ele>749.0</ele><time>2026-04-27T09:34:47.694Z</time></trkpt><trkpt lat="39.1850083" lon="16.1335883"><ele>749.0</ele><time>2026-04-27T09:34:48.7Z</time></trkpt><trkpt lat="39.18514" lon="16.133615"><ele>749.0</ele><time>2026-04-27T09:34:49.695Z</time></trkpt><trkpt lat="39.1852483" lon="16.13363"><ele>749.0</ele><time>2026-04-27T09:34:50.73Z</time></trkpt><trkpt lat="39.1853583" lon="16.1336467"><ele>749.0</ele><time>2026-04-27T09:34:51.699Z</time></trkpt><trkpt lat="39.1854683" lon="16.1336383"><ele>749.0</ele><time>2026-04-27T09:34:52.697Z</time></trkpt><trkpt lat="39.1855683" lon="16.1336267"><ele>749.0</ele><time>2026-04-27T09:34:53.699Z</time></trkpt><trkpt lat="39.1856583" lon="16.1336067"><ele>749.0</ele><time>2026-04-27T09:34:54.702Z</time></trkpt><trkpt lat="39.185735" lon="16.133605"><ele>749.0</ele><time>2026-04-27T09:34:55.698Z</time></trkpt><trkpt lat="39.1858" lon="16.13363"><ele>749.0</ele><time>2026-04-27T09:34:56.762Z</time></trkpt><trkpt lat="39.1858617" lon="16.1336917"><ele>749.0</ele><time>2026-04-27T09:34:58.697Z</time></trkpt><trkpt lat="39.1858083" lon="16.13379"><ele>749.0</ele><time>2026-04-27T09:35:00.693Z</time></trkpt><trkpt lat="39.1857417" lon="16.13387"><ele>749.0</ele><time>2026-04-27T09:35:01.7Z</time></trkpt><trkpt lat="39.1856617" lon="16.133955"><ele>749.0</ele><time>2026-04-27T09:35:02.734Z</time></trkpt><trkpt lat="39.1855933" lon="16.13403"><ele>749.0</ele><time>2026-04-27T09:35:03.696Z</time></trkpt><trkpt lat="39.1855117" lon="16.1341067"><ele>749.0</ele><time>2026-04-27T09:35:04.699Z</time></trkpt><trkpt lat="39.1854117" lon="16.1341717"><ele>739.25</ele><time>2026-04-27T09:35:05.695Z</time></trkpt><trkpt lat="39.1852833" lon="16.1342133"><ele>729.5</ele><time>2026-04-27T09:35:06.7Z</time></trkpt><trkpt lat="39.1851683" lon="16.1342533"><ele>719.75</ele><time>2026-04-27T09:35:07.693Z</time></trkpt><trkpt lat="39.18503" lon="16.1342633"><ele>710.0</ele><time>2026-04-27T09:35:08.73Z</time></trkpt><trkpt lat="39.1848617" lon="16.134305"><ele>707.75</ele><time>2026-04-27T09:35:09.694Z</time></trkpt><trkpt lat="39.1847117" lon="16.1343317"><ele>705.5</ele><time>2026-04-27T09:35:10.697Z</time></trkpt><trkpt lat="39.1845917" lon="16.134345"><ele>703.25</ele><time>2026-04-27T09:35:11.692Z</time></trkpt><trkpt lat="39.1844733" lon="16.1343583"><ele>701.0</ele><time>2026-04-27T09:35:12.691Z</time></trkpt><trkpt lat="39.1843717" lon="16.13434"><ele>701.0</ele><time>2026-04-27T09:35:13.695Z</time></trkpt><trkpt lat="39.1842783" lon="16.134285"><ele>701.0</ele><time>2026-04-27T09:35:14.737Z</time></trkpt><trkpt lat="39.1842017" lon="16.13421"><ele>701.0</ele><time>2026-04-27T09:35:15.691Z</time></trkpt><trkpt lat="39.184145" lon="16.1341633"><ele>701.0</ele><time>2026-04-27T09:35:16.703Z</time></trkpt><trkpt lat="39.1840917" lon="16.1341083"><ele>701.0</ele><time>2026-04-27T09:35:18.695Z</time></trkpt><trkpt lat="39.18404" lon="16.1342383"><ele>701.0</ele><time>2026-04-27T09:35:20.731Z</time></trkpt><trkpt lat="39.1839583" lon="16.1343533"><ele>705.75</ele><time>2026-04-27T09:35:21.696Z</time></trkpt><trkpt lat="39.1838717" lon="16.134475"><ele>710.5</ele><time>2026-04-27T09:35:22.697Z</time></trkpt><trkpt lat="39.18378" lon="16.1345983"><ele>715.25</ele><time>2026-04-27T09:35:23.699Z</time></trkpt><trkpt lat="39.183705" lon="16.1347133"><ele>720.0</ele><time>2026-04-27T09:35:24.694Z</time></trkpt><trkpt lat="39.183625" lon="16.1348083"><ele>712.25</ele><time>2026-04-27T09:35:25.698Z</time></trkpt><trkpt lat="39.18353" lon="16.1348917"><ele>704.5</ele><time>2026-04-27T09:35:26.735Z</time></trkpt><trkpt lat="39.1834233" lon="16.1349767"><ele>696.75</ele><time>2026-04-27T09:35:27.693Z</time></trkpt><trkpt lat="39.1833217" lon="16.13505"><ele>689.0</ele><time>2026-04-27T09:35:28.698Z</time></trkpt><trkpt lat="39.1832067" lon="16.13511"><ele>690.5</ele><time>2026-04-27T09:35:29.697Z</time></trkpt><trkpt lat="39.1831217" lon="16.1351967"><ele>692.0</ele><time>2026-04-27T09:35:30.691Z</time></trkpt><trkpt lat="39.183025" lon="16.1352817"><ele>693.5</ele><time>2026-04-27T09:35:31.695Z</time></trkpt><trkpt lat="39.182935" lon="16.1353933"><ele>695.0</ele><time>2026-04-27T09:35:32.737Z</time></trkpt><trkpt lat="39.1828333" lon="16.1355133"><ele>695.0</ele><time>2026-04-27T09:35:33.699Z</time></trkpt><trkpt lat="39.1827633" lon="16.13565"><ele>695.0</ele><time>2026-04-27T09:35:34.697Z</time></trkpt><trkpt lat="39.1826983" lon="16.1357733"><ele>695.0</ele><time>2026-04-27T09:35:35.695Z</time></trkpt><trkpt lat="39.1826383" lon="16.135875"><ele>695.0</ele><time>2026-04-27T09:35:36.692Z</time></trkpt><trkpt lat="39.1825833" lon="16.1359717"><ele>695.0</ele><time>2026-04-27T09:35:37.696Z</time></trkpt><trkpt lat="39.1825633" lon="16.1361083"><ele>692.1666666666666</ele><time>2026-04-27T09:35:39.697Z</time></trkpt><trkpt lat="39.1826083" lon="16.1361733"><ele>689.3333333333333</ele><time>2026-04-27T09:35:40.694Z</time></trkpt><trkpt lat="39.182655" lon="16.1362567"><ele>686.5</ele><time>2026-04-27T09:35:41.691Z</time></trkpt><trkpt lat="39.18268" lon="16.1363383"><ele>683.6666666666666</ele><time>2026-04-27T09:35:42.69Z</time></trkpt><trkpt lat="39.1826883" lon="16.1365017"><ele>680.8333333333334</ele><time>2026-04-27T09:35:44.732Z</time></trkpt><trkpt lat="39.1826417" lon="16.13659"><ele>678.0</ele><time>2026-04-27T09:35:46.69Z</time></trkpt><trkpt lat="39.1825117" lon="16.1366067"><ele>675.1666666666666</ele><time>2026-04-27T09:35:48.69Z</time></trkpt><trkpt lat="39.1824217" lon="16.1366083"><ele>672.3333333333334</ele><time>2026-04-27T09:35:49.689Z</time></trkpt><trkpt lat="39.1823217" lon="16.1366067"><ele>669.5</ele><time>2026-04-27T09:35:50.728Z</time></trkpt><trkpt lat="39.182255" lon="16.136625"><ele>666.6666666666667</ele><time>2026-04-27T09:35:51.691Z</time></trkpt><trkpt lat="39.1822333" lon="16.1367117"><ele>663.8333333333334</ele><time>2026-04-27T09:35:54.693Z</time></trkpt><trkpt lat="39.1823133" lon="16.1367783"><ele>661.0</ele><time>2026-04-27T09:35:56.734Z</time></trkpt><trkpt lat="39.1824217" lon="16.1368733"><ele>661.0</ele><time>2026-04-27T09:35:58.692Z</time></trkpt><trkpt lat="39.182485" lon="16.1369533"><ele>661.0</ele><time>2026-04-27T09:35:59.693Z</time></trkpt><trkpt lat="39.18253" lon="16.1370417"><ele>661.0</ele><time>2026-04-27T09:36:00.7Z</time></trkpt><trkpt lat="39.1825683" lon="16.1371333"><ele>661.0</ele><time>2026-04-27T09:36:01.69Z</time></trkpt><trkpt lat="39.1825917" lon="16.1372117"><ele>661.0</ele><time>2026-04-27T09:36:02.735Z</time></trkpt><trkpt lat="39.1825767" lon="16.1373667"><ele>661.0</ele><time>2026-04-27T09:36:04.696Z</time></trkpt><trkpt lat="39.1824967" lon="16.137445"><ele>655.25</ele><time>2026-04-27T09:36:05.69Z</time></trkpt><trkpt lat="39.1824017" lon="16.1375167"><ele>649.5</ele><time>2026-04-27T09:36:06.697Z</time></trkpt><trkpt lat="39.1822767" lon="16.1376017"><ele>643.75</ele><time>2026-04-27T09:36:07.693Z</time></trkpt><trkpt lat="39.1821733" lon="16.13768"><ele>638.0</ele><time>2026-04-27T09:36:08.725Z</time></trkpt><trkpt lat="39.18207" lon="16.137735"><ele>633.5</ele><time>2026-04-27T09:36:09.69Z</time></trkpt><trkpt lat="39.1819917" lon="16.137745"><ele>629.0</ele><time>2026-04-27T09:36:10.692Z</time></trkpt><trkpt lat="39.1818833" lon="16.1375517"><ele>624.5</ele><time>2026-04-27T09:36:11.69Z</time></trkpt><trkpt lat="39.1817933" lon="16.1374933"><ele>620.0</ele><time>2026-04-27T09:36:12.698Z</time></trkpt><trkpt lat="39.1817183" lon="16.1373883"><ele>623.5</ele><time>2026-04-27T09:36:13.693Z</time></trkpt><trkpt lat="39.1816467" lon="16.1372417"><ele>627.0</ele><time>2026-04-27T09:36:14.722Z</time></trkpt><trkpt lat="39.1815833" lon="16.1370917"><ele>630.5</ele><time>2026-04-27T09:36:15.691Z</time></trkpt><trkpt lat="39.1815267" lon="16.136965"><ele>634.0</ele><time>2026-04-27T09:36:16.69Z</time></trkpt><trkpt lat="39.181475" lon="16.1368533"><ele>634.0</ele><time>2026-04-27T09:36:18.692Z</time></trkpt><trkpt lat="39.18151" lon="16.1370067"><ele>634.0</ele><time>2026-04-27T09:36:22.694Z</time></trkpt><trkpt lat="39.1815217" lon="16.1371633"><ele>634.0</ele><time>2026-04-27T09:36:23.69Z</time></trkpt><trkpt lat="39.1815217" lon="16.13735"><ele>634.0</ele><time>2026-04-27T09:36:24.698Z</time></trkpt><trkpt lat="39.1815017" lon="16.1375433"><ele>622.25</ele><time>2026-04-27T09:36:25.69Z</time></trkpt><trkpt lat="39.181475" lon="16.1377333"><ele>610.5</ele><time>2026-04-27T09:36:26.733Z</time></trkpt><trkpt lat="39.1814617" lon="16.1379217"><ele>598.75</ele><time>2026-04-27T09:36:27.692Z</time></trkpt><trkpt lat="39.18146" lon="16.1381"><ele>587.0</ele><time>2026-04-27T09:36:28.689Z</time></trkpt><trkpt lat="39.1814417" lon="16.1382633"><ele>585.0</ele><time>2026-04-27T09:36:29.696Z</time></trkpt><trkpt lat="39.1814517" lon="16.1383933"><ele>583.0</ele><time>2026-04-27T09:36:30.692Z</time></trkpt><trkpt lat="39.181475" lon="16.1384967"><ele>581.0</ele><time>2026-04-27T09:36:31.695Z</time></trkpt><trkpt lat="39.1815367" lon="16.1385617"><ele>579.0</ele><time>2026-04-27T09:36:32.737Z</time></trkpt><trkpt lat="39.1816267" lon="16.1386217"><ele>577.0</ele><time>2026-04-27T09:36:33.694Z</time></trkpt><trkpt lat="39.1817267" lon="16.1386617"><ele>586.0</ele><time>2026-04-27T09:36:34.687Z</time></trkpt><trkpt lat="39.1818733" lon="16.138695"><ele>595.0</ele><time>2026-04-27T09:36:35.686Z</time></trkpt><trkpt lat="39.1820333" lon="16.1387483"><ele>604.0</ele><time>2026-04-27T09:36:36.699Z</time></trkpt><trkpt lat="39.1821683" lon="16.1388267"><ele>604.0</ele><time>2026-04-27T09:36:37.693Z</time></trkpt><trkpt lat="39.1822983" lon="16.1388817"><ele>604.0</ele><time>2026-04-27T09:36:38.73Z</time></trkpt><trkpt lat="39.182405" lon="16.1389183"><ele>604.0</ele><time>2026-04-27T09:36:39.687Z</time></trkpt><trkpt lat="39.1824917" lon="16.138945"><ele>604.0</ele><time>2026-04-27T09:36:40.698Z</time></trkpt><trkpt lat="39.1825783" lon="16.1389467"><ele>604.0</ele><time>2026-04-27T09:36:41.689Z</time></trkpt><trkpt lat="39.1826783" lon="16.1389117"><ele>605.5</ele><time>2026-04-27T09:36:42.692Z</time></trkpt><trkpt lat="39.1827767" lon="16.1388183"><ele>607.0</ele><time>2026-04-27T09:36:43.694Z</time></trkpt><trkpt lat="39.182885" lon="16.1386867"><ele>608.5</ele><time>2026-04-27T09:36:44.731Z</time></trkpt><trkpt lat="39.18301" lon="16.138525"><ele>610.0</ele><time>2026-04-27T09:36:45.689Z</time></trkpt><trkpt lat="39.1831383" lon="16.138355"><ele>612.0</ele><time>2026-04-27T09:36:46.696Z</time></trkpt><trkpt lat="39.1832583" lon="16.1382167"><ele>614.0</ele><time>2026-04-27T09:36:47.694Z</time></trkpt><trkpt lat="39.1833783" lon="16.138095"><ele>616.0</ele><time>2026-04-27T09:36:48.695Z</time></trkpt><trkpt lat="39.183485" lon="16.1379833"><ele>616.0</ele><time>2026-04-27T09:36:49.694Z</time></trkpt><trkpt lat="39.183595" lon="16.13788"><ele>616.0</ele><time>2026-04-27T09:36:50.732Z</time></trkpt><trkpt lat="39.18369" lon="16.1378"><ele>616.0</ele><time>2026-04-27T09:36:51.691Z</time></trkpt><trkpt lat="39.1837817" lon="16.1378567"><ele>616.0</ele><time>2026-04-27T09:36:53.7Z</time></trkpt><trkpt lat="39.1838383" lon="16.1379317"><ele>616.0</ele><time>2026-04-27T09:36:55.701Z</time></trkpt><trkpt lat="39.18385" lon="16.1380333"><ele>616.0</ele><time>2026-04-27T09:36:56.741Z</time></trkpt><trkpt lat="39.1838533" lon="16.13816"><ele>616.0</ele><time>2026-04-27T09:36:57.695Z</time></trkpt><trkpt lat="39.1838767" lon="16.13827"><ele>616.0</ele><time>2026-04-27T09:36:58.698Z</time></trkpt><trkpt lat="39.1839183" lon="16.1383683"><ele>616.0</ele><time>2026-04-27T09:36:59.692Z</time></trkpt><trkpt lat="39.183975" lon="16.13845"><ele>616.0</ele><time>2026-04-27T09:37:00.694Z</time></trkpt><trkpt lat="39.1840567" lon="16.1385033"><ele>607.75</ele><time>2026-04-27T09:37:01.693Z</time></trkpt><trkpt lat="39.1841567" lon="16.1385167"><ele>599.5</ele><time>2026-04-27T09:37:02.734Z</time></trkpt><trkpt lat="39.18427" lon="16.1385167"><ele>591.25</ele><time>2026-04-27T09:37:03.694Z</time></trkpt><trkpt lat="39.1843917" lon="16.1385067"><ele>583.0</ele><time>2026-04-27T09:37:04.691Z</time></trkpt><trkpt lat="39.1845283" lon="16.13849"><ele>583.0</ele><time>2026-04-27T09:37:05.694Z</time></trkpt><trkpt lat="39.1846567" lon="16.1384783"><ele>583.0</ele><time>2026-04-27T09:37:06.698Z</time></trkpt><trkpt lat="39.184785" lon="16.1384517"><ele>583.0</ele><time>2026-04-27T09:37:07.694Z</time></trkpt><trkpt lat="39.184915" lon="16.138435"><ele>583.0</ele><time>2026-04-27T09:37:08.737Z</time></trkpt><trkpt lat="39.1850217" lon="16.13843"><ele>586.0</ele><time>2026-04-27T09:37:09.697Z</time></trkpt><trkpt lat="39.1850983" lon="16.13847"><ele>589.0</ele><time>2026-04-27T09:37:10.693Z</time></trkpt><trkpt lat="39.1851533" lon="16.1385467"><ele>592.0</ele><time>2026-04-27T09:37:11.69Z</time></trkpt><trkpt lat="39.1852183" lon="16.1386683"><ele>595.0</ele><time>2026-04-27T09:37:12.691Z</time></trkpt><trkpt lat="39.185235" lon="16.1388467"><ele>598.0</ele><time>2026-04-27T09:37:13.691Z</time></trkpt><trkpt lat="39.1852567" lon="16.1390167"><ele>596.6</ele><time>2026-04-27T09:37:14.725Z</time></trkpt><trkpt lat="39.185255" lon="16.13916"><ele>595.1999999999999</ele><time>2026-04-27T09:37:15.691Z</time></trkpt><trkpt lat="39.18524" lon="16.139305"><ele>593.8</ele><time>2026-04-27T09:37:16.691Z</time></trkpt><trkpt lat="39.1852167" lon="16.13945"><ele>592.4</ele><time>2026-04-27T09:37:17.694Z</time></trkpt><trkpt lat="39.185205" lon="16.1395683"><ele>591.0</ele><time>2026-04-27T09:37:18.696Z</time></trkpt><trkpt lat="39.1852" lon="16.1396817"><ele>591.0</ele><time>2026-04-27T09:37:19.69Z</time></trkpt><trkpt lat="39.1852483" lon="16.139745"><ele>591.0</ele><time>2026-04-27T09:37:20.728Z</time></trkpt><trkpt lat="39.1853183" lon="16.1398017"><ele>591.0</ele><time>2026-04-27T09:37:21.698Z</time></trkpt><trkpt lat="39.1854" lon="16.1398683"><ele>591.0</ele><time>2026-04-27T09:37:22.699Z</time></trkpt><trkpt lat="39.1854917" lon="16.1399433"><ele>591.0</ele><time>2026-04-27T09:37:23.694Z</time></trkpt><trkpt lat="39.1855767" lon="16.1400233"><ele>590.0</ele><time>2026-04-27T09:37:24.698Z</time></trkpt><trkpt lat="39.18567" lon="16.140095"><ele>589.0</ele><time>2026-04-27T09:37:25.687Z</time></trkpt><trkpt lat="39.1857683" lon="16.14015"><ele>588.0</ele><time>2026-04-27T09:37:26.759Z</time></trkpt><trkpt lat="39.1858717" lon="16.14019"><ele>587.0</ele><time>2026-04-27T09:37:27.689Z</time></trkpt><trkpt lat="39.185985" lon="16.1402167"><ele>586.0</ele><time>2026-04-27T09:37:28.696Z</time></trkpt><trkpt lat="39.1860933" lon="16.1402483"><ele>590.2</ele><time>2026-04-27T09:37:29.694Z</time></trkpt><trkpt lat="39.1862017" lon="16.140285"><ele>594.4000000000001</ele><time>2026-04-27T09:37:30.694Z</time></trkpt><trkpt lat="39.1863033" lon="16.1403267"><ele>598.6</ele><time>2026-04-27T09:37:31.696Z</time></trkpt><trkpt lat="39.18641" lon="16.1403617"><ele>602.8000000000001</ele><time>2026-04-27T09:37:32.739Z</time></trkpt><trkpt lat="39.1865067" lon="16.1403917"><ele>607.0</ele><time>2026-04-27T09:37:33.69Z</time></trkpt><trkpt lat="39.1866033" lon="16.1403983"><ele>607.8000000000001</ele><time>2026-04-27T09:37:34.69Z</time></trkpt><trkpt lat="39.1866933" lon="16.1403767"><ele>608.6</ele><time>2026-04-27T09:37:35.697Z</time></trkpt><trkpt lat="39.18678" lon="16.14038"><ele>609.4000000000001</ele><time>2026-04-27T09:37:36.694Z</time></trkpt><trkpt lat="39.186855" lon="16.1404017"><ele>610.2</ele><time>2026-04-27T09:37:37.697Z</time></trkpt><trkpt lat="39.1869167" lon="16.1404267"><ele>611.0</ele><time>2026-04-27T09:37:38.733Z</time></trkpt><trkpt lat="39.187005" lon="16.1405617"><ele>611.0</ele><time>2026-04-27T09:37:40.697Z</time></trkpt><trkpt lat="39.1870767" lon="16.1406133"><ele>611.0</ele><time>2026-04-27T09:37:41.693Z</time></trkpt><trkpt lat="39.18716" lon="16.14065"><ele>611.0</ele><time>2026-04-27T09:37:42.698Z</time></trkpt><trkpt lat="39.1872517" lon="16.1406867"><ele>611.0</ele><time>2026-04-27T09:37:43.689Z</time></trkpt><trkpt lat="39.187345" lon="16.1407017"><ele>611.0</ele><time>2026-04-27T09:37:44.734Z</time></trkpt><trkpt lat="39.1874467" lon="16.14071"><ele>610.0</ele><time>2026-04-27T09:37:45.69Z</time></trkpt><trkpt lat="39.1875633" lon="16.1407167"><ele>609.0</ele><time>2026-04-27T09:37:46.695Z</time></trkpt><trkpt lat="39.18769" lon="16.1406867"><ele>608.0</ele><time>2026-04-27T09:37:47.695Z</time></trkpt><trkpt lat="39.1878367" lon="16.1406617"><ele>607.0</ele><time>2026-04-27T09:37:48.698Z</time></trkpt><trkpt lat="39.1879867" lon="16.1406317"><ele>607.0</ele><time>2026-04-27T09:37:49.691Z</time></trkpt><trkpt lat="39.1881283" lon="16.14061"><ele>607.0</ele><time>2026-04-27T09:37:50.726Z</time></trkpt><trkpt lat="39.188265" lon="16.1405783"><ele>607.0</ele><time>2026-04-27T09:37:51.688Z</time></trkpt><trkpt lat="39.1883967" lon="16.1405283"><ele>607.0</ele><time>2026-04-27T09:37:52.7Z</time></trkpt><trkpt lat="39.1885317" lon="16.1404617"><ele>603.2</ele><time>2026-04-27T09:37:53.693Z</time></trkpt><trkpt lat="39.1886667" lon="16.140405"><ele>599.4000000000001</ele><time>2026-04-27T09:37:54.694Z</time></trkpt><trkpt lat="39.1887783" lon="16.1403483"><ele>595.5999999999999</ele><time>2026-04-27T09:37:55.694Z</time></trkpt><trkpt lat="39.1888583" lon="16.14031"><ele>591.8</ele><time>2026-04-27T09:37:56.758Z</time></trkpt><trkpt lat="39.1889267" lon="16.1402667"><ele>588.0</ele><time>2026-04-27T09:37:57.688Z</time></trkpt><trkpt lat="39.188925" lon="16.1403867"><ele>588.0</ele><time>2026-04-27T09:37:59.695Z</time></trkpt><trkpt lat="39.1889183" lon="16.1404767"><ele>588.0</ele><time>2026-04-27T09:38:00.69Z</time></trkpt><trkpt lat="39.1889183" lon="16.1405833"><ele>588.0</ele><time>2026-04-27T09:38:01.687Z</time></trkpt><trkpt lat="39.1889467" lon="16.140725"><ele>588.0</ele><time>2026-04-27T09:38:02.731Z</time></trkpt><trkpt lat="39.1889717" lon="16.1408517"><ele>588.0</ele><time>2026-04-27T09:38:03.691Z</time></trkpt><trkpt lat="39.18903" lon="16.1409867"><ele>583.75</ele><time>2026-04-27T09:38:04.694Z</time></trkpt><trkpt lat="39.1891117" lon="16.1411283"><ele>579.5</ele><time>2026-04-27T09:38:05.692Z</time></trkpt><trkpt lat="39.18919" lon="16.1412483"><ele>575.25</ele><time>2026-04-27T09:38:06.692Z</time></trkpt><trkpt lat="39.1892817" lon="16.1413733"><ele>571.0</ele><time>2026-04-27T09:38:07.699Z</time></trkpt><trkpt lat="39.1894167" lon="16.1414833"><ele>566.5</ele><time>2026-04-27T09:38:08.727Z</time></trkpt><trkpt lat="39.189545" lon="16.14159"><ele>562.0</ele><time>2026-04-27T09:38:09.696Z</time></trkpt><trkpt lat="39.1896583" lon="16.1416983"><ele>557.5</ele><time>2026-04-27T09:38:10.69Z</time></trkpt><trkpt lat="39.1897433" lon="16.1417967"><ele>553.0</ele><time>2026-04-27T09:38:11.693Z</time></trkpt><trkpt lat="39.18979" lon="16.1418883"><ele>553.0</ele><time>2026-04-27T09:38:12.694Z</time></trkpt><trkpt lat="39.1897783" lon="16.1420267"><ele>553.0</ele><time>2026-04-27T09:38:14.73Z</time></trkpt><trkpt lat="39.1897367" lon="16.1420933"><ele>553.0</ele><time>2026-04-27T09:38:15.699Z</time></trkpt><trkpt lat="39.1896683" lon="16.1421517"><ele>553.0</ele><time>2026-04-27T09:38:16.693Z</time></trkpt><trkpt lat="39.1895767" lon="16.1421983"><ele>553.0</ele><time>2026-04-27T09:38:17.691Z</time></trkpt><trkpt lat="39.1894717" lon="16.1422167"><ele>553.0</ele><time>2026-04-27T09:38:18.695Z</time></trkpt><trkpt lat="39.1893517" lon="16.14221"><ele>553.0</ele><time>2026-04-27T09:38:19.701Z</time></trkpt><trkpt lat="39.1892217" lon="16.14222"><ele>553.0</ele><time>2026-04-27T09:38:20.733Z</time></trkpt><trkpt lat="39.18909" lon="16.142225"><ele>553.0</ele><time>2026-04-27T09:38:21.696Z</time></trkpt><trkpt lat="39.18895" lon="16.142255"><ele>551.75</ele><time>2026-04-27T09:38:22.693Z</time></trkpt><trkpt lat="39.18881" lon="16.1423267"><ele>550.5</ele><time>2026-04-27T09:38:23.69Z</time></trkpt><trkpt lat="39.1886717" lon="16.142405"><ele>549.25</ele><time>2026-04-27T09:38:24.702Z</time></trkpt><trkpt lat="39.18854" lon="16.14249"><ele>548.0</ele><time>2026-04-27T09:38:25.696Z</time></trkpt><trkpt lat="39.188395" lon="16.14258"><ele>548.0</ele><time>2026-04-27T09:38:26.722Z</time></trkpt><trkpt lat="39.1882733" lon="16.14265"><ele>548.0</ele><time>2026-04-27T09:38:27.69Z</time></trkpt><trkpt lat="39.1881483" lon="16.1426983"><ele>548.0</ele><time>2026-04-27T09:38:28.701Z</time></trkpt><trkpt lat="39.18803" lon="16.1427217"><ele>548.0</ele><time>2026-04-27T09:38:29.699Z</time></trkpt><trkpt lat="39.1878983" lon="16.1427383"><ele>546.25</ele><time>2026-04-27T09:38:30.702Z</time></trkpt><trkpt lat="39.1877683" lon="16.142715"><ele>544.5</ele><time>2026-04-27T09:38:31.695Z</time></trkpt><trkpt lat="39.1876367" lon="16.1426867"><ele>542.75</ele><time>2026-04-27T09:38:32.737Z</time></trkpt><trkpt lat="39.1875083" lon="16.142645"><ele>541.0</ele><time>2026-04-27T09:38:33.69Z</time></trkpt><trkpt lat="39.1873833" lon="16.14261"><ele>540.0</ele><time>2026-04-27T09:38:34.688Z</time></trkpt><trkpt lat="39.18725" lon="16.1425867"><ele>539.0</ele><time>2026-04-27T09:38:35.693Z</time></trkpt><trkpt lat="39.187105" lon="16.1425567"><ele>538.0</ele><time>2026-04-27T09:38:36.69Z</time></trkpt><trkpt lat="39.1869483" lon="16.14252"><ele>537.0</ele><time>2026-04-27T09:38:37.696Z</time></trkpt><trkpt lat="39.1867967" lon="16.1425017"><ele>537.0</ele><time>2026-04-27T09:38:38.731Z</time></trkpt><trkpt lat="39.1866617" lon="16.1425183"><ele>537.0</ele><time>2026-04-27T09:38:39.692Z</time></trkpt><trkpt lat="39.1865" lon="16.1424883"><ele>537.0</ele><time>2026-04-27T09:38:40.7Z</time></trkpt><trkpt lat="39.186335" lon="16.1424617"><ele>533.0</ele><time>2026-04-27T09:38:41.696Z</time></trkpt><trkpt lat="39.186155" lon="16.1424317"><ele>529.0</ele><time>2026-04-27T09:38:42.695Z</time></trkpt><trkpt lat="39.185965" lon="16.1423983"><ele>525.0</ele><time>2026-04-27T09:38:43.69Z</time></trkpt><trkpt lat="39.1857717" lon="16.14236"><ele>528.6666666666666</ele><time>2026-04-27T09:38:44.734Z</time></trkpt><trkpt lat="39.18558" lon="16.1423083"><ele>532.3333333333333</ele><time>2026-04-27T09:38:45.693Z</time></trkpt><trkpt lat="39.1854033" lon="16.14227"><ele>536.0</ele><time>2026-04-27T09:38:46.695Z</time></trkpt><trkpt lat="39.1852383" lon="16.1422217"><ele>536.0</ele><time>2026-04-27T09:38:47.695Z</time></trkpt><trkpt lat="39.18515" lon="16.142215"><ele>536.0</ele><time>2026-04-27T09:38:48.691Z</time></trkpt><trkpt lat="39.185045" lon="16.1422117"><ele>536.0</ele><time>2026-04-27T09:38:49.694Z</time></trkpt><trkpt lat="39.1849733" lon="16.1422467"><ele>536.0</ele><time>2026-04-27T09:38:50.734Z</time></trkpt><trkpt lat="39.1848983" lon="16.1422867"><ele>536.0</ele><time>2026-04-27T09:38:51.693Z</time></trkpt><trkpt lat="39.18481" lon="16.1424017"><ele>531.5</ele><time>2026-04-27T09:38:52.701Z</time></trkpt><trkpt lat="39.1847167" lon="16.1424867"><ele>527.0</ele><time>2026-04-27T09:38:53.694Z</time></trkpt><trkpt lat="39.18462" lon="16.142545"><ele>522.5</ele><time>2026-04-27T09:38:54.701Z</time></trkpt><trkpt lat="39.1845" lon="16.1425733"><ele>518.0</ele><time>2026-04-27T09:38:55.695Z</time></trkpt><trkpt lat="39.1843783" lon="16.1426167"><ele>518.0</ele><time>2026-04-27T09:38:56.759Z</time></trkpt><trkpt lat="39.1842717" lon="16.1426567"><ele>518.0</ele><time>2026-04-27T09:38:57.687Z</time></trkpt><trkpt lat="39.184185" lon="16.14273"><ele>518.0</ele><time>2026-04-27T09:38:58.699Z</time></trkpt><trkpt lat="39.184095" lon="16.142825"><ele>518.0</ele><time>2026-04-27T09:38:59.69Z</time></trkpt><trkpt lat="39.1839967" lon="16.1428983"><ele>518.0</ele><time>2026-04-27T09:39:00.698Z</time></trkpt><trkpt lat="39.1838867" lon="16.1429617"><ele>517.3333333333333</ele><time>2026-04-27T09:39:01.693Z</time></trkpt><trkpt lat="39.1837633" lon="16.1430283"><ele>516.6666666666666</ele><time>2026-04-27T09:39:02.737Z</time></trkpt><trkpt lat="39.1836233" lon="16.1431017"><ele>516.0</ele><time>2026-04-27T09:39:03.698Z</time></trkpt><trkpt lat="39.1834617" lon="16.1431633"><ele>526.6666666666666</ele><time>2026-04-27T09:39:04.697Z</time></trkpt><trkpt lat="39.18329" lon="16.1432233"><ele>537.3333333333333</ele><time>2026-04-27T09:39:05.695Z</time></trkpt><trkpt lat="39.1830933" lon="16.1432483"><ele>548.0</ele><time>2026-04-27T09:39:06.7Z</time></trkpt><trkpt lat="39.1829033" lon="16.1432683"><ele>550.0</ele><time>2026-04-27T09:39:07.688Z</time></trkpt><trkpt lat="39.182715" lon="16.1432983"><ele>552.0</ele><time>2026-04-27T09:39:08.725Z</time></trkpt><trkpt lat="39.1825517" lon="16.1433467"><ele>554.0</ele><time>2026-04-27T09:39:09.692Z</time></trkpt><trkpt lat="39.182385" lon="16.143375"><ele>548.0</ele><time>2026-04-27T09:39:10.691Z</time></trkpt><trkpt lat="39.1822233" lon="16.14342"><ele>542.0</ele><time>2026-04-27T09:39:11.694Z</time></trkpt><trkpt lat="39.182065" lon="16.14353"><ele>536.0</ele><time>2026-04-27T09:39:12.7Z</time></trkpt><trkpt lat="39.181895" lon="16.1436467"><ele>536.0</ele><time>2026-04-27T09:39:13.694Z</time></trkpt><trkpt lat="39.1817167" lon="16.1437167"><ele>536.0</ele><time>2026-04-27T09:39:14.73Z</time></trkpt><trkpt lat="39.181555" lon="16.1437817"><ele>536.0</ele><time>2026-04-27T09:39:15.686Z</time></trkpt><trkpt lat="39.1814333" lon="16.14382"><ele>534.0</ele><time>2026-04-27T09:39:16.691Z</time></trkpt><trkpt lat="39.1813017" lon="16.14382"><ele>532.0</ele><time>2026-04-27T09:39:17.692Z</time></trkpt><trkpt lat="39.1811633" lon="16.1438633"><ele>530.0</ele><time>2026-04-27T09:39:18.703Z</time></trkpt><trkpt lat="39.181025" lon="16.1439317"><ele>528.0</ele><time>2026-04-27T09:39:19.698Z</time></trkpt><trkpt lat="39.180875" lon="16.1439583"><ele>528.0</ele><time>2026-04-27T09:39:20.733Z</time></trkpt><trkpt lat="39.18074" lon="16.1439883"><ele>528.0</ele><time>2026-04-27T09:39:21.695Z</time></trkpt><trkpt lat="39.1806167" lon="16.1439817"><ele>528.0</ele><time>2026-04-27T09:39:22.704Z</time></trkpt><trkpt lat="39.1804983" lon="16.1439683"><ele>528.0</ele><time>2026-04-27T09:39:23.696Z</time></trkpt><trkpt lat="39.1803733" lon="16.143955"><ele>527.0</ele><time>2026-04-27T09:39:24.701Z</time></trkpt><trkpt lat="39.180255" lon="16.1439567"><ele>526.0</ele><time>2026-04-27T09:39:25.695Z</time></trkpt><trkpt lat="39.18014" lon="16.1439833"><ele>525.0</ele><time>2026-04-27T09:39:26.762Z</time></trkpt><trkpt lat="39.18001" lon="16.14402"><ele>524.0</ele><time>2026-04-27T09:39:27.693Z</time></trkpt><trkpt lat="39.179885" lon="16.1440467"><ele>524.8</ele><time>2026-04-27T09:39:28.691Z</time></trkpt><trkpt lat="39.1798167" lon="16.1441"><ele>525.5999999999999</ele><time>2026-04-27T09:39:29.692Z</time></trkpt><trkpt lat="39.17975" lon="16.1441333"><ele>526.4</ele><time>2026-04-27T09:39:30.697Z</time></trkpt><trkpt lat="39.1796983" lon="16.1441817"><ele>527.1999999999999</ele><time>2026-04-27T09:39:31.697Z</time></trkpt><trkpt lat="39.1796217" lon="16.1442667"><ele>528.0</ele><time>2026-04-27T09:39:33.687Z</time></trkpt><trkpt lat="39.1797367" lon="16.1443667"><ele>536.0</ele><time>2026-04-27T09:39:35.695Z</time></trkpt><trkpt lat="39.17989" lon="16.1443983"><ele>544.0</ele><time>2026-04-27T09:39:36.696Z</time></trkpt><trkpt lat="39.1801317" lon="16.1444567"><ele>552.0</ele><time>2026-04-27T09:39:37.693Z</time></trkpt><trkpt lat="39.1802883" lon="16.1444867"><ele>552.0</ele><time>2026-04-27T09:39:38.734Z</time></trkpt><trkpt lat="39.1804167" lon="16.1445083"><ele>552.0</ele><time>2026-04-27T09:39:39.697Z</time></trkpt><trkpt lat="39.180505" lon="16.1445467"><ele>552.0</ele><time>2026-04-27T09:39:40.708Z</time></trkpt><trkpt lat="39.1805567" lon="16.1446317"><ele>552.0</ele><time>2026-04-27T09:39:42.699Z</time></trkpt><trkpt lat="39.1804233" lon="16.144655"><ele>552.0</ele><time>2026-04-27T09:39:45.695Z</time></trkpt><trkpt lat="39.1803183" lon="16.1446933"><ele>552.0</ele><time>2026-04-27T09:39:46.693Z</time></trkpt><trkpt lat="39.1801733" lon="16.1446983"><ele>552.0</ele><time>2026-04-27T09:39:47.693Z</time></trkpt><trkpt lat="39.180135" lon="16.1447683"><ele>552.0</ele><time>2026-04-27T09:39:48.704Z</time></trkpt><trkpt lat="39.180105" lon="16.1448533"><ele>552.0</ele><time>2026-04-27T09:39:49.695Z</time></trkpt><trkpt lat="39.180135" lon="16.1449283"><ele>552.0</ele><time>2026-04-27T09:39:51.694Z</time></trkpt><trkpt lat="39.1801633" lon="16.1450283"><ele>552.0</ele><time>2026-04-27T09:39:54.696Z</time></trkpt><trkpt lat="39.180175" lon="16.1451267"><ele>555.75</ele><time>2026-04-27T09:39:55.694Z</time></trkpt><trkpt lat="39.1801783" lon="16.1452417"><ele>559.5</ele><time>2026-04-27T09:39:56.76Z</time></trkpt><trkpt lat="39.1801517" lon="16.1454033"><ele>563.25</ele><time>2026-04-27T09:39:57.698Z</time></trkpt><trkpt lat="39.1801083" lon="16.14557"><ele>567.0</ele><time>2026-04-27T09:39:58.702Z</time></trkpt><trkpt lat="39.180075" lon="16.1457583"><ele>568.6666666666666</ele><time>2026-04-27T09:39:59.698Z</time></trkpt><trkpt lat="39.1800417" lon="16.1459567"><ele>570.3333333333333</ele><time>2026-04-27T09:40:00.697Z</time></trkpt><trkpt lat="39.1800183" lon="16.146145"><ele>572.0</ele><time>2026-04-27T09:40:01.69Z</time></trkpt><trkpt lat="39.1800083" lon="16.1463317"><ele>572.0</ele><time>2026-04-27T09:40:02.734Z</time></trkpt><trkpt lat="39.1800083" lon="16.1465033"><ele>572.0</ele><time>2026-04-27T09:40:03.695Z</time></trkpt><trkpt lat="39.18002" lon="16.1466583"><ele>572.0</ele><time>2026-04-27T09:40:04.699Z</time></trkpt><trkpt lat="39.180025" lon="16.146815"><ele>572.0</ele><time>2026-04-27T09:40:05.688Z</time></trkpt><trkpt lat="39.18004" lon="16.14696"><ele>574.75</ele><time>2026-04-27T09:40:06.702Z</time></trkpt><trkpt lat="39.18" lon="16.1470867"><ele>577.5</ele><time>2026-04-27T09:40:08.726Z</time></trkpt><trkpt lat="39.179885" lon="16.1470967"><ele>580.25</ele><time>2026-04-27T09:40:10.692Z</time></trkpt><trkpt lat="39.17979" lon="16.1470517"><ele>583.0</ele><time>2026-04-27T09:40:11.701Z</time></trkpt><trkpt lat="39.17967" lon="16.1469867"><ele>583.0</ele><time>2026-04-27T09:40:12.698Z</time></trkpt><trkpt lat="39.17951" lon="16.14688"><ele>583.0</ele><time>2026-04-27T09:40:13.703Z</time></trkpt><trkpt lat="39.1793017" lon="16.14677"><ele>583.0</ele><time>2026-04-27T09:40:14.734Z</time></trkpt><trkpt lat="39.1791333" lon="16.1467"><ele>583.3333333333334</ele><time>2026-04-27T09:40:15.701Z</time></trkpt><trkpt lat="39.1789933" lon="16.146675"><ele>583.6666666666666</ele><time>2026-04-27T09:40:16.697Z</time></trkpt><trkpt lat="39.1787967" lon="16.1466583"><ele>584.0</ele><time>2026-04-27T09:40:17.698Z</time></trkpt><trkpt lat="39.17865" lon="16.14669"><ele>584.0</ele><time>2026-04-27T09:40:18.701Z</time></trkpt><trkpt lat="39.1784833" lon="16.14674"><ele>584.0</ele><time>2026-04-27T09:40:19.692Z</time></trkpt><trkpt lat="39.1783633" lon="16.1468567"><ele>584.0</ele><time>2026-04-27T09:40:20.732Z</time></trkpt><trkpt lat="39.1782283" lon="16.1469767"><ele>581.3333333333333</ele><time>2026-04-27T09:40:21.692Z</time></trkpt><trkpt lat="39.178085" lon="16.1470833"><ele>578.6666666666666</ele><time>2026-04-27T09:40:22.699Z</time></trkpt><trkpt lat="39.1779483" lon="16.147175"><ele>576.0</ele><time>2026-04-27T09:40:23.693Z</time></trkpt><trkpt lat="39.1778317" lon="16.1472583"><ele>576.0</ele><time>2026-04-27T09:40:24.698Z</time></trkpt><trkpt lat="39.1777133" lon="16.1472817"><ele>576.0</ele><time>2026-04-27T09:40:25.689Z</time></trkpt><trkpt lat="39.1775983" lon="16.1472733"><ele>576.0</ele><time>2026-04-27T09:40:26.762Z</time></trkpt><trkpt lat="39.17746" lon="16.1472567"><ele>576.0</ele><time>2026-04-27T09:40:27.689Z</time></trkpt><trkpt lat="39.1773283" lon="16.1472433"><ele>574.6</ele><time>2026-04-27T09:40:28.697Z</time></trkpt><trkpt lat="39.177205" lon="16.1472617"><ele>573.2</ele><time>2026-04-27T09:40:29.69Z</time></trkpt><trkpt lat="39.1771133" lon="16.1472983"><ele>571.8</ele><time>2026-04-27T09:40:30.698Z</time></trkpt><trkpt lat="39.1770317" lon="16.1473267"><ele>570.4</ele><time>2026-04-27T09:40:31.691Z</time></trkpt><trkpt lat="39.1769617" lon="16.1473567"><ele>569.0</ele><time>2026-04-27T09:40:32.738Z</time></trkpt><trkpt lat="39.1768883" lon="16.14738"><ele>571.6</ele><time>2026-04-27T09:40:33.697Z</time></trkpt><trkpt lat="39.176795" lon="16.1474033"><ele>574.2</ele><time>2026-04-27T09:40:34.694Z</time></trkpt><trkpt lat="39.1767133" lon="16.1474483"><ele>576.8000000000001</ele><time>2026-04-27T09:40:35.696Z</time></trkpt><trkpt lat="39.17663" lon="16.1475117"><ele>579.4</ele><time>2026-04-27T09:40:36.699Z</time></trkpt><trkpt lat="39.1765433" lon="16.1475883"><ele>582.0</ele><time>2026-04-27T09:40:37.689Z</time></trkpt><trkpt lat="39.1764567" lon="16.1476667"><ele>582.0</ele><time>2026-04-27T09:40:38.734Z</time></trkpt><trkpt lat="39.1763583" lon="16.1477467"><ele>582.0</ele><time>2026-04-27T09:40:39.691Z</time></trkpt><trkpt lat="39.1762533" lon="16.1478417"><ele>582.0</ele><time>2026-04-27T09:40:40.703Z</time></trkpt><trkpt lat="39.1761367" lon="16.1479417"><ele>582.0</ele><time>2026-04-27T09:40:41.694Z</time></trkpt><trkpt lat="39.176005" lon="16.1480617"><ele>582.0</ele><time>2026-04-27T09:40:42.701Z</time></trkpt><trkpt lat="39.1758733" lon="16.1481967"><ele>582.0</ele><time>2026-04-27T09:40:43.693Z</time></trkpt><trkpt lat="39.1757467" lon="16.1483367"><ele>582.0</ele><time>2026-04-27T09:40:44.73Z</time></trkpt><trkpt lat="39.175625" lon="16.14849"><ele>584.75</ele><time>2026-04-27T09:40:45.695Z</time></trkpt><trkpt lat="39.1755117" lon="16.1486167"><ele>587.5</ele><time>2026-04-27T09:40:46.697Z</time></trkpt><trkpt lat="39.1753917" lon="16.14872"><ele>590.25</ele><time>2026-04-27T09:40:47.695Z</time></trkpt><trkpt lat="39.17529" lon="16.1488167"><ele>593.0</ele><time>2026-04-27T09:40:48.697Z</time></trkpt><trkpt lat="39.1751983" lon="16.1488533"><ele>593.0</ele><time>2026-04-27T09:40:49.698Z</time></trkpt><trkpt lat="39.17511" lon="16.14886"><ele>593.0</ele><time>2026-04-27T09:40:50.733Z</time></trkpt><trkpt lat="39.17499" lon="16.148765"><ele>593.0</ele><time>2026-04-27T09:40:51.69Z</time></trkpt><trkpt lat="39.1748467" lon="16.14869"><ele>593.0</ele><time>2026-04-27T09:40:52.69Z</time></trkpt><trkpt lat="39.174705" lon="16.14864"><ele>591.5</ele><time>2026-04-27T09:40:53.691Z</time></trkpt><trkpt lat="39.1745667" lon="16.1485983"><ele>590.0</ele><time>2026-04-27T09:40:54.702Z</time></trkpt><trkpt lat="39.17446" lon="16.148605"><ele>588.5</ele><time>2026-04-27T09:40:55.704Z</time></trkpt><trkpt lat="39.17436" lon="16.148645"><ele>587.0</ele><time>2026-04-27T09:40:56.725Z</time></trkpt><trkpt lat="39.1742333" lon="16.148655"><ele>587.0</ele><time>2026-04-27T09:40:57.694Z</time></trkpt><trkpt lat="39.1741117" lon="16.1487067"><ele>587.0</ele><time>2026-04-27T09:40:58.697Z</time></trkpt><trkpt lat="39.1740017" lon="16.1488067"><ele>587.0</ele><time>2026-04-27T09:40:59.691Z</time></trkpt><trkpt lat="39.1739417" lon="16.1490483"><ele>590.6</ele><time>2026-04-27T09:41:00.698Z</time></trkpt><trkpt lat="39.1738533" lon="16.1491717"><ele>594.2</ele><time>2026-04-27T09:41:01.69Z</time></trkpt><trkpt lat="39.1737833" lon="16.1492883"><ele>597.8</ele><time>2026-04-27T09:41:02.736Z</time></trkpt><trkpt lat="39.17372" lon="16.1493633"><ele>601.4</ele><time>2026-04-27T09:41:03.693Z</time></trkpt><trkpt lat="39.1736567" lon="16.1493983"><ele>605.0</ele><time>2026-04-27T09:41:04.688Z</time></trkpt><trkpt lat="39.1735833" lon="16.1494167"><ele>605.0</ele><time>2026-04-27T09:41:05.688Z</time></trkpt><trkpt lat="39.1735183" lon="16.1492733"><ele>605.0</ele><time>2026-04-27T09:41:06.69Z</time></trkpt><trkpt lat="39.1734283" lon="16.1491467"><ele>605.0</ele><time>2026-04-27T09:41:07.691Z</time></trkpt><trkpt lat="39.1733383" lon="16.14903"><ele>605.0</ele><time>2026-04-27T09:41:08.726Z</time></trkpt><trkpt lat="39.1732317" lon="16.1489233"><ele>596.5</ele><time>2026-04-27T09:41:09.689Z</time></trkpt><trkpt lat="39.1731367" lon="16.1488283"><ele>588.0</ele><time>2026-04-27T09:41:10.696Z</time></trkpt><trkpt lat="39.17303" lon="16.148755"><ele>579.5</ele><time>2026-04-27T09:41:11.692Z</time></trkpt><trkpt lat="39.1729117" lon="16.1487333"><ele>571.0</ele><time>2026-04-27T09:41:12.693Z</time></trkpt><trkpt lat="39.1727867" lon="16.1487317"><ele>571.0</ele><time>2026-04-27T09:41:13.696Z</time></trkpt><trkpt lat="39.17267" lon="16.1487733"><ele>571.0</ele><time>2026-04-27T09:41:14.731Z</time></trkpt><trkpt lat="39.17257" lon="16.14881"><ele>571.0</ele><time>2026-04-27T09:41:15.686Z</time></trkpt><trkpt lat="39.1724817" lon="16.1488333"><ele>571.0</ele><time>2026-04-27T09:41:16.695Z</time></trkpt><trkpt lat="39.1724" lon="16.148855"><ele>571.0</ele><time>2026-04-27T09:41:17.687Z</time></trkpt><trkpt lat="39.172305" lon="16.1488767"><ele>568.8</ele><time>2026-04-27T09:41:18.691Z</time></trkpt><trkpt lat="39.1722167" lon="16.148905"><ele>566.6</ele><time>2026-04-27T09:41:19.697Z</time></trkpt><trkpt lat="39.17213" lon="16.1489217"><ele>564.4</ele><time>2026-04-27T09:41:20.727Z</time></trkpt><trkpt lat="39.1720517" lon="16.1489383"><ele>562.2</ele><time>2026-04-27T09:41:21.688Z</time></trkpt><trkpt lat="39.17195" lon="16.1489717"><ele>560.0</ele><time>2026-04-27T09:41:23.692Z</time></trkpt><trkpt lat="39.1718417" lon="16.1490283"><ele>561.8</ele><time>2026-04-27T09:41:25.689Z</time></trkpt><trkpt lat="39.1717683" lon="16.149085"><ele>563.6</ele><time>2026-04-27T09:41:26.754Z</time></trkpt><trkpt lat="39.171685" lon="16.1491483"><ele>565.4</ele><time>2026-04-27T09:41:27.692Z</time></trkpt><trkpt lat="39.1715917" lon="16.149205"><ele>567.2</ele><time>2026-04-27T09:41:28.688Z</time></trkpt><trkpt lat="39.1714917" lon="16.1492617"><ele>569.0</ele><time>2026-04-27T09:41:29.696Z</time></trkpt><trkpt lat="39.17139" lon="16.149315"><ele>569.0</ele><time>2026-04-27T09:41:30.701Z</time></trkpt><trkpt lat="39.1712367" lon="16.1493433"><ele>569.0</ele><time>2026-04-27T09:41:31.695Z</time></trkpt><trkpt lat="39.1710833" lon="16.1493517"><ele>569.0</ele><time>2026-04-27T09:41:32.731Z</time></trkpt><trkpt lat="39.1709233" lon="16.1493583"><ele>569.0</ele><time>2026-04-27T09:41:33.69Z</time></trkpt><trkpt lat="39.1707617" lon="16.14937"><ele>569.0</ele><time>2026-04-27T09:41:34.692Z</time></trkpt><trkpt lat="39.1706033" lon="16.1493833"><ele>569.0</ele><time>2026-04-27T09:41:35.692Z</time></trkpt><trkpt lat="39.17046" lon="16.149395"><ele>569.0</ele><time>2026-04-27T09:41:36.697Z</time></trkpt><trkpt lat="39.17034" lon="16.1494117"><ele>569.0</ele><time>2026-04-27T09:41:37.693Z</time></trkpt><trkpt lat="39.1702433" lon="16.1494267"><ele>569.0</ele><time>2026-04-27T09:41:38.731Z</time></trkpt><trkpt lat="39.1701783" lon="16.1494233"><ele>569.0</ele><time>2026-04-27T09:41:39.692Z</time></trkpt><trkpt lat="39.1702" lon="16.1492617"><ele>569.0</ele><time>2026-04-27T09:41:42.692Z</time></trkpt><trkpt lat="39.17024" lon="16.14916"><ele>569.0</ele><time>2026-04-27T09:41:43.694Z</time></trkpt><trkpt lat="39.1703" lon="16.1490583"><ele>569.0</ele><time>2026-04-27T09:41:44.73Z</time></trkpt><trkpt lat="39.1703633" lon="16.1489517"><ele>569.0</ele><time>2026-04-27T09:41:45.694Z</time></trkpt><trkpt lat="39.17043" lon="16.1488367"><ele>569.0</ele><time>2026-04-27T09:41:46.694Z</time></trkpt><trkpt lat="39.17049" lon="16.14873"><ele>569.0</ele><time>2026-04-27T09:41:47.692Z</time></trkpt><trkpt lat="39.1705483" lon="16.1486317"><ele>567.5</ele><time>2026-04-27T09:41:48.697Z</time></trkpt><trkpt lat="39.1706183" lon="16.148555"><ele>566.0</ele><time>2026-04-27T09:41:49.692Z</time></trkpt><trkpt lat="39.170695" lon="16.148505"><ele>564.5</ele><time>2026-04-27T09:41:50.725Z</time></trkpt><trkpt lat="39.1707617" lon="16.14845"><ele>563.0</ele><time>2026-04-27T09:41:51.689Z</time></trkpt><trkpt lat="39.1708183" lon="16.148395"><ele>561.5</ele><time>2026-04-27T09:41:52.692Z</time></trkpt><trkpt lat="39.1708433" lon="16.1483083"><ele>560.0</ele><time>2026-04-27T09:41:53.692Z</time></trkpt><trkpt lat="39.1708383" lon="16.1482233"><ele>558.0</ele><time>2026-04-27T09:41:54.699Z</time></trkpt><trkpt lat="39.1707517" lon="16.14808"><ele>556.0</ele><time>2026-04-27T09:41:56.758Z</time></trkpt><trkpt lat="39.170685" lon="16.14801"><ele>554.0</ele><time>2026-04-27T09:41:57.687Z</time></trkpt><trkpt lat="39.1706383" lon="16.1479433"><ele>552.0</ele><time>2026-04-27T09:41:58.694Z</time></trkpt><trkpt lat="39.1706033" lon="16.1478733"><ele>550.0</ele><time>2026-04-27T09:41:59.699Z</time></trkpt><trkpt lat="39.1705833" lon="16.14779"><ele>548.0</ele><time>2026-04-27T09:42:00.697Z</time></trkpt><trkpt lat="39.1705717" lon="16.1476983"><ele>545.6</ele><time>2026-04-27T09:42:01.701Z</time></trkpt><trkpt lat="39.17056" lon="16.1476033"><ele>543.1999999999999</ele><time>2026-04-27T09:42:02.733Z</time></trkpt><trkpt lat="39.1705417" lon="16.14751"><ele>540.8</ele><time>2026-04-27T09:42:03.693Z</time></trkpt><trkpt lat="39.1704617" lon="16.1473883"><ele>538.4</ele><time>2026-04-27T09:42:05.696Z</time></trkpt><trkpt lat="39.1703133" lon="16.1474183"><ele>536.0</ele><time>2026-04-27T09:42:07.695Z</time></trkpt><trkpt lat="39.170185" lon="16.147525"><ele>536.0</ele><time>2026-04-27T09:42:08.728Z</time></trkpt><trkpt lat="39.1700767" lon="16.147595"><ele>536.0</ele><time>2026-04-27T09:42:09.693Z</time></trkpt><trkpt lat="39.1699783" lon="16.1476633"><ele>536.0</ele><time>2026-04-27T09:42:10.692Z</time></trkpt><trkpt lat="39.1698883" lon="16.1477183"><ele>536.0</ele><time>2026-04-27T09:42:11.692Z</time></trkpt><trkpt lat="39.1698017" lon="16.14775"><ele>536.0</ele><time>2026-04-27T09:42:12.697Z</time></trkpt><trkpt lat="39.1697167" lon="16.1478133"><ele>532.0</ele><time>2026-04-27T09:42:14.724Z</time></trkpt><trkpt lat="39.1697983" lon="16.14777"><ele>528.0</ele><time>2026-04-27T09:42:19.689Z</time></trkpt><trkpt lat="39.169735" lon="16.1477333"><ele>524.0</ele><time>2026-04-27T09:42:31.691Z</time></trkpt><trkpt lat="39.1696267" lon="16.1478033"><ele>520.0</ele><time>2026-04-27T09:42:33.69Z</time></trkpt><trkpt lat="39.1695617" lon="16.147885"><ele>516.0</ele><time>2026-04-27T09:42:34.693Z</time></trkpt><trkpt lat="39.16948" lon="16.1479783"><ele>516.0</ele><time>2026-04-27T09:42:35.69Z</time></trkpt><trkpt lat="39.1693833" lon="16.1481117"><ele>516.0</ele><time>2026-04-27T09:42:36.691Z</time></trkpt><trkpt lat="39.16929" lon="16.1482283"><ele>516.0</ele><time>2026-04-27T09:42:37.689Z</time></trkpt><trkpt lat="39.1691983" lon="16.1483633"><ele>516.0</ele><time>2026-04-27T09:42:38.734Z</time></trkpt><trkpt lat="39.1691133" lon="16.1485217"><ele>516.0</ele><time>2026-04-27T09:42:39.69Z</time></trkpt><trkpt lat="39.169035" lon="16.1487"><ele>516.0</ele><time>2026-04-27T09:42:40.687Z</time></trkpt><trkpt lat="39.16896" lon="16.1488783"><ele>516.0</ele><time>2026-04-27T09:42:41.69Z</time></trkpt><trkpt lat="39.168895" lon="16.149065"><ele>516.0</ele><time>2026-04-27T09:42:42.694Z</time></trkpt><trkpt lat="39.1688383" lon="16.1492667"><ele>516.0</ele><time>2026-04-27T09:42:43.702Z</time></trkpt><trkpt lat="39.1687817" lon="16.1494767"><ele>516.0</ele><time>2026-04-27T09:42:44.733Z</time></trkpt><trkpt lat="39.1687183" lon="16.1496883"><ele>517.0</ele><time>2026-04-27T09:42:45.693Z</time></trkpt><trkpt lat="39.16865" lon="16.1499067"><ele>518.0</ele><time>2026-04-27T09:42:46.697Z</time></trkpt><trkpt lat="39.1685833" lon="16.1501283"><ele>519.0</ele><time>2026-04-27T09:42:47.703Z</time></trkpt><trkpt lat="39.1685183" lon="16.1503583"><ele>519.0</ele><time>2026-04-27T09:42:48.705Z</time></trkpt><trkpt lat="39.1684567" lon="16.1505967"><ele>519.0</ele><time>2026-04-27T09:42:49.697Z</time></trkpt><trkpt lat="39.1683917" lon="16.150835"><ele>519.0</ele><time>2026-04-27T09:42:50.726Z</time></trkpt><trkpt lat="39.1683233" lon="16.15108"><ele>522.0</ele><time>2026-04-27T09:42:51.689Z</time></trkpt><trkpt lat="39.168255" lon="16.1513283"><ele>525.0</ele><time>2026-04-27T09:42:52.685Z</time></trkpt><trkpt lat="39.1681833" lon="16.1515717"><ele>528.0</ele><time>2026-04-27T09:42:53.696Z</time></trkpt><trkpt lat="39.168115" lon="16.1518167"><ele>521.0</ele><time>2026-04-27T09:42:54.698Z</time></trkpt><trkpt lat="39.1680533" lon="16.1520583"><ele>514.0</ele><time>2026-04-27T09:42:55.693Z</time></trkpt><trkpt lat="39.1679933" lon="16.152305"><ele>507.0</ele><time>2026-04-27T09:42:56.757Z</time></trkpt><trkpt lat="39.167925" lon="16.1525467"><ele>506.0</ele><time>2026-04-27T09:42:57.686Z</time></trkpt><trkpt lat="39.16785" lon="16.1527817"><ele>505.0</ele><time>2026-04-27T09:42:58.692Z</time></trkpt><trkpt lat="39.167765" lon="16.1530083"><ele>504.0</ele><time>2026-04-27T09:42:59.692Z</time></trkpt><trkpt lat="39.1676717" lon="16.15323"><ele>509.66666666666663</ele><time>2026-04-27T09:43:00.696Z</time></trkpt><trkpt lat="39.1675683" lon="16.1534467"><ele>515.3333333333333</ele><time>2026-04-27T09:43:01.691Z</time></trkpt><trkpt lat="39.1674583" lon="16.153655"><ele>521.0</ele><time>2026-04-27T09:43:02.751Z</time></trkpt><trkpt lat="39.1673417" lon="16.153845"><ele>521.0</ele><time>2026-04-27T09:43:03.691Z</time></trkpt><trkpt lat="39.1672017" lon="16.15402"><ele>521.0</ele><time>2026-04-27T09:43:04.696Z</time></trkpt><trkpt lat="39.16705" lon="16.1541883"><ele>521.0</ele><time>2026-04-27T09:43:05.696Z</time></trkpt><trkpt lat="39.1669017" lon="16.1543417"><ele>524.3333333333333</ele><time>2026-04-27T09:43:06.698Z</time></trkpt><trkpt lat="39.1667333" lon="16.1544733"><ele>527.6666666666666</ele><time>2026-04-27T09:43:07.687Z</time></trkpt><trkpt lat="39.166565" lon="16.1545917"><ele>531.0</ele><time>2026-04-27T09:43:08.73Z</time></trkpt><trkpt lat="39.1663917" lon="16.1546967"><ele>531.0</ele><time>2026-04-27T09:43:09.693Z</time></trkpt><trkpt lat="39.1662167" lon="16.1547967"><ele>531.0</ele><time>2026-04-27T09:43:10.694Z</time></trkpt><trkpt lat="39.1660417" lon="16.154885"><ele>531.0</ele><time>2026-04-27T09:43:11.704Z</time></trkpt><trkpt lat="39.1658667" lon="16.154975"><ele>537.0</ele><time>2026-04-27T09:43:12.697Z</time></trkpt><trkpt lat="39.1656933" lon="16.15507"><ele>543.0</ele><time>2026-04-27T09:43:13.697Z</time></trkpt><trkpt lat="39.1655233" lon="16.1551683"><ele>549.0</ele><time>2026-04-27T09:43:14.732Z</time></trkpt><trkpt lat="39.1653483" lon="16.1552567"><ele>549.0</ele><time>2026-04-27T09:43:15.693Z</time></trkpt><trkpt lat="39.1651633" lon="16.1553367"><ele>549.0</ele><time>2026-04-27T09:43:16.696Z</time></trkpt><trkpt lat="39.1649717" lon="16.1554133"><ele>549.0</ele><time>2026-04-27T09:43:17.695Z</time></trkpt><trkpt lat="39.16478" lon="16.1554967"><ele>546.0</ele><time>2026-04-27T09:43:18.689Z</time></trkpt><trkpt lat="39.16459" lon="16.1555733"><ele>543.0</ele><time>2026-04-27T09:43:19.692Z</time></trkpt><trkpt lat="39.164405" lon="16.1556533"><ele>540.0</ele><time>2026-04-27T09:43:20.727Z</time></trkpt><trkpt lat="39.16423" lon="16.1557317"><ele>546.0</ele><time>2026-04-27T09:43:21.687Z</time></trkpt><trkpt lat="39.1640683" lon="16.155795"><ele>552.0</ele><time>2026-04-27T09:43:22.695Z</time></trkpt><trkpt lat="39.16392" lon="16.15584"><ele>558.0</ele><time>2026-04-27T09:43:23.691Z</time></trkpt><trkpt lat="39.16379" lon="16.155865"><ele>559.8</ele><time>2026-04-27T09:43:24.694Z</time></trkpt><trkpt lat="39.1636667" lon="16.1558667"><ele>561.5999999999999</ele><time>2026-04-27T09:43:25.692Z</time></trkpt><trkpt lat="39.1635517" lon="16.155845"><ele>563.4000000000001</ele><time>2026-04-27T09:43:26.759Z</time></trkpt><trkpt lat="39.163455" lon="16.155805"><ele>565.2</ele><time>2026-04-27T09:43:27.69Z</time></trkpt><trkpt lat="39.1633667" lon="16.1557467"><ele>567.0</ele><time>2026-04-27T09:43:28.695Z</time></trkpt><trkpt lat="39.1632833" lon="16.15565"><ele>565.0</ele><time>2026-04-27T09:43:29.689Z</time></trkpt><trkpt lat="39.16322" lon="16.1554917"><ele>563.0</ele><time>2026-04-27T09:43:30.686Z</time></trkpt><trkpt lat="39.1631567" lon="16.1553217"><ele>561.0</ele><time>2026-04-27T09:43:31.693Z</time></trkpt><trkpt lat="39.1631017" lon="16.1551633"><ele>559.0</ele><time>2026-04-27T09:43:32.741Z</time></trkpt><trkpt lat="39.1630217" lon="16.1550217"><ele>559.0</ele><time>2026-04-27T09:43:33.689Z</time></trkpt><trkpt lat="39.1629217" lon="16.1548967"><ele>559.0</ele><time>2026-04-27T09:43:34.696Z</time></trkpt><trkpt lat="39.1627717" lon="16.1548217"><ele>559.0</ele><time>2026-04-27T09:43:35.696Z</time></trkpt><trkpt lat="39.1626367" lon="16.154755"><ele>559.0</ele><time>2026-04-27T09:43:36.691Z</time></trkpt><trkpt lat="39.1625183" lon="16.15468"><ele>555.75</ele><time>2026-04-27T09:43:37.697Z</time></trkpt><trkpt lat="39.1624083" lon="16.1546017"><ele>552.5</ele><time>2026-04-27T09:43:38.725Z</time></trkpt><trkpt lat="39.162295" lon="16.1545383"><ele>549.25</ele><time>2026-04-27T09:43:39.692Z</time></trkpt><trkpt lat="39.1621733" lon="16.1544967"><ele>546.0</ele><time>2026-04-27T09:43:40.692Z</time></trkpt><trkpt lat="39.1620517" lon="16.1544783"><ele>546.0</ele><time>2026-04-27T09:43:41.689Z</time></trkpt><trkpt lat="39.1619" lon="16.1545"><ele>546.0</ele><time>2026-04-27T09:43:42.694Z</time></trkpt><trkpt lat="39.1617317" lon="16.1545417"><ele>546.0</ele><time>2026-04-27T09:43:43.693Z</time></trkpt><trkpt lat="39.161585" lon="16.1545617"><ele>548.25</ele><time>2026-04-27T09:43:44.731Z</time></trkpt><trkpt lat="39.1614483" lon="16.1545733"><ele>550.5</ele><time>2026-04-27T09:43:45.695Z</time></trkpt><trkpt lat="39.1613117" lon="16.1545583"><ele>552.75</ele><time>2026-04-27T09:43:46.698Z</time></trkpt><trkpt lat="39.1611567" lon="16.15454"><ele>555.0</ele><time>2026-04-27T09:43:47.694Z</time></trkpt><trkpt lat="39.1610283" lon="16.1545033"><ele>555.0</ele><time>2026-04-27T09:43:48.702Z</time></trkpt><trkpt lat="39.1609083" lon="16.1544467"><ele>555.0</ele><time>2026-04-27T09:43:49.7Z</time></trkpt><trkpt lat="39.1607867" lon="16.154375"><ele>555.0</ele><time>2026-04-27T09:43:50.72Z</time></trkpt><trkpt lat="39.16067" lon="16.1542767"><ele>555.0</ele><time>2026-04-27T09:43:51.696Z</time></trkpt><trkpt lat="39.1605433" lon="16.1541667"><ele>556.0</ele><time>2026-04-27T09:43:52.694Z</time></trkpt><trkpt lat="39.1604083" lon="16.1540617"><ele>557.0</ele><time>2026-04-27T09:43:53.687Z</time></trkpt><trkpt lat="39.160295" lon="16.153955"><ele>558.0</ele><time>2026-04-27T09:43:54.693Z</time></trkpt><trkpt lat="39.160135" lon="16.1538817"><ele>558.0</ele><time>2026-04-27T09:43:55.693Z</time></trkpt><trkpt lat="39.16" lon="16.15383"><ele>558.0</ele><time>2026-04-27T09:43:56.763Z</time></trkpt><trkpt lat="39.1598867" lon="16.1537767"><ele>558.0</ele><time>2026-04-27T09:43:57.694Z</time></trkpt><trkpt lat="39.1597967" lon="16.153705"><ele>558.0</ele><time>2026-04-27T09:43:58.695Z</time></trkpt><trkpt lat="39.159735" lon="16.1536"><ele>560.6</ele><time>2026-04-27T09:43:59.692Z</time></trkpt><trkpt lat="39.1596617" lon="16.1534833"><ele>563.1999999999999</ele><time>2026-04-27T09:44:00.697Z</time></trkpt><trkpt lat="39.1596067" lon="16.15337"><ele>565.8</ele><time>2026-04-27T09:44:01.691Z</time></trkpt><trkpt lat="39.1595333" lon="16.153275"><ele>568.4</ele><time>2026-04-27T09:44:02.741Z</time></trkpt><trkpt lat="39.159445" lon="16.1532017"><ele>571.0</ele><time>2026-04-27T09:44:03.691Z</time></trkpt><trkpt lat="39.1593433" lon="16.1531633"><ele>571.0</ele><time>2026-04-27T09:44:04.688Z</time></trkpt><trkpt lat="39.1592517" lon="16.153125"><ele>571.0</ele><time>2026-04-27T09:44:05.693Z</time></trkpt><trkpt lat="39.1591767" lon="16.1530633"><ele>571.0</ele><time>2026-04-27T09:44:06.695Z</time></trkpt><trkpt lat="39.15911" lon="16.1529533"><ele>571.0</ele><time>2026-04-27T09:44:07.694Z</time></trkpt><trkpt lat="39.1590283" lon="16.1528267"><ele>571.0</ele><time>2026-04-27T09:44:08.723Z</time></trkpt><trkpt lat="39.1589483" lon="16.1526717"><ele>573.0</ele><time>2026-04-27T09:44:09.69Z</time></trkpt><trkpt lat="39.15885" lon="16.1525533"><ele>575.0</ele><time>2026-04-27T09:44:10.689Z</time></trkpt><trkpt lat="39.15875" lon="16.1524667"><ele>577.0</ele><time>2026-04-27T09:44:11.695Z</time></trkpt><trkpt lat="39.1586367" lon="16.1524133"><ele>579.0</ele><time>2026-04-27T09:44:12.698Z</time></trkpt><trkpt lat="39.1584983" lon="16.152415"><ele>579.0</ele><time>2026-04-27T09:44:13.695Z</time></trkpt><trkpt lat="39.1583533" lon="16.1524217"><ele>579.0</ele><time>2026-04-27T09:44:14.727Z</time></trkpt><trkpt lat="39.1581883" lon="16.152445"><ele>579.0</ele><time>2026-04-27T09:44:15.695Z</time></trkpt><trkpt lat="39.1580217" lon="16.152465"><ele>578.6666666666666</ele><time>2026-04-27T09:44:16.696Z</time></trkpt><trkpt lat="39.1578617" lon="16.1525"><ele>578.3333333333333</ele><time>2026-04-27T09:44:17.693Z</time></trkpt><trkpt lat="39.1577033" lon="16.15254"><ele>578.0</ele><time>2026-04-27T09:44:18.689Z</time></trkpt><trkpt lat="39.1575617" lon="16.15258"><ele>578.0</ele><time>2026-04-27T09:44:19.69Z</time></trkpt><trkpt lat="39.15744" lon="16.152615"><ele>578.0</ele><time>2026-04-27T09:44:20.728Z</time></trkpt><trkpt lat="39.157335" lon="16.15264"><ele>578.0</ele><time>2026-04-27T09:44:21.691Z</time></trkpt><trkpt lat="39.1572417" lon="16.152685"><ele>578.0</ele><time>2026-04-27T09:44:23.694Z</time></trkpt><trkpt lat="39.15714" lon="16.1526867"><ele>578.0</ele><time>2026-04-27T09:44:25.692Z</time></trkpt><trkpt lat="39.1570183" lon="16.1526083"><ele>576.4</ele><time>2026-04-27T09:44:27.694Z</time></trkpt><trkpt lat="39.15695" lon="16.1525317"><ele>574.8</ele><time>2026-04-27T09:44:28.694Z</time></trkpt><trkpt lat="39.1568383" lon="16.15243"><ele>573.2</ele><time>2026-04-27T09:44:29.694Z</time></trkpt><trkpt lat="39.1567667" lon="16.1523517"><ele>571.6</ele><time>2026-04-27T09:44:30.7Z</time></trkpt><trkpt lat="39.1566833" lon="16.15229"><ele>570.0</ele><time>2026-04-27T09:44:31.695Z</time></trkpt><trkpt lat="39.1565667" lon="16.1523083"><ele>573.0</ele><time>2026-04-27T09:44:33.693Z</time></trkpt><trkpt lat="39.1564683" lon="16.15234"><ele>576.0</ele><time>2026-04-27T09:44:35.695Z</time></trkpt><trkpt lat="39.1564417" lon="16.1524583"><ele>579.0</ele><time>2026-04-27T09:44:38.723Z</time></trkpt><trkpt lat="39.1564417" lon="16.1525667"><ele>582.0</ele><time>2026-04-27T09:44:40.699Z</time></trkpt><trkpt lat="39.1564" lon="16.1526833"><ele>585.0</ele><time>2026-04-27T09:44:43.694Z</time></trkpt><trkpt lat="39.1563133" lon="16.15288"><ele>589.0</ele><time>2026-04-27T09:44:46.698Z</time></trkpt><trkpt lat="39.156335" lon="16.153015"><ele>593.0</ele><time>2026-04-27T09:44:47.688Z</time></trkpt><trkpt lat="39.1563617" lon="16.1531833"><ele>597.0</ele><time>2026-04-27T09:44:48.696Z</time></trkpt><trkpt lat="39.156345" lon="16.15339"><ele>601.0</ele><time>2026-04-27T09:44:49.687Z</time></trkpt><trkpt lat="39.1563283" lon="16.1535867"><ele>603.0</ele><time>2026-04-27T09:44:50.721Z</time></trkpt><trkpt lat="39.1563067" lon="16.1537867"><ele>605.0</ele><time>2026-04-27T09:44:51.692Z</time></trkpt><trkpt lat="39.156285" lon="16.1539767"><ele>607.0</ele><time>2026-04-27T09:44:52.695Z</time></trkpt><trkpt lat="39.15626" lon="16.1541567"><ele>609.0</ele><time>2026-04-27T09:44:53.69Z</time></trkpt><trkpt lat="39.1562233" lon="16.1546317"><ele>609.8333333333334</ele><time>2026-04-27T09:44:56.76Z</time></trkpt><trkpt lat="39.15623" lon="16.1547617"><ele>610.6666666666666</ele><time>2026-04-27T09:44:57.696Z</time></trkpt><trkpt lat="39.1562467" lon="16.1548733"><ele>611.5</ele><time>2026-04-27T09:44:58.691Z</time></trkpt><trkpt lat="39.1562317" lon="16.1547833"><ele>612.3333333333333</ele><time>2026-04-27T09:45:03.695Z</time></trkpt><trkpt lat="39.156215" lon="16.1546917"><ele>613.1666666666666</ele><time>2026-04-27T09:45:04.701Z</time></trkpt><trkpt lat="39.1562083" lon="16.15459"><ele>614.0</ele><time>2026-04-27T09:45:05.689Z</time></trkpt><trkpt lat="39.1561983" lon="16.154495"><ele>614.0</ele><time>2026-04-27T09:45:06.698Z</time></trkpt><trkpt lat="39.1561783" lon="16.1544133"><ele>614.0</ele><time>2026-04-27T09:45:07.694Z</time></trkpt><trkpt lat="39.156085" lon="16.1543333"><ele>614.0</ele><time>2026-04-27T09:45:09.693Z</time></trkpt><trkpt lat="39.1559833" lon="16.1544517"><ele>614.0</ele><time>2026-04-27T09:45:11.691Z</time></trkpt><trkpt lat="39.1559333" lon="16.1545617"><ele>614.0</ele><time>2026-04-27T09:45:12.695Z</time></trkpt><trkpt lat="39.1558933" lon="16.1546917"><ele>614.0</ele><time>2026-04-27T09:45:13.703Z</time></trkpt><trkpt lat="39.1558467" lon="16.15484"><ele>614.0</ele><time>2026-04-27T09:45:14.725Z</time></trkpt><trkpt lat="39.1557933" lon="16.1550017"><ele>614.0</ele><time>2026-04-27T09:45:15.692Z</time></trkpt><trkpt lat="39.1557367" lon="16.1551767"><ele>614.0</ele><time>2026-04-27T09:45:16.692Z</time></trkpt><trkpt lat="39.1556783" lon="16.1553633"><ele>616.6666666666666</ele><time>2026-04-27T09:45:17.694Z</time></trkpt><trkpt lat="39.1556167" lon="16.1555483"><ele>619.3333333333334</ele><time>2026-04-27T09:45:18.693Z</time></trkpt><trkpt lat="39.1555483" lon="16.1557367"><ele>622.0</ele><time>2026-04-27T09:45:19.695Z</time></trkpt><trkpt lat="39.1554717" lon="16.1559383"><ele>622.6666666666667</ele><time>2026-04-27T09:45:20.726Z</time></trkpt><trkpt lat="39.15539" lon="16.1561583"><ele>623.3333333333334</ele><time>2026-04-27T09:45:21.691Z</time></trkpt><trkpt lat="39.1553183" lon="16.1563733"><ele>624.0</ele><time>2026-04-27T09:45:22.692Z</time></trkpt><trkpt lat="39.15525" lon="16.1565617"><ele>625.4</ele><time>2026-04-27T09:45:23.689Z</time></trkpt><trkpt lat="39.155195" lon="16.156715"><ele>626.8</ele><time>2026-04-27T09:45:24.692Z</time></trkpt><trkpt lat="39.1551817" lon="16.15685"><ele>628.2</ele><time>2026-04-27T09:45:25.699Z</time></trkpt><trkpt lat="39.15524" lon="16.1569217"><ele>629.6</ele><time>2026-04-27T09:45:26.735Z</time></trkpt><trkpt lat="39.1552883" lon="16.1570217"><ele>631.0</ele><time>2026-04-27T09:45:27.691Z</time></trkpt><trkpt lat="39.15536" lon="16.1571283"><ele>631.0</ele><time>2026-04-27T09:45:28.689Z</time></trkpt><trkpt lat="39.1554383" lon="16.1572467"><ele>631.0</ele><time>2026-04-27T09:45:29.692Z</time></trkpt><trkpt lat="39.1555383" lon="16.1573867"><ele>631.0</ele><time>2026-04-27T09:45:30.692Z</time></trkpt><trkpt lat="39.1556383" lon="16.1575217"><ele>631.0</ele><time>2026-04-27T09:45:31.691Z</time></trkpt><trkpt lat="39.15573" lon="16.157655"><ele>633.2</ele><time>2026-04-27T09:45:32.74Z</time></trkpt><trkpt lat="39.1557867" lon="16.15776"><ele>635.4000000000001</ele><time>2026-04-27T09:45:33.702Z</time></trkpt><trkpt lat="39.155825" lon="16.157915"><ele>637.6</ele><time>2026-04-27T09:45:35.691Z</time></trkpt><trkpt lat="39.1557817" lon="16.15801"><ele>639.8000000000001</ele><time>2026-04-27T09:45:37.693Z</time></trkpt><trkpt lat="39.1557167" lon="16.15803"><ele>642.0</ele><time>2026-04-27T09:45:38.725Z</time></trkpt><trkpt lat="39.1556083" lon="16.1580217"><ele>642.0</ele><time>2026-04-27T09:45:39.693Z</time></trkpt><trkpt lat="39.155475" lon="16.1580117"><ele>642.0</ele><time>2026-04-27T09:45:40.694Z</time></trkpt><trkpt lat="39.1553033" lon="16.1579917"><ele>642.0</ele><time>2026-04-27T09:45:41.695Z</time></trkpt><trkpt lat="39.1550667" lon="16.1579617"><ele>634.5</ele><time>2026-04-27T09:45:42.698Z</time></trkpt><trkpt lat="39.1548367" lon="16.1579133"><ele>627.0</ele><time>2026-04-27T09:45:43.694Z</time></trkpt><trkpt lat="39.1546117" lon="16.157865"><ele>627.0</ele><time>2026-04-27T09:45:44.734Z</time></trkpt><trkpt lat="39.154405" lon="16.15783"><ele>627.0</ele><time>2026-04-27T09:45:45.701Z</time></trkpt><trkpt lat="39.1542267" lon="16.1577733"><ele>627.0</ele><time>2026-04-27T09:45:46.691Z</time></trkpt><trkpt lat="39.1540883" lon="16.1577"><ele>625.0</ele><time>2026-04-27T09:45:47.693Z</time></trkpt><trkpt lat="39.1539917" lon="16.1576333"><ele>623.0</ele><time>2026-04-27T09:45:48.7Z</time></trkpt><trkpt lat="39.1539117" lon="16.1575683"><ele>621.0</ele><time>2026-04-27T09:45:49.698Z</time></trkpt><trkpt lat="39.1538317" lon="16.1574933"><ele>619.0</ele><time>2026-04-27T09:45:50.733Z</time></trkpt><trkpt lat="39.1537467" lon="16.1574083"><ele>617.0</ele><time>2026-04-27T09:45:51.696Z</time></trkpt><trkpt lat="39.1536533" lon="16.1573333"><ele>614.5</ele><time>2026-04-27T09:45:52.698Z</time></trkpt><trkpt lat="39.1535517" lon="16.157265"><ele>612.0</ele><time>2026-04-27T09:45:53.699Z</time></trkpt><trkpt lat="39.1534417" lon="16.1572"><ele>609.5</ele><time>2026-04-27T09:45:54.697Z</time></trkpt><trkpt lat="39.1533233" lon="16.1571517"><ele>607.0</ele><time>2026-04-27T09:45:55.696Z</time></trkpt><trkpt lat="39.1531917" lon="16.1571183"><ele>603.6666666666667</ele><time>2026-04-27T09:45:56.741Z</time></trkpt><trkpt lat="39.153055" lon="16.1571017"><ele>600.3333333333334</ele><time>2026-04-27T09:45:57.692Z</time></trkpt><trkpt lat="39.1529017" lon="16.1570933"><ele>597.0</ele><time>2026-04-27T09:45:58.702Z</time></trkpt><trkpt lat="39.152725" lon="16.1570867"><ele>597.0</ele><time>2026-04-27T09:45:59.694Z</time></trkpt><trkpt lat="39.15255" lon="16.1570817"><ele>597.0</ele><time>2026-04-27T09:46:00.699Z</time></trkpt><trkpt lat="39.1523833" lon="16.1571067"><ele>597.0</ele><time>2026-04-27T09:46:01.694Z</time></trkpt><trkpt lat="39.1522283" lon="16.15715"><ele>595.25</ele><time>2026-04-27T09:46:02.744Z</time></trkpt><trkpt lat="39.1520817" lon="16.1572133"><ele>593.5</ele><time>2026-04-27T09:46:03.701Z</time></trkpt><trkpt lat="39.1519383" lon="16.1572683"><ele>591.75</ele><time>2026-04-27T09:46:04.696Z</time></trkpt><trkpt lat="39.1518033" lon="16.1573117"><ele>590.0</ele><time>2026-04-27T09:46:05.69Z</time></trkpt><trkpt lat="39.15167" lon="16.1573417"><ele>588.75</ele><time>2026-04-27T09:46:06.699Z</time></trkpt><trkpt lat="39.1515283" lon="16.1573683"><ele>587.5</ele><time>2026-04-27T09:46:07.691Z</time></trkpt><trkpt lat="39.1513833" lon="16.1574"><ele>586.25</ele><time>2026-04-27T09:46:08.728Z</time></trkpt><trkpt lat="39.1512483" lon="16.157425"><ele>585.0</ele><time>2026-04-27T09:46:09.69Z</time></trkpt><trkpt lat="39.1511217" lon="16.1574417"><ele>585.0</ele><time>2026-04-27T09:46:10.694Z</time></trkpt><trkpt lat="39.150995" lon="16.1574467"><ele>585.0</ele><time>2026-04-27T09:46:11.689Z</time></trkpt><trkpt lat="39.150885" lon="16.1574483"><ele>585.0</ele><time>2026-04-27T09:46:12.694Z</time></trkpt><trkpt lat="39.1507917" lon="16.15744"><ele>585.0</ele><time>2026-04-27T09:46:13.699Z</time></trkpt><trkpt lat="39.1506967" lon="16.1574167"><ele>585.0</ele><time>2026-04-27T09:46:14.729Z</time></trkpt><trkpt lat="39.1505933" lon="16.1573333"><ele>583.0</ele><time>2026-04-27T09:46:15.694Z</time></trkpt><trkpt lat="39.1504883" lon="16.1572483"><ele>581.0</ele><time>2026-04-27T09:46:16.701Z</time></trkpt><trkpt lat="39.1503783" lon="16.157135"><ele>579.0</ele><time>2026-04-27T09:46:17.693Z</time></trkpt><trkpt lat="39.1502817" lon="16.1570267"><ele>577.0</ele><time>2026-04-27T09:46:18.693Z</time></trkpt><trkpt lat="39.1502" lon="16.1569217"><ele>577.0</ele><time>2026-04-27T09:46:19.69Z</time></trkpt><trkpt lat="39.15013" lon="16.156805"><ele>577.0</ele><time>2026-04-27T09:46:20.734Z</time></trkpt><trkpt lat="39.15006" lon="16.1566967"><ele>577.0</ele><time>2026-04-27T09:46:21.689Z</time></trkpt><trkpt lat="39.1499933" lon="16.1566083"><ele>577.0</ele><time>2026-04-27T09:46:22.698Z</time></trkpt><trkpt lat="39.1499267" lon="16.1565983"><ele>577.0</ele><time>2026-04-27T09:46:23.698Z</time></trkpt><trkpt lat="39.1498517" lon="16.1566017"><ele>576.2</ele><time>2026-04-27T09:46:24.701Z</time></trkpt><trkpt lat="39.1497633" lon="16.1566117"><ele>575.4000000000001</ele><time>2026-04-27T09:46:25.692Z</time></trkpt><trkpt lat="39.149675" lon="16.1566433"><ele>574.5999999999999</ele><time>2026-04-27T09:46:26.743Z</time></trkpt><trkpt lat="39.149605" lon="16.1567433"><ele>573.8</ele><time>2026-04-27T09:46:27.691Z</time></trkpt><trkpt lat="39.1495167" lon="16.156825"><ele>573.0</ele><time>2026-04-27T09:46:28.695Z</time></trkpt><trkpt lat="39.1494233" lon="16.1568867"><ele>573.0</ele><time>2026-04-27T09:46:29.7Z</time></trkpt><trkpt lat="39.14931" lon="16.1568983"><ele>573.0</ele><time>2026-04-27T09:46:30.697Z</time></trkpt><trkpt lat="39.1491883" lon="16.1569017"><ele>573.0</ele><time>2026-04-27T09:46:31.695Z</time></trkpt><trkpt lat="39.149055" lon="16.1568967"><ele>573.0</ele><time>2026-04-27T09:46:32.744Z</time></trkpt><trkpt lat="39.148905" lon="16.1568917"><ele>571.75</ele><time>2026-04-27T09:46:33.692Z</time></trkpt><trkpt lat="39.1487533" lon="16.1568917"><ele>570.5</ele><time>2026-04-27T09:46:34.694Z</time></trkpt><trkpt lat="39.1486083" lon="16.1568983"><ele>569.25</ele><time>2026-04-27T09:46:35.692Z</time></trkpt><trkpt lat="39.1484717" lon="16.1568933"><ele>568.0</ele><time>2026-04-27T09:46:36.7Z</time></trkpt><trkpt lat="39.14834" lon="16.156865"><ele>568.0</ele><time>2026-04-27T09:46:37.694Z</time></trkpt><trkpt lat="39.14821" lon="16.1567933"><ele>568.0</ele><time>2026-04-27T09:46:38.733Z</time></trkpt><trkpt lat="39.1480617" lon="16.15672"><ele>568.0</ele><time>2026-04-27T09:46:39.695Z</time></trkpt><trkpt lat="39.1478967" lon="16.1566617"><ele>565.0</ele><time>2026-04-27T09:46:40.699Z</time></trkpt><trkpt lat="39.1477267" lon="16.1566183"><ele>562.0</ele><time>2026-04-27T09:46:41.701Z</time></trkpt><trkpt lat="39.147555" lon="16.1565867"><ele>559.0</ele><time>2026-04-27T09:46:42.696Z</time></trkpt><trkpt lat="39.147375" lon="16.1565733"><ele>556.0</ele><time>2026-04-27T09:46:43.692Z</time></trkpt><trkpt lat="39.1471983" lon="16.1565717"><ele>553.0</ele><time>2026-04-27T09:46:44.734Z</time></trkpt><trkpt lat="39.1470267" lon="16.15658"><ele>550.0</ele><time>2026-04-27T09:46:45.69Z</time></trkpt><trkpt lat="39.1468767" lon="16.1565967"><ele>550.0</ele><time>2026-04-27T09:46:46.696Z</time></trkpt><trkpt lat="39.1467533" lon="16.1566117"><ele>550.0</ele><time>2026-04-27T09:46:47.697Z</time></trkpt><trkpt lat="39.1466533" lon="16.1566217"><ele>550.0</ele><time>2026-04-27T09:46:48.696Z</time></trkpt><trkpt lat="39.1465633" lon="16.1566"><ele>550.0</ele><time>2026-04-27T09:46:49.692Z</time></trkpt><trkpt lat="39.146495" lon="16.1565633"><ele>550.0</ele><time>2026-04-27T09:46:50.733Z</time></trkpt><trkpt lat="39.1464683" lon="16.1564617"><ele>550.0</ele><time>2026-04-27T09:46:51.69Z</time></trkpt><trkpt lat="39.146455" lon="16.156345"><ele>550.0</ele><time>2026-04-27T09:46:52.69Z</time></trkpt><trkpt lat="39.146475" lon="16.1562067"><ele>550.0</ele><time>2026-04-27T09:46:53.692Z</time></trkpt><trkpt lat="39.1465017" lon="16.1560833"><ele>550.0</ele><time>2026-04-27T09:46:54.7Z</time></trkpt><trkpt lat="39.1465417" lon="16.1559733"><ele>550.0</ele><time>2026-04-27T09:46:55.698Z</time></trkpt><trkpt lat="39.1465983" lon="16.1558783"><ele>550.0</ele><time>2026-04-27T09:46:56.741Z</time></trkpt><trkpt lat="39.14668" lon="16.155795"><ele>550.0</ele><time>2026-04-27T09:46:57.692Z</time></trkpt><trkpt lat="39.1467783" lon="16.15574"><ele>550.0</ele><time>2026-04-27T09:46:58.694Z</time></trkpt><trkpt lat="39.1468617" lon="16.1556867"><ele>550.0</ele><time>2026-04-27T09:46:59.708Z</time></trkpt><trkpt lat="39.146925" lon="16.1556333"><ele>550.0</ele><time>2026-04-27T09:47:00.699Z</time></trkpt><trkpt lat="39.1468733" lon="16.1555533"><ele>546.4</ele><time>2026-04-27T09:47:03.694Z</time></trkpt><trkpt lat="39.146795" lon="16.1555617"><ele>542.8</ele><time>2026-04-27T09:47:04.695Z</time></trkpt><trkpt lat="39.1467017" lon="16.15558"><ele>539.2</ele><time>2026-04-27T09:47:05.702Z</time></trkpt><trkpt lat="39.1465833" lon="16.1556033"><ele>535.6</ele><time>2026-04-27T09:47:06.698Z</time></trkpt><trkpt lat="39.1464533" lon="16.1556317"><ele>532.0</ele><time>2026-04-27T09:47:07.692Z</time></trkpt><trkpt lat="39.14634" lon="16.155665"><ele>529.6</ele><time>2026-04-27T09:47:08.735Z</time></trkpt><trkpt lat="39.146235" lon="16.1557267"><ele>527.2</ele><time>2026-04-27T09:47:09.689Z</time></trkpt><trkpt lat="39.1461433" lon="16.1558017"><ele>524.8</ele><time>2026-04-27T09:47:10.697Z</time></trkpt><trkpt lat="39.1460633" lon="16.155895"><ele>522.4</ele><time>2026-04-27T09:47:11.689Z</time></trkpt><trkpt lat="39.146" lon="16.1560083"><ele>520.0</ele><time>2026-04-27T09:47:12.688Z</time></trkpt><trkpt lat="39.1459517" lon="16.1561483"><ele>520.0</ele><time>2026-04-27T09:47:13.692Z</time></trkpt><trkpt lat="39.1459" lon="16.1562933"><ele>520.0</ele><time>2026-04-27T09:47:14.733Z</time></trkpt><trkpt lat="39.1458383" lon="16.1564317"><ele>520.0</ele><time>2026-04-27T09:47:15.694Z</time></trkpt><trkpt lat="39.1457667" lon="16.15656"><ele>520.0</ele><time>2026-04-27T09:47:16.694Z</time></trkpt><trkpt lat="39.1457" lon="16.1566867"><ele>515.6</ele><time>2026-04-27T09:47:17.688Z</time></trkpt><trkpt lat="39.145645" lon="16.1568167"><ele>511.2</ele><time>2026-04-27T09:47:18.691Z</time></trkpt><trkpt lat="39.1455917" lon="16.1569467"><ele>506.79999999999995</ele><time>2026-04-27T09:47:19.698Z</time></trkpt><trkpt lat="39.1455383" lon="16.1570667"><ele>502.4</ele><time>2026-04-27T09:47:20.727Z</time></trkpt><trkpt lat="39.1454767" lon="16.157165"><ele>498.0</ele><time>2026-04-27T09:47:21.694Z</time></trkpt><trkpt lat="39.1454033" lon="16.15722"><ele>498.0</ele><time>2026-04-27T09:47:22.692Z</time></trkpt><trkpt lat="39.1453367" lon="16.1572217"><ele>498.0</ele><time>2026-04-27T09:47:23.692Z</time></trkpt><trkpt lat="39.14527" lon="16.1572033"><ele>498.0</ele><time>2026-04-27T09:47:24.698Z</time></trkpt><trkpt lat="39.145255" lon="16.1571067"><ele>498.0</ele><time>2026-04-27T09:47:25.695Z</time></trkpt><trkpt lat="39.14524" lon="16.1569967"><ele>498.0</ele><time>2026-04-27T09:47:26.759Z</time></trkpt><trkpt lat="39.1452267" lon="16.1568633"><ele>498.0</ele><time>2026-04-27T09:47:27.692Z</time></trkpt><trkpt lat="39.1452133" lon="16.15672"><ele>498.0</ele><time>2026-04-27T09:47:28.696Z</time></trkpt><trkpt lat="39.1452" lon="16.1565767"><ele>497.99999999999994</ele><time>2026-04-27T09:47:29.693Z</time></trkpt><trkpt lat="39.1452067" lon="16.1564333"><ele>497.99999999999994</ele><time>2026-04-27T09:47:30.697Z</time></trkpt><trkpt lat="39.1452183" lon="16.1562983"><ele>498.0</ele><time>2026-04-27T09:47:31.694Z</time></trkpt><trkpt lat="39.1452317" lon="16.1561783"><ele>498.0</ele><time>2026-04-27T09:47:32.744Z</time></trkpt><trkpt lat="39.1451817" lon="16.156125"><ele>496.0</ele><time>2026-04-27T09:47:34.692Z</time></trkpt><trkpt lat="39.1450733" lon="16.1562483"><ele>494.0</ele><time>2026-04-27T09:47:36.694Z</time></trkpt><trkpt lat="39.1449967" lon="16.1563317"><ele>492.0</ele><time>2026-04-27T09:47:37.697Z</time></trkpt><trkpt lat="39.1449033" lon="16.1564417"><ele>490.0</ele><time>2026-04-27T09:47:38.728Z</time></trkpt><trkpt lat="39.1448033" lon="16.1565633"><ele>483.0</ele><time>2026-04-27T09:47:39.691Z</time></trkpt><trkpt lat="39.1447067" lon="16.1566983"><ele>476.0</ele><time>2026-04-27T09:47:40.693Z</time></trkpt><trkpt lat="39.14461" lon="16.156855"><ele>469.0</ele><time>2026-04-27T09:47:41.704Z</time></trkpt><trkpt lat="39.1445183" lon="16.157015"><ele>469.0</ele><time>2026-04-27T09:47:42.699Z</time></trkpt><trkpt lat="39.1444333" lon="16.157165"><ele>469.0</ele><time>2026-04-27T09:47:43.697Z</time></trkpt><trkpt lat="39.14435" lon="16.15729"><ele>469.0</ele><time>2026-04-27T09:47:44.731Z</time></trkpt><trkpt lat="39.1442633" lon="16.15739"><ele>469.0</ele><time>2026-04-27T09:47:45.697Z</time></trkpt><trkpt lat="39.1441667" lon="16.1574617"><ele>470.2</ele><time>2026-04-27T09:47:46.696Z</time></trkpt><trkpt lat="39.1440583" lon="16.1575017"><ele>471.4</ele><time>2026-04-27T09:47:47.698Z</time></trkpt><trkpt lat="39.1439483" lon="16.15754"><ele>472.6</ele><time>2026-04-27T09:47:48.698Z</time></trkpt><trkpt lat="39.143845" lon="16.1575917"><ele>473.8</ele><time>2026-04-27T09:47:49.692Z</time></trkpt><trkpt lat="39.1437467" lon="16.1576417"><ele>475.0</ele><time>2026-04-27T09:47:50.731Z</time></trkpt><trkpt lat="39.143655" lon="16.1576967"><ele>470.50000000000006</ele><time>2026-04-27T09:47:51.693Z</time></trkpt><trkpt lat="39.143575" lon="16.1577467"><ele>466.0</ele><time>2026-04-27T09:47:52.699Z</time></trkpt><trkpt lat="39.143505" lon="16.1577883"><ele>461.5</ele><time>2026-04-27T09:47:53.692Z</time></trkpt><trkpt lat="39.1434067" lon="16.1578267"><ele>457.0</ele><time>2026-04-27T09:47:55.693Z</time></trkpt><trkpt lat="39.1433417" lon="16.1577933"><ele>452.50000000000006</ele><time>2026-04-27T09:47:58.696Z</time></trkpt><trkpt lat="39.1433467" lon="16.1577033"><ele>448.0</ele><time>2026-04-27T09:48:04.701Z</time></trkpt><trkpt lat="39.1434367" lon="16.1576267"><ele>448.0</ele><time>2026-04-27T09:48:06.689Z</time></trkpt><trkpt lat="39.1435083" lon="16.1576017"><ele>447.99999999999994</ele><time>2026-04-27T09:48:07.698Z</time></trkpt><trkpt lat="39.1435883" lon="16.15757"><ele>447.99999999999994</ele><time>2026-04-27T09:48:08.733Z</time></trkpt><trkpt lat="39.1436717" lon="16.1575233"><ele>448.0</ele><time>2026-04-27T09:48:09.693Z</time></trkpt><trkpt lat="39.1437383" lon="16.1574167"><ele>448.0</ele><time>2026-04-27T09:48:10.697Z</time></trkpt><trkpt lat="39.1438033" lon="16.1573033"><ele>446.0</ele><time>2026-04-27T09:48:11.698Z</time></trkpt><trkpt lat="39.1438767" lon="16.1571983"><ele>443.99999999999994</ele><time>2026-04-27T09:48:12.701Z</time></trkpt><trkpt lat="39.1439583" lon="16.15711"><ele>441.99999999999994</ele><time>2026-04-27T09:48:13.693Z</time></trkpt><trkpt lat="39.144035" lon="16.15704"><ele>440.0</ele><time>2026-04-27T09:48:14.734Z</time></trkpt><trkpt lat="39.1441017" lon="16.1569733"><ele>438.0</ele><time>2026-04-27T09:48:15.693Z</time></trkpt><trkpt lat="39.1441483" lon="16.1569033"><ele>438.0</ele><time>2026-04-27T09:48:16.693Z</time></trkpt><trkpt lat="39.1440817" lon="16.1568417"><ele>438.0</ele><time>2026-04-27T09:48:19.692Z</time></trkpt><trkpt lat="39.143925" lon="16.1569217"><ele>438.0</ele><time>2026-04-27T09:48:21.692Z</time></trkpt><trkpt lat="39.1438233" lon="16.1569933"><ele>438.0</ele><time>2026-04-27T09:48:22.692Z</time></trkpt><trkpt lat="39.143715" lon="16.157065"><ele>438.0</ele><time>2026-04-27T09:48:23.684Z</time></trkpt><trkpt lat="39.14362" lon="16.1571533"><ele>438.0</ele><time>2026-04-27T09:48:24.695Z</time></trkpt><trkpt lat="39.1435217" lon="16.157225"><ele>438.0</ele><time>2026-04-27T09:48:25.693Z</time></trkpt><trkpt lat="39.143415" lon="16.1572917"><ele>438.0</ele><time>2026-04-27T09:48:26.749Z</time></trkpt><trkpt lat="39.1433067" lon="16.15734"><ele>436.2</ele><time>2026-04-27T09:48:27.692Z</time></trkpt><trkpt lat="39.1432" lon="16.15737"><ele>434.4</ele><time>2026-04-27T09:48:28.694Z</time></trkpt><trkpt lat="39.143085" lon="16.1573467"><ele>432.59999999999997</ele><time>2026-04-27T09:48:29.692Z</time></trkpt><trkpt lat="39.1429717" lon="16.1573133"><ele>430.79999999999995</ele><time>2026-04-27T09:48:30.696Z</time></trkpt><trkpt lat="39.1428717" lon="16.1572967"><ele>429.0</ele><time>2026-04-27T09:48:31.695Z</time></trkpt><trkpt lat="39.1427967" lon="16.1573167"><ele>429.0</ele><time>2026-04-27T09:48:32.742Z</time></trkpt><trkpt lat="39.14274" lon="16.1573533"><ele>429.0</ele><time>2026-04-27T09:48:33.693Z</time></trkpt><trkpt lat="39.1427117" lon="16.15752"><ele>429.0</ele><time>2026-04-27T09:48:35.693Z</time></trkpt><trkpt lat="39.1427117" lon="16.1576217"><ele>429.0</ele><time>2026-04-27T09:48:36.696Z</time></trkpt><trkpt lat="39.1427267" lon="16.1577233"><ele>429.0</ele><time>2026-04-27T09:48:37.697Z</time></trkpt><trkpt lat="39.1427583" lon="16.157815"><ele>429.0</ele><time>2026-04-27T09:48:38.734Z</time></trkpt><trkpt lat="39.1427917" lon="16.1578867"><ele>429.0</ele><time>2026-04-27T09:48:39.695Z</time></trkpt><trkpt lat="39.1428017" lon="16.1579783"><ele>429.0</ele><time>2026-04-27T09:48:42.692Z</time></trkpt><trkpt lat="39.1426867" lon="16.157925"><ele>429.0</ele><time>2026-04-27T09:48:44.731Z</time></trkpt><trkpt lat="39.1425917" lon="16.1578617"><ele>429.0</ele><time>2026-04-27T09:48:45.689Z</time></trkpt><trkpt lat="39.1424917" lon="16.1577867"><ele>429.0</ele><time>2026-04-27T09:48:46.697Z</time></trkpt><trkpt lat="39.1423917" lon="16.1577033"><ele>424.75</ele><time>2026-04-27T09:48:47.696Z</time></trkpt><trkpt lat="39.1423" lon="16.1576167"><ele>420.5</ele><time>2026-04-27T09:48:48.695Z</time></trkpt><trkpt lat="39.1422067" lon="16.1575283"><ele>416.25</ele><time>2026-04-27T09:48:49.688Z</time></trkpt><trkpt lat="39.1421117" lon="16.1574483"><ele>412.0</ele><time>2026-04-27T09:48:50.731Z</time></trkpt><trkpt lat="39.1420133" lon="16.1573783"><ele>410.25</ele><time>2026-04-27T09:48:51.689Z</time></trkpt><trkpt lat="39.1419133" lon="16.157305"><ele>408.5</ele><time>2026-04-27T09:48:52.696Z</time></trkpt><trkpt lat="39.1418133" lon="16.15723"><ele>406.75</ele><time>2026-04-27T09:48:53.695Z</time></trkpt><trkpt lat="39.141715" lon="16.1571483"><ele>405.0</ele><time>2026-04-27T09:48:54.699Z</time></trkpt><trkpt lat="39.1416183" lon="16.1570667"><ele>404.4</ele><time>2026-04-27T09:48:55.689Z</time></trkpt><trkpt lat="39.1415217" lon="16.1569933"><ele>403.8</ele><time>2026-04-27T09:48:56.748Z</time></trkpt><trkpt lat="39.1414267" lon="16.1569267"><ele>403.20000000000005</ele><time>2026-04-27T09:48:57.69Z</time></trkpt><trkpt lat="39.1413317" lon="16.1568683"><ele>402.6</ele><time>2026-04-27T09:48:58.695Z</time></trkpt><trkpt lat="39.1412383" lon="16.1568117"><ele>402.0</ele><time>2026-04-27T09:48:59.693Z</time></trkpt><trkpt lat="39.141145" lon="16.1567483"><ele>402.0</ele><time>2026-04-27T09:49:00.697Z</time></trkpt><trkpt lat="39.1410533" lon="16.1566733"><ele>402.0</ele><time>2026-04-27T09:49:01.693Z</time></trkpt><trkpt lat="39.1409683" lon="16.1565817"><ele>402.0</ele><time>2026-04-27T09:49:02.749Z</time></trkpt><trkpt lat="39.1408867" lon="16.156485"><ele>402.0</ele><time>2026-04-27T09:49:03.694Z</time></trkpt><trkpt lat="39.1408033" lon="16.1563867"><ele>402.0</ele><time>2026-04-27T09:49:04.698Z</time></trkpt><trkpt lat="39.1407183" lon="16.1562867"><ele>397.40000000000003</ele><time>2026-04-27T09:49:05.696Z</time></trkpt><trkpt lat="39.140635" lon="16.1561933"><ele>392.8</ele><time>2026-04-27T09:49:06.695Z</time></trkpt><trkpt lat="39.140545" lon="16.156105"><ele>388.2</ele><time>2026-04-27T09:49:07.692Z</time></trkpt><trkpt lat="39.1404533" lon="16.156025"><ele>383.6</ele><time>2026-04-27T09:49:08.734Z</time></trkpt><trkpt lat="39.14036" lon="16.1559517"><ele>379.0</ele><time>2026-04-27T09:49:09.685Z</time></trkpt><trkpt lat="39.140275" lon="16.1558817"><ele>379.0</ele><time>2026-04-27T09:49:10.693Z</time></trkpt><trkpt lat="39.14021" lon="16.15581"><ele>379.0</ele><time>2026-04-27T09:49:11.693Z</time></trkpt><trkpt lat="39.1401583" lon="16.1557333"><ele>379.0</ele><time>2026-04-27T09:49:12.7Z</time></trkpt><trkpt lat="39.14011" lon="16.1556583"><ele>379.0</ele><time>2026-04-27T09:49:13.692Z</time></trkpt><trkpt lat="39.1400633" lon="16.1555917"><ele>379.0</ele><time>2026-04-27T09:49:14.733Z</time></trkpt><trkpt lat="39.1400117" lon="16.15554"><ele>379.0</ele><time>2026-04-27T09:49:15.693Z</time></trkpt><trkpt lat="39.1399133" lon="16.1554967"><ele>378.4</ele><time>2026-04-27T09:49:17.691Z</time></trkpt><trkpt lat="39.1398083" lon="16.1554283"><ele>377.79999999999995</ele><time>2026-04-27T09:49:19.7Z</time></trkpt><trkpt lat="39.139755" lon="16.1552983"><ele>377.20000000000005</ele><time>2026-04-27T09:49:21.694Z</time></trkpt><trkpt lat="39.1397867" lon="16.1551867"><ele>376.6</ele><time>2026-04-27T09:49:23.693Z</time></trkpt><trkpt lat="39.13987" lon="16.1550883"><ele>376.0</ele><time>2026-04-27T09:49:25.695Z</time></trkpt><trkpt lat="39.139925" lon="16.15503"><ele>376.0</ele><time>2026-04-27T09:49:26.749Z</time></trkpt><trkpt lat="39.13998" lon="16.15498"><ele>376.0</ele><time>2026-04-27T09:49:27.689Z</time></trkpt><trkpt lat="39.1400367" lon="16.1549283"><ele>376.0</ele><time>2026-04-27T09:49:28.688Z</time></trkpt><trkpt lat="39.1400917" lon="16.1548667"><ele>376.0</ele><time>2026-04-27T09:49:29.695Z</time></trkpt><trkpt lat="39.1401433" lon="16.1547933"><ele>376.0</ele><time>2026-04-27T09:49:30.693Z</time></trkpt><trkpt lat="39.14019" lon="16.1547117"><ele>376.0</ele><time>2026-04-27T09:49:31.696Z</time></trkpt><trkpt lat="39.1402333" lon="16.15463"><ele>376.0</ele><time>2026-04-27T09:49:32.746Z</time></trkpt><trkpt lat="39.14027" lon="16.15456"><ele>373.5</ele><time>2026-04-27T09:49:33.689Z</time></trkpt><trkpt lat="39.1403367" lon="16.15447"><ele>371.0</ele><time>2026-04-27T09:49:35.689Z</time></trkpt><trkpt lat="39.1403967" lon="16.154445"><ele>368.5</ele><time>2026-04-27T09:49:37.685Z</time></trkpt><trkpt lat="39.1404933" lon="16.1544483"><ele>366.0</ele><time>2026-04-27T09:49:51.691Z</time></trkpt><trkpt lat="39.14039" lon="16.1544683"><ele>363.5</ele><time>2026-04-27T09:50:08.724Z</time></trkpt><trkpt lat="39.1403217" lon="16.1545317"><ele>361.0</ele><time>2026-04-27T09:50:11.697Z</time></trkpt><trkpt lat="39.14028" lon="16.1546483"><ele>361.0</ele><time>2026-04-27T09:50:14.73Z</time></trkpt><trkpt lat="39.1402183" lon="16.1547583"><ele>361.0</ele><time>2026-04-27T09:50:16.695Z</time></trkpt><trkpt lat="39.1401433" lon="16.1548733"><ele>361.0</ele><time>2026-04-27T09:50:18.694Z</time></trkpt><trkpt lat="39.1400867" lon="16.154945"><ele>361.0</ele><time>2026-04-27T09:50:20.73Z</time></trkpt><trkpt lat="39.1400067" lon="16.1549317"><ele>361.0</ele><time>2026-04-27T09:50:23.698Z</time></trkpt><trkpt lat="39.1400483" lon="16.15485"><ele>361.0</ele><time>2026-04-27T09:50:28.686Z</time></trkpt><trkpt lat="39.1401133" lon="16.15484"><ele>361.0</ele><time>2026-04-27T09:50:31.696Z</time></trkpt><trkpt lat="39.1401783" lon="16.1547467"><ele>361.0</ele><time>2026-04-27T09:50:34.692Z</time></trkpt><trkpt lat="39.1402217" lon="16.154665"><ele>361.0</ele><time>2026-04-27T09:50:36.698Z</time></trkpt><trkpt lat="39.1402517" lon="16.1545767"><ele>361.0</ele><time>2026-04-27T09:50:38.732Z</time></trkpt><trkpt lat="39.14028" lon="16.1544967"><ele>361.0</ele><time>2026-04-27T09:50:40.697Z</time></trkpt><trkpt lat="39.1403583" lon="16.15445"><ele>361.0</ele><time>2026-04-27T09:50:43.695Z</time></trkpt><trkpt lat="39.1403783" lon="16.1543717"><ele>361.0</ele><time>2026-04-27T09:50:46.689Z</time></trkpt><trkpt lat="39.1402983" lon="16.15433"><ele>361.0</ele><time>2026-04-27T09:50:48.7Z</time></trkpt><trkpt lat="39.140235" lon="16.1543117"><ele>361.0</ele><time>2026-04-27T09:50:49.69Z</time></trkpt><trkpt lat="39.1401233" lon="16.1542683"><ele>361.0</ele><time>2026-04-27T09:50:51.693Z</time></trkpt><trkpt lat="39.14004" lon="16.1541733"><ele>361.0</ele><time>2026-04-27T09:50:53.693Z</time></trkpt><trkpt lat="39.13999" lon="16.1540217"><ele>359.14285714285717</ele><time>2026-04-27T09:50:55.698Z</time></trkpt><trkpt lat="39.1399683" lon="16.1539267"><ele>357.2857142857143</ele><time>2026-04-27T09:50:56.718Z</time></trkpt><trkpt lat="39.1399483" lon="16.1538267"><ele>355.42857142857144</ele><time>2026-04-27T09:50:57.698Z</time></trkpt><trkpt lat="39.13993" lon="16.1537333"><ele>353.57142857142856</ele><time>2026-04-27T09:50:58.698Z</time></trkpt><trkpt lat="39.1399133" lon="16.1536467"><ele>351.7142857142857</ele><time>2026-04-27T09:50:59.694Z</time></trkpt><trkpt lat="39.1399017" lon="16.1535633"><ele>349.85714285714283</ele><time>2026-04-27T09:51:00.698Z</time></trkpt><trkpt lat="39.13989" lon="16.1534833"><ele>348.0</ele><time>2026-04-27T09:51:01.699Z</time></trkpt><trkpt lat="39.1398733" lon="16.1533217"><ele>344.59999999999997</ele><time>2026-04-27T09:51:03.697Z</time></trkpt><trkpt lat="39.1398633" lon="16.15317"><ele>341.2</ele><time>2026-04-27T09:51:05.699Z</time></trkpt><trkpt lat="39.139865" lon="16.1530367"><ele>337.8</ele><time>2026-04-27T09:51:07.694Z</time></trkpt><trkpt lat="39.1398317" lon="16.1529367"><ele>334.4</ele><time>2026-04-27T09:51:09.695Z</time></trkpt><trkpt lat="39.1397583" lon="16.1528383"><ele>331.0</ele><time>2026-04-27T09:51:11.694Z</time></trkpt><trkpt lat="39.1397017" lon="16.1527417"><ele>331.0</ele><time>2026-04-27T09:51:13.695Z</time></trkpt><trkpt lat="39.1396783" lon="16.1526617"><ele>331.0</ele><time>2026-04-27T09:51:15.694Z</time></trkpt><trkpt lat="39.13967" lon="16.1525533"><ele>331.0</ele><time>2026-04-27T09:51:17.695Z</time></trkpt><trkpt lat="39.1396617" lon="16.1524333"><ele>331.0</ele><time>2026-04-27T09:51:19.694Z</time></trkpt><trkpt lat="39.139645" lon="16.1523183"><ele>331.0</ele><time>2026-04-27T09:51:21.69Z</time></trkpt><trkpt lat="39.1396183" lon="16.1521833"><ele>331.0</ele><time>2026-04-27T09:51:23.694Z</time></trkpt><trkpt lat="39.1395867" lon="16.1520433"><ele>328.75</ele><time>2026-04-27T09:51:25.691Z</time></trkpt><trkpt lat="39.1395367" lon="16.1519233"><ele>326.5</ele><time>2026-04-27T09:51:27.686Z</time></trkpt><trkpt lat="39.1394967" lon="16.1518017"><ele>324.25</ele><time>2026-04-27T09:51:29.691Z</time></trkpt><trkpt lat="39.1394617" lon="16.15165"><ele>322.0</ele><time>2026-04-27T09:51:31.687Z</time></trkpt><trkpt lat="39.1394233" lon="16.1514983"><ele>320.20000000000005</ele><time>2026-04-27T09:51:33.689Z</time></trkpt><trkpt lat="39.1394033" lon="16.15137"><ele>318.40000000000003</ele><time>2026-04-27T09:51:35.694Z</time></trkpt><trkpt lat="39.139415" lon="16.15125"><ele>316.6</ele><time>2026-04-27T09:51:37.694Z</time></trkpt><trkpt lat="39.1394367" lon="16.1511117"><ele>314.8</ele><time>2026-04-27T09:51:39.691Z</time></trkpt><trkpt lat="39.1394683" lon="16.1509617"><ele>313.0</ele><time>2026-04-27T09:51:41.694Z</time></trkpt><trkpt lat="39.1394867" lon="16.1508133"><ele>313.4</ele><time>2026-04-27T09:51:43.688Z</time></trkpt><trkpt lat="39.1394633" lon="16.1506883"><ele>313.8</ele><time>2026-04-27T09:51:45.694Z</time></trkpt><trkpt lat="39.1394" lon="16.1505817"><ele>314.2</ele><time>2026-04-27T09:51:47.694Z</time></trkpt><trkpt lat="39.1393367" lon="16.1505017"><ele>314.6</ele><time>2026-04-27T09:51:49.693Z</time></trkpt><trkpt lat="39.1392683" lon="16.150475"><ele>315.0</ele><time>2026-04-27T09:51:51.69Z</time></trkpt><trkpt lat="39.1391433" lon="16.1504767"><ele>314.6666666666667</ele><time>2026-04-27T09:51:53.688Z</time></trkpt><trkpt lat="39.13905" lon="16.1504767"><ele>314.3333333333333</ele><time>2026-04-27T09:51:54.697Z</time></trkpt><trkpt lat="39.138955" lon="16.15049"><ele>314.0</ele><time>2026-04-27T09:51:55.689Z</time></trkpt><trkpt lat="39.138865" lon="16.1505183"><ele>313.66666666666663</ele><time>2026-04-27T09:51:56.759Z</time></trkpt><trkpt lat="39.1387817" lon="16.1505567"><ele>313.3333333333333</ele><time>2026-04-27T09:51:57.689Z</time></trkpt><trkpt lat="39.1387117" lon="16.150605"><ele>313.0</ele><time>2026-04-27T09:51:58.69Z</time></trkpt><trkpt lat="39.1386567" lon="16.150655"><ele>313.0</ele><time>2026-04-27T09:51:59.696Z</time></trkpt><trkpt lat="39.1385933" lon="16.1506883"><ele>313.0</ele><time>2026-04-27T09:52:00.7Z</time></trkpt><trkpt lat="39.1385317" lon="16.1507133"><ele>313.0</ele><time>2026-04-27T09:52:01.697Z</time></trkpt><trkpt lat="39.1384217" lon="16.150755"><ele>313.0</ele><time>2026-04-27T09:52:03.695Z</time></trkpt><trkpt lat="39.1383267" lon="16.15081"><ele>313.0</ele><time>2026-04-27T09:52:05.685Z</time></trkpt><trkpt lat="39.1382233" lon="16.1508633"><ele>312.57142857142856</ele><time>2026-04-27T09:52:07.698Z</time></trkpt><trkpt lat="39.138165" lon="16.1508967"><ele>312.14285714285717</ele><time>2026-04-27T09:52:08.732Z</time></trkpt><trkpt lat="39.1381067" lon="16.1509333"><ele>311.7142857142857</ele><time>2026-04-27T09:52:09.687Z</time></trkpt><trkpt lat="39.138045" lon="16.15096"><ele>311.2857142857143</ele><time>2026-04-27T09:52:10.698Z</time></trkpt><trkpt lat="39.1379767" lon="16.1509833"><ele>310.85714285714283</ele><time>2026-04-27T09:52:11.693Z</time></trkpt><trkpt lat="39.1378933" lon="16.1510017"><ele>310.42857142857144</ele><time>2026-04-27T09:52:12.697Z</time></trkpt><trkpt lat="39.137795" lon="16.151025"><ele>310.0</ele><time>2026-04-27T09:52:13.689Z</time></trkpt><trkpt lat="39.1376783" lon="16.151055"><ele>310.0</ele><time>2026-04-27T09:52:14.733Z</time></trkpt><trkpt lat="39.137555" lon="16.1510833"><ele>310.0</ele><time>2026-04-27T09:52:15.688Z</time></trkpt><trkpt lat="39.1374417" lon="16.151105"><ele>310.0</ele><time>2026-04-27T09:52:16.695Z</time></trkpt><trkpt lat="39.13734" lon="16.15113"><ele>310.0</ele><time>2026-04-27T09:52:17.691Z</time></trkpt><trkpt lat="39.1372483" lon="16.1511633"><ele>310.0</ele><time>2026-04-27T09:52:18.696Z</time></trkpt><trkpt lat="39.1371667" lon="16.15121"><ele>309.8333333333333</ele><time>2026-04-27T09:52:19.69Z</time></trkpt><trkpt lat="39.1370867" lon="16.1512567"><ele>309.66666666666663</ele><time>2026-04-27T09:52:20.74Z</time></trkpt><trkpt lat="39.1370183" lon="16.15129"><ele>309.5</ele><time>2026-04-27T09:52:21.695Z</time></trkpt><trkpt lat="39.1369533" lon="16.1513033"><ele>309.3333333333333</ele><time>2026-04-27T09:52:22.691Z</time></trkpt><trkpt lat="39.1368833" lon="16.15129"><ele>309.1666666666667</ele><time>2026-04-27T09:52:23.696Z</time></trkpt><trkpt lat="39.13681" lon="16.1512583"><ele>309.0</ele><time>2026-04-27T09:52:24.69Z</time></trkpt><trkpt lat="39.1367233" lon="16.1512367"><ele>309.0</ele><time>2026-04-27T09:52:25.689Z</time></trkpt><trkpt lat="39.1366167" lon="16.1512283"><ele>309.0</ele><time>2026-04-27T09:52:26.758Z</time></trkpt><trkpt lat="39.1364967" lon="16.151215"><ele>309.0</ele><time>2026-04-27T09:52:27.69Z</time></trkpt><trkpt lat="39.1363767" lon="16.1512017"><ele>309.0</ele><time>2026-04-27T09:52:28.694Z</time></trkpt><trkpt lat="39.1362617" lon="16.151185"><ele>308.59999999999997</ele><time>2026-04-27T09:52:29.688Z</time></trkpt><trkpt lat="39.1361617" lon="16.15116"><ele>308.2</ele><time>2026-04-27T09:52:30.698Z</time></trkpt><trkpt lat="39.1360583" lon="16.1511183"><ele>307.79999999999995</ele><time>2026-04-27T09:52:31.692Z</time></trkpt><trkpt lat="39.1359583" lon="16.1510633"><ele>307.4</ele><time>2026-04-27T09:52:32.748Z</time></trkpt><trkpt lat="39.1358633" lon="16.1510033"><ele>307.0</ele><time>2026-04-27T09:52:33.698Z</time></trkpt><trkpt lat="39.1357783" lon="16.1509533"><ele>307.6</ele><time>2026-04-27T09:52:34.688Z</time></trkpt><trkpt lat="39.1356783" lon="16.150945"><ele>308.2</ele><time>2026-04-27T09:52:36.698Z</time></trkpt><trkpt lat="39.1356" lon="16.1510167"><ele>308.8</ele><time>2026-04-27T09:52:38.737Z</time></trkpt><trkpt lat="39.135505" lon="16.1510483"><ele>309.4</ele><time>2026-04-27T09:52:40.693Z</time></trkpt><trkpt lat="39.1354117" lon="16.1510333"><ele>310.0</ele><time>2026-04-27T09:52:41.688Z</time></trkpt><trkpt lat="39.1353067" lon="16.1510233"><ele>310.0</ele><time>2026-04-27T09:52:42.688Z</time></trkpt><trkpt lat="39.1351783" lon="16.15102"><ele>310.0</ele><time>2026-04-27T09:52:43.693Z</time></trkpt><trkpt lat="39.1350267" lon="16.151015"><ele>310.0</ele><time>2026-04-27T09:52:44.738Z</time></trkpt><trkpt lat="39.13485" lon="16.151015"><ele>310.3333333333333</ele><time>2026-04-27T09:52:45.687Z</time></trkpt><trkpt lat="39.1346733" lon="16.1510183"><ele>310.6666666666667</ele><time>2026-04-27T09:52:46.691Z</time></trkpt><trkpt lat="39.134505" lon="16.1510233"><ele>311.0</ele><time>2026-04-27T09:52:47.691Z</time></trkpt><trkpt lat="39.134355" lon="16.1510267"><ele>311.0</ele><time>2026-04-27T09:52:48.697Z</time></trkpt><trkpt lat="39.134235" lon="16.151025"><ele>311.0</ele><time>2026-04-27T09:52:49.688Z</time></trkpt><trkpt lat="39.1341383" lon="16.1510383"><ele>311.0</ele><time>2026-04-27T09:52:50.739Z</time></trkpt><trkpt lat="39.1340467" lon="16.1511017"><ele>311.0</ele><time>2026-04-27T09:52:51.687Z</time></trkpt><trkpt lat="39.133955" lon="16.1511867"><ele>311.0</ele><time>2026-04-27T09:52:52.699Z</time></trkpt><trkpt lat="39.1338483" lon="16.1513267"><ele>312.33333333333337</ele><time>2026-04-27T09:52:53.698Z</time></trkpt><trkpt lat="39.1337417" lon="16.1514833"><ele>313.6666666666667</ele><time>2026-04-27T09:52:54.694Z</time></trkpt><trkpt lat="39.1336267" lon="16.1516567"><ele>315.0</ele><time>2026-04-27T09:52:55.69Z</time></trkpt><trkpt lat="39.13351" lon="16.1518333"><ele>315.0</ele><time>2026-04-27T09:52:56.755Z</time></trkpt><trkpt lat="39.1333983" lon="16.1520033"><ele>315.0</ele><time>2026-04-27T09:52:57.69Z</time></trkpt><trkpt lat="39.1332867" lon="16.1521683"><ele>315.0</ele><time>2026-04-27T09:52:58.693Z</time></trkpt><trkpt lat="39.13317" lon="16.1523283"><ele>312.6666666666667</ele><time>2026-04-27T09:52:59.691Z</time></trkpt><trkpt lat="39.1330567" lon="16.152485"><ele>310.33333333333337</ele><time>2026-04-27T09:53:00.694Z</time></trkpt><trkpt lat="39.1329433" lon="16.1526417"><ele>308.0</ele><time>2026-04-27T09:53:01.69Z</time></trkpt><trkpt lat="39.132835" lon="16.152795"><ele>308.0</ele><time>2026-04-27T09:53:02.745Z</time></trkpt><trkpt lat="39.132735" lon="16.1529433"><ele>308.0</ele><time>2026-04-27T09:53:03.693Z</time></trkpt><trkpt lat="39.1326333" lon="16.15309"><ele>308.0</ele><time>2026-04-27T09:53:04.699Z</time></trkpt><trkpt lat="39.1325267" lon="16.1532383"><ele>308.0</ele><time>2026-04-27T09:53:05.695Z</time></trkpt><trkpt lat="39.1324167" lon="16.1533983"><ele>308.0</ele><time>2026-04-27T09:53:06.699Z</time></trkpt><trkpt lat="39.1323083" lon="16.15356"><ele>308.0</ele><time>2026-04-27T09:53:07.694Z</time></trkpt><trkpt lat="39.1322033" lon="16.1537167"><ele>308.0</ele><time>2026-04-27T09:53:08.734Z</time></trkpt><trkpt lat="39.1321" lon="16.1538633"><ele>308.0</ele><time>2026-04-27T09:53:09.695Z</time></trkpt><trkpt lat="39.1320033" lon="16.154005"><ele>308.0</ele><time>2026-04-27T09:53:10.697Z</time></trkpt><trkpt lat="39.1319067" lon="16.1541483"><ele>308.0</ele><time>2026-04-27T09:53:11.693Z</time></trkpt><trkpt lat="39.1318117" lon="16.1542883"><ele>308.0</ele><time>2026-04-27T09:53:12.695Z</time></trkpt><trkpt lat="39.1317133" lon="16.154425"><ele>308.0</ele><time>2026-04-27T09:53:13.696Z</time></trkpt><trkpt lat="39.131615" lon="16.154555"><ele>308.0</ele><time>2026-04-27T09:53:14.735Z</time></trkpt><trkpt lat="39.131515" lon="16.1546733"><ele>308.0</ele><time>2026-04-27T09:53:15.689Z</time></trkpt><trkpt lat="39.1314167" lon="16.1547767"><ele>308.4</ele><time>2026-04-27T09:53:16.696Z</time></trkpt><trkpt lat="39.1313333" lon="16.1548717"><ele>308.8</ele><time>2026-04-27T09:53:17.692Z</time></trkpt><trkpt lat="39.13127" lon="16.1549517"><ele>309.2</ele><time>2026-04-27T09:53:18.691Z</time></trkpt><trkpt lat="39.1311867" lon="16.15497"><ele>309.6</ele><time>2026-04-27T09:53:20.737Z</time></trkpt><trkpt lat="39.13107" lon="16.1548833"><ele>310.0</ele><time>2026-04-27T09:53:22.697Z</time></trkpt><trkpt lat="39.1309833" lon="16.1548283"><ele>313.5</ele><time>2026-04-27T09:53:23.695Z</time></trkpt><trkpt lat="39.1308733" lon="16.1548067"><ele>317.0</ele><time>2026-04-27T09:53:24.701Z</time></trkpt><trkpt lat="39.1307617" lon="16.154805"><ele>320.5</ele><time>2026-04-27T09:53:25.698Z</time></trkpt><trkpt lat="39.1306467" lon="16.1548033"><ele>324.0</ele><time>2026-04-27T09:53:26.722Z</time></trkpt><trkpt lat="39.1305167" lon="16.15479"><ele>324.0</ele><time>2026-04-27T09:53:27.691Z</time></trkpt><trkpt lat="39.13039" lon="16.15477"><ele>324.0</ele><time>2026-04-27T09:53:28.697Z</time></trkpt><trkpt lat="39.1302667" lon="16.1547483"><ele>324.0</ele><time>2026-04-27T09:53:29.692Z</time></trkpt><trkpt lat="39.1301717" lon="16.1547183"><ele>324.0</ele><time>2026-04-27T09:53:30.696Z</time></trkpt><trkpt lat="39.1301" lon="16.1546367"><ele>324.0</ele><time>2026-04-27T09:53:31.692Z</time></trkpt><trkpt lat="39.1300367" lon="16.1545667"><ele>324.0</ele><time>2026-04-27T09:53:32.752Z</time></trkpt><trkpt lat="39.13004" lon="16.1544317"><ele>324.0</ele><time>2026-04-27T09:53:33.693Z</time></trkpt><trkpt lat="39.1300367" lon="16.1543033"><ele>324.0</ele><time>2026-04-27T09:53:34.695Z</time></trkpt><trkpt lat="39.1300383" lon="16.1541933"><ele>324.0</ele><time>2026-04-27T09:53:35.69Z</time></trkpt><trkpt lat="39.130045" lon="16.1540833"><ele>324.0</ele><time>2026-04-27T09:53:36.697Z</time></trkpt><trkpt lat="39.1300383" lon="16.1539667"><ele>322.5</ele><time>2026-04-27T09:53:37.686Z</time></trkpt><trkpt lat="39.130025" lon="16.1538417"><ele>321.0</ele><time>2026-04-27T09:53:38.741Z</time></trkpt><trkpt lat="39.12999" lon="16.1537033"><ele>319.5</ele><time>2026-04-27T09:53:39.694Z</time></trkpt><trkpt lat="39.1298733" lon="16.153555"><ele>318.0</ele><time>2026-04-27T09:53:40.687Z</time></trkpt><trkpt lat="39.12976" lon="16.1534067"><ele>318.0</ele><time>2026-04-27T09:53:41.69Z</time></trkpt><trkpt lat="39.1296333" lon="16.1532783"><ele>318.0</ele><time>2026-04-27T09:53:42.692Z</time></trkpt><trkpt lat="39.1295033" lon="16.1531717"><ele>318.0</ele><time>2026-04-27T09:53:43.696Z</time></trkpt><trkpt lat="39.12935" lon="16.1530933"><ele>315.6666666666667</ele><time>2026-04-27T09:53:44.736Z</time></trkpt><trkpt lat="39.1291733" lon="16.1530567"><ele>313.33333333333337</ele><time>2026-04-27T09:53:45.687Z</time></trkpt><trkpt lat="39.1289733" lon="16.1530383"><ele>311.0</ele><time>2026-04-27T09:53:46.691Z</time></trkpt><trkpt lat="39.1287983" lon="16.1530317"><ele>311.0</ele><time>2026-04-27T09:53:47.689Z</time></trkpt><trkpt lat="39.12863" lon="16.15304"><ele>311.0</ele><time>2026-04-27T09:53:48.692Z</time></trkpt><trkpt lat="39.12849" lon="16.153065"><ele>311.0</ele><time>2026-04-27T09:53:49.69Z</time></trkpt><trkpt lat="39.1283617" lon="16.15311"><ele>311.0</ele><time>2026-04-27T09:53:50.734Z</time></trkpt><trkpt lat="39.12825" lon="16.153185"><ele>307.0</ele><time>2026-04-27T09:53:51.692Z</time></trkpt><trkpt lat="39.1281767" lon="16.1532983"><ele>303.0</ele><time>2026-04-27T09:53:52.689Z</time></trkpt><trkpt lat="39.12811" lon="16.1534233"><ele>299.0</ele><time>2026-04-27T09:53:53.694Z</time></trkpt><trkpt lat="39.1280367" lon="16.1535217"><ele>295.0</ele><time>2026-04-27T09:53:54.699Z</time></trkpt><trkpt lat="39.127955" lon="16.1535767"><ele>291.0</ele><time>2026-04-27T09:53:55.695Z</time></trkpt><trkpt lat="39.1278633" lon="16.1536"><ele>291.0</ele><time>2026-04-27T09:53:56.761Z</time></trkpt><trkpt lat="39.12776" lon="16.1535983"><ele>291.0</ele><time>2026-04-27T09:53:57.691Z</time></trkpt><trkpt lat="39.127645" lon="16.153595"><ele>291.0</ele><time>2026-04-27T09:53:58.698Z</time></trkpt><trkpt lat="39.127545" lon="16.1536183"><ele>291.0</ele><time>2026-04-27T09:53:59.696Z</time></trkpt><trkpt lat="39.1274467" lon="16.1536617"><ele>291.0</ele><time>2026-04-27T09:54:00.696Z</time></trkpt><trkpt lat="39.12736" lon="16.1537533"><ele>290.3333333333333</ele><time>2026-04-27T09:54:01.689Z</time></trkpt><trkpt lat="39.127275" lon="16.153905"><ele>289.66666666666663</ele><time>2026-04-27T09:54:02.748Z</time></trkpt><trkpt lat="39.12724" lon="16.1541267"><ele>289.0</ele><time>2026-04-27T09:54:03.693Z</time></trkpt><trkpt lat="39.12719" lon="16.1543267"><ele>291.66666666666663</ele><time>2026-04-27T09:54:04.698Z</time></trkpt><trkpt lat="39.1271267" lon="16.1544933"><ele>294.3333333333333</ele><time>2026-04-27T09:54:05.688Z</time></trkpt><trkpt lat="39.1270383" lon="16.1546533"><ele>297.0</ele><time>2026-04-27T09:54:06.697Z</time></trkpt><trkpt lat="39.1269233" lon="16.1547867"><ele>297.3333333333333</ele><time>2026-04-27T09:54:07.691Z</time></trkpt><trkpt lat="39.1267733" lon="16.15492"><ele>297.66666666666663</ele><time>2026-04-27T09:54:08.737Z</time></trkpt><trkpt lat="39.126615" lon="16.1550633"><ele>298.0</ele><time>2026-04-27T09:54:09.688Z</time></trkpt><trkpt lat="39.1264483" lon="16.1552183"><ele>298.0</ele><time>2026-04-27T09:54:10.694Z</time></trkpt><trkpt lat="39.12628" lon="16.15538"><ele>298.0</ele><time>2026-04-27T09:54:11.689Z</time></trkpt><trkpt lat="39.1261033" lon="16.155545"><ele>298.0</ele><time>2026-04-27T09:54:12.696Z</time></trkpt><trkpt lat="39.1259233" lon="16.15572"><ele>298.3333333333333</ele><time>2026-04-27T09:54:13.693Z</time></trkpt><trkpt lat="39.125745" lon="16.1558833"><ele>298.6666666666667</ele><time>2026-04-27T09:54:14.732Z</time></trkpt><trkpt lat="39.1255767" lon="16.156035"><ele>299.0</ele><time>2026-04-27T09:54:15.688Z</time></trkpt><trkpt lat="39.12541" lon="16.1561817"><ele>299.0</ele><time>2026-04-27T09:54:16.689Z</time></trkpt><trkpt lat="39.1252533" lon="16.15632"><ele>299.0</ele><time>2026-04-27T09:54:17.69Z</time></trkpt><trkpt lat="39.1251083" lon="16.15645"><ele>299.0</ele><time>2026-04-27T09:54:18.693Z</time></trkpt><trkpt lat="39.125005" lon="16.156545"><ele>299.2</ele><time>2026-04-27T09:54:19.69Z</time></trkpt><trkpt lat="39.1249267" lon="16.1565817"><ele>299.4</ele><time>2026-04-27T09:54:20.735Z</time></trkpt><trkpt lat="39.12482" lon="16.1565567"><ele>299.6</ele><time>2026-04-27T09:54:22.692Z</time></trkpt><trkpt lat="39.1247967" lon="16.1564283"><ele>299.8</ele><time>2026-04-27T09:54:23.694Z</time></trkpt><trkpt lat="39.124755" lon="16.156275"><ele>300.0</ele><time>2026-04-27T09:54:24.695Z</time></trkpt><trkpt lat="39.1247133" lon="16.156135"><ele>298.25</ele><time>2026-04-27T09:54:25.689Z</time></trkpt><trkpt lat="39.1246567" lon="16.155995"><ele>296.5</ele><time>2026-04-27T09:54:26.759Z</time></trkpt><trkpt lat="39.1245783" lon="16.155865"><ele>294.75</ele><time>2026-04-27T09:54:27.688Z</time></trkpt><trkpt lat="39.1244833" lon="16.1557433"><ele>293.0</ele><time>2026-04-27T09:54:28.696Z</time></trkpt><trkpt lat="39.1243483" lon="16.1556667"><ele>292.0</ele><time>2026-04-27T09:54:29.695Z</time></trkpt><trkpt lat="39.1241983" lon="16.1556167"><ele>291.0</ele><time>2026-04-27T09:54:30.691Z</time></trkpt><trkpt lat="39.1240383" lon="16.1555817"><ele>290.0</ele><time>2026-04-27T09:54:31.694Z</time></trkpt><trkpt lat="39.1238633" lon="16.1555583"><ele>288.33333333333337</ele><time>2026-04-27T09:54:32.753Z</time></trkpt><trkpt lat="39.12368" lon="16.1555383"><ele>286.6666666666667</ele><time>2026-04-27T09:54:33.69Z</time></trkpt><trkpt lat="39.1234933" lon="16.15551"><ele>285.0</ele><time>2026-04-27T09:54:34.697Z</time></trkpt><trkpt lat="39.1233067" lon="16.1554717"><ele>282.6666666666667</ele><time>2026-04-27T09:54:35.696Z</time></trkpt><trkpt lat="39.1231233" lon="16.155425"><ele>280.33333333333337</ele><time>2026-04-27T09:54:36.699Z</time></trkpt><trkpt lat="39.1229483" lon="16.1553783"><ele>278.0</ele><time>2026-04-27T09:54:37.697Z</time></trkpt><trkpt lat="39.1227733" lon="16.1553333"><ele>278.0</ele><time>2026-04-27T09:54:38.737Z</time></trkpt><trkpt lat="39.1225883" lon="16.1552917"><ele>278.0</ele><time>2026-04-27T09:54:39.688Z</time></trkpt><trkpt lat="39.1224017" lon="16.155265"><ele>278.0</ele><time>2026-04-27T09:54:40.699Z</time></trkpt><trkpt lat="39.12221" lon="16.1552583"><ele>276.0</ele><time>2026-04-27T09:54:41.693Z</time></trkpt><trkpt lat="39.1220183" lon="16.1552633"><ele>274.0</ele><time>2026-04-27T09:54:42.691Z</time></trkpt><trkpt lat="39.12183" lon="16.15528"><ele>272.0</ele><time>2026-04-27T09:54:43.688Z</time></trkpt><trkpt lat="39.1216533" lon="16.1553083"><ele>269.0</ele><time>2026-04-27T09:54:44.729Z</time></trkpt><trkpt lat="39.12148" lon="16.1553417"><ele>266.0</ele><time>2026-04-27T09:54:45.696Z</time></trkpt><trkpt lat="39.121305" lon="16.15537"><ele>263.0</ele><time>2026-04-27T09:54:46.701Z</time></trkpt><trkpt lat="39.1211283" lon="16.15538"><ele>263.0</ele><time>2026-04-27T09:54:47.689Z</time></trkpt><trkpt lat="39.1209417" lon="16.15537"><ele>263.0</ele><time>2026-04-27T09:54:48.695Z</time></trkpt><trkpt lat="39.1207483" lon="16.1553517"><ele>263.0</ele><time>2026-04-27T09:54:49.698Z</time></trkpt><trkpt lat="39.120555" lon="16.1553333"><ele>260.33333333333337</ele><time>2026-04-27T09:54:50.731Z</time></trkpt><trkpt lat="39.1203583" lon="16.1553183"><ele>257.6666666666667</ele><time>2026-04-27T09:54:51.694Z</time></trkpt><trkpt lat="39.1201617" lon="16.1553"><ele>255.0</ele><time>2026-04-27T09:54:52.696Z</time></trkpt><trkpt lat="39.1199617" lon="16.15528"><ele>253.66666666666669</ele><time>2026-04-27T09:54:53.693Z</time></trkpt><trkpt lat="39.1197717" lon="16.1552583"><ele>252.33333333333334</ele><time>2026-04-27T09:54:54.687Z</time></trkpt><trkpt lat="39.11959" lon="16.1552333"><ele>251.0</ele><time>2026-04-27T09:54:55.693Z</time></trkpt><trkpt lat="39.1194283" lon="16.1552067"><ele>251.0</ele><time>2026-04-27T09:54:56.775Z</time></trkpt><trkpt lat="39.119275" lon="16.1551683"><ele>251.0</ele><time>2026-04-27T09:54:57.689Z</time></trkpt><trkpt lat="39.119125" lon="16.15511"><ele>251.0</ele><time>2026-04-27T09:54:58.691Z</time></trkpt><trkpt lat="39.118975" lon="16.15503"><ele>249.0</ele><time>2026-04-27T09:54:59.691Z</time></trkpt><trkpt lat="39.1188317" lon="16.154925"><ele>247.0</ele><time>2026-04-27T09:55:00.699Z</time></trkpt><trkpt lat="39.1186867" lon="16.1547883"><ele>245.0</ele><time>2026-04-27T09:55:01.685Z</time></trkpt><trkpt lat="39.1185433" lon="16.1546317"><ele>244.33333333333334</ele><time>2026-04-27T09:55:02.743Z</time></trkpt><trkpt lat="39.1184067" lon="16.1544617"><ele>243.66666666666669</ele><time>2026-04-27T09:55:03.689Z</time></trkpt><trkpt lat="39.1182667" lon="16.1542917"><ele>243.0</ele><time>2026-04-27T09:55:04.687Z</time></trkpt><trkpt lat="39.1181317" lon="16.1541283"><ele>239.66666666666669</ele><time>2026-04-27T09:55:05.688Z</time></trkpt><trkpt lat="39.118005" lon="16.1539767"><ele>236.33333333333334</ele><time>2026-04-27T09:55:06.697Z</time></trkpt><trkpt lat="39.1178917" lon="16.153835"><ele>233.0</ele><time>2026-04-27T09:55:07.691Z</time></trkpt><trkpt lat="39.1177883" lon="16.1537067"><ele>233.0</ele><time>2026-04-27T09:55:08.727Z</time></trkpt><trkpt lat="39.1176817" lon="16.153585"><ele>233.0</ele><time>2026-04-27T09:55:09.692Z</time></trkpt><trkpt lat="39.117595" lon="16.1534867"><ele>233.0</ele><time>2026-04-27T09:55:10.694Z</time></trkpt><trkpt lat="39.1175117" lon="16.1533967"><ele>233.0</ele><time>2026-04-27T09:55:11.686Z</time></trkpt><trkpt lat="39.1174333" lon="16.1533233"><ele>232.83333333333334</ele><time>2026-04-27T09:55:12.699Z</time></trkpt><trkpt lat="39.1173617" lon="16.1532767"><ele>232.66666666666669</ele><time>2026-04-27T09:55:13.689Z</time></trkpt><trkpt lat="39.1172883" lon="16.1533283"><ele>232.5</ele><time>2026-04-27T09:55:16.694Z</time></trkpt><trkpt lat="39.1172417" lon="16.1534017"><ele>232.33333333333331</ele><time>2026-04-27T09:55:19.694Z</time></trkpt><trkpt lat="39.117165" lon="16.1534683"><ele>232.16666666666666</ele><time>2026-04-27T09:55:22.697Z</time></trkpt><trkpt lat="39.1170833" lon="16.1534633"><ele>232.0</ele><time>2026-04-27T09:55:24.696Z</time></trkpt><trkpt lat="39.1169983" lon="16.1534183"><ele>231.99999999999997</ele><time>2026-04-27T09:55:26.753Z</time></trkpt><trkpt lat="39.1169167" lon="16.1533033"><ele>232.0</ele><time>2026-04-27T09:55:28.696Z</time></trkpt><trkpt lat="39.11688" lon="16.1532217"><ele>232.0</ele><time>2026-04-27T09:55:29.694Z</time></trkpt><trkpt lat="39.11685" lon="16.1531317"><ele>232.0</ele><time>2026-04-27T09:55:30.696Z</time></trkpt><trkpt lat="39.1168283" lon="16.1530467"><ele>231.99999999999997</ele><time>2026-04-27T09:55:31.692Z</time></trkpt><trkpt lat="39.1168067" lon="16.1529667"><ele>232.0</ele><time>2026-04-27T09:55:32.741Z</time></trkpt><trkpt lat="39.1167683" lon="16.1528917"><ele>231.0</ele><time>2026-04-27T09:55:33.691Z</time></trkpt><trkpt lat="39.11672" lon="16.1528233"><ele>230.0</ele><time>2026-04-27T09:55:34.7Z</time></trkpt><trkpt lat="39.1166267" lon="16.15271"><ele>229.0</ele><time>2026-04-27T09:55:36.699Z</time></trkpt><trkpt lat="39.1165167" lon="16.152675"><ele>228.0</ele><time>2026-04-27T09:55:38.732Z</time></trkpt><trkpt lat="39.1163867" lon="16.1527033"><ele>227.0</ele><time>2026-04-27T09:55:40.693Z</time></trkpt><trkpt lat="39.1162983" lon="16.1527317"><ele>226.50000000000003</ele><time>2026-04-27T09:55:41.693Z</time></trkpt><trkpt lat="39.116195" lon="16.1527567"><ele>226.0</ele><time>2026-04-27T09:55:42.685Z</time></trkpt><trkpt lat="39.116095" lon="16.15278"><ele>225.5</ele><time>2026-04-27T09:55:43.687Z</time></trkpt><trkpt lat="39.1160133" lon="16.1528167"><ele>225.0</ele><time>2026-04-27T09:55:44.727Z</time></trkpt><trkpt lat="39.1159517" lon="16.15287"><ele>224.50000000000003</ele><time>2026-04-27T09:55:45.699Z</time></trkpt><trkpt lat="39.1159083" lon="16.152955"><ele>224.0</ele><time>2026-04-27T09:55:46.698Z</time></trkpt><trkpt lat="39.1158667" lon="16.153055"><ele>224.00000000000003</ele><time>2026-04-27T09:55:47.694Z</time></trkpt><trkpt lat="39.1158333" lon="16.15316"><ele>224.0</ele><time>2026-04-27T09:55:48.687Z</time></trkpt><trkpt lat="39.1158017" lon="16.153255"><ele>224.0</ele><time>2026-04-27T09:55:49.689Z</time></trkpt><trkpt lat="39.1157683" lon="16.153325"><ele>224.0</ele><time>2026-04-27T09:55:50.734Z</time></trkpt><trkpt lat="39.1156717" lon="16.1533333"><ele>224.00000000000003</ele><time>2026-04-27T09:55:52.694Z</time></trkpt><trkpt lat="39.1156017" lon="16.1533"><ele>224.0</ele><time>2026-04-27T09:55:53.688Z</time></trkpt><trkpt lat="39.1155233" lon="16.1532483"><ele>222.79999999999998</ele><time>2026-04-27T09:55:54.693Z</time></trkpt><trkpt lat="39.11545" lon="16.1532017"><ele>221.59999999999997</ele><time>2026-04-27T09:55:55.693Z</time></trkpt><trkpt lat="39.1153733" lon="16.1531667"><ele>220.4</ele><time>2026-04-27T09:55:56.751Z</time></trkpt><trkpt lat="39.1152783" lon="16.153125"><ele>219.2</ele><time>2026-04-27T09:55:57.684Z</time></trkpt><trkpt lat="39.1151717" lon="16.1530883"><ele>218.0</ele><time>2026-04-27T09:55:58.692Z</time></trkpt><trkpt lat="39.1150483" lon="16.153035"><ele>218.0</ele><time>2026-04-27T09:55:59.692Z</time></trkpt><trkpt lat="39.114915" lon="16.15297"><ele>218.0</ele><time>2026-04-27T09:56:00.7Z</time></trkpt><trkpt lat="39.1147717" lon="16.1528917"><ele>218.0</ele><time>2026-04-27T09:56:01.697Z</time></trkpt><trkpt lat="39.1146333" lon="16.1528117"><ele>220.8</ele><time>2026-04-27T09:56:02.741Z</time></trkpt><trkpt lat="39.1145083" lon="16.152735"><ele>223.60000000000002</ele><time>2026-04-27T09:56:03.686Z</time></trkpt><trkpt lat="39.114405" lon="16.1526667"><ele>226.39999999999998</ele><time>2026-04-27T09:56:04.691Z</time></trkpt><trkpt lat="39.1143183" lon="16.1526"><ele>229.2</ele><time>2026-04-27T09:56:05.688Z</time></trkpt><trkpt lat="39.1142633" lon="16.1525267"><ele>232.0</ele><time>2026-04-27T09:56:06.696Z</time></trkpt><trkpt lat="39.114255" lon="16.1524217"><ele>230.8</ele><time>2026-04-27T09:56:07.688Z</time></trkpt><trkpt lat="39.1142933" lon="16.1522883"><ele>229.6</ele><time>2026-04-27T09:56:08.736Z</time></trkpt><trkpt lat="39.11432" lon="16.1521517"><ele>228.40000000000003</ele><time>2026-04-27T09:56:09.685Z</time></trkpt><trkpt lat="39.11432" lon="16.1520117"><ele>227.20000000000002</ele><time>2026-04-27T09:56:10.69Z</time></trkpt><trkpt lat="39.1142917" lon="16.151865"><ele>226.0</ele><time>2026-04-27T09:56:11.69Z</time></trkpt><trkpt lat="39.1142233" lon="16.1517217"><ele>226.0</ele><time>2026-04-27T09:56:12.69Z</time></trkpt><trkpt lat="39.1141133" lon="16.1516"><ele>226.0</ele><time>2026-04-27T09:56:13.685Z</time></trkpt><trkpt lat="39.1140067" lon="16.151475"><ele>226.0</ele><time>2026-04-27T09:56:14.738Z</time></trkpt><trkpt lat="39.1138983" lon="16.1513633"><ele>226.0</ele><time>2026-04-27T09:56:15.689Z</time></trkpt><trkpt lat="39.11381" lon="16.15127"><ele>227.33333333333331</ele><time>2026-04-27T09:56:16.696Z</time></trkpt><trkpt lat="39.1137417" lon="16.151205"><ele>228.66666666666666</ele><time>2026-04-27T09:56:17.686Z</time></trkpt><trkpt lat="39.1136683" lon="16.1511717"><ele>230.0</ele><time>2026-04-27T09:56:18.693Z</time></trkpt><trkpt lat="39.1135867" lon="16.1511583"><ele>231.33333333333331</ele><time>2026-04-27T09:56:19.695Z</time></trkpt><trkpt lat="39.1134983" lon="16.15122"><ele>232.66666666666666</ele><time>2026-04-27T09:56:20.735Z</time></trkpt><trkpt lat="39.11343" lon="16.1513067"><ele>234.0</ele><time>2026-04-27T09:56:21.696Z</time></trkpt><trkpt lat="39.11337" lon="16.151375"><ele>234.0</ele><time>2026-04-27T09:56:22.686Z</time></trkpt><trkpt lat="39.11327" lon="16.15148"><ele>234.0</ele><time>2026-04-27T09:56:24.69Z</time></trkpt><trkpt lat="39.11317" lon="16.151425"><ele>234.0</ele><time>2026-04-27T09:56:26.749Z</time></trkpt><trkpt lat="39.1131283" lon="16.1513017"><ele>234.0</ele><time>2026-04-27T09:56:27.687Z</time></trkpt><trkpt lat="39.11311" lon="16.1511267"><ele>231.75</ele><time>2026-04-27T09:56:28.686Z</time></trkpt><trkpt lat="39.1131017" lon="16.15092"><ele>229.5</ele><time>2026-04-27T09:56:29.687Z</time></trkpt><trkpt lat="39.1130933" lon="16.1507467"><ele>227.25</ele><time>2026-04-27T09:56:30.685Z</time></trkpt><trkpt lat="39.1130867" lon="16.1505967"><ele>225.0</ele><time>2026-04-27T09:56:31.688Z</time></trkpt><trkpt lat="39.1130817" lon="16.1504833"><ele>225.0</ele><time>2026-04-27T09:56:32.737Z</time></trkpt><trkpt lat="39.1130467" lon="16.1503633"><ele>225.0</ele><time>2026-04-27T09:56:33.688Z</time></trkpt><trkpt lat="39.1129733" lon="16.1502867"><ele>225.0</ele><time>2026-04-27T09:56:34.693Z</time></trkpt><trkpt lat="39.1128717" lon="16.1502533"><ele>225.0</ele><time>2026-04-27T09:56:35.69Z</time></trkpt><trkpt lat="39.11276" lon="16.1503033"><ele>225.0</ele><time>2026-04-27T09:56:36.695Z</time></trkpt><trkpt lat="39.1126683" lon="16.150365"><ele>225.0</ele><time>2026-04-27T09:56:37.698Z</time></trkpt><trkpt lat="39.11259" lon="16.150435"><ele>225.0</ele><time>2026-04-27T09:56:38.733Z</time></trkpt><trkpt lat="39.1125283" lon="16.150555"><ele>225.0</ele><time>2026-04-27T09:56:39.694Z</time></trkpt><trkpt lat="39.1124483" lon="16.1506867"><ele>225.0</ele><time>2026-04-27T09:56:40.694Z</time></trkpt><trkpt lat="39.1123533" lon="16.1508133"><ele>226.25</ele><time>2026-04-27T09:56:41.685Z</time></trkpt><trkpt lat="39.1122633" lon="16.1509533"><ele>227.5</ele><time>2026-04-27T09:56:42.685Z</time></trkpt><trkpt lat="39.1121567" lon="16.15107"><ele>228.75</ele><time>2026-04-27T09:56:43.693Z</time></trkpt><trkpt lat="39.112065" lon="16.1511817"><ele>230.0</ele><time>2026-04-27T09:56:44.726Z</time></trkpt><trkpt lat="39.11198" lon="16.151275"><ele>230.0</ele><time>2026-04-27T09:56:45.689Z</time></trkpt><trkpt lat="39.11195" lon="16.1514167"><ele>230.0</ele><time>2026-04-27T09:56:46.688Z</time></trkpt><trkpt lat="39.1119283" lon="16.1515667"><ele>230.0</ele><time>2026-04-27T09:56:47.692Z</time></trkpt><trkpt lat="39.1119233" lon="16.1517317"><ele>230.0</ele><time>2026-04-27T09:56:48.697Z</time></trkpt><trkpt lat="39.11192" lon="16.151905"><ele>234.0</ele><time>2026-04-27T09:56:49.693Z</time></trkpt><trkpt lat="39.11191" lon="16.1520867"><ele>238.0</ele><time>2026-04-27T09:56:50.736Z</time></trkpt><trkpt lat="39.1118833" lon="16.15227"><ele>242.0</ele><time>2026-04-27T09:56:51.688Z</time></trkpt><trkpt lat="39.1118483" lon="16.1524567"><ele>246.0</ele><time>2026-04-27T09:56:52.692Z</time></trkpt><trkpt lat="39.1118033" lon="16.15264"><ele>249.25</ele><time>2026-04-27T09:56:53.691Z</time></trkpt><trkpt lat="39.1117633" lon="16.1528233"><ele>252.5</ele><time>2026-04-27T09:56:54.689Z</time></trkpt><trkpt lat="39.1117367" lon="16.1529933"><ele>255.75</ele><time>2026-04-27T09:56:55.69Z</time></trkpt><trkpt lat="39.1117183" lon="16.1531517"><ele>259.0</ele><time>2026-04-27T09:56:56.75Z</time></trkpt><trkpt lat="39.1117033" lon="16.1532883"><ele>261.4</ele><time>2026-04-27T09:56:57.693Z</time></trkpt><trkpt lat="39.1116733" lon="16.1533967"><ele>263.79999999999995</ele><time>2026-04-27T09:56:58.691Z</time></trkpt><trkpt lat="39.111605" lon="16.15345"><ele>266.20000000000005</ele><time>2026-04-27T09:57:00.689Z</time></trkpt><trkpt lat="39.1115683" lon="16.1533817"><ele>268.6</ele><time>2026-04-27T09:57:01.686Z</time></trkpt><trkpt lat="39.11152" lon="16.1531917"><ele>271.0</ele><time>2026-04-27T09:57:02.744Z</time></trkpt><trkpt lat="39.1114567" lon="16.153025"><ele>273.0</ele><time>2026-04-27T09:57:03.688Z</time></trkpt><trkpt lat="39.11138" lon="16.1528617"><ele>275.0</ele><time>2026-04-27T09:57:04.692Z</time></trkpt><trkpt lat="39.1112883" lon="16.1526817"><ele>277.0</ele><time>2026-04-27T09:57:05.692Z</time></trkpt><trkpt lat="39.1112033" lon="16.15252"><ele>271.0</ele><time>2026-04-27T09:57:06.693Z</time></trkpt><trkpt lat="39.1111417" lon="16.1523567"><ele>265.0</ele><time>2026-04-27T09:57:07.695Z</time></trkpt><trkpt lat="39.11109" lon="16.1522"><ele>259.0</ele><time>2026-04-27T09:57:08.734Z</time></trkpt><trkpt lat="39.1110333" lon="16.1520583"><ele>253.0</ele><time>2026-04-27T09:57:09.696Z</time></trkpt><trkpt lat="39.1109733" lon="16.1519233"><ele>252.99999999999997</ele><time>2026-04-27T09:57:10.697Z</time></trkpt><trkpt lat="39.1109333" lon="16.151795"><ele>253.0</ele><time>2026-04-27T09:57:11.691Z</time></trkpt><trkpt lat="39.1109267" lon="16.1516717"><ele>253.0</ele><time>2026-04-27T09:57:12.69Z</time></trkpt><trkpt lat="39.110925" lon="16.1515583"><ele>253.0</ele><time>2026-04-27T09:57:13.688Z</time></trkpt><trkpt lat="39.1109" lon="16.1514633"><ele>252.99999999999997</ele><time>2026-04-27T09:57:14.738Z</time></trkpt><trkpt lat="39.110835" lon="16.1514567"><ele>253.0</ele><time>2026-04-27T09:57:15.693Z</time></trkpt><trkpt lat="39.1106933" lon="16.1515167"><ele>252.66666666666666</ele><time>2026-04-27T09:57:17.691Z</time></trkpt><trkpt lat="39.1105967" lon="16.1516133"><ele>252.33333333333331</ele><time>2026-04-27T09:57:18.697Z</time></trkpt><trkpt lat="39.1104933" lon="16.151765"><ele>252.0</ele><time>2026-04-27T09:57:19.689Z</time></trkpt><trkpt lat="39.110345" lon="16.1519133"><ele>252.0</ele><time>2026-04-27T09:57:20.738Z</time></trkpt><trkpt lat="39.1102267" lon="16.15205"><ele>252.0</ele><time>2026-04-27T09:57:21.683Z</time></trkpt><trkpt lat="39.1101167" lon="16.1521633"><ele>252.0</ele><time>2026-04-27T09:57:22.694Z</time></trkpt><trkpt lat="39.1100133" lon="16.1522467"><ele>252.0</ele><time>2026-04-27T09:57:23.696Z</time></trkpt><trkpt lat="39.1099217" lon="16.152295"><ele>255.0</ele><time>2026-04-27T09:57:24.695Z</time></trkpt><trkpt lat="39.10984" lon="16.1522783"><ele>258.0</ele><time>2026-04-27T09:57:25.692Z</time></trkpt><trkpt lat="39.1097483" lon="16.15215"><ele>261.0</ele><time>2026-04-27T09:57:26.752Z</time></trkpt><trkpt lat="39.1096633" lon="16.1520733"><ele>264.0</ele><time>2026-04-27T09:57:27.686Z</time></trkpt><trkpt lat="39.1095717" lon="16.1519583"><ele>264.0</ele><time>2026-04-27T09:57:28.697Z</time></trkpt><trkpt lat="39.1094683" lon="16.1518583"><ele>264.0</ele><time>2026-04-27T09:57:29.694Z</time></trkpt><trkpt lat="39.109375" lon="16.1517867"><ele>264.0</ele><time>2026-04-27T09:57:30.695Z</time></trkpt><trkpt lat="39.1092683" lon="16.1517333"><ele>264.0</ele><time>2026-04-27T09:57:31.684Z</time></trkpt><trkpt lat="39.1091183" lon="16.1517867"><ele>266.0</ele><time>2026-04-27T09:57:32.739Z</time></trkpt><trkpt lat="39.1089733" lon="16.1518433"><ele>268.0</ele><time>2026-04-27T09:57:33.692Z</time></trkpt><trkpt lat="39.10882" lon="16.1518983"><ele>270.0</ele><time>2026-04-27T09:57:34.693Z</time></trkpt><trkpt lat="39.1086617" lon="16.1519533"><ele>270.0</ele><time>2026-04-27T09:57:35.689Z</time></trkpt><trkpt lat="39.1084983" lon="16.152"><ele>270.0</ele><time>2026-04-27T09:57:36.694Z</time></trkpt><trkpt lat="39.108335" lon="16.1520417"><ele>270.0</ele><time>2026-04-27T09:57:37.69Z</time></trkpt><trkpt lat="39.108185" lon="16.152085"><ele>275.8</ele><time>2026-04-27T09:57:38.736Z</time></trkpt><trkpt lat="39.1080483" lon="16.15212"><ele>281.6</ele><time>2026-04-27T09:57:39.693Z</time></trkpt><trkpt lat="39.1079367" lon="16.1521417"><ele>287.4</ele><time>2026-04-27T09:57:40.694Z</time></trkpt><trkpt lat="39.107845" lon="16.1521217"><ele>293.2</ele><time>2026-04-27T09:57:41.689Z</time></trkpt><trkpt lat="39.1077633" lon="16.1520617"><ele>299.0</ele><time>2026-04-27T09:57:42.694Z</time></trkpt><trkpt lat="39.1077217" lon="16.1519533"><ele>299.0</ele><time>2026-04-27T09:57:43.689Z</time></trkpt><trkpt lat="39.1077567" lon="16.15175"><ele>299.0</ele><time>2026-04-27T09:57:44.728Z</time></trkpt><trkpt lat="39.107785" lon="16.1516133"><ele>299.0</ele><time>2026-04-27T09:57:45.688Z</time></trkpt><trkpt lat="39.1078117" lon="16.15151"><ele>299.0</ele><time>2026-04-27T09:57:46.691Z</time></trkpt><trkpt lat="39.1078683" lon="16.1514317"><ele>299.0</ele><time>2026-04-27T09:57:48.696Z</time></trkpt><trkpt lat="39.1079383" lon="16.1513667"><ele>299.0</ele><time>2026-04-27T09:57:52.696Z</time></trkpt><trkpt lat="39.1079033" lon="16.1514667"><ele>299.0</ele><time>2026-04-27T09:57:55.693Z</time></trkpt><trkpt lat="39.1078617" lon="16.1515967"><ele>299.0</ele><time>2026-04-27T09:57:57.692Z</time></trkpt><trkpt lat="39.1078117" lon="16.1517317"><ele>299.0</ele><time>2026-04-27T09:57:59.693Z</time></trkpt><trkpt lat="39.1078" lon="16.151885"><ele>299.0</ele><time>2026-04-27T09:58:01.683Z</time></trkpt><trkpt lat="39.107765" lon="16.1520383"><ele>299.0</ele><time>2026-04-27T09:58:03.687Z</time></trkpt><trkpt lat="39.1077217" lon="16.15212"><ele>299.0</ele><time>2026-04-27T09:58:04.687Z</time></trkpt><trkpt lat="39.107685" lon="16.1521933"><ele>299.0</ele><time>2026-04-27T09:58:05.692Z</time></trkpt><trkpt lat="39.1076067" lon="16.15228"><ele>299.0</ele><time>2026-04-27T09:58:07.691Z</time></trkpt><trkpt lat="39.1075783" lon="16.1521283"><ele>299.0</ele><time>2026-04-27T09:58:10.692Z</time></trkpt><trkpt lat="39.1075783" lon="16.1520283"><ele>299.0</ele><time>2026-04-27T09:58:11.69Z</time></trkpt><trkpt lat="39.1075883" lon="16.1519117"><ele>299.0</ele><time>2026-04-27T09:58:12.691Z</time></trkpt><trkpt lat="39.10758" lon="16.15181"><ele>299.0</ele><time>2026-04-27T09:58:13.689Z</time></trkpt><trkpt lat="39.107535" lon="16.1516917"><ele>299.0</ele><time>2026-04-27T09:58:15.693Z</time></trkpt><trkpt lat="39.1074817" lon="16.1517417"><ele>299.0</ele><time>2026-04-27T09:58:17.686Z</time></trkpt><trkpt lat="39.10744" lon="16.1518833"><ele>299.0</ele><time>2026-04-27T09:58:19.69Z</time></trkpt><trkpt lat="39.1074133" lon="16.15202"><ele>306.25</ele><time>2026-04-27T09:58:20.734Z</time></trkpt><trkpt lat="39.10738" lon="16.15215"><ele>313.5</ele><time>2026-04-27T09:58:21.695Z</time></trkpt><trkpt lat="39.1073217" lon="16.1522867"><ele>320.75</ele><time>2026-04-27T09:58:22.693Z</time></trkpt><trkpt lat="39.10725" lon="16.15245"><ele>328.0</ele><time>2026-04-27T09:58:23.696Z</time></trkpt><trkpt lat="39.1071683" lon="16.15262"><ele>328.0</ele><time>2026-04-27T09:58:24.697Z</time></trkpt><trkpt lat="39.1070883" lon="16.152785"><ele>328.0</ele><time>2026-04-27T09:58:25.69Z</time></trkpt><trkpt lat="39.1070133" lon="16.1529317"><ele>328.0</ele><time>2026-04-27T09:58:26.742Z</time></trkpt><trkpt lat="39.10696" lon="16.15306"><ele>328.0</ele><time>2026-04-27T09:58:27.692Z</time></trkpt><trkpt lat="39.1069067" lon="16.1531383"><ele>328.0</ele><time>2026-04-27T09:58:29.695Z</time></trkpt><trkpt lat="39.106925" lon="16.152875"><ele>328.0</ele><time>2026-04-27T09:58:31.69Z</time></trkpt><trkpt lat="39.1068967" lon="16.15268"><ele>328.0</ele><time>2026-04-27T09:58:33.692Z</time></trkpt><trkpt lat="39.1068933" lon="16.1524983"><ele>331.25</ele><time>2026-04-27T09:58:34.69Z</time></trkpt><trkpt lat="39.10689" lon="16.152295"><ele>334.5</ele><time>2026-04-27T09:58:35.691Z</time></trkpt><trkpt lat="39.1069017" lon="16.1521183"><ele>337.75</ele><time>2026-04-27T09:58:36.69Z</time></trkpt><trkpt lat="39.1069083" lon="16.151985"><ele>341.0</ele><time>2026-04-27T09:58:37.692Z</time></trkpt><trkpt lat="39.106905" lon="16.1519"><ele>341.0</ele><time>2026-04-27T09:58:38.727Z</time></trkpt><trkpt lat="39.1068683" lon="16.152045"><ele>341.0</ele><time>2026-04-27T09:58:41.688Z</time></trkpt><trkpt lat="39.1068233" lon="16.152215"><ele>341.0</ele><time>2026-04-27T09:58:42.694Z</time></trkpt><trkpt lat="39.10674" lon="16.1524117"><ele>341.0</ele><time>2026-04-27T09:58:43.697Z</time></trkpt><trkpt lat="39.1066633" lon="16.1525983"><ele>337.75</ele><time>2026-04-27T09:58:44.729Z</time></trkpt><trkpt lat="39.1065967" lon="16.1527517"><ele>334.5</ele><time>2026-04-27T09:58:45.691Z</time></trkpt><trkpt lat="39.1065417" lon="16.1528967"><ele>331.25</ele><time>2026-04-27T09:58:46.694Z</time></trkpt><trkpt lat="39.10649" lon="16.15303"><ele>328.0</ele><time>2026-04-27T09:58:47.697Z</time></trkpt><trkpt lat="39.1064467" lon="16.15316"><ele>335.2</ele><time>2026-04-27T09:58:48.695Z</time></trkpt><trkpt lat="39.1064317" lon="16.1532817"><ele>342.4</ele><time>2026-04-27T09:58:49.691Z</time></trkpt><trkpt lat="39.10641" lon="16.153395"><ele>349.59999999999997</ele><time>2026-04-27T09:58:50.734Z</time></trkpt><trkpt lat="39.10641" lon="16.1535017"><ele>356.79999999999995</ele><time>2026-04-27T09:58:51.686Z</time></trkpt><trkpt lat="39.10645" lon="16.1536067"><ele>364.0</ele><time>2026-04-27T09:58:52.695Z</time></trkpt><trkpt lat="39.1065017" lon="16.1537133"><ele>359.75</ele><time>2026-04-27T09:58:53.694Z</time></trkpt><trkpt lat="39.1066017" lon="16.1538367"><ele>355.5</ele><time>2026-04-27T09:58:54.697Z</time></trkpt><trkpt lat="39.1066867" lon="16.15396"><ele>351.25</ele><time>2026-04-27T09:58:55.691Z</time></trkpt><trkpt lat="39.106765" lon="16.1540667"><ele>347.0</ele><time>2026-04-27T09:58:56.735Z</time></trkpt><trkpt lat="39.1068567" lon="16.154165"><ele>347.0</ele><time>2026-04-27T09:58:57.688Z</time></trkpt><trkpt lat="39.106935" lon="16.1542183"><ele>347.0</ele><time>2026-04-27T09:58:58.689Z</time></trkpt><trkpt lat="39.107015" lon="16.154245"><ele>347.0</ele><time>2026-04-27T09:58:59.691Z</time></trkpt><trkpt lat="39.1071233" lon="16.154235"><ele>347.0</ele><time>2026-04-27T09:59:00.688Z</time></trkpt><trkpt lat="39.10725" lon="16.1542083"><ele>347.0</ele><time>2026-04-27T09:59:01.695Z</time></trkpt><trkpt lat="39.1074033" lon="16.1541667"><ele>346.25</ele><time>2026-04-27T09:59:02.74Z</time></trkpt><trkpt lat="39.10754" lon="16.1541583"><ele>345.5</ele><time>2026-04-27T09:59:03.691Z</time></trkpt><trkpt lat="39.107665" lon="16.154155"><ele>344.75</ele><time>2026-04-27T09:59:04.694Z</time></trkpt><trkpt lat="39.1077833" lon="16.154155"><ele>344.0</ele><time>2026-04-27T09:59:05.69Z</time></trkpt><trkpt lat="39.1078983" lon="16.1541833"><ele>344.0</ele><time>2026-04-27T09:59:06.698Z</time></trkpt><trkpt lat="39.108005" lon="16.1542483"><ele>344.0</ele><time>2026-04-27T09:59:07.691Z</time></trkpt><trkpt lat="39.1080967" lon="16.1543233"><ele>344.0</ele><time>2026-04-27T09:59:08.735Z</time></trkpt><trkpt lat="39.1081867" lon="16.154395"><ele>344.0</ele><time>2026-04-27T09:59:09.695Z</time></trkpt><trkpt lat="39.1082967" lon="16.1544117"><ele>344.0</ele><time>2026-04-27T09:59:10.696Z</time></trkpt><trkpt lat="39.1084067" lon="16.154415"><ele>343.5</ele><time>2026-04-27T09:59:11.694Z</time></trkpt><trkpt lat="39.10852" lon="16.1543967"><ele>343.0</ele><time>2026-04-27T09:59:12.693Z</time></trkpt><trkpt lat="39.1086117" lon="16.1544033"><ele>342.5</ele><time>2026-04-27T09:59:13.686Z</time></trkpt><trkpt lat="39.1086933" lon="16.154405"><ele>342.0</ele><time>2026-04-27T09:59:14.733Z</time></trkpt><trkpt lat="39.1087667" lon="16.1544317"><ele>341.5</ele><time>2026-04-27T09:59:15.688Z</time></trkpt><trkpt lat="39.1088483" lon="16.1544483"><ele>341.0</ele><time>2026-04-27T09:59:16.696Z</time></trkpt><trkpt lat="39.1089367" lon="16.15447"><ele>341.0</ele><time>2026-04-27T09:59:17.693Z</time></trkpt><trkpt lat="39.10904" lon="16.1544933"><ele>341.0</ele><time>2026-04-27T09:59:18.692Z</time></trkpt><trkpt lat="39.1091517" lon="16.1545033"><ele>341.0</ele><time>2026-04-27T09:59:19.686Z</time></trkpt><trkpt lat="39.10926" lon="16.15449"><ele>341.0</ele><time>2026-04-27T09:59:20.736Z</time></trkpt><trkpt lat="39.1093533" lon="16.154475"><ele>341.0</ele><time>2026-04-27T09:59:21.691Z</time></trkpt><trkpt lat="39.1094417" lon="16.1544617"><ele>341.6</ele><time>2026-04-27T09:59:22.695Z</time></trkpt><trkpt lat="39.109535" lon="16.15447"><ele>342.20000000000005</ele><time>2026-04-27T09:59:23.687Z</time></trkpt><trkpt lat="39.1096383" lon="16.1544917"><ele>342.79999999999995</ele><time>2026-04-27T09:59:24.685Z</time></trkpt><trkpt lat="39.1097567" lon="16.1545433"><ele>343.4</ele><time>2026-04-27T09:59:25.692Z</time></trkpt><trkpt lat="39.1098667" lon="16.1546017"><ele>344.0</ele><time>2026-04-27T09:59:26.739Z</time></trkpt><trkpt lat="39.1099617" lon="16.15467"><ele>344.0</ele><time>2026-04-27T09:59:27.693Z</time></trkpt><trkpt lat="39.1100467" lon="16.154745"><ele>344.0</ele><time>2026-04-27T09:59:28.693Z</time></trkpt><trkpt lat="39.1101217" lon="16.1548417"><ele>344.0</ele><time>2026-04-27T09:59:29.689Z</time></trkpt><trkpt lat="39.1101683" lon="16.1549367"><ele>344.0</ele><time>2026-04-27T09:59:30.689Z</time></trkpt><trkpt lat="39.1101783" lon="16.155035"><ele>344.0</ele><time>2026-04-27T09:59:31.683Z</time></trkpt><trkpt lat="39.1101683" lon="16.1551467"><ele>347.6</ele><time>2026-04-27T09:59:32.739Z</time></trkpt><trkpt lat="39.110145" lon="16.155265"><ele>351.2</ele><time>2026-04-27T09:59:33.69Z</time></trkpt><trkpt lat="39.1100967" lon="16.1553317"><ele>354.8</ele><time>2026-04-27T09:59:34.695Z</time></trkpt><trkpt lat="39.1100083" lon="16.1553933"><ele>358.40000000000003</ele><time>2026-04-27T09:59:36.697Z</time></trkpt><trkpt lat="39.109935" lon="16.1553033"><ele>362.0</ele><time>2026-04-27T09:59:38.691Z</time></trkpt><trkpt lat="39.1098933" lon="16.1552"><ele>363.0</ele><time>2026-04-27T09:59:39.688Z</time></trkpt><trkpt lat="39.1097983" lon="16.1551033"><ele>364.0</ele><time>2026-04-27T09:59:41.687Z</time></trkpt><trkpt lat="39.1097333" lon="16.155165"><ele>365.0</ele><time>2026-04-27T09:59:43.689Z</time></trkpt><trkpt lat="39.1097333" lon="16.1553117"><ele>366.0</ele><time>2026-04-27T09:59:45.691Z</time></trkpt><trkpt lat="39.10974" lon="16.1554167"><ele>367.0</ele><time>2026-04-27T09:59:46.699Z</time></trkpt><trkpt lat="39.1097517" lon="16.1555367"><ele>367.0</ele><time>2026-04-27T09:59:47.689Z</time></trkpt><trkpt lat="39.1097667" lon="16.155675"><ele>367.0</ele><time>2026-04-27T09:59:48.698Z</time></trkpt><trkpt lat="39.1097883" lon="16.155815"><ele>367.0</ele><time>2026-04-27T09:59:49.692Z</time></trkpt><trkpt lat="39.1098167" lon="16.1559383"><ele>367.0</ele><time>2026-04-27T09:59:50.704Z</time></trkpt><trkpt lat="39.1098267" lon="16.1560433"><ele>367.0</ele><time>2026-04-27T09:59:51.698Z</time></trkpt><trkpt lat="39.10982" lon="16.156145"><ele>371.20000000000005</ele><time>2026-04-27T09:59:52.701Z</time></trkpt><trkpt lat="39.1098033" lon="16.15626"><ele>375.4</ele><time>2026-04-27T09:59:53.689Z</time></trkpt><trkpt lat="39.1097933" lon="16.1564"><ele>379.6</ele><time>2026-04-27T09:59:54.696Z</time></trkpt><trkpt lat="39.1097917" lon="16.15654"><ele>383.79999999999995</ele><time>2026-04-27T09:59:55.692Z</time></trkpt><trkpt lat="39.10978" lon="16.15669"><ele>388.0</ele><time>2026-04-27T09:59:56.755Z</time></trkpt><trkpt lat="39.1097617" lon="16.1568333"><ele>390.2</ele><time>2026-04-27T09:59:57.69Z</time></trkpt><trkpt lat="39.1097333" lon="16.156975"><ele>392.4</ele><time>2026-04-27T09:59:58.694Z</time></trkpt><trkpt lat="39.1096917" lon="16.1571067"><ele>394.59999999999997</ele><time>2026-04-27T09:59:59.688Z</time></trkpt><trkpt lat="39.1096417" lon="16.1572233"><ele>396.79999999999995</ele><time>2026-04-27T10:00:00.693Z</time></trkpt><trkpt lat="39.1095933" lon="16.1573133"><ele>399.0</ele><time>2026-04-27T10:00:01.691Z</time></trkpt><trkpt lat="39.1095233" lon="16.157315"><ele>399.0</ele><time>2026-04-27T10:00:02.739Z</time></trkpt><trkpt lat="39.1094533" lon="16.1572917"><ele>399.0</ele><time>2026-04-27T10:00:03.686Z</time></trkpt><trkpt lat="39.1093617" lon="16.1572517"><ele>399.0</ele><time>2026-04-27T10:00:04.692Z</time></trkpt><trkpt lat="39.10925" lon="16.1572183"><ele>399.0</ele><time>2026-04-27T10:00:05.694Z</time></trkpt><trkpt lat="39.1091217" lon="16.1571967"><ele>399.0</ele><time>2026-04-27T10:00:06.696Z</time></trkpt><trkpt lat="39.1089967" lon="16.157185"><ele>399.4</ele><time>2026-04-27T10:00:07.688Z</time></trkpt><trkpt lat="39.1088917" lon="16.1571833"><ele>399.79999999999995</ele><time>2026-04-27T10:00:08.697Z</time></trkpt><trkpt lat="39.1088033" lon="16.157195"><ele>400.20000000000005</ele><time>2026-04-27T10:00:09.689Z</time></trkpt><trkpt lat="39.108735" lon="16.157235"><ele>400.6</ele><time>2026-04-27T10:00:10.695Z</time></trkpt><trkpt lat="39.1086983" lon="16.1573117"><ele>401.0</ele><time>2026-04-27T10:00:11.691Z</time></trkpt><trkpt lat="39.108645" lon="16.157445"><ele>402.25</ele><time>2026-04-27T10:00:13.687Z</time></trkpt><trkpt lat="39.1085833" lon="16.1576167"><ele>403.5</ele><time>2026-04-27T10:00:15.689Z</time></trkpt><trkpt lat="39.1085383" lon="16.1577283"><ele>404.75</ele><time>2026-04-27T10:00:16.694Z</time></trkpt><trkpt lat="39.1084883" lon="16.1578417"><ele>406.0</ele><time>2026-04-27T10:00:17.697Z</time></trkpt><trkpt lat="39.1084417" lon="16.1579667"><ele>406.0</ele><time>2026-04-27T10:00:18.693Z</time></trkpt><trkpt lat="39.1083967" lon="16.15811"><ele>406.0</ele><time>2026-04-27T10:00:19.698Z</time></trkpt><trkpt lat="39.10836" lon="16.1582633"><ele>406.0</ele><time>2026-04-27T10:00:20.695Z</time></trkpt><trkpt lat="39.1083317" lon="16.158405"><ele>406.0</ele><time>2026-04-27T10:00:21.691Z</time></trkpt><trkpt lat="39.1083117" lon="16.15854"><ele>405.83333333333337</ele><time>2026-04-27T10:00:22.699Z</time></trkpt><trkpt lat="39.1083183" lon="16.15867"><ele>405.6666666666667</ele><time>2026-04-27T10:00:23.693Z</time></trkpt><trkpt lat="39.1083267" lon="16.158795"><ele>405.5</ele><time>2026-04-27T10:00:24.695Z</time></trkpt><trkpt lat="39.1083467" lon="16.1589083"><ele>405.33333333333337</ele><time>2026-04-27T10:00:25.698Z</time></trkpt><trkpt lat="39.1083617" lon="16.1589967"><ele>405.1666666666667</ele><time>2026-04-27T10:00:26.74Z</time></trkpt><trkpt lat="39.108345" lon="16.159095"><ele>405.0</ele><time>2026-04-27T10:00:28.693Z</time></trkpt><trkpt lat="39.108275" lon="16.1590933"><ele>414.0</ele><time>2026-04-27T10:00:30.698Z</time></trkpt><trkpt lat="39.1082017" lon="16.15901"><ele>423.0</ele><time>2026-04-27T10:00:32.735Z</time></trkpt><trkpt lat="39.10815" lon="16.1589167"><ele>432.0</ele><time>2026-04-27T10:00:33.688Z</time></trkpt><trkpt lat="39.1081067" lon="16.1588117"><ele>441.0</ele><time>2026-04-27T10:00:34.694Z</time></trkpt><trkpt lat="39.1080583" lon="16.1586783"><ele>450.0</ele><time>2026-04-27T10:00:35.691Z</time></trkpt><trkpt lat="39.1080233" lon="16.1585233"><ele>450.0</ele><time>2026-04-27T10:00:36.694Z</time></trkpt><trkpt lat="39.108005" lon="16.15838"><ele>450.0</ele><time>2026-04-27T10:00:37.691Z</time></trkpt><trkpt lat="39.107985" lon="16.15823"><ele>450.0</ele><time>2026-04-27T10:00:38.697Z</time></trkpt><trkpt lat="39.107975" lon="16.1580867"><ele>450.0</ele><time>2026-04-27T10:00:39.689Z</time></trkpt><trkpt lat="39.1079717" lon="16.1579633"><ele>450.0</ele><time>2026-04-27T10:00:40.689Z</time></trkpt><trkpt lat="39.10797" lon="16.1578617"><ele>450.0</ele><time>2026-04-27T10:00:41.693Z</time></trkpt><trkpt lat="39.1079483" lon="16.1577717"><ele>450.0</ele><time>2026-04-27T10:00:43.688Z</time></trkpt><trkpt lat="39.1079183" lon="16.1578567"><ele>450.0</ele><time>2026-04-27T10:00:50.701Z</time></trkpt><trkpt lat="39.1078917" lon="16.1579517"><ele>450.0</ele><time>2026-04-27T10:00:51.694Z</time></trkpt><trkpt lat="39.107865" lon="16.1580667"><ele>450.0</ele><time>2026-04-27T10:00:52.684Z</time></trkpt><trkpt lat="39.1078283" lon="16.1581883"><ele>450.0</ele><time>2026-04-27T10:00:53.698Z</time></trkpt><trkpt lat="39.1077883" lon="16.1583183"><ele>450.0</ele><time>2026-04-27T10:00:54.698Z</time></trkpt><trkpt lat="39.1077333" lon="16.1584433"><ele>450.0</ele><time>2026-04-27T10:00:55.688Z</time></trkpt><trkpt lat="39.1076933" lon="16.158555"><ele>450.0</ele><time>2026-04-27T10:00:56.74Z</time></trkpt><trkpt lat="39.1076533" lon="16.15866"><ele>450.0</ele><time>2026-04-27T10:00:57.692Z</time></trkpt><trkpt lat="39.107625" lon="16.15875"><ele>450.0</ele><time>2026-04-27T10:00:58.694Z</time></trkpt><trkpt lat="39.1076067" lon="16.15883"><ele>450.0</ele><time>2026-04-27T10:00:59.687Z</time></trkpt><trkpt lat="39.1075783" lon="16.1589067"><ele>450.0</ele><time>2026-04-27T10:01:00.693Z</time></trkpt><trkpt lat="39.10759" lon="16.1589933"><ele>450.0</ele><time>2026-04-27T10:01:01.688Z</time></trkpt><trkpt lat="39.1076117" lon="16.159135"><ele>450.0</ele><time>2026-04-27T10:01:03.688Z</time></trkpt><trkpt lat="39.1076183" lon="16.1592283"><ele>450.0</ele><time>2026-04-27T10:01:05.692Z</time></trkpt><trkpt lat="39.1075483" lon="16.1591983"><ele>450.0</ele><time>2026-04-27T10:01:08.697Z</time></trkpt><trkpt lat="39.10746" lon="16.1591617"><ele>450.0</ele><time>2026-04-27T10:01:10.696Z</time></trkpt><trkpt lat="39.107375" lon="16.1592017"><ele>450.1666666666667</ele><time>2026-04-27T10:01:12.696Z</time></trkpt><trkpt lat="39.1073783" lon="16.1593"><ele>450.33333333333337</ele><time>2026-04-27T10:01:14.688Z</time></trkpt><trkpt lat="39.1074417" lon="16.1594033"><ele>450.5</ele><time>2026-04-27T10:01:16.692Z</time></trkpt><trkpt lat="39.1074683" lon="16.1594817"><ele>450.6666666666667</ele><time>2026-04-27T10:01:17.695Z</time></trkpt><trkpt lat="39.107505" lon="16.159575"><ele>450.83333333333337</ele><time>2026-04-27T10:01:18.693Z</time></trkpt><trkpt lat="39.1075517" lon="16.1596717"><ele>451.0</ele><time>2026-04-27T10:01:19.688Z</time></trkpt><trkpt lat="39.1076017" lon="16.15977"><ele>454.0</ele><time>2026-04-27T10:01:20.694Z</time></trkpt><trkpt lat="39.1076483" lon="16.1598683"><ele>457.0</ele><time>2026-04-27T10:01:21.687Z</time></trkpt><trkpt lat="39.10769" lon="16.15996"><ele>460.0</ele><time>2026-04-27T10:01:22.691Z</time></trkpt><trkpt lat="39.10766" lon="16.16004"><ele>463.0</ele><time>2026-04-27T10:01:24.699Z</time></trkpt><trkpt lat="39.1075483" lon="16.1600383"><ele>466.0</ele><time>2026-04-27T10:01:27.687Z</time></trkpt><trkpt lat="39.10746" lon="16.159985"><ele>472.0</ele><time>2026-04-27T10:01:28.697Z</time></trkpt><trkpt lat="39.1073583" lon="16.15991"><ele>478.0</ele><time>2026-04-27T10:01:29.69Z</time></trkpt><trkpt lat="39.1072383" lon="16.15981"><ele>484.0</ele><time>2026-04-27T10:01:30.691Z</time></trkpt><trkpt lat="39.10714" lon="16.1597367"><ele>490.0</ele><time>2026-04-27T10:01:31.688Z</time></trkpt><trkpt lat="39.10705" lon="16.1596717"><ele>490.0</ele><time>2026-04-27T10:01:32.734Z</time></trkpt><trkpt lat="39.1069717" lon="16.1595983"><ele>490.0</ele><time>2026-04-27T10:01:33.688Z</time></trkpt><trkpt lat="39.1068933" lon="16.15952"><ele>490.0</ele><time>2026-04-27T10:01:34.688Z</time></trkpt><trkpt lat="39.1068433" lon="16.1594267"><ele>490.0</ele><time>2026-04-27T10:01:35.684Z</time></trkpt><trkpt lat="39.1068" lon="16.1593267"><ele>490.0</ele><time>2026-04-27T10:01:36.694Z</time></trkpt><trkpt lat="39.1067583" lon="16.1592317"><ele>490.00000000000006</ele><time>2026-04-27T10:01:37.69Z</time></trkpt><trkpt lat="39.1067267" lon="16.1591333"><ele>490.0</ele><time>2026-04-27T10:01:38.696Z</time></trkpt><trkpt lat="39.1066733" lon="16.159035"><ele>490.0</ele><time>2026-04-27T10:01:39.69Z</time></trkpt><trkpt lat="39.106615" lon="16.158945"><ele>490.0</ele><time>2026-04-27T10:01:40.697Z</time></trkpt><trkpt lat="39.1065567" lon="16.158875"><ele>490.00000000000006</ele><time>2026-04-27T10:01:41.693Z</time></trkpt><trkpt lat="39.1065" lon="16.1588217"><ele>490.0</ele><time>2026-04-27T10:01:42.694Z</time></trkpt><trkpt lat="39.1064317" lon="16.1587867"><ele>489.5</ele><time>2026-04-27T10:01:43.697Z</time></trkpt><trkpt lat="39.10632" lon="16.15879"><ele>489.0</ele><time>2026-04-27T10:01:44.694Z</time></trkpt><trkpt lat="39.106205" lon="16.1587783"><ele>488.5</ele><time>2026-04-27T10:01:45.697Z</time></trkpt><trkpt lat="39.1060833" lon="16.1587467"><ele>488.0</ele><time>2026-04-27T10:01:46.691Z</time></trkpt><trkpt lat="39.1059683" lon="16.1587033"><ele>488.0</ele><time>2026-04-27T10:01:47.691Z</time></trkpt><trkpt lat="39.1058633" lon="16.15865"><ele>487.99999999999994</ele><time>2026-04-27T10:01:48.693Z</time></trkpt><trkpt lat="39.1057567" lon="16.1585933"><ele>487.99999999999994</ele><time>2026-04-27T10:01:49.694Z</time></trkpt><trkpt lat="39.105645" lon="16.1585233"><ele>488.0</ele><time>2026-04-27T10:01:50.691Z</time></trkpt><trkpt lat="39.1055667" lon="16.1584617"><ele>488.0</ele><time>2026-04-27T10:01:51.689Z</time></trkpt><trkpt lat="39.1054983" lon="16.1584033"><ele>488.8333333333333</ele><time>2026-04-27T10:01:52.69Z</time></trkpt><trkpt lat="39.10544" lon="16.1583533"><ele>489.66666666666663</ele><time>2026-04-27T10:01:53.694Z</time></trkpt><trkpt lat="39.10538" lon="16.1582983"><ele>490.5</ele><time>2026-04-27T10:01:54.7Z</time></trkpt><trkpt lat="39.10533" lon="16.1582467"><ele>491.33333333333337</ele><time>2026-04-27T10:01:55.69Z</time></trkpt><trkpt lat="39.1052417" lon="16.158125"><ele>492.1666666666667</ele><time>2026-04-27T10:01:57.696Z</time></trkpt><trkpt lat="39.1052" lon="16.1580417"><ele>493.0</ele><time>2026-04-27T10:01:58.695Z</time></trkpt><trkpt lat="39.10518" lon="16.1579317"><ele>493.0</ele><time>2026-04-27T10:01:59.693Z</time></trkpt><trkpt lat="39.1051783" lon="16.1578067"><ele>492.99999999999994</ele><time>2026-04-27T10:02:00.697Z</time></trkpt><trkpt lat="39.1051717" lon="16.15766"><ele>492.99999999999994</ele><time>2026-04-27T10:02:01.688Z</time></trkpt><trkpt lat="39.1051517" lon="16.1575217"><ele>493.0</ele><time>2026-04-27T10:02:02.74Z</time></trkpt><trkpt lat="39.105105" lon="16.157415"><ele>493.0</ele><time>2026-04-27T10:02:03.689Z</time></trkpt><trkpt lat="39.1050783" lon="16.1573117"><ele>491.25</ele><time>2026-04-27T10:02:04.686Z</time></trkpt><trkpt lat="39.10506" lon="16.15721"><ele>489.5</ele><time>2026-04-27T10:02:05.693Z</time></trkpt><trkpt lat="39.1050417" lon="16.1570883"><ele>487.75</ele><time>2026-04-27T10:02:06.695Z</time></trkpt><trkpt lat="39.1050367" lon="16.156945"><ele>486.0</ele><time>2026-04-27T10:02:07.689Z</time></trkpt><trkpt lat="39.105015" lon="16.156735"><ele>482.33333333333337</ele><time>2026-04-27T10:02:08.694Z</time></trkpt><trkpt lat="39.104985" lon="16.15653"><ele>478.6666666666667</ele><time>2026-04-27T10:02:09.689Z</time></trkpt><trkpt lat="39.104955" lon="16.1563383"><ele>475.0</ele><time>2026-04-27T10:02:10.702Z</time></trkpt><trkpt lat="39.1049133" lon="16.15615"><ele>476.0</ele><time>2026-04-27T10:02:11.691Z</time></trkpt><trkpt lat="39.1048767" lon="16.15597"><ele>477.0</ele><time>2026-04-27T10:02:12.693Z</time></trkpt><trkpt lat="39.1048317" lon="16.155805"><ele>478.0</ele><time>2026-04-27T10:02:13.691Z</time></trkpt><trkpt lat="39.104775" lon="16.155645"><ele>479.0</ele><time>2026-04-27T10:02:14.693Z</time></trkpt><trkpt lat="39.1046983" lon="16.155495"><ele>479.0</ele><time>2026-04-27T10:02:15.693Z</time></trkpt><trkpt lat="39.104595" lon="16.1553617"><ele>479.0</ele><time>2026-04-27T10:02:16.689Z</time></trkpt><trkpt lat="39.1045033" lon="16.15522"><ele>479.0</ele><time>2026-04-27T10:02:17.69Z</time></trkpt><trkpt lat="39.104415" lon="16.1550817"><ele>479.0</ele><time>2026-04-27T10:02:18.695Z</time></trkpt><trkpt lat="39.1043467" lon="16.1549683"><ele>479.0</ele><time>2026-04-27T10:02:19.693Z</time></trkpt><trkpt lat="39.1042917" lon="16.1548767"><ele>479.0</ele><time>2026-04-27T10:02:20.695Z</time></trkpt><trkpt lat="39.1042467" lon="16.15498"><ele>479.0</ele><time>2026-04-27T10:02:22.692Z</time></trkpt><trkpt lat="39.10423" lon="16.1550733"><ele>479.0</ele><time>2026-04-27T10:02:23.689Z</time></trkpt><trkpt lat="39.1042167" lon="16.1551917"><ele>479.0</ele><time>2026-04-27T10:02:24.698Z</time></trkpt><trkpt lat="39.1042383" lon="16.1553333"><ele>478.99999999999994</ele><time>2026-04-27T10:02:25.688Z</time></trkpt><trkpt lat="39.1042583" lon="16.1554833"><ele>479.0</ele><time>2026-04-27T10:02:26.762Z</time></trkpt><trkpt lat="39.1042683" lon="16.1555983"><ele>479.0</ele><time>2026-04-27T10:02:27.689Z</time></trkpt><trkpt lat="39.1042183" lon="16.15566"><ele>479.0</ele><time>2026-04-27T10:02:29.696Z</time></trkpt><trkpt lat="39.1041583" lon="16.1555783"><ele>478.99999999999994</ele><time>2026-04-27T10:02:31.688Z</time></trkpt><trkpt lat="39.1041217" lon="16.1554867"><ele>479.0</ele><time>2026-04-27T10:02:32.746Z</time></trkpt><trkpt lat="39.10404" lon="16.1553717"><ele>477.25</ele><time>2026-04-27T10:02:33.687Z</time></trkpt><trkpt lat="39.10395" lon="16.1552483"><ele>475.5</ele><time>2026-04-27T10:02:34.695Z</time></trkpt><trkpt lat="39.1038433" lon="16.1551117"><ele>473.75</ele><time>2026-04-27T10:02:35.695Z</time></trkpt><trkpt lat="39.10372" lon="16.154975"><ele>472.0</ele><time>2026-04-27T10:02:36.695Z</time></trkpt><trkpt lat="39.1036083" lon="16.1548517"><ele>472.0</ele><time>2026-04-27T10:02:37.694Z</time></trkpt><trkpt lat="39.1035" lon="16.1547567"><ele>472.0</ele><time>2026-04-27T10:02:38.694Z</time></trkpt><trkpt lat="39.1033867" lon="16.1546883"><ele>472.0</ele><time>2026-04-27T10:02:39.691Z</time></trkpt><trkpt lat="39.1032583" lon="16.1546317"><ele>472.0</ele><time>2026-04-27T10:02:40.693Z</time></trkpt><trkpt lat="39.1031233" lon="16.154575"><ele>467.75</ele><time>2026-04-27T10:02:41.688Z</time></trkpt><trkpt lat="39.1029967" lon="16.154525"><ele>463.5</ele><time>2026-04-27T10:02:42.695Z</time></trkpt><trkpt lat="39.10288" lon="16.15449"><ele>459.25</ele><time>2026-04-27T10:02:43.685Z</time></trkpt><trkpt lat="39.1027717" lon="16.1544817"><ele>455.0</ele><time>2026-04-27T10:02:44.696Z</time></trkpt><trkpt lat="39.1026567" lon="16.1544983"><ele>455.0</ele><time>2026-04-27T10:02:45.684Z</time></trkpt><trkpt lat="39.1025417" lon="16.1545217"><ele>455.0</ele><time>2026-04-27T10:02:46.697Z</time></trkpt><trkpt lat="39.10243" lon="16.15454"><ele>455.0</ele><time>2026-04-27T10:02:47.693Z</time></trkpt><trkpt lat="39.1023233" lon="16.1545317"><ele>455.0</ele><time>2026-04-27T10:02:48.692Z</time></trkpt><trkpt lat="39.1022133" lon="16.154465"><ele>452.0</ele><time>2026-04-27T10:02:49.69Z</time></trkpt><trkpt lat="39.1021017" lon="16.1543917"><ele>449.0</ele><time>2026-04-27T10:02:50.697Z</time></trkpt><trkpt lat="39.1019883" lon="16.1543083"><ele>446.0</ele><time>2026-04-27T10:02:51.689Z</time></trkpt><trkpt lat="39.10186" lon="16.1542317"><ele>443.0</ele><time>2026-04-27T10:02:52.693Z</time></trkpt><trkpt lat="39.1017283" lon="16.154155"><ele>443.0</ele><time>2026-04-27T10:02:53.691Z</time></trkpt><trkpt lat="39.1016133" lon="16.154085"><ele>442.99999999999994</ele><time>2026-04-27T10:02:54.697Z</time></trkpt><trkpt lat="39.1015267" lon="16.1540367"><ele>442.99999999999994</ele><time>2026-04-27T10:02:55.689Z</time></trkpt><trkpt lat="39.101455" lon="16.154025"><ele>443.0</ele><time>2026-04-27T10:02:56.756Z</time></trkpt><trkpt lat="39.10137" lon="16.15405"><ele>443.0</ele><time>2026-04-27T10:02:57.688Z</time></trkpt><trkpt lat="39.1012383" lon="16.1541267"><ele>437.3333333333333</ele><time>2026-04-27T10:02:58.708Z</time></trkpt><trkpt lat="39.101095" lon="16.154205"><ele>431.66666666666663</ele><time>2026-04-27T10:02:59.684Z</time></trkpt><trkpt lat="39.1009433" lon="16.154285"><ele>426.0</ele><time>2026-04-27T10:03:00.681Z</time></trkpt><trkpt lat="39.100795" lon="16.1543667"><ele>422.75</ele><time>2026-04-27T10:03:01.687Z</time></trkpt><trkpt lat="39.1006617" lon="16.1544567"><ele>419.5</ele><time>2026-04-27T10:03:02.739Z</time></trkpt><trkpt lat="39.1005467" lon="16.1545433"><ele>416.25</ele><time>2026-04-27T10:03:03.684Z</time></trkpt><trkpt lat="39.10044" lon="16.15461"><ele>413.0</ele><time>2026-04-27T10:03:04.692Z</time></trkpt><trkpt lat="39.1003367" lon="16.1546517"><ele>413.0</ele><time>2026-04-27T10:03:05.696Z</time></trkpt><trkpt lat="39.1002267" lon="16.15467"><ele>413.0</ele><time>2026-04-27T10:03:06.69Z</time></trkpt><trkpt lat="39.1000967" lon="16.1546617"><ele>413.0</ele><time>2026-04-27T10:03:07.684Z</time></trkpt><trkpt lat="39.0999633" lon="16.1546633"><ele>413.0</ele><time>2026-04-27T10:03:08.691Z</time></trkpt><trkpt lat="39.0998367" lon="16.1546717"><ele>408.0</ele><time>2026-04-27T10:03:09.687Z</time></trkpt><trkpt lat="39.0997117" lon="16.1546733"><ele>403.0</ele><time>2026-04-27T10:03:10.697Z</time></trkpt><trkpt lat="39.0995933" lon="16.1546583"><ele>398.0</ele><time>2026-04-27T10:03:11.687Z</time></trkpt><trkpt lat="39.0994833" lon="16.154615"><ele>393.0</ele><time>2026-04-27T10:03:12.688Z</time></trkpt><trkpt lat="39.0993783" lon="16.1545483"><ele>393.0</ele><time>2026-04-27T10:03:13.69Z</time></trkpt><trkpt lat="39.0992717" lon="16.15446"><ele>393.0</ele><time>2026-04-27T10:03:14.685Z</time></trkpt><trkpt lat="39.0991567" lon="16.1543467"><ele>393.0</ele><time>2026-04-27T10:03:15.691Z</time></trkpt><trkpt lat="39.0990433" lon="16.1542267"><ele>393.0</ele><time>2026-04-27T10:03:16.682Z</time></trkpt><trkpt lat="39.0989417" lon="16.1540983"><ele>388.2</ele><time>2026-04-27T10:03:17.686Z</time></trkpt><trkpt lat="39.0988533" lon="16.153985"><ele>383.4</ele><time>2026-04-27T10:03:18.694Z</time></trkpt><trkpt lat="39.09877" lon="16.1538933"><ele>378.59999999999997</ele><time>2026-04-27T10:03:19.691Z</time></trkpt><trkpt lat="39.0986983" lon="16.15386"><ele>373.79999999999995</ele><time>2026-04-27T10:03:20.696Z</time></trkpt><trkpt lat="39.0986283" lon="16.1538867"><ele>369.0</ele><time>2026-04-27T10:03:21.685Z</time></trkpt><trkpt lat="39.0985633" lon="16.153935"><ele>369.0</ele><time>2026-04-27T10:03:22.699Z</time></trkpt><trkpt lat="39.0985033" lon="16.153965"><ele>369.0</ele><time>2026-04-27T10:03:23.692Z</time></trkpt><trkpt lat="39.098445" lon="16.1538833"><ele>369.0</ele><time>2026-04-27T10:03:25.686Z</time></trkpt><trkpt lat="39.0984467" lon="16.1537983"><ele>369.0</ele><time>2026-04-27T10:03:26.724Z</time></trkpt><trkpt lat="39.0984133" lon="16.1536983"><ele>369.0</ele><time>2026-04-27T10:03:28.696Z</time></trkpt><trkpt lat="39.0982983" lon="16.153745"><ele>369.0</ele><time>2026-04-27T10:03:30.695Z</time></trkpt><trkpt lat="39.098215" lon="16.1538117"><ele>365.6</ele><time>2026-04-27T10:03:31.69Z</time></trkpt><trkpt lat="39.0981217" lon="16.1538883"><ele>362.2</ele><time>2026-04-27T10:03:32.74Z</time></trkpt><trkpt lat="39.0980217" lon="16.153945"><ele>358.8</ele><time>2026-04-27T10:03:33.687Z</time></trkpt><trkpt lat="39.0979167" lon="16.1539583"><ele>355.40000000000003</ele><time>2026-04-27T10:03:34.695Z</time></trkpt><trkpt lat="39.097825" lon="16.1539117"><ele>352.0</ele><time>2026-04-27T10:03:35.693Z</time></trkpt><trkpt lat="39.0977667" lon="16.15383"><ele>352.0</ele><time>2026-04-27T10:03:36.696Z</time></trkpt><trkpt lat="39.09773" lon="16.1537317"><ele>352.0</ele><time>2026-04-27T10:03:37.687Z</time></trkpt><trkpt lat="39.0977633" lon="16.1536417"><ele>352.0</ele><time>2026-04-27T10:03:38.693Z</time></trkpt><trkpt lat="39.0978083" lon="16.1535483"><ele>352.0</ele><time>2026-04-27T10:03:39.688Z</time></trkpt><trkpt lat="39.0978817" lon="16.1534433"><ele>352.0</ele><time>2026-04-27T10:03:40.69Z</time></trkpt><trkpt lat="39.0979617" lon="16.1533233"><ele>350.3333333333333</ele><time>2026-04-27T10:03:41.692Z</time></trkpt><trkpt lat="39.0980483" lon="16.1531867"><ele>348.6666666666667</ele><time>2026-04-27T10:03:42.69Z</time></trkpt><trkpt lat="39.0981483" lon="16.1530367"><ele>347.0</ele><time>2026-04-27T10:03:43.686Z</time></trkpt><trkpt lat="39.0982533" lon="16.1528817"><ele>347.0</ele><time>2026-04-27T10:03:44.69Z</time></trkpt><trkpt lat="39.09835" lon="16.1527283"><ele>347.0</ele><time>2026-04-27T10:03:45.687Z</time></trkpt><trkpt lat="39.0984433" lon="16.15259"><ele>347.0</ele><time>2026-04-27T10:03:46.694Z</time></trkpt><trkpt lat="39.0984733" lon="16.1525017"><ele>347.0</ele><time>2026-04-27T10:03:47.683Z</time></trkpt><trkpt lat="39.0984933" lon="16.1523933"><ele>344.42857142857144</ele><time>2026-04-27T10:03:48.69Z</time></trkpt><trkpt lat="39.09849" lon="16.1522867"><ele>341.85714285714283</ele><time>2026-04-27T10:03:49.684Z</time></trkpt><trkpt lat="39.0984617" lon="16.1521817"><ele>339.2857142857143</ele><time>2026-04-27T10:03:50.683Z</time></trkpt><trkpt lat="39.0984433" lon="16.1520933"><ele>336.7142857142857</ele><time>2026-04-27T10:03:51.684Z</time></trkpt><trkpt lat="39.098435" lon="16.1520117"><ele>334.1428571428571</ele><time>2026-04-27T10:03:52.685Z</time></trkpt><trkpt lat="39.0985" lon="16.1519817"><ele>331.57142857142856</ele><time>2026-04-27T10:03:53.685Z</time></trkpt><trkpt lat="39.09856" lon="16.151945"><ele>329.0</ele><time>2026-04-27T10:03:54.697Z</time></trkpt><trkpt lat="39.0986367" lon="16.1518967"><ele>329.0</ele><time>2026-04-27T10:03:55.693Z</time></trkpt><trkpt lat="39.0987133" lon="16.1518517"><ele>329.0</ele><time>2026-04-27T10:03:56.763Z</time></trkpt><trkpt lat="39.0987767" lon="16.1518033"><ele>329.0</ele><time>2026-04-27T10:03:57.682Z</time></trkpt><trkpt lat="39.09883" lon="16.151755"><ele>329.0</ele><time>2026-04-27T10:03:58.693Z</time></trkpt><trkpt lat="39.0987533" lon="16.15174"><ele>329.0</ele><time>2026-04-27T10:04:01.687Z</time></trkpt><trkpt lat="39.0986533" lon="16.1518017"><ele>329.0</ele><time>2026-04-27T10:04:02.741Z</time></trkpt><trkpt lat="39.0985633" lon="16.151835"><ele>329.0</ele><time>2026-04-27T10:04:03.695Z</time></trkpt><trkpt lat="39.0984633" lon="16.1518517"><ele>329.0</ele><time>2026-04-27T10:04:04.694Z</time></trkpt><trkpt lat="39.0983167" lon="16.1518117"><ele>329.0</ele><time>2026-04-27T10:04:05.69Z</time></trkpt><trkpt lat="39.098175" lon="16.1517667"><ele>329.0</ele><time>2026-04-27T10:04:06.685Z</time></trkpt><trkpt lat="39.09804" lon="16.1517267"><ele>326.0</ele><time>2026-04-27T10:04:07.685Z</time></trkpt><trkpt lat="39.0979133" lon="16.1517083"><ele>323.0</ele><time>2026-04-27T10:04:08.693Z</time></trkpt><trkpt lat="39.0978" lon="16.1517067"><ele>320.0</ele><time>2026-04-27T10:04:09.693Z</time></trkpt><trkpt lat="39.09772" lon="16.1517483"><ele>317.0</ele><time>2026-04-27T10:04:10.694Z</time></trkpt><trkpt lat="39.09766" lon="16.1518233"><ele>314.0</ele><time>2026-04-27T10:04:11.684Z</time></trkpt><trkpt lat="39.0975967" lon="16.151955"><ele>314.0</ele><time>2026-04-27T10:04:12.696Z</time></trkpt><trkpt lat="39.0975267" lon="16.152055"><ele>314.0</ele><time>2026-04-27T10:04:13.69Z</time></trkpt><trkpt lat="39.097455" lon="16.1521467"><ele>314.0</ele><time>2026-04-27T10:04:14.696Z</time></trkpt><trkpt lat="39.0973683" lon="16.1522233"><ele>314.0</ele><time>2026-04-27T10:04:15.697Z</time></trkpt><trkpt lat="39.0972733" lon="16.152275"><ele>314.0</ele><time>2026-04-27T10:04:16.69Z</time></trkpt><trkpt lat="39.097185" lon="16.1523017"><ele>309.5</ele><time>2026-04-27T10:04:17.692Z</time></trkpt><trkpt lat="39.09707" lon="16.1522983"><ele>305.0</ele><time>2026-04-27T10:04:18.689Z</time></trkpt><trkpt lat="39.0969483" lon="16.1522967"><ele>300.5</ele><time>2026-04-27T10:04:19.696Z</time></trkpt><trkpt lat="39.09683" lon="16.1522917"><ele>296.0</ele><time>2026-04-27T10:04:20.685Z</time></trkpt><trkpt lat="39.0967017" lon="16.1522967"><ele>292.5</ele><time>2026-04-27T10:04:21.687Z</time></trkpt><trkpt lat="39.096565" lon="16.1523283"><ele>289.0</ele><time>2026-04-27T10:04:22.691Z</time></trkpt><trkpt lat="39.0964317" lon="16.1524167"><ele>285.5</ele><time>2026-04-27T10:04:23.691Z</time></trkpt><trkpt lat="39.0963167" lon="16.15253"><ele>282.0</ele><time>2026-04-27T10:04:24.695Z</time></trkpt><trkpt lat="39.09621" lon="16.1526317"><ele>282.0</ele><time>2026-04-27T10:04:25.69Z</time></trkpt><trkpt lat="39.0962017" lon="16.1527867"><ele>282.0</ele><time>2026-04-27T10:04:26.756Z</time></trkpt><trkpt lat="39.0961983" lon="16.15292"><ele>282.0</ele><time>2026-04-27T10:04:27.685Z</time></trkpt><trkpt lat="39.0962083" lon="16.15304"><ele>282.0</ele><time>2026-04-27T10:04:28.689Z</time></trkpt><trkpt lat="39.096205" lon="16.1531283"><ele>282.0</ele><time>2026-04-27T10:04:29.684Z</time></trkpt><trkpt lat="39.096175" lon="16.1532417"><ele>282.0</ele><time>2026-04-27T10:04:31.689Z</time></trkpt><trkpt lat="39.0961233" lon="16.1530367"><ele>282.0</ele><time>2026-04-27T10:04:33.687Z</time></trkpt><trkpt lat="39.0961083" lon="16.1528917"><ele>282.0</ele><time>2026-04-27T10:04:34.698Z</time></trkpt><trkpt lat="39.0960983" lon="16.1527317"><ele>282.0</ele><time>2026-04-27T10:04:35.694Z</time></trkpt><trkpt lat="39.0961317" lon="16.1525867"><ele>282.0</ele><time>2026-04-27T10:04:36.689Z</time></trkpt><trkpt lat="39.0961767" lon="16.1524483"><ele>282.0</ele><time>2026-04-27T10:04:37.693Z</time></trkpt><trkpt lat="39.0962483" lon="16.1523233"><ele>282.0</ele><time>2026-04-27T10:04:38.693Z</time></trkpt><trkpt lat="39.0963367" lon="16.1522083"><ele>282.0</ele><time>2026-04-27T10:04:39.687Z</time></trkpt><trkpt lat="39.0964467" lon="16.1520933"><ele>280.6666666666667</ele><time>2026-04-27T10:04:40.693Z</time></trkpt><trkpt lat="39.0965667" lon="16.151975"><ele>279.33333333333337</ele><time>2026-04-27T10:04:41.683Z</time></trkpt><trkpt lat="39.09669" lon="16.1518583"><ele>278.0</ele><time>2026-04-27T10:04:42.688Z</time></trkpt><trkpt lat="39.0968133" lon="16.1517533"><ele>281.6</ele><time>2026-04-27T10:04:43.687Z</time></trkpt><trkpt lat="39.0969217" lon="16.15166"><ele>285.20000000000005</ele><time>2026-04-27T10:04:44.695Z</time></trkpt><trkpt lat="39.0970117" lon="16.151585"><ele>288.8</ele><time>2026-04-27T10:04:45.692Z</time></trkpt><trkpt lat="39.0970667" lon="16.1515167"><ele>292.40000000000003</ele><time>2026-04-27T10:04:46.692Z</time></trkpt><trkpt lat="39.0970433" lon="16.1514267"><ele>296.0</ele><time>2026-04-27T10:04:48.694Z</time></trkpt><trkpt lat="39.0969467" lon="16.1514817"><ele>296.0</ele><time>2026-04-27T10:04:49.691Z</time></trkpt><trkpt lat="39.0968533" lon="16.15154"><ele>296.0</ele><time>2026-04-27T10:04:50.685Z</time></trkpt><trkpt lat="39.0967533" lon="16.15161"><ele>296.0</ele><time>2026-04-27T10:04:51.691Z</time></trkpt><trkpt lat="39.0966433" lon="16.1516967"><ele>296.0</ele><time>2026-04-27T10:04:52.692Z</time></trkpt><trkpt lat="39.0965117" lon="16.1517883"><ele>291.5</ele><time>2026-04-27T10:04:53.694Z</time></trkpt><trkpt lat="39.0963767" lon="16.1518733"><ele>287.0</ele><time>2026-04-27T10:04:54.693Z</time></trkpt><trkpt lat="39.0962317" lon="16.151935"><ele>282.5</ele><time>2026-04-27T10:04:55.689Z</time></trkpt><trkpt lat="39.0961017" lon="16.1519867"><ele>278.0</ele><time>2026-04-27T10:04:56.758Z</time></trkpt><trkpt lat="39.09599" lon="16.1520383"><ele>278.0</ele><time>2026-04-27T10:04:57.686Z</time></trkpt><trkpt lat="39.0958917" lon="16.1520933"><ele>278.0</ele><time>2026-04-27T10:04:58.691Z</time></trkpt><trkpt lat="39.0958067" lon="16.1521767"><ele>278.0</ele><time>2026-04-27T10:04:59.691Z</time></trkpt><trkpt lat="39.0957583" lon="16.1523083"><ele>278.0</ele><time>2026-04-27T10:05:00.691Z</time></trkpt><trkpt lat="39.0957117" lon="16.1524283"><ele>278.0</ele><time>2026-04-27T10:05:01.694Z</time></trkpt><trkpt lat="39.095675" lon="16.1525633"><ele>273.5</ele><time>2026-04-27T10:05:02.738Z</time></trkpt><trkpt lat="39.0956883" lon="16.1527283"><ele>269.0</ele><time>2026-04-27T10:05:03.683Z</time></trkpt><trkpt lat="39.095685" lon="16.152905"><ele>264.5</ele><time>2026-04-27T10:05:04.686Z</time></trkpt><trkpt lat="39.0956633" lon="16.15309"><ele>260.0</ele><time>2026-04-27T10:05:05.688Z</time></trkpt><trkpt lat="39.0956267" lon="16.153285"><ele>259.33333333333337</ele><time>2026-04-27T10:05:06.691Z</time></trkpt><trkpt lat="39.0955733" lon="16.15349"><ele>258.6666666666667</ele><time>2026-04-27T10:05:07.684Z</time></trkpt><trkpt lat="39.09551" lon="16.1536917"><ele>258.0</ele><time>2026-04-27T10:05:08.686Z</time></trkpt><trkpt lat="39.0954417" lon="16.1538883"><ele>260.0</ele><time>2026-04-27T10:05:09.686Z</time></trkpt><trkpt lat="39.0953583" lon="16.15405"><ele>262.0</ele><time>2026-04-27T10:05:10.689Z</time></trkpt><trkpt lat="39.0952683" lon="16.154185"><ele>264.0</ele><time>2026-04-27T10:05:11.686Z</time></trkpt><trkpt lat="39.095185" lon="16.1543133"><ele>266.0</ele><time>2026-04-27T10:05:12.684Z</time></trkpt><trkpt lat="39.095115" lon="16.1544317"><ele>266.0</ele><time>2026-04-27T10:05:13.685Z</time></trkpt><trkpt lat="39.09506" lon="16.15455"><ele>266.0</ele><time>2026-04-27T10:05:14.682Z</time></trkpt><trkpt lat="39.0950433" lon="16.1546567"><ele>266.0</ele><time>2026-04-27T10:05:15.692Z</time></trkpt><trkpt lat="39.09504" lon="16.1547533"><ele>266.0</ele><time>2026-04-27T10:05:16.694Z</time></trkpt><trkpt lat="39.0950283" lon="16.1548367"><ele>266.0</ele><time>2026-04-27T10:05:17.694Z</time></trkpt><trkpt lat="39.094985" lon="16.1549083"><ele>266.0</ele><time>2026-04-27T10:05:19.686Z</time></trkpt><trkpt lat="39.0948617" lon="16.1548683"><ele>264.33333333333337</ele><time>2026-04-27T10:05:21.686Z</time></trkpt><trkpt lat="39.09471" lon="16.1548467"><ele>262.6666666666667</ele><time>2026-04-27T10:05:22.691Z</time></trkpt><trkpt lat="39.0945633" lon="16.15486"><ele>261.0</ele><time>2026-04-27T10:05:23.69Z</time></trkpt><trkpt lat="39.0944117" lon="16.1549083"><ele>261.0</ele><time>2026-04-27T10:05:24.688Z</time></trkpt><trkpt lat="39.0942283" lon="16.155025"><ele>261.0</ele><time>2026-04-27T10:05:25.69Z</time></trkpt><trkpt lat="39.0940483" lon="16.1551333"><ele>261.0</ele><time>2026-04-27T10:05:26.757Z</time></trkpt><trkpt lat="39.0938733" lon="16.1552483"><ele>256.0</ele><time>2026-04-27T10:05:27.687Z</time></trkpt><trkpt lat="39.0937133" lon="16.155345"><ele>251.0</ele><time>2026-04-27T10:05:28.686Z</time></trkpt><trkpt lat="39.093555" lon="16.1554317"><ele>246.0</ele><time>2026-04-27T10:05:29.685Z</time></trkpt><trkpt lat="39.0933883" lon="16.1555083"><ele>244.66666666666669</ele><time>2026-04-27T10:05:30.699Z</time></trkpt><trkpt lat="39.0932067" lon="16.1555533"><ele>243.33333333333334</ele><time>2026-04-27T10:05:31.685Z</time></trkpt><trkpt lat="39.09302" lon="16.15559"><ele>242.0</ele><time>2026-04-27T10:05:32.742Z</time></trkpt><trkpt lat="39.0928267" lon="16.1556"><ele>242.0</ele><time>2026-04-27T10:05:33.695Z</time></trkpt><trkpt lat="39.0926317" lon="16.1556033"><ele>242.0</ele><time>2026-04-27T10:05:34.693Z</time></trkpt><trkpt lat="39.0924383" lon="16.1556167"><ele>242.0</ele><time>2026-04-27T10:05:35.685Z</time></trkpt><trkpt lat="39.0922517" lon="16.1556283"><ele>240.75</ele><time>2026-04-27T10:05:36.689Z</time></trkpt><trkpt lat="39.092105" lon="16.1556617"><ele>239.5</ele><time>2026-04-27T10:05:37.688Z</time></trkpt><trkpt lat="39.09199" lon="16.1556917"><ele>238.25</ele><time>2026-04-27T10:05:38.696Z</time></trkpt><trkpt lat="39.091895" lon="16.1557383"><ele>237.0</ele><time>2026-04-27T10:05:39.686Z</time></trkpt><trkpt lat="39.0918217" lon="16.155805"><ele>236.75</ele><time>2026-04-27T10:05:40.693Z</time></trkpt><trkpt lat="39.09175" lon="16.1558883"><ele>236.5</ele><time>2026-04-27T10:05:41.694Z</time></trkpt><trkpt lat="39.0916833" lon="16.1559983"><ele>236.25</ele><time>2026-04-27T10:05:42.693Z</time></trkpt><trkpt lat="39.0916383" lon="16.156145"><ele>236.0</ele><time>2026-04-27T10:05:43.69Z</time></trkpt><trkpt lat="39.09159" lon="16.15629"><ele>236.0</ele><time>2026-04-27T10:05:44.687Z</time></trkpt><trkpt lat="39.0915433" lon="16.1564383"><ele>236.0</ele><time>2026-04-27T10:05:45.684Z</time></trkpt><trkpt lat="39.0914967" lon="16.156575"><ele>236.0</ele><time>2026-04-27T10:05:46.693Z</time></trkpt><trkpt lat="39.0914617" lon="16.1567033"><ele>236.0</ele><time>2026-04-27T10:05:47.695Z</time></trkpt><trkpt lat="39.0914483" lon="16.1568417"><ele>237.8</ele><time>2026-04-27T10:05:48.698Z</time></trkpt><trkpt lat="39.0914617" lon="16.1569883"><ele>239.60000000000002</ele><time>2026-04-27T10:05:49.693Z</time></trkpt><trkpt lat="39.09148" lon="16.157125"><ele>241.4</ele><time>2026-04-27T10:05:50.697Z</time></trkpt><trkpt lat="39.0914833" lon="16.1572583"><ele>243.2</ele><time>2026-04-27T10:05:51.689Z</time></trkpt><trkpt lat="39.0914617" lon="16.1573733"><ele>245.0</ele><time>2026-04-27T10:05:52.694Z</time></trkpt><trkpt lat="39.09139" lon="16.157435"><ele>245.0</ele><time>2026-04-27T10:05:53.696Z</time></trkpt><trkpt lat="39.091295" lon="16.1574733"><ele>245.0</ele><time>2026-04-27T10:05:54.694Z</time></trkpt><trkpt lat="39.0911983" lon="16.1574833"><ele>245.0</ele><time>2026-04-27T10:05:55.689Z</time></trkpt><trkpt lat="39.0910817" lon="16.1574383"><ele>245.0</ele><time>2026-04-27T10:05:56.723Z</time></trkpt><trkpt lat="39.090965" lon="16.157375"><ele>245.0</ele><time>2026-04-27T10:05:57.689Z</time></trkpt><trkpt lat="39.0908483" lon="16.1573083"><ele>245.2</ele><time>2026-04-27T10:05:58.688Z</time></trkpt><trkpt lat="39.09075" lon="16.157285"><ele>245.4</ele><time>2026-04-27T10:05:59.687Z</time></trkpt><trkpt lat="39.0906433" lon="16.1572833"><ele>245.60000000000002</ele><time>2026-04-27T10:06:00.695Z</time></trkpt><trkpt lat="39.09054" lon="16.1573"><ele>245.8</ele><time>2026-04-27T10:06:01.692Z</time></trkpt><trkpt lat="39.0904617" lon="16.157345"><ele>246.0</ele><time>2026-04-27T10:06:02.735Z</time></trkpt><trkpt lat="39.0904083" lon="16.1574167"><ele>247.5</ele><time>2026-04-27T10:06:03.684Z</time></trkpt><trkpt lat="39.09036" lon="16.1574967"><ele>249.0</ele><time>2026-04-27T10:06:04.686Z</time></trkpt><trkpt lat="39.0903283" lon="16.15759"><ele>250.5</ele><time>2026-04-27T10:06:05.693Z</time></trkpt><trkpt lat="39.09029" lon="16.1576683"><ele>252.0</ele><time>2026-04-27T10:06:06.683Z</time></trkpt><trkpt lat="39.0902467" lon="16.1577317"><ele>253.5</ele><time>2026-04-27T10:06:07.689Z</time></trkpt><trkpt lat="39.090185" lon="16.1578617"><ele>255.0</ele><time>2026-04-27T10:06:09.691Z</time></trkpt><trkpt lat="39.0901783" lon="16.1579433"><ele>255.0</ele><time>2026-04-27T10:06:10.687Z</time></trkpt><trkpt lat="39.090185" lon="16.1580483"><ele>255.0</ele><time>2026-04-27T10:06:11.696Z</time></trkpt><trkpt lat="39.0901817" lon="16.1581683"><ele>255.0</ele><time>2026-04-27T10:06:12.689Z</time></trkpt><trkpt lat="39.0901783" lon="16.1583183"><ele>255.0</ele><time>2026-04-27T10:06:13.694Z</time></trkpt><trkpt lat="39.0901683" lon="16.1584783"><ele>255.0</ele><time>2026-04-27T10:06:14.692Z</time></trkpt><trkpt lat="39.0901617" lon="16.1586483"><ele>258.6666666666667</ele><time>2026-04-27T10:06:15.687Z</time></trkpt><trkpt lat="39.0901633" lon="16.1588467"><ele>262.33333333333337</ele><time>2026-04-27T10:06:16.698Z</time></trkpt><trkpt lat="39.0901717" lon="16.1590483"><ele>266.0</ele><time>2026-04-27T10:06:17.689Z</time></trkpt><trkpt lat="39.0901917" lon="16.1592483"><ele>269.0</ele><time>2026-04-27T10:06:18.694Z</time></trkpt><trkpt lat="39.0902233" lon="16.15945"><ele>272.0</ele><time>2026-04-27T10:06:19.683Z</time></trkpt><trkpt lat="39.090255" lon="16.159635"><ele>275.0</ele><time>2026-04-27T10:06:20.693Z</time></trkpt><trkpt lat="39.090285" lon="16.1598083"><ele>278.0</ele><time>2026-04-27T10:06:21.688Z</time></trkpt><trkpt lat="39.090325" lon="16.1599783"><ele>281.5</ele><time>2026-04-27T10:06:22.694Z</time></trkpt><trkpt lat="39.0903767" lon="16.1601333"><ele>285.0</ele><time>2026-04-27T10:06:23.684Z</time></trkpt><trkpt lat="39.09044" lon="16.160275"><ele>288.5</ele><time>2026-04-27T10:06:24.691Z</time></trkpt><trkpt lat="39.0905067" lon="16.1603967"><ele>292.0</ele><time>2026-04-27T10:06:25.694Z</time></trkpt><trkpt lat="39.0905783" lon="16.1604917"><ele>292.0</ele><time>2026-04-27T10:06:26.752Z</time></trkpt><trkpt lat="39.0906333" lon="16.1605883"><ele>292.0</ele><time>2026-04-27T10:06:27.707Z</time></trkpt><trkpt lat="39.0906683" lon="16.16066"><ele>292.0</ele><time>2026-04-27T10:06:28.694Z</time></trkpt><trkpt lat="39.090705" lon="16.160755"><ele>292.0</ele><time>2026-04-27T10:06:30.695Z</time></trkpt><trkpt lat="39.0905167" lon="16.160615"><ele>292.0</ele><time>2026-04-27T10:06:34.683Z</time></trkpt><trkpt lat="39.09026" lon="16.1603817"><ele>292.0</ele><time>2026-04-27T10:06:35.686Z</time></trkpt><trkpt lat="39.0901183" lon="16.160185"><ele>292.0</ele><time>2026-04-27T10:06:36.695Z</time></trkpt><trkpt lat="39.0899933" lon="16.16001"><ele>292.0</ele><time>2026-04-27T10:06:37.694Z</time></trkpt><trkpt lat="39.0898917" lon="16.1598083"><ele>292.0</ele><time>2026-04-27T10:06:38.692Z</time></trkpt><trkpt lat="39.0897983" lon="16.1595783"><ele>291.3333333333333</ele><time>2026-04-27T10:06:39.692Z</time></trkpt><trkpt lat="39.0897133" lon="16.1593883"><ele>290.6666666666667</ele><time>2026-04-27T10:06:40.699Z</time></trkpt><trkpt lat="39.0896317" lon="16.1592233"><ele>290.0</ele><time>2026-04-27T10:06:41.682Z</time></trkpt><trkpt lat="39.0895467" lon="16.1590867"><ele>286.75</ele><time>2026-04-27T10:06:42.69Z</time></trkpt><trkpt lat="39.08946" lon="16.1589617"><ele>283.5</ele><time>2026-04-27T10:06:43.693Z</time></trkpt><trkpt lat="39.08934" lon="16.1589417"><ele>280.25</ele><time>2026-04-27T10:06:44.692Z</time></trkpt><trkpt lat="39.0892217" lon="16.1589017"><ele>277.0</ele><time>2026-04-27T10:06:45.691Z</time></trkpt><trkpt lat="39.0891117" lon="16.1588483"><ele>277.6</ele><time>2026-04-27T10:06:46.691Z</time></trkpt><trkpt lat="39.0890017" lon="16.158785"><ele>278.2</ele><time>2026-04-27T10:06:47.697Z</time></trkpt><trkpt lat="39.0889017" lon="16.1586983"><ele>278.8</ele><time>2026-04-27T10:06:48.694Z</time></trkpt><trkpt lat="39.088835" lon="16.158585"><ele>279.4</ele><time>2026-04-27T10:06:49.692Z</time></trkpt><trkpt lat="39.0887667" lon="16.1584967"><ele>280.0</ele><time>2026-04-27T10:06:50.694Z</time></trkpt><trkpt lat="39.0886817" lon="16.1584567"><ele>280.0</ele><time>2026-04-27T10:06:51.689Z</time></trkpt><trkpt lat="39.0885933" lon="16.1584617"><ele>280.0</ele><time>2026-04-27T10:06:52.695Z</time></trkpt><trkpt lat="39.0884967" lon="16.1585"><ele>280.0</ele><time>2026-04-27T10:06:53.69Z</time></trkpt><trkpt lat="39.0884017" lon="16.1585583"><ele>280.0</ele><time>2026-04-27T10:06:54.69Z</time></trkpt><trkpt lat="39.088315" lon="16.1586517"><ele>280.0</ele><time>2026-04-27T10:06:55.692Z</time></trkpt><trkpt lat="39.0882483" lon="16.15876"><ele>280.66666666666663</ele><time>2026-04-27T10:06:56.76Z</time></trkpt><trkpt lat="39.08821" lon="16.1589217"><ele>281.3333333333333</ele><time>2026-04-27T10:06:57.691Z</time></trkpt><trkpt lat="39.0881733" lon="16.1591167"><ele>282.0</ele><time>2026-04-27T10:06:58.689Z</time></trkpt><trkpt lat="39.08815" lon="16.15933"><ele>282.0</ele><time>2026-04-27T10:06:59.69Z</time></trkpt><trkpt lat="39.0881283" lon="16.1595517"><ele>282.0</ele><time>2026-04-27T10:07:00.699Z</time></trkpt><trkpt lat="39.0881117" lon="16.1597667"><ele>282.0</ele><time>2026-04-27T10:07:01.689Z</time></trkpt><trkpt lat="39.0880967" lon="16.1599717"><ele>285.6666666666667</ele><time>2026-04-27T10:07:02.738Z</time></trkpt><trkpt lat="39.08808" lon="16.1601717"><ele>289.33333333333337</ele><time>2026-04-27T10:07:03.69Z</time></trkpt><trkpt lat="39.0880383" lon="16.1603567"><ele>293.0</ele><time>2026-04-27T10:07:04.684Z</time></trkpt><trkpt lat="39.0879583" lon="16.1605433"><ele>296.33333333333337</ele><time>2026-04-27T10:07:05.686Z</time></trkpt><trkpt lat="39.0878633" lon="16.1607267"><ele>299.6666666666667</ele><time>2026-04-27T10:07:06.695Z</time></trkpt><trkpt lat="39.0877783" lon="16.1609033"><ele>303.0</ele><time>2026-04-27T10:07:07.682Z</time></trkpt><trkpt lat="39.0876867" lon="16.1610367"><ele>303.0</ele><time>2026-04-27T10:07:08.692Z</time></trkpt><trkpt lat="39.0875917" lon="16.1609967"><ele>303.0</ele><time>2026-04-27T10:07:10.694Z</time></trkpt><trkpt lat="39.08751" lon="16.1607933"><ele>303.0</ele><time>2026-04-27T10:07:12.696Z</time></trkpt><trkpt lat="39.0874583" lon="16.1606783"><ele>303.0</ele><time>2026-04-27T10:07:13.687Z</time></trkpt><trkpt lat="39.087395" lon="16.1605683"><ele>300.25</ele><time>2026-04-27T10:07:14.69Z</time></trkpt><trkpt lat="39.08732" lon="16.1604783"><ele>297.5</ele><time>2026-04-27T10:07:15.694Z</time></trkpt><trkpt lat="39.0872233" lon="16.16042"><ele>294.75</ele><time>2026-04-27T10:07:16.697Z</time></trkpt><trkpt lat="39.087085" lon="16.1604117"><ele>292.0</ele><time>2026-04-27T10:07:17.694Z</time></trkpt><trkpt lat="39.0869467" lon="16.16041"><ele>292.0</ele><time>2026-04-27T10:07:18.694Z</time></trkpt><trkpt lat="39.0867933" lon="16.1604367"><ele>292.0</ele><time>2026-04-27T10:07:19.69Z</time></trkpt><trkpt lat="39.0866417" lon="16.16049"><ele>292.0</ele><time>2026-04-27T10:07:20.695Z</time></trkpt><trkpt lat="39.0864933" lon="16.1605483"><ele>292.75</ele><time>2026-04-27T10:07:21.691Z</time></trkpt><trkpt lat="39.0863617" lon="16.1605733"><ele>293.5</ele><time>2026-04-27T10:07:22.695Z</time></trkpt><trkpt lat="39.0862317" lon="16.160585"><ele>294.25</ele><time>2026-04-27T10:07:23.692Z</time></trkpt><trkpt lat="39.0861117" lon="16.160535"><ele>295.0</ele><time>2026-04-27T10:07:24.696Z</time></trkpt><trkpt lat="39.0860117" lon="16.16049"><ele>295.0</ele><time>2026-04-27T10:07:25.69Z</time></trkpt><trkpt lat="39.0859117" lon="16.1604633"><ele>295.0</ele><time>2026-04-27T10:07:26.756Z</time></trkpt><trkpt lat="39.0858233" lon="16.1604933"><ele>295.0</ele><time>2026-04-27T10:07:27.693Z</time></trkpt><trkpt lat="39.0857283" lon="16.1605483"><ele>295.0</ele><time>2026-04-27T10:07:28.684Z</time></trkpt><trkpt lat="39.0856217" lon="16.1606183"><ele>295.0</ele><time>2026-04-27T10:07:29.693Z</time></trkpt><trkpt lat="39.0855133" lon="16.160695"><ele>297.75</ele><time>2026-04-27T10:07:30.689Z</time></trkpt><trkpt lat="39.0854133" lon="16.1608033"><ele>300.5</ele><time>2026-04-27T10:07:31.692Z</time></trkpt><trkpt lat="39.08532" lon="16.160935"><ele>303.25</ele><time>2026-04-27T10:07:32.743Z</time></trkpt><trkpt lat="39.085235" lon="16.1610833"><ele>306.0</ele><time>2026-04-27T10:07:33.688Z</time></trkpt><trkpt lat="39.0851617" lon="16.16126"><ele>306.0</ele><time>2026-04-27T10:07:34.696Z</time></trkpt><trkpt lat="39.0850883" lon="16.16143"><ele>306.0</ele><time>2026-04-27T10:07:35.686Z</time></trkpt><trkpt lat="39.0849817" lon="16.161575"><ele>306.0</ele><time>2026-04-27T10:07:36.685Z</time></trkpt><trkpt lat="39.0848667" lon="16.1617117"><ele>311.0</ele><time>2026-04-27T10:07:37.692Z</time></trkpt><trkpt lat="39.0847117" lon="16.161815"><ele>316.0</ele><time>2026-04-27T10:07:38.692Z</time></trkpt><trkpt lat="39.084555" lon="16.1619017"><ele>321.0</ele><time>2026-04-27T10:07:39.692Z</time></trkpt><trkpt lat="39.0843817" lon="16.1619483"><ele>321.0</ele><time>2026-04-27T10:07:40.692Z</time></trkpt><trkpt lat="39.0842117" lon="16.1619833"><ele>321.0</ele><time>2026-04-27T10:07:41.688Z</time></trkpt><trkpt lat="39.0840383" lon="16.1619983"><ele>321.0</ele><time>2026-04-27T10:07:42.695Z</time></trkpt><trkpt lat="39.0838717" lon="16.1619733"><ele>322.0</ele><time>2026-04-27T10:07:43.693Z</time></trkpt><trkpt lat="39.0837067" lon="16.1619067"><ele>323.0</ele><time>2026-04-27T10:07:44.698Z</time></trkpt><trkpt lat="39.0835533" lon="16.161785"><ele>324.0</ele><time>2026-04-27T10:07:45.692Z</time></trkpt><trkpt lat="39.0834383" lon="16.16152"><ele>324.0</ele><time>2026-04-27T10:07:46.692Z</time></trkpt><trkpt lat="39.0833067" lon="16.161375"><ele>324.0</ele><time>2026-04-27T10:07:47.695Z</time></trkpt><trkpt lat="39.0831767" lon="16.16123"><ele>324.0</ele><time>2026-04-27T10:07:48.696Z</time></trkpt><trkpt lat="39.08304" lon="16.1610983"><ele>325.0</ele><time>2026-04-27T10:07:49.693Z</time></trkpt><trkpt lat="39.0829033" lon="16.1609883"><ele>326.0</ele><time>2026-04-27T10:07:50.699Z</time></trkpt><trkpt lat="39.08278" lon="16.160905"><ele>327.0</ele><time>2026-04-27T10:07:51.692Z</time></trkpt><trkpt lat="39.08266" lon="16.16088"><ele>328.0</ele><time>2026-04-27T10:07:52.696Z</time></trkpt><trkpt lat="39.08254" lon="16.1608883"><ele>326.75</ele><time>2026-04-27T10:07:53.692Z</time></trkpt><trkpt lat="39.0824267" lon="16.1609383"><ele>325.5</ele><time>2026-04-27T10:07:54.7Z</time></trkpt><trkpt lat="39.0823117" lon="16.1610083"><ele>324.25</ele><time>2026-04-27T10:07:55.688Z</time></trkpt><trkpt lat="39.0821933" lon="16.1611183"><ele>323.0</ele><time>2026-04-27T10:07:56.758Z</time></trkpt><trkpt lat="39.0820717" lon="16.1612567"><ele>323.0</ele><time>2026-04-27T10:07:57.687Z</time></trkpt><trkpt lat="39.0819467" lon="16.1614283"><ele>323.0</ele><time>2026-04-27T10:07:58.692Z</time></trkpt><trkpt lat="39.0818183" lon="16.1616133"><ele>323.0</ele><time>2026-04-27T10:07:59.689Z</time></trkpt><trkpt lat="39.0816767" lon="16.1617983"><ele>324.6666666666667</ele><time>2026-04-27T10:08:00.698Z</time></trkpt><trkpt lat="39.08155" lon="16.1619967"><ele>326.3333333333333</ele><time>2026-04-27T10:08:01.688Z</time></trkpt><trkpt lat="39.0814283" lon="16.1621833"><ele>328.0</ele><time>2026-04-27T10:08:02.739Z</time></trkpt><trkpt lat="39.0813367" lon="16.16237"><ele>329.75</ele><time>2026-04-27T10:08:03.685Z</time></trkpt><trkpt lat="39.08126" lon="16.1625333"><ele>331.5</ele><time>2026-04-27T10:08:04.69Z</time></trkpt><trkpt lat="39.0811867" lon="16.16269"><ele>333.25</ele><time>2026-04-27T10:08:05.694Z</time></trkpt><trkpt lat="39.0810983" lon="16.162815"><ele>335.0</ele><time>2026-04-27T10:08:06.694Z</time></trkpt><trkpt lat="39.0809967" lon="16.1629133"><ele>335.0</ele><time>2026-04-27T10:08:07.685Z</time></trkpt><trkpt lat="39.0808683" lon="16.1629717"><ele>335.0</ele><time>2026-04-27T10:08:08.688Z</time></trkpt><trkpt lat="39.0807567" lon="16.163015"><ele>335.0</ele><time>2026-04-27T10:08:09.684Z</time></trkpt><trkpt lat="39.0806517" lon="16.1630233"><ele>335.0</ele><time>2026-04-27T10:08:10.685Z</time></trkpt><trkpt lat="39.0805583" lon="16.162895"><ele>336.25</ele><time>2026-04-27T10:08:11.689Z</time></trkpt><trkpt lat="39.0804533" lon="16.1627733"><ele>337.5</ele><time>2026-04-27T10:08:12.695Z</time></trkpt><trkpt lat="39.0803367" lon="16.162655"><ele>338.75</ele><time>2026-04-27T10:08:13.685Z</time></trkpt><trkpt lat="39.0802217" lon="16.162555"><ele>340.0</ele><time>2026-04-27T10:08:14.694Z</time></trkpt><trkpt lat="39.0800917" lon="16.1625233"><ele>340.0</ele><time>2026-04-27T10:08:15.691Z</time></trkpt><trkpt lat="39.0799583" lon="16.1625417"><ele>340.0</ele><time>2026-04-27T10:08:16.693Z</time></trkpt><trkpt lat="39.0798333" lon="16.1626083"><ele>340.0</ele><time>2026-04-27T10:08:17.688Z</time></trkpt><trkpt lat="39.079705" lon="16.1626767"><ele>340.0</ele><time>2026-04-27T10:08:18.694Z</time></trkpt><trkpt lat="39.0795633" lon="16.1627233"><ele>340.66666666666663</ele><time>2026-04-27T10:08:19.688Z</time></trkpt><trkpt lat="39.07942" lon="16.16275"><ele>341.3333333333333</ele><time>2026-04-27T10:08:20.687Z</time></trkpt><trkpt lat="39.07927" lon="16.1627517"><ele>342.0</ele><time>2026-04-27T10:08:21.694Z</time></trkpt><trkpt lat="39.0791033" lon="16.1627367"><ele>343.3333333333333</ele><time>2026-04-27T10:08:22.692Z</time></trkpt><trkpt lat="39.0789233" lon="16.1627117"><ele>344.66666666666663</ele><time>2026-04-27T10:08:23.689Z</time></trkpt><trkpt lat="39.0787367" lon="16.1626667"><ele>346.0</ele><time>2026-04-27T10:08:24.69Z</time></trkpt><trkpt lat="39.0785483" lon="16.162615"><ele>346.0</ele><time>2026-04-27T10:08:25.689Z</time></trkpt><trkpt lat="39.0783733" lon="16.1625683"><ele>346.0</ele><time>2026-04-27T10:08:26.763Z</time></trkpt><trkpt lat="39.07821" lon="16.1625183"><ele>346.0</ele><time>2026-04-27T10:08:27.692Z</time></trkpt><trkpt lat="39.07806" lon="16.16247"><ele>346.20000000000005</ele><time>2026-04-27T10:08:28.691Z</time></trkpt><trkpt lat="39.07793" lon="16.162415"><ele>346.40000000000003</ele><time>2026-04-27T10:08:29.692Z</time></trkpt><trkpt lat="39.077855" lon="16.1623567"><ele>346.6</ele><time>2026-04-27T10:08:30.695Z</time></trkpt><trkpt lat="39.077785" lon="16.162285"><ele>346.8</ele><time>2026-04-27T10:08:31.689Z</time></trkpt><trkpt lat="39.0777183" lon="16.16219"><ele>347.0</ele><time>2026-04-27T10:08:32.743Z</time></trkpt><trkpt lat="39.07766" lon="16.162065"><ele>347.5</ele><time>2026-04-27T10:08:33.693Z</time></trkpt><trkpt lat="39.077595" lon="16.1619367"><ele>348.0</ele><time>2026-04-27T10:08:34.694Z</time></trkpt><trkpt lat="39.0775117" lon="16.1618117"><ele>348.5</ele><time>2026-04-27T10:08:35.689Z</time></trkpt><trkpt lat="39.0774167" lon="16.161695"><ele>349.0</ele><time>2026-04-27T10:08:36.69Z</time></trkpt><trkpt lat="39.0773133" lon="16.1615817"><ele>352.3333333333333</ele><time>2026-04-27T10:08:37.689Z</time></trkpt><trkpt lat="39.0771967" lon="16.16149"><ele>355.6666666666667</ele><time>2026-04-27T10:08:38.691Z</time></trkpt><trkpt lat="39.077035" lon="16.1614583"><ele>359.0</ele><time>2026-04-27T10:08:39.692Z</time></trkpt><trkpt lat="39.0768817" lon="16.1614483"><ele>359.0</ele><time>2026-04-27T10:08:40.69Z</time></trkpt><trkpt lat="39.0767033" lon="16.1615033"><ele>359.0</ele><time>2026-04-27T10:08:41.687Z</time></trkpt><trkpt lat="39.076525" lon="16.1615717"><ele>359.0</ele><time>2026-04-27T10:08:42.693Z</time></trkpt><trkpt lat="39.0763533" lon="16.1616483"><ele>358.6666666666667</ele><time>2026-04-27T10:08:43.687Z</time></trkpt><trkpt lat="39.07619" lon="16.1617267"><ele>358.3333333333333</ele><time>2026-04-27T10:08:44.692Z</time></trkpt><trkpt lat="39.0760367" lon="16.16179"><ele>358.0</ele><time>2026-04-27T10:08:45.689Z</time></trkpt><trkpt lat="39.0758933" lon="16.1618333"><ele>356.59999999999997</ele><time>2026-04-27T10:08:46.695Z</time></trkpt><trkpt lat="39.0757617" lon="16.1618567"><ele>355.2</ele><time>2026-04-27T10:08:47.69Z</time></trkpt><trkpt lat="39.075645" lon="16.161865"><ele>353.8</ele><time>2026-04-27T10:08:48.698Z</time></trkpt><trkpt lat="39.075555" lon="16.1618667"><ele>352.4</ele><time>2026-04-27T10:08:49.69Z</time></trkpt><trkpt lat="39.075485" lon="16.1618717"><ele>351.0</ele><time>2026-04-27T10:08:50.691Z</time></trkpt><trkpt lat="39.0753883" lon="16.1619217"><ele>351.0</ele><time>2026-04-27T10:08:52.696Z</time></trkpt><trkpt lat="39.075335" lon="16.1620883"><ele>351.0</ele><time>2026-04-27T10:08:54.691Z</time></trkpt><trkpt lat="39.0752917" lon="16.1622533"><ele>351.0</ele><time>2026-04-27T10:08:55.691Z</time></trkpt><trkpt lat="39.0752383" lon="16.1624017"><ele>351.0</ele><time>2026-04-27T10:08:56.761Z</time></trkpt><trkpt lat="39.0751733" lon="16.1625567"><ele>351.75</ele><time>2026-04-27T10:08:57.691Z</time></trkpt><trkpt lat="39.0751067" lon="16.1627083"><ele>352.5</ele><time>2026-04-27T10:08:58.697Z</time></trkpt><trkpt lat="39.07504" lon="16.162845"><ele>353.25</ele><time>2026-04-27T10:08:59.694Z</time></trkpt><trkpt lat="39.0749717" lon="16.1629683"><ele>354.0</ele><time>2026-04-27T10:09:00.698Z</time></trkpt><trkpt lat="39.074895" lon="16.1630833"><ele>354.0</ele><time>2026-04-27T10:09:01.687Z</time></trkpt><trkpt lat="39.0748183" lon="16.1631967"><ele>354.0</ele><time>2026-04-27T10:09:02.741Z</time></trkpt><trkpt lat="39.0747417" lon="16.163305"><ele>354.0</ele><time>2026-04-27T10:09:03.686Z</time></trkpt><trkpt lat="39.0746683" lon="16.163405"><ele>354.0</ele><time>2026-04-27T10:09:04.689Z</time></trkpt><trkpt lat="39.074595" lon="16.1635033"><ele>354.0</ele><time>2026-04-27T10:09:05.687Z</time></trkpt><trkpt lat="39.074505" lon="16.1635933"><ele>354.0</ele><time>2026-04-27T10:09:06.686Z</time></trkpt><trkpt lat="39.0744033" lon="16.1636783"><ele>354.0</ele><time>2026-04-27T10:09:07.693Z</time></trkpt><trkpt lat="39.074295" lon="16.1637667"><ele>354.0</ele><time>2026-04-27T10:09:08.692Z</time></trkpt><trkpt lat="39.074195" lon="16.16386"><ele>354.0</ele><time>2026-04-27T10:09:09.689Z</time></trkpt><trkpt lat="39.0741083" lon="16.16396"><ele>353.5</ele><time>2026-04-27T10:09:10.697Z</time></trkpt><trkpt lat="39.0740383" lon="16.1640683"><ele>353.0</ele><time>2026-04-27T10:09:11.695Z</time></trkpt><trkpt lat="39.0739917" lon="16.1641967"><ele>352.5</ele><time>2026-04-27T10:09:12.697Z</time></trkpt><trkpt lat="39.0739683" lon="16.164345"><ele>352.0</ele><time>2026-04-27T10:09:13.687Z</time></trkpt><trkpt lat="39.0739533" lon="16.164505"><ele>352.0</ele><time>2026-04-27T10:09:14.692Z</time></trkpt><trkpt lat="39.0739283" lon="16.164655"><ele>352.0</ele><time>2026-04-27T10:09:15.686Z</time></trkpt><trkpt lat="39.0738933" lon="16.1647917"><ele>352.0</ele><time>2026-04-27T10:09:16.686Z</time></trkpt><trkpt lat="39.0738433" lon="16.16492"><ele>352.0</ele><time>2026-04-27T10:09:17.69Z</time></trkpt><trkpt lat="39.0737733" lon="16.1650383"><ele>351.0</ele><time>2026-04-27T10:09:18.697Z</time></trkpt><trkpt lat="39.0736867" lon="16.1651517"><ele>350.0</ele><time>2026-04-27T10:09:19.691Z</time></trkpt><trkpt lat="39.073595" lon="16.1652617"><ele>349.0</ele><time>2026-04-27T10:09:20.696Z</time></trkpt><trkpt lat="39.0735033" lon="16.1653667"><ele>348.0</ele><time>2026-04-27T10:09:21.684Z</time></trkpt><trkpt lat="39.073405" lon="16.165465"><ele>348.0</ele><time>2026-04-27T10:09:22.693Z</time></trkpt><trkpt lat="39.0733017" lon="16.1655533"><ele>348.0</ele><time>2026-04-27T10:09:23.685Z</time></trkpt><trkpt lat="39.0731867" lon="16.1656283"><ele>348.0</ele><time>2026-04-27T10:09:24.694Z</time></trkpt><trkpt lat="39.073065" lon="16.1656983"><ele>348.0</ele><time>2026-04-27T10:09:25.687Z</time></trkpt><trkpt lat="39.0729417" lon="16.165765"><ele>341.59999999999997</ele><time>2026-04-27T10:09:26.761Z</time></trkpt><trkpt lat="39.0728167" lon="16.1658217"><ele>335.2</ele><time>2026-04-27T10:09:27.684Z</time></trkpt><trkpt lat="39.0727033" lon="16.165855"><ele>328.8</ele><time>2026-04-27T10:09:28.685Z</time></trkpt><trkpt lat="39.0726083" lon="16.165875"><ele>322.4</ele><time>2026-04-27T10:09:29.687Z</time></trkpt><trkpt lat="39.0725367" lon="16.165905"><ele>316.0</ele><time>2026-04-27T10:09:30.688Z</time></trkpt><trkpt lat="39.072445" lon="16.1659517"><ele>316.0</ele><time>2026-04-27T10:09:32.756Z</time></trkpt><trkpt lat="39.0726033" lon="16.1659917"><ele>316.0</ele><time>2026-04-27T10:09:34.691Z</time></trkpt><trkpt lat="39.07266" lon="16.1660617"><ele>316.0</ele><time>2026-04-27T10:09:36.692Z</time></trkpt><trkpt lat="39.0725333" lon="16.166095"><ele>316.0</ele><time>2026-04-27T10:09:38.689Z</time></trkpt><trkpt lat="39.072445" lon="16.16611"><ele>315.2</ele><time>2026-04-27T10:09:39.687Z</time></trkpt><trkpt lat="39.0723483" lon="16.166115"><ele>314.40000000000003</ele><time>2026-04-27T10:09:40.691Z</time></trkpt><trkpt lat="39.0722417" lon="16.166105"><ele>313.6</ele><time>2026-04-27T10:09:41.693Z</time></trkpt><trkpt lat="39.0721417" lon="16.16607"><ele>312.8</ele><time>2026-04-27T10:09:42.7Z</time></trkpt><trkpt lat="39.0720567" lon="16.1660083"><ele>312.0</ele><time>2026-04-27T10:09:43.69Z</time></trkpt><trkpt lat="39.0719917" lon="16.1659217"><ele>312.0</ele><time>2026-04-27T10:09:44.695Z</time></trkpt><trkpt lat="39.0719283" lon="16.1658483"><ele>312.0</ele><time>2026-04-27T10:09:45.695Z</time></trkpt><trkpt lat="39.0718783" lon="16.1657767"><ele>312.0</ele><time>2026-04-27T10:09:46.694Z</time></trkpt><trkpt lat="39.0718217" lon="16.1657067"><ele>312.0</ele><time>2026-04-27T10:09:47.695Z</time></trkpt><trkpt lat="39.0717783" lon="16.1656433"><ele>312.0</ele><time>2026-04-27T10:09:48.692Z</time></trkpt><trkpt lat="39.0717467" lon="16.1658017"><ele>312.0</ele><time>2026-04-27T10:10:07.694Z</time></trkpt><trkpt lat="39.0718283" lon="16.1659967"><ele>312.0</ele><time>2026-04-27T10:10:14.69Z</time></trkpt><trkpt lat="39.0718567" lon="16.1660767"><ele>312.0</ele><time>2026-04-27T10:10:26.736Z</time></trkpt><trkpt lat="39.07188" lon="16.1662033"><ele>312.0</ele><time>2026-04-27T10:10:35.689Z</time></trkpt><trkpt lat="39.0718567" lon="16.1661217"><ele>312.0</ele><time>2026-04-27T10:10:37.691Z</time></trkpt><trkpt lat="39.071835" lon="16.1658533"><ele>312.0</ele><time>2026-04-27T10:10:52.688Z</time></trkpt><trkpt lat="39.07192" lon="16.1658183"><ele>312.0</ele><time>2026-04-27T10:10:54.689Z</time></trkpt><trkpt lat="39.0720117" lon="16.1659133"><ele>312.0</ele><time>2026-04-27T10:10:56.743Z</time></trkpt><trkpt lat="39.0720717" lon="16.1660017"><ele>312.0</ele><time>2026-04-27T10:10:58.69Z</time></trkpt><trkpt lat="39.07215" lon="16.1660583"><ele>312.0</ele><time>2026-04-27T10:11:08.695Z</time></trkpt><trkpt lat="39.0722167" lon="16.1660883"><ele>312.0</ele><time>2026-04-27T10:11:09.695Z</time></trkpt><trkpt lat="39.0723067" lon="16.1661117"><ele>312.0</ele><time>2026-04-27T10:11:10.683Z</time></trkpt><trkpt lat="39.0723933" lon="16.1661183"><ele>312.0</ele><time>2026-04-27T10:11:11.693Z</time></trkpt><trkpt lat="39.07247" lon="16.1661083"><ele>312.0</ele><time>2026-04-27T10:11:12.693Z</time></trkpt><trkpt lat="39.0725833" lon="16.1660817"><ele>312.0</ele><time>2026-04-27T10:11:14.697Z</time></trkpt><trkpt lat="39.0726983" lon="16.1660633"><ele>312.0</ele><time>2026-04-27T10:11:16.686Z</time></trkpt><trkpt lat="39.0727433" lon="16.1659917"><ele>312.0</ele><time>2026-04-27T10:11:19.687Z</time></trkpt><trkpt lat="39.0726683" lon="16.1660317"><ele>312.0</ele><time>2026-04-27T10:11:23.692Z</time></trkpt><trkpt lat="39.0725817" lon="16.1660717"><ele>312.0</ele><time>2026-04-27T10:11:25.695Z</time></trkpt><trkpt lat="39.072495" lon="16.166105"><ele>312.0</ele><time>2026-04-27T10:11:27.69Z</time></trkpt><trkpt lat="39.0724" lon="16.166125"><ele>312.0</ele><time>2026-04-27T10:11:29.69Z</time></trkpt><trkpt lat="39.0723" lon="16.1661167"><ele>312.0</ele><time>2026-04-27T10:11:31.685Z</time></trkpt><trkpt lat="39.0722367" lon="16.1660883"><ele>312.0</ele><time>2026-04-27T10:11:32.733Z</time></trkpt><trkpt lat="39.07215" lon="16.16605"><ele>312.0</ele><time>2026-04-27T10:11:34.686Z</time></trkpt><trkpt lat="39.0720833" lon="16.1659967"><ele>312.0</ele><time>2026-04-27T10:11:36.691Z</time></trkpt><trkpt lat="39.0720217" lon="16.16594"><ele>312.0</ele><time>2026-04-27T10:11:38.689Z</time></trkpt><trkpt lat="39.0719767" lon="16.1658783"><ele>312.0</ele><time>2026-04-27T10:11:40.686Z</time></trkpt><trkpt lat="39.0719083" lon="16.1658017"><ele>312.0</ele><time>2026-04-27T10:11:42.695Z</time></trkpt><trkpt lat="39.0718217" lon="16.1657217"><ele>312.0</ele><time>2026-04-27T10:11:44.691Z</time></trkpt><trkpt lat="39.0717333" lon="16.1656633"><ele>312.0</ele><time>2026-04-27T10:11:46.689Z</time></trkpt><trkpt lat="39.0716433" lon="16.165595"><ele>312.0</ele><time>2026-04-27T10:11:48.692Z</time></trkpt><trkpt lat="39.0715733" lon="16.16559"><ele>312.0</ele><time>2026-04-27T10:11:52.692Z</time></trkpt><trkpt lat="39.0714567" lon="16.165535"><ele>307.8333333333333</ele><time>2026-04-27T10:11:56.742Z</time></trkpt><trkpt lat="39.07134" lon="16.1655233"><ele>303.6666666666667</ele><time>2026-04-27T10:11:58.692Z</time></trkpt><trkpt lat="39.0712617" lon="16.1655633"><ele>299.5</ele><time>2026-04-27T10:12:00.692Z</time></trkpt><trkpt lat="39.0711817" lon="16.165525"><ele>295.33333333333337</ele><time>2026-04-27T10:12:01.685Z</time></trkpt><trkpt lat="39.0711133" lon="16.1654867"><ele>291.1666666666667</ele><time>2026-04-27T10:12:02.74Z</time></trkpt><trkpt lat="39.07105" lon="16.1654533"><ele>287.0</ele><time>2026-04-27T10:12:03.687Z</time></trkpt><trkpt lat="39.0709783" lon="16.1654217"><ele>287.0</ele><time>2026-04-27T10:12:04.691Z</time></trkpt><trkpt lat="39.0709333" lon="16.1653383"><ele>287.0</ele><time>2026-04-27T10:12:05.691Z</time></trkpt><trkpt lat="39.070835" lon="16.1651017"><ele>287.0</ele><time>2026-04-27T10:12:08.694Z</time></trkpt><trkpt lat="39.0707533" lon="16.1651733"><ele>287.0</ele><time>2026-04-27T10:12:11.69Z</time></trkpt><trkpt lat="39.0707217" lon="16.165275"><ele>282.0</ele><time>2026-04-27T10:12:13.691Z</time></trkpt><trkpt lat="39.0707467" lon="16.165365"><ele>277.0</ele><time>2026-04-27T10:12:14.692Z</time></trkpt><trkpt lat="39.070735" lon="16.16545"><ele>272.0</ele><time>2026-04-27T10:12:18.69Z</time></trkpt><trkpt lat="39.070695" lon="16.16552"><ele>267.0</ele><time>2026-04-27T10:12:49.687Z</time></trkpt><trkpt lat="39.0706333" lon="16.1655833"><ele>262.0</ele><time>2026-04-27T10:12:53.704Z</time></trkpt><trkpt lat="39.07056" lon="16.16553"><ele>257.0</ele><time>2026-04-27T10:13:03.695Z</time></trkpt><trkpt lat="39.0705167" lon="16.16545"><ele>252.0</ele><time>2026-04-27T10:13:06.693Z</time></trkpt><trkpt lat="39.070505" lon="16.16536"><ele>252.0</ele><time>2026-04-27T10:13:08.691Z</time></trkpt><trkpt lat="39.07048" lon="16.1652567"><ele>252.0</ele><time>2026-04-27T10:13:10.691Z</time></trkpt><trkpt lat="39.0704583" lon="16.1651167"><ele>252.0</ele><time>2026-04-27T10:13:12.691Z</time></trkpt><trkpt lat="39.070435" lon="16.1650217"><ele>252.0</ele><time>2026-04-27T10:13:14.687Z</time></trkpt><trkpt lat="39.0703717" lon="16.1649917"><ele>252.0</ele><time>2026-04-27T10:13:17.687Z</time></trkpt><trkpt lat="39.0703367" lon="16.1650767"><ele>252.0</ele><time>2026-04-27T10:13:20.689Z</time></trkpt><trkpt lat="39.0703533" lon="16.1651633"><ele>252.0</ele><time>2026-04-27T10:13:22.688Z</time></trkpt><trkpt lat="39.07038" lon="16.1652567"><ele>252.0</ele><time>2026-04-27T10:13:24.694Z</time></trkpt><trkpt lat="39.070385" lon="16.1653633"><ele>252.0</ele><time>2026-04-27T10:13:26.734Z</time></trkpt><trkpt lat="39.0703717" lon="16.16552"><ele>252.0</ele><time>2026-04-27T10:13:28.693Z</time></trkpt><trkpt lat="39.0703583" lon="16.165615"><ele>252.0</ele><time>2026-04-27T10:13:29.689Z</time></trkpt><trkpt lat="39.0703583" lon="16.16571"><ele>252.0</ele><time>2026-04-27T10:13:30.688Z</time></trkpt><trkpt lat="39.0703567" lon="16.1658067"><ele>251.42857142857144</ele><time>2026-04-27T10:13:31.689Z</time></trkpt><trkpt lat="39.07037" lon="16.1658867"><ele>250.85714285714286</ele><time>2026-04-27T10:13:32.743Z</time></trkpt><trkpt lat="39.0703883" lon="16.1659683"><ele>250.28571428571428</ele><time>2026-04-27T10:13:33.692Z</time></trkpt><trkpt lat="39.07041" lon="16.1660467"><ele>249.71428571428572</ele><time>2026-04-27T10:13:34.687Z</time></trkpt><trkpt lat="39.0704267" lon="16.1661283"><ele>249.14285714285717</ele><time>2026-04-27T10:13:35.689Z</time></trkpt><trkpt lat="39.0704383" lon="16.16621"><ele>248.57142857142858</ele><time>2026-04-27T10:13:36.691Z</time></trkpt><trkpt lat="39.0704417" lon="16.1663683"><ele>248.0</ele><time>2026-04-27T10:13:38.695Z</time></trkpt><trkpt lat="39.0704283" lon="16.1664517"><ele>245.83333333333334</ele><time>2026-04-27T10:13:39.69Z</time></trkpt><trkpt lat="39.070415" lon="16.1665317"><ele>243.66666666666669</ele><time>2026-04-27T10:13:40.689Z</time></trkpt><trkpt lat="39.0703933" lon="16.1666617"><ele>241.5</ele><time>2026-04-27T10:13:42.689Z</time></trkpt><trkpt lat="39.070355" lon="16.1667367"><ele>239.33333333333331</ele><time>2026-04-27T10:13:45.695Z</time></trkpt><trkpt lat="39.07028" lon="16.166725"><ele>237.16666666666666</ele><time>2026-04-27T10:13:47.685Z</time></trkpt><trkpt lat="39.07022" lon="16.1666667"><ele>235.0</ele><time>2026-04-27T10:13:49.686Z</time></trkpt><trkpt lat="39.0701817" lon="16.166555"><ele>237.16666666666666</ele><time>2026-04-27T10:13:51.692Z</time></trkpt><trkpt lat="39.0701283" lon="16.166425"><ele>239.33333333333331</ele><time>2026-04-27T10:13:53.693Z</time></trkpt><trkpt lat="39.0700883" lon="16.1663583"><ele>241.5</ele><time>2026-04-27T10:13:54.691Z</time></trkpt><trkpt lat="39.0700433" lon="16.1662867"><ele>243.66666666666669</ele><time>2026-04-27T10:13:55.686Z</time></trkpt><trkpt lat="39.0700017" lon="16.1662217"><ele>245.83333333333334</ele><time>2026-04-27T10:13:56.741Z</time></trkpt><trkpt lat="39.0699267" lon="16.1661283"><ele>248.0</ele><time>2026-04-27T10:13:58.685Z</time></trkpt><trkpt lat="39.0698483" lon="16.1660983"><ele>238.8</ele><time>2026-04-27T10:14:01.693Z</time></trkpt><trkpt lat="39.0698" lon="16.1660317"><ele>229.60000000000002</ele><time>2026-04-27T10:14:05.691Z</time></trkpt><trkpt lat="39.0696967" lon="16.1660033"><ele>220.39999999999998</ele><time>2026-04-27T10:14:12.688Z</time></trkpt><trkpt lat="39.0696283" lon="16.1660467"><ele>211.2</ele><time>2026-04-27T10:14:14.692Z</time></trkpt><trkpt lat="39.0695183" lon="16.1660917"><ele>202.0</ele><time>2026-04-27T10:14:16.696Z</time></trkpt><trkpt lat="39.0694267" lon="16.1661483"><ele>202.0</ele><time>2026-04-27T10:14:18.69Z</time></trkpt><trkpt lat="39.0693933" lon="16.1662333"><ele>202.0</ele><time>2026-04-27T10:14:20.695Z</time></trkpt><trkpt lat="39.069365" lon="16.1663117"><ele>202.0</ele><time>2026-04-27T10:14:22.685Z</time></trkpt><trkpt lat="39.0693083" lon="16.1664483"><ele>202.0</ele><time>2026-04-27T10:14:24.684Z</time></trkpt><trkpt lat="39.06928" lon="16.1665983"><ele>202.0</ele><time>2026-04-27T10:14:26.736Z</time></trkpt><trkpt lat="39.06928" lon="16.1667033"><ele>200.6</ele><time>2026-04-27T10:14:27.691Z</time></trkpt><trkpt lat="39.06928" lon="16.1668233"><ele>199.2</ele><time>2026-04-27T10:14:28.69Z</time></trkpt><trkpt lat="39.0692783" lon="16.1669433"><ele>197.8</ele><time>2026-04-27T10:14:29.689Z</time></trkpt><trkpt lat="39.0692733" lon="16.1670667"><ele>196.4</ele><time>2026-04-27T10:14:30.692Z</time></trkpt><trkpt lat="39.069265" lon="16.1671883"><ele>195.0</ele><time>2026-04-27T10:14:31.69Z</time></trkpt><trkpt lat="39.069255" lon="16.1673033"><ele>193.42857142857142</ele><time>2026-04-27T10:14:32.736Z</time></trkpt><trkpt lat="39.0692467" lon="16.1674033"><ele>191.85714285714283</ele><time>2026-04-27T10:14:33.688Z</time></trkpt><trkpt lat="39.069235" lon="16.1674917"><ele>190.28571428571428</ele><time>2026-04-27T10:14:34.684Z</time></trkpt><trkpt lat="39.0692083" lon="16.1675667"><ele>188.71428571428572</ele><time>2026-04-27T10:14:35.688Z</time></trkpt><trkpt lat="39.0691683" lon="16.1676367"><ele>187.14285714285714</ele><time>2026-04-27T10:14:36.69Z</time></trkpt><trkpt lat="39.069115" lon="16.1676933"><ele>185.57142857142858</ele><time>2026-04-27T10:14:37.691Z</time></trkpt><trkpt lat="39.0690533" lon="16.1677433"><ele>184.0</ele><time>2026-04-27T10:14:38.703Z</time></trkpt><trkpt lat="39.068995" lon="16.1677917"><ele>177.39999999999998</ele><time>2026-04-27T10:14:39.685Z</time></trkpt><trkpt lat="39.0688933" lon="16.1678367"><ele>170.79999999999998</ele><time>2026-04-27T10:14:41.692Z</time></trkpt><trkpt lat="39.0688233" lon="16.1677933"><ele>164.2</ele><time>2026-04-27T10:14:44.701Z</time></trkpt><trkpt lat="39.0688967" lon="16.1677233"><ele>157.6</ele><time>2026-04-27T10:14:47.692Z</time></trkpt><trkpt lat="39.0689583" lon="16.1676117"><ele>151.0</ele><time>2026-04-27T10:14:49.692Z</time></trkpt><trkpt lat="39.06898" lon="16.16744"><ele>151.0</ele><time>2026-04-27T10:14:51.688Z</time></trkpt><trkpt lat="39.068965" lon="16.1673333"><ele>151.0</ele><time>2026-04-27T10:14:52.692Z</time></trkpt><trkpt lat="39.0689483" lon="16.16725"><ele>151.0</ele><time>2026-04-27T10:14:53.692Z</time></trkpt><trkpt lat="39.0689" lon="16.1671617"><ele>151.0</ele><time>2026-04-27T10:14:55.698Z</time></trkpt><trkpt lat="39.0688817" lon="16.167255"><ele>151.0</ele><time>2026-04-27T10:14:57.69Z</time></trkpt><trkpt lat="39.0688317" lon="16.1674033"><ele>151.0</ele><time>2026-04-27T10:14:59.688Z</time></trkpt><trkpt lat="39.06878" lon="16.1674967"><ele>151.0</ele><time>2026-04-27T10:15:00.691Z</time></trkpt><trkpt lat="39.0687033" lon="16.167595"><ele>151.0</ele><time>2026-04-27T10:15:01.688Z</time></trkpt><trkpt lat="39.0686133" lon="16.1676783"><ele>151.0</ele><time>2026-04-27T10:15:02.739Z</time></trkpt><trkpt lat="39.068535" lon="16.1677517"><ele>151.0</ele><time>2026-04-27T10:15:03.689Z</time></trkpt><trkpt lat="39.06848" lon="16.1678217"><ele>151.0</ele><time>2026-04-27T10:15:04.69Z</time></trkpt><trkpt lat="39.0684167" lon="16.1679317"><ele>151.0</ele><time>2026-04-27T10:15:06.691Z</time></trkpt><trkpt lat="39.0684583" lon="16.1678317"><ele>151.0</ele><time>2026-04-27T10:15:18.692Z</time></trkpt><trkpt lat="39.0685367" lon="16.1677017"><ele>151.0</ele><time>2026-04-27T10:15:20.703Z</time></trkpt><trkpt lat="39.0685717" lon="16.1676133"><ele>151.0</ele><time>2026-04-27T10:15:21.686Z</time></trkpt><trkpt lat="39.0686033" lon="16.16751"><ele>151.0</ele><time>2026-04-27T10:15:22.696Z</time></trkpt><trkpt lat="39.0686183" lon="16.167405"><ele>150.0</ele><time>2026-04-27T10:15:23.69Z</time></trkpt><trkpt lat="39.068625" lon="16.1673133"><ele>149.0</ele><time>2026-04-27T10:15:24.685Z</time></trkpt><trkpt lat="39.068625" lon="16.167225"><ele>148.0</ele><time>2026-04-27T10:15:25.683Z</time></trkpt><trkpt lat="39.06862" lon="16.1671367"><ele>147.0</ele><time>2026-04-27T10:15:26.747Z</time></trkpt><trkpt lat="39.0686067" lon="16.1670517"><ele>146.0</ele><time>2026-04-27T10:15:27.686Z</time></trkpt><trkpt lat="39.0685533" lon="16.166925"><ele>145.0</ele><time>2026-04-27T10:15:29.691Z</time></trkpt><trkpt lat="39.0685" lon="16.166865"><ele>145.0</ele><time>2026-04-27T10:15:31.686Z</time></trkpt><trkpt lat="39.0684883" lon="16.1669717"><ele>145.0</ele><time>2026-04-27T10:15:34.689Z</time></trkpt><trkpt lat="39.0684417" lon="16.1671067"><ele>145.0</ele><time>2026-04-27T10:15:36.691Z</time></trkpt><trkpt lat="39.0684117" lon="16.16718"><ele>145.0</ele><time>2026-04-27T10:15:37.688Z</time></trkpt><trkpt lat="39.068345" lon="16.1673033"><ele>145.0</ele><time>2026-04-27T10:15:39.692Z</time></trkpt><trkpt lat="39.068285" lon="16.1673833"><ele>145.0</ele><time>2026-04-27T10:15:41.686Z</time></trkpt><trkpt lat="39.0682533" lon="16.1674733"><ele>145.0</ele><time>2026-04-27T10:15:44.705Z</time></trkpt><trkpt lat="39.0682483" lon="16.1673783"><ele>145.0</ele><time>2026-04-27T10:15:45.689Z</time></trkpt><trkpt lat="39.0682717" lon="16.16722"><ele>145.0</ele><time>2026-04-27T10:15:47.694Z</time></trkpt><trkpt lat="39.0682817" lon="16.1671217"><ele>145.0</ele><time>2026-04-27T10:15:48.691Z</time></trkpt><trkpt lat="39.068295" lon="16.1670283"><ele>145.0</ele><time>2026-04-27T10:15:49.688Z</time></trkpt><trkpt lat="39.0683067" lon="16.166935"><ele>145.0</ele><time>2026-04-27T10:15:50.705Z</time></trkpt><trkpt lat="39.0683083" lon="16.16678"><ele>145.0</ele><time>2026-04-27T10:15:52.69Z</time></trkpt><trkpt lat="39.0682683" lon="16.1666383"><ele>145.0</ele><time>2026-04-27T10:15:54.689Z</time></trkpt><trkpt lat="39.06821" lon="16.1665417"><ele>145.0</ele><time>2026-04-27T10:15:56.725Z</time></trkpt><trkpt lat="39.0681517" lon="16.16648"><ele>145.0</ele><time>2026-04-27T10:15:59.692Z</time></trkpt><trkpt lat="39.06807" lon="16.1664483"><ele>139.83333333333334</ele><time>2026-04-27T10:16:15.7Z</time></trkpt><trkpt lat="39.068025" lon="16.1663467"><ele>134.66666666666669</ele><time>2026-04-27T10:16:17.685Z</time></trkpt><trkpt lat="39.0679833" lon="16.1662667"><ele>129.5</ele><time>2026-04-27T10:16:18.69Z</time></trkpt><trkpt lat="39.0679383" lon="16.16618"><ele>124.33333333333334</ele><time>2026-04-27T10:16:19.692Z</time></trkpt><trkpt lat="39.0679067" lon="16.1661033"><ele>119.16666666666667</ele><time>2026-04-27T10:16:20.703Z</time></trkpt><trkpt lat="39.0678767" lon="16.1660217"><ele>114.0</ele><time>2026-04-27T10:16:21.689Z</time></trkpt><trkpt lat="39.06785" lon="16.1659367"><ele>114.0</ele><time>2026-04-27T10:16:22.69Z</time></trkpt><trkpt lat="39.0678283" lon="16.16586"><ele>114.0</ele><time>2026-04-27T10:16:23.693Z</time></trkpt><trkpt lat="39.0677567" lon="16.1657217"><ele>114.0</ele><time>2026-04-27T10:16:25.694Z</time></trkpt><trkpt lat="39.0677017" lon="16.165605"><ele>114.0</ele><time>2026-04-27T10:16:27.688Z</time></trkpt><trkpt lat="39.0676533" lon="16.16549"><ele>114.0</ele><time>2026-04-27T10:16:29.688Z</time></trkpt><trkpt lat="39.067575" lon="16.1654067"><ele>116.0</ele><time>2026-04-27T10:16:31.685Z</time></trkpt><trkpt lat="39.0674933" lon="16.1653217"><ele>118.0</ele><time>2026-04-27T10:16:33.689Z</time></trkpt><trkpt lat="39.0674333" lon="16.16522"><ele>120.0</ele><time>2026-04-27T10:16:35.691Z</time></trkpt><trkpt lat="39.0674517" lon="16.1651167"><ele>122.0</ele><time>2026-04-27T10:16:47.694Z</time></trkpt><trkpt lat="39.06754" lon="16.1650183"><ele>124.0</ele><time>2026-04-27T10:16:49.697Z</time></trkpt><trkpt lat="39.067585" lon="16.1649533"><ele>121.75</ele><time>2026-04-27T10:16:50.698Z</time></trkpt><trkpt lat="39.0676633" lon="16.1648333"><ele>119.5</ele><time>2026-04-27T10:16:52.688Z</time></trkpt><trkpt lat="39.067745" lon="16.1647183"><ele>117.25</ele><time>2026-04-27T10:16:54.689Z</time></trkpt><trkpt lat="39.0678233" lon="16.1645983"><ele>115.0</ele><time>2026-04-27T10:16:56.757Z</time></trkpt><trkpt lat="39.0678933" lon="16.16449"><ele>115.00000000000001</ele><time>2026-04-27T10:16:58.688Z</time></trkpt><trkpt lat="39.067965" lon="16.1644033"><ele>115.0</ele><time>2026-04-27T10:17:00.686Z</time></trkpt><trkpt lat="39.0680283" lon="16.16433"><ele>115.0</ele><time>2026-04-27T10:17:02.74Z</time></trkpt><trkpt lat="39.0679717" lon="16.1643783"><ele>115.0</ele><time>2026-04-27T10:17:25.691Z</time></trkpt><trkpt lat="39.0679017" lon="16.1644367"><ele>115.00000000000001</ele><time>2026-04-27T10:17:28.689Z</time></trkpt><trkpt lat="39.0678467" lon="16.1644933"><ele>115.0</ele><time>2026-04-27T10:17:30.684Z</time></trkpt><trkpt lat="39.067805" lon="16.1645567"><ele>115.00000000000001</ele><time>2026-04-27T10:17:32.736Z</time></trkpt><trkpt lat="39.0677417" lon="16.1646567"><ele>115.0</ele><time>2026-04-27T10:17:35.692Z</time></trkpt><trkpt lat="39.0676917" lon="16.16474"><ele>115.0</ele><time>2026-04-27T10:17:37.683Z</time></trkpt><trkpt lat="39.0676483" lon="16.1648117"><ele>115.0</ele><time>2026-04-27T10:17:39.681Z</time></trkpt><trkpt lat="39.0676" lon="16.16488"><ele>115.00000000000001</ele><time>2026-04-27T10:17:41.692Z</time></trkpt><trkpt lat="39.06754" lon="16.1649417"><ele>115.0</ele><time>2026-04-27T10:17:43.689Z</time></trkpt><trkpt lat="39.06749" lon="16.165005"><ele>115.0</ele><time>2026-04-27T10:17:45.686Z</time></trkpt><trkpt lat="39.06745" lon="16.1650683"><ele>115.0</ele><time>2026-04-27T10:17:47.681Z</time></trkpt><trkpt lat="39.0673817" lon="16.1650717"><ele>115.0</ele><time>2026-04-27T10:17:55.69Z</time></trkpt><trkpt lat="39.067415" lon="16.16495"><ele>115.0</ele><time>2026-04-27T10:17:57.687Z</time></trkpt><trkpt lat="39.0674617" lon="16.16482"><ele>115.0</ele><time>2026-04-27T10:17:59.684Z</time></trkpt><trkpt lat="39.0674983" lon="16.1646683"><ele>115.0</ele><time>2026-04-27T10:18:01.688Z</time></trkpt><trkpt lat="39.067505" lon="16.164585"><ele>115.0</ele><time>2026-04-27T10:18:02.731Z</time></trkpt><trkpt lat="39.0674933" lon="16.1644333"><ele>115.0</ele><time>2026-04-27T10:18:04.688Z</time></trkpt><trkpt lat="39.06746" lon="16.1642883"><ele>115.0</ele><time>2026-04-27T10:18:06.691Z</time></trkpt><trkpt lat="39.067415" lon="16.1641833"><ele>115.0</ele><time>2026-04-27T10:18:08.699Z</time></trkpt><trkpt lat="39.0673317" lon="16.1641483"><ele>108.8</ele><time>2026-04-27T10:18:11.684Z</time></trkpt><trkpt lat="39.0672417" lon="16.1642067"><ele>102.6</ele><time>2026-04-27T10:18:13.688Z</time></trkpt><trkpt lat="39.067145" lon="16.1643317"><ele>96.4</ele><time>2026-04-27T10:18:15.686Z</time></trkpt><trkpt lat="39.0671" lon="16.1644183"><ele>90.2</ele><time>2026-04-27T10:18:16.688Z</time></trkpt><trkpt lat="39.0670583" lon="16.164515"><ele>84.0</ele><time>2026-04-27T10:18:17.688Z</time></trkpt><trkpt lat="39.067015" lon="16.1646067"><ele>84.0</ele><time>2026-04-27T10:18:18.688Z</time></trkpt><trkpt lat="39.0669733" lon="16.16469"><ele>84.0</ele><time>2026-04-27T10:18:19.685Z</time></trkpt><trkpt lat="39.0669033" lon="16.1648067"><ele>84.0</ele><time>2026-04-27T10:18:21.684Z</time></trkpt><trkpt lat="39.066825" lon="16.1648967"><ele>84.0</ele><time>2026-04-27T10:18:23.682Z</time></trkpt><trkpt lat="39.0667667" lon="16.16496"><ele>84.0</ele><time>2026-04-27T10:18:25.686Z</time></trkpt><trkpt lat="39.0667083" lon="16.1648217"><ele>84.0</ele><time>2026-04-27T10:18:29.686Z</time></trkpt><trkpt lat="39.06667" lon="16.1646933"><ele>84.0</ele><time>2026-04-27T10:18:31.692Z</time></trkpt><trkpt lat="39.0666333" lon="16.1646117"><ele>84.0</ele><time>2026-04-27T10:18:33.69Z</time></trkpt><trkpt lat="39.0665617" lon="16.164525"><ele>84.0</ele><time>2026-04-27T10:18:36.686Z</time></trkpt><trkpt lat="39.0664933" lon="16.1644333"><ele>84.0</ele><time>2026-04-27T10:18:38.702Z</time></trkpt><trkpt lat="39.0664233" lon="16.1643017"><ele>81.83333333333333</ele><time>2026-04-27T10:18:40.69Z</time></trkpt><trkpt lat="39.0663883" lon="16.1642317"><ele>79.66666666666667</ele><time>2026-04-27T10:18:41.688Z</time></trkpt><trkpt lat="39.0663267" lon="16.164135"><ele>77.5</ele><time>2026-04-27T10:18:43.687Z</time></trkpt><trkpt lat="39.0662617" lon="16.1640767"><ele>75.33333333333334</ele><time>2026-04-27T10:18:45.689Z</time></trkpt><trkpt lat="39.0661983" lon="16.1640217"><ele>73.16666666666667</ele><time>2026-04-27T10:18:47.692Z</time></trkpt><trkpt lat="39.0661317" lon="16.163965"><ele>71.0</ele><time>2026-04-27T10:18:49.686Z</time></trkpt><trkpt lat="39.0660567" lon="16.1639"><ele>71.0</ele><time>2026-04-27T10:18:51.689Z</time></trkpt><trkpt lat="39.0659867" lon="16.16383"><ele>71.0</ele><time>2026-04-27T10:18:53.68Z</time></trkpt><trkpt lat="39.0659083" lon="16.1637517"><ele>71.0</ele><time>2026-04-27T10:18:55.684Z</time></trkpt><trkpt lat="39.0658367" lon="16.16367"><ele>71.0</ele><time>2026-04-27T10:18:57.686Z</time></trkpt><trkpt lat="39.0657633" lon="16.1635967"><ele>71.0</ele><time>2026-04-27T10:18:59.686Z</time></trkpt><trkpt lat="39.0656933" lon="16.1635217"><ele>70.33333333333334</ele><time>2026-04-27T10:19:01.686Z</time></trkpt><trkpt lat="39.0656283" lon="16.1634317"><ele>69.66666666666667</ele><time>2026-04-27T10:19:03.687Z</time></trkpt><trkpt lat="39.0655867" lon="16.1633233"><ele>69.0</ele><time>2026-04-27T10:19:05.688Z</time></trkpt><trkpt lat="39.0655683" lon="16.1631917"><ele>68.33333333333333</ele><time>2026-04-27T10:19:07.685Z</time></trkpt><trkpt lat="39.065555" lon="16.163085"><ele>67.66666666666666</ele><time>2026-04-27T10:19:09.69Z</time></trkpt><trkpt lat="39.065495" lon="16.1630517"><ele>67.0</ele><time>2026-04-27T10:19:23.687Z</time></trkpt><trkpt lat="39.0655467" lon="16.1629883"><ele>66.8</ele><time>2026-04-27T10:19:36.689Z</time></trkpt><trkpt lat="39.0655333" lon="16.1628767"><ele>66.6</ele><time>2026-04-27T10:19:38.705Z</time></trkpt><trkpt lat="39.06551" lon="16.162765"><ele>66.39999999999999</ele><time>2026-04-27T10:19:40.688Z</time></trkpt><trkpt lat="39.06547" lon="16.1626567"><ele>66.2</ele><time>2026-04-27T10:19:42.683Z</time></trkpt><trkpt lat="39.0654333" lon="16.1625367"><ele>66.0</ele><time>2026-04-27T10:19:44.706Z</time></trkpt><trkpt lat="39.065375" lon="16.1624017"><ele>67.14285714285714</ele><time>2026-04-27T10:19:46.685Z</time></trkpt><trkpt lat="39.0653317" lon="16.1623333"><ele>68.28571428571429</ele><time>2026-04-27T10:19:47.691Z</time></trkpt><trkpt lat="39.065285" lon="16.1622683"><ele>69.42857142857143</ele><time>2026-04-27T10:19:48.689Z</time></trkpt><trkpt lat="39.065235" lon="16.1622133"><ele>70.57142857142857</ele><time>2026-04-27T10:19:49.689Z</time></trkpt><trkpt lat="39.0651833" lon="16.1621533"><ele>71.71428571428571</ele><time>2026-04-27T10:19:50.703Z</time></trkpt><trkpt lat="39.0651283" lon="16.1620883"><ele>72.85714285714286</ele><time>2026-04-27T10:19:51.684Z</time></trkpt><trkpt lat="39.0650667" lon="16.16203"><ele>74.0</ele><time>2026-04-27T10:19:52.686Z</time></trkpt><trkpt lat="39.065" lon="16.1619733"><ele>72.0</ele><time>2026-04-27T10:19:53.693Z</time></trkpt><trkpt lat="39.064925" lon="16.1619117"><ele>70.0</ele><time>2026-04-27T10:19:54.688Z</time></trkpt><trkpt lat="39.0648433" lon="16.16184"><ele>68.0</ele><time>2026-04-27T10:19:55.691Z</time></trkpt><trkpt lat="39.0647617" lon="16.1617633"><ele>66.0</ele><time>2026-04-27T10:19:56.755Z</time></trkpt><trkpt lat="39.064685" lon="16.1616867"><ele>64.0</ele><time>2026-04-27T10:19:57.686Z</time></trkpt><trkpt lat="39.064625" lon="16.1616167"><ele>63.99999999999999</ele><time>2026-04-27T10:19:58.689Z</time></trkpt><trkpt lat="39.06458" lon="16.1615517"><ele>64.0</ele><time>2026-04-27T10:19:59.693Z</time></trkpt><trkpt lat="39.0645383" lon="16.16149"><ele>64.0</ele><time>2026-04-27T10:20:00.691Z</time></trkpt><trkpt lat="39.0644817" lon="16.161345"><ele>64.0</ele><time>2026-04-27T10:20:02.739Z</time></trkpt><trkpt lat="39.064465" lon="16.16125"><ele>63.99999999999999</ele><time>2026-04-27T10:20:03.685Z</time></trkpt><trkpt lat="39.06444" lon="16.1611367"><ele>64.0</ele><time>2026-04-27T10:20:04.683Z</time></trkpt><trkpt lat="39.0644017" lon="16.1609967"><ele>64.8</ele><time>2026-04-27T10:20:05.687Z</time></trkpt><trkpt lat="39.0643533" lon="16.1608467"><ele>65.60000000000001</ele><time>2026-04-27T10:20:06.69Z</time></trkpt><trkpt lat="39.0643033" lon="16.1607033"><ele>66.4</ele><time>2026-04-27T10:20:07.688Z</time></trkpt><trkpt lat="39.0642683" lon="16.1606017"><ele>67.2</ele><time>2026-04-27T10:20:08.704Z</time></trkpt><trkpt lat="39.0642217" lon="16.1605367"><ele>68.0</ele><time>2026-04-27T10:20:09.69Z</time></trkpt><trkpt lat="39.0641733" lon="16.1604783"><ele>67.33333333333334</ele><time>2026-04-27T10:20:10.687Z</time></trkpt><trkpt lat="39.0641233" lon="16.1604233"><ele>66.66666666666667</ele><time>2026-04-27T10:20:11.689Z</time></trkpt><trkpt lat="39.06407" lon="16.1603583"><ele>66.0</ele><time>2026-04-27T10:20:12.694Z</time></trkpt><trkpt lat="39.064005" lon="16.1602917"><ele>65.33333333333333</ele><time>2026-04-27T10:20:13.692Z</time></trkpt><trkpt lat="39.063935" lon="16.1602217"><ele>64.66666666666666</ele><time>2026-04-27T10:20:14.707Z</time></trkpt><trkpt lat="39.0638617" lon="16.1601417"><ele>64.0</ele><time>2026-04-27T10:20:15.692Z</time></trkpt><trkpt lat="39.06378" lon="16.160045"><ele>64.0</ele><time>2026-04-27T10:20:16.69Z</time></trkpt><trkpt lat="39.0636867" lon="16.159935"><ele>64.0</ele><time>2026-04-27T10:20:17.688Z</time></trkpt><trkpt lat="39.063575" lon="16.159805"><ele>64.0</ele><time>2026-04-27T10:20:18.691Z</time></trkpt><trkpt lat="39.06346" lon="16.15967"><ele>64.0</ele><time>2026-04-27T10:20:19.689Z</time></trkpt><trkpt lat="39.063355" lon="16.15955"><ele>62.5</ele><time>2026-04-27T10:20:20.703Z</time></trkpt><trkpt lat="39.0632683" lon="16.1594433"><ele>61.0</ele><time>2026-04-27T10:20:21.696Z</time></trkpt><trkpt lat="39.0631933" lon="16.1593233"><ele>59.5</ele><time>2026-04-27T10:20:22.689Z</time></trkpt><trkpt lat="39.0631317" lon="16.159205"><ele>58.0</ele><time>2026-04-27T10:20:23.69Z</time></trkpt><trkpt lat="39.0630717" lon="16.159095"><ele>59.0</ele><time>2026-04-27T10:20:24.691Z</time></trkpt><trkpt lat="39.0630083" lon="16.158985"><ele>60.0</ele><time>2026-04-27T10:20:25.688Z</time></trkpt><trkpt lat="39.0629433" lon="16.1588733"><ele>61.0</ele><time>2026-04-27T10:20:26.759Z</time></trkpt><trkpt lat="39.0628733" lon="16.15876"><ele>62.0</ele><time>2026-04-27T10:20:27.687Z</time></trkpt><trkpt lat="39.0628017" lon="16.158655"><ele>63.0</ele><time>2026-04-27T10:20:28.687Z</time></trkpt><trkpt lat="39.062725" lon="16.15856"><ele>63.0</ele><time>2026-04-27T10:20:29.688Z</time></trkpt><trkpt lat="39.0626433" lon="16.15846"><ele>63.0</ele><time>2026-04-27T10:20:30.689Z</time></trkpt><trkpt lat="39.0625667" lon="16.15834"><ele>63.0</ele><time>2026-04-27T10:20:31.692Z</time></trkpt><trkpt lat="39.062485" lon="16.158205"><ele>63.0</ele><time>2026-04-27T10:20:32.741Z</time></trkpt><trkpt lat="39.0624067" lon="16.1580717"><ele>61.25</ele><time>2026-04-27T10:20:33.69Z</time></trkpt><trkpt lat="39.062325" lon="16.157935"><ele>59.5</ele><time>2026-04-27T10:20:34.686Z</time></trkpt><trkpt lat="39.0622467" lon="16.157805"><ele>57.75</ele><time>2026-04-27T10:20:35.692Z</time></trkpt><trkpt lat="39.0621733" lon="16.1576783"><ele>56.0</ele><time>2026-04-27T10:20:36.683Z</time></trkpt><trkpt lat="39.0621067" lon="16.1575617"><ele>56.0</ele><time>2026-04-27T10:20:37.685Z</time></trkpt><trkpt lat="39.0620483" lon="16.157445"><ele>56.0</ele><time>2026-04-27T10:20:38.702Z</time></trkpt><trkpt lat="39.0619867" lon="16.1573167"><ele>56.0</ele><time>2026-04-27T10:20:39.687Z</time></trkpt><trkpt lat="39.0619217" lon="16.15719"><ele>56.0</ele><time>2026-04-27T10:20:40.688Z</time></trkpt><trkpt lat="39.0618517" lon="16.1570667"><ele>55.75</ele><time>2026-04-27T10:20:41.686Z</time></trkpt><trkpt lat="39.0617817" lon="16.1569417"><ele>55.5</ele><time>2026-04-27T10:20:42.689Z</time></trkpt><trkpt lat="39.06171" lon="16.1568067"><ele>55.25</ele><time>2026-04-27T10:20:43.695Z</time></trkpt><trkpt lat="39.0616433" lon="16.156655"><ele>55.0</ele><time>2026-04-27T10:20:44.711Z</time></trkpt><trkpt lat="39.0615817" lon="16.1565017"><ele>55.5</ele><time>2026-04-27T10:20:45.687Z</time></trkpt><trkpt lat="39.0615167" lon="16.1563567"><ele>56.0</ele><time>2026-04-27T10:20:46.686Z</time></trkpt><trkpt lat="39.0614483" lon="16.156215"><ele>56.5</ele><time>2026-04-27T10:20:47.685Z</time></trkpt><trkpt lat="39.0613817" lon="16.15607"><ele>57.0</ele><time>2026-04-27T10:20:48.689Z</time></trkpt><trkpt lat="39.061325" lon="16.1559283"><ele>57.0</ele><time>2026-04-27T10:20:49.69Z</time></trkpt><trkpt lat="39.0612917" lon="16.1558017"><ele>57.0</ele><time>2026-04-27T10:20:50.712Z</time></trkpt><trkpt lat="39.061265" lon="16.155675"><ele>57.0</ele><time>2026-04-27T10:20:51.691Z</time></trkpt><trkpt lat="39.0612367" lon="16.1555433"><ele>57.0</ele><time>2026-04-27T10:20:52.69Z</time></trkpt><trkpt lat="39.0611967" lon="16.1554067"><ele>57.0</ele><time>2026-04-27T10:20:53.689Z</time></trkpt><trkpt lat="39.061145" lon="16.1552633"><ele>57.25</ele><time>2026-04-27T10:20:54.688Z</time></trkpt><trkpt lat="39.0610817" lon="16.1551033"><ele>57.5</ele><time>2026-04-27T10:20:55.688Z</time></trkpt><trkpt lat="39.061025" lon="16.1549433"><ele>57.75</ele><time>2026-04-27T10:20:56.756Z</time></trkpt><trkpt lat="39.0609783" lon="16.154805"><ele>58.0</ele><time>2026-04-27T10:20:57.686Z</time></trkpt><trkpt lat="39.0609533" lon="16.15469"><ele>58.0</ele><time>2026-04-27T10:20:58.687Z</time></trkpt><trkpt lat="39.060935" lon="16.1545767"><ele>58.0</ele><time>2026-04-27T10:20:59.691Z</time></trkpt><trkpt lat="39.06091" lon="16.15446"><ele>58.0</ele><time>2026-04-27T10:21:00.693Z</time></trkpt><trkpt lat="39.0608767" lon="16.1543483"><ele>58.0</ele><time>2026-04-27T10:21:01.684Z</time></trkpt><trkpt lat="39.0608317" lon="16.1542317"><ele>58.0</ele><time>2026-04-27T10:21:02.736Z</time></trkpt><trkpt lat="39.0607667" lon="16.1541083"><ele>57.166666666666664</ele><time>2026-04-27T10:21:03.685Z</time></trkpt><trkpt lat="39.0607067" lon="16.154"><ele>56.33333333333333</ele><time>2026-04-27T10:21:04.69Z</time></trkpt><trkpt lat="39.06064" lon="16.1539133"><ele>55.5</ele><time>2026-04-27T10:21:05.689Z</time></trkpt><trkpt lat="39.06058" lon="16.1538733"><ele>54.66666666666667</ele><time>2026-04-27T10:21:06.692Z</time></trkpt><trkpt lat="39.0605233" lon="16.15383"><ele>53.833333333333336</ele><time>2026-04-27T10:21:07.685Z</time></trkpt><trkpt lat="39.0604683" lon="16.15377"><ele>53.0</ele><time>2026-04-27T10:21:08.72Z</time></trkpt><trkpt lat="39.0604117" lon="16.1536867"><ele>53.0</ele><time>2026-04-27T10:21:09.688Z</time></trkpt><trkpt lat="39.06035" lon="16.1535683"><ele>53.0</ele><time>2026-04-27T10:21:10.691Z</time></trkpt><trkpt lat="39.0602767" lon="16.1533683"><ele>53.0</ele><time>2026-04-27T10:21:11.689Z</time></trkpt><trkpt lat="39.0601917" lon="16.1531683"><ele>53.66666666666667</ele><time>2026-04-27T10:21:12.683Z</time></trkpt><trkpt lat="39.0601067" lon="16.1529633"><ele>54.33333333333333</ele><time>2026-04-27T10:21:13.685Z</time></trkpt><trkpt lat="39.0600167" lon="16.1527517"><ele>55.0</ele><time>2026-04-27T10:21:14.715Z</time></trkpt><trkpt lat="39.0599317" lon="16.1525383"><ele>54.33333333333333</ele><time>2026-04-27T10:21:15.692Z</time></trkpt><trkpt lat="39.0598433" lon="16.1523417"><ele>53.66666666666667</ele><time>2026-04-27T10:21:16.69Z</time></trkpt><trkpt lat="39.0597617" lon="16.1521767"><ele>53.0</ele><time>2026-04-27T10:21:17.687Z</time></trkpt><trkpt lat="39.0596983" lon="16.1520417"><ele>53.0</ele><time>2026-04-27T10:21:18.687Z</time></trkpt><trkpt lat="39.0596433" lon="16.1519233"><ele>53.0</ele><time>2026-04-27T10:21:19.688Z</time></trkpt><trkpt lat="39.0595867" lon="16.1517967"><ele>53.0</ele><time>2026-04-27T10:21:20.717Z</time></trkpt><trkpt lat="39.0595317" lon="16.15166"><ele>53.0</ele><time>2026-04-27T10:21:21.681Z</time></trkpt><trkpt lat="39.0594767" lon="16.1515133"><ele>53.0</ele><time>2026-04-27T10:21:22.683Z</time></trkpt><trkpt lat="39.0594183" lon="16.151355"><ele>53.0</ele><time>2026-04-27T10:21:23.688Z</time></trkpt><trkpt lat="39.05936" lon="16.1511933"><ele>53.0</ele><time>2026-04-27T10:21:24.69Z</time></trkpt><trkpt lat="39.0593" lon="16.1510383"><ele>53.0</ele><time>2026-04-27T10:21:25.688Z</time></trkpt><trkpt lat="39.0592417" lon="16.1508967"><ele>53.00000000000001</ele><time>2026-04-27T10:21:26.75Z</time></trkpt><trkpt lat="39.0591683" lon="16.1507767"><ele>53.0</ele><time>2026-04-27T10:21:27.681Z</time></trkpt><trkpt lat="39.0591383" lon="16.150685"><ele>53.0</ele><time>2026-04-27T10:21:28.685Z</time></trkpt><trkpt lat="39.05913" lon="16.1505933"><ele>53.0</ele><time>2026-04-27T10:21:29.688Z</time></trkpt><trkpt lat="39.05911" lon="16.1504867"><ele>53.00000000000001</ele><time>2026-04-27T10:21:30.683Z</time></trkpt><trkpt lat="39.059075" lon="16.1503717"><ele>53.0</ele><time>2026-04-27T10:21:31.685Z</time></trkpt><trkpt lat="39.05903" lon="16.1502467"><ele>52.5</ele><time>2026-04-27T10:21:32.73Z</time></trkpt><trkpt lat="39.0589733" lon="16.1501083"><ele>52.0</ele><time>2026-04-27T10:21:33.682Z</time></trkpt><trkpt lat="39.05891" lon="16.14997"><ele>51.5</ele><time>2026-04-27T10:21:34.687Z</time></trkpt><trkpt lat="39.0588533" lon="16.14984"><ele>51.0</ele><time>2026-04-27T10:21:35.685Z</time></trkpt><trkpt lat="39.05882" lon="16.1497183"><ele>51.0</ele><time>2026-04-27T10:21:36.688Z</time></trkpt><trkpt lat="39.0587917" lon="16.1495867"><ele>51.0</ele><time>2026-04-27T10:21:37.684Z</time></trkpt><trkpt lat="39.0587633" lon="16.1494483"><ele>51.0</ele><time>2026-04-27T10:21:38.718Z</time></trkpt><trkpt lat="39.058735" lon="16.1493183"><ele>51.0</ele><time>2026-04-27T10:21:39.681Z</time></trkpt><trkpt lat="39.0587167" lon="16.14921"><ele>51.0</ele><time>2026-04-27T10:21:40.683Z</time></trkpt><trkpt lat="39.0586933" lon="16.1491283"><ele>51.166666666666664</ele><time>2026-04-27T10:21:41.688Z</time></trkpt><trkpt lat="39.0586" lon="16.1490317"><ele>51.33333333333333</ele><time>2026-04-27T10:21:43.688Z</time></trkpt><trkpt lat="39.05854" lon="16.1489983"><ele>51.5</ele><time>2026-04-27T10:21:44.716Z</time></trkpt><trkpt lat="39.0584767" lon="16.148965"><ele>51.666666666666664</ele><time>2026-04-27T10:21:45.685Z</time></trkpt><trkpt lat="39.0584083" lon="16.1489283"><ele>51.83333333333333</ele><time>2026-04-27T10:21:46.683Z</time></trkpt><trkpt lat="39.0583317" lon="16.1488767"><ele>52.0</ele><time>2026-04-27T10:21:47.688Z</time></trkpt><trkpt lat="39.0582433" lon="16.1488133"><ele>51.0</ele><time>2026-04-27T10:21:48.684Z</time></trkpt><trkpt lat="39.0581467" lon="16.1487317"><ele>50.0</ele><time>2026-04-27T10:21:49.695Z</time></trkpt><trkpt lat="39.058045" lon="16.1486367"><ele>49.0</ele><time>2026-04-27T10:21:50.711Z</time></trkpt><trkpt lat="39.0579267" lon="16.1485317"><ele>48.0</ele><time>2026-04-27T10:21:51.689Z</time></trkpt><trkpt lat="39.0577967" lon="16.148415"><ele>48.0</ele><time>2026-04-27T10:21:52.687Z</time></trkpt><trkpt lat="39.0576583" lon="16.1483017"><ele>48.0</ele><time>2026-04-27T10:21:53.683Z</time></trkpt><trkpt lat="39.0575283" lon="16.1482017"><ele>48.0</ele><time>2026-04-27T10:21:54.685Z</time></trkpt><trkpt lat="39.0574033" lon="16.1481117"><ele>48.25</ele><time>2026-04-27T10:21:55.688Z</time></trkpt><trkpt lat="39.05728" lon="16.14802"><ele>48.5</ele><time>2026-04-27T10:21:56.749Z</time></trkpt><trkpt lat="39.057155" lon="16.147925"><ele>48.75</ele><time>2026-04-27T10:21:57.686Z</time></trkpt><trkpt lat="39.0570367" lon="16.1478367"><ele>49.0</ele><time>2026-04-27T10:21:58.687Z</time></trkpt><trkpt lat="39.0569317" lon="16.1477583"><ele>49.0</ele><time>2026-04-27T10:21:59.685Z</time></trkpt><trkpt lat="39.0568433" lon="16.14769"><ele>49.0</ele><time>2026-04-27T10:22:00.683Z</time></trkpt><trkpt lat="39.0567617" lon="16.14763"><ele>49.0</ele><time>2026-04-27T10:22:01.686Z</time></trkpt><trkpt lat="39.0566883" lon="16.1475717"><ele>49.0</ele><time>2026-04-27T10:22:02.755Z</time></trkpt><trkpt lat="39.0566167" lon="16.147505"><ele>49.0</ele><time>2026-04-27T10:22:03.684Z</time></trkpt><trkpt lat="39.0565433" lon="16.1474383"><ele>48.99999999999999</ele><time>2026-04-27T10:22:04.686Z</time></trkpt><trkpt lat="39.056475" lon="16.14738"><ele>49.0</ele><time>2026-04-27T10:22:05.688Z</time></trkpt><trkpt lat="39.056405" lon="16.1473283"><ele>49.0</ele><time>2026-04-27T10:22:06.686Z</time></trkpt><trkpt lat="39.056335" lon="16.147285"><ele>49.0</ele><time>2026-04-27T10:22:07.686Z</time></trkpt><trkpt lat="39.056255" lon="16.147235"><ele>48.99999999999999</ele><time>2026-04-27T10:22:08.719Z</time></trkpt><trkpt lat="39.05616" lon="16.1471717"><ele>49.0</ele><time>2026-04-27T10:22:09.682Z</time></trkpt><trkpt lat="39.0560567" lon="16.1470983"><ele>49.0</ele><time>2026-04-27T10:22:10.686Z</time></trkpt><trkpt lat="39.05594" lon="16.1470083"><ele>49.0</ele><time>2026-04-27T10:22:11.686Z</time></trkpt><trkpt lat="39.055815" lon="16.14691"><ele>49.0</ele><time>2026-04-27T10:22:12.69Z</time></trkpt><trkpt lat="39.055675" lon="16.1468067"><ele>49.0</ele><time>2026-04-27T10:22:13.684Z</time></trkpt><trkpt lat="39.0555383" lon="16.1467033"><ele>48.25</ele><time>2026-04-27T10:22:14.714Z</time></trkpt><trkpt lat="39.0554067" lon="16.146605"><ele>47.5</ele><time>2026-04-27T10:22:15.685Z</time></trkpt><trkpt lat="39.0552833" lon="16.14651"><ele>46.75</ele><time>2026-04-27T10:22:16.689Z</time></trkpt><trkpt lat="39.0551783" lon="16.1464317"><ele>46.0</ele><time>2026-04-27T10:22:17.686Z</time></trkpt><trkpt lat="39.0550983" lon="16.1463667"><ele>46.0</ele><time>2026-04-27T10:22:18.686Z</time></trkpt><trkpt lat="39.0550083" lon="16.1463017"><ele>46.0</ele><time>2026-04-27T10:22:19.691Z</time></trkpt><trkpt lat="39.0549017" lon="16.1462267"><ele>46.0</ele><time>2026-04-27T10:22:20.714Z</time></trkpt><trkpt lat="39.0547983" lon="16.1461517"><ele>46.0</ele><time>2026-04-27T10:22:21.687Z</time></trkpt><trkpt lat="39.0547033" lon="16.14608"><ele>46.0</ele><time>2026-04-27T10:22:22.686Z</time></trkpt><trkpt lat="39.0546183" lon="16.1460183"><ele>46.0</ele><time>2026-04-27T10:22:23.682Z</time></trkpt><trkpt lat="39.0545467" lon="16.1459667"><ele>46.0</ele><time>2026-04-27T10:22:24.683Z</time></trkpt><trkpt lat="39.054485" lon="16.1459183"><ele>46.0</ele><time>2026-04-27T10:22:25.682Z</time></trkpt><trkpt lat="39.0543983" lon="16.1458467"><ele>46.0</ele><time>2026-04-27T10:22:27.685Z</time></trkpt><trkpt lat="39.0543117" lon="16.1457833"><ele>46.0</ele><time>2026-04-27T10:22:29.685Z</time></trkpt><trkpt lat="39.0542517" lon="16.1457417"><ele>46.0</ele><time>2026-04-27T10:22:30.689Z</time></trkpt><trkpt lat="39.0541783" lon="16.1456883"><ele>46.0</ele><time>2026-04-27T10:22:31.693Z</time></trkpt><trkpt lat="39.0540933" lon="16.14563"><ele>46.0</ele><time>2026-04-27T10:22:32.732Z</time></trkpt><trkpt lat="39.0540017" lon="16.1455633"><ele>46.0</ele><time>2026-04-27T10:22:33.683Z</time></trkpt><trkpt lat="39.0539083" lon="16.1454967"><ele>47.599999999999994</ele><time>2026-04-27T10:22:34.687Z</time></trkpt><trkpt lat="39.0538217" lon="16.1454267"><ele>49.2</ele><time>2026-04-27T10:22:35.682Z</time></trkpt><trkpt lat="39.0537383" lon="16.1453533"><ele>50.800000000000004</ele><time>2026-04-27T10:22:36.685Z</time></trkpt><trkpt lat="39.0536583" lon="16.1452883"><ele>52.400000000000006</ele><time>2026-04-27T10:22:37.686Z</time></trkpt><trkpt lat="39.0535767" lon="16.1452283"><ele>54.0</ele><time>2026-04-27T10:22:38.717Z</time></trkpt><trkpt lat="39.0535" lon="16.1451883"><ele>54.0</ele><time>2026-04-27T10:22:39.685Z</time></trkpt><trkpt lat="39.0534167" lon="16.1451633"><ele>54.00000000000001</ele><time>2026-04-27T10:22:40.685Z</time></trkpt><trkpt lat="39.0533283" lon="16.14514"><ele>54.00000000000001</ele><time>2026-04-27T10:22:41.687Z</time></trkpt><trkpt lat="39.053235" lon="16.14511"><ele>54.0</ele><time>2026-04-27T10:22:42.685Z</time></trkpt><trkpt lat="39.053135" lon="16.1450617"><ele>54.0</ele><time>2026-04-27T10:22:43.691Z</time></trkpt><trkpt lat="39.0530433" lon="16.1449983"><ele>55.800000000000004</ele><time>2026-04-27T10:22:44.719Z</time></trkpt><trkpt lat="39.05296" lon="16.144935"><ele>57.60000000000001</ele><time>2026-04-27T10:22:45.69Z</time></trkpt><trkpt lat="39.05286" lon="16.1448867"><ele>59.4</ele><time>2026-04-27T10:22:46.684Z</time></trkpt><trkpt lat="39.0527617" lon="16.1448433"><ele>61.2</ele><time>2026-04-27T10:22:47.68Z</time></trkpt><trkpt lat="39.05267" lon="16.144795"><ele>63.0</ele><time>2026-04-27T10:22:48.684Z</time></trkpt><trkpt lat="39.0525833" lon="16.144745"><ele>63.0</ele><time>2026-04-27T10:22:49.685Z</time></trkpt><trkpt lat="39.052515" lon="16.1447017"><ele>63.0</ele><time>2026-04-27T10:22:50.717Z</time></trkpt><trkpt lat="39.05244" lon="16.1446517"><ele>63.0</ele><time>2026-04-27T10:22:51.689Z</time></trkpt><trkpt lat="39.05236" lon="16.1446"><ele>63.0</ele><time>2026-04-27T10:22:52.686Z</time></trkpt><trkpt lat="39.0522717" lon="16.1445333"><ele>63.0</ele><time>2026-04-27T10:22:53.691Z</time></trkpt><trkpt lat="39.0521783" lon="16.1444517"><ele>65.6</ele><time>2026-04-27T10:22:54.689Z</time></trkpt><trkpt lat="39.0520817" lon="16.14436"><ele>68.19999999999999</ele><time>2026-04-27T10:22:55.686Z</time></trkpt><trkpt lat="39.0519983" lon="16.1442817"><ele>70.8</ele><time>2026-04-27T10:22:56.731Z</time></trkpt><trkpt lat="39.0519333" lon="16.1442117"><ele>73.39999999999999</ele><time>2026-04-27T10:22:57.684Z</time></trkpt><trkpt lat="39.0518817" lon="16.1441283"><ele>76.0</ele><time>2026-04-27T10:22:58.684Z</time></trkpt><trkpt lat="39.051835" lon="16.144035"><ele>76.0</ele><time>2026-04-27T10:22:59.684Z</time></trkpt><trkpt lat="39.051785" lon="16.1439483"><ele>76.0</ele><time>2026-04-27T10:23:00.691Z</time></trkpt><trkpt lat="39.0517217" lon="16.1438783"><ele>76.0</ele><time>2026-04-27T10:23:01.688Z</time></trkpt><trkpt lat="39.0516367" lon="16.143815"><ele>76.0</ele><time>2026-04-27T10:23:02.735Z</time></trkpt><trkpt lat="39.0515483" lon="16.1437517"><ele>76.0</ele><time>2026-04-27T10:23:03.69Z</time></trkpt><trkpt lat="39.05147" lon="16.143705"><ele>76.0</ele><time>2026-04-27T10:23:04.689Z</time></trkpt><trkpt lat="39.051385" lon="16.1436617"><ele>76.0</ele><time>2026-04-27T10:23:06.69Z</time></trkpt><trkpt lat="39.0514483" lon="16.1436833"><ele>76.0</ele><time>2026-04-27T10:23:24.69Z</time></trkpt><trkpt lat="39.0515767" lon="16.1436967"><ele>76.0</ele><time>2026-04-27T10:23:26.732Z</time></trkpt><trkpt lat="39.0516633" lon="16.1437083"><ele>76.0</ele><time>2026-04-27T10:23:27.683Z</time></trkpt><trkpt lat="39.051755" lon="16.143725"><ele>76.0</ele><time>2026-04-27T10:23:28.679Z</time></trkpt><trkpt lat="39.0518433" lon="16.1437533"><ele>76.0</ele><time>2026-04-27T10:23:29.687Z</time></trkpt><trkpt lat="39.0519217" lon="16.143795"><ele>76.0</ele><time>2026-04-27T10:23:30.688Z</time></trkpt><trkpt lat="39.0519783" lon="16.143835"><ele>76.0</ele><time>2026-04-27T10:23:31.689Z</time></trkpt><trkpt lat="39.052055" lon="16.14388"><ele>76.0</ele><time>2026-04-27T10:23:33.684Z</time></trkpt><trkpt lat="39.0520033" lon="16.1438217"><ele>76.0</ele><time>2026-04-27T10:23:35.683Z</time></trkpt><trkpt lat="39.0519417" lon="16.143765"><ele>76.0</ele><time>2026-04-27T10:23:36.69Z</time></trkpt><trkpt lat="39.0518517" lon="16.1436933"><ele>76.0</ele><time>2026-04-27T10:23:37.685Z</time></trkpt><trkpt lat="39.0517533" lon="16.143625"><ele>76.0</ele><time>2026-04-27T10:23:38.727Z</time></trkpt><trkpt lat="39.0516567" lon="16.1435567"><ele>76.0</ele><time>2026-04-27T10:23:39.689Z</time></trkpt><trkpt lat="39.0515667" lon="16.1435"><ele>76.0</ele><time>2026-04-27T10:23:40.685Z</time></trkpt><trkpt lat="39.05149" lon="16.1434483"><ele>72.8</ele><time>2026-04-27T10:23:41.684Z</time></trkpt><trkpt lat="39.051425" lon="16.1434"><ele>69.6</ele><time>2026-04-27T10:23:42.689Z</time></trkpt><trkpt lat="39.0513683" lon="16.14336"><ele>66.4</ele><time>2026-04-27T10:23:43.683Z</time></trkpt><trkpt lat="39.0512983" lon="16.1432467"><ele>63.2</ele><time>2026-04-27T10:23:45.683Z</time></trkpt><trkpt lat="39.05129" lon="16.1431"><ele>60.0</ele><time>2026-04-27T10:23:47.686Z</time></trkpt><trkpt lat="39.0513033" lon="16.142955"><ele>60.0</ele><time>2026-04-27T10:23:49.689Z</time></trkpt><trkpt lat="39.05132" lon="16.1427983"><ele>60.0</ele><time>2026-04-27T10:23:51.686Z</time></trkpt><trkpt lat="39.0513167" lon="16.1427067"><ele>60.0</ele><time>2026-04-27T10:23:52.687Z</time></trkpt><trkpt lat="39.051305" lon="16.142615"><ele>60.0</ele><time>2026-04-27T10:23:53.688Z</time></trkpt><trkpt lat="39.0512917" lon="16.1425183"><ele>60.0</ele><time>2026-04-27T10:23:54.689Z</time></trkpt><trkpt lat="39.0512783" lon="16.1424167"><ele>60.0</ele><time>2026-04-27T10:23:55.686Z</time></trkpt><trkpt lat="39.051265" lon="16.1423183"><ele>61.0</ele><time>2026-04-27T10:23:56.739Z</time></trkpt><trkpt lat="39.051265" lon="16.142225"><ele>62.0</ele><time>2026-04-27T10:23:57.687Z</time></trkpt><trkpt lat="39.0512767" lon="16.1421383"><ele>63.0</ele><time>2026-04-27T10:23:58.689Z</time></trkpt><trkpt lat="39.05133" lon="16.1420267"><ele>64.0</ele><time>2026-04-27T10:24:00.69Z</time></trkpt><trkpt lat="39.051405" lon="16.1420617"><ele>65.0</ele><time>2026-04-27T10:24:03.686Z</time></trkpt><trkpt lat="39.0513983" lon="16.1421767"><ele>66.0</ele><time>2026-04-27T10:24:05.69Z</time></trkpt><trkpt lat="39.051395" lon="16.1422617"><ele>66.0</ele><time>2026-04-27T10:24:06.689Z</time></trkpt><trkpt lat="39.05139" lon="16.1423467"><ele>66.0</ele><time>2026-04-27T10:24:07.687Z</time></trkpt><trkpt lat="39.0513883" lon="16.1424883"><ele>66.0</ele><time>2026-04-27T10:24:09.687Z</time></trkpt><trkpt lat="39.0514617" lon="16.1423667"><ele>66.0</ele><time>2026-04-27T10:24:14.722Z</time></trkpt><trkpt lat="39.051495" lon="16.142255"><ele>66.0</ele><time>2026-04-27T10:24:15.69Z</time></trkpt><trkpt lat="39.05153" lon="16.14214"><ele>66.0</ele><time>2026-04-27T10:24:16.686Z</time></trkpt><trkpt lat="39.0515633" lon="16.1420433"><ele>66.0</ele><time>2026-04-27T10:24:17.687Z</time></trkpt><trkpt lat="39.0516" lon="16.141965"><ele>66.0</ele><time>2026-04-27T10:24:18.689Z</time></trkpt><trkpt lat="39.051615" lon="16.142065"><ele>66.0</ele><time>2026-04-27T10:24:22.688Z</time></trkpt><trkpt lat="39.0516117" lon="16.1421667"><ele>66.0</ele><time>2026-04-27T10:24:23.687Z</time></trkpt><trkpt lat="39.0516317" lon="16.1423333"><ele>66.0</ele><time>2026-04-27T10:24:25.692Z</time></trkpt><trkpt lat="39.051655" lon="16.1424783"><ele>71.33333333333333</ele><time>2026-04-27T10:24:27.685Z</time></trkpt><trkpt lat="39.0516867" lon="16.1425833"><ele>76.66666666666666</ele><time>2026-04-27T10:24:29.69Z</time></trkpt><trkpt lat="39.0516983" lon="16.1426983"><ele>82.0</ele><time>2026-04-27T10:24:32.741Z</time></trkpt><trkpt lat="39.0516983" lon="16.142795"><ele>87.33333333333333</ele><time>2026-04-27T10:24:34.687Z</time></trkpt><trkpt lat="39.0517583" lon="16.142895"><ele>92.66666666666666</ele><time>2026-04-27T10:24:36.688Z</time></trkpt><trkpt lat="39.051835" lon="16.14295"><ele>98.0</ele><time>2026-04-27T10:24:38.723Z</time></trkpt><trkpt lat="39.0518933" lon="16.1428667"><ele>97.99999999999999</ele><time>2026-04-27T10:24:40.687Z</time></trkpt><trkpt lat="39.0518717" lon="16.1427717"><ele>98.0</ele><time>2026-04-27T10:24:42.688Z</time></trkpt><trkpt lat="39.051835" lon="16.1426983"><ele>98.0</ele><time>2026-04-27T10:24:43.689Z</time></trkpt><trkpt lat="39.0518017" lon="16.1426033"><ele>98.0</ele><time>2026-04-27T10:24:44.722Z</time></trkpt><trkpt lat="39.0517783" lon="16.1425033"><ele>97.99999999999999</ele><time>2026-04-27T10:24:45.687Z</time></trkpt><trkpt lat="39.051775" lon="16.1424017"><ele>98.0</ele><time>2026-04-27T10:24:46.69Z</time></trkpt><trkpt lat="39.0517917" lon="16.1423083"><ele>98.49999999999999</ele><time>2026-04-27T10:24:47.687Z</time></trkpt><trkpt lat="39.0518233" lon="16.142225"><ele>99.0</ele><time>2026-04-27T10:24:48.694Z</time></trkpt><trkpt lat="39.0518667" lon="16.1421583"><ele>99.5</ele><time>2026-04-27T10:24:49.691Z</time></trkpt><trkpt lat="39.0519517" lon="16.142095"><ele>100.0</ele><time>2026-04-27T10:24:51.69Z</time></trkpt><trkpt lat="39.0520683" lon="16.14214"><ele>100.49999999999999</ele><time>2026-04-27T10:24:53.69Z</time></trkpt><trkpt lat="39.05214" lon="16.142195"><ele>101.0</ele><time>2026-04-27T10:24:54.696Z</time></trkpt><trkpt lat="39.0522" lon="16.1422667"><ele>100.99999999999999</ele><time>2026-04-27T10:24:55.689Z</time></trkpt><trkpt lat="39.052255" lon="16.1423317"><ele>101.0</ele><time>2026-04-27T10:24:56.751Z</time></trkpt><trkpt lat="39.0523033" lon="16.1423867"><ele>101.0</ele><time>2026-04-27T10:24:57.686Z</time></trkpt><trkpt lat="39.0523783" lon="16.14244"><ele>101.0</ele><time>2026-04-27T10:24:59.692Z</time></trkpt><trkpt lat="39.05237" lon="16.1423517"><ele>100.99999999999999</ele><time>2026-04-27T10:25:01.689Z</time></trkpt><trkpt lat="39.0522883" lon="16.142235"><ele>101.0</ele><time>2026-04-27T10:25:03.689Z</time></trkpt><trkpt lat="39.0522617" lon="16.1421033"><ele>100.99999999999999</ele><time>2026-04-27T10:25:05.691Z</time></trkpt><trkpt lat="39.0523133" lon="16.1420083"><ele>101.0</ele><time>2026-04-27T10:25:07.688Z</time></trkpt><trkpt lat="39.0524083" lon="16.1420433"><ele>101.0</ele><time>2026-04-27T10:25:09.69Z</time></trkpt><trkpt lat="39.0524567" lon="16.1421033"><ele>101.0</ele><time>2026-04-27T10:25:10.684Z</time></trkpt><trkpt lat="39.05251" lon="16.142155"><ele>100.99999999999999</ele><time>2026-04-27T10:25:11.69Z</time></trkpt><trkpt lat="39.0525967" lon="16.1421967"><ele>101.0</ele><time>2026-04-27T10:25:13.686Z</time></trkpt><trkpt lat="39.0526183" lon="16.1421017"><ele>108.19999999999999</ele><time>2026-04-27T10:25:16.685Z</time></trkpt><trkpt lat="39.0526" lon="16.14193"><ele>115.39999999999999</ele><time>2026-04-27T10:25:18.691Z</time></trkpt><trkpt lat="39.0526083" lon="16.1418317"><ele>122.6</ele><time>2026-04-27T10:25:19.688Z</time></trkpt><trkpt lat="39.0526417" lon="16.1417267"><ele>129.79999999999998</ele><time>2026-04-27T10:25:20.723Z</time></trkpt><trkpt lat="39.0526967" lon="16.141615"><ele>137.0</ele><time>2026-04-27T10:25:21.688Z</time></trkpt><trkpt lat="39.052775" lon="16.1415033"><ele>138.0</ele><time>2026-04-27T10:25:22.691Z</time></trkpt><trkpt lat="39.0528533" lon="16.1413983"><ele>139.0</ele><time>2026-04-27T10:25:23.686Z</time></trkpt><trkpt lat="39.0529233" lon="16.1413033"><ele>140.0</ele><time>2026-04-27T10:25:24.691Z</time></trkpt><trkpt lat="39.0529783" lon="16.14121"><ele>141.0</ele><time>2026-04-27T10:25:25.69Z</time></trkpt><trkpt lat="39.0530183" lon="16.14113"><ele>142.0</ele><time>2026-04-27T10:25:26.742Z</time></trkpt><trkpt lat="39.0530067" lon="16.1410017"><ele>142.0</ele><time>2026-04-27T10:25:28.685Z</time></trkpt><trkpt lat="39.05293" lon="16.140855"><ele>142.0</ele><time>2026-04-27T10:25:30.686Z</time></trkpt><trkpt lat="39.0528583" lon="16.14075"><ele>142.0</ele><time>2026-04-27T10:25:31.686Z</time></trkpt><trkpt lat="39.0527767" lon="16.1406283"><ele>142.0</ele><time>2026-04-27T10:25:32.743Z</time></trkpt><trkpt lat="39.0526933" lon="16.1404883"><ele>146.75</ele><time>2026-04-27T10:25:33.686Z</time></trkpt><trkpt lat="39.0526167" lon="16.1403483"><ele>151.5</ele><time>2026-04-27T10:25:34.691Z</time></trkpt><trkpt lat="39.0525633" lon="16.1402167"><ele>156.25</ele><time>2026-04-27T10:25:35.687Z</time></trkpt><trkpt lat="39.05252" lon="16.1400833"><ele>161.0</ele><time>2026-04-27T10:25:36.688Z</time></trkpt><trkpt lat="39.0524683" lon="16.1399317"><ele>158.0</ele><time>2026-04-27T10:25:37.685Z</time></trkpt><trkpt lat="39.05242" lon="16.139775"><ele>155.0</ele><time>2026-04-27T10:25:38.721Z</time></trkpt><trkpt lat="39.052365" lon="16.1396117"><ele>152.0</ele><time>2026-04-27T10:25:39.689Z</time></trkpt><trkpt lat="39.0523133" lon="16.1394483"><ele>149.0</ele><time>2026-04-27T10:25:40.687Z</time></trkpt><trkpt lat="39.0522767" lon="16.1392917"><ele>149.0</ele><time>2026-04-27T10:25:41.684Z</time></trkpt><trkpt lat="39.0522533" lon="16.1391567"><ele>149.0</ele><time>2026-04-27T10:25:42.683Z</time></trkpt><trkpt lat="39.0522667" lon="16.1390667"><ele>149.0</ele><time>2026-04-27T10:25:43.683Z</time></trkpt><trkpt lat="39.0523233" lon="16.1389683"><ele>149.0</ele><time>2026-04-27T10:25:45.684Z</time></trkpt><trkpt lat="39.0524117" lon="16.1390017"><ele>149.0</ele><time>2026-04-27T10:25:47.685Z</time></trkpt><trkpt lat="39.05251" lon="16.1390817"><ele>153.33333333333331</ele><time>2026-04-27T10:25:49.684Z</time></trkpt><trkpt lat="39.0526083" lon="16.1390967"><ele>157.66666666666666</ele><time>2026-04-27T10:25:51.687Z</time></trkpt><trkpt lat="39.0526467" lon="16.1389867"><ele>162.0</ele><time>2026-04-27T10:25:53.689Z</time></trkpt><trkpt lat="39.0526183" lon="16.1389"><ele>166.33333333333334</ele><time>2026-04-27T10:25:54.68Z</time></trkpt><trkpt lat="39.0525733" lon="16.1388167"><ele>170.66666666666669</ele><time>2026-04-27T10:25:55.687Z</time></trkpt><trkpt lat="39.05251" lon="16.1387433"><ele>175.0</ele><time>2026-04-27T10:25:56.735Z</time></trkpt><trkpt lat="39.0524567" lon="16.1386667"><ele>174.66666666666669</ele><time>2026-04-27T10:25:57.681Z</time></trkpt><trkpt lat="39.0524233" lon="16.138585"><ele>174.33333333333334</ele><time>2026-04-27T10:25:58.684Z</time></trkpt><trkpt lat="39.0524133" lon="16.1385033"><ele>174.0</ele><time>2026-04-27T10:25:59.685Z</time></trkpt><trkpt lat="39.0524183" lon="16.1384117"><ele>173.66666666666666</ele><time>2026-04-27T10:26:00.683Z</time></trkpt><trkpt lat="39.0524483" lon="16.1383133"><ele>173.33333333333331</ele><time>2026-04-27T10:26:01.683Z</time></trkpt><trkpt lat="39.0524967" lon="16.1382083"><ele>173.0</ele><time>2026-04-27T10:26:02.737Z</time></trkpt><trkpt lat="39.0525517" lon="16.1380917"><ele>178.0</ele><time>2026-04-27T10:26:03.688Z</time></trkpt><trkpt lat="39.0526083" lon="16.137955"><ele>183.0</ele><time>2026-04-27T10:26:04.687Z</time></trkpt><trkpt lat="39.05266" lon="16.13781"><ele>188.0</ele><time>2026-04-27T10:26:05.686Z</time></trkpt><trkpt lat="39.0527133" lon="16.137655"><ele>193.0</ele><time>2026-04-27T10:26:06.681Z</time></trkpt><trkpt lat="39.0527617" lon="16.1374933"><ele>193.75</ele><time>2026-04-27T10:26:07.691Z</time></trkpt><trkpt lat="39.0528167" lon="16.13734"><ele>194.5</ele><time>2026-04-27T10:26:08.722Z</time></trkpt><trkpt lat="39.0528867" lon="16.137205"><ele>195.25</ele><time>2026-04-27T10:26:09.684Z</time></trkpt><trkpt lat="39.0529733" lon="16.13709"><ele>196.0</ele><time>2026-04-27T10:26:10.684Z</time></trkpt><trkpt lat="39.053065" lon="16.1369833"><ele>196.0</ele><time>2026-04-27T10:26:11.685Z</time></trkpt><trkpt lat="39.053155" lon="16.1368683"><ele>196.0</ele><time>2026-04-27T10:26:12.684Z</time></trkpt><trkpt lat="39.05324" lon="16.136735"><ele>196.0</ele><time>2026-04-27T10:26:13.69Z</time></trkpt><trkpt lat="39.053335" lon="16.1365833"><ele>196.0</ele><time>2026-04-27T10:26:14.722Z</time></trkpt><trkpt lat="39.0534283" lon="16.1364217"><ele>199.25</ele><time>2026-04-27T10:26:15.695Z</time></trkpt><trkpt lat="39.0535133" lon="16.1362883"><ele>202.5</ele><time>2026-04-27T10:26:16.681Z</time></trkpt><trkpt lat="39.0535667" lon="16.1362033"><ele>205.75</ele><time>2026-04-27T10:26:17.686Z</time></trkpt><trkpt lat="39.0536167" lon="16.13607"><ele>209.0</ele><time>2026-04-27T10:26:19.686Z</time></trkpt><trkpt lat="39.05356" lon="16.1359133"><ele>209.0</ele><time>2026-04-27T10:26:21.682Z</time></trkpt><trkpt lat="39.0535067" lon="16.1358"><ele>209.0</ele><time>2026-04-27T10:26:22.688Z</time></trkpt><trkpt lat="39.0534367" lon="16.1356783"><ele>209.0</ele><time>2026-04-27T10:26:23.683Z</time></trkpt><trkpt lat="39.0533433" lon="16.13556"><ele>209.0</ele><time>2026-04-27T10:26:24.687Z</time></trkpt><trkpt lat="39.0532317" lon="16.1354567"><ele>211.0</ele><time>2026-04-27T10:26:25.687Z</time></trkpt><trkpt lat="39.0531" lon="16.13537"><ele>213.0</ele><time>2026-04-27T10:26:26.738Z</time></trkpt><trkpt lat="39.0529367" lon="16.1352883"><ele>215.0</ele><time>2026-04-27T10:26:27.685Z</time></trkpt><trkpt lat="39.0527483" lon="16.1352017"><ele>215.0</ele><time>2026-04-27T10:26:28.684Z</time></trkpt><trkpt lat="39.05257" lon="16.1351167"><ele>215.0</ele><time>2026-04-27T10:26:29.686Z</time></trkpt><trkpt lat="39.0524133" lon="16.1350383"><ele>215.0</ele><time>2026-04-27T10:26:30.686Z</time></trkpt><trkpt lat="39.0522767" lon="16.1349683"><ele>216.0</ele><time>2026-04-27T10:26:31.687Z</time></trkpt><trkpt lat="39.0521617" lon="16.1349083"><ele>217.0</ele><time>2026-04-27T10:26:32.743Z</time></trkpt><trkpt lat="39.0520617" lon="16.1348483"><ele>218.0</ele><time>2026-04-27T10:26:33.683Z</time></trkpt><trkpt lat="39.0519867" lon="16.1347817"><ele>219.0</ele><time>2026-04-27T10:26:34.685Z</time></trkpt><trkpt lat="39.0519083" lon="16.13469"><ele>220.0</ele><time>2026-04-27T10:26:35.688Z</time></trkpt><trkpt lat="39.0518383" lon="16.13455"><ele>220.75</ele><time>2026-04-27T10:26:36.683Z</time></trkpt><trkpt lat="39.051765" lon="16.1343933"><ele>221.5</ele><time>2026-04-27T10:26:37.684Z</time></trkpt><trkpt lat="39.0516917" lon="16.1342333"><ele>222.25</ele><time>2026-04-27T10:26:38.722Z</time></trkpt><trkpt lat="39.0516183" lon="16.1340967"><ele>223.0</ele><time>2026-04-27T10:26:39.684Z</time></trkpt><trkpt lat="39.0515383" lon="16.133985"><ele>223.8</ele><time>2026-04-27T10:26:40.686Z</time></trkpt><trkpt lat="39.0514483" lon="16.133885"><ele>224.60000000000002</ele><time>2026-04-27T10:26:41.684Z</time></trkpt><trkpt lat="39.0513683" lon="16.1337917"><ele>225.39999999999998</ele><time>2026-04-27T10:26:42.688Z</time></trkpt><trkpt lat="39.0513" lon="16.133685"><ele>226.2</ele><time>2026-04-27T10:26:43.686Z</time></trkpt><trkpt lat="39.05125" lon="16.1335633"><ele>227.0</ele><time>2026-04-27T10:26:44.721Z</time></trkpt><trkpt lat="39.0512433" lon="16.1334317"><ele>227.0</ele><time>2026-04-27T10:26:45.684Z</time></trkpt><trkpt lat="39.0512433" lon="16.1332783"><ele>227.0</ele><time>2026-04-27T10:26:46.69Z</time></trkpt><trkpt lat="39.0512517" lon="16.133105"><ele>227.0</ele><time>2026-04-27T10:26:47.69Z</time></trkpt><trkpt lat="39.0512783" lon="16.1329183"><ele>227.0</ele><time>2026-04-27T10:26:48.682Z</time></trkpt><trkpt lat="39.051315" lon="16.1327417"><ele>226.0</ele><time>2026-04-27T10:26:49.683Z</time></trkpt><trkpt lat="39.0513583" lon="16.13258"><ele>225.0</ele><time>2026-04-27T10:26:50.724Z</time></trkpt><trkpt lat="39.0514033" lon="16.1324417"><ele>224.0</ele><time>2026-04-27T10:26:51.682Z</time></trkpt><trkpt lat="39.0514383" lon="16.1323117"><ele>223.0</ele><time>2026-04-27T10:26:52.684Z</time></trkpt><trkpt lat="39.0514367" lon="16.1322017"><ele>222.0</ele><time>2026-04-27T10:26:53.686Z</time></trkpt><trkpt lat="39.051425" lon="16.1321083"><ele>220.0</ele><time>2026-04-27T10:26:54.684Z</time></trkpt><trkpt lat="39.0513567" lon="16.1320433"><ele>218.0</ele><time>2026-04-27T10:26:55.685Z</time></trkpt><trkpt lat="39.051275" lon="16.1319817"><ele>216.0</ele><time>2026-04-27T10:26:56.743Z</time></trkpt><trkpt lat="39.051175" lon="16.13194"><ele>214.0</ele><time>2026-04-27T10:26:57.689Z</time></trkpt><trkpt lat="39.0510683" lon="16.1319117"><ele>212.0</ele><time>2026-04-27T10:26:58.683Z</time></trkpt><trkpt lat="39.0509567" lon="16.1318817"><ele>212.0</ele><time>2026-04-27T10:26:59.69Z</time></trkpt><trkpt lat="39.0508417" lon="16.13184"><ele>212.0</ele><time>2026-04-27T10:27:00.68Z</time></trkpt><trkpt lat="39.0507167" lon="16.131795"><ele>212.0</ele><time>2026-04-27T10:27:01.686Z</time></trkpt><trkpt lat="39.0505983" lon="16.1317433"><ele>212.0</ele><time>2026-04-27T10:27:02.743Z</time></trkpt><trkpt lat="39.050485" lon="16.1316833"><ele>212.75</ele><time>2026-04-27T10:27:03.686Z</time></trkpt><trkpt lat="39.0503833" lon="16.1316167"><ele>213.5</ele><time>2026-04-27T10:27:04.692Z</time></trkpt><trkpt lat="39.0502683" lon="16.13155"><ele>214.25</ele><time>2026-04-27T10:27:05.692Z</time></trkpt><trkpt lat="39.0501467" lon="16.131485"><ele>215.0</ele><time>2026-04-27T10:27:06.69Z</time></trkpt><trkpt lat="39.0500183" lon="16.1314283"><ele>210.0</ele><time>2026-04-27T10:27:07.696Z</time></trkpt><trkpt lat="39.049895" lon="16.13137"><ele>205.0</ele><time>2026-04-27T10:27:08.715Z</time></trkpt><trkpt lat="39.0497667" lon="16.13132"><ele>200.0</ele><time>2026-04-27T10:27:09.683Z</time></trkpt><trkpt lat="39.0496583" lon="16.1312983"><ele>195.0</ele><time>2026-04-27T10:27:10.682Z</time></trkpt><trkpt lat="39.0495683" lon="16.1312733"><ele>195.0</ele><time>2026-04-27T10:27:11.683Z</time></trkpt><trkpt lat="39.0494917" lon="16.1312517"><ele>195.0</ele><time>2026-04-27T10:27:12.69Z</time></trkpt><trkpt lat="39.0494283" lon="16.1312033"><ele>195.0</ele><time>2026-04-27T10:27:14.725Z</time></trkpt><trkpt lat="39.049395" lon="16.1311"><ele>195.0</ele><time>2026-04-27T10:27:17.685Z</time></trkpt><trkpt lat="39.0493117" lon="16.131045"><ele>195.0</ele><time>2026-04-27T10:27:20.718Z</time></trkpt><trkpt lat="39.0492267" lon="16.131045"><ele>195.0</ele><time>2026-04-27T10:27:22.689Z</time></trkpt><trkpt lat="39.0491767" lon="16.13112"><ele>195.0</ele><time>2026-04-27T10:27:25.685Z</time></trkpt><trkpt lat="39.049135" lon="16.131195"><ele>195.0</ele><time>2026-04-27T10:27:28.689Z</time></trkpt><trkpt lat="39.0490433" lon="16.13126"><ele>195.0</ele><time>2026-04-27T10:27:30.688Z</time></trkpt><trkpt lat="39.0489817" lon="16.1312933"><ele>195.0</ele><time>2026-04-27T10:27:31.687Z</time></trkpt><trkpt lat="39.0489067" lon="16.1313283"><ele>195.0</ele><time>2026-04-27T10:27:32.741Z</time></trkpt><trkpt lat="39.0488267" lon="16.1313583"><ele>195.0</ele><time>2026-04-27T10:27:33.69Z</time></trkpt><trkpt lat="39.048735" lon="16.1313833"><ele>193.8</ele><time>2026-04-27T10:27:34.689Z</time></trkpt><trkpt lat="39.04864" lon="16.1314"><ele>192.6</ele><time>2026-04-27T10:27:35.689Z</time></trkpt><trkpt lat="39.0485417" lon="16.1313983"><ele>191.39999999999998</ele><time>2026-04-27T10:27:36.688Z</time></trkpt><trkpt lat="39.0484483" lon="16.1313917"><ele>190.2</ele><time>2026-04-27T10:27:37.688Z</time></trkpt><trkpt lat="39.0483517" lon="16.1313833"><ele>189.0</ele><time>2026-04-27T10:27:38.722Z</time></trkpt><trkpt lat="39.0482583" lon="16.1313667"><ele>188.0</ele><time>2026-04-27T10:27:39.689Z</time></trkpt><trkpt lat="39.0481683" lon="16.131325"><ele>187.0</ele><time>2026-04-27T10:27:40.69Z</time></trkpt><trkpt lat="39.0480833" lon="16.1312633"><ele>186.0</ele><time>2026-04-27T10:27:41.693Z</time></trkpt><trkpt lat="39.0480133" lon="16.13119"><ele>185.0</ele><time>2026-04-27T10:27:42.689Z</time></trkpt><trkpt lat="39.0479433" lon="16.1310967"><ele>184.0</ele><time>2026-04-27T10:27:43.693Z</time></trkpt><trkpt lat="39.0478783" lon="16.131"><ele>184.0</ele><time>2026-04-27T10:27:44.723Z</time></trkpt><trkpt lat="39.0478167" lon="16.130915"><ele>184.0</ele><time>2026-04-27T10:27:45.686Z</time></trkpt><trkpt lat="39.0477433" lon="16.1308467"><ele>184.0</ele><time>2026-04-27T10:27:46.684Z</time></trkpt><trkpt lat="39.0476683" lon="16.130795"><ele>184.0</ele><time>2026-04-27T10:27:47.693Z</time></trkpt><trkpt lat="39.047585" lon="16.1307467"><ele>184.0</ele><time>2026-04-27T10:27:48.69Z</time></trkpt><trkpt lat="39.047505" lon="16.1306933"><ele>184.0</ele><time>2026-04-27T10:27:49.692Z</time></trkpt><trkpt lat="39.047425" lon="16.1306367"><ele>182.2</ele><time>2026-04-27T10:27:50.727Z</time></trkpt><trkpt lat="39.04734" lon="16.1305967"><ele>180.39999999999998</ele><time>2026-04-27T10:27:51.686Z</time></trkpt><trkpt lat="39.0472733" lon="16.130565"><ele>178.6</ele><time>2026-04-27T10:27:52.69Z</time></trkpt><trkpt lat="39.0472433" lon="16.1304767"><ele>176.8</ele><time>2026-04-27T10:27:59.69Z</time></trkpt><trkpt lat="39.0472983" lon="16.1303433"><ele>175.0</ele><time>2026-04-27T10:28:01.688Z</time></trkpt><trkpt lat="39.04734" lon="16.130225"><ele>175.0</ele><time>2026-04-27T10:28:02.738Z</time></trkpt><trkpt lat="39.0473783" lon="16.1301183"><ele>175.0</ele><time>2026-04-27T10:28:03.688Z</time></trkpt><trkpt lat="39.0474233" lon="16.130035"><ele>175.0</ele><time>2026-04-27T10:28:04.687Z</time></trkpt><trkpt lat="39.04748" lon="16.1299633"><ele>175.0</ele><time>2026-04-27T10:28:05.683Z</time></trkpt><trkpt lat="39.0475483" lon="16.129895"><ele>175.0</ele><time>2026-04-27T10:28:06.689Z</time></trkpt><trkpt lat="39.0476267" lon="16.1298217"><ele>175.0</ele><time>2026-04-27T10:28:07.689Z</time></trkpt><trkpt lat="39.0477083" lon="16.129745"><ele>177.2</ele><time>2026-04-27T10:28:08.722Z</time></trkpt><trkpt lat="39.0477867" lon="16.12967"><ele>179.4</ele><time>2026-04-27T10:28:09.694Z</time></trkpt><trkpt lat="39.0478683" lon="16.1296133"><ele>181.60000000000002</ele><time>2026-04-27T10:28:10.693Z</time></trkpt><trkpt lat="39.0479567" lon="16.1295717"><ele>183.8</ele><time>2026-04-27T10:28:11.686Z</time></trkpt><trkpt lat="39.0480517" lon="16.129555"><ele>186.0</ele><time>2026-04-27T10:28:12.687Z</time></trkpt><trkpt lat="39.0481533" lon="16.1295467"><ele>186.0</ele><time>2026-04-27T10:28:13.69Z</time></trkpt><trkpt lat="39.0482567" lon="16.1295333"><ele>186.0</ele><time>2026-04-27T10:28:14.729Z</time></trkpt><trkpt lat="39.0483617" lon="16.1295217"><ele>186.0</ele><time>2026-04-27T10:28:15.686Z</time></trkpt><trkpt lat="39.0484583" lon="16.1295033"><ele>186.0</ele><time>2026-04-27T10:28:16.688Z</time></trkpt><trkpt lat="39.0485533" lon="16.1294667"><ele>186.0</ele><time>2026-04-27T10:28:17.687Z</time></trkpt><trkpt lat="39.0486417" lon="16.12941"><ele>183.33333333333334</ele><time>2026-04-27T10:28:18.687Z</time></trkpt><trkpt lat="39.0487217" lon="16.1293533"><ele>180.66666666666666</ele><time>2026-04-27T10:28:19.686Z</time></trkpt><trkpt lat="39.0488033" lon="16.1293117"><ele>178.0</ele><time>2026-04-27T10:28:20.728Z</time></trkpt><trkpt lat="39.0488833" lon="16.1292867"><ele>175.33333333333331</ele><time>2026-04-27T10:28:21.681Z</time></trkpt><trkpt lat="39.0489717" lon="16.1292867"><ele>172.66666666666666</ele><time>2026-04-27T10:28:22.689Z</time></trkpt><trkpt lat="39.049065" lon="16.129305"><ele>170.0</ele><time>2026-04-27T10:28:23.686Z</time></trkpt><trkpt lat="39.04916" lon="16.1293117"><ele>169.2</ele><time>2026-04-27T10:28:24.693Z</time></trkpt><trkpt lat="39.0492533" lon="16.1293017"><ele>168.4</ele><time>2026-04-27T10:28:25.687Z</time></trkpt><trkpt lat="39.049355" lon="16.129285"><ele>167.60000000000002</ele><time>2026-04-27T10:28:26.721Z</time></trkpt><trkpt lat="39.04947" lon="16.12928"><ele>166.8</ele><time>2026-04-27T10:28:27.691Z</time></trkpt><trkpt lat="39.0495967" lon="16.12929"><ele>166.0</ele><time>2026-04-27T10:28:28.685Z</time></trkpt><trkpt lat="39.049725" lon="16.129315"><ele>166.0</ele><time>2026-04-27T10:28:29.689Z</time></trkpt><trkpt lat="39.04984" lon="16.129345"><ele>166.0</ele><time>2026-04-27T10:28:30.692Z</time></trkpt><trkpt lat="39.04994" lon="16.1293533"><ele>166.0</ele><time>2026-04-27T10:28:31.684Z</time></trkpt><trkpt lat="39.0500417" lon="16.1293533"><ele>166.0</ele><time>2026-04-27T10:28:32.739Z</time></trkpt><trkpt lat="39.0501533" lon="16.129345"><ele>166.0</ele><time>2026-04-27T10:28:33.69Z</time></trkpt><trkpt lat="39.05027" lon="16.129335"><ele>166.75</ele><time>2026-04-27T10:28:34.682Z</time></trkpt><trkpt lat="39.05039" lon="16.12932"><ele>167.5</ele><time>2026-04-27T10:28:35.691Z</time></trkpt><trkpt lat="39.0505117" lon="16.129285"><ele>168.25</ele><time>2026-04-27T10:28:36.685Z</time></trkpt><trkpt lat="39.0506283" lon="16.1292333"><ele>169.0</ele><time>2026-04-27T10:28:37.686Z</time></trkpt><trkpt lat="39.0507383" lon="16.1291633"><ele>168.25</ele><time>2026-04-27T10:28:38.719Z</time></trkpt><trkpt lat="39.0508483" lon="16.1290717"><ele>167.5</ele><time>2026-04-27T10:28:39.692Z</time></trkpt><trkpt lat="39.0509617" lon="16.128965"><ele>166.75</ele><time>2026-04-27T10:28:40.688Z</time></trkpt><trkpt lat="39.0510783" lon="16.1288483"><ele>166.0</ele><time>2026-04-27T10:28:41.683Z</time></trkpt><trkpt lat="39.051205" lon="16.1287267"><ele>166.0</ele><time>2026-04-27T10:28:42.686Z</time></trkpt><trkpt lat="39.0513433" lon="16.1285933"><ele>166.0</ele><time>2026-04-27T10:28:43.689Z</time></trkpt><trkpt lat="39.0514783" lon="16.1284517"><ele>166.0</ele><time>2026-04-27T10:28:44.728Z</time></trkpt><trkpt lat="39.0516017" lon="16.1283033"><ele>167.66666666666669</ele><time>2026-04-27T10:28:45.687Z</time></trkpt><trkpt lat="39.051715" lon="16.1281417"><ele>169.33333333333334</ele><time>2026-04-27T10:28:46.685Z</time></trkpt><trkpt lat="39.05182" lon="16.1279717"><ele>171.0</ele><time>2026-04-27T10:28:47.692Z</time></trkpt><trkpt lat="39.0519183" lon="16.1278017"><ele>171.0</ele><time>2026-04-27T10:28:48.683Z</time></trkpt><trkpt lat="39.0520083" lon="16.1276533"><ele>171.0</ele><time>2026-04-27T10:28:49.686Z</time></trkpt><trkpt lat="39.05209" lon="16.1275133"><ele>171.0</ele><time>2026-04-27T10:28:50.729Z</time></trkpt><trkpt lat="39.0521633" lon="16.127375"><ele>171.0</ele><time>2026-04-27T10:28:51.684Z</time></trkpt><trkpt lat="39.0522367" lon="16.1272383"><ele>169.5</ele><time>2026-04-27T10:28:52.686Z</time></trkpt><trkpt lat="39.0523083" lon="16.1271083"><ele>168.0</ele><time>2026-04-27T10:28:53.686Z</time></trkpt><trkpt lat="39.052385" lon="16.127"><ele>166.5</ele><time>2026-04-27T10:28:54.692Z</time></trkpt><trkpt lat="39.0524733" lon="16.1269067"><ele>165.0</ele><time>2026-04-27T10:28:55.689Z</time></trkpt><trkpt lat="39.0525783" lon="16.1268233"><ele>165.0</ele><time>2026-04-27T10:28:56.756Z</time></trkpt><trkpt lat="39.0526933" lon="16.1267483"><ele>165.0</ele><time>2026-04-27T10:28:57.682Z</time></trkpt><trkpt lat="39.0528" lon="16.12667"><ele>165.0</ele><time>2026-04-27T10:28:58.692Z</time></trkpt><trkpt lat="39.0529" lon="16.1265883"><ele>165.0</ele><time>2026-04-27T10:28:59.689Z</time></trkpt><trkpt lat="39.0529883" lon="16.1265083"><ele>163.4</ele><time>2026-04-27T10:29:00.696Z</time></trkpt><trkpt lat="39.0530733" lon="16.1264133"><ele>161.8</ele><time>2026-04-27T10:29:01.691Z</time></trkpt><trkpt lat="39.05315" lon="16.1263"><ele>160.2</ele><time>2026-04-27T10:29:02.739Z</time></trkpt><trkpt lat="39.0532133" lon="16.12619"><ele>158.6</ele><time>2026-04-27T10:29:03.684Z</time></trkpt><trkpt lat="39.0532617" lon="16.126085"><ele>157.0</ele><time>2026-04-27T10:29:04.686Z</time></trkpt><trkpt lat="39.053285" lon="16.1259867"><ele>157.0</ele><time>2026-04-27T10:29:05.693Z</time></trkpt><trkpt lat="39.05326" lon="16.1259017"><ele>157.0</ele><time>2026-04-27T10:29:06.687Z</time></trkpt><trkpt lat="39.0532217" lon="16.1257983"><ele>157.0</ele><time>2026-04-27T10:29:07.689Z</time></trkpt><trkpt lat="39.0531717" lon="16.12567"><ele>157.0</ele><time>2026-04-27T10:29:08.716Z</time></trkpt><trkpt lat="39.0531183" lon="16.125515"><ele>157.0</ele><time>2026-04-27T10:29:09.684Z</time></trkpt><trkpt lat="39.0530583" lon="16.1253333"><ele>155.0</ele><time>2026-04-27T10:29:10.684Z</time></trkpt><trkpt lat="39.053" lon="16.1251517"><ele>153.0</ele><time>2026-04-27T10:29:11.687Z</time></trkpt><trkpt lat="39.0529433" lon="16.1249833"><ele>151.0</ele><time>2026-04-27T10:29:12.687Z</time></trkpt><trkpt lat="39.0528867" lon="16.1248333"><ele>149.0</ele><time>2026-04-27T10:29:13.687Z</time></trkpt><trkpt lat="39.0528267" lon="16.124705"><ele>148.2</ele><time>2026-04-27T10:29:14.725Z</time></trkpt><trkpt lat="39.0527667" lon="16.124595"><ele>147.4</ele><time>2026-04-27T10:29:15.685Z</time></trkpt><trkpt lat="39.0527267" lon="16.1245"><ele>146.6</ele><time>2026-04-27T10:29:16.686Z</time></trkpt><trkpt lat="39.0527267" lon="16.1243833"><ele>145.8</ele><time>2026-04-27T10:29:18.684Z</time></trkpt><trkpt lat="39.0528" lon="16.12431"><ele>145.0</ele><time>2026-04-27T10:29:21.683Z</time></trkpt><trkpt lat="39.0527883" lon="16.1241617"><ele>145.0</ele><time>2026-04-27T10:29:23.685Z</time></trkpt><trkpt lat="39.05274" lon="16.1240333"><ele>145.0</ele><time>2026-04-27T10:29:24.689Z</time></trkpt><trkpt lat="39.052685" lon="16.123885"><ele>145.0</ele><time>2026-04-27T10:29:25.689Z</time></trkpt><trkpt lat="39.0526233" lon="16.12372"><ele>145.0</ele><time>2026-04-27T10:29:26.752Z</time></trkpt><trkpt lat="39.052545" lon="16.123545"><ele>141.0</ele><time>2026-04-27T10:29:27.681Z</time></trkpt><trkpt lat="39.0524467" lon="16.1233817"><ele>137.0</ele><time>2026-04-27T10:29:28.685Z</time></trkpt><trkpt lat="39.0523267" lon="16.123235"><ele>133.0</ele><time>2026-04-27T10:29:29.701Z</time></trkpt><trkpt lat="39.0521867" lon="16.1231167"><ele>133.0</ele><time>2026-04-27T10:29:30.689Z</time></trkpt><trkpt lat="39.05204" lon="16.123015"><ele>133.0</ele><time>2026-04-27T10:29:31.687Z</time></trkpt><trkpt lat="39.051895" lon="16.122945"><ele>133.0</ele><time>2026-04-27T10:29:32.738Z</time></trkpt><trkpt lat="39.0517383" lon="16.1229083"><ele>128.66666666666669</ele><time>2026-04-27T10:29:33.685Z</time></trkpt><trkpt lat="39.05158" lon="16.122885"><ele>124.33333333333334</ele><time>2026-04-27T10:29:34.68Z</time></trkpt><trkpt lat="39.05142" lon="16.1228917"><ele>120.0</ele><time>2026-04-27T10:29:35.679Z</time></trkpt><trkpt lat="39.05128" lon="16.1229083"><ele>120.0</ele><time>2026-04-27T10:29:36.681Z</time></trkpt><trkpt lat="39.0509833" lon="16.12293"><ele>120.0</ele><time>2026-04-27T10:29:38.729Z</time></trkpt><trkpt lat="39.0508117" lon="16.1229433"><ele>116.33333333333334</ele><time>2026-04-27T10:29:39.683Z</time></trkpt><trkpt lat="39.050635" lon="16.1229633"><ele>112.66666666666667</ele><time>2026-04-27T10:29:40.691Z</time></trkpt><trkpt lat="39.0504667" lon="16.1229867"><ele>109.0</ele><time>2026-04-27T10:29:41.687Z</time></trkpt><trkpt lat="39.0503117" lon="16.12303"><ele>109.0</ele><time>2026-04-27T10:29:42.686Z</time></trkpt><trkpt lat="39.050175" lon="16.1231167"><ele>109.0</ele><time>2026-04-27T10:29:43.685Z</time></trkpt><trkpt lat="39.050055" lon="16.1232467"><ele>109.0</ele><time>2026-04-27T10:29:44.726Z</time></trkpt><trkpt lat="39.04995" lon="16.1234017"><ele>106.0</ele><time>2026-04-27T10:29:45.686Z</time></trkpt><trkpt lat="39.049855" lon="16.1235867"><ele>103.0</ele><time>2026-04-27T10:29:46.69Z</time></trkpt><trkpt lat="39.0497683" lon="16.1238"><ele>100.0</ele><time>2026-04-27T10:29:47.683Z</time></trkpt><trkpt lat="39.049685" lon="16.12401"><ele>102.33333333333334</ele><time>2026-04-27T10:29:48.686Z</time></trkpt><trkpt lat="39.0495983" lon="16.1242067"><ele>104.66666666666666</ele><time>2026-04-27T10:29:49.686Z</time></trkpt><trkpt lat="39.0495067" lon="16.1243817"><ele>107.0</ele><time>2026-04-27T10:29:50.728Z</time></trkpt><trkpt lat="39.0494033" lon="16.1245217"><ele>107.0</ele><time>2026-04-27T10:29:51.689Z</time></trkpt><trkpt lat="39.0492833" lon="16.1246217"><ele>107.0</ele><time>2026-04-27T10:29:52.69Z</time></trkpt><trkpt lat="39.0491467" lon="16.1246617"><ele>107.0</ele><time>2026-04-27T10:29:53.686Z</time></trkpt><trkpt lat="39.0490067" lon="16.124645"><ele>107.0</ele><time>2026-04-27T10:29:54.696Z</time></trkpt><trkpt lat="39.04887" lon="16.1245717"><ele>106.33333333333333</ele><time>2026-04-27T10:29:55.683Z</time></trkpt><trkpt lat="39.0487383" lon="16.124465"><ele>105.66666666666666</ele><time>2026-04-27T10:29:56.754Z</time></trkpt><trkpt lat="39.0486167" lon="16.1243367"><ele>105.0</ele><time>2026-04-27T10:29:57.682Z</time></trkpt><trkpt lat="39.0484967" lon="16.1242"><ele>105.0</ele><time>2026-04-27T10:29:58.691Z</time></trkpt><trkpt lat="39.04836" lon="16.1240717"><ele>105.0</ele><time>2026-04-27T10:29:59.687Z</time></trkpt><trkpt lat="39.0482117" lon="16.1239533"><ele>105.0</ele><time>2026-04-27T10:30:00.691Z</time></trkpt><trkpt lat="39.0480617" lon="16.1238367"><ele>102.66666666666666</ele><time>2026-04-27T10:30:01.692Z</time></trkpt><trkpt lat="39.047915" lon="16.1237167"><ele>100.33333333333333</ele><time>2026-04-27T10:30:02.752Z</time></trkpt><trkpt lat="39.0477883" lon="16.1235867"><ele>98.0</ele><time>2026-04-27T10:30:03.687Z</time></trkpt><trkpt lat="39.04768" lon="16.12344"><ele>98.0</ele><time>2026-04-27T10:30:04.686Z</time></trkpt><trkpt lat="39.0476167" lon="16.123265"><ele>98.0</ele><time>2026-04-27T10:30:05.687Z</time></trkpt><trkpt lat="39.0476033" lon="16.12309"><ele>98.0</ele><time>2026-04-27T10:30:06.693Z</time></trkpt><trkpt lat="39.047625" lon="16.1229283"><ele>98.0</ele><time>2026-04-27T10:30:07.687Z</time></trkpt><trkpt lat="39.047675" lon="16.1227667"><ele>94.0</ele><time>2026-04-27T10:30:08.718Z</time></trkpt><trkpt lat="39.0477583" lon="16.1226133"><ele>90.0</ele><time>2026-04-27T10:30:09.687Z</time></trkpt><trkpt lat="39.0478517" lon="16.1224617"><ele>86.0</ele><time>2026-04-27T10:30:10.689Z</time></trkpt><trkpt lat="39.0479833" lon="16.1223117"><ele>83.0</ele><time>2026-04-27T10:30:11.687Z</time></trkpt><trkpt lat="39.048125" lon="16.1221517"><ele>80.0</ele><time>2026-04-27T10:30:12.688Z</time></trkpt><trkpt lat="39.0482617" lon="16.121975"><ele>77.0</ele><time>2026-04-27T10:30:13.685Z</time></trkpt><trkpt lat="39.04838" lon="16.1217867"><ele>77.0</ele><time>2026-04-27T10:30:14.725Z</time></trkpt><trkpt lat="39.0484583" lon="16.1215817"><ele>77.0</ele><time>2026-04-27T10:30:15.682Z</time></trkpt><trkpt lat="39.048515" lon="16.12136"><ele>77.0</ele><time>2026-04-27T10:30:16.684Z</time></trkpt><trkpt lat="39.0485467" lon="16.1211267"><ele>74.66666666666667</ele><time>2026-04-27T10:30:17.689Z</time></trkpt><trkpt lat="39.04856" lon="16.1208883"><ele>72.33333333333333</ele><time>2026-04-27T10:30:18.692Z</time></trkpt><trkpt lat="39.04855" lon="16.1206633"><ele>70.0</ele><time>2026-04-27T10:30:19.691Z</time></trkpt><trkpt lat="39.0485083" lon="16.1204583"><ele>69.25</ele><time>2026-04-27T10:30:20.726Z</time></trkpt><trkpt lat="39.0484417" lon="16.1202783"><ele>68.5</ele><time>2026-04-27T10:30:21.682Z</time></trkpt><trkpt lat="39.0483517" lon="16.1201383"><ele>67.75</ele><time>2026-04-27T10:30:22.684Z</time></trkpt><trkpt lat="39.0482467" lon="16.120025"><ele>67.0</ele><time>2026-04-27T10:30:23.689Z</time></trkpt><trkpt lat="39.0481383" lon="16.119895"><ele>62.666666666666664</ele><time>2026-04-27T10:30:24.694Z</time></trkpt><trkpt lat="39.0480417" lon="16.1197417"><ele>58.33333333333333</ele><time>2026-04-27T10:30:25.691Z</time></trkpt><trkpt lat="39.0479517" lon="16.1195683"><ele>54.0</ele><time>2026-04-27T10:30:26.753Z</time></trkpt><trkpt lat="39.0478667" lon="16.1193683"><ele>54.0</ele><time>2026-04-27T10:30:27.68Z</time></trkpt><trkpt lat="39.0477933" lon="16.1191483"><ele>54.0</ele><time>2026-04-27T10:30:28.689Z</time></trkpt><trkpt lat="39.0477183" lon="16.1189233"><ele>54.0</ele><time>2026-04-27T10:30:29.686Z</time></trkpt><trkpt lat="39.04765" lon="16.1186917"><ele>53.66666666666667</ele><time>2026-04-27T10:30:30.69Z</time></trkpt><trkpt lat="39.0475933" lon="16.1184583"><ele>53.333333333333336</ele><time>2026-04-27T10:30:31.688Z</time></trkpt><trkpt lat="39.04755" lon="16.1182183"><ele>53.0</ele><time>2026-04-27T10:30:32.74Z</time></trkpt><trkpt lat="39.0475217" lon="16.1179683"><ele>52.0</ele><time>2026-04-27T10:30:33.687Z</time></trkpt><trkpt lat="39.0475" lon="16.117715"><ele>51.0</ele><time>2026-04-27T10:30:34.69Z</time></trkpt><trkpt lat="39.047475" lon="16.1174667"><ele>50.0</ele><time>2026-04-27T10:30:35.685Z</time></trkpt><trkpt lat="39.0474583" lon="16.1172317"><ele>47.66666666666667</ele><time>2026-04-27T10:30:36.696Z</time></trkpt><trkpt lat="39.047455" lon="16.1170117"><ele>45.333333333333336</ele><time>2026-04-27T10:30:37.687Z</time></trkpt><trkpt lat="39.0475" lon="16.11683"><ele>43.0</ele><time>2026-04-27T10:30:38.725Z</time></trkpt><trkpt lat="39.0475667" lon="16.1166567"><ele>41.333333333333336</ele><time>2026-04-27T10:30:39.681Z</time></trkpt><trkpt lat="39.04768" lon="16.1165017"><ele>39.666666666666664</ele><time>2026-04-27T10:30:40.686Z</time></trkpt><trkpt lat="39.0478083" lon="16.1163467"><ele>38.0</ele><time>2026-04-27T10:30:41.685Z</time></trkpt><trkpt lat="39.0479467" lon="16.1161917"><ele>38.0</ele><time>2026-04-27T10:30:42.689Z</time></trkpt><trkpt lat="39.0480833" lon="16.1160333"><ele>38.0</ele><time>2026-04-27T10:30:43.683Z</time></trkpt><trkpt lat="39.0482117" lon="16.1158717"><ele>38.0</ele><time>2026-04-27T10:30:44.732Z</time></trkpt><trkpt lat="39.0483233" lon="16.1156983"><ele>36.33333333333333</ele><time>2026-04-27T10:30:45.687Z</time></trkpt><trkpt lat="39.0484067" lon="16.1155083"><ele>34.666666666666664</ele><time>2026-04-27T10:30:46.69Z</time></trkpt><trkpt lat="39.048455" lon="16.11531"><ele>33.0</ele><time>2026-04-27T10:30:47.686Z</time></trkpt><trkpt lat="39.0484733" lon="16.1151167"><ele>33.0</ele><time>2026-04-27T10:30:48.692Z</time></trkpt><trkpt lat="39.0484617" lon="16.1149567"><ele>33.0</ele><time>2026-04-27T10:30:49.701Z</time></trkpt><trkpt lat="39.0483983" lon="16.1148967"><ele>33.0</ele><time>2026-04-27T10:30:50.719Z</time></trkpt><trkpt lat="39.0483233" lon="16.1148267"><ele>33.0</ele><time>2026-04-27T10:30:52.686Z</time></trkpt><trkpt lat="39.048235" lon="16.11482"><ele>33.0</ele><time>2026-04-27T10:30:54.69Z</time></trkpt><trkpt lat="39.048185" lon="16.1148833"><ele>33.0</ele><time>2026-04-27T10:30:55.685Z</time></trkpt><trkpt lat="39.04812" lon="16.1149617"><ele>33.0</ele><time>2026-04-27T10:30:56.708Z</time></trkpt><trkpt lat="39.0480317" lon="16.1150633"><ele>33.0</ele><time>2026-04-27T10:30:57.685Z</time></trkpt><trkpt lat="39.04791" lon="16.1152067"><ele>33.0</ele><time>2026-04-27T10:30:58.686Z</time></trkpt><trkpt lat="39.04778" lon="16.1153533"><ele>33.0</ele><time>2026-04-27T10:30:59.686Z</time></trkpt><trkpt lat="39.0476383" lon="16.1155117"><ele>33.0</ele><time>2026-04-27T10:31:00.688Z</time></trkpt><trkpt lat="39.0474833" lon="16.11568"><ele>33.0</ele><time>2026-04-27T10:31:01.686Z</time></trkpt><trkpt lat="39.04732" lon="16.1158533"><ele>33.666666666666664</ele><time>2026-04-27T10:31:02.731Z</time></trkpt><trkpt lat="39.04716" lon="16.11602"><ele>34.33333333333333</ele><time>2026-04-27T10:31:03.681Z</time></trkpt><trkpt lat="39.0470183" lon="16.11617"><ele>35.0</ele><time>2026-04-27T10:31:04.683Z</time></trkpt><trkpt lat="39.0469033" lon="16.1163233"><ele>35.0</ele><time>2026-04-27T10:31:05.679Z</time></trkpt><trkpt lat="39.0468233" lon="16.1164917"><ele>35.0</ele><time>2026-04-27T10:31:06.69Z</time></trkpt><trkpt lat="39.0467817" lon="16.1166933"><ele>35.0</ele><time>2026-04-27T10:31:07.688Z</time></trkpt><trkpt lat="39.04675" lon="16.1169167"><ele>36.0</ele><time>2026-04-27T10:31:08.724Z</time></trkpt><trkpt lat="39.04672" lon="16.1171517"><ele>37.0</ele><time>2026-04-27T10:31:09.688Z</time></trkpt><trkpt lat="39.0466867" lon="16.1173867"><ele>38.0</ele><time>2026-04-27T10:31:10.692Z</time></trkpt><trkpt lat="39.0466517" lon="16.117605"><ele>34.0</ele><time>2026-04-27T10:31:11.688Z</time></trkpt><trkpt lat="39.04662" lon="16.1178083"><ele>30.0</ele><time>2026-04-27T10:31:12.687Z</time></trkpt><trkpt lat="39.0465883" lon="16.1179933"><ele>26.0</ele><time>2026-04-27T10:31:13.682Z</time></trkpt><trkpt lat="39.046565" lon="16.1181733"><ele>27.0</ele><time>2026-04-27T10:31:14.725Z</time></trkpt><trkpt lat="39.04656" lon="16.1183567"><ele>28.0</ele><time>2026-04-27T10:31:15.686Z</time></trkpt><trkpt lat="39.0465533" lon="16.1185367"><ele>29.0</ele><time>2026-04-27T10:31:16.689Z</time></trkpt><trkpt lat="39.0465333" lon="16.1187017"><ele>30.0</ele><time>2026-04-27T10:31:17.686Z</time></trkpt><trkpt lat="39.0464817" lon="16.11884"><ele>30.0</ele><time>2026-04-27T10:31:18.69Z</time></trkpt><trkpt lat="39.0464217" lon="16.1189633"><ele>30.0</ele><time>2026-04-27T10:31:19.684Z</time></trkpt><trkpt lat="39.0463283" lon="16.1190317"><ele>30.0</ele><time>2026-04-27T10:31:20.726Z</time></trkpt><trkpt lat="39.0462233" lon="16.1190783"><ele>30.0</ele><time>2026-04-27T10:31:21.684Z</time></trkpt><trkpt lat="39.0461117" lon="16.1191017"><ele>30.0</ele><time>2026-04-27T10:31:22.688Z</time></trkpt><trkpt lat="39.0459867" lon="16.119075"><ele>30.0</ele><time>2026-04-27T10:31:23.682Z</time></trkpt><trkpt lat="39.0458333" lon="16.118995"><ele>30.0</ele><time>2026-04-27T10:31:24.693Z</time></trkpt><trkpt lat="39.045665" lon="16.118905"><ele>30.0</ele><time>2026-04-27T10:31:25.686Z</time></trkpt><trkpt lat="39.045495" lon="16.118825"><ele>30.333333333333336</ele><time>2026-04-27T10:31:26.753Z</time></trkpt><trkpt lat="39.04532" lon="16.11876"><ele>30.666666666666668</ele><time>2026-04-27T10:31:27.68Z</time></trkpt><trkpt lat="39.0451367" lon="16.1186933"><ele>31.0</ele><time>2026-04-27T10:31:28.685Z</time></trkpt><trkpt lat="39.04495" lon="16.1186217"><ele>32.333333333333336</ele><time>2026-04-27T10:31:29.688Z</time></trkpt><trkpt lat="39.04476" lon="16.1185517"><ele>33.666666666666664</ele><time>2026-04-27T10:31:30.686Z</time></trkpt><trkpt lat="39.04458" lon="16.11848"><ele>35.0</ele><time>2026-04-27T10:31:31.688Z</time></trkpt><trkpt lat="39.04441" lon="16.1184167"><ele>35.0</ele><time>2026-04-27T10:31:32.746Z</time></trkpt><trkpt lat="39.0442583" lon="16.1183633"><ele>35.0</ele><time>2026-04-27T10:31:33.681Z</time></trkpt><trkpt lat="39.04412" lon="16.1183317"><ele>35.0</ele><time>2026-04-27T10:31:34.683Z</time></trkpt><trkpt lat="39.0439917" lon="16.118325"><ele>35.0</ele><time>2026-04-27T10:31:35.681Z</time></trkpt><trkpt lat="39.0438667" lon="16.1183533"><ele>32.75</ele><time>2026-04-27T10:31:36.688Z</time></trkpt><trkpt lat="39.0437483" lon="16.1184233"><ele>30.5</ele><time>2026-04-27T10:31:37.689Z</time></trkpt><trkpt lat="39.0436217" lon="16.1185033"><ele>28.25</ele><time>2026-04-27T10:31:38.723Z</time></trkpt><trkpt lat="39.0434833" lon="16.1186"><ele>26.0</ele><time>2026-04-27T10:31:39.679Z</time></trkpt><trkpt lat="39.04332" lon="16.1186983"><ele>24.666666666666664</ele><time>2026-04-27T10:31:40.688Z</time></trkpt><trkpt lat="39.0431417" lon="16.1187817"><ele>23.333333333333332</ele><time>2026-04-27T10:31:41.684Z</time></trkpt><trkpt lat="39.0429717" lon="16.1188433"><ele>22.0</ele><time>2026-04-27T10:31:42.689Z</time></trkpt><trkpt lat="39.0428517" lon="16.1188817"><ele>22.0</ele><time>2026-04-27T10:31:43.685Z</time></trkpt><trkpt lat="39.0427567" lon="16.1188983"><ele>22.0</ele><time>2026-04-27T10:31:44.727Z</time></trkpt><trkpt lat="39.0426583" lon="16.1189"><ele>22.0</ele><time>2026-04-27T10:31:45.684Z</time></trkpt><trkpt lat="39.042545" lon="16.1189033"><ele>22.0</ele><time>2026-04-27T10:31:46.687Z</time></trkpt><trkpt lat="39.0424333" lon="16.1188933"><ele>22.0</ele><time>2026-04-27T10:31:47.688Z</time></trkpt><trkpt lat="39.0423217" lon="16.1188783"><ele>21.5</ele><time>2026-04-27T10:31:48.693Z</time></trkpt><trkpt lat="39.0422217" lon="16.1188617"><ele>21.0</ele><time>2026-04-27T10:31:49.694Z</time></trkpt><trkpt lat="39.0421367" lon="16.118835"><ele>20.5</ele><time>2026-04-27T10:31:50.72Z</time></trkpt><trkpt lat="39.0420783" lon="16.1188"><ele>20.0</ele><time>2026-04-27T10:31:51.685Z</time></trkpt><trkpt lat="39.042025" lon="16.1187483"><ele>19.5</ele><time>2026-04-27T10:31:52.688Z</time></trkpt><trkpt lat="39.042015" lon="16.1186433"><ele>19.0</ele><time>2026-04-27T10:31:53.688Z</time></trkpt><trkpt lat="39.0420067" lon="16.1185183"><ele>19.0</ele><time>2026-04-27T10:31:54.682Z</time></trkpt><trkpt lat="39.0420067" lon="16.1183483"><ele>19.0</ele><time>2026-04-27T10:31:55.684Z</time></trkpt><trkpt lat="39.042005" lon="16.1181617"><ele>19.0</ele><time>2026-04-27T10:31:56.753Z</time></trkpt><trkpt lat="39.04199" lon="16.11796"><ele>19.0</ele><time>2026-04-27T10:31:57.684Z</time></trkpt><trkpt lat="39.0419767" lon="16.1177483"><ele>18.666666666666664</ele><time>2026-04-27T10:31:58.691Z</time></trkpt><trkpt lat="39.04197" lon="16.11754"><ele>18.333333333333332</ele><time>2026-04-27T10:31:59.685Z</time></trkpt><trkpt lat="39.0419717" lon="16.11734"><ele>18.0</ele><time>2026-04-27T10:32:00.686Z</time></trkpt><trkpt lat="39.0419717" lon="16.1171467"><ele>18.0</ele><time>2026-04-27T10:32:01.682Z</time></trkpt><trkpt lat="39.0419667" lon="16.1169583"><ele>18.0</ele><time>2026-04-27T10:32:02.731Z</time></trkpt><trkpt lat="39.0419533" lon="16.1167717"><ele>18.0</ele><time>2026-04-27T10:32:03.684Z</time></trkpt><trkpt lat="39.04194" lon="16.1165917"><ele>18.0</ele><time>2026-04-27T10:32:04.692Z</time></trkpt><trkpt lat="39.0419267" lon="16.1164183"><ele>17.25</ele><time>2026-04-27T10:32:05.683Z</time></trkpt><trkpt lat="39.041915" lon="16.1162433"><ele>16.5</ele><time>2026-04-27T10:32:06.688Z</time></trkpt><trkpt lat="39.0419083" lon="16.11607"><ele>15.75</ele><time>2026-04-27T10:32:07.686Z</time></trkpt><trkpt lat="39.0419083" lon="16.1159067"><ele>15.0</ele><time>2026-04-27T10:32:08.728Z</time></trkpt><trkpt lat="39.0419067" lon="16.1157483"><ele>14.5</ele><time>2026-04-27T10:32:09.688Z</time></trkpt><trkpt lat="39.0419033" lon="16.1155917"><ele>14.0</ele><time>2026-04-27T10:32:10.683Z</time></trkpt><trkpt lat="39.0418933" lon="16.1154267"><ele>13.5</ele><time>2026-04-27T10:32:11.699Z</time></trkpt><trkpt lat="39.0418683" lon="16.1152683"><ele>13.0</ele><time>2026-04-27T10:32:12.688Z</time></trkpt><trkpt lat="39.04183" lon="16.1151367"><ele>13.0</ele><time>2026-04-27T10:32:13.69Z</time></trkpt><trkpt lat="39.0417917" lon="16.11502"><ele>13.0</ele><time>2026-04-27T10:32:14.728Z</time></trkpt><trkpt lat="39.0417567" lon="16.1149"><ele>13.0</ele><time>2026-04-27T10:32:15.681Z</time></trkpt><trkpt lat="39.0417317" lon="16.1147617"><ele>13.0</ele><time>2026-04-27T10:32:16.689Z</time></trkpt><trkpt lat="39.0417133" lon="16.11461"><ele>13.0</ele><time>2026-04-27T10:32:17.689Z</time></trkpt><trkpt lat="39.0417033" lon="16.114435"><ele>13.25</ele><time>2026-04-27T10:32:18.69Z</time></trkpt><trkpt lat="39.0416883" lon="16.1142467"><ele>13.5</ele><time>2026-04-27T10:32:19.677Z</time></trkpt><trkpt lat="39.0416683" lon="16.114055"><ele>13.75</ele><time>2026-04-27T10:32:20.742Z</time></trkpt><trkpt lat="39.04165" lon="16.113865"><ele>14.0</ele><time>2026-04-27T10:32:21.685Z</time></trkpt><trkpt lat="39.04163" lon="16.1136767"><ele>13.0</ele><time>2026-04-27T10:32:22.696Z</time></trkpt><trkpt lat="39.0416067" lon="16.1134933"><ele>12.0</ele><time>2026-04-27T10:32:23.685Z</time></trkpt><trkpt lat="39.0415867" lon="16.1133167"><ele>11.0</ele><time>2026-04-27T10:32:24.696Z</time></trkpt><trkpt lat="39.0415667" lon="16.1131467"><ele>10.0</ele><time>2026-04-27T10:32:25.683Z</time></trkpt><trkpt lat="39.0415467" lon="16.1129767"><ele>9.75</ele><time>2026-04-27T10:32:26.757Z</time></trkpt><trkpt lat="39.04152" lon="16.1128083"><ele>9.5</ele><time>2026-04-27T10:32:27.683Z</time></trkpt><trkpt lat="39.0414883" lon="16.1126433"><ele>9.25</ele><time>2026-04-27T10:32:28.688Z</time></trkpt><trkpt lat="39.0414567" lon="16.112485"><ele>9.0</ele><time>2026-04-27T10:32:29.687Z</time></trkpt><trkpt lat="39.041425" lon="16.1123267"><ele>9.5</ele><time>2026-04-27T10:32:30.69Z</time></trkpt><trkpt lat="39.0413933" lon="16.11217"><ele>10.0</ele><time>2026-04-27T10:32:31.687Z</time></trkpt><trkpt lat="39.041355" lon="16.1120133"><ele>10.5</ele><time>2026-04-27T10:32:32.741Z</time></trkpt><trkpt lat="39.0413117" lon="16.111855"><ele>11.0</ele><time>2026-04-27T10:32:33.685Z</time></trkpt><trkpt lat="39.041265" lon="16.1116967"><ele>11.25</ele><time>2026-04-27T10:32:34.692Z</time></trkpt><trkpt lat="39.0412233" lon="16.111545"><ele>11.5</ele><time>2026-04-27T10:32:35.688Z</time></trkpt><trkpt lat="39.0411833" lon="16.1113933"><ele>11.75</ele><time>2026-04-27T10:32:36.687Z</time></trkpt><trkpt lat="39.0411433" lon="16.11124"><ele>12.0</ele><time>2026-04-27T10:32:37.68Z</time></trkpt><trkpt lat="39.0410967" lon="16.1110867"><ele>12.0</ele><time>2026-04-27T10:32:38.725Z</time></trkpt><trkpt lat="39.0410467" lon="16.1109333"><ele>12.0</ele><time>2026-04-27T10:32:39.688Z</time></trkpt><trkpt lat="39.0409933" lon="16.1107733"><ele>12.0</ele><time>2026-04-27T10:32:40.692Z</time></trkpt><trkpt lat="39.0409417" lon="16.1106133"><ele>12.0</ele><time>2026-04-27T10:32:41.679Z</time></trkpt><trkpt lat="39.0408883" lon="16.110455"><ele>11.5</ele><time>2026-04-27T10:32:42.69Z</time></trkpt><trkpt lat="39.040835" lon="16.110295"><ele>11.0</ele><time>2026-04-27T10:32:43.68Z</time></trkpt><trkpt lat="39.0407733" lon="16.11014"><ele>10.5</ele><time>2026-04-27T10:32:44.723Z</time></trkpt><trkpt lat="39.0407067" lon="16.1099833"><ele>10.0</ele><time>2026-04-27T10:32:45.682Z</time></trkpt><trkpt lat="39.0406333" lon="16.1098283"><ele>9.666666666666668</ele><time>2026-04-27T10:32:46.687Z</time></trkpt><trkpt lat="39.0405517" lon="16.1096683"><ele>9.333333333333334</ele><time>2026-04-27T10:32:47.704Z</time></trkpt><trkpt lat="39.0404633" lon="16.1094917"><ele>9.0</ele><time>2026-04-27T10:32:48.687Z</time></trkpt><trkpt lat="39.04037" lon="16.109305"><ele>9.0</ele><time>2026-04-27T10:32:49.687Z</time></trkpt><trkpt lat="39.04027" lon="16.1091067"><ele>9.0</ele><time>2026-04-27T10:32:50.717Z</time></trkpt><trkpt lat="39.0401617" lon="16.108905"><ele>9.0</ele><time>2026-04-27T10:32:51.686Z</time></trkpt><trkpt lat="39.0400517" lon="16.1087133"><ele>9.666666666666666</ele><time>2026-04-27T10:32:52.69Z</time></trkpt><trkpt lat="39.0399367" lon="16.108535"><ele>10.333333333333332</ele><time>2026-04-27T10:32:53.689Z</time></trkpt><trkpt lat="39.0398233" lon="16.108365"><ele>11.0</ele><time>2026-04-27T10:32:54.693Z</time></trkpt><trkpt lat="39.0397167" lon="16.1082067"><ele>11.333333333333332</ele><time>2026-04-27T10:32:55.681Z</time></trkpt><trkpt lat="39.03961" lon="16.1080583"><ele>11.666666666666666</ele><time>2026-04-27T10:32:56.747Z</time></trkpt><trkpt lat="39.0395" lon="16.1079133"><ele>12.0</ele><time>2026-04-27T10:32:57.678Z</time></trkpt><trkpt lat="39.0393883" lon="16.1077717"><ele>12.0</ele><time>2026-04-27T10:32:58.683Z</time></trkpt><trkpt lat="39.0392733" lon="16.1076317"><ele>12.0</ele><time>2026-04-27T10:32:59.689Z</time></trkpt><trkpt lat="39.039165" lon="16.1075033"><ele>12.0</ele><time>2026-04-27T10:33:00.687Z</time></trkpt><trkpt lat="39.03905" lon="16.1073783"><ele>11.333333333333334</ele><time>2026-04-27T10:33:01.687Z</time></trkpt><trkpt lat="39.03893" lon="16.1072533"><ele>10.666666666666668</ele><time>2026-04-27T10:33:02.735Z</time></trkpt><trkpt lat="39.0388067" lon="16.1071183"><ele>10.0</ele><time>2026-04-27T10:33:03.686Z</time></trkpt><trkpt lat="39.03868" lon="16.10698"><ele>10.0</ele><time>2026-04-27T10:33:04.695Z</time></trkpt><trkpt lat="39.038555" lon="16.106845"><ele>10.0</ele><time>2026-04-27T10:33:05.689Z</time></trkpt><trkpt lat="39.0384233" lon="16.1067067"><ele>10.0</ele><time>2026-04-27T10:33:06.699Z</time></trkpt><trkpt lat="39.03829" lon="16.10657"><ele>9.666666666666668</ele><time>2026-04-27T10:33:07.685Z</time></trkpt><trkpt lat="39.0381567" lon="16.106435"><ele>9.333333333333334</ele><time>2026-04-27T10:33:08.725Z</time></trkpt><trkpt lat="39.0380283" lon="16.1063017"><ele>9.0</ele><time>2026-04-27T10:33:09.683Z</time></trkpt><trkpt lat="39.0379067" lon="16.1061733"><ele>9.0</ele><time>2026-04-27T10:33:10.686Z</time></trkpt><trkpt lat="39.0377867" lon="16.1060517"><ele>9.0</ele><time>2026-04-27T10:33:11.688Z</time></trkpt><trkpt lat="39.0376667" lon="16.105925"><ele>9.0</ele><time>2026-04-27T10:33:12.688Z</time></trkpt><trkpt lat="39.0375433" lon="16.1058"><ele>8.666666666666666</ele><time>2026-04-27T10:33:13.692Z</time></trkpt><trkpt lat="39.0374183" lon="16.1056733"><ele>8.333333333333332</ele><time>2026-04-27T10:33:14.722Z</time></trkpt><trkpt lat="39.0372967" lon="16.10555"><ele>8.0</ele><time>2026-04-27T10:33:15.683Z</time></trkpt><trkpt lat="39.0371733" lon="16.105425"><ele>8.0</ele><time>2026-04-27T10:33:16.686Z</time></trkpt><trkpt lat="39.0370483" lon="16.1052967"><ele>8.0</ele><time>2026-04-27T10:33:17.685Z</time></trkpt><trkpt lat="39.036925" lon="16.1051667"><ele>8.0</ele><time>2026-04-27T10:33:18.684Z</time></trkpt><trkpt lat="39.0368067" lon="16.1050367"><ele>7.666666666666666</ele><time>2026-04-27T10:33:19.686Z</time></trkpt><trkpt lat="39.0366883" lon="16.1049117"><ele>7.333333333333334</ele><time>2026-04-27T10:33:20.724Z</time></trkpt><trkpt lat="39.0365717" lon="16.104795"><ele>7.0</ele><time>2026-04-27T10:33:21.679Z</time></trkpt><trkpt lat="39.0364483" lon="16.1046783"><ele>7.0</ele><time>2026-04-27T10:33:22.691Z</time></trkpt><trkpt lat="39.0363283" lon="16.1045583"><ele>7.0</ele><time>2026-04-27T10:33:23.688Z</time></trkpt><trkpt lat="39.0362117" lon="16.1044317"><ele>7.0</ele><time>2026-04-27T10:33:24.691Z</time></trkpt><trkpt lat="39.036095" lon="16.104305"><ele>7.0</ele><time>2026-04-27T10:33:25.684Z</time></trkpt><trkpt lat="39.035975" lon="16.1041783"><ele>7.0</ele><time>2026-04-27T10:33:26.758Z</time></trkpt><trkpt lat="39.0358567" lon="16.1040533"><ele>7.0</ele><time>2026-04-27T10:33:27.684Z</time></trkpt><trkpt lat="39.03574" lon="16.1039283"><ele>7.0</ele><time>2026-04-27T10:33:28.692Z</time></trkpt><trkpt lat="39.0356167" lon="16.1038017"><ele>7.0</ele><time>2026-04-27T10:33:29.69Z</time></trkpt><trkpt lat="39.0355033" lon="16.103685"><ele>7.0</ele><time>2026-04-27T10:33:30.687Z</time></trkpt><trkpt lat="39.03539" lon="16.1035733"><ele>7.0</ele><time>2026-04-27T10:33:31.683Z</time></trkpt><trkpt lat="39.0352817" lon="16.10347"><ele>7.0</ele><time>2026-04-27T10:33:32.726Z</time></trkpt><trkpt lat="39.035175" lon="16.1033633"><ele>7.0</ele><time>2026-04-27T10:33:33.679Z</time></trkpt><trkpt lat="39.0350633" lon="16.1032433"><ele>7.0</ele><time>2026-04-27T10:33:34.681Z</time></trkpt><trkpt lat="39.03495" lon="16.1031183"><ele>7.0</ele><time>2026-04-27T10:33:35.686Z</time></trkpt><trkpt lat="39.0348433" lon="16.1029983"><ele>7.0</ele><time>2026-04-27T10:33:36.68Z</time></trkpt><trkpt lat="39.0347383" lon="16.1028883"><ele>6.999999999999999</ele><time>2026-04-27T10:33:37.687Z</time></trkpt><trkpt lat="39.0346467" lon="16.102795"><ele>6.999999999999999</ele><time>2026-04-27T10:33:38.724Z</time></trkpt><trkpt lat="39.0345667" lon="16.10271"><ele>7.0</ele><time>2026-04-27T10:33:39.681Z</time></trkpt><trkpt lat="39.0344933" lon="16.1026367"><ele>7.0</ele><time>2026-04-27T10:33:40.69Z</time></trkpt><trkpt lat="39.03443" lon="16.1025833"><ele>7.0</ele><time>2026-04-27T10:33:41.685Z</time></trkpt><trkpt lat="39.034325" lon="16.102565"><ele>7.0</ele><time>2026-04-27T10:33:43.677Z</time></trkpt><trkpt lat="39.0342217" lon="16.102615"><ele>7.0</ele><time>2026-04-27T10:33:45.682Z</time></trkpt><trkpt lat="39.0341067" lon="16.102625"><ele>7.0</ele><time>2026-04-27T10:33:47.688Z</time></trkpt><trkpt lat="39.0340517" lon="16.10246"><ele>6.8</ele><time>2026-04-27T10:33:49.686Z</time></trkpt><trkpt lat="39.0340533" lon="16.1023317"><ele>6.6</ele><time>2026-04-27T10:33:50.719Z</time></trkpt><trkpt lat="39.0340667" lon="16.102195"><ele>6.3999999999999995</ele><time>2026-04-27T10:33:51.685Z</time></trkpt><trkpt lat="39.03409" lon="16.1020517"><ele>6.199999999999999</ele><time>2026-04-27T10:33:52.686Z</time></trkpt><trkpt lat="39.0341117" lon="16.1019117"><ele>6.0</ele><time>2026-04-27T10:33:53.691Z</time></trkpt><trkpt lat="39.0341283" lon="16.101785"><ele>6.0</ele><time>2026-04-27T10:33:54.689Z</time></trkpt><trkpt lat="39.03414" lon="16.101675"><ele>6.0</ele><time>2026-04-27T10:33:55.685Z</time></trkpt><trkpt lat="39.03407" lon="16.1016"><ele>6.0</ele><time>2026-04-27T10:34:04.687Z</time></trkpt><trkpt lat="39.0339983" lon="16.101625"><ele>6.0</ele><time>2026-04-27T10:34:05.683Z</time></trkpt><trkpt lat="39.033865" lon="16.1016817"><ele>6.0</ele><time>2026-04-27T10:34:06.688Z</time></trkpt><trkpt lat="39.033715" lon="16.10174"><ele>6.0</ele><time>2026-04-27T10:34:07.684Z</time></trkpt><trkpt lat="39.0335367" lon="16.10181"><ele>6.0</ele><time>2026-04-27T10:34:08.729Z</time></trkpt><trkpt lat="39.0333217" lon="16.1018933"><ele>6.0</ele><time>2026-04-27T10:34:09.687Z</time></trkpt><trkpt lat="39.0330967" lon="16.101975"><ele>6.0</ele><time>2026-04-27T10:34:10.692Z</time></trkpt><trkpt lat="39.0328667" lon="16.1020583"><ele>6.0</ele><time>2026-04-27T10:34:11.678Z</time></trkpt><trkpt lat="39.03265" lon="16.1021367"><ele>4.666666666666667</ele><time>2026-04-27T10:34:12.684Z</time></trkpt><trkpt lat="39.032455" lon="16.1022"><ele>3.333333333333333</ele><time>2026-04-27T10:34:13.693Z</time></trkpt><trkpt lat="39.03229" lon="16.1022483"><ele>2.0</ele><time>2026-04-27T10:34:14.723Z</time></trkpt><trkpt lat="39.0321817" lon="16.1022833"><ele>1.9999999999999998</ele><time>2026-04-27T10:34:15.679Z</time></trkpt><trkpt lat="39.03209" lon="16.102315"><ele>2.0</ele><time>2026-04-27T10:34:16.688Z</time></trkpt><trkpt lat="39.03201" lon="16.102345"><ele>2.0</ele><time>2026-04-27T10:34:17.687Z</time></trkpt><trkpt lat="39.03194" lon="16.10237"><ele>2.0</ele><time>2026-04-27T10:34:18.69Z</time></trkpt><trkpt lat="39.0318783" lon="16.1023883"><ele>1.9999999999999998</ele><time>2026-04-27T10:34:19.681Z</time></trkpt><trkpt lat="39.0318033" lon="16.10241"><ele>2.0</ele><time>2026-04-27T10:34:21.681Z</time></trkpt><trkpt lat="39.0318983" lon="16.1024517"><ele>1.9999999999999998</ele><time>2026-04-27T10:34:29.686Z</time></trkpt><trkpt lat="39.0319783" lon="16.1024217"><ele>2.0</ele><time>2026-04-27T10:34:30.688Z</time></trkpt><trkpt lat="39.0320617" lon="16.1023817"><ele>2.0</ele><time>2026-04-27T10:34:31.689Z</time></trkpt><trkpt lat="39.0321433" lon="16.1023433"><ele>2.0</ele><time>2026-04-27T10:34:32.752Z</time></trkpt><trkpt lat="39.03222" lon="16.10231"><ele>1.9999999999999998</ele><time>2026-04-27T10:34:33.683Z</time></trkpt><trkpt lat="39.032295" lon="16.1022817"><ele>2.0</ele><time>2026-04-27T10:34:34.691Z</time></trkpt><trkpt lat="39.0323567" lon="16.10225"><ele>1.9999999999999998</ele><time>2026-04-27T10:34:35.687Z</time></trkpt><trkpt lat="39.0324233" lon="16.1021667"><ele>2.0</ele><time>2026-04-27T10:34:37.687Z</time></trkpt><trkpt lat="39.032415" lon="16.1020717"><ele>2.0</ele><time>2026-04-27T10:34:38.724Z</time></trkpt><trkpt lat="39.03241" lon="16.1019617"><ele>2.0</ele><time>2026-04-27T10:34:39.681Z</time></trkpt><trkpt lat="39.0323967" lon="16.1018517"><ele>1.9999999999999998</ele><time>2026-04-27T10:34:40.684Z</time></trkpt><trkpt lat="39.0323767" lon="16.1017533"><ele>2.0</ele><time>2026-04-27T10:34:41.688Z</time></trkpt><trkpt lat="39.032355" lon="16.10167"><ele>1.9999999999999998</ele><time>2026-04-27T10:34:42.687Z</time></trkpt><trkpt lat="39.032425" lon="16.101645"><ele>2.0</ele><time>2026-04-27T10:34:46.69Z</time></trkpt><trkpt lat="39.032485" lon="16.1017567"><ele>2.0</ele><time>2026-04-27T10:34:48.688Z</time></trkpt><trkpt lat="39.032505" lon="16.1018483"><ele>2.0</ele><time>2026-04-27T10:34:49.694Z</time></trkpt><trkpt lat="39.0325383" lon="16.1019483"><ele>1.9999999999999998</ele><time>2026-04-27T10:34:50.725Z</time></trkpt><trkpt lat="39.0325717" lon="16.10205"><ele>2.0</ele><time>2026-04-27T10:34:51.687Z</time></trkpt><trkpt lat="39.0326133" lon="16.1021467"><ele>2.8</ele><time>2026-04-27T10:34:52.69Z</time></trkpt><trkpt lat="39.0326583" lon="16.1022467"><ele>3.6</ele><time>2026-04-27T10:34:53.686Z</time></trkpt><trkpt lat="39.0326983" lon="16.102335"><ele>4.3999999999999995</ele><time>2026-04-27T10:34:54.692Z</time></trkpt><trkpt lat="39.0327317" lon="16.1024367"><ele>5.2</ele><time>2026-04-27T10:34:55.685Z</time></trkpt><trkpt lat="39.032765" lon="16.1025617"><ele>6.0</ele><time>2026-04-27T10:34:56.76Z</time></trkpt><trkpt lat="39.032795" lon="16.1027"><ele>6.4</ele><time>2026-04-27T10:34:57.68Z</time></trkpt><trkpt lat="39.03283" lon="16.10284"><ele>6.8</ele><time>2026-04-27T10:34:58.688Z</time></trkpt><trkpt lat="39.03287" lon="16.1029733"><ele>7.200000000000001</ele><time>2026-04-27T10:34:59.681Z</time></trkpt><trkpt lat="39.0329083" lon="16.1031017"><ele>7.6000000000000005</ele><time>2026-04-27T10:35:00.689Z</time></trkpt><trkpt lat="39.0329417" lon="16.10323"><ele>8.0</ele><time>2026-04-27T10:35:01.686Z</time></trkpt><trkpt lat="39.0329733" lon="16.10336"><ele>8.0</ele><time>2026-04-27T10:35:02.733Z</time></trkpt><trkpt lat="39.0330033" lon="16.1034967"><ele>8.0</ele><time>2026-04-27T10:35:03.685Z</time></trkpt><trkpt lat="39.033035" lon="16.10364"><ele>8.0</ele><time>2026-04-27T10:35:04.687Z</time></trkpt><trkpt lat="39.03307" lon="16.1037883"><ele>8.0</ele><time>2026-04-27T10:35:05.68Z</time></trkpt><trkpt lat="39.03311" lon="16.1039467"><ele>7.75</ele><time>2026-04-27T10:35:06.68Z</time></trkpt><trkpt lat="39.0331517" lon="16.1041133"><ele>7.5</ele><time>2026-04-27T10:35:07.684Z</time></trkpt><trkpt lat="39.0331967" lon="16.1042917"><ele>7.25</ele><time>2026-04-27T10:35:08.72Z</time></trkpt><trkpt lat="39.0332383" lon="16.1044817"><ele>7.0</ele><time>2026-04-27T10:35:09.682Z</time></trkpt><trkpt lat="39.0332833" lon="16.1046817"><ele>6.666666666666667</ele><time>2026-04-27T10:35:10.685Z</time></trkpt><trkpt lat="39.033335" lon="16.10489"><ele>6.333333333333334</ele><time>2026-04-27T10:35:11.684Z</time></trkpt><trkpt lat="39.03339" lon="16.105105"><ele>6.0</ele><time>2026-04-27T10:35:12.691Z</time></trkpt><trkpt lat="39.0334467" lon="16.1053183"><ele>6.0</ele><time>2026-04-27T10:35:13.692Z</time></trkpt><trkpt lat="39.0334983" lon="16.10552"><ele>6.0</ele><time>2026-04-27T10:35:14.723Z</time></trkpt><trkpt lat="39.03355" lon="16.1057067"><ele>6.0</ele><time>2026-04-27T10:35:15.682Z</time></trkpt><trkpt lat="39.0335983" lon="16.10589"><ele>6.666666666666666</ele><time>2026-04-27T10:35:16.689Z</time></trkpt><trkpt lat="39.033635" lon="16.1060767"><ele>7.333333333333333</ele><time>2026-04-27T10:35:17.681Z</time></trkpt><trkpt lat="39.0336617" lon="16.1062733"><ele>8.0</ele><time>2026-04-27T10:35:18.687Z</time></trkpt><trkpt lat="39.0336883" lon="16.10648"><ele>8.666666666666666</ele><time>2026-04-27T10:35:19.684Z</time></trkpt><trkpt lat="39.0337233" lon="16.1066867"><ele>9.333333333333334</ele><time>2026-04-27T10:35:20.727Z</time></trkpt><trkpt lat="39.0337683" lon="16.1068917"><ele>10.0</ele><time>2026-04-27T10:35:21.68Z</time></trkpt><trkpt lat="39.0338167" lon="16.1070967"><ele>10.0</ele><time>2026-04-27T10:35:22.69Z</time></trkpt><trkpt lat="39.0338633" lon="16.1073083"><ele>10.0</ele><time>2026-04-27T10:35:23.681Z</time></trkpt><trkpt lat="39.0339067" lon="16.107525"><ele>10.0</ele><time>2026-04-27T10:35:24.678Z</time></trkpt><trkpt lat="39.0339533" lon="16.1077433"><ele>9.666666666666668</ele><time>2026-04-27T10:35:25.684Z</time></trkpt><trkpt lat="39.0340033" lon="16.1079617"><ele>9.333333333333334</ele><time>2026-04-27T10:35:26.73Z</time></trkpt><trkpt lat="39.0340533" lon="16.1081817"><ele>9.0</ele><time>2026-04-27T10:35:27.681Z</time></trkpt><trkpt lat="39.0341" lon="16.10841"><ele>9.333333333333334</ele><time>2026-04-27T10:35:28.687Z</time></trkpt><trkpt lat="39.0341483" lon="16.1086367"><ele>9.666666666666668</ele><time>2026-04-27T10:35:29.689Z</time></trkpt><trkpt lat="39.034195" lon="16.10886"><ele>10.0</ele><time>2026-04-27T10:35:30.687Z</time></trkpt><trkpt lat="39.0342417" lon="16.1090867"><ele>10.0</ele><time>2026-04-27T10:35:31.685Z</time></trkpt><trkpt lat="39.03429" lon="16.109315"><ele>10.0</ele><time>2026-04-27T10:35:32.732Z</time></trkpt><trkpt lat="39.0343383" lon="16.1095383"><ele>10.0</ele><time>2026-04-27T10:35:33.682Z</time></trkpt><trkpt lat="39.0343833" lon="16.1097467"><ele>10.0</ele><time>2026-04-27T10:35:34.693Z</time></trkpt><trkpt lat="39.0344183" lon="16.10994"><ele>10.0</ele><time>2026-04-27T10:35:35.683Z</time></trkpt><trkpt lat="39.034445" lon="16.1101183"><ele>10.0</ele><time>2026-04-27T10:35:36.688Z</time></trkpt><trkpt lat="39.0344617" lon="16.1102967"><ele>10.0</ele><time>2026-04-27T10:35:37.686Z</time></trkpt><trkpt lat="39.03447" lon="16.11049"><ele>10.0</ele><time>2026-04-27T10:35:38.727Z</time></trkpt><trkpt lat="39.0344767" lon="16.1106867"><ele>10.0</ele><time>2026-04-27T10:35:39.683Z</time></trkpt><trkpt lat="39.03448" lon="16.1108683"><ele>10.0</ele><time>2026-04-27T10:35:40.692Z</time></trkpt><trkpt lat="39.0344867" lon="16.1110217"><ele>10.0</ele><time>2026-04-27T10:35:41.683Z</time></trkpt><trkpt lat="39.0344917" lon="16.1111483"><ele>10.0</ele><time>2026-04-27T10:35:42.681Z</time></trkpt><trkpt lat="39.0344967" lon="16.1112383"><ele>10.0</ele><time>2026-04-27T10:35:43.687Z</time></trkpt><trkpt lat="39.0345267" lon="16.1113133"><ele>10.0</ele><time>2026-04-27T10:35:46.686Z</time></trkpt><trkpt lat="39.034575" lon="16.11137"><ele>10.0</ele><time>2026-04-27T10:35:48.688Z</time></trkpt><trkpt lat="39.034625" lon="16.11148"><ele>10.0</ele><time>2026-04-27T10:35:50.724Z</time></trkpt><trkpt lat="39.0346633" lon="16.1116167"><ele>10.0</ele><time>2026-04-27T10:35:52.688Z</time></trkpt><trkpt lat="39.0347133" lon="16.11176"><ele>10.0</ele><time>2026-04-27T10:35:54.69Z</time></trkpt><trkpt lat="39.0347567" lon="16.1118483"><ele>10.0</ele><time>2026-04-27T10:35:55.683Z</time></trkpt><trkpt lat="39.034815" lon="16.1119567"><ele>10.0</ele><time>2026-04-27T10:35:56.729Z</time></trkpt><trkpt lat="39.03488" lon="16.11207"><ele>10.0</ele><time>2026-04-27T10:35:57.686Z</time></trkpt><trkpt lat="39.0349433" lon="16.1121883"><ele>10.0</ele><time>2026-04-27T10:35:58.69Z</time></trkpt><trkpt lat="39.0350033" lon="16.112305"><ele>10.6</ele><time>2026-04-27T10:35:59.687Z</time></trkpt><trkpt lat="39.035055" lon="16.11241"><ele>11.2</ele><time>2026-04-27T10:36:00.685Z</time></trkpt><trkpt lat="39.0351117" lon="16.1125017"><ele>11.8</ele><time>2026-04-27T10:36:01.687Z</time></trkpt><trkpt lat="39.0351683" lon="16.1125933"><ele>12.4</ele><time>2026-04-27T10:36:02.727Z</time></trkpt><trkpt lat="39.0352217" lon="16.1127033"><ele>13.0</ele><time>2026-04-27T10:36:03.682Z</time></trkpt><trkpt lat="39.035285" lon="16.11283"><ele>13.0</ele><time>2026-04-27T10:36:04.688Z</time></trkpt><trkpt lat="39.03535" lon="16.1129733"><ele>13.0</ele><time>2026-04-27T10:36:05.684Z</time></trkpt><trkpt lat="39.0354133" lon="16.1131183"><ele>13.0</ele><time>2026-04-27T10:36:06.691Z</time></trkpt><trkpt lat="39.0354683" lon="16.1132433"><ele>13.0</ele><time>2026-04-27T10:36:07.686Z</time></trkpt><trkpt lat="39.0355133" lon="16.11334"><ele>13.499999999999998</ele><time>2026-04-27T10:36:08.721Z</time></trkpt><trkpt lat="39.035575" lon="16.1134383"><ele>14.0</ele><time>2026-04-27T10:36:09.682Z</time></trkpt><trkpt lat="39.03564" lon="16.1135383"><ele>14.5</ele><time>2026-04-27T10:36:10.684Z</time></trkpt><trkpt lat="39.0356983" lon="16.1136333"><ele>15.0</ele><time>2026-04-27T10:36:11.685Z</time></trkpt><trkpt lat="39.03574" lon="16.1137167"><ele>15.499999999999998</ele><time>2026-04-27T10:36:12.687Z</time></trkpt><trkpt lat="39.0357633" lon="16.1137983"><ele>16.0</ele><time>2026-04-27T10:36:13.686Z</time></trkpt><trkpt lat="39.03577" lon="16.11388"><ele>16.0</ele><time>2026-04-27T10:36:14.726Z</time></trkpt><trkpt lat="39.03573" lon="16.1139833"><ele>16.0</ele><time>2026-04-27T10:36:15.683Z</time></trkpt><trkpt lat="39.0356817" lon="16.1141017"><ele>16.0</ele><time>2026-04-27T10:36:16.689Z</time></trkpt><trkpt lat="39.035615" lon="16.1142517"><ele>16.0</ele><time>2026-04-27T10:36:17.684Z</time></trkpt><trkpt lat="39.035515" lon="16.1144567"><ele>16.333333333333332</ele><time>2026-04-27T10:36:18.683Z</time></trkpt><trkpt lat="39.0353983" lon="16.1146617"><ele>16.666666666666668</ele><time>2026-04-27T10:36:19.681Z</time></trkpt><trkpt lat="39.0352767" lon="16.1148717"><ele>17.0</ele><time>2026-04-27T10:36:20.725Z</time></trkpt><trkpt lat="39.035165" lon="16.11507"><ele>17.25</ele><time>2026-04-27T10:36:21.684Z</time></trkpt><trkpt lat="39.0350683" lon="16.115245"><ele>17.5</ele><time>2026-04-27T10:36:22.686Z</time></trkpt><trkpt lat="39.0349917" lon="16.115395"><ele>17.75</ele><time>2026-04-27T10:36:23.685Z</time></trkpt><trkpt lat="39.0349283" lon="16.1155317"><ele>18.0</ele><time>2026-04-27T10:36:24.699Z</time></trkpt><trkpt lat="39.034825" lon="16.1158233"><ele>18.25</ele><time>2026-04-27T10:36:26.738Z</time></trkpt><trkpt lat="39.0347733" lon="16.1159833"><ele>18.5</ele><time>2026-04-27T10:36:27.688Z</time></trkpt><trkpt lat="39.03472" lon="16.1161333"><ele>18.75</ele><time>2026-04-27T10:36:28.681Z</time></trkpt><trkpt lat="39.0346733" lon="16.11626"><ele>19.0</ele><time>2026-04-27T10:36:29.685Z</time></trkpt><trkpt lat="39.0346417" lon="16.11636"><ele>19.0</ele><time>2026-04-27T10:36:30.693Z</time></trkpt><trkpt lat="39.0346267" lon="16.1164533"><ele>19.0</ele><time>2026-04-27T10:36:31.682Z</time></trkpt><trkpt lat="39.0346817" lon="16.116605"><ele>19.0</ele><time>2026-04-27T10:36:33.682Z</time></trkpt><trkpt lat="39.0347467" lon="16.116685"><ele>19.0</ele><time>2026-04-27T10:36:34.687Z</time></trkpt><trkpt lat="39.034825" lon="16.1167717"><ele>19.0</ele><time>2026-04-27T10:36:35.683Z</time></trkpt><trkpt lat="39.0349" lon="16.1168633"><ele>19.4</ele><time>2026-04-27T10:36:36.692Z</time></trkpt><trkpt lat="39.03496" lon="16.1169483"><ele>19.799999999999997</ele><time>2026-04-27T10:36:37.684Z</time></trkpt><trkpt lat="39.0350017" lon="16.1170283"><ele>20.200000000000003</ele><time>2026-04-27T10:36:38.726Z</time></trkpt><trkpt lat="39.0349667" lon="16.1171717"><ele>20.6</ele><time>2026-04-27T10:36:40.682Z</time></trkpt><trkpt lat="39.0349117" lon="16.1172333"><ele>21.0</ele><time>2026-04-27T10:36:41.682Z</time></trkpt><trkpt lat="39.034825" lon="16.1172983"><ele>21.0</ele><time>2026-04-27T10:36:42.689Z</time></trkpt><trkpt lat="39.0347067" lon="16.117365"><ele>21.0</ele><time>2026-04-27T10:36:43.687Z</time></trkpt><trkpt lat="39.0345617" lon="16.117445"><ele>21.0</ele><time>2026-04-27T10:36:44.724Z</time></trkpt><trkpt lat="39.0343967" lon="16.1175483"><ele>21.666666666666668</ele><time>2026-04-27T10:36:45.687Z</time></trkpt><trkpt lat="39.0342117" lon="16.1176683"><ele>22.333333333333336</ele><time>2026-04-27T10:36:46.689Z</time></trkpt><trkpt lat="39.034035" lon="16.1177883"><ele>23.0</ele><time>2026-04-27T10:36:47.684Z</time></trkpt><trkpt lat="39.0338717" lon="16.117905"><ele>23.666666666666668</ele><time>2026-04-27T10:36:48.689Z</time></trkpt><trkpt lat="39.0337267" lon="16.118015"><ele>24.333333333333336</ele><time>2026-04-27T10:36:49.692Z</time></trkpt><trkpt lat="39.033585" lon="16.118115"><ele>25.0</ele><time>2026-04-27T10:36:50.729Z</time></trkpt><trkpt lat="39.033435" lon="16.1182083"><ele>26.333333333333336</ele><time>2026-04-27T10:36:51.682Z</time></trkpt><trkpt lat="39.033275" lon="16.1182983"><ele>27.666666666666664</ele><time>2026-04-27T10:36:52.684Z</time></trkpt><trkpt lat="39.0331117" lon="16.1183967"><ele>29.0</ele><time>2026-04-27T10:36:53.686Z</time></trkpt><trkpt lat="39.0329517" lon="16.118505"><ele>29.0</ele><time>2026-04-27T10:36:54.694Z</time></trkpt><trkpt lat="39.0327983" lon="16.118625"><ele>29.0</ele><time>2026-04-27T10:36:55.685Z</time></trkpt><trkpt lat="39.0326433" lon="16.1187583"><ele>29.0</ele><time>2026-04-27T10:36:56.736Z</time></trkpt><trkpt lat="39.0324983" lon="16.118895"><ele>28.75</ele><time>2026-04-27T10:36:57.683Z</time></trkpt><trkpt lat="39.032375" lon="16.11902"><ele>28.5</ele><time>2026-04-27T10:36:58.692Z</time></trkpt><trkpt lat="39.032285" lon="16.1191417"><ele>28.25</ele><time>2026-04-27T10:36:59.689Z</time></trkpt><trkpt lat="39.0322233" lon="16.1192633"><ele>28.0</ele><time>2026-04-27T10:37:00.692Z</time></trkpt><trkpt lat="39.0321833" lon="16.1193767"><ele>28.500000000000004</ele><time>2026-04-27T10:37:01.684Z</time></trkpt><trkpt lat="39.032155" lon="16.1194817"><ele>29.0</ele><time>2026-04-27T10:37:02.738Z</time></trkpt><trkpt lat="39.0321333" lon="16.1195783"><ele>29.5</ele><time>2026-04-27T10:37:03.69Z</time></trkpt><trkpt lat="39.032115" lon="16.1196633"><ele>30.0</ele><time>2026-04-27T10:37:04.691Z</time></trkpt><trkpt lat="39.032215" lon="16.119615"><ele>30.500000000000004</ele><time>2026-04-27T10:37:07.687Z</time></trkpt><trkpt lat="39.032275" lon="16.1195317"><ele>31.0</ele><time>2026-04-27T10:37:08.725Z</time></trkpt><trkpt lat="39.03235" lon="16.1194367"><ele>31.0</ele><time>2026-04-27T10:37:09.69Z</time></trkpt><trkpt lat="39.0324567" lon="16.1193267"><ele>31.0</ele><time>2026-04-27T10:37:10.693Z</time></trkpt><trkpt lat="39.0325883" lon="16.1192217"><ele>31.0</ele><time>2026-04-27T10:37:11.685Z</time></trkpt><trkpt lat="39.0327533" lon="16.1191133"><ele>30.333333333333336</ele><time>2026-04-27T10:37:12.693Z</time></trkpt><trkpt lat="39.0329667" lon="16.1190233"><ele>29.666666666666664</ele><time>2026-04-27T10:37:13.688Z</time></trkpt><trkpt lat="39.0331717" lon="16.1189433"><ele>29.0</ele><time>2026-04-27T10:37:14.722Z</time></trkpt><trkpt lat="39.0333833" lon="16.1188667"><ele>29.0</ele><time>2026-04-27T10:37:15.679Z</time></trkpt><trkpt lat="39.0335933" lon="16.1187967"><ele>29.0</ele><time>2026-04-27T10:37:16.682Z</time></trkpt><trkpt lat="39.0337933" lon="16.1187417"><ele>29.0</ele><time>2026-04-27T10:37:17.688Z</time></trkpt><trkpt lat="39.0339817" lon="16.118685"><ele>29.0</ele><time>2026-04-27T10:37:18.691Z</time></trkpt><trkpt lat="39.0341633" lon="16.118665"><ele>29.0</ele><time>2026-04-27T10:37:19.683Z</time></trkpt><trkpt lat="39.0343217" lon="16.118715"><ele>29.0</ele><time>2026-04-27T10:37:20.72Z</time></trkpt><trkpt lat="39.0344883" lon="16.118765"><ele>29.0</ele><time>2026-04-27T10:37:21.686Z</time></trkpt><trkpt lat="39.0346517" lon="16.1188233"><ele>29.0</ele><time>2026-04-27T10:37:22.691Z</time></trkpt><trkpt lat="39.034795" lon="16.1188783"><ele>29.0</ele><time>2026-04-27T10:37:23.687Z</time></trkpt><trkpt lat="39.0349333" lon="16.1189517"><ele>28.333333333333332</ele><time>2026-04-27T10:37:24.685Z</time></trkpt><trkpt lat="39.0350633" lon="16.119055"><ele>27.666666666666664</ele><time>2026-04-27T10:37:25.688Z</time></trkpt><trkpt lat="39.0351883" lon="16.1192183"><ele>27.0</ele><time>2026-04-27T10:37:26.756Z</time></trkpt><trkpt lat="39.0353217" lon="16.11939"><ele>32.333333333333336</ele><time>2026-04-27T10:37:27.679Z</time></trkpt><trkpt lat="39.035465" lon="16.119575"><ele>37.66666666666667</ele><time>2026-04-27T10:37:28.68Z</time></trkpt><trkpt lat="39.035625" lon="16.1197683"><ele>43.0</ele><time>2026-04-27T10:37:29.679Z</time></trkpt><trkpt lat="39.0357867" lon="16.1199733"><ele>44.0</ele><time>2026-04-27T10:37:30.688Z</time></trkpt><trkpt lat="39.0359583" lon="16.1201917"><ele>45.0</ele><time>2026-04-27T10:37:31.687Z</time></trkpt><trkpt lat="39.0361367" lon="16.1204183"><ele>45.0</ele><time>2026-04-27T10:37:32.731Z</time></trkpt><trkpt lat="39.03632" lon="16.1206417"><ele>45.0</ele><time>2026-04-27T10:37:33.681Z</time></trkpt><trkpt lat="39.0365067" lon="16.120865"><ele>41.5</ele><time>2026-04-27T10:37:34.694Z</time></trkpt><trkpt lat="39.036695" lon="16.1210867"><ele>38.0</ele><time>2026-04-27T10:37:35.686Z</time></trkpt><trkpt lat="39.036875" lon="16.1213083"><ele>38.0</ele><time>2026-04-27T10:37:36.685Z</time></trkpt><trkpt lat="39.0370433" lon="16.121515"><ele>38.0</ele><time>2026-04-27T10:37:37.686Z</time></trkpt><trkpt lat="39.0371983" lon="16.12171"><ele>38.0</ele><time>2026-04-27T10:37:38.724Z</time></trkpt><trkpt lat="39.0373467" lon="16.1218883"><ele>36.0</ele><time>2026-04-27T10:37:39.686Z</time></trkpt><trkpt lat="39.0374833" lon="16.12205"><ele>34.0</ele><time>2026-04-27T10:37:40.69Z</time></trkpt><trkpt lat="39.0375867" lon="16.1222067"><ele>32.0</ele><time>2026-04-27T10:37:41.681Z</time></trkpt><trkpt lat="39.0376767" lon="16.1223583"><ele>38.666666666666664</ele><time>2026-04-27T10:37:42.686Z</time></trkpt><trkpt lat="39.0377567" lon="16.1225283"><ele>45.33333333333333</ele><time>2026-04-27T10:37:43.686Z</time></trkpt><trkpt lat="39.0378283" lon="16.1227183"><ele>52.0</ele><time>2026-04-27T10:37:44.723Z</time></trkpt><trkpt lat="39.03791" lon="16.1229133"><ele>52.0</ele><time>2026-04-27T10:37:45.686Z</time></trkpt><trkpt lat="39.038005" lon="16.1231017"><ele>52.0</ele><time>2026-04-27T10:37:46.688Z</time></trkpt><trkpt lat="39.0381083" lon="16.123275"><ele>52.0</ele><time>2026-04-27T10:37:47.684Z</time></trkpt><trkpt lat="39.03822" lon="16.1234167"><ele>49.666666666666664</ele><time>2026-04-27T10:37:48.689Z</time></trkpt><trkpt lat="39.0383517" lon="16.1235317"><ele>47.33333333333333</ele><time>2026-04-27T10:37:49.68Z</time></trkpt><trkpt lat="39.0385067" lon="16.1236167"><ele>45.0</ele><time>2026-04-27T10:37:50.723Z</time></trkpt><trkpt lat="39.0387083" lon="16.1236817"><ele>45.0</ele><time>2026-04-27T10:37:51.681Z</time></trkpt><trkpt lat="39.0389067" lon="16.1237583"><ele>45.0</ele><time>2026-04-27T10:37:52.688Z</time></trkpt><trkpt lat="39.0391067" lon="16.12384"><ele>45.0</ele><time>2026-04-27T10:37:53.686Z</time></trkpt><trkpt lat="39.0392933" lon="16.1239217"><ele>38.666666666666664</ele><time>2026-04-27T10:37:54.688Z</time></trkpt><trkpt lat="39.0394717" lon="16.12399"><ele>32.33333333333333</ele><time>2026-04-27T10:37:55.69Z</time></trkpt><trkpt lat="39.0396467" lon="16.124035"><ele>26.0</ele><time>2026-04-27T10:37:56.733Z</time></trkpt><trkpt lat="39.0398067" lon="16.1240267"><ele>26.0</ele><time>2026-04-27T10:37:57.681Z</time></trkpt><trkpt lat="39.0399567" lon="16.124"><ele>26.0</ele><time>2026-04-27T10:37:58.686Z</time></trkpt><trkpt lat="39.0401067" lon="16.1239683"><ele>26.0</ele><time>2026-04-27T10:37:59.688Z</time></trkpt><trkpt lat="39.0402617" lon="16.1239433"><ele>25.0</ele><time>2026-04-27T10:38:00.678Z</time></trkpt><trkpt lat="39.0404217" lon="16.1239467"><ele>24.0</ele><time>2026-04-27T10:38:01.682Z</time></trkpt><trkpt lat="39.0405917" lon="16.1239733"><ele>23.0</ele><time>2026-04-27T10:38:02.737Z</time></trkpt><trkpt lat="39.0407533" lon="16.1240233"><ele>24.25</ele><time>2026-04-27T10:38:03.681Z</time></trkpt><trkpt lat="39.0409033" lon="16.12408"><ele>25.5</ele><time>2026-04-27T10:38:04.688Z</time></trkpt><trkpt lat="39.0410283" lon="16.124135"><ele>26.75</ele><time>2026-04-27T10:38:05.686Z</time></trkpt><trkpt lat="39.0410933" lon="16.1241767"><ele>28.0</ele><time>2026-04-27T10:38:06.697Z</time></trkpt><trkpt lat="39.0411783" lon="16.124225"><ele>28.000000000000004</ele><time>2026-04-27T10:38:08.724Z</time></trkpt><trkpt lat="39.04116" lon="16.12413"><ele>28.0</ele><time>2026-04-27T10:38:13.685Z</time></trkpt><trkpt lat="39.041095" lon="16.1241067"><ele>28.0</ele><time>2026-04-27T10:38:14.722Z</time></trkpt><trkpt lat="39.0410033" lon="16.1240933"><ele>28.0</ele><time>2026-04-27T10:38:15.677Z</time></trkpt><trkpt lat="39.0409117" lon="16.124095"><ele>28.000000000000004</ele><time>2026-04-27T10:38:16.686Z</time></trkpt><trkpt lat="39.0408333" lon="16.1241083"><ele>28.0</ele><time>2026-04-27T10:38:17.685Z</time></trkpt><trkpt lat="39.0407733" lon="16.12416"><ele>31.5</ele><time>2026-04-27T10:38:18.686Z</time></trkpt><trkpt lat="39.04072" lon="16.1242417"><ele>35.0</ele><time>2026-04-27T10:38:19.687Z</time></trkpt><trkpt lat="39.040655" lon="16.1243583"><ele>38.5</ele><time>2026-04-27T10:38:20.725Z</time></trkpt><trkpt lat="39.040575" lon="16.1244883"><ele>42.0</ele><time>2026-04-27T10:38:21.683Z</time></trkpt><trkpt lat="39.0404717" lon="16.124625"><ele>42.0</ele><time>2026-04-27T10:38:22.685Z</time></trkpt><trkpt lat="39.0403467" lon="16.12478"><ele>42.0</ele><time>2026-04-27T10:38:23.684Z</time></trkpt><trkpt lat="39.0402067" lon="16.12498"><ele>42.0</ele><time>2026-04-27T10:38:24.689Z</time></trkpt><trkpt lat="39.04007" lon="16.12518"><ele>55.66666666666667</ele><time>2026-04-27T10:38:25.684Z</time></trkpt><trkpt lat="39.0399483" lon="16.1253783"><ele>69.33333333333334</ele><time>2026-04-27T10:38:26.731Z</time></trkpt><trkpt lat="39.0398417" lon="16.1255583"><ele>83.0</ele><time>2026-04-27T10:38:27.682Z</time></trkpt><trkpt lat="39.0397633" lon="16.1257233"><ele>85.0</ele><time>2026-04-27T10:38:28.683Z</time></trkpt><trkpt lat="39.0396967" lon="16.12589"><ele>87.0</ele><time>2026-04-27T10:38:29.69Z</time></trkpt><trkpt lat="39.0396483" lon="16.1260767"><ele>89.0</ele><time>2026-04-27T10:38:30.682Z</time></trkpt><trkpt lat="39.0396167" lon="16.1262883"><ele>89.0</ele><time>2026-04-27T10:38:31.683Z</time></trkpt><trkpt lat="39.0396017" lon="16.1265183"><ele>89.0</ele><time>2026-04-27T10:38:32.736Z</time></trkpt><trkpt lat="39.0396" lon="16.1267467"><ele>89.0</ele><time>2026-04-27T10:38:33.685Z</time></trkpt><trkpt lat="39.0396167" lon="16.1269683"><ele>88.0</ele><time>2026-04-27T10:38:34.687Z</time></trkpt><trkpt lat="39.03965" lon="16.1271817"><ele>87.0</ele><time>2026-04-27T10:38:35.685Z</time></trkpt><trkpt lat="39.039705" lon="16.1273967"><ele>86.0</ele><time>2026-04-27T10:38:36.683Z</time></trkpt><trkpt lat="39.0397783" lon="16.1276267"><ele>84.66666666666667</ele><time>2026-04-27T10:38:37.685Z</time></trkpt><trkpt lat="39.0398567" lon="16.1278583"><ele>83.33333333333333</ele><time>2026-04-27T10:38:38.726Z</time></trkpt><trkpt lat="39.0399283" lon="16.1280783"><ele>82.0</ele><time>2026-04-27T10:38:39.679Z</time></trkpt><trkpt lat="39.03998" lon="16.1282883"><ele>68.66666666666666</ele><time>2026-04-27T10:38:40.687Z</time></trkpt><trkpt lat="39.0400133" lon="16.1284967"><ele>55.33333333333333</ele><time>2026-04-27T10:38:41.687Z</time></trkpt><trkpt lat="39.0400217" lon="16.1287133"><ele>42.0</ele><time>2026-04-27T10:38:42.691Z</time></trkpt><trkpt lat="39.04001" lon="16.1289417"><ele>43.666666666666664</ele><time>2026-04-27T10:38:43.688Z</time></trkpt><trkpt lat="39.0399733" lon="16.1291733"><ele>45.33333333333333</ele><time>2026-04-27T10:38:44.722Z</time></trkpt><trkpt lat="39.0399033" lon="16.129395"><ele>47.0</ele><time>2026-04-27T10:38:45.68Z</time></trkpt><trkpt lat="39.039815" lon="16.1296083"><ele>53.0</ele><time>2026-04-27T10:38:46.69Z</time></trkpt><trkpt lat="39.039705" lon="16.1298233"><ele>59.0</ele><time>2026-04-27T10:38:47.68Z</time></trkpt><trkpt lat="39.03958" lon="16.1300417"><ele>65.0</ele><time>2026-04-27T10:38:48.689Z</time></trkpt><trkpt lat="39.03945" lon="16.1302683"><ele>65.0</ele><time>2026-04-27T10:38:49.685Z</time></trkpt><trkpt lat="39.0393233" lon="16.1305067"><ele>65.0</ele><time>2026-04-27T10:38:50.725Z</time></trkpt><trkpt lat="39.0391933" lon="16.1307383"><ele>65.0</ele><time>2026-04-27T10:38:51.692Z</time></trkpt><trkpt lat="39.039065" lon="16.13096"><ele>67.0</ele><time>2026-04-27T10:38:52.689Z</time></trkpt><trkpt lat="39.038945" lon="16.1311783"><ele>69.0</ele><time>2026-04-27T10:38:53.681Z</time></trkpt><trkpt lat="39.03883" lon="16.131385"><ele>71.0</ele><time>2026-04-27T10:38:54.687Z</time></trkpt><trkpt lat="39.038735" lon="16.1316"><ele>71.0</ele><time>2026-04-27T10:38:55.682Z</time></trkpt><trkpt lat="39.038655" lon="16.1318167"><ele>71.0</ele><time>2026-04-27T10:38:56.735Z</time></trkpt><trkpt lat="39.0385967" lon="16.1320433"><ele>71.0</ele><time>2026-04-27T10:38:57.68Z</time></trkpt><trkpt lat="39.0385633" lon="16.132275"><ele>69.33333333333334</ele><time>2026-04-27T10:38:58.685Z</time></trkpt><trkpt lat="39.0385483" lon="16.1325133"><ele>67.66666666666667</ele><time>2026-04-27T10:38:59.686Z</time></trkpt><trkpt lat="39.0385533" lon="16.1327467"><ele>66.0</ele><time>2026-04-27T10:39:00.688Z</time></trkpt><trkpt lat="39.0385767" lon="16.1329767"><ele>66.0</ele><time>2026-04-27T10:39:01.683Z</time></trkpt><trkpt lat="39.03862" lon="16.1332067"><ele>66.0</ele><time>2026-04-27T10:39:02.733Z</time></trkpt><trkpt lat="39.0386783" lon="16.1334333"><ele>66.0</ele><time>2026-04-27T10:39:03.684Z</time></trkpt><trkpt lat="39.0387517" lon="16.1336633"><ele>68.33333333333333</ele><time>2026-04-27T10:39:04.685Z</time></trkpt><trkpt lat="39.0388367" lon="16.1339033"><ele>70.66666666666666</ele><time>2026-04-27T10:39:05.688Z</time></trkpt><trkpt lat="39.0389167" lon="16.13415"><ele>73.0</ele><time>2026-04-27T10:39:06.685Z</time></trkpt><trkpt lat="39.039" lon="16.1344"><ele>77.33333333333333</ele><time>2026-04-27T10:39:07.686Z</time></trkpt><trkpt lat="39.0390917" lon="16.1346517"><ele>81.66666666666667</ele><time>2026-04-27T10:39:08.718Z</time></trkpt><trkpt lat="39.039175" lon="16.1348967"><ele>86.0</ele><time>2026-04-27T10:39:09.685Z</time></trkpt><trkpt lat="39.0392583" lon="16.135125"><ele>82.33333333333334</ele><time>2026-04-27T10:39:10.686Z</time></trkpt><trkpt lat="39.0393367" lon="16.1353467"><ele>78.66666666666667</ele><time>2026-04-27T10:39:11.688Z</time></trkpt><trkpt lat="39.039435" lon="16.1355583"><ele>75.0</ele><time>2026-04-27T10:39:12.688Z</time></trkpt><trkpt lat="39.0395483" lon="16.13577"><ele>75.0</ele><time>2026-04-27T10:39:13.68Z</time></trkpt><trkpt lat="39.0396683" lon="16.13598"><ele>75.0</ele><time>2026-04-27T10:39:14.722Z</time></trkpt><trkpt lat="39.039795" lon="16.1361817"><ele>75.0</ele><time>2026-04-27T10:39:15.688Z</time></trkpt><trkpt lat="39.0399267" lon="16.1363783"><ele>70.66666666666667</ele><time>2026-04-27T10:39:16.69Z</time></trkpt><trkpt lat="39.04007" lon="16.1365633"><ele>66.33333333333334</ele><time>2026-04-27T10:39:17.687Z</time></trkpt><trkpt lat="39.04022" lon="16.1367383"><ele>62.0</ele><time>2026-04-27T10:39:18.685Z</time></trkpt><trkpt lat="39.0403617" lon="16.1368967"><ele>62.0</ele><time>2026-04-27T10:39:19.679Z</time></trkpt><trkpt lat="39.0404983" lon="16.137035"><ele>62.0</ele><time>2026-04-27T10:39:20.722Z</time></trkpt><trkpt lat="39.04062" lon="16.1371633"><ele>62.0</ele><time>2026-04-27T10:39:21.675Z</time></trkpt><trkpt lat="39.0407367" lon="16.13728"><ele>61.0</ele><time>2026-04-27T10:39:22.691Z</time></trkpt><trkpt lat="39.0408467" lon="16.1373883"><ele>60.0</ele><time>2026-04-27T10:39:23.682Z</time></trkpt><trkpt lat="39.04095" lon="16.1374933"><ele>59.0</ele><time>2026-04-27T10:39:24.687Z</time></trkpt><trkpt lat="39.0410517" lon="16.137585"><ele>58.0</ele><time>2026-04-27T10:39:25.684Z</time></trkpt><trkpt lat="39.0411517" lon="16.1376717"><ele>58.0</ele><time>2026-04-27T10:39:26.734Z</time></trkpt><trkpt lat="39.0412483" lon="16.1377617"><ele>58.0</ele><time>2026-04-27T10:39:27.683Z</time></trkpt><trkpt lat="39.04135" lon="16.1378733"><ele>58.0</ele><time>2026-04-27T10:39:28.689Z</time></trkpt><trkpt lat="39.0414633" lon="16.138"><ele>58.0</ele><time>2026-04-27T10:39:29.683Z</time></trkpt><trkpt lat="39.0415933" lon="16.1381383"><ele>58.0</ele><time>2026-04-27T10:39:30.688Z</time></trkpt><trkpt lat="39.0417333" lon="16.13829"><ele>58.0</ele><time>2026-04-27T10:39:31.684Z</time></trkpt><trkpt lat="39.0418817" lon="16.1384517"><ele>58.0</ele><time>2026-04-27T10:39:32.739Z</time></trkpt><trkpt lat="39.042025" lon="16.1386083"><ele>58.0</ele><time>2026-04-27T10:39:33.679Z</time></trkpt><trkpt lat="39.0421633" lon="16.13876"><ele>58.0</ele><time>2026-04-27T10:39:34.689Z</time></trkpt><trkpt lat="39.0422967" lon="16.13891"><ele>58.0</ele><time>2026-04-27T10:39:35.686Z</time></trkpt><trkpt lat="39.0424167" lon="16.1390733"><ele>57.666666666666664</ele><time>2026-04-27T10:39:36.686Z</time></trkpt><trkpt lat="39.04252" lon="16.1392533"><ele>57.33333333333333</ele><time>2026-04-27T10:39:37.684Z</time></trkpt><trkpt lat="39.0426" lon="16.1394533"><ele>57.0</ele><time>2026-04-27T10:39:38.721Z</time></trkpt><trkpt lat="39.0426617" lon="16.1396733"><ele>60.66666666666667</ele><time>2026-04-27T10:39:39.683Z</time></trkpt><trkpt lat="39.0426983" lon="16.1399167"><ele>64.33333333333334</ele><time>2026-04-27T10:39:40.679Z</time></trkpt><trkpt lat="39.042715" lon="16.1401617"><ele>68.0</ele><time>2026-04-27T10:39:41.684Z</time></trkpt><trkpt lat="39.0427167" lon="16.140405"><ele>68.0</ele><time>2026-04-27T10:39:42.689Z</time></trkpt><trkpt lat="39.0427133" lon="16.1406567"><ele>68.0</ele><time>2026-04-27T10:39:43.682Z</time></trkpt><trkpt lat="39.04272" lon="16.14091"><ele>68.0</ele><time>2026-04-27T10:39:44.723Z</time></trkpt><trkpt lat="39.04274" lon="16.1411483"><ele>71.66666666666667</ele><time>2026-04-27T10:39:45.684Z</time></trkpt><trkpt lat="39.0427733" lon="16.1413667"><ele>75.33333333333333</ele><time>2026-04-27T10:39:46.688Z</time></trkpt><trkpt lat="39.04282" lon="16.14157"><ele>79.0</ele><time>2026-04-27T10:39:47.683Z</time></trkpt><trkpt lat="39.042875" lon="16.1417683"><ele>81.33333333333333</ele><time>2026-04-27T10:39:48.687Z</time></trkpt><trkpt lat="39.0429417" lon="16.1419533"><ele>83.66666666666667</ele><time>2026-04-27T10:39:49.685Z</time></trkpt><trkpt lat="39.043025" lon="16.1421217"><ele>86.0</ele><time>2026-04-27T10:39:50.719Z</time></trkpt><trkpt lat="39.0431183" lon="16.1422683"><ele>89.66666666666667</ele><time>2026-04-27T10:39:51.683Z</time></trkpt><trkpt lat="39.0432233" lon="16.1424067"><ele>93.33333333333334</ele><time>2026-04-27T10:39:52.685Z</time></trkpt><trkpt lat="39.043345" lon="16.1425383"><ele>97.0</ele><time>2026-04-27T10:39:53.677Z</time></trkpt><trkpt lat="39.04349" lon="16.14266"><ele>86.0</ele><time>2026-04-27T10:39:54.686Z</time></trkpt><trkpt lat="39.0436517" lon="16.1427817"><ele>75.0</ele><time>2026-04-27T10:39:55.679Z</time></trkpt><trkpt lat="39.0438317" lon="16.142905"><ele>64.0</ele><time>2026-04-27T10:39:56.744Z</time></trkpt><trkpt lat="39.0440217" lon="16.14304"><ele>64.33333333333333</ele><time>2026-04-27T10:39:57.68Z</time></trkpt><trkpt lat="39.0442117" lon="16.143175"><ele>64.66666666666667</ele><time>2026-04-27T10:39:58.68Z</time></trkpt><trkpt lat="39.0444" lon="16.1433083"><ele>65.0</ele><time>2026-04-27T10:39:59.676Z</time></trkpt><trkpt lat="39.0445833" lon="16.1434417"><ele>65.0</ele><time>2026-04-27T10:40:00.684Z</time></trkpt><trkpt lat="39.04475" lon="16.14356"><ele>65.0</ele><time>2026-04-27T10:40:01.682Z</time></trkpt><trkpt lat="39.04491" lon="16.1436767"><ele>65.0</ele><time>2026-04-27T10:40:02.73Z</time></trkpt><trkpt lat="39.045075" lon="16.1438033"><ele>62.0</ele><time>2026-04-27T10:40:03.677Z</time></trkpt><trkpt lat="39.0452467" lon="16.14393"><ele>59.0</ele><time>2026-04-27T10:40:04.681Z</time></trkpt><trkpt lat="39.0454167" lon="16.1440567"><ele>56.0</ele><time>2026-04-27T10:40:05.684Z</time></trkpt><trkpt lat="39.04558" lon="16.1441783"><ele>56.0</ele><time>2026-04-27T10:40:06.684Z</time></trkpt><trkpt lat="39.0457367" lon="16.144295"><ele>56.0</ele><time>2026-04-27T10:40:07.684Z</time></trkpt><trkpt lat="39.0458833" lon="16.144405"><ele>56.0</ele><time>2026-04-27T10:40:08.72Z</time></trkpt><trkpt lat="39.0460233" lon="16.1445"><ele>56.0</ele><time>2026-04-27T10:40:09.684Z</time></trkpt><trkpt lat="39.0461683" lon="16.14459"><ele>56.0</ele><time>2026-04-27T10:40:10.68Z</time></trkpt><trkpt lat="39.0463217" lon="16.14467"><ele>56.0</ele><time>2026-04-27T10:40:11.685Z</time></trkpt><trkpt lat="39.0464967" lon="16.1447367"><ele>53.333333333333336</ele><time>2026-04-27T10:40:12.685Z</time></trkpt><trkpt lat="39.04668" lon="16.1447883"><ele>50.66666666666667</ele><time>2026-04-27T10:40:13.679Z</time></trkpt><trkpt lat="39.0468667" lon="16.1448333"><ele>48.0</ele><time>2026-04-27T10:40:14.723Z</time></trkpt><trkpt lat="39.0470383" lon="16.144875"><ele>54.66666666666667</ele><time>2026-04-27T10:40:15.69Z</time></trkpt><trkpt lat="39.0471933" lon="16.1449133"><ele>61.333333333333336</ele><time>2026-04-27T10:40:16.686Z</time></trkpt><trkpt lat="39.0473383" lon="16.144945"><ele>68.0</ele><time>2026-04-27T10:40:17.679Z</time></trkpt><trkpt lat="39.0474833" lon="16.1449783"><ele>68.0</ele><time>2026-04-27T10:40:18.69Z</time></trkpt><trkpt lat="39.0476317" lon="16.145015"><ele>68.0</ele><time>2026-04-27T10:40:19.68Z</time></trkpt><trkpt lat="39.0477833" lon="16.14506"><ele>68.0</ele><time>2026-04-27T10:40:20.719Z</time></trkpt><trkpt lat="39.0479483" lon="16.1451267"><ele>68.0</ele><time>2026-04-27T10:40:21.687Z</time></trkpt><trkpt lat="39.04811" lon="16.1452233"><ele>68.0</ele><time>2026-04-27T10:40:22.682Z</time></trkpt><trkpt lat="39.0482767" lon="16.14534"><ele>68.0</ele><time>2026-04-27T10:40:23.679Z</time></trkpt><trkpt lat="39.0484467" lon="16.1454717"><ele>69.0</ele><time>2026-04-27T10:40:24.683Z</time></trkpt><trkpt lat="39.0486133" lon="16.1456133"><ele>70.0</ele><time>2026-04-27T10:40:25.683Z</time></trkpt><trkpt lat="39.04878" lon="16.14576"><ele>71.0</ele><time>2026-04-27T10:40:26.75Z</time></trkpt><trkpt lat="39.0489383" lon="16.1458983"><ele>71.0</ele><time>2026-04-27T10:40:27.682Z</time></trkpt><trkpt lat="39.049085" lon="16.1460117"><ele>71.0</ele><time>2026-04-27T10:40:28.686Z</time></trkpt><trkpt lat="39.0492117" lon="16.14611"><ele>71.0</ele><time>2026-04-27T10:40:29.685Z</time></trkpt><trkpt lat="39.04934" lon="16.1462067"><ele>68.0</ele><time>2026-04-27T10:40:30.7Z</time></trkpt><trkpt lat="39.0494683" lon="16.1463133"><ele>65.0</ele><time>2026-04-27T10:40:31.682Z</time></trkpt><trkpt lat="39.0496017" lon="16.14642"><ele>62.0</ele><time>2026-04-27T10:40:32.735Z</time></trkpt><trkpt lat="39.0497283" lon="16.1465267"><ele>62.66666666666667</ele><time>2026-04-27T10:40:33.679Z</time></trkpt><trkpt lat="39.0498617" lon="16.1466383"><ele>63.33333333333333</ele><time>2026-04-27T10:40:34.682Z</time></trkpt><trkpt lat="39.05" lon="16.1467617"><ele>64.0</ele><time>2026-04-27T10:40:35.681Z</time></trkpt><trkpt lat="39.0501367" lon="16.1468917"><ele>64.0</ele><time>2026-04-27T10:40:36.684Z</time></trkpt><trkpt lat="39.0502717" lon="16.1470217"><ele>64.0</ele><time>2026-04-27T10:40:37.688Z</time></trkpt><trkpt lat="39.0504067" lon="16.1471433"><ele>64.0</ele><time>2026-04-27T10:40:38.726Z</time></trkpt><trkpt lat="39.05054" lon="16.147255"><ele>64.0</ele><time>2026-04-27T10:40:39.685Z</time></trkpt><trkpt lat="39.0506683" lon="16.1473583"><ele>64.0</ele><time>2026-04-27T10:40:40.688Z</time></trkpt><trkpt lat="39.0507983" lon="16.147465"><ele>64.0</ele><time>2026-04-27T10:40:41.686Z</time></trkpt><trkpt lat="39.0509367" lon="16.14758"><ele>63.666666666666664</ele><time>2026-04-27T10:40:42.686Z</time></trkpt><trkpt lat="39.051085" lon="16.1476967"><ele>63.33333333333333</ele><time>2026-04-27T10:40:43.683Z</time></trkpt><trkpt lat="39.0512283" lon="16.1478167"><ele>63.0</ele><time>2026-04-27T10:40:44.723Z</time></trkpt><trkpt lat="39.0513583" lon="16.1479283"><ele>63.0</ele><time>2026-04-27T10:40:45.682Z</time></trkpt><trkpt lat="39.05148" lon="16.1480333"><ele>63.0</ele><time>2026-04-27T10:40:46.69Z</time></trkpt><trkpt lat="39.0515983" lon="16.1481333"><ele>63.0</ele><time>2026-04-27T10:40:47.695Z</time></trkpt><trkpt lat="39.0517133" lon="16.1482367"><ele>63.0</ele><time>2026-04-27T10:40:48.688Z</time></trkpt><trkpt lat="39.0518233" lon="16.14834"><ele>63.25</ele><time>2026-04-27T10:40:49.684Z</time></trkpt><trkpt lat="39.0519317" lon="16.1484333"><ele>63.5</ele><time>2026-04-27T10:40:50.716Z</time></trkpt><trkpt lat="39.0520467" lon="16.14852"><ele>63.75</ele><time>2026-04-27T10:40:51.683Z</time></trkpt><trkpt lat="39.0521783" lon="16.14859"><ele>64.0</ele><time>2026-04-27T10:40:52.68Z</time></trkpt><trkpt lat="39.0523317" lon="16.1486433"><ele>61.666666666666664</ele><time>2026-04-27T10:40:53.679Z</time></trkpt><trkpt lat="39.0525033" lon="16.1486833"><ele>59.33333333333333</ele><time>2026-04-27T10:40:54.683Z</time></trkpt><trkpt lat="39.0526833" lon="16.1487167"><ele>57.0</ele><time>2026-04-27T10:40:55.679Z</time></trkpt><trkpt lat="39.0528533" lon="16.1487383"><ele>57.0</ele><time>2026-04-27T10:40:56.721Z</time></trkpt><trkpt lat="39.053005" lon="16.1487617"><ele>57.0</ele><time>2026-04-27T10:40:57.686Z</time></trkpt><trkpt lat="39.0531367" lon="16.1487733"><ele>57.0</ele><time>2026-04-27T10:40:58.683Z</time></trkpt><trkpt lat="39.0532617" lon="16.1487883"><ele>57.0</ele><time>2026-04-27T10:40:59.679Z</time></trkpt><trkpt lat="39.053395" lon="16.14882"><ele>56.25</ele><time>2026-04-27T10:41:00.683Z</time></trkpt><trkpt lat="39.05353" lon="16.148855"><ele>55.5</ele><time>2026-04-27T10:41:01.676Z</time></trkpt><trkpt lat="39.0536633" lon="16.1488883"><ele>54.75</ele><time>2026-04-27T10:41:02.731Z</time></trkpt><trkpt lat="39.0537867" lon="16.148905"><ele>54.0</ele><time>2026-04-27T10:41:03.679Z</time></trkpt><trkpt lat="39.05391" lon="16.1489183"><ele>54.0</ele><time>2026-04-27T10:41:04.684Z</time></trkpt><trkpt lat="39.054025" lon="16.1489267"><ele>54.00000000000001</ele><time>2026-04-27T10:41:05.683Z</time></trkpt><trkpt lat="39.0541217" lon="16.1489333"><ele>54.00000000000001</ele><time>2026-04-27T10:41:06.687Z</time></trkpt><trkpt lat="39.0542017" lon="16.14896"><ele>54.0</ele><time>2026-04-27T10:41:07.676Z</time></trkpt><trkpt lat="39.0542633" lon="16.148995"><ele>54.0</ele><time>2026-04-27T10:41:08.719Z</time></trkpt><trkpt lat="39.054335" lon="16.1491"><ele>56.0</ele><time>2026-04-27T10:41:10.677Z</time></trkpt><trkpt lat="39.0543483" lon="16.1491817"><ele>58.0</ele><time>2026-04-27T10:41:11.679Z</time></trkpt><trkpt lat="39.0543783" lon="16.1492717"><ele>60.0</ele><time>2026-04-27T10:41:12.686Z</time></trkpt><trkpt lat="39.0544217" lon="16.1493583"><ele>62.0</ele><time>2026-04-27T10:41:13.684Z</time></trkpt><trkpt lat="39.054495" lon="16.14944"><ele>64.0</ele><time>2026-04-27T10:41:14.721Z</time></trkpt><trkpt lat="39.0545767" lon="16.149525"><ele>66.0</ele><time>2026-04-27T10:41:15.68Z</time></trkpt><trkpt lat="39.0546667" lon="16.1496233"><ele>66.0</ele><time>2026-04-27T10:41:16.684Z</time></trkpt><trkpt lat="39.0547483" lon="16.1497233"><ele>66.0</ele><time>2026-04-27T10:41:17.681Z</time></trkpt><trkpt lat="39.0548083" lon="16.1498267"><ele>66.0</ele><time>2026-04-27T10:41:18.682Z</time></trkpt><trkpt lat="39.0548483" lon="16.1499367"><ele>66.0</ele><time>2026-04-27T10:41:19.676Z</time></trkpt><trkpt lat="39.054865" lon="16.150045"><ele>66.0</ele><time>2026-04-27T10:41:20.718Z</time></trkpt><trkpt lat="39.054845" lon="16.1501333"><ele>69.6</ele><time>2026-04-27T10:41:21.676Z</time></trkpt><trkpt lat="39.0547517" lon="16.1501783"><ele>73.19999999999999</ele><time>2026-04-27T10:41:23.678Z</time></trkpt><trkpt lat="39.05465" lon="16.1501283"><ele>76.80000000000001</ele><time>2026-04-27T10:41:25.684Z</time></trkpt><trkpt lat="39.0545917" lon="16.15006"><ele>80.4</ele><time>2026-04-27T10:41:26.751Z</time></trkpt><trkpt lat="39.0545133" lon="16.1499783"><ele>84.0</ele><time>2026-04-27T10:41:27.681Z</time></trkpt><trkpt lat="39.05442" lon="16.149895"><ele>79.5</ele><time>2026-04-27T10:41:28.689Z</time></trkpt><trkpt lat="39.05431" lon="16.14982"><ele>75.0</ele><time>2026-04-27T10:41:29.685Z</time></trkpt><trkpt lat="39.0541883" lon="16.14976"><ele>70.5</ele><time>2026-04-27T10:41:30.682Z</time></trkpt><trkpt lat="39.0540783" lon="16.149705"><ele>66.0</ele><time>2026-04-27T10:41:31.686Z</time></trkpt><trkpt lat="39.05398" lon="16.1496467"><ele>66.0</ele><time>2026-04-27T10:41:32.724Z</time></trkpt><trkpt lat="39.053895" lon="16.1495967"><ele>66.0</ele><time>2026-04-27T10:41:33.68Z</time></trkpt><trkpt lat="39.0538183" lon="16.149655"><ele>66.0</ele><time>2026-04-27T10:41:35.676Z</time></trkpt><trkpt lat="39.0538133" lon="16.1497983"><ele>66.0</ele><time>2026-04-27T10:41:37.68Z</time></trkpt><trkpt lat="39.0538467" lon="16.14992"><ele>66.0</ele><time>2026-04-27T10:41:38.725Z</time></trkpt><trkpt lat="39.0538917" lon="16.1500533"><ele>70.0</ele><time>2026-04-27T10:41:39.678Z</time></trkpt><trkpt lat="39.0539333" lon="16.1502"><ele>74.0</ele><time>2026-04-27T10:41:40.683Z</time></trkpt><trkpt lat="39.0539783" lon="16.150345"><ele>78.0</ele><time>2026-04-27T10:41:41.68Z</time></trkpt><trkpt lat="39.0540167" lon="16.150475"><ele>82.0</ele><time>2026-04-27T10:41:42.686Z</time></trkpt><trkpt lat="39.0540517" lon="16.1505967"><ele>84.19999999999999</ele><time>2026-04-27T10:41:43.683Z</time></trkpt><trkpt lat="39.054085" lon="16.1507183"><ele>86.4</ele><time>2026-04-27T10:41:44.723Z</time></trkpt><trkpt lat="39.05411" lon="16.1508367"><ele>88.6</ele><time>2026-04-27T10:41:45.677Z</time></trkpt><trkpt lat="39.05413" lon="16.15096"><ele>90.80000000000001</ele><time>2026-04-27T10:41:46.68Z</time></trkpt><trkpt lat="39.0541367" lon="16.1510917"><ele>93.0</ele><time>2026-04-27T10:41:47.682Z</time></trkpt><trkpt lat="39.054125" lon="16.1512283"><ele>94.33333333333333</ele><time>2026-04-27T10:41:48.679Z</time></trkpt><trkpt lat="39.0541067" lon="16.1513617"><ele>95.66666666666666</ele><time>2026-04-27T10:41:49.687Z</time></trkpt><trkpt lat="39.0540867" lon="16.1514783"><ele>97.0</ele><time>2026-04-27T10:41:50.721Z</time></trkpt><trkpt lat="39.0540583" lon="16.1515833"><ele>98.33333333333333</ele><time>2026-04-27T10:41:51.68Z</time></trkpt><trkpt lat="39.0540167" lon="16.1516717"><ele>99.66666666666666</ele><time>2026-04-27T10:41:52.691Z</time></trkpt><trkpt lat="39.0539817" lon="16.151755"><ele>101.0</ele><time>2026-04-27T10:41:53.683Z</time></trkpt><trkpt lat="39.0539683" lon="16.1518917"><ele>101.5</ele><time>2026-04-27T10:41:55.685Z</time></trkpt><trkpt lat="39.0540533" lon="16.152015"><ele>102.0</ele><time>2026-04-27T10:41:57.684Z</time></trkpt><trkpt lat="39.0541367" lon="16.1520817"><ele>102.5</ele><time>2026-04-27T10:41:58.681Z</time></trkpt><trkpt lat="39.0542367" lon="16.1521617"><ele>103.0</ele><time>2026-04-27T10:41:59.679Z</time></trkpt><trkpt lat="39.0543317" lon="16.152255"><ele>103.0</ele><time>2026-04-27T10:42:00.677Z</time></trkpt><trkpt lat="39.0544167" lon="16.15234"><ele>103.0</ele><time>2026-04-27T10:42:01.68Z</time></trkpt><trkpt lat="39.0545133" lon="16.15241"><ele>103.0</ele><time>2026-04-27T10:42:02.73Z</time></trkpt><trkpt lat="39.0546167" lon="16.1524567"><ele>103.0</ele><time>2026-04-27T10:42:03.676Z</time></trkpt><trkpt lat="39.0547233" lon="16.1524883"><ele>103.0</ele><time>2026-04-27T10:42:04.682Z</time></trkpt><trkpt lat="39.0548183" lon="16.1525167"><ele>105.33333333333334</ele><time>2026-04-27T10:42:05.68Z</time></trkpt><trkpt lat="39.0549" lon="16.1525433"><ele>107.66666666666667</ele><time>2026-04-27T10:42:06.685Z</time></trkpt><trkpt lat="39.0549617" lon="16.152585"><ele>110.0</ele><time>2026-04-27T10:42:07.685Z</time></trkpt><trkpt lat="39.055015" lon="16.15264"><ele>112.33333333333334</ele><time>2026-04-27T10:42:08.721Z</time></trkpt><trkpt lat="39.0550567" lon="16.1527317"><ele>114.66666666666667</ele><time>2026-04-27T10:42:09.68Z</time></trkpt><trkpt lat="39.0551033" lon="16.15283"><ele>117.0</ele><time>2026-04-27T10:42:10.682Z</time></trkpt><trkpt lat="39.055145" lon="16.1529317"><ele>117.0</ele><time>2026-04-27T10:42:11.679Z</time></trkpt><trkpt lat="39.055185" lon="16.15305"><ele>116.99999999999999</ele><time>2026-04-27T10:42:12.682Z</time></trkpt><trkpt lat="39.055215" lon="16.1531867"><ele>116.99999999999999</ele><time>2026-04-27T10:42:13.682Z</time></trkpt><trkpt lat="39.0552433" lon="16.1533317"><ele>117.0</ele><time>2026-04-27T10:42:14.716Z</time></trkpt><trkpt lat="39.0552717" lon="16.1534733"><ele>117.0</ele><time>2026-04-27T10:42:15.675Z</time></trkpt><trkpt lat="39.0552933" lon="16.1536033"><ele>119.5</ele><time>2026-04-27T10:42:16.68Z</time></trkpt><trkpt lat="39.0553117" lon="16.1537183"><ele>122.0</ele><time>2026-04-27T10:42:17.68Z</time></trkpt><trkpt lat="39.0553217" lon="16.1538117"><ele>124.5</ele><time>2026-04-27T10:42:18.678Z</time></trkpt><trkpt lat="39.055275" lon="16.153955"><ele>127.0</ele><time>2026-04-27T10:42:20.721Z</time></trkpt><trkpt lat="39.0552117" lon="16.1540067"><ele>129.5</ele><time>2026-04-27T10:42:21.686Z</time></trkpt><trkpt lat="39.055135" lon="16.154045"><ele>132.0</ele><time>2026-04-27T10:42:22.685Z</time></trkpt><trkpt lat="39.0550733" lon="16.1540883"><ele>134.79999999999998</ele><time>2026-04-27T10:42:23.677Z</time></trkpt><trkpt lat="39.0550333" lon="16.1541717"><ele>137.6</ele><time>2026-04-27T10:42:25.675Z</time></trkpt><trkpt lat="39.05512" lon="16.154255"><ele>140.39999999999998</ele><time>2026-04-27T10:42:27.676Z</time></trkpt><trkpt lat="39.055205" lon="16.1543"><ele>143.2</ele><time>2026-04-27T10:42:28.674Z</time></trkpt><trkpt lat="39.055305" lon="16.1543617"><ele>146.0</ele><time>2026-04-27T10:42:29.675Z</time></trkpt><trkpt lat="39.0554233" lon="16.1544333"><ele>146.0</ele><time>2026-04-27T10:42:30.683Z</time></trkpt><trkpt lat="39.0555683" lon="16.1545083"><ele>146.0</ele><time>2026-04-27T10:42:31.683Z</time></trkpt><trkpt lat="39.0557033" lon="16.1545767"><ele>146.0</ele><time>2026-04-27T10:42:32.731Z</time></trkpt><trkpt lat="39.0558233" lon="16.15464"><ele>146.0</ele><time>2026-04-27T10:42:33.678Z</time></trkpt><trkpt lat="39.0559417" lon="16.1547"><ele>143.75</ele><time>2026-04-27T10:42:34.682Z</time></trkpt><trkpt lat="39.056055" lon="16.1547417"><ele>141.5</ele><time>2026-04-27T10:42:35.685Z</time></trkpt><trkpt lat="39.0561633" lon="16.1547717"><ele>139.25</ele><time>2026-04-27T10:42:36.683Z</time></trkpt><trkpt lat="39.0562733" lon="16.1548033"><ele>137.0</ele><time>2026-04-27T10:42:37.676Z</time></trkpt><trkpt lat="39.0563833" lon="16.15486"><ele>139.6</ele><time>2026-04-27T10:42:38.723Z</time></trkpt><trkpt lat="39.0564867" lon="16.154935"><ele>142.2</ele><time>2026-04-27T10:42:39.68Z</time></trkpt><trkpt lat="39.0565733" lon="16.1550117"><ele>144.8</ele><time>2026-04-27T10:42:40.682Z</time></trkpt><trkpt lat="39.056615" lon="16.1551083"><ele>147.4</ele><time>2026-04-27T10:42:41.684Z</time></trkpt><trkpt lat="39.0566217" lon="16.1551983"><ele>150.0</ele><time>2026-04-27T10:42:42.686Z</time></trkpt><trkpt lat="39.05659" lon="16.1552917"><ele>150.0</ele><time>2026-04-27T10:42:43.68Z</time></trkpt><trkpt lat="39.0565417" lon="16.15539"><ele>150.0</ele><time>2026-04-27T10:42:44.719Z</time></trkpt><trkpt lat="39.0564783" lon="16.1555017"><ele>150.0</ele><time>2026-04-27T10:42:45.673Z</time></trkpt><trkpt lat="39.0564083" lon="16.1556167"><ele>150.0</ele><time>2026-04-27T10:42:46.682Z</time></trkpt><trkpt lat="39.056345" lon="16.1557217"><ele>150.0</ele><time>2026-04-27T10:42:47.677Z</time></trkpt><trkpt lat="39.0562833" lon="16.1558017"><ele>152.5</ele><time>2026-04-27T10:42:48.679Z</time></trkpt><trkpt lat="39.0562133" lon="16.1558383"><ele>155.0</ele><time>2026-04-27T10:42:49.682Z</time></trkpt><trkpt lat="39.0561217" lon="16.1558033"><ele>157.5</ele><time>2026-04-27T10:42:50.713Z</time></trkpt><trkpt lat="39.0560367" lon="16.1558117"><ele>160.0</ele><time>2026-04-27T10:42:51.678Z</time></trkpt><trkpt lat="39.0559533" lon="16.155835"><ele>162.5</ele><time>2026-04-27T10:42:52.676Z</time></trkpt><trkpt lat="39.0558783" lon="16.1558767"><ele>165.0</ele><time>2026-04-27T10:42:53.679Z</time></trkpt><trkpt lat="39.055805" lon="16.1559367"><ele>166.2</ele><time>2026-04-27T10:42:54.684Z</time></trkpt><trkpt lat="39.055725" lon="16.156015"><ele>167.4</ele><time>2026-04-27T10:42:55.682Z</time></trkpt><trkpt lat="39.0556533" lon="16.1561183"><ele>168.60000000000002</ele><time>2026-04-27T10:42:56.745Z</time></trkpt><trkpt lat="39.0555817" lon="16.1562133"><ele>169.8</ele><time>2026-04-27T10:42:57.683Z</time></trkpt><trkpt lat="39.0555217" lon="16.1562983"><ele>171.0</ele><time>2026-04-27T10:42:58.676Z</time></trkpt><trkpt lat="39.0554867" lon="16.1563783"><ele>171.0</ele><time>2026-04-27T10:42:59.683Z</time></trkpt><trkpt lat="39.0554683" lon="16.1564683"><ele>171.0</ele><time>2026-04-27T10:43:00.682Z</time></trkpt><trkpt lat="39.0554667" lon="16.156555"><ele>171.0</ele><time>2026-04-27T10:43:01.687Z</time></trkpt><trkpt lat="39.0555783" lon="16.1566767"><ele>171.0</ele><time>2026-04-27T10:43:03.682Z</time></trkpt><trkpt lat="39.055665" lon="16.1567433"><ele>171.0</ele><time>2026-04-27T10:43:04.686Z</time></trkpt><trkpt lat="39.055755" lon="16.15682"><ele>173.0</ele><time>2026-04-27T10:43:05.686Z</time></trkpt><trkpt lat="39.055835" lon="16.1568933"><ele>175.0</ele><time>2026-04-27T10:43:06.685Z</time></trkpt><trkpt lat="39.0558967" lon="16.1569767"><ele>177.0</ele><time>2026-04-27T10:43:07.678Z</time></trkpt><trkpt lat="39.0559433" lon="16.1570783"><ele>179.0</ele><time>2026-04-27T10:43:08.718Z</time></trkpt><trkpt lat="39.055975" lon="16.157205"><ele>181.0</ele><time>2026-04-27T10:43:09.677Z</time></trkpt><trkpt lat="39.05599" lon="16.1573567"><ele>185.25</ele><time>2026-04-27T10:43:10.694Z</time></trkpt><trkpt lat="39.055995" lon="16.157525"><ele>189.5</ele><time>2026-04-27T10:43:11.681Z</time></trkpt><trkpt lat="39.055995" lon="16.1576983"><ele>193.75</ele><time>2026-04-27T10:43:12.688Z</time></trkpt><trkpt lat="39.056" lon="16.1578683"><ele>198.0</ele><time>2026-04-27T10:43:13.681Z</time></trkpt><trkpt lat="39.056" lon="16.158035"><ele>198.0</ele><time>2026-04-27T10:43:14.72Z</time></trkpt><trkpt lat="39.0559967" lon="16.1581983"><ele>198.0</ele><time>2026-04-27T10:43:15.685Z</time></trkpt><trkpt lat="39.0559917" lon="16.158355"><ele>198.0</ele><time>2026-04-27T10:43:16.683Z</time></trkpt><trkpt lat="39.055975" lon="16.1585083"><ele>198.0</ele><time>2026-04-27T10:43:17.68Z</time></trkpt><trkpt lat="39.0559417" lon="16.1586533"><ele>199.0</ele><time>2026-04-27T10:43:18.687Z</time></trkpt><trkpt lat="39.0558967" lon="16.1588017"><ele>200.0</ele><time>2026-04-27T10:43:19.687Z</time></trkpt><trkpt lat="39.0558417" lon="16.15895"><ele>201.0</ele><time>2026-04-27T10:43:20.713Z</time></trkpt><trkpt lat="39.0557833" lon="16.1590933"><ele>202.0</ele><time>2026-04-27T10:43:21.677Z</time></trkpt><trkpt lat="39.0557433" lon="16.1592317"><ele>202.49999999999997</ele><time>2026-04-27T10:43:22.689Z</time></trkpt><trkpt lat="39.0557483" lon="16.1593467"><ele>203.0</ele><time>2026-04-27T10:43:23.688Z</time></trkpt><trkpt lat="39.0557633" lon="16.1594733"><ele>203.5</ele><time>2026-04-27T10:43:24.678Z</time></trkpt><trkpt lat="39.0557817" lon="16.159585"><ele>204.0</ele><time>2026-04-27T10:43:25.685Z</time></trkpt><trkpt lat="39.0558083" lon="16.159695"><ele>204.49999999999997</ele><time>2026-04-27T10:43:26.707Z</time></trkpt><trkpt lat="39.055845" lon="16.15979"><ele>205.0</ele><time>2026-04-27T10:43:27.684Z</time></trkpt><trkpt lat="39.0558867" lon="16.1598817"><ele>206.8</ele><time>2026-04-27T10:43:28.686Z</time></trkpt><trkpt lat="39.055945" lon="16.159965"><ele>208.6</ele><time>2026-04-27T10:43:29.682Z</time></trkpt><trkpt lat="39.0559867" lon="16.1600517"><ele>210.39999999999998</ele><time>2026-04-27T10:43:30.689Z</time></trkpt><trkpt lat="39.0560233" lon="16.160155"><ele>212.2</ele><time>2026-04-27T10:43:31.682Z</time></trkpt><trkpt lat="39.0560433" lon="16.1602817"><ele>214.0</ele><time>2026-04-27T10:43:32.733Z</time></trkpt><trkpt lat="39.0560467" lon="16.1604317"><ele>214.0</ele><time>2026-04-27T10:43:33.682Z</time></trkpt><trkpt lat="39.056045" lon="16.1605917"><ele>214.0</ele><time>2026-04-27T10:43:34.684Z</time></trkpt><trkpt lat="39.0560517" lon="16.1607367"><ele>214.0</ele><time>2026-04-27T10:43:35.681Z</time></trkpt><trkpt lat="39.0560683" lon="16.160885"><ele>214.0</ele><time>2026-04-27T10:43:36.685Z</time></trkpt><trkpt lat="39.0560983" lon="16.1610483"><ele>216.25</ele><time>2026-04-27T10:43:37.68Z</time></trkpt><trkpt lat="39.05615" lon="16.16122"><ele>218.5</ele><time>2026-04-27T10:43:38.72Z</time></trkpt><trkpt lat="39.0562117" lon="16.1613933"><ele>220.75</ele><time>2026-04-27T10:43:39.684Z</time></trkpt><trkpt lat="39.0562867" lon="16.16157"><ele>223.0</ele><time>2026-04-27T10:43:40.688Z</time></trkpt><trkpt lat="39.0563683" lon="16.161745"><ele>221.25</ele><time>2026-04-27T10:43:41.679Z</time></trkpt><trkpt lat="39.0564517" lon="16.16191"><ele>219.5</ele><time>2026-04-27T10:43:42.688Z</time></trkpt><trkpt lat="39.0565317" lon="16.162065"><ele>217.75</ele><time>2026-04-27T10:43:43.681Z</time></trkpt><trkpt lat="39.0566017" lon="16.1622083"><ele>216.0</ele><time>2026-04-27T10:43:44.719Z</time></trkpt><trkpt lat="39.05666" lon="16.1623367"><ele>217.8</ele><time>2026-04-27T10:43:45.68Z</time></trkpt><trkpt lat="39.0566933" lon="16.16245"><ele>219.60000000000002</ele><time>2026-04-27T10:43:46.684Z</time></trkpt><trkpt lat="39.0567133" lon="16.1625667"><ele>221.4</ele><time>2026-04-27T10:43:47.687Z</time></trkpt><trkpt lat="39.05673" lon="16.1626933"><ele>223.2</ele><time>2026-04-27T10:43:48.688Z</time></trkpt><trkpt lat="39.0567367" lon="16.1628317"><ele>225.0</ele><time>2026-04-27T10:43:49.679Z</time></trkpt><trkpt lat="39.0567433" lon="16.16297"><ele>225.0</ele><time>2026-04-27T10:43:50.721Z</time></trkpt><trkpt lat="39.0567517" lon="16.1631217"><ele>225.0</ele><time>2026-04-27T10:43:51.687Z</time></trkpt><trkpt lat="39.0567533" lon="16.1632933"><ele>225.0</ele><time>2026-04-27T10:43:52.684Z</time></trkpt><trkpt lat="39.0567617" lon="16.1634717"><ele>225.0</ele><time>2026-04-27T10:43:53.682Z</time></trkpt><trkpt lat="39.0567733" lon="16.1636433"><ele>226.0</ele><time>2026-04-27T10:43:54.69Z</time></trkpt><trkpt lat="39.0567883" lon="16.16381"><ele>227.0</ele><time>2026-04-27T10:43:55.683Z</time></trkpt><trkpt lat="39.0568033" lon="16.163965"><ele>228.0</ele><time>2026-04-27T10:43:56.744Z</time></trkpt><trkpt lat="39.056825" lon="16.1641117"><ele>229.0</ele><time>2026-04-27T10:43:57.685Z</time></trkpt><trkpt lat="39.0568467" lon="16.16425"><ele>231.39999999999998</ele><time>2026-04-27T10:43:58.685Z</time></trkpt><trkpt lat="39.0568783" lon="16.1643783"><ele>233.79999999999998</ele><time>2026-04-27T10:43:59.683Z</time></trkpt><trkpt lat="39.0569183" lon="16.1644983"><ele>236.20000000000002</ele><time>2026-04-27T10:44:00.685Z</time></trkpt><trkpt lat="39.0569733" lon="16.1646133"><ele>238.60000000000002</ele><time>2026-04-27T10:44:01.676Z</time></trkpt><trkpt lat="39.057035" lon="16.1647217"><ele>241.0</ele><time>2026-04-27T10:44:02.729Z</time></trkpt><trkpt lat="39.0571067" lon="16.1648283"><ele>239.0</ele><time>2026-04-27T10:44:03.68Z</time></trkpt><trkpt lat="39.057185" lon="16.16493"><ele>237.00000000000003</ele><time>2026-04-27T10:44:04.675Z</time></trkpt><trkpt lat="39.0572767" lon="16.1650117"><ele>235.00000000000003</ele><time>2026-04-27T10:44:05.675Z</time></trkpt><trkpt lat="39.05736" lon="16.1650583"><ele>233.0</ele><time>2026-04-27T10:44:06.681Z</time></trkpt><trkpt lat="39.0574467" lon="16.1650833"><ele>231.0</ele><time>2026-04-27T10:44:07.682Z</time></trkpt><trkpt lat="39.0575133" lon="16.1651283"><ele>231.0</ele><time>2026-04-27T10:44:08.719Z</time></trkpt><trkpt lat="39.0575683" lon="16.1651967"><ele>231.00000000000003</ele><time>2026-04-27T10:44:09.683Z</time></trkpt><trkpt lat="39.0576267" lon="16.1652717"><ele>231.00000000000003</ele><time>2026-04-27T10:44:10.685Z</time></trkpt><trkpt lat="39.0576917" lon="16.1653733"><ele>231.0</ele><time>2026-04-27T10:44:11.679Z</time></trkpt><trkpt lat="39.057775" lon="16.165495"><ele>231.0</ele><time>2026-04-27T10:44:12.684Z</time></trkpt><trkpt lat="39.0578667" lon="16.1656233"><ele>229.60000000000002</ele><time>2026-04-27T10:44:13.68Z</time></trkpt><trkpt lat="39.0579633" lon="16.1657467"><ele>228.20000000000002</ele><time>2026-04-27T10:44:14.716Z</time></trkpt><trkpt lat="39.05805" lon="16.1658483"><ele>226.79999999999998</ele><time>2026-04-27T10:44:15.681Z</time></trkpt><trkpt lat="39.0581267" lon="16.1659283"><ele>225.39999999999998</ele><time>2026-04-27T10:44:16.686Z</time></trkpt><trkpt lat="39.058205" lon="16.165975"><ele>224.0</ele><time>2026-04-27T10:44:17.678Z</time></trkpt><trkpt lat="39.058285" lon="16.1659983"><ele>224.00000000000003</ele><time>2026-04-27T10:44:18.687Z</time></trkpt><trkpt lat="39.0583633" lon="16.1660083"><ele>224.0</ele><time>2026-04-27T10:44:19.679Z</time></trkpt><trkpt lat="39.0584367" lon="16.1660233"><ele>224.0</ele><time>2026-04-27T10:44:20.72Z</time></trkpt><trkpt lat="39.0585" lon="16.16606"><ele>224.0</ele><time>2026-04-27T10:44:21.679Z</time></trkpt><trkpt lat="39.0585583" lon="16.1661417"><ele>224.00000000000003</ele><time>2026-04-27T10:44:22.684Z</time></trkpt><trkpt lat="39.0586067" lon="16.1662467"><ele>224.0</ele><time>2026-04-27T10:44:23.678Z</time></trkpt><trkpt lat="39.05865" lon="16.1663717"><ele>227.33333333333334</ele><time>2026-04-27T10:44:24.676Z</time></trkpt><trkpt lat="39.0586967" lon="16.16653"><ele>230.66666666666669</ele><time>2026-04-27T10:44:25.68Z</time></trkpt><trkpt lat="39.0587483" lon="16.1667167"><ele>234.0</ele><time>2026-04-27T10:44:26.744Z</time></trkpt><trkpt lat="39.0588117" lon="16.1669217"><ele>234.0</ele><time>2026-04-27T10:44:27.675Z</time></trkpt><trkpt lat="39.05887" lon="16.1671267"><ele>234.0</ele><time>2026-04-27T10:44:28.68Z</time></trkpt><trkpt lat="39.05894" lon="16.1673367"><ele>234.0</ele><time>2026-04-27T10:44:29.682Z</time></trkpt><trkpt lat="39.059005" lon="16.16753"><ele>234.5</ele><time>2026-04-27T10:44:30.685Z</time></trkpt><trkpt lat="39.05907" lon="16.167715"><ele>235.0</ele><time>2026-04-27T10:44:31.68Z</time></trkpt><trkpt lat="39.0591333" lon="16.1678817"><ele>235.5</ele><time>2026-04-27T10:44:32.726Z</time></trkpt><trkpt lat="39.0591833" lon="16.1680333"><ele>236.0</ele><time>2026-04-27T10:44:33.676Z</time></trkpt><trkpt lat="39.059225" lon="16.1681767"><ele>232.5</ele><time>2026-04-27T10:44:34.681Z</time></trkpt><trkpt lat="39.0592533" lon="16.168325"><ele>229.0</ele><time>2026-04-27T10:44:35.684Z</time></trkpt><trkpt lat="39.0592667" lon="16.1684767"><ele>225.5</ele><time>2026-04-27T10:44:36.685Z</time></trkpt><trkpt lat="39.059265" lon="16.1686467"><ele>222.0</ele><time>2026-04-27T10:44:37.682Z</time></trkpt><trkpt lat="39.059265" lon="16.16883"><ele>222.0</ele><time>2026-04-27T10:44:38.721Z</time></trkpt><trkpt lat="39.05926" lon="16.16901"><ele>222.0</ele><time>2026-04-27T10:44:39.677Z</time></trkpt><trkpt lat="39.0592517" lon="16.169185"><ele>222.0</ele><time>2026-04-27T10:44:40.684Z</time></trkpt><trkpt lat="39.059235" lon="16.1693567"><ele>222.0</ele><time>2026-04-27T10:44:41.685Z</time></trkpt><trkpt lat="39.0592133" lon="16.1695283"><ele>222.5</ele><time>2026-04-27T10:44:42.68Z</time></trkpt><trkpt lat="39.0591833" lon="16.1697017"><ele>223.0</ele><time>2026-04-27T10:44:43.683Z</time></trkpt><trkpt lat="39.0591533" lon="16.16988"><ele>223.5</ele><time>2026-04-27T10:44:44.723Z</time></trkpt><trkpt lat="39.0591167" lon="16.1700367"><ele>224.0</ele><time>2026-04-27T10:44:45.681Z</time></trkpt><trkpt lat="39.0590917" lon="16.1701583"><ele>224.83333333333334</ele><time>2026-04-27T10:44:46.685Z</time></trkpt><trkpt lat="39.0590783" lon="16.1702617"><ele>225.66666666666669</ele><time>2026-04-27T10:44:47.682Z</time></trkpt><trkpt lat="39.059085" lon="16.170365"><ele>226.5</ele><time>2026-04-27T10:44:48.687Z</time></trkpt><trkpt lat="39.0591233" lon="16.1704467"><ele>227.33333333333331</ele><time>2026-04-27T10:44:49.681Z</time></trkpt><trkpt lat="39.059175" lon="16.170545"><ele>228.16666666666666</ele><time>2026-04-27T10:44:50.719Z</time></trkpt><trkpt lat="39.05923" lon="16.1706667"><ele>229.0</ele><time>2026-04-27T10:44:51.683Z</time></trkpt><trkpt lat="39.059275" lon="16.1708267"><ele>229.75</ele><time>2026-04-27T10:44:52.683Z</time></trkpt><trkpt lat="39.0593283" lon="16.171035"><ele>230.5</ele><time>2026-04-27T10:44:53.681Z</time></trkpt><trkpt lat="39.0593667" lon="16.171215"><ele>231.25</ele><time>2026-04-27T10:44:54.688Z</time></trkpt><trkpt lat="39.05939" lon="16.1713783"><ele>232.0</ele><time>2026-04-27T10:44:55.678Z</time></trkpt><trkpt lat="39.05939" lon="16.1715233"><ele>232.6</ele><time>2026-04-27T10:44:56.763Z</time></trkpt><trkpt lat="39.0593617" lon="16.1716517"><ele>233.2</ele><time>2026-04-27T10:44:57.682Z</time></trkpt><trkpt lat="39.0593183" lon="16.1717567"><ele>233.8</ele><time>2026-04-27T10:44:58.685Z</time></trkpt><trkpt lat="39.05927" lon="16.1718683"><ele>234.4</ele><time>2026-04-27T10:44:59.682Z</time></trkpt><trkpt lat="39.0592333" lon="16.1719883"><ele>235.0</ele><time>2026-04-27T10:45:00.692Z</time></trkpt><trkpt lat="39.05922" lon="16.1721217"><ele>235.0</ele><time>2026-04-27T10:45:01.68Z</time></trkpt><trkpt lat="39.059225" lon="16.1722883"><ele>235.0</ele><time>2026-04-27T10:45:02.734Z</time></trkpt><trkpt lat="39.0592367" lon="16.1724767"><ele>235.0</ele><time>2026-04-27T10:45:03.686Z</time></trkpt><trkpt lat="39.05923" lon="16.1726533"><ele>235.0</ele><time>2026-04-27T10:45:04.682Z</time></trkpt><trkpt lat="39.0592" lon="16.1728083"><ele>235.0</ele><time>2026-04-27T10:45:05.686Z</time></trkpt><trkpt lat="39.05915" lon="16.17295"><ele>235.0</ele><time>2026-04-27T10:45:06.688Z</time></trkpt><trkpt lat="39.0591033" lon="16.1730683"><ele>235.0</ele><time>2026-04-27T10:45:07.683Z</time></trkpt><trkpt lat="39.0590783" lon="16.1731767"><ele>235.0</ele><time>2026-04-27T10:45:08.718Z</time></trkpt><trkpt lat="39.0590783" lon="16.173275"><ele>235.0</ele><time>2026-04-27T10:45:09.682Z</time></trkpt><trkpt lat="39.0591317" lon="16.17336"><ele>236.75</ele><time>2026-04-27T10:45:10.679Z</time></trkpt><trkpt lat="39.0591983" lon="16.1734617"><ele>238.5</ele><time>2026-04-27T10:45:11.684Z</time></trkpt><trkpt lat="39.0592783" lon="16.1735683"><ele>240.25</ele><time>2026-04-27T10:45:12.683Z</time></trkpt><trkpt lat="39.059355" lon="16.1736933"><ele>242.0</ele><time>2026-04-27T10:45:13.688Z</time></trkpt><trkpt lat="39.0594267" lon="16.173835"><ele>242.0</ele><time>2026-04-27T10:45:14.719Z</time></trkpt><trkpt lat="39.0594433" lon="16.1740133"><ele>242.0</ele><time>2026-04-27T10:45:15.681Z</time></trkpt><trkpt lat="39.05945" lon="16.1741983"><ele>242.0</ele><time>2026-04-27T10:45:16.686Z</time></trkpt><trkpt lat="39.05944" lon="16.1744017"><ele>242.0</ele><time>2026-04-27T10:45:17.682Z</time></trkpt><trkpt lat="39.0594267" lon="16.174615"><ele>244.66666666666669</ele><time>2026-04-27T10:45:18.694Z</time></trkpt><trkpt lat="39.059415" lon="16.174825"><ele>247.33333333333331</ele><time>2026-04-27T10:45:19.685Z</time></trkpt><trkpt lat="39.0594" lon="16.1750233"><ele>250.0</ele><time>2026-04-27T10:45:20.722Z</time></trkpt><trkpt lat="39.05937" lon="16.1752133"><ele>250.5</ele><time>2026-04-27T10:45:21.68Z</time></trkpt><trkpt lat="39.059315" lon="16.175385"><ele>251.0</ele><time>2026-04-27T10:45:22.68Z</time></trkpt><trkpt lat="39.059265" lon="16.1755417"><ele>251.5</ele><time>2026-04-27T10:45:23.68Z</time></trkpt><trkpt lat="39.0592217" lon="16.1756783"><ele>252.0</ele><time>2026-04-27T10:45:24.686Z</time></trkpt><trkpt lat="39.0592167" lon="16.1757767"><ele>251.0</ele><time>2026-04-27T10:45:25.679Z</time></trkpt><trkpt lat="39.0592317" lon="16.175865"><ele>250.0</ele><time>2026-04-27T10:45:26.747Z</time></trkpt><trkpt lat="39.0592717" lon="16.17594"><ele>249.0</ele><time>2026-04-27T10:45:27.677Z</time></trkpt><trkpt lat="39.059325" lon="16.1760683"><ele>248.0</ele><time>2026-04-27T10:45:29.683Z</time></trkpt><trkpt lat="39.059315" lon="16.1761517"><ele>247.0</ele><time>2026-04-27T10:45:30.684Z</time></trkpt><trkpt lat="39.0592883" lon="16.176255"><ele>246.0</ele><time>2026-04-27T10:45:31.681Z</time></trkpt><trkpt lat="39.0592517" lon="16.1764"><ele>246.33333333333331</ele><time>2026-04-27T10:45:32.731Z</time></trkpt><trkpt lat="39.05923" lon="16.176575"><ele>246.66666666666666</ele><time>2026-04-27T10:45:33.679Z</time></trkpt><trkpt lat="39.0592283" lon="16.1767833"><ele>247.0</ele><time>2026-04-27T10:45:34.685Z</time></trkpt><trkpt lat="39.059245" lon="16.1770133"><ele>247.0</ele><time>2026-04-27T10:45:35.678Z</time></trkpt><trkpt lat="39.05929" lon="16.1772617"><ele>247.0</ele><time>2026-04-27T10:45:36.684Z</time></trkpt><trkpt lat="39.0593517" lon="16.177515"><ele>247.0</ele><time>2026-04-27T10:45:37.685Z</time></trkpt><trkpt lat="39.05942" lon="16.1777683"><ele>249.66666666666666</ele><time>2026-04-27T10:45:38.716Z</time></trkpt><trkpt lat="39.0594817" lon="16.1780267"><ele>252.33333333333331</ele><time>2026-04-27T10:45:39.681Z</time></trkpt><trkpt lat="39.0595267" lon="16.1782883"><ele>255.0</ele><time>2026-04-27T10:45:40.683Z</time></trkpt><trkpt lat="39.0595417" lon="16.1785633"><ele>259.0</ele><time>2026-04-27T10:45:41.683Z</time></trkpt><trkpt lat="39.059535" lon="16.1788483"><ele>263.0</ele><time>2026-04-27T10:45:42.687Z</time></trkpt><trkpt lat="39.0595233" lon="16.179135"><ele>267.0</ele><time>2026-04-27T10:45:43.677Z</time></trkpt><trkpt lat="39.059515" lon="16.1794233"><ele>273.5</ele><time>2026-04-27T10:45:44.715Z</time></trkpt><trkpt lat="39.0595383" lon="16.1797117"><ele>280.0</ele><time>2026-04-27T10:45:45.674Z</time></trkpt><trkpt lat="39.059575" lon="16.18"><ele>282.3333333333333</ele><time>2026-04-27T10:45:46.687Z</time></trkpt><trkpt lat="39.0596183" lon="16.1802667"><ele>284.6666666666667</ele><time>2026-04-27T10:45:47.68Z</time></trkpt><trkpt lat="39.0596467" lon="16.18051"><ele>287.0</ele><time>2026-04-27T10:45:48.686Z</time></trkpt><trkpt lat="39.0596533" lon="16.18074"><ele>289.6666666666667</ele><time>2026-04-27T10:45:49.684Z</time></trkpt><trkpt lat="39.0596317" lon="16.1809617"><ele>292.3333333333333</ele><time>2026-04-27T10:45:50.714Z</time></trkpt><trkpt lat="39.0595867" lon="16.1811883"><ele>295.0</ele><time>2026-04-27T10:45:51.676Z</time></trkpt><trkpt lat="39.0595183" lon="16.1814167"><ele>297.0</ele><time>2026-04-27T10:45:52.675Z</time></trkpt><trkpt lat="39.0594433" lon="16.1816333"><ele>299.0</ele><time>2026-04-27T10:45:53.684Z</time></trkpt><trkpt lat="39.0593867" lon="16.1818517"><ele>301.0</ele><time>2026-04-27T10:45:54.688Z</time></trkpt><trkpt lat="39.05934" lon="16.1820833"><ele>301.0</ele><time>2026-04-27T10:45:55.682Z</time></trkpt><trkpt lat="39.059325" lon="16.1823317"><ele>301.0</ele><time>2026-04-27T10:45:56.747Z</time></trkpt><trkpt lat="39.0593183" lon="16.1825983"><ele>301.0</ele><time>2026-04-27T10:45:57.679Z</time></trkpt><trkpt lat="39.05931" lon="16.1828717"><ele>303.0</ele><time>2026-04-27T10:45:58.684Z</time></trkpt><trkpt lat="39.0592933" lon="16.1831433"><ele>305.0</ele><time>2026-04-27T10:45:59.679Z</time></trkpt><trkpt lat="39.059265" lon="16.1833833"><ele>307.0</ele><time>2026-04-27T10:46:00.684Z</time></trkpt><trkpt lat="39.0592383" lon="16.1835867"><ele>308.5</ele><time>2026-04-27T10:46:01.68Z</time></trkpt><trkpt lat="39.0592283" lon="16.18377"><ele>310.0</ele><time>2026-04-27T10:46:02.733Z</time></trkpt><trkpt lat="39.0592867" lon="16.1839167"><ele>311.5</ele><time>2026-04-27T10:46:03.679Z</time></trkpt><trkpt lat="39.0593817" lon="16.1840583"><ele>313.0</ele><time>2026-04-27T10:46:04.684Z</time></trkpt><trkpt lat="39.0595033" lon="16.1841867"><ele>318.0</ele><time>2026-04-27T10:46:05.681Z</time></trkpt><trkpt lat="39.0596233" lon="16.1843233"><ele>323.0</ele><time>2026-04-27T10:46:06.686Z</time></trkpt><trkpt lat="39.0597283" lon="16.184485"><ele>328.0</ele><time>2026-04-27T10:46:07.682Z</time></trkpt><trkpt lat="39.0598133" lon="16.1846817"><ele>327.0</ele><time>2026-04-27T10:46:08.72Z</time></trkpt><trkpt lat="39.0598933" lon="16.1849"><ele>326.0</ele><time>2026-04-27T10:46:09.68Z</time></trkpt><trkpt lat="39.0599733" lon="16.1851433"><ele>325.0</ele><time>2026-04-27T10:46:10.684Z</time></trkpt><trkpt lat="39.060055" lon="16.1854017"><ele>325.0</ele><time>2026-04-27T10:46:11.681Z</time></trkpt><trkpt lat="39.060135" lon="16.1856667"><ele>325.0</ele><time>2026-04-27T10:46:12.692Z</time></trkpt><trkpt lat="39.0602083" lon="16.18593"><ele>325.0</ele><time>2026-04-27T10:46:13.683Z</time></trkpt><trkpt lat="39.0602817" lon="16.1861967"><ele>330.3333333333333</ele><time>2026-04-27T10:46:14.723Z</time></trkpt><trkpt lat="39.0603567" lon="16.1864633"><ele>335.6666666666667</ele><time>2026-04-27T10:46:15.682Z</time></trkpt><trkpt lat="39.0604417" lon="16.18672"><ele>341.0</ele><time>2026-04-27T10:46:16.69Z</time></trkpt><trkpt lat="39.060525" lon="16.1869533"><ele>345.33333333333337</ele><time>2026-04-27T10:46:17.682Z</time></trkpt><trkpt lat="39.0606267" lon="16.1871617"><ele>349.6666666666667</ele><time>2026-04-27T10:46:18.684Z</time></trkpt><trkpt lat="39.0607433" lon="16.1873567"><ele>354.0</ele><time>2026-04-27T10:46:19.672Z</time></trkpt><trkpt lat="39.060875" lon="16.187555"><ele>354.0</ele><time>2026-04-27T10:46:20.719Z</time></trkpt><trkpt lat="39.0610033" lon="16.1877583"><ele>354.0</ele><time>2026-04-27T10:46:21.679Z</time></trkpt><trkpt lat="39.06114" lon="16.1879617"><ele>354.0</ele><time>2026-04-27T10:46:22.683Z</time></trkpt><trkpt lat="39.061275" lon="16.18817"><ele>353.3333333333333</ele><time>2026-04-27T10:46:23.684Z</time></trkpt><trkpt lat="39.0614083" lon="16.1883683"><ele>352.66666666666663</ele><time>2026-04-27T10:46:24.688Z</time></trkpt><trkpt lat="39.061525" lon="16.18855"><ele>352.0</ele><time>2026-04-27T10:46:25.675Z</time></trkpt><trkpt lat="39.061635" lon="16.188715"><ele>352.0</ele><time>2026-04-27T10:46:26.75Z</time></trkpt><trkpt lat="39.0617083" lon="16.1888583"><ele>352.0</ele><time>2026-04-27T10:46:27.679Z</time></trkpt><trkpt lat="39.0617617" lon="16.1889967"><ele>352.0</ele><time>2026-04-27T10:46:28.684Z</time></trkpt><trkpt lat="39.0618017" lon="16.1891333"><ele>352.0</ele><time>2026-04-27T10:46:29.685Z</time></trkpt><trkpt lat="39.0618367" lon="16.1892767"><ele>356.25</ele><time>2026-04-27T10:46:30.681Z</time></trkpt><trkpt lat="39.0618667" lon="16.1894283"><ele>360.5</ele><time>2026-04-27T10:46:31.68Z</time></trkpt><trkpt lat="39.0618883" lon="16.189595"><ele>364.75</ele><time>2026-04-27T10:46:32.733Z</time></trkpt><trkpt lat="39.0619017" lon="16.1897783"><ele>369.0</ele><time>2026-04-27T10:46:33.679Z</time></trkpt><trkpt lat="39.0619067" lon="16.1899817"><ele>373.3333333333333</ele><time>2026-04-27T10:46:34.686Z</time></trkpt><trkpt lat="39.0619067" lon="16.1901933"><ele>377.66666666666663</ele><time>2026-04-27T10:46:35.684Z</time></trkpt><trkpt lat="39.061905" lon="16.1904117"><ele>382.0</ele><time>2026-04-27T10:46:36.687Z</time></trkpt><trkpt lat="39.0619017" lon="16.1906333"><ele>385.66666666666663</ele><time>2026-04-27T10:46:37.677Z</time></trkpt><trkpt lat="39.0618983" lon="16.1908617"><ele>389.3333333333333</ele><time>2026-04-27T10:46:38.716Z</time></trkpt><trkpt lat="39.0618967" lon="16.19109"><ele>393.0</ele><time>2026-04-27T10:46:39.677Z</time></trkpt><trkpt lat="39.061905" lon="16.191325"><ele>396.0</ele><time>2026-04-27T10:46:40.687Z</time></trkpt><trkpt lat="39.0619217" lon="16.19156"><ele>399.0</ele><time>2026-04-27T10:46:41.687Z</time></trkpt><trkpt lat="39.0619517" lon="16.191795"><ele>402.0</ele><time>2026-04-27T10:46:42.689Z</time></trkpt><trkpt lat="39.06199" lon="16.1920317"><ele>402.0</ele><time>2026-04-27T10:46:43.682Z</time></trkpt><trkpt lat="39.0620367" lon="16.1922667"><ele>402.0</ele><time>2026-04-27T10:46:44.722Z</time></trkpt><trkpt lat="39.0620933" lon="16.1925033"><ele>402.0</ele><time>2026-04-27T10:46:45.676Z</time></trkpt><trkpt lat="39.062155" lon="16.1927417"><ele>405.66666666666663</ele><time>2026-04-27T10:46:46.694Z</time></trkpt><trkpt lat="39.0622217" lon="16.192975"><ele>409.3333333333333</ele><time>2026-04-27T10:46:47.684Z</time></trkpt><trkpt lat="39.0622867" lon="16.1932117"><ele>413.0</ele><time>2026-04-27T10:46:48.688Z</time></trkpt><trkpt lat="39.062355" lon="16.1934417"><ele>413.0</ele><time>2026-04-27T10:46:49.683Z</time></trkpt><trkpt lat="39.0624167" lon="16.1936683"><ele>413.0</ele><time>2026-04-27T10:46:50.716Z</time></trkpt><trkpt lat="39.062475" lon="16.1938783"><ele>413.0</ele><time>2026-04-27T10:46:51.678Z</time></trkpt><trkpt lat="39.0625233" lon="16.1940567"><ele>413.0</ele><time>2026-04-27T10:46:52.678Z</time></trkpt><trkpt lat="39.06255" lon="16.1941617"><ele>413.0</ele><time>2026-04-27T10:46:53.68Z</time></trkpt><trkpt lat="39.0625667" lon="16.194255"><ele>413.0</ele><time>2026-04-27T10:46:54.685Z</time></trkpt><trkpt lat="39.06261" lon="16.1943817"><ele>413.0</ele><time>2026-04-27T10:46:56.752Z</time></trkpt><trkpt lat="39.0626917" lon="16.194435"><ele>413.0</ele><time>2026-04-27T10:46:58.685Z</time></trkpt><trkpt lat="39.0628283" lon="16.194465"><ele>413.0</ele><time>2026-04-27T10:47:00.683Z</time></trkpt><trkpt lat="39.0629167" lon="16.194485"><ele>413.0</ele><time>2026-04-27T10:47:01.685Z</time></trkpt><trkpt lat="39.0630183" lon="16.1945067"><ele>413.0</ele><time>2026-04-27T10:47:02.75Z</time></trkpt><trkpt lat="39.0631367" lon="16.1945317"><ele>413.0</ele><time>2026-04-27T10:47:03.682Z</time></trkpt><trkpt lat="39.0632533" lon="16.194555"><ele>413.0</ele><time>2026-04-27T10:47:04.684Z</time></trkpt><trkpt lat="39.0633733" lon="16.1945683"><ele>410.75</ele><time>2026-04-27T10:47:05.681Z</time></trkpt><trkpt lat="39.0634917" lon="16.19459"><ele>408.5</ele><time>2026-04-27T10:47:06.687Z</time></trkpt><trkpt lat="39.0636217" lon="16.1946217"><ele>406.25</ele><time>2026-04-27T10:47:07.684Z</time></trkpt><trkpt lat="39.0637583" lon="16.194655"><ele>404.0</ele><time>2026-04-27T10:47:08.722Z</time></trkpt><trkpt lat="39.0639" lon="16.1946967"><ele>404.0</ele><time>2026-04-27T10:47:09.676Z</time></trkpt><trkpt lat="39.0640517" lon="16.19476"><ele>404.0</ele><time>2026-04-27T10:47:10.683Z</time></trkpt><trkpt lat="39.0642133" lon="16.194835"><ele>404.0</ele><time>2026-04-27T10:47:11.68Z</time></trkpt><trkpt lat="39.0643817" lon="16.1949367"><ele>409.0</ele><time>2026-04-27T10:47:12.688Z</time></trkpt><trkpt lat="39.0645333" lon="16.19504"><ele>414.0</ele><time>2026-04-27T10:47:13.683Z</time></trkpt><trkpt lat="39.0646783" lon="16.1951583"><ele>419.0</ele><time>2026-04-27T10:47:14.719Z</time></trkpt><trkpt lat="39.06481" lon="16.195295"><ele>419.0</ele><time>2026-04-27T10:47:15.692Z</time></trkpt><trkpt lat="39.0649283" lon="16.195465"><ele>419.0</ele><time>2026-04-27T10:47:16.688Z</time></trkpt><trkpt lat="39.0650533" lon="16.1956467"><ele>419.0</ele><time>2026-04-27T10:47:17.684Z</time></trkpt><trkpt lat="39.0651783" lon="16.195835"><ele>420.66666666666663</ele><time>2026-04-27T10:47:18.682Z</time></trkpt><trkpt lat="39.0653067" lon="16.1960233"><ele>422.33333333333337</ele><time>2026-04-27T10:47:19.677Z</time></trkpt><trkpt lat="39.0654333" lon="16.1962117"><ele>424.0</ele><time>2026-04-27T10:47:20.721Z</time></trkpt><trkpt lat="39.0655583" lon="16.1963933"><ele>422.6666666666667</ele><time>2026-04-27T10:47:21.683Z</time></trkpt><trkpt lat="39.0656717" lon="16.1965667"><ele>421.33333333333337</ele><time>2026-04-27T10:47:22.685Z</time></trkpt><trkpt lat="39.0657617" lon="16.1967333"><ele>420.0</ele><time>2026-04-27T10:47:23.682Z</time></trkpt><trkpt lat="39.0657967" lon="16.19688"><ele>420.0</ele><time>2026-04-27T10:47:24.678Z</time></trkpt><trkpt lat="39.0657883" lon="16.197005"><ele>420.0</ele><time>2026-04-27T10:47:25.686Z</time></trkpt><trkpt lat="39.0657383" lon="16.1970983"><ele>420.0</ele><time>2026-04-27T10:47:26.749Z</time></trkpt><trkpt lat="39.065655" lon="16.1971483"><ele>420.0</ele><time>2026-04-27T10:47:27.679Z</time></trkpt><trkpt lat="39.0655633" lon="16.1971717"><ele>420.0</ele><time>2026-04-27T10:47:28.675Z</time></trkpt><trkpt lat="39.0654467" lon="16.1971117"><ele>424.5</ele><time>2026-04-27T10:47:29.676Z</time></trkpt><trkpt lat="39.0653367" lon="16.19704"><ele>429.0</ele><time>2026-04-27T10:47:30.686Z</time></trkpt><trkpt lat="39.0652083" lon="16.1969583"><ele>433.5</ele><time>2026-04-27T10:47:31.683Z</time></trkpt><trkpt lat="39.0650667" lon="16.196875"><ele>438.0</ele><time>2026-04-27T10:47:32.745Z</time></trkpt><trkpt lat="39.064915" lon="16.19679"><ele>443.66666666666663</ele><time>2026-04-27T10:47:33.68Z</time></trkpt><trkpt lat="39.0647617" lon="16.1967067"><ele>449.3333333333333</ele><time>2026-04-27T10:47:34.684Z</time></trkpt><trkpt lat="39.06461" lon="16.19664"><ele>455.0</ele><time>2026-04-27T10:47:35.679Z</time></trkpt><trkpt lat="39.0644583" lon="16.1966033"><ele>455.0</ele><time>2026-04-27T10:47:36.685Z</time></trkpt><trkpt lat="39.0642983" lon="16.1965967"><ele>455.0</ele><time>2026-04-27T10:47:37.674Z</time></trkpt><trkpt lat="39.06414" lon="16.1966567"><ele>455.0</ele><time>2026-04-27T10:47:38.717Z</time></trkpt><trkpt lat="39.0639817" lon="16.196735"><ele>454.0</ele><time>2026-04-27T10:47:39.683Z</time></trkpt><trkpt lat="39.0638233" lon="16.19684"><ele>453.0</ele><time>2026-04-27T10:47:40.684Z</time></trkpt><trkpt lat="39.063665" lon="16.1969483"><ele>452.0</ele><time>2026-04-27T10:47:41.685Z</time></trkpt><trkpt lat="39.0635117" lon="16.197075"><ele>452.0</ele><time>2026-04-27T10:47:42.693Z</time></trkpt><trkpt lat="39.06336" lon="16.1972117"><ele>452.0</ele><time>2026-04-27T10:47:43.682Z</time></trkpt><trkpt lat="39.0632033" lon="16.1973467"><ele>452.0</ele><time>2026-04-27T10:47:44.722Z</time></trkpt><trkpt lat="39.0630383" lon="16.1974717"><ele>460.0</ele><time>2026-04-27T10:47:45.686Z</time></trkpt><trkpt lat="39.06286" lon="16.1975783"><ele>468.0</ele><time>2026-04-27T10:47:46.687Z</time></trkpt><trkpt lat="39.0626717" lon="16.1976633"><ele>476.0</ele><time>2026-04-27T10:47:47.68Z</time></trkpt><trkpt lat="39.062465" lon="16.1977167"><ele>477.3333333333333</ele><time>2026-04-27T10:47:48.684Z</time></trkpt><trkpt lat="39.0622617" lon="16.1977567"><ele>478.66666666666663</ele><time>2026-04-27T10:47:49.688Z</time></trkpt><trkpt lat="39.0620767" lon="16.19779"><ele>480.0</ele><time>2026-04-27T10:47:50.72Z</time></trkpt><trkpt lat="39.0618983" lon="16.1978083"><ele>480.0</ele><time>2026-04-27T10:47:51.681Z</time></trkpt><trkpt lat="39.0617417" lon="16.197815"><ele>480.0</ele><time>2026-04-27T10:47:52.687Z</time></trkpt><trkpt lat="39.0616067" lon="16.1977733"><ele>480.0</ele><time>2026-04-27T10:47:53.685Z</time></trkpt><trkpt lat="39.0614933" lon="16.197715"><ele>480.0</ele><time>2026-04-27T10:47:54.687Z</time></trkpt><trkpt lat="39.0614333" lon="16.1975967"><ele>479.0</ele><time>2026-04-27T10:47:55.684Z</time></trkpt><trkpt lat="39.06138" lon="16.19749"><ele>478.0</ele><time>2026-04-27T10:47:56.744Z</time></trkpt><trkpt lat="39.0612917" lon="16.19739"><ele>477.0</ele><time>2026-04-27T10:47:58.685Z</time></trkpt><trkpt lat="39.0612283" lon="16.1974383"><ele>476.0</ele><time>2026-04-27T10:48:00.686Z</time></trkpt><trkpt lat="39.0612183" lon="16.1975217"><ele>475.0</ele><time>2026-04-27T10:48:02.74Z</time></trkpt><trkpt lat="39.0611583" lon="16.1974017"><ele>476.2</ele><time>2026-04-27T10:48:44.713Z</time></trkpt><trkpt lat="39.0611083" lon="16.1973067"><ele>477.4</ele><time>2026-04-27T10:48:45.681Z</time></trkpt><trkpt lat="39.0610467" lon="16.1971983"><ele>478.6</ele><time>2026-04-27T10:48:46.686Z</time></trkpt><trkpt lat="39.0609867" lon="16.1971"><ele>479.8</ele><time>2026-04-27T10:48:47.681Z</time></trkpt><trkpt lat="39.0609317" lon="16.1970083"><ele>481.0</ele><time>2026-04-27T10:48:48.678Z</time></trkpt><trkpt lat="39.0608817" lon="16.19692"><ele>481.0</ele><time>2026-04-27T10:48:49.676Z</time></trkpt><trkpt lat="39.0608367" lon="16.1968433"><ele>481.0</ele><time>2026-04-27T10:48:50.72Z</time></trkpt><trkpt lat="39.0607967" lon="16.1967683"><ele>481.0</ele><time>2026-04-27T10:48:51.682Z</time></trkpt><trkpt lat="39.0607317" lon="16.1966417"><ele>481.0</ele><time>2026-04-27T10:48:53.678Z</time></trkpt><trkpt lat="39.0606833" lon="16.19652"><ele>481.0</ele><time>2026-04-27T10:48:55.681Z</time></trkpt><trkpt lat="39.0606383" lon="16.19639"><ele>481.6666666666667</ele><time>2026-04-27T10:48:57.686Z</time></trkpt><trkpt lat="39.0605967" lon="16.19625"><ele>482.33333333333337</ele><time>2026-04-27T10:48:59.679Z</time></trkpt><trkpt lat="39.06057" lon="16.196175"><ele>483.0</ele><time>2026-04-27T10:49:00.681Z</time></trkpt><trkpt lat="39.0605433" lon="16.1960917"><ele>483.66666666666663</ele><time>2026-04-27T10:49:01.678Z</time></trkpt><trkpt lat="39.0605017" lon="16.1960117"><ele>484.3333333333333</ele><time>2026-04-27T10:49:02.731Z</time></trkpt><trkpt lat="39.0604417" lon="16.1959167"><ele>485.0</ele><time>2026-04-27T10:49:03.677Z</time></trkpt><trkpt lat="39.0603983" lon="16.1958017"><ele>485.0</ele><time>2026-04-27T10:49:04.678Z</time></trkpt><trkpt lat="39.060335" lon="16.195685"><ele>485.0</ele><time>2026-04-27T10:49:05.679Z</time></trkpt><trkpt lat="39.0602733" lon="16.1955767"><ele>485.0</ele><time>2026-04-27T10:49:06.677Z</time></trkpt><trkpt lat="39.0602333" lon="16.1954567"><ele>485.0</ele><time>2026-04-27T10:49:07.678Z</time></trkpt><trkpt lat="39.0601983" lon="16.1953417"><ele>485.0</ele><time>2026-04-27T10:49:08.714Z</time></trkpt><trkpt lat="39.06016" lon="16.1952333"><ele>485.2</ele><time>2026-04-27T10:49:09.676Z</time></trkpt><trkpt lat="39.0601133" lon="16.1951333"><ele>485.4</ele><time>2026-04-27T10:49:10.68Z</time></trkpt><trkpt lat="39.0600367" lon="16.1949367"><ele>485.6</ele><time>2026-04-27T10:49:12.68Z</time></trkpt><trkpt lat="39.0600133" lon="16.1948383"><ele>485.8</ele><time>2026-04-27T10:49:13.681Z</time></trkpt><trkpt lat="39.0599833" lon="16.194745"><ele>486.0</ele><time>2026-04-27T10:49:14.713Z</time></trkpt><trkpt lat="39.059955" lon="16.19466"><ele>487.5</ele><time>2026-04-27T10:49:15.678Z</time></trkpt><trkpt lat="39.0599183" lon="16.1945817"><ele>489.0</ele><time>2026-04-27T10:49:16.68Z</time></trkpt><trkpt lat="39.0598433" lon="16.1944717"><ele>490.5</ele><time>2026-04-27T10:49:18.676Z</time></trkpt><trkpt lat="39.05978" lon="16.1943867"><ele>492.0</ele><time>2026-04-27T10:49:20.717Z</time></trkpt><trkpt lat="39.0597233" lon="16.1943217"><ele>493.5</ele><time>2026-04-27T10:49:22.677Z</time></trkpt><trkpt lat="39.059655" lon="16.194245"><ele>495.0</ele><time>2026-04-27T10:49:25.678Z</time></trkpt><trkpt lat="39.05962" lon="16.1941567"><ele>495.0</ele><time>2026-04-27T10:49:27.686Z</time></trkpt><trkpt lat="39.059575" lon="16.19402"><ele>495.0</ele><time>2026-04-27T10:49:29.676Z</time></trkpt><trkpt lat="39.05953" lon="16.1939033"><ele>495.0</ele><time>2026-04-27T10:49:30.676Z</time></trkpt><trkpt lat="39.0594833" lon="16.1937817"><ele>495.0</ele><time>2026-04-27T10:49:31.68Z</time></trkpt><trkpt lat="39.05944" lon="16.193655"><ele>495.0</ele><time>2026-04-27T10:49:32.731Z</time></trkpt><trkpt lat="39.0594017" lon="16.193565"><ele>494.0</ele><time>2026-04-27T10:49:33.678Z</time></trkpt><trkpt lat="39.0593567" lon="16.19349"><ele>493.0</ele><time>2026-04-27T10:49:34.679Z</time></trkpt><trkpt lat="39.0593133" lon="16.1934167"><ele>492.0</ele><time>2026-04-27T10:49:35.678Z</time></trkpt><trkpt lat="39.059275" lon="16.19333"><ele>491.0</ele><time>2026-04-27T10:49:36.683Z</time></trkpt><trkpt lat="39.05923" lon="16.1932283"><ele>490.0</ele><time>2026-04-27T10:49:37.683Z</time></trkpt><trkpt lat="39.059175" lon="16.19312"><ele>489.0</ele><time>2026-04-27T10:49:38.717Z</time></trkpt><trkpt lat="39.0591133" lon="16.1930167"><ele>492.0</ele><time>2026-04-27T10:49:39.677Z</time></trkpt><trkpt lat="39.0590483" lon="16.1929167"><ele>495.0</ele><time>2026-04-27T10:49:40.682Z</time></trkpt><trkpt lat="39.0589833" lon="16.19282"><ele>498.0</ele><time>2026-04-27T10:49:41.681Z</time></trkpt><trkpt lat="39.05892" lon="16.1927233"><ele>501.0</ele><time>2026-04-27T10:49:42.683Z</time></trkpt><trkpt lat="39.0588733" lon="16.192635"><ele>504.0</ele><time>2026-04-27T10:49:43.677Z</time></trkpt><trkpt lat="39.0588383" lon="16.192555"><ele>504.0</ele><time>2026-04-27T10:49:44.716Z</time></trkpt><trkpt lat="39.0588017" lon="16.1924733"><ele>504.0</ele><time>2026-04-27T10:49:45.681Z</time></trkpt><trkpt lat="39.0587667" lon="16.1923867"><ele>504.0</ele><time>2026-04-27T10:49:46.676Z</time></trkpt><trkpt lat="39.0587267" lon="16.1923"><ele>504.0</ele><time>2026-04-27T10:49:47.68Z</time></trkpt><trkpt lat="39.05869" lon="16.1922083"><ele>504.0</ele><time>2026-04-27T10:49:48.68Z</time></trkpt><trkpt lat="39.0586583" lon="16.19212"><ele>504.0</ele><time>2026-04-27T10:49:49.683Z</time></trkpt><trkpt lat="39.0586417" lon="16.192025"><ele>502.8333333333333</ele><time>2026-04-27T10:49:50.717Z</time></trkpt><trkpt lat="39.0586367" lon="16.19193"><ele>501.66666666666663</ele><time>2026-04-27T10:49:51.68Z</time></trkpt><trkpt lat="39.05863" lon="16.19184"><ele>500.5</ele><time>2026-04-27T10:49:52.677Z</time></trkpt><trkpt lat="39.0586083" lon="16.191695"><ele>499.3333333333333</ele><time>2026-04-27T10:49:54.683Z</time></trkpt><trkpt lat="39.0586017" lon="16.1915883"><ele>498.16666666666663</ele><time>2026-04-27T10:49:56.744Z</time></trkpt><trkpt lat="39.058515" lon="16.1916083"><ele>497.0</ele><time>2026-04-27T10:55:29.685Z</time></trkpt><trkpt lat="39.05855" lon="16.1916917"><ele>496.99999999999994</ele><time>2026-04-27T10:57:55.682Z</time></trkpt><trkpt lat="39.0585817" lon="16.19182"><ele>497.0</ele><time>2026-04-27T10:57:57.682Z</time></trkpt><trkpt lat="39.058595" lon="16.1919017"><ele>497.0</ele><time>2026-04-27T10:57:58.679Z</time></trkpt><trkpt lat="39.0586117" lon="16.1919983"><ele>497.0</ele><time>2026-04-27T10:57:59.682Z</time></trkpt><trkpt lat="39.0586367" lon="16.1921"><ele>496.99999999999994</ele><time>2026-04-27T10:58:00.683Z</time></trkpt><trkpt lat="39.058665" lon="16.192205"><ele>497.0</ele><time>2026-04-27T10:58:01.681Z</time></trkpt><trkpt lat="39.0587" lon="16.1923133"><ele>498.40000000000003</ele><time>2026-04-27T10:58:02.726Z</time></trkpt><trkpt lat="39.0587317" lon="16.19243"><ele>499.80000000000007</ele><time>2026-04-27T10:58:03.683Z</time></trkpt><trkpt lat="39.05877" lon="16.19255"><ele>501.2</ele><time>2026-04-27T10:58:04.679Z</time></trkpt><trkpt lat="39.0588167" lon="16.1926767"><ele>502.6</ele><time>2026-04-27T10:58:05.685Z</time></trkpt><trkpt lat="39.0588783" lon="16.1927933"><ele>504.0</ele><time>2026-04-27T10:58:06.688Z</time></trkpt><trkpt lat="39.0589517" lon="16.192905"><ele>504.0</ele><time>2026-04-27T10:58:07.682Z</time></trkpt><trkpt lat="39.059025" lon="16.1930183"><ele>504.0</ele><time>2026-04-27T10:58:08.72Z</time></trkpt><trkpt lat="39.0590917" lon="16.19313"><ele>504.0</ele><time>2026-04-27T10:58:09.684Z</time></trkpt><trkpt lat="39.0591483" lon="16.1932367"><ele>504.0</ele><time>2026-04-27T10:58:10.682Z</time></trkpt><trkpt lat="39.0591967" lon="16.1933317"><ele>504.0</ele><time>2026-04-27T10:58:11.681Z</time></trkpt><trkpt lat="39.05924" lon="16.1934217"><ele>501.5</ele><time>2026-04-27T10:58:12.682Z</time></trkpt><trkpt lat="39.0592883" lon="16.1935067"><ele>499.0</ele><time>2026-04-27T10:58:13.679Z</time></trkpt><trkpt lat="39.05934" lon="16.19359"><ele>496.5</ele><time>2026-04-27T10:58:14.716Z</time></trkpt><trkpt lat="39.059385" lon="16.19367"><ele>494.0</ele><time>2026-04-27T10:58:15.676Z</time></trkpt><trkpt lat="39.059425" lon="16.19375"><ele>491.5</ele><time>2026-04-27T10:58:16.677Z</time></trkpt><trkpt lat="39.0594667" lon="16.1938433"><ele>489.0</ele><time>2026-04-27T10:58:17.68Z</time></trkpt><trkpt lat="39.0595067" lon="16.19395"><ele>490.2</ele><time>2026-04-27T10:58:18.681Z</time></trkpt><trkpt lat="39.059545" lon="16.1940633"><ele>491.4</ele><time>2026-04-27T10:58:19.687Z</time></trkpt><trkpt lat="39.059585" lon="16.1941767"><ele>492.6</ele><time>2026-04-27T10:58:20.721Z</time></trkpt><trkpt lat="39.0596367" lon="16.1942833"><ele>493.8</ele><time>2026-04-27T10:58:21.679Z</time></trkpt><trkpt lat="39.059695" lon="16.1943817"><ele>495.0</ele><time>2026-04-27T10:58:22.682Z</time></trkpt><trkpt lat="39.0597617" lon="16.1944817"><ele>495.0</ele><time>2026-04-27T10:58:23.675Z</time></trkpt><trkpt lat="39.05983" lon="16.1945783"><ele>495.0</ele><time>2026-04-27T10:58:24.681Z</time></trkpt><trkpt lat="39.0598917" lon="16.1946867"><ele>495.0</ele><time>2026-04-27T10:58:25.677Z</time></trkpt><trkpt lat="39.0599433" lon="16.1947967"><ele>495.0</ele><time>2026-04-27T10:58:26.744Z</time></trkpt><trkpt lat="39.0600017" lon="16.1949083"><ele>495.0</ele><time>2026-04-27T10:58:27.677Z</time></trkpt><trkpt lat="39.06005" lon="16.19504"><ele>492.75</ele><time>2026-04-27T10:58:28.68Z</time></trkpt><trkpt lat="39.0601" lon="16.195185"><ele>490.5</ele><time>2026-04-27T10:58:29.677Z</time></trkpt><trkpt lat="39.0601583" lon="16.19533"><ele>488.25</ele><time>2026-04-27T10:58:30.682Z</time></trkpt><trkpt lat="39.0602017" lon="16.1954867"><ele>486.0</ele><time>2026-04-27T10:58:31.676Z</time></trkpt><trkpt lat="39.0602517" lon="16.195645"><ele>485.75</ele><time>2026-04-27T10:58:32.736Z</time></trkpt><trkpt lat="39.0603067" lon="16.1958083"><ele>485.5</ele><time>2026-04-27T10:58:33.679Z</time></trkpt><trkpt lat="39.0603617" lon="16.1959717"><ele>485.25</ele><time>2026-04-27T10:58:34.677Z</time></trkpt><trkpt lat="39.0604533" lon="16.19612"><ele>485.0</ele><time>2026-04-27T10:58:35.679Z</time></trkpt><trkpt lat="39.0605383" lon="16.1962517"><ele>485.0</ele><time>2026-04-27T10:58:36.68Z</time></trkpt><trkpt lat="39.0606217" lon="16.1963667"><ele>485.0</ele><time>2026-04-27T10:58:37.682Z</time></trkpt><trkpt lat="39.0606833" lon="16.1964783"><ele>485.0</ele><time>2026-04-27T10:58:38.722Z</time></trkpt><trkpt lat="39.0607417" lon="16.1965917"><ele>485.0</ele><time>2026-04-27T10:58:39.68Z</time></trkpt><trkpt lat="39.0608" lon="16.1967067"><ele>485.0</ele><time>2026-04-27T10:58:40.678Z</time></trkpt><trkpt lat="39.0608583" lon="16.1968233"><ele>484.2</ele><time>2026-04-27T10:58:41.679Z</time></trkpt><trkpt lat="39.0609167" lon="16.196935"><ele>483.4</ele><time>2026-04-27T10:58:42.687Z</time></trkpt><trkpt lat="39.060975" lon="16.1970383"><ele>482.6</ele><time>2026-04-27T10:58:43.681Z</time></trkpt><trkpt lat="39.0610283" lon="16.1971333"><ele>481.8</ele><time>2026-04-27T10:58:44.719Z</time></trkpt><trkpt lat="39.0610783" lon="16.1972317"><ele>481.0</ele><time>2026-04-27T10:58:45.676Z</time></trkpt><trkpt lat="39.061135" lon="16.1973367"><ele>479.5</ele><time>2026-04-27T10:58:46.68Z</time></trkpt><trkpt lat="39.0611933" lon="16.1974517"><ele>478.0</ele><time>2026-04-27T10:58:47.68Z</time></trkpt><trkpt lat="39.0612567" lon="16.1975733"><ele>476.5</ele><time>2026-04-27T10:58:48.681Z</time></trkpt><trkpt lat="39.0613233" lon="16.1976983"><ele>475.0</ele><time>2026-04-27T10:58:49.694Z</time></trkpt><trkpt lat="39.06139" lon="16.1978267"><ele>475.0</ele><time>2026-04-27T10:58:50.725Z</time></trkpt><trkpt lat="39.0614583" lon="16.1979617"><ele>475.0</ele><time>2026-04-27T10:58:51.679Z</time></trkpt><trkpt lat="39.06153" lon="16.1981033"><ele>475.0</ele><time>2026-04-27T10:58:52.678Z</time></trkpt><trkpt lat="39.0616083" lon="16.1982533"><ele>475.0</ele><time>2026-04-27T10:58:53.685Z</time></trkpt><trkpt lat="39.06169" lon="16.1984167"><ele>479.6666666666667</ele><time>2026-04-27T10:58:54.684Z</time></trkpt><trkpt lat="39.06178" lon="16.1985883"><ele>484.33333333333337</ele><time>2026-04-27T10:58:55.683Z</time></trkpt><trkpt lat="39.0618717" lon="16.19877"><ele>489.0</ele><time>2026-04-27T10:58:56.746Z</time></trkpt><trkpt lat="39.061955" lon="16.1989533"><ele>488.5</ele><time>2026-04-27T10:58:57.678Z</time></trkpt><trkpt lat="39.0620233" lon="16.1991333"><ele>488.0</ele><time>2026-04-27T10:58:58.673Z</time></trkpt><trkpt lat="39.0620783" lon="16.1992967"><ele>487.5</ele><time>2026-04-27T10:58:59.68Z</time></trkpt><trkpt lat="39.062135" lon="16.199435"><ele>487.0</ele><time>2026-04-27T10:59:00.679Z</time></trkpt><trkpt lat="39.0621933" lon="16.19955"><ele>487.0</ele><time>2026-04-27T10:59:01.674Z</time></trkpt><trkpt lat="39.062235" lon="16.1996633"><ele>487.00000000000006</ele><time>2026-04-27T10:59:02.733Z</time></trkpt><trkpt lat="39.0622583" lon="16.1997867"><ele>487.00000000000006</ele><time>2026-04-27T10:59:03.68Z</time></trkpt><trkpt lat="39.06226" lon="16.1999283"><ele>487.0</ele><time>2026-04-27T10:59:04.681Z</time></trkpt><trkpt lat="39.0622533" lon="16.2000783"><ele>487.0</ele><time>2026-04-27T10:59:05.675Z</time></trkpt><trkpt lat="39.0622517" lon="16.2002333"><ele>486.75</ele><time>2026-04-27T10:59:06.674Z</time></trkpt><trkpt lat="39.0622883" lon="16.2003767"><ele>486.5</ele><time>2026-04-27T10:59:07.68Z</time></trkpt><trkpt lat="39.0623467" lon="16.20052"><ele>486.25</ele><time>2026-04-27T10:59:08.719Z</time></trkpt><trkpt lat="39.0624117" lon="16.2006833"><ele>486.0</ele><time>2026-04-27T10:59:09.682Z</time></trkpt><trkpt lat="39.062485" lon="16.2008667"><ele>497.33333333333337</ele><time>2026-04-27T10:59:10.677Z</time></trkpt><trkpt lat="39.0625483" lon="16.20106"><ele>508.6666666666667</ele><time>2026-04-27T10:59:11.681Z</time></trkpt><trkpt lat="39.062605" lon="16.20126"><ele>520.0</ele><time>2026-04-27T10:59:12.681Z</time></trkpt><trkpt lat="39.062655" lon="16.20145"><ele>519.25</ele><time>2026-04-27T10:59:13.682Z</time></trkpt><trkpt lat="39.0626817" lon="16.2016283"><ele>518.5</ele><time>2026-04-27T10:59:14.723Z</time></trkpt><trkpt lat="39.062685" lon="16.2018"><ele>517.75</ele><time>2026-04-27T10:59:15.678Z</time></trkpt><trkpt lat="39.0626517" lon="16.20198"><ele>517.0</ele><time>2026-04-27T10:59:16.682Z</time></trkpt><trkpt lat="39.062605" lon="16.2021767"><ele>521.0</ele><time>2026-04-27T10:59:17.682Z</time></trkpt><trkpt lat="39.062545" lon="16.2023883"><ele>525.0</ele><time>2026-04-27T10:59:18.683Z</time></trkpt><trkpt lat="39.0624783" lon="16.202595"><ele>529.0</ele><time>2026-04-27T10:59:19.676Z</time></trkpt><trkpt lat="39.0624" lon="16.20279"><ele>520.6666666666667</ele><time>2026-04-27T10:59:20.714Z</time></trkpt><trkpt lat="39.0623067" lon="16.2029683"><ele>512.3333333333334</ele><time>2026-04-27T10:59:21.676Z</time></trkpt><trkpt lat="39.062215" lon="16.20314"><ele>504.0</ele><time>2026-04-27T10:59:22.675Z</time></trkpt><trkpt lat="39.062145" lon="16.2033167"><ele>504.0</ele><time>2026-04-27T10:59:23.68Z</time></trkpt><trkpt lat="39.0621233" lon="16.20348"><ele>504.0</ele><time>2026-04-27T10:59:24.675Z</time></trkpt><trkpt lat="39.062125" lon="16.203655"><ele>504.0</ele><time>2026-04-27T10:59:25.682Z</time></trkpt><trkpt lat="39.0621517" lon="16.2038333"><ele>504.0</ele><time>2026-04-27T10:59:26.744Z</time></trkpt><trkpt lat="39.0622033" lon="16.20401"><ele>505.25</ele><time>2026-04-27T10:59:27.676Z</time></trkpt><trkpt lat="39.062235" lon="16.2041933"><ele>506.5</ele><time>2026-04-27T10:59:28.68Z</time></trkpt><trkpt lat="39.0622467" lon="16.204375"><ele>507.75</ele><time>2026-04-27T10:59:29.677Z</time></trkpt><trkpt lat="39.0622367" lon="16.2045367"><ele>509.0</ele><time>2026-04-27T10:59:30.679Z</time></trkpt><trkpt lat="39.0622" lon="16.2046667"><ele>509.0</ele><time>2026-04-27T10:59:31.675Z</time></trkpt><trkpt lat="39.062155" lon="16.20477"><ele>509.0</ele><time>2026-04-27T10:59:32.747Z</time></trkpt><trkpt lat="39.0621183" lon="16.2048717"><ele>509.0</ele><time>2026-04-27T10:59:33.677Z</time></trkpt><trkpt lat="39.0621033" lon="16.204985"><ele>509.0</ele><time>2026-04-27T10:59:34.679Z</time></trkpt><trkpt lat="39.0621167" lon="16.2051167"><ele>509.0</ele><time>2026-04-27T10:59:35.681Z</time></trkpt><trkpt lat="39.0621483" lon="16.2052583"><ele>510.5</ele><time>2026-04-27T10:59:36.677Z</time></trkpt><trkpt lat="39.0621633" lon="16.2054167"><ele>512.0</ele><time>2026-04-27T10:59:37.682Z</time></trkpt><trkpt lat="39.0621867" lon="16.2055833"><ele>513.5</ele><time>2026-04-27T10:59:38.718Z</time></trkpt><trkpt lat="39.0622283" lon="16.2057483"><ele>515.0</ele><time>2026-04-27T10:59:39.678Z</time></trkpt><trkpt lat="39.0622917" lon="16.2059017"><ele>515.8</ele><time>2026-04-27T10:59:40.677Z</time></trkpt><trkpt lat="39.062365" lon="16.20604"><ele>516.6</ele><time>2026-04-27T10:59:41.675Z</time></trkpt><trkpt lat="39.0624383" lon="16.206155"><ele>517.4</ele><time>2026-04-27T10:59:42.679Z</time></trkpt><trkpt lat="39.0625117" lon="16.2062283"><ele>518.2</ele><time>2026-04-27T10:59:43.674Z</time></trkpt><trkpt lat="39.0625883" lon="16.2062283"><ele>519.0</ele><time>2026-04-27T10:59:44.72Z</time></trkpt><trkpt lat="39.06265" lon="16.2061517"><ele>519.0</ele><time>2026-04-27T10:59:46.679Z</time></trkpt><trkpt lat="39.0625967" lon="16.2060383"><ele>519.0</ele><time>2026-04-27T10:59:47.683Z</time></trkpt><trkpt lat="39.0624867" lon="16.2058717"><ele>519.0</ele><time>2026-04-27T10:59:48.68Z</time></trkpt><trkpt lat="39.0624" lon="16.2057067"><ele>519.0</ele><time>2026-04-27T10:59:49.679Z</time></trkpt><trkpt lat="39.0623617" lon="16.205555"><ele>518.0</ele><time>2026-04-27T10:59:50.722Z</time></trkpt><trkpt lat="39.062345" lon="16.2053783"><ele>517.0</ele><time>2026-04-27T10:59:51.677Z</time></trkpt><trkpt lat="39.06233" lon="16.2052083"><ele>516.0</ele><time>2026-04-27T10:59:52.687Z</time></trkpt><trkpt lat="39.06233" lon="16.20502"><ele>515.0</ele><time>2026-04-27T10:59:53.678Z</time></trkpt><trkpt lat="39.0623467" lon="16.204845"><ele>513.5</ele><time>2026-04-27T10:59:54.682Z</time></trkpt><trkpt lat="39.0623733" lon="16.204675"><ele>512.0</ele><time>2026-04-27T10:59:55.677Z</time></trkpt><trkpt lat="39.0624067" lon="16.2045017"><ele>510.5</ele><time>2026-04-27T10:59:56.745Z</time></trkpt><trkpt lat="39.062435" lon="16.2043183"><ele>509.0</ele><time>2026-04-27T10:59:57.678Z</time></trkpt><trkpt lat="39.0624633" lon="16.2041367"><ele>518.25</ele><time>2026-04-27T10:59:58.676Z</time></trkpt><trkpt lat="39.062495" lon="16.2039617"><ele>527.5</ele><time>2026-04-27T10:59:59.681Z</time></trkpt><trkpt lat="39.06253" lon="16.203795"><ele>536.75</ele><time>2026-04-27T11:00:00.681Z</time></trkpt><trkpt lat="39.0625733" lon="16.2036367"><ele>546.0</ele><time>2026-04-27T11:00:01.681Z</time></trkpt><trkpt lat="39.0626333" lon="16.2035017"><ele>546.0</ele><time>2026-04-27T11:00:02.731Z</time></trkpt><trkpt lat="39.062715" lon="16.2033833"><ele>546.0</ele><time>2026-04-27T11:00:03.679Z</time></trkpt><trkpt lat="39.06281" lon="16.2032567"><ele>546.0</ele><time>2026-04-27T11:00:04.673Z</time></trkpt><trkpt lat="39.0628983" lon="16.2031217"><ele>546.0</ele><time>2026-04-27T11:00:05.679Z</time></trkpt><trkpt lat="39.062985" lon="16.2029783"><ele>540.3333333333334</ele><time>2026-04-27T11:00:06.678Z</time></trkpt><trkpt lat="39.0630617" lon="16.202815"><ele>534.6666666666667</ele><time>2026-04-27T11:00:07.683Z</time></trkpt><trkpt lat="39.0631433" lon="16.2026433"><ele>529.0</ele><time>2026-04-27T11:00:08.72Z</time></trkpt><trkpt lat="39.06321" lon="16.202475"><ele>526.0</ele><time>2026-04-27T11:00:09.673Z</time></trkpt><trkpt lat="39.0632833" lon="16.2021517"><ele>523.0</ele><time>2026-04-27T11:00:11.677Z</time></trkpt><trkpt lat="39.0632567" lon="16.20203"><ele>520.0</ele><time>2026-04-27T11:00:12.678Z</time></trkpt><trkpt lat="39.063255" lon="16.2019183"><ele>517.0</ele><time>2026-04-27T11:00:13.675Z</time></trkpt><trkpt lat="39.06327" lon="16.201825"><ele>523.8333333333334</ele><time>2026-04-27T11:00:14.72Z</time></trkpt><trkpt lat="39.0633633" lon="16.2018917"><ele>530.6666666666667</ele><time>2026-04-27T11:00:16.673Z</time></trkpt><trkpt lat="39.06339" lon="16.2019683"><ele>537.5</ele><time>2026-04-27T11:00:17.671Z</time></trkpt><trkpt lat="39.0634" lon="16.2020633"><ele>544.3333333333334</ele><time>2026-04-27T11:00:18.678Z</time></trkpt><trkpt lat="39.063395" lon="16.2021633"><ele>551.1666666666666</ele><time>2026-04-27T11:00:19.677Z</time></trkpt><trkpt lat="39.0633767" lon="16.202285"><ele>558.0</ele><time>2026-04-27T11:00:20.725Z</time></trkpt><trkpt lat="39.0633417" lon="16.2024367"><ele>561.0</ele><time>2026-04-27T11:00:21.675Z</time></trkpt><trkpt lat="39.0632933" lon="16.2026067"><ele>564.0</ele><time>2026-04-27T11:00:22.68Z</time></trkpt><trkpt lat="39.0632533" lon="16.2027833"><ele>567.0</ele><time>2026-04-27T11:00:23.679Z</time></trkpt><trkpt lat="39.0632333" lon="16.2029617"><ele>570.0</ele><time>2026-04-27T11:00:24.679Z</time></trkpt><trkpt lat="39.0632333" lon="16.2031383"><ele>564.0</ele><time>2026-04-27T11:00:25.677Z</time></trkpt><trkpt lat="39.063255" lon="16.20332"><ele>558.0</ele><time>2026-04-27T11:00:26.728Z</time></trkpt><trkpt lat="39.063265" lon="16.20351"><ele>552.0</ele><time>2026-04-27T11:00:27.683Z</time></trkpt><trkpt lat="39.063255" lon="16.203705"><ele>546.0</ele><time>2026-04-27T11:00:28.673Z</time></trkpt><trkpt lat="39.063225" lon="16.203895"><ele>547.25</ele><time>2026-04-27T11:00:29.678Z</time></trkpt><trkpt lat="39.0631933" lon="16.2040783"><ele>548.5</ele><time>2026-04-27T11:00:30.675Z</time></trkpt><trkpt lat="39.0631617" lon="16.2042483"><ele>549.75</ele><time>2026-04-27T11:00:31.672Z</time></trkpt><trkpt lat="39.063145" lon="16.2044067"><ele>551.0</ele><time>2026-04-27T11:00:32.737Z</time></trkpt><trkpt lat="39.0631467" lon="16.2045517"><ele>594.0</ele><time>2026-04-27T11:00:33.671Z</time></trkpt><trkpt lat="39.0633167" lon="16.2051383"><ele>594.0</ele><time>2026-04-27T11:00:37.673Z</time></trkpt><trkpt lat="39.0633417" lon="16.2053183"><ele>594.0</ele><time>2026-04-27T11:00:38.72Z</time></trkpt><trkpt lat="39.063375" lon="16.2054967"><ele>594.0</ele><time>2026-04-27T11:00:39.675Z</time></trkpt><trkpt lat="39.06342" lon="16.2056767"><ele>594.0</ele><time>2026-04-27T11:00:40.676Z</time></trkpt><trkpt lat="39.0634733" lon="16.20586"><ele>593.25</ele><time>2026-04-27T11:00:41.676Z</time></trkpt><trkpt lat="39.06352" lon="16.2060517"><ele>592.5</ele><time>2026-04-27T11:00:42.679Z</time></trkpt><trkpt lat="39.0635417" lon="16.20624"><ele>591.75</ele><time>2026-04-27T11:00:43.677Z</time></trkpt><trkpt lat="39.06355" lon="16.20641"><ele>591.0</ele><time>2026-04-27T11:00:44.714Z</time></trkpt><trkpt lat="39.0635667" lon="16.206525"><ele>591.0</ele><time>2026-04-27T11:00:45.678Z</time></trkpt><trkpt lat="39.0636" lon="16.2066083"><ele>591.0</ele><time>2026-04-27T11:00:46.68Z</time></trkpt><trkpt lat="39.0636833" lon="16.206675"><ele>591.0</ele><time>2026-04-27T11:00:48.675Z</time></trkpt><trkpt lat="39.063685" lon="16.2065167"><ele>591.0</ele><time>2026-04-27T11:00:49.682Z</time></trkpt><trkpt lat="39.0636883" lon="16.2064"><ele>591.0</ele><time>2026-04-27T11:00:50.72Z</time></trkpt><trkpt lat="39.063665" lon="16.206235"><ele>591.0</ele><time>2026-04-27T11:00:51.674Z</time></trkpt><trkpt lat="39.0636433" lon="16.206055"><ele>591.0</ele><time>2026-04-27T11:00:52.677Z</time></trkpt><trkpt lat="39.0636183" lon="16.2058667"><ele>591.0</ele><time>2026-04-27T11:00:53.679Z</time></trkpt><trkpt lat="39.063595" lon="16.20567"><ele>591.0</ele><time>2026-04-27T11:00:54.679Z</time></trkpt><trkpt lat="39.06358" lon="16.20548"><ele>590.5</ele><time>2026-04-27T11:00:55.673Z</time></trkpt><trkpt lat="39.06358" lon="16.2053117"><ele>590.0</ele><time>2026-04-27T11:00:56.731Z</time></trkpt><trkpt lat="39.0636" lon="16.2051533"><ele>589.5</ele><time>2026-04-27T11:00:57.674Z</time></trkpt><trkpt lat="39.06364" lon="16.204975"><ele>589.0</ele><time>2026-04-27T11:00:58.678Z</time></trkpt><trkpt lat="39.063675" lon="16.2047967"><ele>589.0</ele><time>2026-04-27T11:00:59.679Z</time></trkpt><trkpt lat="39.0637067" lon="16.2046367"><ele>589.0</ele><time>2026-04-27T11:01:00.68Z</time></trkpt><trkpt lat="39.06374" lon="16.2044983"><ele>589.0</ele><time>2026-04-27T11:01:01.675Z</time></trkpt><trkpt lat="39.0638117" lon="16.2044833"><ele>589.0</ele><time>2026-04-27T11:01:03.675Z</time></trkpt><trkpt lat="39.0638633" lon="16.204565"><ele>589.0</ele><time>2026-04-27T11:01:05.677Z</time></trkpt><trkpt lat="39.0638483" lon="16.20472"><ele>590.25</ele><time>2026-04-27T11:01:06.673Z</time></trkpt><trkpt lat="39.06383" lon="16.2048583"><ele>591.5</ele><time>2026-04-27T11:01:07.674Z</time></trkpt><trkpt lat="39.0638083" lon="16.205015"><ele>592.75</ele><time>2026-04-27T11:01:08.726Z</time></trkpt><trkpt lat="39.0638017" lon="16.2051933"><ele>594.0</ele><time>2026-04-27T11:01:09.672Z</time></trkpt><trkpt lat="39.06381" lon="16.2053883"><ele>594.0</ele><time>2026-04-27T11:01:10.682Z</time></trkpt><trkpt lat="39.0638633" lon="16.2056117"><ele>594.0</ele><time>2026-04-27T11:01:11.68Z</time></trkpt><trkpt lat="39.0639217" lon="16.2058367"><ele>594.0</ele><time>2026-04-27T11:01:12.678Z</time></trkpt><trkpt lat="39.0639867" lon="16.206075"><ele>593.0</ele><time>2026-04-27T11:01:13.677Z</time></trkpt><trkpt lat="39.06404" lon="16.2063167"><ele>592.0</ele><time>2026-04-27T11:01:14.72Z</time></trkpt><trkpt lat="39.0640767" lon="16.2065783"><ele>591.0</ele><time>2026-04-27T11:01:15.673Z</time></trkpt><trkpt lat="39.0640967" lon="16.2068417"><ele>590.0</ele><time>2026-04-27T11:01:16.675Z</time></trkpt><trkpt lat="39.064105" lon="16.207095"><ele>589.0</ele><time>2026-04-27T11:01:17.676Z</time></trkpt><trkpt lat="39.0641017" lon="16.2073183"><ele>588.0</ele><time>2026-04-27T11:01:18.676Z</time></trkpt><trkpt lat="39.0640867" lon="16.2075133"><ele>589.6</ele><time>2026-04-27T11:01:19.676Z</time></trkpt><trkpt lat="39.064015" lon="16.207635"><ele>591.1999999999999</ele><time>2026-04-27T11:01:20.716Z</time></trkpt><trkpt lat="39.06394" lon="16.20774"><ele>592.8</ele><time>2026-04-27T11:01:21.673Z</time></trkpt><trkpt lat="39.0638883" lon="16.2078317"><ele>594.4</ele><time>2026-04-27T11:01:22.677Z</time></trkpt><trkpt lat="39.0638767" lon="16.2079217"><ele>596.0</ele><time>2026-04-27T11:01:23.674Z</time></trkpt><trkpt lat="39.063925" lon="16.207985"><ele>596.0</ele><time>2026-04-27T11:01:24.678Z</time></trkpt><trkpt lat="39.06401" lon="16.2080317"><ele>596.0</ele><time>2026-04-27T11:01:25.678Z</time></trkpt><trkpt lat="39.06412" lon="16.20808"><ele>596.0</ele><time>2026-04-27T11:01:26.73Z</time></trkpt><trkpt lat="39.06423" lon="16.2081433"><ele>596.0</ele><time>2026-04-27T11:01:27.675Z</time></trkpt><trkpt lat="39.064335" lon="16.208235"><ele>603.5</ele><time>2026-04-27T11:01:28.678Z</time></trkpt><trkpt lat="39.0644133" lon="16.20838"><ele>611.0</ele><time>2026-04-27T11:01:29.677Z</time></trkpt><trkpt lat="39.0644683" lon="16.2085217"><ele>618.5</ele><time>2026-04-27T11:01:30.674Z</time></trkpt><trkpt lat="39.06452" lon="16.2086433"><ele>626.0</ele><time>2026-04-27T11:01:31.679Z</time></trkpt><trkpt lat="39.0645917" lon="16.2087067"><ele>626.0</ele><time>2026-04-27T11:01:32.728Z</time></trkpt><trkpt lat="39.0646717" lon="16.2087017"><ele>626.0</ele><time>2026-04-27T11:01:33.674Z</time></trkpt><trkpt lat="39.0647533" lon="16.2086417"><ele>626.0</ele><time>2026-04-27T11:01:34.673Z</time></trkpt><trkpt lat="39.064825" lon="16.2085567"><ele>626.0</ele><time>2026-04-27T11:01:35.675Z</time></trkpt><trkpt lat="39.06483" lon="16.2084083"><ele>626.0</ele><time>2026-04-27T11:01:36.675Z</time></trkpt><trkpt lat="39.064825" lon="16.2082683"><ele>627.25</ele><time>2026-04-27T11:01:37.678Z</time></trkpt><trkpt lat="39.0647983" lon="16.2081133"><ele>628.5</ele><time>2026-04-27T11:01:38.72Z</time></trkpt><trkpt lat="39.0647233" lon="16.207965"><ele>629.75</ele><time>2026-04-27T11:01:39.677Z</time></trkpt><trkpt lat="39.0645983" lon="16.207855"><ele>631.0</ele><time>2026-04-27T11:01:40.677Z</time></trkpt><trkpt lat="39.0645283" lon="16.2077367"><ele>631.0</ele><time>2026-04-27T11:01:41.68Z</time></trkpt><trkpt lat="39.0645017" lon="16.20766"><ele>631.0</ele><time>2026-04-27T11:01:42.68Z</time></trkpt><trkpt lat="39.0645783" lon="16.2076117"><ele>631.0</ele><time>2026-04-27T11:01:44.714Z</time></trkpt><trkpt lat="39.0646483" lon="16.20766"><ele>631.0</ele><time>2026-04-27T11:01:45.673Z</time></trkpt><trkpt lat="39.0647267" lon="16.2077383"><ele>631.0</ele><time>2026-04-27T11:01:46.674Z</time></trkpt><trkpt lat="39.0648033" lon="16.2078767"><ele>631.0</ele><time>2026-04-27T11:01:47.676Z</time></trkpt><trkpt lat="39.06488" lon="16.208035"><ele>631.0</ele><time>2026-04-27T11:01:48.679Z</time></trkpt><trkpt lat="39.0649633" lon="16.2082133"><ele>631.0</ele><time>2026-04-27T11:01:49.678Z</time></trkpt><trkpt lat="39.06505" lon="16.2083983"><ele>634.75</ele><time>2026-04-27T11:01:50.716Z</time></trkpt><trkpt lat="39.065135" lon="16.2085667"><ele>638.5</ele><time>2026-04-27T11:01:51.677Z</time></trkpt><trkpt lat="39.0652033" lon="16.20872"><ele>642.25</ele><time>2026-04-27T11:01:52.676Z</time></trkpt><trkpt lat="39.0652633" lon="16.2088683"><ele>646.0</ele><time>2026-04-27T11:01:53.679Z</time></trkpt><trkpt lat="39.0653067" lon="16.2090317"><ele>646.25</ele><time>2026-04-27T11:01:54.677Z</time></trkpt><trkpt lat="39.0653317" lon="16.209215"><ele>646.5</ele><time>2026-04-27T11:01:55.679Z</time></trkpt><trkpt lat="39.0653583" lon="16.2094017"><ele>646.75</ele><time>2026-04-27T11:01:56.731Z</time></trkpt><trkpt lat="39.065405" lon="16.209595"><ele>647.0</ele><time>2026-04-27T11:01:57.7Z</time></trkpt><trkpt lat="39.0654783" lon="16.209785"><ele>649.3333333333333</ele><time>2026-04-27T11:01:58.684Z</time></trkpt><trkpt lat="39.0655633" lon="16.2099733"><ele>651.6666666666666</ele><time>2026-04-27T11:01:59.681Z</time></trkpt><trkpt lat="39.0656383" lon="16.2101483"><ele>654.0</ele><time>2026-04-27T11:02:00.678Z</time></trkpt><trkpt lat="39.0656933" lon="16.2103"><ele>654.0</ele><time>2026-04-27T11:02:01.68Z</time></trkpt><trkpt lat="39.0657233" lon="16.2104067"><ele>654.0</ele><time>2026-04-27T11:02:02.73Z</time></trkpt><trkpt lat="39.06575" lon="16.2104833"><ele>654.0</ele><time>2026-04-27T11:02:03.673Z</time></trkpt><trkpt lat="39.06581" lon="16.21054"><ele>654.0</ele><time>2026-04-27T11:02:05.678Z</time></trkpt><trkpt lat="39.065805" lon="16.2104017"><ele>654.0</ele><time>2026-04-27T11:02:08.727Z</time></trkpt><trkpt lat="39.0657667" lon="16.2103133"><ele>654.0</ele><time>2026-04-27T11:02:09.679Z</time></trkpt><trkpt lat="39.0657067" lon="16.2101767"><ele>654.0</ele><time>2026-04-27T11:02:10.678Z</time></trkpt><trkpt lat="39.0656533" lon="16.2100333"><ele>654.0</ele><time>2026-04-27T11:02:11.678Z</time></trkpt><trkpt lat="39.0655883" lon="16.209875"><ele>654.0</ele><time>2026-04-27T11:02:12.677Z</time></trkpt><trkpt lat="39.0655017" lon="16.2096933"><ele>654.0</ele><time>2026-04-27T11:02:13.674Z</time></trkpt><trkpt lat="39.0654233" lon="16.2095067"><ele>652.25</ele><time>2026-04-27T11:02:14.718Z</time></trkpt><trkpt lat="39.065375" lon="16.209315"><ele>650.5</ele><time>2026-04-27T11:02:15.678Z</time></trkpt><trkpt lat="39.06536" lon="16.2091267"><ele>648.75</ele><time>2026-04-27T11:02:16.68Z</time></trkpt><trkpt lat="39.06535" lon="16.2089467"><ele>647.0</ele><time>2026-04-27T11:02:17.677Z</time></trkpt><trkpt lat="39.06534" lon="16.2087883"><ele>646.8</ele><time>2026-04-27T11:02:18.683Z</time></trkpt><trkpt lat="39.065295" lon="16.208675"><ele>646.6</ele><time>2026-04-27T11:02:19.679Z</time></trkpt><trkpt lat="39.0652317" lon="16.208615"><ele>646.4</ele><time>2026-04-27T11:02:20.715Z</time></trkpt><trkpt lat="39.0651267" lon="16.208585"><ele>646.1999999999999</ele><time>2026-04-27T11:02:22.681Z</time></trkpt><trkpt lat="39.065075" lon="16.2086833"><ele>646.0</ele><time>2026-04-27T11:02:24.682Z</time></trkpt><trkpt lat="39.0650633" lon="16.2087783"><ele>646.0</ele><time>2026-04-27T11:02:25.673Z</time></trkpt><trkpt lat="39.0650517" lon="16.208895"><ele>646.0</ele><time>2026-04-27T11:02:26.741Z</time></trkpt><trkpt lat="39.0650383" lon="16.20901"><ele>646.0</ele><time>2026-04-27T11:02:27.677Z</time></trkpt><trkpt lat="39.0650217" lon="16.2091133"><ele>646.0</ele><time>2026-04-27T11:02:28.679Z</time></trkpt><trkpt lat="39.06501" lon="16.2091983"><ele>646.0</ele><time>2026-04-27T11:02:29.677Z</time></trkpt><trkpt lat="39.0649867" lon="16.2094133"><ele>646.1666666666667</ele><time>2026-04-27T11:02:32.733Z</time></trkpt><trkpt lat="39.06498" lon="16.2095133"><ele>646.3333333333334</ele><time>2026-04-27T11:02:33.677Z</time></trkpt><trkpt lat="39.0649767" lon="16.2096317"><ele>646.5</ele><time>2026-04-27T11:02:34.678Z</time></trkpt><trkpt lat="39.0649767" lon="16.20975"><ele>646.6666666666666</ele><time>2026-04-27T11:02:35.682Z</time></trkpt><trkpt lat="39.0649683" lon="16.209865"><ele>646.8333333333333</ele><time>2026-04-27T11:02:36.687Z</time></trkpt><trkpt lat="39.0649633" lon="16.2099733"><ele>647.0</ele><time>2026-04-27T11:02:37.681Z</time></trkpt><trkpt lat="39.0649583" lon="16.2100833"><ele>648.4000000000001</ele><time>2026-04-27T11:02:38.722Z</time></trkpt><trkpt lat="39.064975" lon="16.210195"><ele>649.8000000000001</ele><time>2026-04-27T11:02:39.675Z</time></trkpt><trkpt lat="39.0650083" lon="16.210315"><ele>651.2</ele><time>2026-04-27T11:02:40.676Z</time></trkpt><trkpt lat="39.0650517" lon="16.21045"><ele>652.6</ele><time>2026-04-27T11:02:41.674Z</time></trkpt><trkpt lat="39.0650967" lon="16.210595"><ele>654.0</ele><time>2026-04-27T11:02:42.681Z</time></trkpt><trkpt lat="39.0651383" lon="16.2107367"><ele>655.0</ele><time>2026-04-27T11:02:43.678Z</time></trkpt><trkpt lat="39.0651717" lon="16.21087"><ele>656.0</ele><time>2026-04-27T11:02:44.722Z</time></trkpt><trkpt lat="39.065185" lon="16.2109917"><ele>657.0</ele><time>2026-04-27T11:02:45.674Z</time></trkpt><trkpt lat="39.06518" lon="16.2111067"><ele>658.0</ele><time>2026-04-27T11:02:46.677Z</time></trkpt><trkpt lat="39.0651567" lon="16.2112217"><ele>659.0</ele><time>2026-04-27T11:02:47.679Z</time></trkpt><trkpt lat="39.06513" lon="16.2113383"><ele>659.0</ele><time>2026-04-27T11:02:48.678Z</time></trkpt><trkpt lat="39.065125" lon="16.2114533"><ele>659.0</ele><time>2026-04-27T11:02:49.683Z</time></trkpt><trkpt lat="39.06514" lon="16.2115667"><ele>659.0</ele><time>2026-04-27T11:02:50.718Z</time></trkpt><trkpt lat="39.0651767" lon="16.21169"><ele>659.0</ele><time>2026-04-27T11:02:51.672Z</time></trkpt><trkpt lat="39.0652283" lon="16.2118183"><ele>659.0</ele><time>2026-04-27T11:02:52.684Z</time></trkpt><trkpt lat="39.0652883" lon="16.2119583"><ele>659.75</ele><time>2026-04-27T11:02:53.675Z</time></trkpt><trkpt lat="39.0653567" lon="16.2120983"><ele>660.5</ele><time>2026-04-27T11:02:54.682Z</time></trkpt><trkpt lat="39.0654233" lon="16.2122333"><ele>661.25</ele><time>2026-04-27T11:02:55.682Z</time></trkpt><trkpt lat="39.0654967" lon="16.21237"><ele>662.0</ele><time>2026-04-27T11:02:56.734Z</time></trkpt><trkpt lat="39.065575" lon="16.212505"><ele>663.5</ele><time>2026-04-27T11:02:57.674Z</time></trkpt><trkpt lat="39.0656533" lon="16.212645"><ele>665.0</ele><time>2026-04-27T11:02:58.671Z</time></trkpt><trkpt lat="39.0657233" lon="16.212785"><ele>666.5</ele><time>2026-04-27T11:02:59.671Z</time></trkpt><trkpt lat="39.0657883" lon="16.2129233"><ele>668.0</ele><time>2026-04-27T11:03:00.674Z</time></trkpt><trkpt lat="39.0658483" lon="16.213055"><ele>671.75</ele><time>2026-04-27T11:03:01.677Z</time></trkpt><trkpt lat="39.0659033" lon="16.2132"><ele>675.5</ele><time>2026-04-27T11:03:02.733Z</time></trkpt><trkpt lat="39.0659533" lon="16.21336"><ele>679.25</ele><time>2026-04-27T11:03:03.674Z</time></trkpt><trkpt lat="39.0659933" lon="16.213525"><ele>683.0</ele><time>2026-04-27T11:03:04.678Z</time></trkpt><trkpt lat="39.066035" lon="16.2136917"><ele>683.0</ele><time>2026-04-27T11:03:05.676Z</time></trkpt><trkpt lat="39.0660883" lon="16.21385"><ele>683.0</ele><time>2026-04-27T11:03:06.678Z</time></trkpt><trkpt lat="39.0661533" lon="16.2139817"><ele>683.0</ele><time>2026-04-27T11:03:07.673Z</time></trkpt><trkpt lat="39.0662383" lon="16.214095"><ele>683.0</ele><time>2026-04-27T11:03:08.723Z</time></trkpt><trkpt lat="39.0663333" lon="16.2141883"><ele>681.0</ele><time>2026-04-27T11:03:09.678Z</time></trkpt><trkpt lat="39.0664533" lon="16.214285"><ele>679.0</ele><time>2026-04-27T11:03:10.682Z</time></trkpt><trkpt lat="39.066575" lon="16.214375"><ele>677.0</ele><time>2026-04-27T11:03:11.677Z</time></trkpt><trkpt lat="39.0667" lon="16.21445"><ele>675.0</ele><time>2026-04-27T11:03:12.682Z</time></trkpt><trkpt lat="39.0668133" lon="16.2145217"><ele>675.0</ele><time>2026-04-27T11:03:13.676Z</time></trkpt><trkpt lat="39.0669117" lon="16.2145817"><ele>675.0</ele><time>2026-04-27T11:03:14.725Z</time></trkpt><trkpt lat="39.0669917" lon="16.2146317"><ele>675.0</ele><time>2026-04-27T11:03:15.673Z</time></trkpt><trkpt lat="39.067055" lon="16.2146717"><ele>675.0</ele><time>2026-04-27T11:03:16.68Z</time></trkpt><trkpt lat="39.0671267" lon="16.2147533"><ele>675.0</ele><time>2026-04-27T11:03:18.68Z</time></trkpt><trkpt lat="39.067195" lon="16.2148583"><ele>677.1666666666666</ele><time>2026-04-27T11:03:20.723Z</time></trkpt><trkpt lat="39.06724" lon="16.2149317"><ele>679.3333333333334</ele><time>2026-04-27T11:03:21.674Z</time></trkpt><trkpt lat="39.0672667" lon="16.2150233"><ele>681.5</ele><time>2026-04-27T11:03:22.676Z</time></trkpt><trkpt lat="39.06729" lon="16.2151317"><ele>683.6666666666667</ele><time>2026-04-27T11:03:23.679Z</time></trkpt><trkpt lat="39.0673117" lon="16.2152533"><ele>685.8333333333334</ele><time>2026-04-27T11:03:24.679Z</time></trkpt><trkpt lat="39.0673217" lon="16.215395"><ele>688.0</ele><time>2026-04-27T11:03:25.678Z</time></trkpt><trkpt lat="39.0673267" lon="16.21555"><ele>690.5999999999999</ele><time>2026-04-27T11:03:26.73Z</time></trkpt><trkpt lat="39.06733" lon="16.2157033"><ele>693.1999999999999</ele><time>2026-04-27T11:03:27.673Z</time></trkpt><trkpt lat="39.0673267" lon="16.2158467"><ele>695.8</ele><time>2026-04-27T11:03:28.683Z</time></trkpt><trkpt lat="39.067325" lon="16.2159683"><ele>698.4</ele><time>2026-04-27T11:03:29.67Z</time></trkpt><trkpt lat="39.0673217" lon="16.2160717"><ele>701.0</ele><time>2026-04-27T11:03:30.674Z</time></trkpt><trkpt lat="39.0672983" lon="16.2161683"><ele>701.0</ele><time>2026-04-27T11:03:31.669Z</time></trkpt><trkpt lat="39.067275" lon="16.2162483"><ele>701.0</ele><time>2026-04-27T11:03:32.728Z</time></trkpt><trkpt lat="39.0672033" lon="16.2163417"><ele>701.0</ele><time>2026-04-27T11:03:34.68Z</time></trkpt><trkpt lat="39.0671067" lon="16.2162483"><ele>701.0</ele><time>2026-04-27T11:03:36.677Z</time></trkpt><trkpt lat="39.0670617" lon="16.2161283"><ele>701.0</ele><time>2026-04-27T11:03:37.672Z</time></trkpt><trkpt lat="39.0670267" lon="16.2160083"><ele>701.0</ele><time>2026-04-27T11:03:38.718Z</time></trkpt><trkpt lat="39.06699" lon="16.215925"><ele>701.0</ele><time>2026-04-27T11:03:39.675Z</time></trkpt><trkpt lat="39.0669167" lon="16.215815"><ele>701.0</ele><time>2026-04-27T11:03:41.67Z</time></trkpt><trkpt lat="39.0668817" lon="16.2158833"><ele>701.0</ele><time>2026-04-27T11:03:43.677Z</time></trkpt><trkpt lat="39.0668817" lon="16.216055"><ele>701.0</ele><time>2026-04-27T11:03:45.678Z</time></trkpt><trkpt lat="39.0668883" lon="16.2161783"><ele>701.0</ele><time>2026-04-27T11:03:46.675Z</time></trkpt><trkpt lat="39.0668883" lon="16.216305"><ele>701.0</ele><time>2026-04-27T11:03:47.678Z</time></trkpt><trkpt lat="39.06687" lon="16.2164283"><ele>701.0</ele><time>2026-04-27T11:03:48.681Z</time></trkpt><trkpt lat="39.0668367" lon="16.2165583"><ele>701.0</ele><time>2026-04-27T11:03:49.675Z</time></trkpt><trkpt lat="39.0668017" lon="16.2166767"><ele>701.0</ele><time>2026-04-27T11:03:50.721Z</time></trkpt><trkpt lat="39.0667883" lon="16.2167933"><ele>702.5</ele><time>2026-04-27T11:03:51.681Z</time></trkpt><trkpt lat="39.0667833" lon="16.2169183"><ele>704.0</ele><time>2026-04-27T11:03:52.678Z</time></trkpt><trkpt lat="39.0667767" lon="16.2170417"><ele>705.5</ele><time>2026-04-27T11:03:53.679Z</time></trkpt><trkpt lat="39.0667717" lon="16.21715"><ele>707.0</ele><time>2026-04-27T11:03:54.681Z</time></trkpt><trkpt lat="39.0667517" lon="16.217235"><ele>708.5</ele><time>2026-04-27T11:03:55.683Z</time></trkpt><trkpt lat="39.0667133" lon="16.2173133"><ele>710.0</ele><time>2026-04-27T11:03:56.735Z</time></trkpt><trkpt lat="39.066655" lon="16.2173767"><ele>717.75</ele><time>2026-04-27T11:03:57.675Z</time></trkpt><trkpt lat="39.0665817" lon="16.21745"><ele>725.5</ele><time>2026-04-27T11:03:58.673Z</time></trkpt><trkpt lat="39.06648" lon="16.217535"><ele>733.25</ele><time>2026-04-27T11:03:59.681Z</time></trkpt><trkpt lat="39.066375" lon="16.2176283"><ele>741.0</ele><time>2026-04-27T11:04:00.677Z</time></trkpt><trkpt lat="39.0662833" lon="16.21773"><ele>741.0</ele><time>2026-04-27T11:04:01.676Z</time></trkpt><trkpt lat="39.0662" lon="16.2178283"><ele>741.0</ele><time>2026-04-27T11:04:02.74Z</time></trkpt><trkpt lat="39.0661233" lon="16.217915"><ele>741.0</ele><time>2026-04-27T11:04:03.675Z</time></trkpt><trkpt lat="39.0660633" lon="16.21799"><ele>741.0</ele><time>2026-04-27T11:04:04.68Z</time></trkpt><trkpt lat="39.06601" lon="16.2180483"><ele>741.0</ele><time>2026-04-27T11:04:05.676Z</time></trkpt><trkpt lat="39.0659167" lon="16.2180983"><ele>741.0</ele><time>2026-04-27T11:04:07.677Z</time></trkpt><trkpt lat="39.0659567" lon="16.2179983"><ele>741.0</ele><time>2026-04-27T11:06:35.677Z</time></trkpt><trkpt lat="39.0658833" lon="16.2180117"><ele>741.0</ele><time>2026-04-27T11:06:39.672Z</time></trkpt><trkpt lat="39.065835" lon="16.2179517"><ele>741.0</ele><time>2026-04-27T11:10:40.669Z</time></trkpt><trkpt lat="39.0658317" lon="16.2178667"><ele>741.0</ele><time>2026-04-27T11:10:42.683Z</time></trkpt><trkpt lat="39.0658183" lon="16.2177717"><ele>741.0</ele><time>2026-04-27T11:10:44.719Z</time></trkpt><trkpt lat="39.0657967" lon="16.2176483"><ele>741.0</ele><time>2026-04-27T11:10:46.681Z</time></trkpt><trkpt lat="39.0657867" lon="16.2174967"><ele>741.0</ele><time>2026-04-27T11:10:48.677Z</time></trkpt><trkpt lat="39.0657283" lon="16.2173617"><ele>741.0</ele><time>2026-04-27T11:10:50.718Z</time></trkpt><trkpt lat="39.0656583" lon="16.217235"><ele>741.0</ele><time>2026-04-27T11:10:52.678Z</time></trkpt><trkpt lat="39.065615" lon="16.217165"><ele>741.0</ele><time>2026-04-27T11:10:53.67Z</time></trkpt><trkpt lat="39.065535" lon="16.2170617"><ele>743.8</ele><time>2026-04-27T11:10:55.676Z</time></trkpt><trkpt lat="39.0654467" lon="16.2170617"><ele>746.5999999999999</ele><time>2026-04-27T11:10:56.741Z</time></trkpt><trkpt lat="39.06536" lon="16.2170767"><ele>749.4</ele><time>2026-04-27T11:10:58.676Z</time></trkpt><trkpt lat="39.0653417" lon="16.2171767"><ele>752.2</ele><time>2026-04-27T11:11:00.678Z</time></trkpt><trkpt lat="39.0653383" lon="16.2173283"><ele>755.0</ele><time>2026-04-27T11:11:02.733Z</time></trkpt><trkpt lat="39.0653317" lon="16.21743"><ele>757.6</ele><time>2026-04-27T11:11:03.675Z</time></trkpt><trkpt lat="39.0653467" lon="16.217555"><ele>760.2</ele><time>2026-04-27T11:11:04.68Z</time></trkpt><trkpt lat="39.0653517" lon="16.2176633"><ele>762.8</ele><time>2026-04-27T11:11:05.672Z</time></trkpt><trkpt lat="39.0653533" lon="16.2177567"><ele>765.4</ele><time>2026-04-27T11:11:06.68Z</time></trkpt><trkpt lat="39.0652933" lon="16.21782"><ele>768.0</ele><time>2026-04-27T11:11:09.671Z</time></trkpt><trkpt lat="39.0652183" lon="16.2177033"><ele>768.0</ele><time>2026-04-27T11:11:11.671Z</time></trkpt><trkpt lat="39.0651767" lon="16.21762"><ele>768.0</ele><time>2026-04-27T11:11:12.672Z</time></trkpt><trkpt lat="39.065125" lon="16.2174967"><ele>768.0</ele><time>2026-04-27T11:11:13.68Z</time></trkpt><trkpt lat="39.0650833" lon="16.2173683"><ele>768.0</ele><time>2026-04-27T11:11:14.715Z</time></trkpt><trkpt lat="39.06504" lon="16.2172433"><ele>768.0</ele><time>2026-04-27T11:11:15.675Z</time></trkpt><trkpt lat="39.065005" lon="16.2171383"><ele>768.0</ele><time>2026-04-27T11:11:16.682Z</time></trkpt><trkpt lat="39.064935" lon="16.2171917"><ele>768.0</ele><time>2026-04-27T11:11:20.711Z</time></trkpt><trkpt lat="39.0649467" lon="16.2173633"><ele>768.0</ele><time>2026-04-27T11:11:22.676Z</time></trkpt><trkpt lat="39.065005" lon="16.217575"><ele>768.0</ele><time>2026-04-27T11:11:23.677Z</time></trkpt><trkpt lat="39.0650383" lon="16.2177667"><ele>768.0</ele><time>2026-04-27T11:11:24.678Z</time></trkpt><trkpt lat="39.065055" lon="16.2179467"><ele>768.0</ele><time>2026-04-27T11:11:25.687Z</time></trkpt><trkpt lat="39.06506" lon="16.2181083"><ele>768.0</ele><time>2026-04-27T11:11:26.742Z</time></trkpt><trkpt lat="39.065045" lon="16.2182667"><ele>768.0</ele><time>2026-04-27T11:11:27.673Z</time></trkpt><trkpt lat="39.0650233" lon="16.2184083"><ele>769.0</ele><time>2026-04-27T11:11:28.676Z</time></trkpt><trkpt lat="39.0650133" lon="16.2185383"><ele>770.0</ele><time>2026-04-27T11:11:29.675Z</time></trkpt><trkpt lat="39.0650267" lon="16.2186567"><ele>771.0</ele><time>2026-04-27T11:11:30.679Z</time></trkpt><trkpt lat="39.0650483" lon="16.2187667"><ele>772.0</ele><time>2026-04-27T11:11:31.678Z</time></trkpt><trkpt lat="39.0650683" lon="16.2188983"><ele>773.0</ele><time>2026-04-27T11:11:32.73Z</time></trkpt><trkpt lat="39.065085" lon="16.2190333"><ele>774.5000000000001</ele><time>2026-04-27T11:11:33.667Z</time></trkpt><trkpt lat="39.0650933" lon="16.2191567"><ele>776.0</ele><time>2026-04-27T11:11:34.673Z</time></trkpt><trkpt lat="39.0650983" lon="16.21926"><ele>777.5</ele><time>2026-04-27T11:11:35.672Z</time></trkpt><trkpt lat="39.0650967" lon="16.219345"><ele>779.0</ele><time>2026-04-27T11:11:36.671Z</time></trkpt><trkpt lat="39.0650533" lon="16.21944"><ele>780.5000000000001</ele><time>2026-04-27T11:11:38.715Z</time></trkpt><trkpt lat="39.064975" lon="16.2194333"><ele>782.0</ele><time>2026-04-27T11:11:40.672Z</time></trkpt><trkpt lat="39.0648667" lon="16.2194667"><ele>777.3333333333334</ele><time>2026-04-27T11:11:42.677Z</time></trkpt><trkpt lat="39.0647583" lon="16.2195167"><ele>772.6666666666667</ele><time>2026-04-27T11:11:44.718Z</time></trkpt><trkpt lat="39.0646967" lon="16.2195383"><ele>768.0</ele><time>2026-04-27T11:11:45.67Z</time></trkpt><trkpt lat="39.0646317" lon="16.2195667"><ele>763.3333333333334</ele><time>2026-04-27T11:11:46.677Z</time></trkpt><trkpt lat="39.0645733" lon="16.2195983"><ele>758.6666666666667</ele><time>2026-04-27T11:11:47.678Z</time></trkpt><trkpt lat="39.0644867" lon="16.219685"><ele>754.0</ele><time>2026-04-27T11:11:49.681Z</time></trkpt><trkpt lat="39.0644133" lon="16.2197883"><ele>757.1666666666667</ele><time>2026-04-27T11:11:51.673Z</time></trkpt><trkpt lat="39.06437" lon="16.219855"><ele>760.3333333333334</ele><time>2026-04-27T11:11:52.675Z</time></trkpt><trkpt lat="39.0643417" lon="16.2199283"><ele>763.5</ele><time>2026-04-27T11:11:53.671Z</time></trkpt><trkpt lat="39.0643117" lon="16.2200117"><ele>766.6666666666667</ele><time>2026-04-27T11:11:54.673Z</time></trkpt><trkpt lat="39.0642733" lon="16.2201133"><ele>769.8333333333334</ele><time>2026-04-27T11:11:55.669Z</time></trkpt><trkpt lat="39.0642333" lon="16.220265"><ele>773.0</ele><time>2026-04-27T11:11:56.739Z</time></trkpt><trkpt lat="39.06419" lon="16.220355"><ele>773.0000000000001</ele><time>2026-04-27T11:11:57.671Z</time></trkpt><trkpt lat="39.0641383" lon="16.2204567"><ele>773.0</ele><time>2026-04-27T11:11:58.669Z</time></trkpt><trkpt lat="39.0640867" lon="16.2205533"><ele>773.0</ele><time>2026-04-27T11:11:59.67Z</time></trkpt><trkpt lat="39.0640417" lon="16.2206283"><ele>773.0</ele><time>2026-04-27T11:12:00.675Z</time></trkpt><trkpt lat="39.0640033" lon="16.2207033"><ele>773.0000000000001</ele><time>2026-04-27T11:12:01.678Z</time></trkpt><trkpt lat="39.0639617" lon="16.2207967"><ele>773.0</ele><time>2026-04-27T11:12:02.74Z</time></trkpt><trkpt lat="39.0639133" lon="16.2209033"><ele>769.5999999999999</ele><time>2026-04-27T11:12:03.67Z</time></trkpt><trkpt lat="39.0638617" lon="16.2209967"><ele>766.1999999999999</ele><time>2026-04-27T11:12:04.677Z</time></trkpt><trkpt lat="39.0638017" lon="16.2210867"><ele>762.8</ele><time>2026-04-27T11:12:05.676Z</time></trkpt><trkpt lat="39.06374" lon="16.2211683"><ele>759.4</ele><time>2026-04-27T11:12:06.68Z</time></trkpt><trkpt lat="39.0636667" lon="16.2212533"><ele>756.0</ele><time>2026-04-27T11:12:07.673Z</time></trkpt><trkpt lat="39.063585" lon="16.2212933"><ele>756.0</ele><time>2026-04-27T11:12:08.719Z</time></trkpt><trkpt lat="39.063505" lon="16.2213233"><ele>756.0</ele><time>2026-04-27T11:12:09.669Z</time></trkpt><trkpt lat="39.0634117" lon="16.2213333"><ele>756.0</ele><time>2026-04-27T11:12:10.676Z</time></trkpt><trkpt lat="39.0633267" lon="16.221345"><ele>756.0</ele><time>2026-04-27T11:12:11.671Z</time></trkpt><trkpt lat="39.0632583" lon="16.22137"><ele>756.0</ele><time>2026-04-27T11:12:12.676Z</time></trkpt><trkpt lat="39.063145" lon="16.22141"><ele>756.5999999999999</ele><time>2026-04-27T11:12:14.715Z</time></trkpt><trkpt lat="39.0630867" lon="16.2214417"><ele>757.2</ele><time>2026-04-27T11:12:15.67Z</time></trkpt><trkpt lat="39.0629733" lon="16.221525"><ele>757.8</ele><time>2026-04-27T11:12:17.675Z</time></trkpt><trkpt lat="39.062905" lon="16.2215917"><ele>758.4000000000001</ele><time>2026-04-27T11:12:18.674Z</time></trkpt><trkpt lat="39.062845" lon="16.22166"><ele>759.0</ele><time>2026-04-27T11:12:19.671Z</time></trkpt><trkpt lat="39.0628" lon="16.221775"><ele>759.0</ele><time>2026-04-27T11:12:20.725Z</time></trkpt><trkpt lat="39.0627517" lon="16.221845"><ele>759.0</ele><time>2026-04-27T11:12:21.675Z</time></trkpt><trkpt lat="39.0627" lon="16.22192"><ele>759.0</ele><time>2026-04-27T11:12:22.672Z</time></trkpt><trkpt lat="39.0626417" lon="16.2219783"><ele>759.0</ele><time>2026-04-27T11:12:23.673Z</time></trkpt><trkpt lat="39.06257" lon="16.222085"><ele>759.0</ele><time>2026-04-27T11:12:24.681Z</time></trkpt><trkpt lat="39.0624933" lon="16.2222083"><ele>757.8000000000001</ele><time>2026-04-27T11:12:25.678Z</time></trkpt><trkpt lat="39.0624417" lon="16.2223167"><ele>756.6</ele><time>2026-04-27T11:12:26.733Z</time></trkpt><trkpt lat="39.0623967" lon="16.2224083"><ele>755.4</ele><time>2026-04-27T11:12:27.675Z</time></trkpt><trkpt lat="39.0623883" lon="16.22251"><ele>754.2</ele><time>2026-04-27T11:12:28.676Z</time></trkpt><trkpt lat="39.0623867" lon="16.2226083"><ele>753.0</ele><time>2026-04-27T11:12:29.67Z</time></trkpt><trkpt lat="39.062365" lon="16.2227567"><ele>753.0</ele><time>2026-04-27T11:12:31.672Z</time></trkpt><trkpt lat="39.0622967" lon="16.2228867"><ele>753.0</ele><time>2026-04-27T11:12:33.672Z</time></trkpt><trkpt lat="39.0622383" lon="16.2229733"><ele>753.0</ele><time>2026-04-27T11:12:34.677Z</time></trkpt><trkpt lat="39.0621783" lon="16.2230517"><ele>753.0</ele><time>2026-04-27T11:12:35.67Z</time></trkpt><trkpt lat="39.06212" lon="16.2231283"><ele>753.0</ele><time>2026-04-27T11:12:36.672Z</time></trkpt><trkpt lat="39.0620533" lon="16.2231933"><ele>757.4</ele><time>2026-04-27T11:12:37.67Z</time></trkpt><trkpt lat="39.0619767" lon="16.2232667"><ele>761.8</ele><time>2026-04-27T11:12:38.718Z</time></trkpt><trkpt lat="39.0618967" lon="16.223345"><ele>766.2</ele><time>2026-04-27T11:12:39.673Z</time></trkpt><trkpt lat="39.0618167" lon="16.2234167"><ele>770.6</ele><time>2026-04-27T11:12:40.673Z</time></trkpt><trkpt lat="39.061745" lon="16.2234817"><ele>775.0</ele><time>2026-04-27T11:12:41.672Z</time></trkpt><trkpt lat="39.06169" lon="16.22354"><ele>775.0</ele><time>2026-04-27T11:12:42.678Z</time></trkpt><trkpt lat="39.061645" lon="16.2236467"><ele>775.0</ele><time>2026-04-27T11:12:44.716Z</time></trkpt><trkpt lat="39.061665" lon="16.2238167"><ele>775.0</ele><time>2026-04-27T11:12:46.672Z</time></trkpt><trkpt lat="39.0616767" lon="16.2239117"><ele>775.0</ele><time>2026-04-27T11:12:47.672Z</time></trkpt><trkpt lat="39.061685" lon="16.2240117"><ele>775.0</ele><time>2026-04-27T11:12:48.679Z</time></trkpt><trkpt lat="39.0617167" lon="16.2241117"><ele>777.6666666666666</ele><time>2026-04-27T11:12:49.678Z</time></trkpt><trkpt lat="39.0617317" lon="16.2242117"><ele>780.3333333333333</ele><time>2026-04-27T11:12:50.721Z</time></trkpt><trkpt lat="39.0617217" lon="16.2243133"><ele>783.0</ele><time>2026-04-27T11:12:51.67Z</time></trkpt><trkpt lat="39.061715" lon="16.2244183"><ele>785.6666666666667</ele><time>2026-04-27T11:12:52.673Z</time></trkpt><trkpt lat="39.0617133" lon="16.2245233"><ele>788.3333333333334</ele><time>2026-04-27T11:12:53.678Z</time></trkpt><trkpt lat="39.061715" lon="16.2246167"><ele>791.0</ele><time>2026-04-27T11:12:54.673Z</time></trkpt><trkpt lat="39.061705" lon="16.2247067"><ele>791.0000000000001</ele><time>2026-04-27T11:12:55.675Z</time></trkpt><trkpt lat="39.061685" lon="16.2247883"><ele>791.0</ele><time>2026-04-27T11:12:56.73Z</time></trkpt><trkpt lat="39.0616583" lon="16.2248767"><ele>791.0</ele><time>2026-04-27T11:12:57.67Z</time></trkpt><trkpt lat="39.0616333" lon="16.2249717"><ele>791.0</ele><time>2026-04-27T11:12:58.681Z</time></trkpt><trkpt lat="39.0616067" lon="16.2250817"><ele>791.0000000000001</ele><time>2026-04-27T11:12:59.673Z</time></trkpt><trkpt lat="39.0615783" lon="16.2251933"><ele>791.0</ele><time>2026-04-27T11:13:00.672Z</time></trkpt><trkpt lat="39.0615583" lon="16.2252967"><ele>789.8333333333334</ele><time>2026-04-27T11:13:01.668Z</time></trkpt><trkpt lat="39.0615383" lon="16.2253917"><ele>788.6666666666667</ele><time>2026-04-27T11:13:02.73Z</time></trkpt><trkpt lat="39.06151" lon="16.2254967"><ele>787.5</ele><time>2026-04-27T11:13:03.674Z</time></trkpt><trkpt lat="39.06149" lon="16.225585"><ele>786.3333333333333</ele><time>2026-04-27T11:13:04.68Z</time></trkpt><trkpt lat="39.0614767" lon="16.2256817"><ele>785.1666666666666</ele><time>2026-04-27T11:13:05.67Z</time></trkpt><trkpt lat="39.06147" lon="16.2257633"><ele>784.0</ele><time>2026-04-27T11:13:06.678Z</time></trkpt><trkpt lat="39.06144" lon="16.2258917"><ele>788.2</ele><time>2026-04-27T11:13:08.72Z</time></trkpt><trkpt lat="39.0613733" lon="16.2260317"><ele>792.4000000000001</ele><time>2026-04-27T11:13:10.669Z</time></trkpt><trkpt lat="39.0613267" lon="16.2261"><ele>796.6</ele><time>2026-04-27T11:13:11.675Z</time></trkpt><trkpt lat="39.06124" lon="16.22619"><ele>800.8</ele><time>2026-04-27T11:13:13.671Z</time></trkpt><trkpt lat="39.06114" lon="16.226295"><ele>805.0</ele><time>2026-04-27T11:13:15.667Z</time></trkpt><trkpt lat="39.06108" lon="16.2263483"><ele>804.9999999999999</ele><time>2026-04-27T11:13:16.676Z</time></trkpt><trkpt lat="39.06102" lon="16.2264267"><ele>805.0</ele><time>2026-04-27T11:13:17.673Z</time></trkpt><trkpt lat="39.0609617" lon="16.226495"><ele>805.0</ele><time>2026-04-27T11:13:18.678Z</time></trkpt><trkpt lat="39.0609083" lon="16.22656"><ele>805.0</ele><time>2026-04-27T11:13:19.678Z</time></trkpt><trkpt lat="39.0608467" lon="16.2266333"><ele>804.9999999999999</ele><time>2026-04-27T11:13:20.716Z</time></trkpt><trkpt lat="39.0607833" lon="16.2267"><ele>805.0</ele><time>2026-04-27T11:13:21.67Z</time></trkpt><trkpt lat="39.0607183" lon="16.2267733"><ele>806.8333333333333</ele><time>2026-04-27T11:13:22.672Z</time></trkpt><trkpt lat="39.0606567" lon="16.2268617"><ele>808.6666666666666</ele><time>2026-04-27T11:13:23.678Z</time></trkpt><trkpt lat="39.0606067" lon="16.22696"><ele>810.5</ele><time>2026-04-27T11:13:24.675Z</time></trkpt><trkpt lat="39.0605867" lon="16.2270383"><ele>812.3333333333333</ele><time>2026-04-27T11:13:25.674Z</time></trkpt><trkpt lat="39.0605683" lon="16.22714"><ele>814.1666666666666</ele><time>2026-04-27T11:13:26.724Z</time></trkpt><trkpt lat="39.0605417" lon="16.2272417"><ele>816.0</ele><time>2026-04-27T11:13:27.67Z</time></trkpt><trkpt lat="39.0605167" lon="16.2273367"><ele>819.8333333333334</ele><time>2026-04-27T11:13:28.674Z</time></trkpt><trkpt lat="39.0604867" lon="16.2274233"><ele>823.6666666666667</ele><time>2026-04-27T11:13:29.678Z</time></trkpt><trkpt lat="39.060455" lon="16.2275083"><ele>827.5</ele><time>2026-04-27T11:13:30.675Z</time></trkpt><trkpt lat="39.060425" lon="16.227595"><ele>831.3333333333334</ele><time>2026-04-27T11:13:31.671Z</time></trkpt><trkpt lat="39.0603967" lon="16.22767"><ele>835.1666666666667</ele><time>2026-04-27T11:13:32.727Z</time></trkpt><trkpt lat="39.0603333" lon="16.2277633"><ele>839.0</ele><time>2026-04-27T11:13:34.676Z</time></trkpt><trkpt lat="39.06025" lon="16.2277767"><ele>839.0</ele><time>2026-04-27T11:13:36.676Z</time></trkpt><trkpt lat="39.0601583" lon="16.2277233"><ele>839.0</ele><time>2026-04-27T11:13:38.718Z</time></trkpt><trkpt lat="39.0600833" lon="16.2276883"><ele>839.0</ele><time>2026-04-27T11:13:40.669Z</time></trkpt><trkpt lat="39.06003" lon="16.2277367"><ele>839.0</ele><time>2026-04-27T11:13:43.675Z</time></trkpt><trkpt lat="39.060055" lon="16.2278783"><ele>839.0</ele><time>2026-04-27T11:13:45.672Z</time></trkpt><trkpt lat="39.06007" lon="16.2280317"><ele>839.0000000000001</ele><time>2026-04-27T11:13:47.676Z</time></trkpt><trkpt lat="39.0600783" lon="16.2281233"><ele>839.0</ele><time>2026-04-27T11:13:48.673Z</time></trkpt><trkpt lat="39.060085" lon="16.2282317"><ele>839.0</ele><time>2026-04-27T11:13:49.676Z</time></trkpt><trkpt lat="39.0600867" lon="16.2283483"><ele>839.0</ele><time>2026-04-27T11:13:50.719Z</time></trkpt><trkpt lat="39.0600767" lon="16.22846"><ele>839.0000000000001</ele><time>2026-04-27T11:13:51.671Z</time></trkpt><trkpt lat="39.0600717" lon="16.2285733"><ele>839.0</ele><time>2026-04-27T11:13:52.674Z</time></trkpt><trkpt lat="39.0600433" lon="16.22869"><ele>839.0</ele><time>2026-04-27T11:13:54.677Z</time></trkpt><trkpt lat="39.059945" lon="16.2287133"><ele>839.0</ele><time>2026-04-27T11:13:56.731Z</time></trkpt><trkpt lat="39.059875" lon="16.2287333"><ele>839.0</ele><time>2026-04-27T11:13:57.672Z</time></trkpt><trkpt lat="39.0598067" lon="16.2287867"><ele>839.0</ele><time>2026-04-27T11:13:58.682Z</time></trkpt><trkpt lat="39.059725" lon="16.2288633"><ele>839.0</ele><time>2026-04-27T11:13:59.675Z</time></trkpt><trkpt lat="39.0596383" lon="16.2289317"><ele>844.6666666666667</ele><time>2026-04-27T11:14:00.672Z</time></trkpt><trkpt lat="39.0595633" lon="16.2289867"><ele>850.3333333333334</ele><time>2026-04-27T11:14:01.678Z</time></trkpt><trkpt lat="39.0594967" lon="16.2290417"><ele>856.0</ele><time>2026-04-27T11:14:02.733Z</time></trkpt><trkpt lat="39.0594267" lon="16.2291017"><ele>861.6666666666667</ele><time>2026-04-27T11:14:03.674Z</time></trkpt><trkpt lat="39.0593483" lon="16.2291583"><ele>867.3333333333334</ele><time>2026-04-27T11:14:04.674Z</time></trkpt><trkpt lat="39.059265" lon="16.2292017"><ele>873.0</ele><time>2026-04-27T11:14:05.673Z</time></trkpt><trkpt lat="39.0591817" lon="16.22923"><ele>869.5</ele><time>2026-04-27T11:14:06.671Z</time></trkpt><trkpt lat="39.05909" lon="16.229245"><ele>866.0</ele><time>2026-04-27T11:14:07.67Z</time></trkpt><trkpt lat="39.0589967" lon="16.2292617"><ele>862.5</ele><time>2026-04-27T11:14:08.718Z</time></trkpt><trkpt lat="39.0589067" lon="16.2292883"><ele>859.0</ele><time>2026-04-27T11:14:09.673Z</time></trkpt><trkpt lat="39.0588267" lon="16.2293267"><ele>855.5</ele><time>2026-04-27T11:14:10.679Z</time></trkpt><trkpt lat="39.058755" lon="16.2293767"><ele>852.0</ele><time>2026-04-27T11:14:11.675Z</time></trkpt><trkpt lat="39.0586833" lon="16.2294383"><ele>852.0</ele><time>2026-04-27T11:14:12.679Z</time></trkpt><trkpt lat="39.0586117" lon="16.2295183"><ele>852.0</ele><time>2026-04-27T11:14:13.673Z</time></trkpt><trkpt lat="39.058535" lon="16.2295967"><ele>852.0</ele><time>2026-04-27T11:14:14.72Z</time></trkpt><trkpt lat="39.0584517" lon="16.2296667"><ele>852.0</ele><time>2026-04-27T11:14:15.674Z</time></trkpt><trkpt lat="39.0583583" lon="16.22974"><ele>852.0</ele><time>2026-04-27T11:14:16.676Z</time></trkpt><trkpt lat="39.0582583" lon="16.22981"><ele>856.25</ele><time>2026-04-27T11:14:17.669Z</time></trkpt><trkpt lat="39.0581533" lon="16.229885"><ele>860.5</ele><time>2026-04-27T11:14:18.678Z</time></trkpt><trkpt lat="39.0580467" lon="16.2299717"><ele>864.75</ele><time>2026-04-27T11:14:19.671Z</time></trkpt><trkpt lat="39.0579467" lon="16.2300483"><ele>869.0</ele><time>2026-04-27T11:14:20.723Z</time></trkpt><trkpt lat="39.0578467" lon="16.2301117"><ele>869.0</ele><time>2026-04-27T11:14:21.68Z</time></trkpt><trkpt lat="39.057745" lon="16.23017"><ele>869.0</ele><time>2026-04-27T11:14:22.675Z</time></trkpt><trkpt lat="39.0576333" lon="16.230215"><ele>869.0</ele><time>2026-04-27T11:14:23.674Z</time></trkpt><trkpt lat="39.05752" lon="16.2302583"><ele>869.0</ele><time>2026-04-27T11:14:24.68Z</time></trkpt><trkpt lat="39.0574167" lon="16.230295"><ele>866.2</ele><time>2026-04-27T11:14:25.683Z</time></trkpt><trkpt lat="39.0573183" lon="16.230325"><ele>863.4000000000001</ele><time>2026-04-27T11:14:26.733Z</time></trkpt><trkpt lat="39.0572317" lon="16.230365"><ele>860.6</ele><time>2026-04-27T11:14:27.671Z</time></trkpt><trkpt lat="39.0571433" lon="16.2304233"><ele>857.8</ele><time>2026-04-27T11:14:28.675Z</time></trkpt><trkpt lat="39.05705" lon="16.230495"><ele>855.0</ele><time>2026-04-27T11:14:29.672Z</time></trkpt><trkpt lat="39.056955" lon="16.23058"><ele>854.75</ele><time>2026-04-27T11:14:30.681Z</time></trkpt><trkpt lat="39.056855" lon="16.230665"><ele>854.5</ele><time>2026-04-27T11:14:31.673Z</time></trkpt><trkpt lat="39.056745" lon="16.23076"><ele>854.25</ele><time>2026-04-27T11:14:32.733Z</time></trkpt><trkpt lat="39.0566367" lon="16.230845"><ele>854.0</ele><time>2026-04-27T11:14:33.67Z</time></trkpt><trkpt lat="39.0565333" lon="16.2309233"><ele>854.0</ele><time>2026-04-27T11:14:34.672Z</time></trkpt><trkpt lat="39.056425" lon="16.23098"><ele>854.0</ele><time>2026-04-27T11:14:35.672Z</time></trkpt><trkpt lat="39.05631" lon="16.23103"><ele>854.0</ele><time>2026-04-27T11:14:36.674Z</time></trkpt><trkpt lat="39.0562083" lon="16.23108"><ele>854.0</ele><time>2026-04-27T11:14:37.678Z</time></trkpt><trkpt lat="39.0561" lon="16.2311467"><ele>854.0</ele><time>2026-04-27T11:14:38.72Z</time></trkpt><trkpt lat="39.056005" lon="16.2312267"><ele>854.0</ele><time>2026-04-27T11:14:39.677Z</time></trkpt><trkpt lat="39.0559017" lon="16.23132"><ele>854.0</ele><time>2026-04-27T11:14:40.684Z</time></trkpt><trkpt lat="39.0557967" lon="16.2314267"><ele>854.0</ele><time>2026-04-27T11:14:41.675Z</time></trkpt><trkpt lat="39.0556933" lon="16.2315267"><ele>851.25</ele><time>2026-04-27T11:14:42.67Z</time></trkpt><trkpt lat="39.0555917" lon="16.231615"><ele>848.5</ele><time>2026-04-27T11:14:43.67Z</time></trkpt><trkpt lat="39.0555" lon="16.2316983"><ele>845.75</ele><time>2026-04-27T11:14:44.709Z</time></trkpt><trkpt lat="39.0553933" lon="16.231785"><ele>843.0</ele><time>2026-04-27T11:14:45.672Z</time></trkpt><trkpt lat="39.055275" lon="16.2318817"><ele>843.0</ele><time>2026-04-27T11:14:46.674Z</time></trkpt><trkpt lat="39.0551467" lon="16.2319717"><ele>843.0</ele><time>2026-04-27T11:14:47.669Z</time></trkpt><trkpt lat="39.0550167" lon="16.2320583"><ele>843.0</ele><time>2026-04-27T11:14:48.673Z</time></trkpt><trkpt lat="39.05488" lon="16.2321467"><ele>843.0</ele><time>2026-04-27T11:14:49.673Z</time></trkpt><trkpt lat="39.0547467" lon="16.2322233"><ele>844.5</ele><time>2026-04-27T11:14:50.715Z</time></trkpt><trkpt lat="39.0546183" lon="16.23229"><ele>846.0</ele><time>2026-04-27T11:14:51.68Z</time></trkpt><trkpt lat="39.0544883" lon="16.2323617"><ele>847.5</ele><time>2026-04-27T11:14:52.676Z</time></trkpt><trkpt lat="39.054355" lon="16.2324317"><ele>849.0</ele><time>2026-04-27T11:14:53.669Z</time></trkpt><trkpt lat="39.0542283" lon="16.2324967"><ele>843.75</ele><time>2026-04-27T11:14:54.672Z</time></trkpt><trkpt lat="39.0540983" lon="16.2325617"><ele>838.5</ele><time>2026-04-27T11:14:55.673Z</time></trkpt><trkpt lat="39.0539783" lon="16.2326233"><ele>833.25</ele><time>2026-04-27T11:14:56.747Z</time></trkpt><trkpt lat="39.0538633" lon="16.232685"><ele>828.0</ele><time>2026-04-27T11:14:57.674Z</time></trkpt><trkpt lat="39.0537567" lon="16.2327467"><ele>828.0</ele><time>2026-04-27T11:14:58.674Z</time></trkpt><trkpt lat="39.0536567" lon="16.2328083"><ele>828.0</ele><time>2026-04-27T11:14:59.672Z</time></trkpt><trkpt lat="39.053575" lon="16.2328767"><ele>828.0</ele><time>2026-04-27T11:15:00.669Z</time></trkpt><trkpt lat="39.0535133" lon="16.2329483"><ele>828.0</ele><time>2026-04-27T11:15:01.676Z</time></trkpt><trkpt lat="39.0534617" lon="16.2330433"><ele>828.0</ele><time>2026-04-27T11:15:02.725Z</time></trkpt><trkpt lat="39.0534233" lon="16.2331567"><ele>829.4</ele><time>2026-04-27T11:15:03.669Z</time></trkpt><trkpt lat="39.0533967" lon="16.233285"><ele>830.8</ele><time>2026-04-27T11:15:04.676Z</time></trkpt><trkpt lat="39.0533567" lon="16.233405"><ele>832.2</ele><time>2026-04-27T11:15:05.675Z</time></trkpt><trkpt lat="39.053315" lon="16.2335333"><ele>833.6</ele><time>2026-04-27T11:15:06.677Z</time></trkpt><trkpt lat="39.0532483" lon="16.2336483"><ele>835.0</ele><time>2026-04-27T11:15:07.675Z</time></trkpt><trkpt lat="39.0531683" lon="16.2337633"><ele>831.4</ele><time>2026-04-27T11:15:08.724Z</time></trkpt><trkpt lat="39.0530933" lon="16.233855"><ele>827.8</ele><time>2026-04-27T11:15:09.672Z</time></trkpt><trkpt lat="39.0530283" lon="16.2339467"><ele>824.2</ele><time>2026-04-27T11:15:10.669Z</time></trkpt><trkpt lat="39.052985" lon="16.2340433"><ele>820.6</ele><time>2026-04-27T11:15:11.675Z</time></trkpt><trkpt lat="39.05294" lon="16.2341383"><ele>817.0</ele><time>2026-04-27T11:15:12.678Z</time></trkpt><trkpt lat="39.0528867" lon="16.2342817"><ele>817.0</ele><time>2026-04-27T11:15:14.723Z</time></trkpt><trkpt lat="39.0528683" lon="16.2343667"><ele>817.0</ele><time>2026-04-27T11:15:16.676Z</time></trkpt><trkpt lat="39.052855" lon="16.2344967"><ele>817.0</ele><time>2026-04-27T11:15:18.676Z</time></trkpt><trkpt lat="39.0528583" lon="16.2346467"><ele>817.0</ele><time>2026-04-27T11:15:20.713Z</time></trkpt><trkpt lat="39.0528533" lon="16.2347517"><ele>817.0</ele><time>2026-04-27T11:15:22.68Z</time></trkpt><trkpt lat="39.05279" lon="16.2348433"><ele>816.4999999999999</ele><time>2026-04-27T11:15:24.686Z</time></trkpt><trkpt lat="39.0527317" lon="16.2348917"><ele>816.0</ele><time>2026-04-27T11:15:25.671Z</time></trkpt><trkpt lat="39.05266" lon="16.2349617"><ele>815.5</ele><time>2026-04-27T11:15:26.727Z</time></trkpt><trkpt lat="39.0525883" lon="16.235015"><ele>815.0</ele><time>2026-04-27T11:15:27.667Z</time></trkpt><trkpt lat="39.0525233" lon="16.2350817"><ele>814.4999999999999</ele><time>2026-04-27T11:15:28.669Z</time></trkpt><trkpt lat="39.0524617" lon="16.2351517"><ele>814.0</ele><time>2026-04-27T11:15:29.671Z</time></trkpt><trkpt lat="39.052395" lon="16.2352383"><ele>813.9999999999999</ele><time>2026-04-27T11:15:30.68Z</time></trkpt><trkpt lat="39.0523317" lon="16.23532"><ele>814.0</ele><time>2026-04-27T11:15:31.674Z</time></trkpt><trkpt lat="39.0522683" lon="16.2353983"><ele>814.0</ele><time>2026-04-27T11:15:32.737Z</time></trkpt><trkpt lat="39.0522233" lon="16.2354583"><ele>814.0</ele><time>2026-04-27T11:15:33.668Z</time></trkpt><trkpt lat="39.0521833" lon="16.2355733"><ele>813.9999999999999</ele><time>2026-04-27T11:15:35.668Z</time></trkpt><trkpt lat="39.052265" lon="16.2356283"><ele>814.0</ele><time>2026-04-27T11:15:37.674Z</time></trkpt><trkpt lat="39.0523083" lon="16.2357133"><ele>817.4000000000001</ele><time>2026-04-27T11:15:39.676Z</time></trkpt><trkpt lat="39.0522967" lon="16.2358267"><ele>820.8</ele><time>2026-04-27T11:15:41.674Z</time></trkpt><trkpt lat="39.0522583" lon="16.2359833"><ele>824.2</ele><time>2026-04-27T11:15:43.674Z</time></trkpt><trkpt lat="39.0522333" lon="16.23609"><ele>827.5999999999999</ele><time>2026-04-27T11:15:44.721Z</time></trkpt><trkpt lat="39.052205" lon="16.2361867"><ele>831.0</ele><time>2026-04-27T11:15:45.678Z</time></trkpt><trkpt lat="39.0521783" lon="16.236285"><ele>831.0</ele><time>2026-04-27T11:15:46.672Z</time></trkpt><trkpt lat="39.0521417" lon="16.2363817"><ele>831.0</ele><time>2026-04-27T11:15:47.676Z</time></trkpt><trkpt lat="39.0521" lon="16.2364883"><ele>831.0</ele><time>2026-04-27T11:15:48.683Z</time></trkpt><trkpt lat="39.0520583" lon="16.2365867"><ele>831.0</ele><time>2026-04-27T11:15:49.671Z</time></trkpt><trkpt lat="39.052" lon="16.2366783"><ele>831.0</ele><time>2026-04-27T11:15:50.717Z</time></trkpt><trkpt lat="39.0519217" lon="16.2368017"><ele>836.0</ele><time>2026-04-27T11:15:51.672Z</time></trkpt><trkpt lat="39.0518533" lon="16.236935"><ele>841.0</ele><time>2026-04-27T11:15:52.672Z</time></trkpt><trkpt lat="39.05179" lon="16.2370567"><ele>845.9999999999999</ele><time>2026-04-27T11:15:53.672Z</time></trkpt><trkpt lat="39.0517383" lon="16.2371733"><ele>851.0</ele><time>2026-04-27T11:15:54.672Z</time></trkpt><trkpt lat="39.0516783" lon="16.237285"><ele>856.0</ele><time>2026-04-27T11:15:55.672Z</time></trkpt><trkpt lat="39.0516183" lon="16.2373933"><ele>857.5</ele><time>2026-04-27T11:15:56.728Z</time></trkpt><trkpt lat="39.051535" lon="16.2375083"><ele>859.0</ele><time>2026-04-27T11:15:57.674Z</time></trkpt><trkpt lat="39.05146" lon="16.2376183"><ele>860.5</ele><time>2026-04-27T11:15:58.679Z</time></trkpt><trkpt lat="39.0513767" lon="16.23775"><ele>862.0</ele><time>2026-04-27T11:15:59.676Z</time></trkpt><trkpt lat="39.051305" lon="16.2378967"><ele>862.0</ele><time>2026-04-27T11:16:00.681Z</time></trkpt><trkpt lat="39.051235" lon="16.2380483"><ele>862.0</ele><time>2026-04-27T11:16:01.69Z</time></trkpt><trkpt lat="39.051175" lon="16.23817"><ele>862.0</ele><time>2026-04-27T11:16:02.731Z</time></trkpt><trkpt lat="39.05112" lon="16.238275"><ele>862.0</ele><time>2026-04-27T11:16:03.672Z</time></trkpt><trkpt lat="39.05106" lon="16.238375"><ele>862.0</ele><time>2026-04-27T11:16:04.677Z</time></trkpt><trkpt lat="39.0509883" lon="16.23847"><ele>863.3333333333333</ele><time>2026-04-27T11:16:05.673Z</time></trkpt><trkpt lat="39.0509133" lon="16.2385583"><ele>864.6666666666666</ele><time>2026-04-27T11:16:06.669Z</time></trkpt><trkpt lat="39.0508367" lon="16.2386433"><ele>866.0</ele><time>2026-04-27T11:16:07.672Z</time></trkpt><trkpt lat="39.0507717" lon="16.2387067"><ele>867.3333333333333</ele><time>2026-04-27T11:16:08.711Z</time></trkpt><trkpt lat="39.050725" lon="16.23878"><ele>868.6666666666666</ele><time>2026-04-27T11:16:09.669Z</time></trkpt><trkpt lat="39.0506883" lon="16.23886"><ele>870.0</ele><time>2026-04-27T11:16:10.675Z</time></trkpt><trkpt lat="39.050655" lon="16.2389467"><ele>873.0</ele><time>2026-04-27T11:16:11.67Z</time></trkpt><trkpt lat="39.05062" lon="16.2390583"><ele>876.0</ele><time>2026-04-27T11:16:12.673Z</time></trkpt><trkpt lat="39.05058" lon="16.239185"><ele>879.0</ele><time>2026-04-27T11:16:13.677Z</time></trkpt><trkpt lat="39.0505483" lon="16.2392783"><ele>882.0</ele><time>2026-04-27T11:16:14.719Z</time></trkpt><trkpt lat="39.0505167" lon="16.2393617"><ele>885.0</ele><time>2026-04-27T11:16:15.674Z</time></trkpt><trkpt lat="39.0505233" lon="16.2392417"><ele>888.0</ele><time>2026-04-27T11:16:34.677Z</time></trkpt><trkpt lat="39.0505417" lon="16.2391317"><ele>888.0</ele><time>2026-04-27T11:16:37.675Z</time></trkpt><trkpt lat="39.0505767" lon="16.2390467"><ele>888.0</ele><time>2026-04-27T11:16:38.716Z</time></trkpt><trkpt lat="39.0506133" lon="16.23895"><ele>888.0</ele><time>2026-04-27T11:16:39.679Z</time></trkpt><trkpt lat="39.050665" lon="16.238855"><ele>888.0</ele><time>2026-04-27T11:16:40.678Z</time></trkpt><trkpt lat="39.0507" lon="16.238775"><ele>888.0</ele><time>2026-04-27T11:16:41.674Z</time></trkpt><trkpt lat="39.05074" lon="16.2386567"><ele>888.0</ele><time>2026-04-27T11:16:43.674Z</time></trkpt><trkpt lat="39.050655" lon="16.238645"><ele>884.4</ele><time>2026-04-27T11:16:45.679Z</time></trkpt><trkpt lat="39.05059" lon="16.2386517"><ele>880.8</ele><time>2026-04-27T11:16:46.679Z</time></trkpt><trkpt lat="39.0505233" lon="16.2386633"><ele>877.2</ele><time>2026-04-27T11:16:47.679Z</time></trkpt><trkpt lat="39.0503583" lon="16.2387483"><ele>873.6</ele><time>2026-04-27T11:16:50.72Z</time></trkpt><trkpt lat="39.05027" lon="16.238865"><ele>870.0</ele><time>2026-04-27T11:16:52.677Z</time></trkpt><trkpt lat="39.050215" lon="16.2389483"><ele>873.0</ele><time>2026-04-27T11:16:53.677Z</time></trkpt><trkpt lat="39.0501467" lon="16.2390283"><ele>876.0</ele><time>2026-04-27T11:16:54.673Z</time></trkpt><trkpt lat="39.05007" lon="16.239105"><ele>879.0</ele><time>2026-04-27T11:16:55.677Z</time></trkpt><trkpt lat="39.0499867" lon="16.2391917"><ele>882.0</ele><time>2026-04-27T11:16:56.732Z</time></trkpt><trkpt lat="39.049895" lon="16.23927"><ele>885.0</ele><time>2026-04-27T11:16:57.673Z</time></trkpt><trkpt lat="39.0498017" lon="16.239345"><ele>885.0</ele><time>2026-04-27T11:16:58.675Z</time></trkpt><trkpt lat="39.049715" lon="16.2394117"><ele>885.0</ele><time>2026-04-27T11:16:59.679Z</time></trkpt><trkpt lat="39.0496267" lon="16.2394667"><ele>885.0</ele><time>2026-04-27T11:17:00.678Z</time></trkpt><trkpt lat="39.0495283" lon="16.2395267"><ele>885.0</ele><time>2026-04-27T11:17:01.673Z</time></trkpt><trkpt lat="39.0494133" lon="16.239575"><ele>885.0</ele><time>2026-04-27T11:17:02.731Z</time></trkpt><trkpt lat="39.0492967" lon="16.2396167"><ele>885.0</ele><time>2026-04-27T11:17:03.674Z</time></trkpt><trkpt lat="39.0491917" lon="16.2396483"><ele>885.0</ele><time>2026-04-27T11:17:04.68Z</time></trkpt><trkpt lat="39.0491" lon="16.2396733"><ele>885.0</ele><time>2026-04-27T11:17:05.676Z</time></trkpt><trkpt lat="39.0490167" lon="16.2396883"><ele>885.0</ele><time>2026-04-27T11:17:06.676Z</time></trkpt><trkpt lat="39.0489417" lon="16.239695"><ele>885.0</ele><time>2026-04-27T11:17:07.673Z</time></trkpt><trkpt lat="39.048865" lon="16.2397017"><ele>885.0</ele><time>2026-04-27T11:17:08.713Z</time></trkpt><trkpt lat="39.0487967" lon="16.2397283"><ele>885.6</ele><time>2026-04-27T11:17:09.674Z</time></trkpt><trkpt lat="39.0487317" lon="16.239765"><ele>886.2</ele><time>2026-04-27T11:17:10.676Z</time></trkpt><trkpt lat="39.0486717" lon="16.2398233"><ele>886.8</ele><time>2026-04-27T11:17:11.669Z</time></trkpt><trkpt lat="39.0486017" lon="16.23991"><ele>887.4</ele><time>2026-04-27T11:17:12.677Z</time></trkpt><trkpt lat="39.048525" lon="16.2400017"><ele>888.0</ele><time>2026-04-27T11:17:13.676Z</time></trkpt><trkpt lat="39.0484567" lon="16.2401017"><ele>888.0</ele><time>2026-04-27T11:17:14.72Z</time></trkpt><trkpt lat="39.0483983" lon="16.240195"><ele>888.0</ele><time>2026-04-27T11:17:15.676Z</time></trkpt><trkpt lat="39.0483567" lon="16.2402867"><ele>888.0</ele><time>2026-04-27T11:17:16.674Z</time></trkpt><trkpt lat="39.0483317" lon="16.2403933"><ele>888.0</ele><time>2026-04-27T11:17:17.678Z</time></trkpt><trkpt lat="39.0483033" lon="16.2405083"><ele>888.0</ele><time>2026-04-27T11:17:18.673Z</time></trkpt><trkpt lat="39.0482717" lon="16.2406283"><ele>886.5999999999999</ele><time>2026-04-27T11:17:19.674Z</time></trkpt><trkpt lat="39.0482367" lon="16.2407483"><ele>885.1999999999999</ele><time>2026-04-27T11:17:20.718Z</time></trkpt><trkpt lat="39.04819" lon="16.240875"><ele>883.8</ele><time>2026-04-27T11:17:21.673Z</time></trkpt><trkpt lat="39.0481367" lon="16.2409917"><ele>882.4</ele><time>2026-04-27T11:17:22.677Z</time></trkpt><trkpt lat="39.0480683" lon="16.2411067"><ele>881.0</ele><time>2026-04-27T11:17:23.676Z</time></trkpt><trkpt lat="39.04798" lon="16.2412317"><ele>881.0</ele><time>2026-04-27T11:17:24.678Z</time></trkpt><trkpt lat="39.0479" lon="16.24134"><ele>881.0</ele><time>2026-04-27T11:17:25.677Z</time></trkpt><trkpt lat="39.04782" lon="16.2414483"><ele>881.0</ele><time>2026-04-27T11:17:26.747Z</time></trkpt><trkpt lat="39.0477483" lon="16.2415633"><ele>881.0</ele><time>2026-04-27T11:17:27.676Z</time></trkpt><trkpt lat="39.0476667" lon="16.2417"><ele>880.0</ele><time>2026-04-27T11:17:28.675Z</time></trkpt><trkpt lat="39.0475733" lon="16.241845"><ele>879.0</ele><time>2026-04-27T11:17:29.674Z</time></trkpt><trkpt lat="39.0474767" lon="16.24199"><ele>878.0</ele><time>2026-04-27T11:17:30.681Z</time></trkpt><trkpt lat="39.0473867" lon="16.242115"><ele>877.0</ele><time>2026-04-27T11:17:31.677Z</time></trkpt><trkpt lat="39.0472983" lon="16.2422333"><ele>881.4000000000001</ele><time>2026-04-27T11:17:32.729Z</time></trkpt><trkpt lat="39.0472183" lon="16.2423217"><ele>885.8000000000001</ele><time>2026-04-27T11:17:33.669Z</time></trkpt><trkpt lat="39.047135" lon="16.2423983"><ele>890.2</ele><time>2026-04-27T11:17:34.673Z</time></trkpt><trkpt lat="39.0470567" lon="16.2424767"><ele>894.6</ele><time>2026-04-27T11:17:35.677Z</time></trkpt><trkpt lat="39.04698" lon="16.2425633"><ele>899.0</ele><time>2026-04-27T11:17:36.678Z</time></trkpt><trkpt lat="39.0469067" lon="16.2426483"><ele>899.0</ele><time>2026-04-27T11:17:37.674Z</time></trkpt><trkpt lat="39.0468367" lon="16.242725"><ele>899.0</ele><time>2026-04-27T11:17:38.719Z</time></trkpt><trkpt lat="39.0467367" lon="16.2428267"><ele>899.0</ele><time>2026-04-27T11:17:39.678Z</time></trkpt><trkpt lat="39.04664" lon="16.2429217"><ele>899.0</ele><time>2026-04-27T11:17:40.677Z</time></trkpt><trkpt lat="39.0465467" lon="16.24301"><ele>898.5</ele><time>2026-04-27T11:17:41.674Z</time></trkpt><trkpt lat="39.046435" lon="16.2431083"><ele>898.0</ele><time>2026-04-27T11:17:42.679Z</time></trkpt><trkpt lat="39.0463383" lon="16.2431967"><ele>897.5</ele><time>2026-04-27T11:17:43.673Z</time></trkpt><trkpt lat="39.0462367" lon="16.2432867"><ele>897.0</ele><time>2026-04-27T11:17:44.72Z</time></trkpt><trkpt lat="39.04614" lon="16.2433667"><ele>897.0</ele><time>2026-04-27T11:17:45.672Z</time></trkpt><trkpt lat="39.04605" lon="16.24344"><ele>897.0</ele><time>2026-04-27T11:17:46.673Z</time></trkpt><trkpt lat="39.045975" lon="16.2435083"><ele>897.0</ele><time>2026-04-27T11:17:47.671Z</time></trkpt><trkpt lat="39.0459133" lon="16.243575"><ele>897.0</ele><time>2026-04-27T11:17:48.681Z</time></trkpt><trkpt lat="39.0458517" lon="16.2436517"><ele>897.0</ele><time>2026-04-27T11:17:49.677Z</time></trkpt><trkpt lat="39.0457833" lon="16.24373"><ele>895.2</ele><time>2026-04-27T11:17:50.718Z</time></trkpt><trkpt lat="39.045705" lon="16.2438033"><ele>893.4000000000001</ele><time>2026-04-27T11:17:51.669Z</time></trkpt><trkpt lat="39.0456117" lon="16.2438867"><ele>891.5999999999999</ele><time>2026-04-27T11:17:52.675Z</time></trkpt><trkpt lat="39.0455083" lon="16.2439767"><ele>889.8</ele><time>2026-04-27T11:17:53.673Z</time></trkpt><trkpt lat="39.045415" lon="16.24404"><ele>888.0</ele><time>2026-04-27T11:17:54.68Z</time></trkpt><trkpt lat="39.045315" lon="16.244095"><ele>892.25</ele><time>2026-04-27T11:17:55.676Z</time></trkpt><trkpt lat="39.0452117" lon="16.2441417"><ele>896.5</ele><time>2026-04-27T11:17:56.738Z</time></trkpt><trkpt lat="39.0450933" lon="16.2441783"><ele>900.75</ele><time>2026-04-27T11:17:57.67Z</time></trkpt><trkpt lat="39.044965" lon="16.24419"><ele>905.0</ele><time>2026-04-27T11:17:58.677Z</time></trkpt><trkpt lat="39.044835" lon="16.2442"><ele>905.0</ele><time>2026-04-27T11:17:59.675Z</time></trkpt><trkpt lat="39.0447117" lon="16.2442217"><ele>905.0</ele><time>2026-04-27T11:18:00.677Z</time></trkpt><trkpt lat="39.0445833" lon="16.24425"><ele>905.0</ele><time>2026-04-27T11:18:01.675Z</time></trkpt><trkpt lat="39.0444567" lon="16.244275"><ele>905.0</ele><time>2026-04-27T11:18:02.734Z</time></trkpt><trkpt lat="39.0443233" lon="16.244305"><ele>905.0</ele><time>2026-04-27T11:18:03.672Z</time></trkpt><trkpt lat="39.044185" lon="16.244335"><ele>905.0</ele><time>2026-04-27T11:18:04.669Z</time></trkpt><trkpt lat="39.0440417" lon="16.2443717"><ele>905.0</ele><time>2026-04-27T11:18:05.674Z</time></trkpt><trkpt lat="39.043895" lon="16.2444083"><ele>905.0</ele><time>2026-04-27T11:18:06.677Z</time></trkpt><trkpt lat="39.043745" lon="16.24444"><ele>905.5</ele><time>2026-04-27T11:18:07.669Z</time></trkpt><trkpt lat="39.0436017" lon="16.2444783"><ele>906.0</ele><time>2026-04-27T11:18:08.712Z</time></trkpt><trkpt lat="39.0434617" lon="16.2445083"><ele>906.5</ele><time>2026-04-27T11:18:09.671Z</time></trkpt><trkpt lat="39.043345" lon="16.24454"><ele>907.0</ele><time>2026-04-27T11:18:10.673Z</time></trkpt><trkpt lat="39.0432383" lon="16.24459"><ele>907.0</ele><time>2026-04-27T11:18:11.672Z</time></trkpt><trkpt lat="39.0431333" lon="16.244655"><ele>907.0</ele><time>2026-04-27T11:18:12.68Z</time></trkpt><trkpt lat="39.0430283" lon="16.2447583"><ele>907.0</ele><time>2026-04-27T11:18:13.675Z</time></trkpt><trkpt lat="39.042915" lon="16.2449"><ele>907.0</ele><time>2026-04-27T11:18:14.716Z</time></trkpt><trkpt lat="39.0428067" lon="16.2450483"><ele>907.75</ele><time>2026-04-27T11:18:15.673Z</time></trkpt><trkpt lat="39.04272" lon="16.2451717"><ele>908.5</ele><time>2026-04-27T11:18:16.678Z</time></trkpt><trkpt lat="39.042635" lon="16.2452833"><ele>909.25</ele><time>2026-04-27T11:18:17.679Z</time></trkpt><trkpt lat="39.0425567" lon="16.2453983"><ele>910.0</ele><time>2026-04-27T11:18:18.676Z</time></trkpt><trkpt lat="39.0424767" lon="16.2455217"><ele>910.75</ele><time>2026-04-27T11:18:19.669Z</time></trkpt><trkpt lat="39.04239" lon="16.245635"><ele>911.5</ele><time>2026-04-27T11:18:20.718Z</time></trkpt><trkpt lat="39.0422883" lon="16.24574"><ele>912.25</ele><time>2026-04-27T11:18:21.674Z</time></trkpt><trkpt lat="39.04218" lon="16.2458383"><ele>913.0</ele><time>2026-04-27T11:18:22.68Z</time></trkpt><trkpt lat="39.0420767" lon="16.24593"><ele>913.0</ele><time>2026-04-27T11:18:23.673Z</time></trkpt><trkpt lat="39.0419667" lon="16.246025"><ele>913.0</ele><time>2026-04-27T11:18:24.679Z</time></trkpt><trkpt lat="39.04186" lon="16.2460967"><ele>913.0</ele><time>2026-04-27T11:18:25.673Z</time></trkpt><trkpt lat="39.04174" lon="16.2461583"><ele>913.0</ele><time>2026-04-27T11:18:26.713Z</time></trkpt><trkpt lat="39.0416233" lon="16.24622"><ele>914.0</ele><time>2026-04-27T11:18:27.672Z</time></trkpt><trkpt lat="39.0415183" lon="16.2462967"><ele>915.0</ele><time>2026-04-27T11:18:28.676Z</time></trkpt><trkpt lat="39.0414217" lon="16.2463883"><ele>916.0</ele><time>2026-04-27T11:18:29.679Z</time></trkpt><trkpt lat="39.0413267" lon="16.246495"><ele>917.0</ele><time>2026-04-27T11:18:30.678Z</time></trkpt><trkpt lat="39.04123" lon="16.2465983"><ele>917.0</ele><time>2026-04-27T11:18:31.68Z</time></trkpt><trkpt lat="39.0411367" lon="16.246695"><ele>917.0</ele><time>2026-04-27T11:18:32.73Z</time></trkpt><trkpt lat="39.0410317" lon="16.24679"><ele>917.0</ele><time>2026-04-27T11:18:33.678Z</time></trkpt><trkpt lat="39.04092" lon="16.2468783"><ele>917.0</ele><time>2026-04-27T11:18:34.675Z</time></trkpt><trkpt lat="39.04081" lon="16.24695"><ele>919.0</ele><time>2026-04-27T11:18:35.674Z</time></trkpt><trkpt lat="39.0406967" lon="16.2470217"><ele>921.0</ele><time>2026-04-27T11:18:36.679Z</time></trkpt><trkpt lat="39.04059" lon="16.2470733"><ele>923.0</ele><time>2026-04-27T11:18:37.674Z</time></trkpt><trkpt lat="39.0404867" lon="16.2471333"><ele>925.0</ele><time>2026-04-27T11:18:38.717Z</time></trkpt><trkpt lat="39.040385" lon="16.247195"><ele>925.0</ele><time>2026-04-27T11:18:39.67Z</time></trkpt><trkpt lat="39.0402917" lon="16.2472617"><ele>925.0</ele><time>2026-04-27T11:18:40.668Z</time></trkpt><trkpt lat="39.0401967" lon="16.2473483"><ele>925.0</ele><time>2026-04-27T11:18:41.671Z</time></trkpt><trkpt lat="39.0401183" lon="16.2474533"><ele>925.0</ele><time>2026-04-27T11:18:42.677Z</time></trkpt><trkpt lat="39.0400467" lon="16.2475533"><ele>925.0</ele><time>2026-04-27T11:18:43.67Z</time></trkpt><trkpt lat="39.0399667" lon="16.2476467"><ele>920.75</ele><time>2026-04-27T11:18:44.72Z</time></trkpt><trkpt lat="39.03987" lon="16.2477533"><ele>916.5</ele><time>2026-04-27T11:18:45.671Z</time></trkpt><trkpt lat="39.03977" lon="16.2478683"><ele>912.25</ele><time>2026-04-27T11:18:46.679Z</time></trkpt><trkpt lat="39.0397" lon="16.2479783"><ele>908.0</ele><time>2026-04-27T11:18:47.678Z</time></trkpt><trkpt lat="39.03961" lon="16.2481233"><ele>907.4</ele><time>2026-04-27T11:18:48.668Z</time></trkpt><trkpt lat="39.03955" lon="16.24826"><ele>906.8</ele><time>2026-04-27T11:18:49.669Z</time></trkpt><trkpt lat="39.0395" lon="16.2484017"><ele>906.2</ele><time>2026-04-27T11:18:50.712Z</time></trkpt><trkpt lat="39.0394583" lon="16.248525"><ele>905.6</ele><time>2026-04-27T11:18:51.674Z</time></trkpt><trkpt lat="39.0394133" lon="16.24863"><ele>905.0</ele><time>2026-04-27T11:18:52.675Z</time></trkpt><trkpt lat="39.0393567" lon="16.2487333"><ele>905.0</ele><time>2026-04-27T11:18:53.672Z</time></trkpt><trkpt lat="39.0392717" lon="16.2488333"><ele>905.0</ele><time>2026-04-27T11:18:54.665Z</time></trkpt><trkpt lat="39.0391717" lon="16.2489433"><ele>905.0</ele><time>2026-04-27T11:18:55.682Z</time></trkpt><trkpt lat="39.0390733" lon="16.2490533"><ele>905.0</ele><time>2026-04-27T11:18:56.744Z</time></trkpt><trkpt lat="39.0389567" lon="16.2491683"><ele>900.25</ele><time>2026-04-27T11:18:57.668Z</time></trkpt><trkpt lat="39.038845" lon="16.2492817"><ele>895.5</ele><time>2026-04-27T11:18:58.678Z</time></trkpt><trkpt lat="39.0387183" lon="16.2493917"><ele>890.75</ele><time>2026-04-27T11:18:59.674Z</time></trkpt><trkpt lat="39.0386" lon="16.2495033"><ele>886.0</ele><time>2026-04-27T11:19:00.678Z</time></trkpt><trkpt lat="39.03849" lon="16.249615"><ele>886.0</ele><time>2026-04-27T11:19:01.674Z</time></trkpt><trkpt lat="39.038395" lon="16.2497133"><ele>885.9999999999999</ele><time>2026-04-27T11:19:02.731Z</time></trkpt><trkpt lat="39.0383167" lon="16.2497983"><ele>885.9999999999999</ele><time>2026-04-27T11:19:03.671Z</time></trkpt><trkpt lat="39.038225" lon="16.2498867"><ele>886.0</ele><time>2026-04-27T11:19:04.675Z</time></trkpt><trkpt lat="39.0381667" lon="16.2499283"><ele>886.0</ele><time>2026-04-27T11:19:05.669Z</time></trkpt><trkpt lat="39.0381033" lon="16.249955"><ele>887.75</ele><time>2026-04-27T11:19:06.676Z</time></trkpt><trkpt lat="39.0380217" lon="16.24998"><ele>889.5</ele><time>2026-04-27T11:19:07.675Z</time></trkpt><trkpt lat="39.03791" lon="16.2500133"><ele>891.25</ele><time>2026-04-27T11:19:08.72Z</time></trkpt><trkpt lat="39.0377833" lon="16.2500583"><ele>893.0</ele><time>2026-04-27T11:19:09.667Z</time></trkpt><trkpt lat="39.0376433" lon="16.2501183"><ele>893.0</ele><time>2026-04-27T11:19:10.675Z</time></trkpt><trkpt lat="39.0375" lon="16.2501967"><ele>893.0</ele><time>2026-04-27T11:19:11.667Z</time></trkpt><trkpt lat="39.0373667" lon="16.2502783"><ele>893.0</ele><time>2026-04-27T11:19:12.668Z</time></trkpt><trkpt lat="39.037245" lon="16.2503717"><ele>893.0</ele><time>2026-04-27T11:19:13.674Z</time></trkpt><trkpt lat="39.037125" lon="16.250475"><ele>894.0</ele><time>2026-04-27T11:19:14.716Z</time></trkpt><trkpt lat="39.037005" lon="16.2505833"><ele>895.0</ele><time>2026-04-27T11:19:15.673Z</time></trkpt><trkpt lat="39.03688" lon="16.2506867"><ele>896.0</ele><time>2026-04-27T11:19:16.676Z</time></trkpt><trkpt lat="39.0367483" lon="16.2507883"><ele>897.0</ele><time>2026-04-27T11:19:17.678Z</time></trkpt><trkpt lat="39.0366117" lon="16.2509033"><ele>897.3333333333333</ele><time>2026-04-27T11:19:18.679Z</time></trkpt><trkpt lat="39.03647" lon="16.2510417"><ele>897.6666666666666</ele><time>2026-04-27T11:19:19.673Z</time></trkpt><trkpt lat="39.0363233" lon="16.2511933"><ele>898.0</ele><time>2026-04-27T11:19:20.711Z</time></trkpt><trkpt lat="39.0361683" lon="16.2513867"><ele>899.5</ele><time>2026-04-27T11:19:21.669Z</time></trkpt><trkpt lat="39.0360033" lon="16.2516217"><ele>901.0</ele><time>2026-04-27T11:19:22.677Z</time></trkpt><trkpt lat="39.0358417" lon="16.2518533"><ele>901.5</ele><time>2026-04-27T11:19:23.668Z</time></trkpt><trkpt lat="39.03569" lon="16.2520783"><ele>902.0</ele><time>2026-04-27T11:19:24.678Z</time></trkpt><trkpt lat="39.035545" lon="16.25229"><ele>902.0</ele><time>2026-04-27T11:19:25.67Z</time></trkpt><trkpt lat="39.035415" lon="16.2524867"><ele>902.0</ele><time>2026-04-27T11:19:26.737Z</time></trkpt><trkpt lat="39.0352883" lon="16.252675"><ele>902.0</ele><time>2026-04-27T11:19:27.674Z</time></trkpt><trkpt lat="39.0351617" lon="16.2528633"><ele>902.0</ele><time>2026-04-27T11:19:28.671Z</time></trkpt><trkpt lat="39.0350267" lon="16.2530533"><ele>902.0</ele><time>2026-04-27T11:19:29.673Z</time></trkpt><trkpt lat="39.034885" lon="16.2532467"><ele>902.0</ele><time>2026-04-27T11:19:30.673Z</time></trkpt><trkpt lat="39.0347383" lon="16.2534533"><ele>900.5</ele><time>2026-04-27T11:19:31.671Z</time></trkpt><trkpt lat="39.034595" lon="16.253675"><ele>899.0</ele><time>2026-04-27T11:19:32.722Z</time></trkpt><trkpt lat="39.0344517" lon="16.2539167"><ele>899.5</ele><time>2026-04-27T11:19:33.67Z</time></trkpt><trkpt lat="39.0343267" lon="16.2541633"><ele>900.0</ele><time>2026-04-27T11:19:34.67Z</time></trkpt><trkpt lat="39.0342083" lon="16.25442"><ele>900.0</ele><time>2026-04-27T11:19:35.676Z</time></trkpt><trkpt lat="39.0340933" lon="16.2546783"><ele>900.0</ele><time>2026-04-27T11:19:36.676Z</time></trkpt><trkpt lat="39.0339867" lon="16.2549267"><ele>900.0</ele><time>2026-04-27T11:19:37.678Z</time></trkpt><trkpt lat="39.03388" lon="16.2551733"><ele>900.0</ele><time>2026-04-27T11:19:38.716Z</time></trkpt><trkpt lat="39.0337767" lon="16.2554183"><ele>900.0</ele><time>2026-04-27T11:19:39.67Z</time></trkpt><trkpt lat="39.0336717" lon="16.25566"><ele>900.3333333333333</ele><time>2026-04-27T11:19:40.676Z</time></trkpt><trkpt lat="39.03356" lon="16.25589"><ele>900.6666666666666</ele><time>2026-04-27T11:19:41.682Z</time></trkpt><trkpt lat="39.0334433" lon="16.2561133"><ele>901.0</ele><time>2026-04-27T11:19:42.679Z</time></trkpt><trkpt lat="39.03332" lon="16.2563233"><ele>900.6666666666666</ele><time>2026-04-27T11:19:43.677Z</time></trkpt><trkpt lat="39.03319" lon="16.256525"><ele>900.3333333333333</ele><time>2026-04-27T11:19:44.718Z</time></trkpt><trkpt lat="39.03305" lon="16.2567167"><ele>900.0</ele><time>2026-04-27T11:19:45.673Z</time></trkpt><trkpt lat="39.0329017" lon="16.2569017"><ele>900.0</ele><time>2026-04-27T11:19:46.675Z</time></trkpt><trkpt lat="39.032745" lon="16.257085"><ele>900.0</ele><time>2026-04-27T11:19:47.674Z</time></trkpt><trkpt lat="39.0325933" lon="16.2572717"><ele>900.0</ele><time>2026-04-27T11:19:48.678Z</time></trkpt><trkpt lat="39.0324417" lon="16.2574583"><ele>901.3333333333333</ele><time>2026-04-27T11:19:49.674Z</time></trkpt><trkpt lat="39.032285" lon="16.257645"><ele>902.6666666666666</ele><time>2026-04-27T11:19:50.719Z</time></trkpt><trkpt lat="39.0321283" lon="16.2578267"><ele>904.0</ele><time>2026-04-27T11:19:51.673Z</time></trkpt><trkpt lat="39.0319767" lon="16.2580067"><ele>904.3333333333333</ele><time>2026-04-27T11:19:52.679Z</time></trkpt><trkpt lat="39.0318117" lon="16.2581983"><ele>904.6666666666667</ele><time>2026-04-27T11:19:53.666Z</time></trkpt><trkpt lat="39.0316433" lon="16.25837"><ele>905.0</ele><time>2026-04-27T11:19:54.68Z</time></trkpt><trkpt lat="39.0314717" lon="16.2585333"><ele>905.0</ele><time>2026-04-27T11:19:55.68Z</time></trkpt><trkpt lat="39.031295" lon="16.2586867"><ele>905.0</ele><time>2026-04-27T11:19:56.737Z</time></trkpt><trkpt lat="39.0311167" lon="16.258845"><ele>905.0</ele><time>2026-04-27T11:19:57.67Z</time></trkpt><trkpt lat="39.0309317" lon="16.2590117"><ele>905.3333333333334</ele><time>2026-04-27T11:19:58.674Z</time></trkpt><trkpt lat="39.0307467" lon="16.2591783"><ele>905.6666666666667</ele><time>2026-04-27T11:19:59.674Z</time></trkpt><trkpt lat="39.03057" lon="16.25934"><ele>906.0</ele><time>2026-04-27T11:20:00.674Z</time></trkpt><trkpt lat="39.03039" lon="16.2595017"><ele>906.0</ele><time>2026-04-27T11:20:01.671Z</time></trkpt><trkpt lat="39.03022" lon="16.259645"><ele>906.0</ele><time>2026-04-27T11:20:02.727Z</time></trkpt><trkpt lat="39.0300433" lon="16.2597867"><ele>906.0</ele><time>2026-04-27T11:20:03.675Z</time></trkpt><trkpt lat="39.0298683" lon="16.2599117"><ele>907.3333333333333</ele><time>2026-04-27T11:20:04.679Z</time></trkpt><trkpt lat="39.029705" lon="16.2599983"><ele>908.6666666666666</ele><time>2026-04-27T11:20:05.67Z</time></trkpt><trkpt lat="39.0295183" lon="16.2601017"><ele>910.0</ele><time>2026-04-27T11:20:06.674Z</time></trkpt><trkpt lat="39.029325" lon="16.260195"><ele>911.0</ele><time>2026-04-27T11:20:07.675Z</time></trkpt><trkpt lat="39.0291283" lon="16.2602817"><ele>912.0</ele><time>2026-04-27T11:20:08.719Z</time></trkpt><trkpt lat="39.0289233" lon="16.2603683"><ele>913.0</ele><time>2026-04-27T11:20:09.668Z</time></trkpt><trkpt lat="39.0287167" lon="16.260455"><ele>913.0</ele><time>2026-04-27T11:20:10.671Z</time></trkpt><trkpt lat="39.0285083" lon="16.260545"><ele>913.0</ele><time>2026-04-27T11:20:11.676Z</time></trkpt><trkpt lat="39.0282967" lon="16.2606383"><ele>913.0</ele><time>2026-04-27T11:20:12.679Z</time></trkpt><trkpt lat="39.0280833" lon="16.2607333"><ele>914.6666666666666</ele><time>2026-04-27T11:20:13.672Z</time></trkpt><trkpt lat="39.0278717" lon="16.2608283"><ele>916.3333333333333</ele><time>2026-04-27T11:20:14.715Z</time></trkpt><trkpt lat="39.0276617" lon="16.2609267"><ele>918.0</ele><time>2026-04-27T11:20:15.669Z</time></trkpt><trkpt lat="39.02746" lon="16.2610417"><ele>918.3333333333333</ele><time>2026-04-27T11:20:16.68Z</time></trkpt><trkpt lat="39.0272667" lon="16.26118"><ele>918.6666666666666</ele><time>2026-04-27T11:20:17.677Z</time></trkpt><trkpt lat="39.0270883" lon="16.2613383"><ele>919.0</ele><time>2026-04-27T11:20:18.671Z</time></trkpt><trkpt lat="39.026915" lon="16.261505"><ele>919.0</ele><time>2026-04-27T11:20:19.667Z</time></trkpt><trkpt lat="39.0267417" lon="16.2616733"><ele>919.0</ele><time>2026-04-27T11:20:20.708Z</time></trkpt><trkpt lat="39.026565" lon="16.261845"><ele>919.0</ele><time>2026-04-27T11:20:21.673Z</time></trkpt><trkpt lat="39.026385" lon="16.2620217"><ele>921.5</ele><time>2026-04-27T11:20:22.668Z</time></trkpt><trkpt lat="39.026205" lon="16.2622"><ele>924.0</ele><time>2026-04-27T11:20:23.665Z</time></trkpt><trkpt lat="39.0260283" lon="16.262375"><ele>924.0</ele><time>2026-04-27T11:20:24.674Z</time></trkpt><trkpt lat="39.02585" lon="16.2625533"><ele>924.0</ele><time>2026-04-27T11:20:25.671Z</time></trkpt><trkpt lat="39.0256717" lon="16.2627283"><ele>927.0</ele><time>2026-04-27T11:20:26.735Z</time></trkpt><trkpt lat="39.0254917" lon="16.262905"><ele>930.0</ele><time>2026-04-27T11:20:27.673Z</time></trkpt><trkpt lat="39.0253117" lon="16.2630833"><ele>930.5</ele><time>2026-04-27T11:20:28.677Z</time></trkpt><trkpt lat="39.0251283" lon="16.2632617"><ele>931.0</ele><time>2026-04-27T11:20:29.675Z</time></trkpt><trkpt lat="39.0249433" lon="16.2634417"><ele>934.0</ele><time>2026-04-27T11:20:30.674Z</time></trkpt><trkpt lat="39.0247583" lon="16.263625"><ele>937.0</ele><time>2026-04-27T11:20:31.673Z</time></trkpt><trkpt lat="39.0245733" lon="16.2638083"><ele>934.5</ele><time>2026-04-27T11:20:32.732Z</time></trkpt><trkpt lat="39.02439" lon="16.2639917"><ele>932.0</ele><time>2026-04-27T11:20:33.666Z</time></trkpt><trkpt lat="39.0242033" lon="16.264175"><ele>933.0</ele><time>2026-04-27T11:20:34.668Z</time></trkpt><trkpt lat="39.0240167" lon="16.2643583"><ele>934.0</ele><time>2026-04-27T11:20:35.673Z</time></trkpt><trkpt lat="39.023835" lon="16.26453"><ele>934.0</ele><time>2026-04-27T11:20:36.671Z</time></trkpt><trkpt lat="39.0236617" lon="16.2646933"><ele>934.0</ele><time>2026-04-27T11:20:37.671Z</time></trkpt><trkpt lat="39.0235033" lon="16.264855"><ele>934.0</ele><time>2026-04-27T11:20:38.715Z</time></trkpt><trkpt lat="39.0233533" lon="16.2650267"><ele>936.6666666666666</ele><time>2026-04-27T11:20:39.669Z</time></trkpt><trkpt lat="39.0232083" lon="16.2652117"><ele>939.3333333333333</ele><time>2026-04-27T11:20:40.678Z</time></trkpt><trkpt lat="39.0230833" lon="16.26541"><ele>942.0</ele><time>2026-04-27T11:20:41.668Z</time></trkpt><trkpt lat="39.0229783" lon="16.2656483"><ele>943.3333333333333</ele><time>2026-04-27T11:20:42.673Z</time></trkpt><trkpt lat="39.0228883" lon="16.2659017"><ele>944.6666666666666</ele><time>2026-04-27T11:20:43.676Z</time></trkpt><trkpt lat="39.0227983" lon="16.2661467"><ele>946.0</ele><time>2026-04-27T11:20:44.716Z</time></trkpt><trkpt lat="39.02272" lon="16.2663683"><ele>946.25</ele><time>2026-04-27T11:20:45.672Z</time></trkpt><trkpt lat="39.0226517" lon="16.26656"><ele>946.5</ele><time>2026-04-27T11:20:46.674Z</time></trkpt><trkpt lat="39.0225933" lon="16.26672"><ele>946.75</ele><time>2026-04-27T11:20:47.674Z</time></trkpt><trkpt lat="39.022545" lon="16.2668417"><ele>947.0</ele><time>2026-04-27T11:20:48.676Z</time></trkpt><trkpt lat="39.0225" lon="16.2669317"><ele>945.8</ele><time>2026-04-27T11:20:49.671Z</time></trkpt><trkpt lat="39.0224583" lon="16.2670033"><ele>944.6</ele><time>2026-04-27T11:20:50.727Z</time></trkpt><trkpt lat="39.022415" lon="16.267065"><ele>943.3999999999999</ele><time>2026-04-27T11:20:51.668Z</time></trkpt><trkpt lat="39.0223117" lon="16.26717"><ele>942.1999999999999</ele><time>2026-04-27T11:20:53.677Z</time></trkpt><trkpt lat="39.02224" lon="16.267215"><ele>941.0</ele><time>2026-04-27T11:20:54.675Z</time></trkpt><trkpt lat="39.0221383" lon="16.2672567"><ele>940.5</ele><time>2026-04-27T11:20:55.67Z</time></trkpt><trkpt lat="39.0220217" lon="16.2672867"><ele>940.0</ele><time>2026-04-27T11:20:56.704Z</time></trkpt><trkpt lat="39.0218817" lon="16.267305"><ele>939.5</ele><time>2026-04-27T11:20:57.672Z</time></trkpt><trkpt lat="39.0217417" lon="16.2673317"><ele>939.0</ele><time>2026-04-27T11:20:58.679Z</time></trkpt><trkpt lat="39.021605" lon="16.267365"><ele>933.4000000000001</ele><time>2026-04-27T11:20:59.678Z</time></trkpt><trkpt lat="39.0214783" lon="16.2674067"><ele>927.8000000000001</ele><time>2026-04-27T11:21:00.673Z</time></trkpt><trkpt lat="39.0213983" lon="16.26747"><ele>922.1999999999999</ele><time>2026-04-27T11:21:01.668Z</time></trkpt><trkpt lat="39.0213417" lon="16.2675633"><ele>916.5999999999999</ele><time>2026-04-27T11:21:02.723Z</time></trkpt><trkpt lat="39.0213283" lon="16.2676983"><ele>911.0</ele><time>2026-04-27T11:21:03.67Z</time></trkpt><trkpt lat="39.0213533" lon="16.2678567"><ele>911.0</ele><time>2026-04-27T11:21:04.672Z</time></trkpt><trkpt lat="39.02143" lon="16.2680583"><ele>911.0</ele><time>2026-04-27T11:21:05.672Z</time></trkpt><trkpt lat="39.0215217" lon="16.2682783"><ele>911.0</ele><time>2026-04-27T11:21:06.679Z</time></trkpt><trkpt lat="39.0216333" lon="16.2685167"><ele>917.0</ele><time>2026-04-27T11:21:07.674Z</time></trkpt><trkpt lat="39.021715" lon="16.2687133"><ele>923.0</ele><time>2026-04-27T11:21:08.717Z</time></trkpt><trkpt lat="39.02181" lon="16.2689083"><ele>929.0</ele><time>2026-04-27T11:21:09.669Z</time></trkpt><trkpt lat="39.0219183" lon="16.2690967"><ele>929.0</ele><time>2026-04-27T11:21:10.677Z</time></trkpt><trkpt lat="39.0220383" lon="16.2692717"><ele>929.0</ele><time>2026-04-27T11:21:11.673Z</time></trkpt><trkpt lat="39.02217" lon="16.2694367"><ele>929.0</ele><time>2026-04-27T11:21:12.677Z</time></trkpt><trkpt lat="39.0223133" lon="16.269595"><ele>929.0</ele><time>2026-04-27T11:21:13.677Z</time></trkpt><trkpt lat="39.0224533" lon="16.26975"><ele>929.0</ele><time>2026-04-27T11:21:14.717Z</time></trkpt><trkpt lat="39.0225833" lon="16.269905"><ele>929.0</ele><time>2026-04-27T11:21:15.674Z</time></trkpt><trkpt lat="39.0227017" lon="16.2700383"><ele>929.8000000000001</ele><time>2026-04-27T11:21:16.673Z</time></trkpt><trkpt lat="39.0228067" lon="16.2701583"><ele>930.6000000000001</ele><time>2026-04-27T11:21:17.675Z</time></trkpt><trkpt lat="39.0228667" lon="16.27029"><ele>931.4</ele><time>2026-04-27T11:21:18.676Z</time></trkpt><trkpt lat="39.0229083" lon="16.2704067"><ele>932.2</ele><time>2026-04-27T11:21:19.671Z</time></trkpt><trkpt lat="39.0228933" lon="16.270515"><ele>933.0</ele><time>2026-04-27T11:21:20.707Z</time></trkpt><trkpt lat="39.0228267" lon="16.27062"><ele>934.25</ele><time>2026-04-27T11:21:21.67Z</time></trkpt><trkpt lat="39.0227333" lon="16.2706917"><ele>935.5</ele><time>2026-04-27T11:21:22.676Z</time></trkpt><trkpt lat="39.0226317" lon="16.2707317"><ele>936.75</ele><time>2026-04-27T11:21:23.669Z</time></trkpt><trkpt lat="39.02253" lon="16.2707317"><ele>938.0</ele><time>2026-04-27T11:21:24.678Z</time></trkpt><trkpt lat="39.0224" lon="16.2706333"><ele>935.5999999999999</ele><time>2026-04-27T11:21:25.673Z</time></trkpt><trkpt lat="39.0223033" lon="16.2705133"><ele>933.1999999999999</ele><time>2026-04-27T11:21:26.749Z</time></trkpt><trkpt lat="39.0222167" lon="16.2704083"><ele>930.8</ele><time>2026-04-27T11:21:27.671Z</time></trkpt><trkpt lat="39.0221383" lon="16.2703183"><ele>928.4</ele><time>2026-04-27T11:21:28.675Z</time></trkpt><trkpt lat="39.0220867" lon="16.27026"><ele>926.0</ele><time>2026-04-27T11:21:29.675Z</time></trkpt><trkpt lat="39.0220167" lon="16.2702"><ele>926.0</ele><time>2026-04-27T11:21:31.675Z</time></trkpt><trkpt lat="39.021965" lon="16.2701533"><ele>925.9999999999999</ele><time>2026-04-27T11:21:33.675Z</time></trkpt><trkpt lat="39.0219917" lon="16.2702533"><ele>925.9999999999999</ele><time>2026-04-27T11:21:39.675Z</time></trkpt><trkpt lat="39.0220633" lon="16.2703067"><ele>926.0</ele><time>2026-04-27T11:21:40.673Z</time></trkpt><trkpt lat="39.0221583" lon="16.27038"><ele>926.0</ele><time>2026-04-27T11:21:41.665Z</time></trkpt><trkpt lat="39.0222617" lon="16.270475"><ele>926.0</ele><time>2026-04-27T11:21:42.68Z</time></trkpt><trkpt lat="39.0223617" lon="16.2705733"><ele>925.9999999999999</ele><time>2026-04-27T11:21:43.675Z</time></trkpt><trkpt lat="39.0224667" lon="16.27064"><ele>925.9999999999999</ele><time>2026-04-27T11:21:44.717Z</time></trkpt><trkpt lat="39.0225567" lon="16.2706867"><ele>926.0</ele><time>2026-04-27T11:21:45.68Z</time></trkpt><trkpt lat="39.0226317" lon="16.2707383"><ele>926.0</ele><time>2026-04-27T11:21:46.678Z</time></trkpt><trkpt lat="39.0226867" lon="16.2707933"><ele>928.4</ele><time>2026-04-27T11:21:47.676Z</time></trkpt><trkpt lat="39.0227433" lon="16.2708967"><ele>930.8</ele><time>2026-04-27T11:21:49.674Z</time></trkpt><trkpt lat="39.0227533" lon="16.27099"><ele>933.1999999999999</ele><time>2026-04-27T11:21:51.678Z</time></trkpt><trkpt lat="39.022655" lon="16.271025"><ele>935.5999999999999</ele><time>2026-04-27T11:21:54.676Z</time></trkpt><trkpt lat="39.022555" lon="16.2710117"><ele>938.0</ele><time>2026-04-27T11:21:55.672Z</time></trkpt><trkpt lat="39.0224617" lon="16.2709983"><ele>939.0</ele><time>2026-04-27T11:21:56.732Z</time></trkpt><trkpt lat="39.02236" lon="16.2709867"><ele>940.0</ele><time>2026-04-27T11:21:57.672Z</time></trkpt><trkpt lat="39.0222517" lon="16.2709717"><ele>941.0</ele><time>2026-04-27T11:21:58.675Z</time></trkpt><trkpt lat="39.0221467" lon="16.2709533"><ele>942.0</ele><time>2026-04-27T11:21:59.675Z</time></trkpt><trkpt lat="39.0220567" lon="16.27093"><ele>943.0</ele><time>2026-04-27T11:22:00.677Z</time></trkpt><trkpt lat="39.021965" lon="16.2709"><ele>942.9999999999999</ele><time>2026-04-27T11:22:01.669Z</time></trkpt><trkpt lat="39.02188" lon="16.2708633"><ele>943.0</ele><time>2026-04-27T11:22:02.726Z</time></trkpt><trkpt lat="39.0218033" lon="16.2708333"><ele>943.0</ele><time>2026-04-27T11:22:03.673Z</time></trkpt><trkpt lat="39.0217333" lon="16.2708167"><ele>943.0</ele><time>2026-04-27T11:22:04.677Z</time></trkpt><trkpt lat="39.0217467" lon="16.2709433"><ele>942.9999999999999</ele><time>2026-04-27T11:22:07.671Z</time></trkpt><trkpt lat="39.0218033" lon="16.2710183"><ele>943.0</ele><time>2026-04-27T11:22:08.715Z</time></trkpt><trkpt lat="39.0218633" lon="16.271105"><ele>942.9999999999999</ele><time>2026-04-27T11:22:09.667Z</time></trkpt><trkpt lat="39.0219133" lon="16.2712033"><ele>943.0</ele><time>2026-04-27T11:22:10.672Z</time></trkpt><trkpt lat="39.0219617" lon="16.2713017"><ele>943.0</ele><time>2026-04-27T11:22:11.672Z</time></trkpt><trkpt lat="39.0220017" lon="16.2713783"><ele>943.0</ele><time>2026-04-27T11:22:12.674Z</time></trkpt><trkpt lat="39.02205" lon="16.2714517"><ele>942.9999999999999</ele><time>2026-04-27T11:22:13.67Z</time></trkpt><trkpt lat="39.0221167" lon="16.27151"><ele>943.0</ele><time>2026-04-27T11:22:14.713Z</time></trkpt><trkpt lat="39.0221933" lon="16.2715917"><ele>946.0</ele><time>2026-04-27T11:22:15.675Z</time></trkpt><trkpt lat="39.0222683" lon="16.27167"><ele>949.0</ele><time>2026-04-27T11:22:16.676Z</time></trkpt><trkpt lat="39.0223483" lon="16.2717533"><ele>952.0</ele><time>2026-04-27T11:22:17.675Z</time></trkpt><trkpt lat="39.0224333" lon="16.2718333"><ele>955.0</ele><time>2026-04-27T11:22:18.684Z</time></trkpt><trkpt lat="39.0225117" lon="16.2719233"><ele>958.0</ele><time>2026-04-27T11:22:19.669Z</time></trkpt><trkpt lat="39.022585" lon="16.27201"><ele>958.1666666666666</ele><time>2026-04-27T11:22:20.713Z</time></trkpt><trkpt lat="39.022655" lon="16.2721"><ele>958.3333333333333</ele><time>2026-04-27T11:22:21.672Z</time></trkpt><trkpt lat="39.0227183" lon="16.2721917"><ele>958.5</ele><time>2026-04-27T11:22:22.672Z</time></trkpt><trkpt lat="39.0227717" lon="16.2722667"><ele>958.6666666666667</ele><time>2026-04-27T11:22:23.672Z</time></trkpt><trkpt lat="39.0226983" lon="16.2723233"><ele>958.8333333333334</ele><time>2026-04-27T11:22:34.675Z</time></trkpt><trkpt lat="39.0226133" lon="16.2723633"><ele>959.0</ele><time>2026-04-27T11:22:36.681Z</time></trkpt><trkpt lat="39.022515" lon="16.2723533"><ele>962.3333333333334</ele><time>2026-04-27T11:22:38.718Z</time></trkpt><trkpt lat="39.0224017" lon="16.2722967"><ele>965.6666666666667</ele><time>2026-04-27T11:22:40.679Z</time></trkpt><trkpt lat="39.022335" lon="16.2722817"><ele>969.0</ele><time>2026-04-27T11:22:41.681Z</time></trkpt><trkpt lat="39.02226" lon="16.2722817"><ele>972.3333333333333</ele><time>2026-04-27T11:22:42.671Z</time></trkpt><trkpt lat="39.022175" lon="16.2722783"><ele>975.6666666666666</ele><time>2026-04-27T11:22:43.674Z</time></trkpt><trkpt lat="39.0220783" lon="16.27228"><ele>979.0</ele><time>2026-04-27T11:22:44.725Z</time></trkpt><trkpt lat="39.0219767" lon="16.2722817"><ele>974.8000000000001</ele><time>2026-04-27T11:22:45.673Z</time></trkpt><trkpt lat="39.0218783" lon="16.2722667"><ele>970.6000000000001</ele><time>2026-04-27T11:22:46.681Z</time></trkpt><trkpt lat="39.0217867" lon="16.27225"><ele>966.4</ele><time>2026-04-27T11:22:47.67Z</time></trkpt><trkpt lat="39.0216933" lon="16.2722417"><ele>962.2</ele><time>2026-04-27T11:22:48.672Z</time></trkpt><trkpt lat="39.0215883" lon="16.27224"><ele>958.0</ele><time>2026-04-27T11:22:49.673Z</time></trkpt><trkpt lat="39.0214817" lon="16.2722417"><ele>956.8333333333333</ele><time>2026-04-27T11:22:50.713Z</time></trkpt><trkpt lat="39.0213883" lon="16.2722433"><ele>955.6666666666666</ele><time>2026-04-27T11:22:51.673Z</time></trkpt><trkpt lat="39.021305" lon="16.27225"><ele>954.5</ele><time>2026-04-27T11:22:52.669Z</time></trkpt><trkpt lat="39.0212217" lon="16.2722967"><ele>953.3333333333333</ele><time>2026-04-27T11:22:54.675Z</time></trkpt><trkpt lat="39.0212533" lon="16.27237"><ele>952.1666666666666</ele><time>2026-04-27T11:22:56.735Z</time></trkpt><trkpt lat="39.0213217" lon="16.2724467"><ele>951.0</ele><time>2026-04-27T11:22:58.682Z</time></trkpt><trkpt lat="39.0213867" lon="16.2725517"><ele>953.8</ele><time>2026-04-27T11:23:00.67Z</time></trkpt><trkpt lat="39.02146" lon="16.2726733"><ele>956.5999999999999</ele><time>2026-04-27T11:23:02.732Z</time></trkpt><trkpt lat="39.021505" lon="16.2727333"><ele>959.4</ele><time>2026-04-27T11:23:03.671Z</time></trkpt><trkpt lat="39.021555" lon="16.2728083"><ele>962.2</ele><time>2026-04-27T11:23:04.674Z</time></trkpt><trkpt lat="39.02162" lon="16.272895"><ele>965.0</ele><time>2026-04-27T11:23:05.671Z</time></trkpt><trkpt lat="39.0216917" lon="16.2729967"><ele>967.3333333333334</ele><time>2026-04-27T11:23:06.678Z</time></trkpt><trkpt lat="39.0217633" lon="16.2730983"><ele>969.6666666666667</ele><time>2026-04-27T11:23:07.674Z</time></trkpt><trkpt lat="39.02183" lon="16.2731967"><ele>972.0</ele><time>2026-04-27T11:23:08.713Z</time></trkpt><trkpt lat="39.0218833" lon="16.273285"><ele>974.3333333333333</ele><time>2026-04-27T11:23:09.672Z</time></trkpt><trkpt lat="39.0219383" lon="16.2733633"><ele>976.6666666666666</ele><time>2026-04-27T11:23:10.672Z</time></trkpt><trkpt lat="39.021985" lon="16.2734267"><ele>979.0</ele><time>2026-04-27T11:23:11.674Z</time></trkpt><trkpt lat="39.02208" lon="16.2735233"><ele>981.4000000000001</ele><time>2026-04-27T11:23:13.676Z</time></trkpt><trkpt lat="39.022165" lon="16.2736417"><ele>983.8000000000001</ele><time>2026-04-27T11:23:15.674Z</time></trkpt><trkpt lat="39.0222433" lon="16.27375"><ele>986.1999999999999</ele><time>2026-04-27T11:23:17.671Z</time></trkpt><trkpt lat="39.0222933" lon="16.27381"><ele>988.5999999999999</ele><time>2026-04-27T11:23:18.668Z</time></trkpt><trkpt lat="39.0223417" lon="16.2738867"><ele>991.0</ele><time>2026-04-27T11:23:19.67Z</time></trkpt><trkpt lat="39.022385" lon="16.273985"><ele>992.3333333333333</ele><time>2026-04-27T11:23:20.716Z</time></trkpt><trkpt lat="39.0224133" lon="16.2740833"><ele>993.6666666666666</ele><time>2026-04-27T11:23:21.671Z</time></trkpt><trkpt lat="39.0224383" lon="16.27419"><ele>995.0</ele><time>2026-04-27T11:23:22.676Z</time></trkpt><trkpt lat="39.0224517" lon="16.274295"><ele>996.3333333333333</ele><time>2026-04-27T11:23:23.676Z</time></trkpt><trkpt lat="39.0224567" lon="16.2743917"><ele>997.6666666666666</ele><time>2026-04-27T11:23:24.676Z</time></trkpt><trkpt lat="39.0224517" lon="16.2744867"><ele>999.0</ele><time>2026-04-27T11:23:25.678Z</time></trkpt><trkpt lat="39.0224433" lon="16.274585"><ele>999.0</ele><time>2026-04-27T11:23:26.734Z</time></trkpt><trkpt lat="39.0224283" lon="16.2746917"><ele>999.0</ele><time>2026-04-27T11:23:27.67Z</time></trkpt><trkpt lat="39.0224083" lon="16.2747917"><ele>999.0</ele><time>2026-04-27T11:23:28.68Z</time></trkpt><trkpt lat="39.0223967" lon="16.2749017"><ele>999.0</ele><time>2026-04-27T11:23:29.672Z</time></trkpt><trkpt lat="39.0223883" lon="16.275015"><ele>999.0</ele><time>2026-04-27T11:23:30.67Z</time></trkpt><trkpt lat="39.02237" lon="16.27514"><ele>999.0</ele><time>2026-04-27T11:23:31.677Z</time></trkpt><trkpt lat="39.0223467" lon="16.2752617"><ele>1001.5</ele><time>2026-04-27T11:23:32.735Z</time></trkpt><trkpt lat="39.0223283" lon="16.2753833"><ele>1004.0</ele><time>2026-04-27T11:23:33.671Z</time></trkpt><trkpt lat="39.0223167" lon="16.275485"><ele>1006.5</ele><time>2026-04-27T11:23:34.677Z</time></trkpt><trkpt lat="39.0223167" lon="16.27559"><ele>1009.0</ele><time>2026-04-27T11:23:35.676Z</time></trkpt><trkpt lat="39.02233" lon="16.275695"><ele>1011.5</ele><time>2026-04-27T11:23:36.672Z</time></trkpt><trkpt lat="39.0223567" lon="16.27582"><ele>1014.0</ele><time>2026-04-27T11:23:37.679Z</time></trkpt><trkpt lat="39.0223833" lon="16.2759417"><ele>1016.1666666666666</ele><time>2026-04-27T11:23:38.716Z</time></trkpt><trkpt lat="39.022405" lon="16.2760617"><ele>1018.3333333333333</ele><time>2026-04-27T11:23:39.669Z</time></trkpt><trkpt lat="39.0224133" lon="16.2761817"><ele>1020.5</ele><time>2026-04-27T11:23:40.674Z</time></trkpt><trkpt lat="39.022415" lon="16.2762833"><ele>1022.6666666666666</ele><time>2026-04-27T11:23:41.674Z</time></trkpt><trkpt lat="39.02242" lon="16.2763683"><ele>1024.8333333333333</ele><time>2026-04-27T11:23:42.679Z</time></trkpt><trkpt lat="39.0224233" lon="16.2765117"><ele>1027.0</ele><time>2026-04-27T11:23:44.714Z</time></trkpt><trkpt lat="39.022425" lon="16.2766317"><ele>1027.6666666666665</ele><time>2026-04-27T11:23:46.677Z</time></trkpt><trkpt lat="39.0224317" lon="16.276735"><ele>1028.3333333333333</ele><time>2026-04-27T11:23:48.675Z</time></trkpt><trkpt lat="39.0224483" lon="16.2768533"><ele>1029.0</ele><time>2026-04-27T11:23:50.711Z</time></trkpt><trkpt lat="39.0224867" lon="16.2769883"><ele>1029.6666666666667</ele><time>2026-04-27T11:23:52.674Z</time></trkpt><trkpt lat="39.0225117" lon="16.2770633"><ele>1030.3333333333335</ele><time>2026-04-27T11:23:53.669Z</time></trkpt><trkpt lat="39.0225367" lon="16.2771433"><ele>1031.0</ele><time>2026-04-27T11:23:54.675Z</time></trkpt><trkpt lat="39.0225567" lon="16.2772317"><ele>1036.3999999999999</ele><time>2026-04-27T11:23:55.67Z</time></trkpt><trkpt lat="39.022565" lon="16.2773367"><ele>1041.8</ele><time>2026-04-27T11:23:56.732Z</time></trkpt><trkpt lat="39.0225717" lon="16.2774533"><ele>1047.1999999999998</ele><time>2026-04-27T11:23:57.672Z</time></trkpt><trkpt lat="39.02257" lon="16.2775767"><ele>1052.6</ele><time>2026-04-27T11:23:58.669Z</time></trkpt><trkpt lat="39.0225683" lon="16.2776967"><ele>1058.0</ele><time>2026-04-27T11:23:59.669Z</time></trkpt><trkpt lat="39.0225717" lon="16.2778117"><ele>1058.0</ele><time>2026-04-27T11:24:00.676Z</time></trkpt><trkpt lat="39.0225767" lon="16.2779217"><ele>1058.0</ele><time>2026-04-27T11:24:01.672Z</time></trkpt><trkpt lat="39.02258" lon="16.278035"><ele>1058.0</ele><time>2026-04-27T11:24:02.729Z</time></trkpt><trkpt lat="39.0225767" lon="16.2781433"><ele>1058.0</ele><time>2026-04-27T11:24:03.671Z</time></trkpt><trkpt lat="39.0225717" lon="16.2782417"><ele>1058.0</ele><time>2026-04-27T11:24:04.675Z</time></trkpt><trkpt lat="39.0225433" lon="16.27838"><ele>1058.0</ele><time>2026-04-27T11:24:06.679Z</time></trkpt><trkpt lat="39.0225133" lon="16.2785133"><ele>1059.5714285714287</ele><time>2026-04-27T11:24:08.717Z</time></trkpt><trkpt lat="39.022515" lon="16.278595"><ele>1061.142857142857</ele><time>2026-04-27T11:24:09.67Z</time></trkpt><trkpt lat="39.0225217" lon="16.2786767"><ele>1062.7142857142858</ele><time>2026-04-27T11:24:10.678Z</time></trkpt><trkpt lat="39.0225317" lon="16.2787717"><ele>1064.2857142857142</ele><time>2026-04-27T11:24:11.674Z</time></trkpt><trkpt lat="39.022545" lon="16.2788633"><ele>1065.857142857143</ele><time>2026-04-27T11:24:12.677Z</time></trkpt><trkpt lat="39.022555" lon="16.2789567"><ele>1067.4285714285716</ele><time>2026-04-27T11:24:13.672Z</time></trkpt><trkpt lat="39.02256" lon="16.2790483"><ele>1069.0</ele><time>2026-04-27T11:24:14.713Z</time></trkpt><trkpt lat="39.02257" lon="16.2791333"><ele>1072.5</ele><time>2026-04-27T11:24:15.672Z</time></trkpt><trkpt lat="39.02259" lon="16.2792233"><ele>1076.0</ele><time>2026-04-27T11:24:16.674Z</time></trkpt><trkpt lat="39.0226233" lon="16.2793217"><ele>1079.5</ele><time>2026-04-27T11:24:17.677Z</time></trkpt><trkpt lat="39.022665" lon="16.279425"><ele>1083.0</ele><time>2026-04-27T11:24:18.674Z</time></trkpt><trkpt lat="39.02271" lon="16.2795333"><ele>1086.5</ele><time>2026-04-27T11:24:19.671Z</time></trkpt><trkpt lat="39.0227533" lon="16.279655"><ele>1090.0</ele><time>2026-04-27T11:24:20.714Z</time></trkpt><trkpt lat="39.0228017" lon="16.2797783"><ele>1092.2</ele><time>2026-04-27T11:24:21.673Z</time></trkpt><trkpt lat="39.022855" lon="16.2798967"><ele>1094.4</ele><time>2026-04-27T11:24:22.671Z</time></trkpt><trkpt lat="39.0229133" lon="16.280015"><ele>1096.6</ele><time>2026-04-27T11:24:23.68Z</time></trkpt><trkpt lat="39.0229667" lon="16.2801267"><ele>1098.8</ele><time>2026-04-27T11:24:24.68Z</time></trkpt><trkpt lat="39.0230167" lon="16.2802383"><ele>1101.0</ele><time>2026-04-27T11:24:25.671Z</time></trkpt><trkpt lat="39.0230517" lon="16.2803467"><ele>1101.0</ele><time>2026-04-27T11:24:26.735Z</time></trkpt><trkpt lat="39.0230167" lon="16.280445"><ele>1101.0</ele><time>2026-04-27T11:24:28.675Z</time></trkpt><trkpt lat="39.0229583" lon="16.2805967"><ele>1101.0</ele><time>2026-04-27T11:24:30.677Z</time></trkpt><trkpt lat="39.0229233" lon="16.28071"><ele>1101.0</ele><time>2026-04-27T11:24:31.673Z</time></trkpt><trkpt lat="39.02289" lon="16.28083"><ele>1101.0</ele><time>2026-04-27T11:24:32.732Z</time></trkpt><trkpt lat="39.02285" lon="16.2809367"><ele>1103.0</ele><time>2026-04-27T11:24:33.67Z</time></trkpt><trkpt lat="39.0227967" lon="16.2810483"><ele>1105.0</ele><time>2026-04-27T11:24:34.675Z</time></trkpt><trkpt lat="39.0227283" lon="16.28115"><ele>1107.0</ele><time>2026-04-27T11:24:35.671Z</time></trkpt><trkpt lat="39.0226417" lon="16.2812367"><ele>1109.0</ele><time>2026-04-27T11:24:36.675Z</time></trkpt><trkpt lat="39.0225317" lon="16.2813133"><ele>1111.0</ele><time>2026-04-27T11:24:37.665Z</time></trkpt><trkpt lat="39.022415" lon="16.281395"><ele>1114.75</ele><time>2026-04-27T11:24:38.717Z</time></trkpt><trkpt lat="39.0222983" lon="16.281475"><ele>1118.5</ele><time>2026-04-27T11:24:39.673Z</time></trkpt><trkpt lat="39.0221817" lon="16.2815483"><ele>1122.25</ele><time>2026-04-27T11:24:40.673Z</time></trkpt><trkpt lat="39.0220667" lon="16.2815967"><ele>1126.0</ele><time>2026-04-27T11:24:41.671Z</time></trkpt><trkpt lat="39.0219483" lon="16.28161"><ele>1126.0</ele><time>2026-04-27T11:24:42.676Z</time></trkpt><trkpt lat="39.0218233" lon="16.28159"><ele>1126.0</ele><time>2026-04-27T11:24:43.667Z</time></trkpt><trkpt lat="39.0216933" lon="16.2815583"><ele>1126.0</ele><time>2026-04-27T11:24:44.71Z</time></trkpt><trkpt lat="39.0215717" lon="16.2815133"><ele>1126.0</ele><time>2026-04-27T11:24:45.663Z</time></trkpt><trkpt lat="39.0214617" lon="16.281475"><ele>1124.6</ele><time>2026-04-27T11:24:46.674Z</time></trkpt><trkpt lat="39.0213633" lon="16.28146"><ele>1123.1999999999998</ele><time>2026-04-27T11:24:47.677Z</time></trkpt><trkpt lat="39.021275" lon="16.281455"><ele>1121.8000000000002</ele><time>2026-04-27T11:24:48.675Z</time></trkpt><trkpt lat="39.021195" lon="16.2814633"><ele>1120.4</ele><time>2026-04-27T11:24:49.677Z</time></trkpt><trkpt lat="39.0211317" lon="16.2814983"><ele>1119.0</ele><time>2026-04-27T11:24:50.722Z</time></trkpt><trkpt lat="39.0210917" lon="16.281635"><ele>1119.0</ele><time>2026-04-27T11:24:52.674Z</time></trkpt><trkpt lat="39.0211133" lon="16.2817417"><ele>1119.0</ele><time>2026-04-27T11:24:53.675Z</time></trkpt><trkpt lat="39.021135" lon="16.281865"><ele>1119.0</ele><time>2026-04-27T11:24:54.678Z</time></trkpt><trkpt lat="39.0211383" lon="16.2819817"><ele>1119.0</ele><time>2026-04-27T11:24:55.674Z</time></trkpt><trkpt lat="39.0211367" lon="16.28209"><ele>1119.0</ele><time>2026-04-27T11:24:56.733Z</time></trkpt><trkpt lat="39.02113" lon="16.2822"><ele>1119.0</ele><time>2026-04-27T11:24:57.669Z</time></trkpt><trkpt lat="39.0210367" lon="16.2822783"><ele>1119.25</ele><time>2026-04-27T11:24:58.671Z</time></trkpt><trkpt lat="39.02094" lon="16.2823533"><ele>1119.5</ele><time>2026-04-27T11:24:59.668Z</time></trkpt><trkpt lat="39.0208283" lon="16.2824117"><ele>1119.75</ele><time>2026-04-27T11:25:00.676Z</time></trkpt><trkpt lat="39.0207167" lon="16.2824667"><ele>1120.0</ele><time>2026-04-27T11:25:01.674Z</time></trkpt><trkpt lat="39.0206117" lon="16.2825233"><ele>1116.8</ele><time>2026-04-27T11:25:02.73Z</time></trkpt><trkpt lat="39.0205083" lon="16.282575"><ele>1113.6</ele><time>2026-04-27T11:25:03.671Z</time></trkpt><trkpt lat="39.020415" lon="16.2826267"><ele>1110.4</ele><time>2026-04-27T11:25:04.667Z</time></trkpt><trkpt lat="39.02033" lon="16.2826767"><ele>1107.2</ele><time>2026-04-27T11:25:05.675Z</time></trkpt><trkpt lat="39.0202517" lon="16.2827383"><ele>1104.0</ele><time>2026-04-27T11:25:06.676Z</time></trkpt><trkpt lat="39.0201783" lon="16.2828183"><ele>1104.0</ele><time>2026-04-27T11:25:07.679Z</time></trkpt><trkpt lat="39.0201067" lon="16.282925"><ele>1104.0</ele><time>2026-04-27T11:25:08.714Z</time></trkpt><trkpt lat="39.0200467" lon="16.283015"><ele>1104.0</ele><time>2026-04-27T11:25:09.671Z</time></trkpt><trkpt lat="39.01998" lon="16.2830883"><ele>1104.0</ele><time>2026-04-27T11:25:10.674Z</time></trkpt><trkpt lat="39.0199083" lon="16.28313"><ele>1104.0</ele><time>2026-04-27T11:25:11.671Z</time></trkpt><trkpt lat="39.019825" lon="16.2831433"><ele>1107.25</ele><time>2026-04-27T11:25:12.673Z</time></trkpt><trkpt lat="39.0197317" lon="16.28316"><ele>1110.5</ele><time>2026-04-27T11:25:13.669Z</time></trkpt><trkpt lat="39.019625" lon="16.28317"><ele>1113.75</ele><time>2026-04-27T11:25:14.722Z</time></trkpt><trkpt lat="39.0195" lon="16.283175"><ele>1117.0</ele><time>2026-04-27T11:25:15.67Z</time></trkpt><trkpt lat="39.019375" lon="16.2831733"><ele>1117.0</ele><time>2026-04-27T11:25:16.671Z</time></trkpt><trkpt lat="39.0192517" lon="16.2831617"><ele>1117.0</ele><time>2026-04-27T11:25:17.671Z</time></trkpt><trkpt lat="39.01913" lon="16.283145"><ele>1117.0</ele><time>2026-04-27T11:25:18.673Z</time></trkpt><trkpt lat="39.0190017" lon="16.2831283"><ele>1117.0</ele><time>2026-04-27T11:25:19.68Z</time></trkpt><trkpt lat="39.01888" lon="16.2831033"><ele>1116.25</ele><time>2026-04-27T11:25:20.719Z</time></trkpt><trkpt lat="39.0187533" lon="16.2830733"><ele>1115.5</ele><time>2026-04-27T11:25:21.669Z</time></trkpt><trkpt lat="39.0186283" lon="16.2830383"><ele>1114.75</ele><time>2026-04-27T11:25:22.676Z</time></trkpt><trkpt lat="39.0185017" lon="16.282995"><ele>1114.0</ele><time>2026-04-27T11:25:23.67Z</time></trkpt><trkpt lat="39.0183767" lon="16.2829417"><ele>1115.5</ele><time>2026-04-27T11:25:24.674Z</time></trkpt><trkpt lat="39.0182567" lon="16.2828733"><ele>1117.0</ele><time>2026-04-27T11:25:25.681Z</time></trkpt><trkpt lat="39.0181417" lon="16.282805"><ele>1118.5</ele><time>2026-04-27T11:25:26.731Z</time></trkpt><trkpt lat="39.0180167" lon="16.2827533"><ele>1120.0</ele><time>2026-04-27T11:25:27.671Z</time></trkpt><trkpt lat="39.01789" lon="16.282715"><ele>1120.0</ele><time>2026-04-27T11:25:28.674Z</time></trkpt><trkpt lat="39.01777" lon="16.282685"><ele>1120.0</ele><time>2026-04-27T11:25:29.666Z</time></trkpt><trkpt lat="39.01767" lon="16.28267"><ele>1120.0</ele><time>2026-04-27T11:25:30.679Z</time></trkpt><trkpt lat="39.0175967" lon="16.2826733"><ele>1120.0</ele><time>2026-04-27T11:25:31.676Z</time></trkpt><trkpt lat="39.0175017" lon="16.282665"><ele>1120.0</ele><time>2026-04-27T11:27:46.68Z</time></trkpt><trkpt lat="39.0174067" lon="16.282675"><ele>1118.5</ele><time>2026-04-27T11:27:47.668Z</time></trkpt><trkpt lat="39.0173017" lon="16.282685"><ele>1117.0</ele><time>2026-04-27T11:27:48.67Z</time></trkpt><trkpt lat="39.017185" lon="16.2827"><ele>1115.5</ele><time>2026-04-27T11:27:49.671Z</time></trkpt><trkpt lat="39.0170617" lon="16.282725"><ele>1114.0</ele><time>2026-04-27T11:27:50.725Z</time></trkpt><trkpt lat="39.0169333" lon="16.2827483"><ele>1114.0</ele><time>2026-04-27T11:27:51.675Z</time></trkpt><trkpt lat="39.016815" lon="16.28278"><ele>1114.0</ele><time>2026-04-27T11:27:52.674Z</time></trkpt><trkpt lat="39.0166983" lon="16.28281"><ele>1114.0</ele><time>2026-04-27T11:27:53.676Z</time></trkpt><trkpt lat="39.0165833" lon="16.2828467"><ele>1114.0</ele><time>2026-04-27T11:27:54.67Z</time></trkpt><trkpt lat="39.01646" lon="16.282875"><ele>1112.0</ele><time>2026-04-27T11:27:55.667Z</time></trkpt><trkpt lat="39.0163417" lon="16.282885"><ele>1110.0</ele><time>2026-04-27T11:27:56.733Z</time></trkpt><trkpt lat="39.0162283" lon="16.2828917"><ele>1108.0</ele><time>2026-04-27T11:27:57.671Z</time></trkpt><trkpt lat="39.0161133" lon="16.2828967"><ele>1106.0</ele><time>2026-04-27T11:27:58.673Z</time></trkpt><trkpt lat="39.0159967" lon="16.2829133"><ele>1106.0</ele><time>2026-04-27T11:27:59.676Z</time></trkpt><trkpt lat="39.0158883" lon="16.2829283"><ele>1106.0</ele><time>2026-04-27T11:28:00.682Z</time></trkpt><trkpt lat="39.0157817" lon="16.2829467"><ele>1106.0</ele><time>2026-04-27T11:28:01.67Z</time></trkpt><trkpt lat="39.0156817" lon="16.2829583"><ele>1106.0</ele><time>2026-04-27T11:28:02.734Z</time></trkpt><trkpt lat="39.015585" lon="16.2829717"><ele>1106.0</ele><time>2026-04-27T11:28:03.669Z</time></trkpt><trkpt lat="39.015485" lon="16.2829967"><ele>1104.8</ele><time>2026-04-27T11:28:04.67Z</time></trkpt><trkpt lat="39.015395" lon="16.2830183"><ele>1103.6</ele><time>2026-04-27T11:28:05.669Z</time></trkpt><trkpt lat="39.0153" lon="16.2830367"><ele>1102.4</ele><time>2026-04-27T11:28:06.675Z</time></trkpt><trkpt lat="39.015205" lon="16.2830633"><ele>1101.2</ele><time>2026-04-27T11:28:07.673Z</time></trkpt><trkpt lat="39.015115" lon="16.2831067"><ele>1100.0</ele><time>2026-04-27T11:28:08.718Z</time></trkpt><trkpt lat="39.015025" lon="16.2831733"><ele>1094.4</ele><time>2026-04-27T11:28:09.672Z</time></trkpt><trkpt lat="39.0149417" lon="16.2832433"><ele>1088.8</ele><time>2026-04-27T11:28:10.671Z</time></trkpt><trkpt lat="39.014865" lon="16.2833267"><ele>1083.2</ele><time>2026-04-27T11:28:11.686Z</time></trkpt><trkpt lat="39.0148083" lon="16.28343"><ele>1077.6</ele><time>2026-04-27T11:28:12.681Z</time></trkpt><trkpt lat="39.0147633" lon="16.2835517"><ele>1072.0</ele><time>2026-04-27T11:28:13.669Z</time></trkpt><trkpt lat="39.014725" lon="16.2836967"><ele>1072.0</ele><time>2026-04-27T11:28:14.712Z</time></trkpt><trkpt lat="39.0146917" lon="16.2838633"><ele>1072.0</ele><time>2026-04-27T11:28:15.665Z</time></trkpt><trkpt lat="39.0146617" lon="16.28405"><ele>1072.0</ele><time>2026-04-27T11:28:16.679Z</time></trkpt><trkpt lat="39.0146283" lon="16.2842283"><ele>1072.0</ele><time>2026-04-27T11:28:17.67Z</time></trkpt><trkpt lat="39.014595" lon="16.2843867"><ele>1072.5</ele><time>2026-04-27T11:28:18.667Z</time></trkpt><trkpt lat="39.0145617" lon="16.2845233"><ele>1073.0</ele><time>2026-04-27T11:28:19.669Z</time></trkpt><trkpt lat="39.01453" lon="16.2846433"><ele>1073.5</ele><time>2026-04-27T11:28:20.722Z</time></trkpt><trkpt lat="39.0144917" lon="16.28473"><ele>1074.0</ele><time>2026-04-27T11:28:21.666Z</time></trkpt><trkpt lat="39.0144483" lon="16.2848017"><ele>1074.5</ele><time>2026-04-27T11:28:22.675Z</time></trkpt><trkpt lat="39.0143967" lon="16.2848583"><ele>1075.0</ele><time>2026-04-27T11:28:23.671Z</time></trkpt><trkpt lat="39.0143367" lon="16.2849017"><ele>1075.2</ele><time>2026-04-27T11:28:24.676Z</time></trkpt><trkpt lat="39.0142667" lon="16.2849267"><ele>1075.4</ele><time>2026-04-27T11:28:25.673Z</time></trkpt><trkpt lat="39.014175" lon="16.284895"><ele>1075.6</ele><time>2026-04-27T11:28:26.736Z</time></trkpt><trkpt lat="39.0140817" lon="16.2848683"><ele>1075.8</ele><time>2026-04-27T11:28:27.669Z</time></trkpt><trkpt lat="39.013975" lon="16.2848467"><ele>1076.0</ele><time>2026-04-27T11:28:28.675Z</time></trkpt><trkpt lat="39.01386" lon="16.2848283"><ele>1074.5</ele><time>2026-04-27T11:28:29.669Z</time></trkpt><trkpt lat="39.01374" lon="16.2848"><ele>1073.0</ele><time>2026-04-27T11:28:30.675Z</time></trkpt><trkpt lat="39.0136217" lon="16.2847767"><ele>1071.5</ele><time>2026-04-27T11:28:31.666Z</time></trkpt><trkpt lat="39.0135133" lon="16.2847583"><ele>1070.0</ele><time>2026-04-27T11:28:32.729Z</time></trkpt><trkpt lat="39.0134133" lon="16.2847517"><ele>1071.4</ele><time>2026-04-27T11:28:33.666Z</time></trkpt><trkpt lat="39.0133167" lon="16.2847367"><ele>1072.8</ele><time>2026-04-27T11:28:34.672Z</time></trkpt><trkpt lat="39.013225" lon="16.284725"><ele>1074.2</ele><time>2026-04-27T11:28:35.672Z</time></trkpt><trkpt lat="39.0131367" lon="16.2847183"><ele>1075.6</ele><time>2026-04-27T11:28:36.676Z</time></trkpt><trkpt lat="39.0130483" lon="16.2847283"><ele>1077.0</ele><time>2026-04-27T11:28:37.674Z</time></trkpt><trkpt lat="39.0129583" lon="16.284755"><ele>1073.2</ele><time>2026-04-27T11:28:38.711Z</time></trkpt><trkpt lat="39.0128717" lon="16.2848067"><ele>1069.4</ele><time>2026-04-27T11:28:39.665Z</time></trkpt><trkpt lat="39.012785" lon="16.28487"><ele>1065.6</ele><time>2026-04-27T11:28:40.671Z</time></trkpt><trkpt lat="39.0126967" lon="16.28492"><ele>1061.8</ele><time>2026-04-27T11:28:41.668Z</time></trkpt><trkpt lat="39.0126" lon="16.2849817"><ele>1058.0</ele><time>2026-04-27T11:28:42.671Z</time></trkpt><trkpt lat="39.012495" lon="16.2850383"><ele>1055.8</ele><time>2026-04-27T11:28:43.673Z</time></trkpt><trkpt lat="39.0123883" lon="16.2850883"><ele>1053.6</ele><time>2026-04-27T11:28:44.725Z</time></trkpt><trkpt lat="39.0122817" lon="16.2851283"><ele>1051.4</ele><time>2026-04-27T11:28:45.669Z</time></trkpt><trkpt lat="39.0121733" lon="16.285165"><ele>1049.2</ele><time>2026-04-27T11:28:46.678Z</time></trkpt><trkpt lat="39.0120717" lon="16.2851983"><ele>1047.0</ele><time>2026-04-27T11:28:47.667Z</time></trkpt><trkpt lat="39.01197" lon="16.2852367"><ele>1047.0</ele><time>2026-04-27T11:28:48.673Z</time></trkpt><trkpt lat="39.0118717" lon="16.28526"><ele>1047.0</ele><time>2026-04-27T11:28:49.668Z</time></trkpt><trkpt lat="39.011785" lon="16.285275"><ele>1047.0</ele><time>2026-04-27T11:28:50.72Z</time></trkpt><trkpt lat="39.0116917" lon="16.28529"><ele>1047.0</ele><time>2026-04-27T11:28:51.671Z</time></trkpt><trkpt lat="39.0116033" lon="16.2852867"><ele>1047.0</ele><time>2026-04-27T11:28:52.672Z</time></trkpt><trkpt lat="39.0115067" lon="16.2852633"><ele>1044.75</ele><time>2026-04-27T11:28:53.675Z</time></trkpt><trkpt lat="39.0113917" lon="16.285225"><ele>1042.5</ele><time>2026-04-27T11:28:54.676Z</time></trkpt><trkpt lat="39.011275" lon="16.28519"><ele>1040.25</ele><time>2026-04-27T11:28:55.677Z</time></trkpt><trkpt lat="39.0111567" lon="16.2851583"><ele>1038.0</ele><time>2026-04-27T11:28:56.731Z</time></trkpt><trkpt lat="39.01104" lon="16.2851417"><ele>1038.0</ele><time>2026-04-27T11:28:57.67Z</time></trkpt><trkpt lat="39.010925" lon="16.285135"><ele>1038.0</ele><time>2026-04-27T11:28:58.675Z</time></trkpt><trkpt lat="39.0107983" lon="16.2851383"><ele>1038.0</ele><time>2026-04-27T11:28:59.67Z</time></trkpt><trkpt lat="39.01066" lon="16.2851517"><ele>1038.0</ele><time>2026-04-27T11:29:00.673Z</time></trkpt><trkpt lat="39.0105133" lon="16.28517"><ele>1038.75</ele><time>2026-04-27T11:29:01.67Z</time></trkpt><trkpt lat="39.01036" lon="16.2851933"><ele>1039.5</ele><time>2026-04-27T11:29:02.743Z</time></trkpt><trkpt lat="39.0102133" lon="16.2852233"><ele>1040.25</ele><time>2026-04-27T11:29:03.673Z</time></trkpt><trkpt lat="39.01008" lon="16.2852533"><ele>1041.0</ele><time>2026-04-27T11:29:04.68Z</time></trkpt><trkpt lat="39.0099567" lon="16.285285"><ele>1041.6666666666667</ele><time>2026-04-27T11:29:05.67Z</time></trkpt><trkpt lat="39.0098633" lon="16.2853133"><ele>1042.3333333333333</ele><time>2026-04-27T11:29:06.676Z</time></trkpt><trkpt lat="39.009795" lon="16.2853333"><ele>1043.0</ele><time>2026-04-27T11:29:08.726Z</time></trkpt><trkpt lat="39.0096983" lon="16.285305"><ele>1043.6666666666665</ele><time>2026-04-27T11:29:17.677Z</time></trkpt><trkpt lat="39.009635" lon="16.2852983"><ele>1044.3333333333333</ele><time>2026-04-27T11:29:18.674Z</time></trkpt><trkpt lat="39.00956" lon="16.2852967"><ele>1045.0</ele><time>2026-04-27T11:29:20.725Z</time></trkpt><trkpt lat="39.00957" lon="16.2853917"><ele>1045.0</ele><time>2026-04-27T11:29:29.673Z</time></trkpt><trkpt lat="39.0095667" lon="16.285475"><ele>1045.0</ele><time>2026-04-27T11:29:32.733Z</time></trkpt><trkpt lat="39.0095283" lon="16.2855467"><ele>1045.0</ele><time>2026-04-27T11:29:37.673Z</time></trkpt><trkpt lat="39.0094583" lon="16.285575"><ele>1045.0</ele><time>2026-04-27T11:29:42.669Z</time></trkpt><trkpt lat="39.0094983" lon="16.285495"><ele>1045.0</ele><time>2026-04-27T11:30:08.72Z</time></trkpt><trkpt lat="39.00951" lon="16.285415"><ele>1045.0</ele><time>2026-04-27T11:30:10.674Z</time></trkpt><trkpt lat="39.0095317" lon="16.2853383"><ele>1045.0</ele><time>2026-04-27T11:30:13.671Z</time></trkpt><trkpt lat="39.00963" lon="16.2853067"><ele>1045.0</ele><time>2026-04-27T11:30:15.665Z</time></trkpt><trkpt lat="39.0096933" lon="16.28531"><ele>1045.0</ele><time>2026-04-27T11:30:16.677Z</time></trkpt><trkpt lat="39.0098083" lon="16.285345"><ele>1045.0</ele><time>2026-04-27T11:30:18.674Z</time></trkpt><trkpt lat="39.0098817" lon="16.285385"><ele>1045.0</ele><time>2026-04-27T11:30:20.728Z</time></trkpt><trkpt lat="39.0098717" lon="16.285485"><ele>1045.0</ele><time>2026-04-27T11:30:22.677Z</time></trkpt><trkpt lat="39.0098217" lon="16.2855917"><ele>1045.0</ele><time>2026-04-27T11:30:24.678Z</time></trkpt><trkpt lat="39.0098417" lon="16.2856917"><ele>1041.0</ele><time>2026-04-27T11:30:26.734Z</time></trkpt><trkpt lat="39.0098867" lon="16.285775"><ele>1037.0</ele><time>2026-04-27T11:30:28.676Z</time></trkpt><trkpt lat="39.0100183" lon="16.2858367"><ele>1033.0</ele><time>2026-04-27T11:30:30.674Z</time></trkpt><trkpt lat="39.0101167" lon="16.2858783"><ele>1029.0</ele><time>2026-04-27T11:30:31.676Z</time></trkpt><trkpt lat="39.0102" lon="16.2859083"><ele>1025.0</ele><time>2026-04-27T11:30:32.729Z</time></trkpt><trkpt lat="39.0102883" lon="16.285945"><ele>1025.0</ele><time>2026-04-27T11:30:33.675Z</time></trkpt><trkpt lat="39.0103667" lon="16.2859833"><ele>1025.0</ele><time>2026-04-27T11:30:34.674Z</time></trkpt><trkpt lat="39.010465" lon="16.286035"><ele>1025.0</ele><time>2026-04-27T11:30:36.677Z</time></trkpt><trkpt lat="39.0105233" lon="16.286115"><ele>1025.0</ele><time>2026-04-27T11:30:38.719Z</time></trkpt><trkpt lat="39.0104617" lon="16.2861683"><ele>1025.0</ele><time>2026-04-27T11:30:40.673Z</time></trkpt><trkpt lat="39.0103967" lon="16.2862067"><ele>1025.0</ele><time>2026-04-27T11:30:41.669Z</time></trkpt><trkpt lat="39.01033" lon="16.2862383"><ele>1025.0</ele><time>2026-04-27T11:30:42.672Z</time></trkpt><trkpt lat="39.01026" lon="16.2862733"><ele>1025.0</ele><time>2026-04-27T11:30:43.669Z</time></trkpt><trkpt lat="39.01018" lon="16.2862967"><ele>1025.0</ele><time>2026-04-27T11:30:44.722Z</time></trkpt><trkpt lat="39.01009" lon="16.2863433"><ele>1025.0</ele><time>2026-04-27T11:30:45.67Z</time></trkpt><trkpt lat="39.01002" lon="16.2863867"><ele>1025.0</ele><time>2026-04-27T11:30:46.673Z</time></trkpt><trkpt lat="39.0099517" lon="16.2864067"><ele>1025.0</ele><time>2026-04-27T11:30:47.671Z</time></trkpt><trkpt lat="39.0099467" lon="16.2864883"><ele>1019.8</ele><time>2026-04-27T11:30:49.677Z</time></trkpt><trkpt lat="39.0100483" lon="16.2865783"><ele>1014.6</ele><time>2026-04-27T11:30:51.677Z</time></trkpt><trkpt lat="39.0101383" lon="16.2865967"><ele>1009.4000000000001</ele><time>2026-04-27T11:30:52.675Z</time></trkpt><trkpt lat="39.0102267" lon="16.2866033"><ele>1004.2</ele><time>2026-04-27T11:30:53.672Z</time></trkpt><trkpt lat="39.0103367" lon="16.2866167"><ele>999.0</ele><time>2026-04-27T11:30:55.671Z</time></trkpt><trkpt lat="39.0102917" lon="16.2866967"><ele>999.0</ele><time>2026-04-27T11:30:57.668Z</time></trkpt><trkpt lat="39.0102417" lon="16.2867767"><ele>999.0000000000001</ele><time>2026-04-27T11:30:58.671Z</time></trkpt><trkpt lat="39.0101933" lon="16.2868733"><ele>999.0000000000001</ele><time>2026-04-27T11:30:59.673Z</time></trkpt><trkpt lat="39.0101467" lon="16.2869867"><ele>999.0</ele><time>2026-04-27T11:31:00.679Z</time></trkpt><trkpt lat="39.0101" lon="16.2870967"><ele>999.0</ele><time>2026-04-27T11:31:01.672Z</time></trkpt><trkpt lat="39.0100517" lon="16.2871883"><ele>999.1666666666666</ele><time>2026-04-27T11:31:02.731Z</time></trkpt><trkpt lat="39.0099867" lon="16.2872517"><ele>999.3333333333333</ele><time>2026-04-27T11:31:03.665Z</time></trkpt><trkpt lat="39.0099117" lon="16.28729"><ele>999.5</ele><time>2026-04-27T11:31:04.666Z</time></trkpt><trkpt lat="39.009845" lon="16.28732"><ele>999.6666666666666</ele><time>2026-04-27T11:31:05.67Z</time></trkpt><trkpt lat="39.0097933" lon="16.2873767"><ele>999.8333333333333</ele><time>2026-04-27T11:31:07.669Z</time></trkpt><trkpt lat="39.0098983" lon="16.287485"><ele>1000.0</ele><time>2026-04-27T11:31:09.671Z</time></trkpt><trkpt lat="39.0099817" lon="16.28754"><ele>995.8333333333333</ele><time>2026-04-27T11:31:10.674Z</time></trkpt><trkpt lat="39.0100667" lon="16.287585"><ele>991.6666666666666</ele><time>2026-04-27T11:31:11.671Z</time></trkpt><trkpt lat="39.010145" lon="16.2876133"><ele>987.5</ele><time>2026-04-27T11:31:12.673Z</time></trkpt><trkpt lat="39.0102133" lon="16.28764"><ele>983.3333333333333</ele><time>2026-04-27T11:31:13.671Z</time></trkpt><trkpt lat="39.010275" lon="16.2876733"><ele>979.1666666666666</ele><time>2026-04-27T11:31:14.725Z</time></trkpt><trkpt lat="39.010285" lon="16.2878"><ele>975.0</ele><time>2026-04-27T11:31:17.669Z</time></trkpt><trkpt lat="39.0101783" lon="16.2878967"><ele>975.0</ele><time>2026-04-27T11:31:19.673Z</time></trkpt><trkpt lat="39.0100917" lon="16.287985"><ele>975.0</ele><time>2026-04-27T11:31:21.665Z</time></trkpt><trkpt lat="39.010085" lon="16.2881017"><ele>975.0</ele><time>2026-04-27T11:31:23.671Z</time></trkpt><trkpt lat="39.010145" lon="16.288175"><ele>975.0</ele><time>2026-04-27T11:31:24.674Z</time></trkpt><trkpt lat="39.010175" lon="16.28827"><ele>975.0</ele><time>2026-04-27T11:31:25.674Z</time></trkpt><trkpt lat="39.0101917" lon="16.2883617"><ele>975.0</ele><time>2026-04-27T11:31:26.736Z</time></trkpt><trkpt lat="39.0102267" lon="16.28845"><ele>971.2</ele><time>2026-04-27T11:31:27.669Z</time></trkpt><trkpt lat="39.0103" lon="16.288515"><ele>967.4</ele><time>2026-04-27T11:31:28.676Z</time></trkpt><trkpt lat="39.0103833" lon="16.2885533"><ele>963.5999999999999</ele><time>2026-04-27T11:31:29.668Z</time></trkpt><trkpt lat="39.0104817" lon="16.2885683"><ele>959.8</ele><time>2026-04-27T11:31:30.669Z</time></trkpt><trkpt lat="39.0105833" lon="16.288575"><ele>956.0</ele><time>2026-04-27T11:31:31.673Z</time></trkpt><trkpt lat="39.0106767" lon="16.2885783"><ele>956.0000000000001</ele><time>2026-04-27T11:31:32.737Z</time></trkpt><trkpt lat="39.0107667" lon="16.28859"><ele>956.0</ele><time>2026-04-27T11:31:33.67Z</time></trkpt><trkpt lat="39.0108317" lon="16.2886383"><ele>956.0</ele><time>2026-04-27T11:31:34.673Z</time></trkpt><trkpt lat="39.0108817" lon="16.2887"><ele>956.0</ele><time>2026-04-27T11:31:35.669Z</time></trkpt><trkpt lat="39.0108567" lon="16.28879"><ele>956.0000000000001</ele><time>2026-04-27T11:31:36.678Z</time></trkpt><trkpt lat="39.0107683" lon="16.2888683"><ele>956.0</ele><time>2026-04-27T11:31:38.718Z</time></trkpt><trkpt lat="39.0106833" lon="16.2888983"><ele>949.5</ele><time>2026-04-27T11:31:39.664Z</time></trkpt><trkpt lat="39.0105883" lon="16.2889333"><ele>943.0</ele><time>2026-04-27T11:31:40.675Z</time></trkpt><trkpt lat="39.010475" lon="16.28898"><ele>936.5</ele><time>2026-04-27T11:31:41.672Z</time></trkpt><trkpt lat="39.0103417" lon="16.28904"><ele>930.0</ele><time>2026-04-27T11:31:42.68Z</time></trkpt><trkpt lat="39.0101833" lon="16.2891133"><ele>930.0</ele><time>2026-04-27T11:31:43.68Z</time></trkpt><trkpt lat="39.0100083" lon="16.2892"><ele>930.0</ele><time>2026-04-27T11:31:44.722Z</time></trkpt><trkpt lat="39.0098417" lon="16.2892883"><ele>930.0</ele><time>2026-04-27T11:31:45.666Z</time></trkpt><trkpt lat="39.0096867" lon="16.289375"><ele>933.5</ele><time>2026-04-27T11:31:46.677Z</time></trkpt><trkpt lat="39.0095483" lon="16.2894383"><ele>937.0</ele><time>2026-04-27T11:31:47.666Z</time></trkpt><trkpt lat="39.009435" lon="16.2894467"><ele>940.5</ele><time>2026-04-27T11:31:48.669Z</time></trkpt><trkpt lat="39.0093117" lon="16.2894367"><ele>944.0</ele><time>2026-04-27T11:31:49.665Z</time></trkpt><trkpt lat="39.0091767" lon="16.289435"><ele>948.75</ele><time>2026-04-27T11:31:50.724Z</time></trkpt><trkpt lat="39.0090433" lon="16.2894483"><ele>953.5</ele><time>2026-04-27T11:31:51.673Z</time></trkpt><trkpt lat="39.0089183" lon="16.2894667"><ele>958.25</ele><time>2026-04-27T11:31:52.666Z</time></trkpt><trkpt lat="39.0088167" lon="16.2895083"><ele>963.0</ele><time>2026-04-27T11:31:53.676Z</time></trkpt><trkpt lat="39.0087217" lon="16.2895717"><ele>963.0</ele><time>2026-04-27T11:31:54.674Z</time></trkpt><trkpt lat="39.008635" lon="16.2896833"><ele>963.0</ele><time>2026-04-27T11:31:55.672Z</time></trkpt><trkpt lat="39.008545" lon="16.2897817"><ele>963.0</ele><time>2026-04-27T11:31:56.732Z</time></trkpt><trkpt lat="39.0084517" lon="16.2898683"><ele>963.0</ele><time>2026-04-27T11:31:57.667Z</time></trkpt><trkpt lat="39.0083267" lon="16.2899267"><ele>957.5</ele><time>2026-04-27T11:31:58.673Z</time></trkpt><trkpt lat="39.0081933" lon="16.28999"><ele>952.0</ele><time>2026-04-27T11:31:59.672Z</time></trkpt><trkpt lat="39.0080567" lon="16.29005"><ele>946.5</ele><time>2026-04-27T11:32:00.675Z</time></trkpt><trkpt lat="39.0079217" lon="16.29013"><ele>941.0</ele><time>2026-04-27T11:32:01.67Z</time></trkpt><trkpt lat="39.0078133" lon="16.2902067"><ele>941.0</ele><time>2026-04-27T11:32:02.736Z</time></trkpt><trkpt lat="39.007705" lon="16.290275"><ele>941.0</ele><time>2026-04-27T11:32:03.671Z</time></trkpt><trkpt lat="39.007615" lon="16.2903583"><ele>941.0</ele><time>2026-04-27T11:32:04.675Z</time></trkpt><trkpt lat="39.0075467" lon="16.2904783"><ele>941.0</ele><time>2026-04-27T11:32:05.674Z</time></trkpt><trkpt lat="39.0075033" lon="16.2906367"><ele>944.0</ele><time>2026-04-27T11:32:06.67Z</time></trkpt><trkpt lat="39.00745" lon="16.2907933"><ele>947.0</ele><time>2026-04-27T11:32:07.674Z</time></trkpt><trkpt lat="39.00739" lon="16.2909567"><ele>950.0</ele><time>2026-04-27T11:32:08.721Z</time></trkpt><trkpt lat="39.0073383" lon="16.2911283"><ele>953.0</ele><time>2026-04-27T11:32:09.671Z</time></trkpt><trkpt lat="39.007295" lon="16.2913017"><ele>948.5</ele><time>2026-04-27T11:32:10.674Z</time></trkpt><trkpt lat="39.007255" lon="16.29147"><ele>944.0</ele><time>2026-04-27T11:32:11.668Z</time></trkpt><trkpt lat="39.00726" lon="16.2916533"><ele>939.5</ele><time>2026-04-27T11:32:12.678Z</time></trkpt><trkpt lat="39.007255" lon="16.291825"><ele>935.0</ele><time>2026-04-27T11:32:13.668Z</time></trkpt><trkpt lat="39.0072283" lon="16.29198"><ele>935.0</ele><time>2026-04-27T11:32:14.726Z</time></trkpt><trkpt lat="39.00718" lon="16.2921267"><ele>935.0</ele><time>2026-04-27T11:32:15.669Z</time></trkpt><trkpt lat="39.0071317" lon="16.29225"><ele>935.0</ele><time>2026-04-27T11:32:16.677Z</time></trkpt><trkpt lat="39.00707" lon="16.292375"><ele>935.0</ele><time>2026-04-27T11:32:17.666Z</time></trkpt><trkpt lat="39.00699" lon="16.2924983"><ele>930.0</ele><time>2026-04-27T11:32:18.677Z</time></trkpt><trkpt lat="39.0069167" lon="16.292625"><ele>925.0</ele><time>2026-04-27T11:32:19.672Z</time></trkpt><trkpt lat="39.0068533" lon="16.292745"><ele>920.0</ele><time>2026-04-27T11:32:20.727Z</time></trkpt><trkpt lat="39.0068" lon="16.2928683"><ele>915.0</ele><time>2026-04-27T11:32:21.667Z</time></trkpt><trkpt lat="39.0067467" lon="16.292965"><ele>910.0</ele><time>2026-04-27T11:32:22.672Z</time></trkpt><trkpt lat="39.0066783" lon="16.2930483"><ele>904.8</ele><time>2026-04-27T11:32:23.669Z</time></trkpt><trkpt lat="39.0066033" lon="16.2931133"><ele>899.6</ele><time>2026-04-27T11:32:24.673Z</time></trkpt><trkpt lat="39.0065067" lon="16.293145"><ele>894.4000000000001</ele><time>2026-04-27T11:32:25.668Z</time></trkpt><trkpt lat="39.00641" lon="16.29315"><ele>889.2</ele><time>2026-04-27T11:32:26.731Z</time></trkpt><trkpt lat="39.0062933" lon="16.29317"><ele>884.0</ele><time>2026-04-27T11:32:27.669Z</time></trkpt><trkpt lat="39.0061533" lon="16.293205"><ele>884.0</ele><time>2026-04-27T11:32:28.67Z</time></trkpt><trkpt lat="39.0060067" lon="16.2932483"><ele>884.0</ele><time>2026-04-27T11:32:29.671Z</time></trkpt><trkpt lat="39.0058733" lon="16.2932917"><ele>884.0</ele><time>2026-04-27T11:32:30.674Z</time></trkpt><trkpt lat="39.0057533" lon="16.2933333"><ele>884.0</ele><time>2026-04-27T11:32:31.67Z</time></trkpt><trkpt lat="39.0056483" lon="16.2933833"><ele>885.0</ele><time>2026-04-27T11:32:32.737Z</time></trkpt><trkpt lat="39.0055617" lon="16.293455"><ele>886.0000000000001</ele><time>2026-04-27T11:32:33.667Z</time></trkpt><trkpt lat="39.00548" lon="16.2935467"><ele>887.0000000000001</ele><time>2026-04-27T11:32:34.671Z</time></trkpt><trkpt lat="39.00539" lon="16.293645"><ele>888.0</ele><time>2026-04-27T11:32:35.671Z</time></trkpt><trkpt lat="39.0053" lon="16.2937417"><ele>889.0</ele><time>2026-04-27T11:32:36.672Z</time></trkpt><trkpt lat="39.0051733" lon="16.293815"><ele>889.0</ele><time>2026-04-27T11:32:37.671Z</time></trkpt><trkpt lat="39.0050333" lon="16.2938867"><ele>889.0</ele><time>2026-04-27T11:32:38.724Z</time></trkpt><trkpt lat="39.0048867" lon="16.2939517"><ele>889.0</ele><time>2026-04-27T11:32:39.669Z</time></trkpt><trkpt lat="39.00473" lon="16.294005"><ele>879.0</ele><time>2026-04-27T11:32:40.671Z</time></trkpt><trkpt lat="39.0045617" lon="16.2940467"><ele>869.0</ele><time>2026-04-27T11:32:41.673Z</time></trkpt><trkpt lat="39.0044" lon="16.2940967"><ele>859.0</ele><time>2026-04-27T11:32:42.667Z</time></trkpt><trkpt lat="39.0042333" lon="16.29416"><ele>861.0</ele><time>2026-04-27T11:32:43.666Z</time></trkpt><trkpt lat="39.004075" lon="16.29423"><ele>863.0</ele><time>2026-04-27T11:32:44.727Z</time></trkpt><trkpt lat="39.00392" lon="16.2943067"><ele>865.0</ele><time>2026-04-27T11:32:45.671Z</time></trkpt><trkpt lat="39.0037867" lon="16.294385"><ele>865.0</ele><time>2026-04-27T11:32:46.671Z</time></trkpt><trkpt lat="39.003675" lon="16.2944833"><ele>865.0</ele><time>2026-04-27T11:32:47.671Z</time></trkpt><trkpt lat="39.0035867" lon="16.2945983"><ele>865.0</ele><time>2026-04-27T11:32:48.674Z</time></trkpt><trkpt lat="39.0035217" lon="16.2947433"><ele>865.0</ele><time>2026-04-27T11:32:49.674Z</time></trkpt><trkpt lat="39.0034417" lon="16.294865"><ele>860.25</ele><time>2026-04-27T11:32:50.716Z</time></trkpt><trkpt lat="39.00337" lon="16.2949833"><ele>855.5</ele><time>2026-04-27T11:32:51.674Z</time></trkpt><trkpt lat="39.00329" lon="16.295085"><ele>850.75</ele><time>2026-04-27T11:32:52.673Z</time></trkpt><trkpt lat="39.0031833" lon="16.295165"><ele>846.0</ele><time>2026-04-27T11:32:53.67Z</time></trkpt><trkpt lat="39.003055" lon="16.295235"><ele>843.6666666666667</ele><time>2026-04-27T11:32:54.672Z</time></trkpt><trkpt lat="39.0028967" lon="16.2953"><ele>841.3333333333334</ele><time>2026-04-27T11:32:55.67Z</time></trkpt><trkpt lat="39.0027383" lon="16.2953733"><ele>839.0</ele><time>2026-04-27T11:32:56.733Z</time></trkpt><trkpt lat="39.002585" lon="16.2954417"><ele>833.3333333333334</ele><time>2026-04-27T11:32:57.67Z</time></trkpt><trkpt lat="39.00243" lon="16.2954883"><ele>827.6666666666667</ele><time>2026-04-27T11:32:58.676Z</time></trkpt><trkpt lat="39.0022667" lon="16.2955067"><ele>822.0</ele><time>2026-04-27T11:32:59.672Z</time></trkpt><trkpt lat="39.0021033" lon="16.2955333"><ele>822.0</ele><time>2026-04-27T11:33:00.67Z</time></trkpt><trkpt lat="39.00195" lon="16.2955583"><ele>822.0</ele><time>2026-04-27T11:33:01.669Z</time></trkpt><trkpt lat="39.0018133" lon="16.29559"><ele>822.0</ele><time>2026-04-27T11:33:02.738Z</time></trkpt><trkpt lat="39.0017" lon="16.29561"><ele>822.0</ele><time>2026-04-27T11:33:03.668Z</time></trkpt><trkpt lat="39.0016283" lon="16.29558"><ele>821.0</ele><time>2026-04-27T11:33:04.676Z</time></trkpt><trkpt lat="39.0015617" lon="16.2955417"><ele>820.0</ele><time>2026-04-27T11:33:05.67Z</time></trkpt><trkpt lat="39.0014967" lon="16.2954817"><ele>819.0</ele><time>2026-04-27T11:33:06.674Z</time></trkpt><trkpt lat="39.00145" lon="16.295395"><ele>818.0</ele><time>2026-04-27T11:33:07.672Z</time></trkpt><trkpt lat="39.00141" lon="16.295315"><ele>817.0</ele><time>2026-04-27T11:33:08.719Z</time></trkpt><trkpt lat="39.0013683" lon="16.2952433"><ele>816.0</ele><time>2026-04-27T11:33:09.675Z</time></trkpt><trkpt lat="39.0012517" lon="16.29528"><ele>816.0</ele><time>2026-04-27T11:33:11.671Z</time></trkpt><trkpt lat="39.00119" lon="16.2953333"><ele>816.0</ele><time>2026-04-27T11:33:12.677Z</time></trkpt><trkpt lat="39.0010817" lon="16.295475"><ele>816.0</ele><time>2026-04-27T11:33:13.674Z</time></trkpt><trkpt lat="39.00096" lon="16.295595"><ele>816.0</ele><time>2026-04-27T11:33:14.722Z</time></trkpt><trkpt lat="39.0008433" lon="16.2957067"><ele>808.25</ele><time>2026-04-27T11:33:15.671Z</time></trkpt><trkpt lat="39.0007283" lon="16.2957867"><ele>800.5</ele><time>2026-04-27T11:33:16.677Z</time></trkpt><trkpt lat="39.0006117" lon="16.29583"><ele>792.75</ele><time>2026-04-27T11:33:17.677Z</time></trkpt><trkpt lat="39.00049" lon="16.2958467"><ele>785.0</ele><time>2026-04-27T11:33:18.673Z</time></trkpt><trkpt lat="39.00037" lon="16.295885"><ele>785.0</ele><time>2026-04-27T11:33:19.671Z</time></trkpt><trkpt lat="39.0002383" lon="16.2959267"><ele>785.0</ele><time>2026-04-27T11:33:20.719Z</time></trkpt><trkpt lat="39.00011" lon="16.2959767"><ele>785.0</ele><time>2026-04-27T11:33:21.67Z</time></trkpt><trkpt lat="38.9999633" lon="16.29601"><ele>785.0</ele><time>2026-04-27T11:33:22.673Z</time></trkpt><trkpt lat="38.9997983" lon="16.2960217"><ele>785.0</ele><time>2026-04-27T11:33:23.67Z</time></trkpt><trkpt lat="38.9996183" lon="16.29602"><ele>785.0</ele><time>2026-04-27T11:33:24.674Z</time></trkpt><trkpt lat="38.9994217" lon="16.2960083"><ele>785.0</ele><time>2026-04-27T11:33:25.67Z</time></trkpt><trkpt lat="38.999215" lon="16.2960017"><ele>781.3333333333334</ele><time>2026-04-27T11:33:26.699Z</time></trkpt><trkpt lat="38.99902" lon="16.2960017"><ele>777.6666666666667</ele><time>2026-04-27T11:33:27.67Z</time></trkpt><trkpt lat="38.9988433" lon="16.2959983"><ele>774.0</ele><time>2026-04-27T11:33:28.667Z</time></trkpt><trkpt lat="38.9986683" lon="16.2960067"><ele>774.0</ele><time>2026-04-27T11:33:29.671Z</time></trkpt><trkpt lat="38.9985033" lon="16.2959933"><ele>774.0</ele><time>2026-04-27T11:33:30.665Z</time></trkpt><trkpt lat="38.998345" lon="16.295975"><ele>774.0</ele><time>2026-04-27T11:33:31.665Z</time></trkpt><trkpt lat="38.998195" lon="16.2959617"><ele>770.0</ele><time>2026-04-27T11:33:32.727Z</time></trkpt><trkpt lat="38.99804" lon="16.2959533"><ele>766.0</ele><time>2026-04-27T11:33:33.667Z</time></trkpt><trkpt lat="38.997875" lon="16.295935"><ele>762.0</ele><time>2026-04-27T11:33:34.676Z</time></trkpt><trkpt lat="38.9977067" lon="16.2959"><ele>762.0</ele><time>2026-04-27T11:33:35.667Z</time></trkpt><trkpt lat="38.9975467" lon="16.2958583"><ele>762.0</ele><time>2026-04-27T11:33:36.67Z</time></trkpt><trkpt lat="38.9974083" lon="16.2958183"><ele>762.0</ele><time>2026-04-27T11:33:37.671Z</time></trkpt><trkpt lat="38.997275" lon="16.2958067"><ele>762.0</ele><time>2026-04-27T11:33:38.722Z</time></trkpt><trkpt lat="38.997145" lon="16.295825"><ele>758.0</ele><time>2026-04-27T11:33:39.671Z</time></trkpt><trkpt lat="38.997015" lon="16.2958767"><ele>754.0</ele><time>2026-04-27T11:33:40.674Z</time></trkpt><trkpt lat="38.996875" lon="16.2959667"><ele>750.0</ele><time>2026-04-27T11:33:41.663Z</time></trkpt><trkpt lat="38.996725" lon="16.2960533"><ele>746.6666666666666</ele><time>2026-04-27T11:33:42.677Z</time></trkpt><trkpt lat="38.996565" lon="16.2961317"><ele>743.3333333333333</ele><time>2026-04-27T11:33:43.671Z</time></trkpt><trkpt lat="38.9964017" lon="16.2962017"><ele>740.0</ele><time>2026-04-27T11:33:44.725Z</time></trkpt><trkpt lat="38.9962317" lon="16.29628"><ele>740.0</ele><time>2026-04-27T11:33:45.673Z</time></trkpt><trkpt lat="38.9960683" lon="16.2963567"><ele>740.0</ele><time>2026-04-27T11:33:46.674Z</time></trkpt><trkpt lat="38.9959133" lon="16.2964433"><ele>740.0</ele><time>2026-04-27T11:33:47.676Z</time></trkpt><trkpt lat="38.9957633" lon="16.2965417"><ele>735.0</ele><time>2026-04-27T11:33:48.67Z</time></trkpt><trkpt lat="38.99562" lon="16.2966383"><ele>730.0</ele><time>2026-04-27T11:33:49.671Z</time></trkpt><trkpt lat="38.9954783" lon="16.2967283"><ele>725.0</ele><time>2026-04-27T11:33:50.723Z</time></trkpt><trkpt lat="38.99533" lon="16.2968033"><ele>725.0</ele><time>2026-04-27T11:33:51.672Z</time></trkpt><trkpt lat="38.99516" lon="16.2968533"><ele>725.0</ele><time>2026-04-27T11:33:52.671Z</time></trkpt><trkpt lat="38.9949783" lon="16.29688"><ele>725.0</ele><time>2026-04-27T11:33:53.676Z</time></trkpt><trkpt lat="38.9947833" lon="16.296895"><ele>723.6666666666666</ele><time>2026-04-27T11:33:54.672Z</time></trkpt><trkpt lat="38.99459" lon="16.2969083"><ele>722.3333333333334</ele><time>2026-04-27T11:33:55.67Z</time></trkpt><trkpt lat="38.9944083" lon="16.29693"><ele>721.0</ele><time>2026-04-27T11:33:56.731Z</time></trkpt><trkpt lat="38.9942367" lon="16.2969533"><ele>720.3333333333334</ele><time>2026-04-27T11:33:57.671Z</time></trkpt><trkpt lat="38.9940733" lon="16.2969667"><ele>719.6666666666666</ele><time>2026-04-27T11:33:58.675Z</time></trkpt><trkpt lat="38.993915" lon="16.2969667"><ele>719.0</ele><time>2026-04-27T11:33:59.67Z</time></trkpt><trkpt lat="38.9937517" lon="16.296955"><ele>719.0</ele><time>2026-04-27T11:34:00.669Z</time></trkpt><trkpt lat="38.9935783" lon="16.2969417"><ele>719.0</ele><time>2026-04-27T11:34:01.672Z</time></trkpt><trkpt lat="38.9934033" lon="16.2969267"><ele>719.0</ele><time>2026-04-27T11:34:02.728Z</time></trkpt><trkpt lat="38.9932183" lon="16.296915"><ele>717.3333333333333</ele><time>2026-04-27T11:34:03.673Z</time></trkpt><trkpt lat="38.993025" lon="16.2969033"><ele>715.6666666666666</ele><time>2026-04-27T11:34:04.682Z</time></trkpt><trkpt lat="38.9928267" lon="16.29689"><ele>714.0</ele><time>2026-04-27T11:34:05.672Z</time></trkpt><trkpt lat="38.9926233" lon="16.2968817"><ele>712.0</ele><time>2026-04-27T11:34:06.677Z</time></trkpt><trkpt lat="38.9924183" lon="16.2968767"><ele>710.0</ele><time>2026-04-27T11:34:07.672Z</time></trkpt><trkpt lat="38.9922183" lon="16.2968733"><ele>708.0</ele><time>2026-04-27T11:34:08.729Z</time></trkpt><trkpt lat="38.9920367" lon="16.296875"><ele>708.0</ele><time>2026-04-27T11:34:09.664Z</time></trkpt><trkpt lat="38.991885" lon="16.296875"><ele>708.0</ele><time>2026-04-27T11:34:10.669Z</time></trkpt><trkpt lat="38.991755" lon="16.29686"><ele>708.0</ele><time>2026-04-27T11:34:11.666Z</time></trkpt><trkpt lat="38.9916533" lon="16.2968067"><ele>708.0</ele><time>2026-04-27T11:34:12.667Z</time></trkpt><trkpt lat="38.9915583" lon="16.2967333"><ele>706.4</ele><time>2026-04-27T11:34:13.67Z</time></trkpt><trkpt lat="38.9914817" lon="16.2966583"><ele>704.8</ele><time>2026-04-27T11:34:14.718Z</time></trkpt><trkpt lat="38.991415" lon="16.296605"><ele>703.2</ele><time>2026-04-27T11:34:15.668Z</time></trkpt><trkpt lat="38.9913583" lon="16.2966733"><ele>701.6</ele><time>2026-04-27T11:34:17.674Z</time></trkpt><trkpt lat="38.991405" lon="16.2968567"><ele>700.0</ele><time>2026-04-27T11:34:19.671Z</time></trkpt><trkpt lat="38.9914383" lon="16.2969683"><ele>700.0</ele><time>2026-04-27T11:34:20.723Z</time></trkpt><trkpt lat="38.9914683" lon="16.297065"><ele>700.0</ele><time>2026-04-27T11:34:21.67Z</time></trkpt><trkpt lat="38.9914567" lon="16.2971667"><ele>700.0</ele><time>2026-04-27T11:34:23.672Z</time></trkpt><trkpt lat="38.991345" lon="16.2971083"><ele>700.0</ele><time>2026-04-27T11:34:25.671Z</time></trkpt><trkpt lat="38.99125" lon="16.2970167"><ele>700.0</ele><time>2026-04-27T11:34:26.73Z</time></trkpt><trkpt lat="38.9911417" lon="16.2969267"><ele>700.0</ele><time>2026-04-27T11:34:27.666Z</time></trkpt><trkpt lat="38.991015" lon="16.29683"><ele>700.0</ele><time>2026-04-27T11:34:28.666Z</time></trkpt><trkpt lat="38.9908933" lon="16.29674"><ele>700.0</ele><time>2026-04-27T11:34:29.673Z</time></trkpt><trkpt lat="38.9907983" lon="16.29667"><ele>700.0</ele><time>2026-04-27T11:34:30.674Z</time></trkpt><trkpt lat="38.9907167" lon="16.296635"><ele>696.4</ele><time>2026-04-27T11:34:31.675Z</time></trkpt><trkpt lat="38.9906267" lon="16.2966733"><ele>692.8</ele><time>2026-04-27T11:34:32.731Z</time></trkpt><trkpt lat="38.9905367" lon="16.2967133"><ele>689.2</ele><time>2026-04-27T11:34:33.669Z</time></trkpt><trkpt lat="38.99044" lon="16.296765"><ele>685.6</ele><time>2026-04-27T11:34:34.666Z</time></trkpt><trkpt lat="38.9903433" lon="16.2968133"><ele>682.0</ele><time>2026-04-27T11:34:35.67Z</time></trkpt><trkpt lat="38.99023" lon="16.2968533"><ele>682.0</ele><time>2026-04-27T11:34:36.671Z</time></trkpt><trkpt lat="38.990105" lon="16.2968767"><ele>682.0</ele><time>2026-04-27T11:34:37.673Z</time></trkpt><trkpt lat="38.989965" lon="16.2968783"><ele>682.0</ele><time>2026-04-27T11:34:38.727Z</time></trkpt><trkpt lat="38.9898117" lon="16.2968617"><ele>682.0</ele><time>2026-04-27T11:34:39.671Z</time></trkpt><trkpt lat="38.98965" lon="16.2968267"><ele>679.0</ele><time>2026-04-27T11:34:40.674Z</time></trkpt><trkpt lat="38.9894983" lon="16.2967867"><ele>676.0</ele><time>2026-04-27T11:34:41.669Z</time></trkpt><trkpt lat="38.9893517" lon="16.296745"><ele>673.0</ele><time>2026-04-27T11:34:42.664Z</time></trkpt><trkpt lat="38.9892317" lon="16.2967217"><ele>670.0</ele><time>2026-04-27T11:34:43.669Z</time></trkpt><trkpt lat="38.9891117" lon="16.2967233"><ele>666.25</ele><time>2026-04-27T11:34:44.719Z</time></trkpt><trkpt lat="38.9890033" lon="16.29675"><ele>662.5</ele><time>2026-04-27T11:34:45.672Z</time></trkpt><trkpt lat="38.988895" lon="16.2968033"><ele>658.75</ele><time>2026-04-27T11:34:46.7Z</time></trkpt><trkpt lat="38.9887817" lon="16.2969283"><ele>655.0</ele><time>2026-04-27T11:34:47.672Z</time></trkpt><trkpt lat="38.98867" lon="16.2970417"><ele>655.0</ele><time>2026-04-27T11:34:48.667Z</time></trkpt><trkpt lat="38.9885617" lon="16.29713"><ele>655.0</ele><time>2026-04-27T11:34:49.666Z</time></trkpt><trkpt lat="38.9884633" lon="16.297185"><ele>655.0</ele><time>2026-04-27T11:34:50.721Z</time></trkpt><trkpt lat="38.9883567" lon="16.29721"><ele>655.0</ele><time>2026-04-27T11:34:51.669Z</time></trkpt><trkpt lat="38.988255" lon="16.2971967"><ele>655.0</ele><time>2026-04-27T11:34:52.67Z</time></trkpt><trkpt lat="38.98816" lon="16.2971983"><ele>651.6</ele><time>2026-04-27T11:34:53.672Z</time></trkpt><trkpt lat="38.988075" lon="16.2972167"><ele>648.2</ele><time>2026-04-27T11:34:54.676Z</time></trkpt><trkpt lat="38.9879983" lon="16.297295"><ele>644.8</ele><time>2026-04-27T11:34:55.671Z</time></trkpt><trkpt lat="38.9879217" lon="16.297405"><ele>641.4</ele><time>2026-04-27T11:34:56.735Z</time></trkpt><trkpt lat="38.9878483" lon="16.297545"><ele>638.0</ele><time>2026-04-27T11:34:57.668Z</time></trkpt><trkpt lat="38.987765" lon="16.297695"><ele>638.0</ele><time>2026-04-27T11:34:58.675Z</time></trkpt><trkpt lat="38.9876783" lon="16.297845"><ele>638.0</ele><time>2026-04-27T11:34:59.669Z</time></trkpt><trkpt lat="38.9875817" lon="16.2979767"><ele>638.0</ele><time>2026-04-27T11:35:00.677Z</time></trkpt><trkpt lat="38.9874767" lon="16.298085"><ele>638.0</ele><time>2026-04-27T11:35:01.67Z</time></trkpt><trkpt lat="38.987375" lon="16.2981767"><ele>632.5</ele><time>2026-04-27T11:35:02.736Z</time></trkpt><trkpt lat="38.9872733" lon="16.2982567"><ele>627.0</ele><time>2026-04-27T11:35:03.671Z</time></trkpt><trkpt lat="38.98717" lon="16.298315"><ele>621.5</ele><time>2026-04-27T11:35:04.677Z</time></trkpt><trkpt lat="38.98705" lon="16.2983517"><ele>616.0</ele><time>2026-04-27T11:35:05.668Z</time></trkpt><trkpt lat="38.9869167" lon="16.298385"><ele>616.0</ele><time>2026-04-27T11:35:06.672Z</time></trkpt><trkpt lat="38.9867717" lon="16.2984167"><ele>616.0</ele><time>2026-04-27T11:35:07.67Z</time></trkpt><trkpt lat="38.9866217" lon="16.2984517"><ele>616.0</ele><time>2026-04-27T11:35:08.719Z</time></trkpt><trkpt lat="38.9864867" lon="16.2984683"><ele>616.0</ele><time>2026-04-27T11:35:09.674Z</time></trkpt><trkpt lat="38.9863733" lon="16.2984717"><ele>614.6</ele><time>2026-04-27T11:35:10.669Z</time></trkpt><trkpt lat="38.986275" lon="16.2984833"><ele>613.2</ele><time>2026-04-27T11:35:11.666Z</time></trkpt><trkpt lat="38.9861833" lon="16.29851"><ele>611.8</ele><time>2026-04-27T11:35:12.676Z</time></trkpt><trkpt lat="38.9861333" lon="16.2986183"><ele>610.4</ele><time>2026-04-27T11:35:13.673Z</time></trkpt><trkpt lat="38.9860983" lon="16.2987667"><ele>609.0</ele><time>2026-04-27T11:35:14.719Z</time></trkpt><trkpt lat="38.98607" lon="16.2989333"><ele>607.6</ele><time>2026-04-27T11:35:15.668Z</time></trkpt><trkpt lat="38.986035" lon="16.299095"><ele>606.2</ele><time>2026-04-27T11:35:16.665Z</time></trkpt><trkpt lat="38.9859967" lon="16.299235"><ele>604.8000000000001</ele><time>2026-04-27T11:35:17.674Z</time></trkpt><trkpt lat="38.9859533" lon="16.299345"><ele>603.4</ele><time>2026-04-27T11:35:18.671Z</time></trkpt><trkpt lat="38.9859017" lon="16.2994283"><ele>602.0</ele><time>2026-04-27T11:35:19.674Z</time></trkpt><trkpt lat="38.985825" lon="16.2994517"><ele>601.0</ele><time>2026-04-27T11:35:20.716Z</time></trkpt><trkpt lat="38.9857217" lon="16.2993933"><ele>600.0</ele><time>2026-04-27T11:35:21.665Z</time></trkpt><trkpt lat="38.9856633" lon="16.29909"><ele>599.0</ele><time>2026-04-27T11:35:22.669Z</time></trkpt><trkpt lat="38.9856017" lon="16.2989683"><ele>599.25</ele><time>2026-04-27T11:35:23.666Z</time></trkpt><trkpt lat="38.9855367" lon="16.298825"><ele>599.5</ele><time>2026-04-27T11:35:24.675Z</time></trkpt><trkpt lat="38.9854883" lon="16.29865"><ele>599.75</ele><time>2026-04-27T11:35:25.671Z</time></trkpt><trkpt lat="38.9854333" lon="16.2984583"><ele>600.0</ele><time>2026-04-27T11:35:26.736Z</time></trkpt><trkpt lat="38.9853783" lon="16.298255"><ele>595.6666666666666</ele><time>2026-04-27T11:35:27.669Z</time></trkpt><trkpt lat="38.9853217" lon="16.298045"><ele>591.3333333333333</ele><time>2026-04-27T11:35:28.672Z</time></trkpt><trkpt lat="38.9852783" lon="16.2978483"><ele>587.0</ele><time>2026-04-27T11:35:29.666Z</time></trkpt><trkpt lat="38.98525" lon="16.2976717"><ele>587.0</ele><time>2026-04-27T11:35:30.663Z</time></trkpt><trkpt lat="38.9852333" lon="16.297535"><ele>587.0</ele><time>2026-04-27T11:35:31.666Z</time></trkpt><trkpt lat="38.985295" lon="16.2974533"><ele>587.0</ele><time>2026-04-27T11:35:32.726Z</time></trkpt><trkpt lat="38.98536" lon="16.2973783"><ele>587.0</ele><time>2026-04-27T11:35:33.666Z</time></trkpt><trkpt lat="38.985445" lon="16.2973217"><ele>587.0</ele><time>2026-04-27T11:35:34.662Z</time></trkpt><trkpt lat="38.985555" lon="16.2972783"><ele>587.0</ele><time>2026-04-27T11:35:35.667Z</time></trkpt><trkpt lat="38.9856733" lon="16.297255"><ele>587.0</ele><time>2026-04-27T11:35:36.671Z</time></trkpt><trkpt lat="38.9857733" lon="16.2972267"><ele>587.0</ele><time>2026-04-27T11:35:37.672Z</time></trkpt><trkpt lat="38.9858583" lon="16.2971917"><ele>587.0</ele><time>2026-04-27T11:35:38.729Z</time></trkpt><trkpt lat="38.9859233" lon="16.2971617"><ele>587.0</ele><time>2026-04-27T11:35:39.668Z</time></trkpt><trkpt lat="38.9858" lon="16.2971133"><ele>582.25</ele><time>2026-04-27T11:35:42.668Z</time></trkpt><trkpt lat="38.9857333" lon="16.2970917"><ele>577.5</ele><time>2026-04-27T11:35:43.668Z</time></trkpt><trkpt lat="38.9855667" lon="16.2970817"><ele>572.75</ele><time>2026-04-27T11:35:44.717Z</time></trkpt><trkpt lat="38.985405" lon="16.2970767"><ele>568.0</ele><time>2026-04-27T11:35:45.673Z</time></trkpt><trkpt lat="38.9852317" lon="16.2970817"><ele>568.0</ele><time>2026-04-27T11:35:46.673Z</time></trkpt><trkpt lat="38.98505" lon="16.2971117"><ele>568.0</ele><time>2026-04-27T11:35:47.666Z</time></trkpt><trkpt lat="38.9848733" lon="16.2971683"><ele>568.0</ele><time>2026-04-27T11:35:48.687Z</time></trkpt><trkpt lat="38.9847033" lon="16.2972433"><ele>569.3333333333334</ele><time>2026-04-27T11:35:49.675Z</time></trkpt><trkpt lat="38.9845367" lon="16.2973483"><ele>570.6666666666666</ele><time>2026-04-27T11:35:50.728Z</time></trkpt><trkpt lat="38.9843933" lon="16.2974667"><ele>572.0</ele><time>2026-04-27T11:35:51.673Z</time></trkpt><trkpt lat="38.98429" lon="16.2976083"><ele>572.0</ele><time>2026-04-27T11:35:52.668Z</time></trkpt><trkpt lat="38.9842267" lon="16.297765"><ele>572.0</ele><time>2026-04-27T11:35:53.668Z</time></trkpt><trkpt lat="38.984155" lon="16.2979267"><ele>572.0</ele><time>2026-04-27T11:35:54.676Z</time></trkpt><trkpt lat="38.984085" lon="16.2980817"><ele>572.0</ele><time>2026-04-27T11:35:55.672Z</time></trkpt><trkpt lat="38.9840017" lon="16.2982283"><ele>564.3333333333333</ele><time>2026-04-27T11:35:56.736Z</time></trkpt><trkpt lat="38.9838917" lon="16.29838"><ele>556.6666666666666</ele><time>2026-04-27T11:35:57.667Z</time></trkpt><trkpt lat="38.9837667" lon="16.2985033"><ele>549.0</ele><time>2026-04-27T11:35:58.667Z</time></trkpt><trkpt lat="38.98363" lon="16.2986133"><ele>549.0</ele><time>2026-04-27T11:35:59.669Z</time></trkpt><trkpt lat="38.9834917" lon="16.2987117"><ele>549.0</ele><time>2026-04-27T11:36:00.671Z</time></trkpt><trkpt lat="38.9833617" lon="16.2988067"><ele>549.0</ele><time>2026-04-27T11:36:01.673Z</time></trkpt><trkpt lat="38.98325" lon="16.298905"><ele>549.0</ele><time>2026-04-27T11:36:02.737Z</time></trkpt><trkpt lat="38.9831933" lon="16.299025"><ele>544.0</ele><time>2026-04-27T11:36:03.668Z</time></trkpt><trkpt lat="38.9831483" lon="16.299165"><ele>539.0</ele><time>2026-04-27T11:36:04.672Z</time></trkpt><trkpt lat="38.98311" lon="16.2993283"><ele>534.0</ele><time>2026-04-27T11:36:05.665Z</time></trkpt><trkpt lat="38.9830683" lon="16.2995033"><ele>529.0</ele><time>2026-04-27T11:36:06.668Z</time></trkpt><trkpt lat="38.9830117" lon="16.299675"><ele>530.5</ele><time>2026-04-27T11:36:07.672Z</time></trkpt><trkpt lat="38.9829367" lon="16.2998317"><ele>532.0</ele><time>2026-04-27T11:36:08.717Z</time></trkpt><trkpt lat="38.9828367" lon="16.2999683"><ele>533.5</ele><time>2026-04-27T11:36:09.668Z</time></trkpt><trkpt lat="38.9827217" lon="16.300095"><ele>535.0</ele><time>2026-04-27T11:36:10.665Z</time></trkpt><trkpt lat="38.9826017" lon="16.3002283"><ele>532.0</ele><time>2026-04-27T11:36:11.674Z</time></trkpt><trkpt lat="38.9824783" lon="16.3003867"><ele>529.0</ele><time>2026-04-27T11:36:12.68Z</time></trkpt><trkpt lat="38.9823583" lon="16.30054"><ele>526.0</ele><time>2026-04-27T11:36:13.667Z</time></trkpt><trkpt lat="38.9822333" lon="16.3006783"><ele>526.0</ele><time>2026-04-27T11:36:14.722Z</time></trkpt><trkpt lat="38.982095" lon="16.3008117"><ele>526.0</ele><time>2026-04-27T11:36:15.668Z</time></trkpt><trkpt lat="38.9819483" lon="16.300935"><ele>526.0</ele><time>2026-04-27T11:36:16.675Z</time></trkpt><trkpt lat="38.9817933" lon="16.3010583"><ele>519.6666666666667</ele><time>2026-04-27T11:36:17.677Z</time></trkpt><trkpt lat="38.9816383" lon="16.3011783"><ele>513.3333333333334</ele><time>2026-04-27T11:36:18.669Z</time></trkpt><trkpt lat="38.9814817" lon="16.3012883"><ele>507.0</ele><time>2026-04-27T11:36:19.677Z</time></trkpt><trkpt lat="38.9813283" lon="16.301395"><ele>511.33333333333337</ele><time>2026-04-27T11:36:20.719Z</time></trkpt><trkpt lat="38.98118" lon="16.3014933"><ele>515.6666666666667</ele><time>2026-04-27T11:36:21.67Z</time></trkpt><trkpt lat="38.9810383" lon="16.301585"><ele>520.0</ele><time>2026-04-27T11:36:22.673Z</time></trkpt><trkpt lat="38.9809067" lon="16.3016633"><ele>516.2</ele><time>2026-04-27T11:36:23.67Z</time></trkpt><trkpt lat="38.9807867" lon="16.3017417"><ele>512.4</ele><time>2026-04-27T11:36:24.678Z</time></trkpt><trkpt lat="38.9806967" lon="16.301815"><ele>508.6</ele><time>2026-04-27T11:36:25.673Z</time></trkpt><trkpt lat="38.98063" lon="16.301895"><ele>504.8</ele><time>2026-04-27T11:36:26.731Z</time></trkpt><trkpt lat="38.9805933" lon="16.3020117"><ele>501.0</ele><time>2026-04-27T11:36:27.67Z</time></trkpt><trkpt lat="38.9805567" lon="16.3021517"><ele>502.0</ele><time>2026-04-27T11:36:28.676Z</time></trkpt><trkpt lat="38.9805167" lon="16.3023083"><ele>503.0</ele><time>2026-04-27T11:36:29.673Z</time></trkpt><trkpt lat="38.9804667" lon="16.30247"><ele>504.0</ele><time>2026-04-27T11:36:30.675Z</time></trkpt><trkpt lat="38.980405" lon="16.3026283"><ele>505.0</ele><time>2026-04-27T11:36:31.669Z</time></trkpt><trkpt lat="38.9803267" lon="16.302775"><ele>505.0</ele><time>2026-04-27T11:36:32.737Z</time></trkpt><trkpt lat="38.9802417" lon="16.3029133"><ele>505.0</ele><time>2026-04-27T11:36:33.665Z</time></trkpt><trkpt lat="38.9801633" lon="16.3030433"><ele>505.0</ele><time>2026-04-27T11:36:34.674Z</time></trkpt><trkpt lat="38.980095" lon="16.303175"><ele>505.0</ele><time>2026-04-27T11:36:35.672Z</time></trkpt><trkpt lat="38.9800533" lon="16.3033067"><ele>504.0</ele><time>2026-04-27T11:36:36.674Z</time></trkpt><trkpt lat="38.98005" lon="16.30345"><ele>503.0</ele><time>2026-04-27T11:36:37.674Z</time></trkpt><trkpt lat="38.9800933" lon="16.3036067"><ele>502.0</ele><time>2026-04-27T11:36:38.716Z</time></trkpt><trkpt lat="38.9801667" lon="16.3037683"><ele>501.0</ele><time>2026-04-27T11:36:39.67Z</time></trkpt><trkpt lat="38.9802483" lon="16.303895"><ele>494.75</ele><time>2026-04-27T11:36:40.671Z</time></trkpt><trkpt lat="38.980345" lon="16.3039867"><ele>488.5</ele><time>2026-04-27T11:36:41.671Z</time></trkpt><trkpt lat="38.98046" lon="16.3040083"><ele>482.25</ele><time>2026-04-27T11:36:42.668Z</time></trkpt><trkpt lat="38.9805817" lon="16.3040267"><ele>476.0</ele><time>2026-04-27T11:36:43.669Z</time></trkpt><trkpt lat="38.9807067" lon="16.3040267"><ele>476.0</ele><time>2026-04-27T11:36:44.72Z</time></trkpt><trkpt lat="38.9808367" lon="16.3040117"><ele>476.0</ele><time>2026-04-27T11:36:45.669Z</time></trkpt><trkpt lat="38.980985" lon="16.3039867"><ele>476.0</ele><time>2026-04-27T11:36:46.671Z</time></trkpt><trkpt lat="38.981135" lon="16.30396"><ele>476.0</ele><time>2026-04-27T11:36:47.671Z</time></trkpt><trkpt lat="38.9812833" lon="16.303945"><ele>473.75</ele><time>2026-04-27T11:36:48.674Z</time></trkpt><trkpt lat="38.9814267" lon="16.303925"><ele>471.5</ele><time>2026-04-27T11:36:49.67Z</time></trkpt><trkpt lat="38.9815717" lon="16.3039033"><ele>469.25</ele><time>2026-04-27T11:36:50.719Z</time></trkpt><trkpt lat="38.98172" lon="16.3038917"><ele>467.0</ele><time>2026-04-27T11:36:51.668Z</time></trkpt><trkpt lat="38.9818617" lon="16.3038767"><ele>466.25</ele><time>2026-04-27T11:36:52.677Z</time></trkpt><trkpt lat="38.9819967" lon="16.303865"><ele>465.5</ele><time>2026-04-27T11:36:53.674Z</time></trkpt><trkpt lat="38.982105" lon="16.3038633"><ele>464.75</ele><time>2026-04-27T11:36:54.675Z</time></trkpt><trkpt lat="38.982215" lon="16.303885"><ele>464.0</ele><time>2026-04-27T11:36:55.668Z</time></trkpt><trkpt lat="38.9823067" lon="16.3039283"><ele>464.0</ele><time>2026-04-27T11:36:56.735Z</time></trkpt><trkpt lat="38.9823967" lon="16.304"><ele>464.0</ele><time>2026-04-27T11:36:57.673Z</time></trkpt><trkpt lat="38.9824517" lon="16.3041083"><ele>464.0</ele><time>2026-04-27T11:36:58.675Z</time></trkpt><trkpt lat="38.982535" lon="16.304215"><ele>464.0</ele><time>2026-04-27T11:36:59.664Z</time></trkpt><trkpt lat="38.98262" lon="16.3043167"><ele>464.0</ele><time>2026-04-27T11:37:00.669Z</time></trkpt><trkpt lat="38.982695" lon="16.3044067"><ele>464.4</ele><time>2026-04-27T11:37:01.675Z</time></trkpt><trkpt lat="38.9827633" lon="16.3044817"><ele>464.79999999999995</ele><time>2026-04-27T11:37:02.737Z</time></trkpt><trkpt lat="38.982815" lon="16.3045517"><ele>465.20000000000005</ele><time>2026-04-27T11:37:03.665Z</time></trkpt><trkpt lat="38.9827667" lon="16.3046167"><ele>465.6</ele><time>2026-04-27T11:37:05.671Z</time></trkpt><trkpt lat="38.9826283" lon="16.3046233"><ele>466.0</ele><time>2026-04-27T11:37:07.675Z</time></trkpt><trkpt lat="38.9825433" lon="16.3046067"><ele>466.00000000000006</ele><time>2026-04-27T11:37:08.718Z</time></trkpt><trkpt lat="38.9824583" lon="16.3045967"><ele>466.0</ele><time>2026-04-27T11:37:09.67Z</time></trkpt><trkpt lat="38.98239" lon="16.3045883"><ele>466.0</ele><time>2026-04-27T11:37:10.671Z</time></trkpt><trkpt lat="38.98247" lon="16.3046733"><ele>466.0</ele><time>2026-04-27T11:37:13.664Z</time></trkpt><trkpt lat="38.98254" lon="16.3047383"><ele>466.00000000000006</ele><time>2026-04-27T11:37:15.668Z</time></trkpt><trkpt lat="38.9825267" lon="16.304855"><ele>466.0</ele><time>2026-04-27T11:37:18.673Z</time></trkpt><trkpt lat="38.9824717" lon="16.3049067"><ele>460.6</ele><time>2026-04-27T11:37:19.666Z</time></trkpt><trkpt lat="38.9824" lon="16.3049717"><ele>455.20000000000005</ele><time>2026-04-27T11:37:20.719Z</time></trkpt><trkpt lat="38.98231" lon="16.30504"><ele>449.79999999999995</ele><time>2026-04-27T11:37:21.666Z</time></trkpt><trkpt lat="38.98221" lon="16.3050833"><ele>444.4</ele><time>2026-04-27T11:37:22.67Z</time></trkpt><trkpt lat="38.9820833" lon="16.305125"><ele>439.0</ele><time>2026-04-27T11:37:23.673Z</time></trkpt><trkpt lat="38.98198" lon="16.3051567"><ele>439.0</ele><time>2026-04-27T11:37:24.678Z</time></trkpt><trkpt lat="38.9818617" lon="16.30519"><ele>439.0</ele><time>2026-04-27T11:37:25.67Z</time></trkpt><trkpt lat="38.9817683" lon="16.3052067"><ele>439.0</ele><time>2026-04-27T11:37:26.735Z</time></trkpt><trkpt lat="38.9816767" lon="16.30523"><ele>439.0</ele><time>2026-04-27T11:37:27.663Z</time></trkpt><trkpt lat="38.9816" lon="16.30526"><ele>439.0</ele><time>2026-04-27T11:37:28.663Z</time></trkpt><trkpt lat="38.98153" lon="16.305285"><ele>439.0</ele><time>2026-04-27T11:37:29.667Z</time></trkpt><trkpt lat="38.981585" lon="16.3054033"><ele>439.0</ele><time>2026-04-27T11:37:31.663Z</time></trkpt><trkpt lat="38.98167" lon="16.3054633"><ele>439.0</ele><time>2026-04-27T11:37:32.725Z</time></trkpt><trkpt lat="38.9817617" lon="16.3055333"><ele>439.0</ele><time>2026-04-27T11:37:33.664Z</time></trkpt><trkpt lat="38.9818533" lon="16.3056067"><ele>439.0</ele><time>2026-04-27T11:37:34.666Z</time></trkpt><trkpt lat="38.98192" lon="16.30568"><ele>435.4</ele><time>2026-04-27T11:37:35.668Z</time></trkpt><trkpt lat="38.9819683" lon="16.30575"><ele>431.79999999999995</ele><time>2026-04-27T11:37:36.672Z</time></trkpt><trkpt lat="38.98186" lon="16.3058267"><ele>428.20000000000005</ele><time>2026-04-27T11:37:38.725Z</time></trkpt><trkpt lat="38.9817833" lon="16.30585"><ele>424.6</ele><time>2026-04-27T11:37:39.661Z</time></trkpt><trkpt lat="38.98169" lon="16.305875"><ele>421.0</ele><time>2026-04-27T11:37:40.666Z</time></trkpt><trkpt lat="38.9815867" lon="16.3059033"><ele>420.25</ele><time>2026-04-27T11:37:41.665Z</time></trkpt><trkpt lat="38.981475" lon="16.305945"><ele>419.5</ele><time>2026-04-27T11:37:42.664Z</time></trkpt><trkpt lat="38.9813567" lon="16.306005"><ele>418.75</ele><time>2026-04-27T11:37:43.662Z</time></trkpt><trkpt lat="38.9812383" lon="16.3060817"><ele>418.0</ele><time>2026-04-27T11:37:44.715Z</time></trkpt><trkpt lat="38.9811183" lon="16.306165"><ele>418.0</ele><time>2026-04-27T11:37:45.663Z</time></trkpt><trkpt lat="38.9809983" lon="16.3062483"><ele>418.0</ele><time>2026-04-27T11:37:46.669Z</time></trkpt><trkpt lat="38.9808867" lon="16.306335"><ele>418.0</ele><time>2026-04-27T11:37:47.67Z</time></trkpt><trkpt lat="38.9807933" lon="16.3064133"><ele>418.0</ele><time>2026-04-27T11:37:48.668Z</time></trkpt><trkpt lat="38.98071" lon="16.30647"><ele>411.75</ele><time>2026-04-27T11:37:49.664Z</time></trkpt><trkpt lat="38.9806133" lon="16.306525"><ele>405.5</ele><time>2026-04-27T11:37:50.717Z</time></trkpt><trkpt lat="38.9804967" lon="16.3065717"><ele>399.25</ele><time>2026-04-27T11:37:51.671Z</time></trkpt><trkpt lat="38.980365" lon="16.30663"><ele>393.0</ele><time>2026-04-27T11:37:52.674Z</time></trkpt><trkpt lat="38.9802183" lon="16.30668"><ele>393.0</ele><time>2026-04-27T11:37:53.667Z</time></trkpt><trkpt lat="38.9800767" lon="16.306725"><ele>393.0</ele><time>2026-04-27T11:37:54.672Z</time></trkpt><trkpt lat="38.9799433" lon="16.3067817"><ele>393.0</ele><time>2026-04-27T11:37:55.663Z</time></trkpt><trkpt lat="38.9798133" lon="16.306845"><ele>393.0</ele><time>2026-04-27T11:37:56.727Z</time></trkpt><trkpt lat="38.9796933" lon="16.3068983"><ele>392.75</ele><time>2026-04-27T11:37:57.664Z</time></trkpt><trkpt lat="38.9795667" lon="16.30694"><ele>392.5</ele><time>2026-04-27T11:37:58.664Z</time></trkpt><trkpt lat="38.9794233" lon="16.3069683"><ele>392.25</ele><time>2026-04-27T11:37:59.669Z</time></trkpt><trkpt lat="38.9792817" lon="16.3069767"><ele>392.0</ele><time>2026-04-27T11:38:00.669Z</time></trkpt><trkpt lat="38.9791333" lon="16.3069717"><ele>390.3333333333333</ele><time>2026-04-27T11:38:01.669Z</time></trkpt><trkpt lat="38.9789733" lon="16.3069683"><ele>388.66666666666663</ele><time>2026-04-27T11:38:02.73Z</time></trkpt><trkpt lat="38.9788083" lon="16.3069767"><ele>387.0</ele><time>2026-04-27T11:38:03.669Z</time></trkpt><trkpt lat="38.9786533" lon="16.30699"><ele>387.0</ele><time>2026-04-27T11:38:04.67Z</time></trkpt><trkpt lat="38.9785167" lon="16.3070067"><ele>387.0</ele><time>2026-04-27T11:38:05.672Z</time></trkpt><trkpt lat="38.9784" lon="16.30703"><ele>387.0</ele><time>2026-04-27T11:38:06.673Z</time></trkpt><trkpt lat="38.978295" lon="16.3070717"><ele>387.0</ele><time>2026-04-27T11:38:07.668Z</time></trkpt><trkpt lat="38.9782033" lon="16.307125"><ele>383.75</ele><time>2026-04-27T11:38:08.724Z</time></trkpt><trkpt lat="38.9781167" lon="16.3072067"><ele>380.5</ele><time>2026-04-27T11:38:09.664Z</time></trkpt><trkpt lat="38.9780267" lon="16.307315"><ele>377.25</ele><time>2026-04-27T11:38:10.675Z</time></trkpt><trkpt lat="38.9779317" lon="16.307435"><ele>374.0</ele><time>2026-04-27T11:38:11.669Z</time></trkpt><trkpt lat="38.9778317" lon="16.3075633"><ele>369.75</ele><time>2026-04-27T11:38:12.667Z</time></trkpt><trkpt lat="38.9777283" lon="16.3076983"><ele>365.5</ele><time>2026-04-27T11:38:13.673Z</time></trkpt><trkpt lat="38.9776267" lon="16.3078317"><ele>361.25</ele><time>2026-04-27T11:38:14.716Z</time></trkpt><trkpt lat="38.9775233" lon="16.3079667"><ele>357.0</ele><time>2026-04-27T11:38:15.668Z</time></trkpt><trkpt lat="38.977425" lon="16.3080883"><ele>353.40000000000003</ele><time>2026-04-27T11:38:16.671Z</time></trkpt><trkpt lat="38.9773317" lon="16.3082083"><ele>349.8</ele><time>2026-04-27T11:38:17.669Z</time></trkpt><trkpt lat="38.9772417" lon="16.308305"><ele>346.2</ele><time>2026-04-27T11:38:18.668Z</time></trkpt><trkpt lat="38.9771533" lon="16.3083633"><ele>342.6</ele><time>2026-04-27T11:38:19.673Z</time></trkpt><trkpt lat="38.9770633" lon="16.3083833"><ele>339.0</ele><time>2026-04-27T11:38:20.727Z</time></trkpt><trkpt lat="38.9769783" lon="16.308375"><ele>339.0</ele><time>2026-04-27T11:38:21.67Z</time></trkpt><trkpt lat="38.9768983" lon="16.308345"><ele>339.0</ele><time>2026-04-27T11:38:22.672Z</time></trkpt><trkpt lat="38.976855" lon="16.30824"><ele>339.0</ele><time>2026-04-27T11:38:23.678Z</time></trkpt><trkpt lat="38.9768267" lon="16.3081067"><ele>339.0</ele><time>2026-04-27T11:38:24.678Z</time></trkpt><trkpt lat="38.9768033" lon="16.30795"><ele>339.0</ele><time>2026-04-27T11:38:25.672Z</time></trkpt><trkpt lat="38.9767883" lon="16.3077617"><ele>342.6666666666667</ele><time>2026-04-27T11:38:26.729Z</time></trkpt><trkpt lat="38.97677" lon="16.3075533"><ele>346.33333333333337</ele><time>2026-04-27T11:38:27.665Z</time></trkpt><trkpt lat="38.9767383" lon="16.3073533"><ele>350.0</ele><time>2026-04-27T11:38:28.664Z</time></trkpt><trkpt lat="38.9766883" lon="16.3071633"><ele>345.75</ele><time>2026-04-27T11:38:29.669Z</time></trkpt><trkpt lat="38.9766217" lon="16.3069917"><ele>341.5</ele><time>2026-04-27T11:38:30.673Z</time></trkpt><trkpt lat="38.9765367" lon="16.306835"><ele>337.25</ele><time>2026-04-27T11:38:31.667Z</time></trkpt><trkpt lat="38.9764467" lon="16.3066817"><ele>333.0</ele><time>2026-04-27T11:38:32.728Z</time></trkpt><trkpt lat="38.9763433" lon="16.3065317"><ele>334.6666666666667</ele><time>2026-04-27T11:38:33.666Z</time></trkpt><trkpt lat="38.9762333" lon="16.3063767"><ele>336.33333333333337</ele><time>2026-04-27T11:38:34.669Z</time></trkpt><trkpt lat="38.9761283" lon="16.3062233"><ele>338.0</ele><time>2026-04-27T11:38:35.673Z</time></trkpt><trkpt lat="38.9760333" lon="16.306075"><ele>338.0</ele><time>2026-04-27T11:38:36.673Z</time></trkpt><trkpt lat="38.975955" lon="16.3059367"><ele>338.0</ele><time>2026-04-27T11:38:37.668Z</time></trkpt><trkpt lat="38.9759067" lon="16.3058017"><ele>338.0</ele><time>2026-04-27T11:38:38.723Z</time></trkpt><trkpt lat="38.975885" lon="16.3056433"><ele>338.0</ele><time>2026-04-27T11:38:39.667Z</time></trkpt><trkpt lat="38.97587" lon="16.3054767"><ele>338.0</ele><time>2026-04-27T11:38:40.673Z</time></trkpt><trkpt lat="38.975855" lon="16.3053283"><ele>338.0</ele><time>2026-04-27T11:38:41.665Z</time></trkpt><trkpt lat="38.97583" lon="16.305205"><ele>338.0</ele><time>2026-04-27T11:38:42.667Z</time></trkpt><trkpt lat="38.9758017" lon="16.3051083"><ele>338.0</ele><time>2026-04-27T11:38:43.675Z</time></trkpt><trkpt lat="38.9757083" lon="16.305015"><ele>338.0</ele><time>2026-04-27T11:38:45.663Z</time></trkpt><trkpt lat="38.9755633" lon="16.3050433"><ele>331.75</ele><time>2026-04-27T11:38:47.667Z</time></trkpt><trkpt lat="38.9754633" lon="16.3051133"><ele>325.5</ele><time>2026-04-27T11:38:48.676Z</time></trkpt><trkpt lat="38.9753683" lon="16.3052233"><ele>319.25</ele><time>2026-04-27T11:38:49.674Z</time></trkpt><trkpt lat="38.975275" lon="16.305345"><ele>313.0</ele><time>2026-04-27T11:38:50.719Z</time></trkpt><trkpt lat="38.97521" lon="16.30543"><ele>313.0</ele><time>2026-04-27T11:38:51.668Z</time></trkpt><trkpt lat="38.97515" lon="16.305555"><ele>313.0</ele><time>2026-04-27T11:38:52.668Z</time></trkpt><trkpt lat="38.97509" lon="16.3056817"><ele>313.0</ele><time>2026-04-27T11:38:53.668Z</time></trkpt><trkpt lat="38.9750483" lon="16.3058267"><ele>313.0</ele><time>2026-04-27T11:38:54.677Z</time></trkpt><trkpt lat="38.9750017" lon="16.3059583"><ele>308.75</ele><time>2026-04-27T11:38:55.674Z</time></trkpt><trkpt lat="38.9749667" lon="16.3061117"><ele>304.5</ele><time>2026-04-27T11:38:56.731Z</time></trkpt><trkpt lat="38.97494" lon="16.306275"><ele>300.25</ele><time>2026-04-27T11:38:57.67Z</time></trkpt><trkpt lat="38.9749417" lon="16.3064883"><ele>296.0</ele><time>2026-04-27T11:38:58.676Z</time></trkpt><trkpt lat="38.9749583" lon="16.3066883"><ele>295.0</ele><time>2026-04-27T11:38:59.672Z</time></trkpt><trkpt lat="38.9749783" lon="16.3068883"><ele>294.0</ele><time>2026-04-27T11:39:00.675Z</time></trkpt><trkpt lat="38.97499" lon="16.3070917"><ele>293.0</ele><time>2026-04-27T11:39:01.667Z</time></trkpt><trkpt lat="38.975" lon="16.3072917"><ele>291.75</ele><time>2026-04-27T11:39:02.734Z</time></trkpt><trkpt lat="38.9750083" lon="16.3074833"><ele>290.5</ele><time>2026-04-27T11:39:03.667Z</time></trkpt><trkpt lat="38.97501" lon="16.3076683"><ele>289.25</ele><time>2026-04-27T11:39:04.668Z</time></trkpt><trkpt lat="38.9750033" lon="16.3078517"><ele>288.0</ele><time>2026-04-27T11:39:05.673Z</time></trkpt><trkpt lat="38.9749917" lon="16.3080267"><ele>286.75</ele><time>2026-04-27T11:39:06.674Z</time></trkpt><trkpt lat="38.9749717" lon="16.3082"><ele>285.5</ele><time>2026-04-27T11:39:07.675Z</time></trkpt><trkpt lat="38.9749433" lon="16.3083683"><ele>284.25</ele><time>2026-04-27T11:39:08.717Z</time></trkpt><trkpt lat="38.9749183" lon="16.30853"><ele>283.0</ele><time>2026-04-27T11:39:09.67Z</time></trkpt><trkpt lat="38.974895" lon="16.3086883"><ele>283.0</ele><time>2026-04-27T11:39:10.666Z</time></trkpt><trkpt lat="38.9748917" lon="16.3088483"><ele>283.0</ele><time>2026-04-27T11:39:11.672Z</time></trkpt><trkpt lat="38.9749033" lon="16.3090167"><ele>283.0</ele><time>2026-04-27T11:39:12.676Z</time></trkpt><trkpt lat="38.974925" lon="16.3091867"><ele>283.0</ele><time>2026-04-27T11:39:13.67Z</time></trkpt><trkpt lat="38.9749567" lon="16.3093533"><ele>283.0</ele><time>2026-04-27T11:39:14.723Z</time></trkpt><trkpt lat="38.9749983" lon="16.3095133"><ele>283.0</ele><time>2026-04-27T11:39:15.662Z</time></trkpt><trkpt lat="38.9750567" lon="16.3096733"><ele>283.0</ele><time>2026-04-27T11:39:16.668Z</time></trkpt><trkpt lat="38.9751283" lon="16.309825"><ele>283.0</ele><time>2026-04-27T11:39:17.67Z</time></trkpt><trkpt lat="38.9752083" lon="16.3099633"><ele>283.0</ele><time>2026-04-27T11:39:18.675Z</time></trkpt><trkpt lat="38.9752867" lon="16.3100817"><ele>283.0</ele><time>2026-04-27T11:39:19.67Z</time></trkpt><trkpt lat="38.9753283" lon="16.3101633"><ele>283.0</ele><time>2026-04-27T11:39:20.712Z</time></trkpt><trkpt lat="38.9753583" lon="16.3102683"><ele>283.0</ele><time>2026-04-27T11:39:22.67Z</time></trkpt><trkpt lat="38.9752433" lon="16.310265"><ele>283.0</ele><time>2026-04-27T11:39:24.672Z</time></trkpt><trkpt lat="38.9751333" lon="16.3102167"><ele>278.66666666666663</ele><time>2026-04-27T11:39:25.673Z</time></trkpt><trkpt lat="38.9749767" lon="16.3101583"><ele>274.3333333333333</ele><time>2026-04-27T11:39:26.735Z</time></trkpt><trkpt lat="38.9748317" lon="16.3101283"><ele>270.0</ele><time>2026-04-27T11:39:27.668Z</time></trkpt><trkpt lat="38.9746883" lon="16.3101067"><ele>270.0</ele><time>2026-04-27T11:39:28.672Z</time></trkpt><trkpt lat="38.9745467" lon="16.3100617"><ele>270.0</ele><time>2026-04-27T11:39:29.668Z</time></trkpt><trkpt lat="38.974425" lon="16.310015"><ele>270.0</ele><time>2026-04-27T11:39:30.666Z</time></trkpt><trkpt lat="38.9743117" lon="16.30996"><ele>270.0</ele><time>2026-04-27T11:39:31.673Z</time></trkpt><trkpt lat="38.974215" lon="16.309925"><ele>267.6</ele><time>2026-04-27T11:39:32.731Z</time></trkpt><trkpt lat="38.97415" lon="16.3099217"><ele>265.2</ele><time>2026-04-27T11:39:33.663Z</time></trkpt><trkpt lat="38.974085" lon="16.3099717"><ele>262.8</ele><time>2026-04-27T11:39:34.675Z</time></trkpt><trkpt lat="38.9740067" lon="16.3100617"><ele>260.4</ele><time>2026-04-27T11:39:35.669Z</time></trkpt><trkpt lat="38.9739117" lon="16.3101683"><ele>258.0</ele><time>2026-04-27T11:39:36.674Z</time></trkpt><trkpt lat="38.973805" lon="16.3102833"><ele>258.0</ele><time>2026-04-27T11:39:37.67Z</time></trkpt><trkpt lat="38.97369" lon="16.3104"><ele>258.0</ele><time>2026-04-27T11:39:38.717Z</time></trkpt><trkpt lat="38.9735817" lon="16.31051"><ele>258.0</ele><time>2026-04-27T11:39:39.674Z</time></trkpt><trkpt lat="38.9734733" lon="16.3106267"><ele>258.0</ele><time>2026-04-27T11:39:40.67Z</time></trkpt><trkpt lat="38.97337" lon="16.3107317"><ele>252.75</ele><time>2026-04-27T11:39:41.671Z</time></trkpt><trkpt lat="38.9732633" lon="16.3108417"><ele>247.5</ele><time>2026-04-27T11:39:42.668Z</time></trkpt><trkpt lat="38.9731633" lon="16.3109483"><ele>242.25</ele><time>2026-04-27T11:39:43.672Z</time></trkpt><trkpt lat="38.97306" lon="16.311055"><ele>237.0</ele><time>2026-04-27T11:39:44.724Z</time></trkpt><trkpt lat="38.97296" lon="16.311165"><ele>237.0</ele><time>2026-04-27T11:39:45.669Z</time></trkpt><trkpt lat="38.972855" lon="16.3112633"><ele>237.0</ele><time>2026-04-27T11:39:46.677Z</time></trkpt><trkpt lat="38.97276" lon="16.3113717"><ele>237.0</ele><time>2026-04-27T11:39:47.667Z</time></trkpt><trkpt lat="38.9726683" lon="16.311465"><ele>237.0</ele><time>2026-04-27T11:39:48.675Z</time></trkpt><trkpt lat="38.97258" lon="16.3115583"><ele>235.66666666666666</ele><time>2026-04-27T11:39:49.668Z</time></trkpt><trkpt lat="38.972495" lon="16.3116383"><ele>234.33333333333331</ele><time>2026-04-27T11:39:50.716Z</time></trkpt><trkpt lat="38.9724233" lon="16.311715"><ele>233.0</ele><time>2026-04-27T11:39:51.661Z</time></trkpt><trkpt lat="38.9723783" lon="16.3117767"><ele>231.66666666666666</ele><time>2026-04-27T11:39:53.666Z</time></trkpt><trkpt lat="38.9723033" lon="16.31186"><ele>230.33333333333331</ele><time>2026-04-27T11:39:55.672Z</time></trkpt><trkpt lat="38.97225" lon="16.3119267"><ele>229.0</ele><time>2026-04-27T11:39:56.733Z</time></trkpt><trkpt lat="38.972175" lon="16.3120017"><ele>229.0</ele><time>2026-04-27T11:39:57.669Z</time></trkpt><trkpt lat="38.9720867" lon="16.312095"><ele>228.99999999999997</ele><time>2026-04-27T11:39:58.672Z</time></trkpt><trkpt lat="38.972005" lon="16.3121767"><ele>228.99999999999997</ele><time>2026-04-27T11:39:59.671Z</time></trkpt><trkpt lat="38.9719383" lon="16.3122333"><ele>229.0</ele><time>2026-04-27T11:40:00.675Z</time></trkpt><trkpt lat="38.9718483" lon="16.31223"><ele>229.0</ele><time>2026-04-27T11:40:02.738Z</time></trkpt><trkpt lat="38.971785" lon="16.312235"><ele>227.6</ele><time>2026-04-27T11:40:03.668Z</time></trkpt><trkpt lat="38.971675" lon="16.3121633"><ele>226.2</ele><time>2026-04-27T11:40:05.668Z</time></trkpt><trkpt lat="38.9716133" lon="16.3120883"><ele>224.79999999999998</ele><time>2026-04-27T11:40:06.664Z</time></trkpt><trkpt lat="38.9715433" lon="16.3119733"><ele>223.39999999999998</ele><time>2026-04-27T11:40:07.662Z</time></trkpt><trkpt lat="38.9714533" lon="16.3118717"><ele>222.0</ele><time>2026-04-27T11:40:08.722Z</time></trkpt><trkpt lat="38.9713783" lon="16.31178"><ele>222.0</ele><time>2026-04-27T11:40:09.665Z</time></trkpt><trkpt lat="38.97132" lon="16.3116983"><ele>222.0</ele><time>2026-04-27T11:40:10.664Z</time></trkpt><trkpt lat="38.9713017" lon="16.3116067"><ele>222.0</ele><time>2026-04-27T11:40:11.667Z</time></trkpt><trkpt lat="38.9712483" lon="16.3115383"><ele>222.0</ele><time>2026-04-27T11:40:12.67Z</time></trkpt><trkpt lat="38.9712617" lon="16.3114283"><ele>222.0</ele><time>2026-04-27T11:40:13.667Z</time></trkpt><trkpt lat="38.9712417" lon="16.3113117"><ele>222.0</ele><time>2026-04-27T11:40:14.717Z</time></trkpt><trkpt lat="38.9712117" lon="16.3111617"><ele>222.25</ele><time>2026-04-27T11:40:15.672Z</time></trkpt><trkpt lat="38.9711933" lon="16.31099"><ele>222.5</ele><time>2026-04-27T11:40:16.675Z</time></trkpt><trkpt lat="38.97116" lon="16.3108267"><ele>222.75</ele><time>2026-04-27T11:40:17.666Z</time></trkpt><trkpt lat="38.9711133" lon="16.3106633"><ele>223.0</ele><time>2026-04-27T11:40:18.682Z</time></trkpt><trkpt lat="38.9710533" lon="16.3104933"><ele>223.25</ele><time>2026-04-27T11:40:19.667Z</time></trkpt><trkpt lat="38.97099" lon="16.31032"><ele>223.5</ele><time>2026-04-27T11:40:20.715Z</time></trkpt><trkpt lat="38.9709383" lon="16.3101583"><ele>223.75</ele><time>2026-04-27T11:40:21.66Z</time></trkpt><trkpt lat="38.9708917" lon="16.3099933"><ele>224.0</ele><time>2026-04-27T11:40:22.669Z</time></trkpt><trkpt lat="38.9708383" lon="16.3098367"><ele>220.75</ele><time>2026-04-27T11:40:23.667Z</time></trkpt><trkpt lat="38.9707967" lon="16.3096967"><ele>217.5</ele><time>2026-04-27T11:40:24.672Z</time></trkpt><trkpt lat="38.970735" lon="16.3095817"><ele>214.25</ele><time>2026-04-27T11:40:25.672Z</time></trkpt><trkpt lat="38.9706617" lon="16.309475"><ele>211.0</ele><time>2026-04-27T11:40:26.735Z</time></trkpt><trkpt lat="38.9705733" lon="16.3093817"><ele>211.0</ele><time>2026-04-27T11:40:27.67Z</time></trkpt><trkpt lat="38.9704667" lon="16.3093133"><ele>211.0</ele><time>2026-04-27T11:40:28.673Z</time></trkpt><trkpt lat="38.970355" lon="16.309235"><ele>211.0</ele><time>2026-04-27T11:40:29.661Z</time></trkpt><trkpt lat="38.9702083" lon="16.309195"><ele>211.0</ele><time>2026-04-27T11:40:30.674Z</time></trkpt><trkpt lat="38.970065" lon="16.3091683"><ele>209.5</ele><time>2026-04-27T11:40:31.669Z</time></trkpt><trkpt lat="38.969925" lon="16.3091533"><ele>208.0</ele><time>2026-04-27T11:40:32.733Z</time></trkpt><trkpt lat="38.969805" lon="16.3091267"><ele>206.5</ele><time>2026-04-27T11:40:33.665Z</time></trkpt><trkpt lat="38.9696933" lon="16.30911"><ele>205.0</ele><time>2026-04-27T11:40:34.661Z</time></trkpt><trkpt lat="38.969595" lon="16.3090933"><ele>204.99999999999997</ele><time>2026-04-27T11:40:35.67Z</time></trkpt><trkpt lat="38.9695183" lon="16.3090833"><ele>205.0</ele><time>2026-04-27T11:40:36.676Z</time></trkpt><trkpt lat="38.969455" lon="16.3090917"><ele>205.0</ele><time>2026-04-27T11:40:38.721Z</time></trkpt><trkpt lat="38.9693783" lon="16.309105"><ele>205.0</ele><time>2026-04-27T11:40:42.676Z</time></trkpt><trkpt lat="38.969315" lon="16.3091583"><ele>204.99999999999997</ele><time>2026-04-27T11:40:44.719Z</time></trkpt><trkpt lat="38.9692517" lon="16.30926"><ele>205.0</ele><time>2026-04-27T11:40:46.673Z</time></trkpt><trkpt lat="38.9692133" lon="16.3093283"><ele>205.0</ele><time>2026-04-27T11:40:47.663Z</time></trkpt><trkpt lat="38.9691967" lon="16.30942"><ele>205.0</ele><time>2026-04-27T11:40:48.671Z</time></trkpt><trkpt lat="38.9691467" lon="16.309525"><ele>205.0</ele><time>2026-04-27T11:40:49.669Z</time></trkpt><trkpt lat="38.9690933" lon="16.309655"><ele>205.0</ele><time>2026-04-27T11:40:50.722Z</time></trkpt><trkpt lat="38.9690417" lon="16.3098"><ele>205.0</ele><time>2026-04-27T11:40:51.668Z</time></trkpt><trkpt lat="38.9690217" lon="16.3099733"><ele>205.25</ele><time>2026-04-27T11:40:52.673Z</time></trkpt><trkpt lat="38.9689783" lon="16.3101417"><ele>205.5</ele><time>2026-04-27T11:40:53.668Z</time></trkpt><trkpt lat="38.968925" lon="16.3103017"><ele>205.75</ele><time>2026-04-27T11:40:54.679Z</time></trkpt><trkpt lat="38.9688867" lon="16.3104533"><ele>206.0</ele><time>2026-04-27T11:40:55.667Z</time></trkpt><trkpt lat="38.968855" lon="16.3105883"><ele>206.00000000000003</ele><time>2026-04-27T11:40:56.732Z</time></trkpt><trkpt lat="38.9688167" lon="16.3106933"><ele>206.0</ele><time>2026-04-27T11:40:57.667Z</time></trkpt><trkpt lat="38.9687867" lon="16.3107933"><ele>206.0</ele><time>2026-04-27T11:40:58.663Z</time></trkpt><trkpt lat="38.9687633" lon="16.3108783"><ele>206.0</ele><time>2026-04-27T11:40:59.665Z</time></trkpt><trkpt lat="38.9687483" lon="16.3109583"><ele>206.00000000000003</ele><time>2026-04-27T11:41:14.724Z</time></trkpt><trkpt lat="38.9686533" lon="16.3110133"><ele>206.0</ele><time>2026-04-27T11:41:17.674Z</time></trkpt><trkpt lat="38.968535" lon="16.3109883"><ele>206.00000000000003</ele><time>2026-04-27T11:41:19.666Z</time></trkpt><trkpt lat="38.96846" lon="16.3109633"><ele>206.0</ele><time>2026-04-27T11:41:20.72Z</time></trkpt><trkpt lat="38.9683767" lon="16.3109383"><ele>206.0</ele><time>2026-04-27T11:41:21.664Z</time></trkpt><trkpt lat="38.9682967" lon="16.3109083"><ele>206.0</ele><time>2026-04-27T11:41:22.671Z</time></trkpt><trkpt lat="38.968215" lon="16.3108867"><ele>206.00000000000003</ele><time>2026-04-27T11:41:23.668Z</time></trkpt><trkpt lat="38.9681283" lon="16.31087"><ele>206.0</ele><time>2026-04-27T11:41:24.671Z</time></trkpt><trkpt lat="38.9680533" lon="16.3108333"><ele>205.00000000000003</ele><time>2026-04-27T11:41:25.674Z</time></trkpt><trkpt lat="38.9679783" lon="16.3108233"><ele>204.0</ele><time>2026-04-27T11:41:26.729Z</time></trkpt><trkpt lat="38.9679133" lon="16.3108117"><ele>203.0</ele><time>2026-04-27T11:41:27.672Z</time></trkpt><trkpt lat="38.9678467" lon="16.3108083"><ele>202.0</ele><time>2026-04-27T11:41:28.673Z</time></trkpt><trkpt lat="38.96778" lon="16.31081"><ele>201.00000000000003</ele><time>2026-04-27T11:41:29.667Z</time></trkpt><trkpt lat="38.9677167" lon="16.310815"><ele>200.0</ele><time>2026-04-27T11:41:30.674Z</time></trkpt><trkpt lat="38.9675983" lon="16.31081"><ele>200.00000000000003</ele><time>2026-04-27T11:41:32.73Z</time></trkpt><trkpt lat="38.9675317" lon="16.3108117"><ele>200.0</ele><time>2026-04-27T11:41:33.661Z</time></trkpt><trkpt lat="38.96746" lon="16.31081"><ele>200.0</ele><time>2026-04-27T11:41:34.664Z</time></trkpt><trkpt lat="38.96739" lon="16.31081"><ele>200.0</ele><time>2026-04-27T11:41:35.664Z</time></trkpt><trkpt lat="38.9673167" lon="16.3108167"><ele>200.00000000000003</ele><time>2026-04-27T11:41:36.671Z</time></trkpt><trkpt lat="38.967235" lon="16.310825"><ele>200.0</ele><time>2026-04-27T11:41:37.677Z</time></trkpt><trkpt lat="38.9671483" lon="16.3108317"><ele>198.8</ele><time>2026-04-27T11:41:38.718Z</time></trkpt><trkpt lat="38.967055" lon="16.31083"><ele>197.6</ele><time>2026-04-27T11:41:39.663Z</time></trkpt><trkpt lat="38.9669633" lon="16.3108183"><ele>196.39999999999998</ele><time>2026-04-27T11:41:40.662Z</time></trkpt><trkpt lat="38.96687" lon="16.3107983"><ele>195.2</ele><time>2026-04-27T11:41:41.669Z</time></trkpt><trkpt lat="38.9667717" lon="16.31077"><ele>194.0</ele><time>2026-04-27T11:41:42.668Z</time></trkpt><trkpt lat="38.966675" lon="16.3107333"><ele>193.50000000000003</ele><time>2026-04-27T11:41:43.67Z</time></trkpt><trkpt lat="38.9665833" lon="16.3106917"><ele>193.0</ele><time>2026-04-27T11:41:44.722Z</time></trkpt><trkpt lat="38.9664967" lon="16.310655"><ele>192.5</ele><time>2026-04-27T11:41:45.667Z</time></trkpt><trkpt lat="38.96642" lon="16.3106217"><ele>192.0</ele><time>2026-04-27T11:41:46.663Z</time></trkpt><trkpt lat="38.9663583" lon="16.3105917"><ele>191.5</ele><time>2026-04-27T11:41:47.667Z</time></trkpt><trkpt lat="38.9662567" lon="16.3105467"><ele>191.0</ele><time>2026-04-27T11:41:49.672Z</time></trkpt><trkpt lat="38.9661933" lon="16.3105183"><ele>191.0</ele><time>2026-04-27T11:41:50.717Z</time></trkpt><trkpt lat="38.966125" lon="16.31049"><ele>191.0</ele><time>2026-04-27T11:41:51.665Z</time></trkpt><trkpt lat="38.96606" lon="16.3104583"><ele>191.0</ele><time>2026-04-27T11:41:52.671Z</time></trkpt><trkpt lat="38.9659617" lon="16.3104033"><ele>191.0</ele><time>2026-04-27T11:41:54.67Z</time></trkpt><trkpt lat="38.9659" lon="16.310375"><ele>191.0</ele><time>2026-04-27T11:41:55.675Z</time></trkpt><trkpt lat="38.9658217" lon="16.310335"><ele>191.0</ele><time>2026-04-27T11:41:56.725Z</time></trkpt><trkpt lat="38.9657067" lon="16.310245"><ele>190.0</ele><time>2026-04-27T11:41:57.668Z</time></trkpt><trkpt lat="38.965585" lon="16.3101883"><ele>189.0</ele><time>2026-04-27T11:41:58.675Z</time></trkpt><trkpt lat="38.9654633" lon="16.3101283"><ele>188.0</ele><time>2026-04-27T11:41:59.665Z</time></trkpt><trkpt lat="38.96535" lon="16.31007"><ele>187.0</ele><time>2026-04-27T11:42:00.67Z</time></trkpt><trkpt lat="38.9652383" lon="16.3100133"><ele>187.0</ele><time>2026-04-27T11:42:01.671Z</time></trkpt><trkpt lat="38.9651267" lon="16.3099533"><ele>187.0</ele><time>2026-04-27T11:42:02.729Z</time></trkpt><trkpt lat="38.9650033" lon="16.30989"><ele>187.0</ele><time>2026-04-27T11:42:03.659Z</time></trkpt><trkpt lat="38.9648733" lon="16.30982"><ele>187.0</ele><time>2026-04-27T11:42:04.669Z</time></trkpt><trkpt lat="38.9647433" lon="16.3097517"><ele>185.25</ele><time>2026-04-27T11:42:05.662Z</time></trkpt><trkpt lat="38.9646067" lon="16.3096767"><ele>183.5</ele><time>2026-04-27T11:42:06.677Z</time></trkpt><trkpt lat="38.9644767" lon="16.3096117"><ele>181.75</ele><time>2026-04-27T11:42:07.668Z</time></trkpt><trkpt lat="38.9643617" lon="16.3095617"><ele>180.0</ele><time>2026-04-27T11:42:08.72Z</time></trkpt><trkpt lat="38.9642633" lon="16.309525"><ele>178.6</ele><time>2026-04-27T11:42:09.674Z</time></trkpt><trkpt lat="38.9641783" lon="16.309495"><ele>177.2</ele><time>2026-04-27T11:42:10.669Z</time></trkpt><trkpt lat="38.9640967" lon="16.30948"><ele>175.8</ele><time>2026-04-27T11:42:11.676Z</time></trkpt><trkpt lat="38.9640033" lon="16.309475"><ele>174.4</ele><time>2026-04-27T11:42:12.669Z</time></trkpt><trkpt lat="38.9638883" lon="16.3094967"><ele>173.0</ele><time>2026-04-27T11:42:13.669Z</time></trkpt><trkpt lat="38.9637633" lon="16.3095117"><ele>173.0</ele><time>2026-04-27T11:42:14.72Z</time></trkpt><trkpt lat="38.9636417" lon="16.30952"><ele>173.0</ele><time>2026-04-27T11:42:15.662Z</time></trkpt><trkpt lat="38.9635333" lon="16.3095017"><ele>173.0</ele><time>2026-04-27T11:42:16.67Z</time></trkpt><trkpt lat="38.9634267" lon="16.309465"><ele>173.0</ele><time>2026-04-27T11:42:17.665Z</time></trkpt><trkpt lat="38.9633233" lon="16.309405"><ele>172.0</ele><time>2026-04-27T11:42:18.67Z</time></trkpt><trkpt lat="38.9632233" lon="16.3093217"><ele>171.0</ele><time>2026-04-27T11:42:19.669Z</time></trkpt><trkpt lat="38.9631333" lon="16.3092283"><ele>170.0</ele><time>2026-04-27T11:42:20.713Z</time></trkpt><trkpt lat="38.9630617" lon="16.30914"><ele>169.0</ele><time>2026-04-27T11:42:21.667Z</time></trkpt><trkpt lat="38.96299" lon="16.3090717"><ele>168.0</ele><time>2026-04-27T11:42:22.67Z</time></trkpt><trkpt lat="38.9629167" lon="16.30903"><ele>168.0</ele><time>2026-04-27T11:42:23.663Z</time></trkpt><trkpt lat="38.9628467" lon="16.30904"><ele>168.0</ele><time>2026-04-27T11:42:24.666Z</time></trkpt><trkpt lat="38.9627817" lon="16.3090867"><ele>168.0</ele><time>2026-04-27T11:42:25.666Z</time></trkpt><trkpt lat="38.962725" lon="16.3091617"><ele>168.0</ele><time>2026-04-27T11:42:26.731Z</time></trkpt><trkpt lat="38.962715" lon="16.309305"><ele>168.0</ele><time>2026-04-27T11:42:27.663Z</time></trkpt><trkpt lat="38.96271" lon="16.3094633"><ele>168.0</ele><time>2026-04-27T11:42:28.668Z</time></trkpt><trkpt lat="38.9627067" lon="16.3096267"><ele>168.0</ele><time>2026-04-27T11:42:29.668Z</time></trkpt><trkpt lat="38.9626867" lon="16.3097967"><ele>168.0</ele><time>2026-04-27T11:42:30.671Z</time></trkpt><trkpt lat="38.962645" lon="16.3099783"><ele>168.0</ele><time>2026-04-27T11:42:31.668Z</time></trkpt><trkpt lat="38.9625883" lon="16.3101683"><ele>168.0</ele><time>2026-04-27T11:42:32.73Z</time></trkpt><trkpt lat="38.96252" lon="16.3103783"><ele>168.0</ele><time>2026-04-27T11:42:33.67Z</time></trkpt><trkpt lat="38.962445" lon="16.3105967"><ele>168.0</ele><time>2026-04-27T11:42:34.671Z</time></trkpt><trkpt lat="38.9623633" lon="16.310835"><ele>168.0</ele><time>2026-04-27T11:42:35.662Z</time></trkpt><trkpt lat="38.9622783" lon="16.3110867"><ele>168.0</ele><time>2026-04-27T11:42:36.662Z</time></trkpt><trkpt lat="38.9621917" lon="16.3113283"><ele>168.0</ele><time>2026-04-27T11:42:37.667Z</time></trkpt><trkpt lat="38.9621117" lon="16.3115567"><ele>168.33333333333334</ele><time>2026-04-27T11:42:38.712Z</time></trkpt><trkpt lat="38.9620333" lon="16.3117683"><ele>168.66666666666669</ele><time>2026-04-27T11:42:39.668Z</time></trkpt><trkpt lat="38.96196" lon="16.3119667"><ele>169.0</ele><time>2026-04-27T11:42:40.678Z</time></trkpt><trkpt lat="38.9618967" lon="16.3121467"><ele>169.5</ele><time>2026-04-27T11:42:41.668Z</time></trkpt><trkpt lat="38.9618383" lon="16.3123167"><ele>170.0</ele><time>2026-04-27T11:42:42.673Z</time></trkpt><trkpt lat="38.9617933" lon="16.31247"><ele>170.5</ele><time>2026-04-27T11:42:43.669Z</time></trkpt><trkpt lat="38.96176" lon="16.3126033"><ele>171.0</ele><time>2026-04-27T11:42:44.713Z</time></trkpt><trkpt lat="38.961745" lon="16.3127033"><ele>171.0</ele><time>2026-04-27T11:42:45.662Z</time></trkpt><trkpt lat="38.9617467" lon="16.3127867"><ele>171.0</ele><time>2026-04-27T11:42:46.675Z</time></trkpt><trkpt lat="38.9617283" lon="16.3128917"><ele>171.0</ele><time>2026-04-27T11:42:48.664Z</time></trkpt><trkpt lat="38.9616917" lon="16.3129867"><ele>171.0</ele><time>2026-04-27T11:42:50.714Z</time></trkpt><trkpt lat="38.9616483" lon="16.3131317"><ele>171.0</ele><time>2026-04-27T11:42:52.672Z</time></trkpt><trkpt lat="38.9616333" lon="16.3132267"><ele>171.0</ele><time>2026-04-27T11:42:53.669Z</time></trkpt><trkpt lat="38.96162" lon="16.31334"><ele>169.5</ele><time>2026-04-27T11:42:54.67Z</time></trkpt><trkpt lat="38.9616017" lon="16.313475"><ele>168.0</ele><time>2026-04-27T11:42:55.675Z</time></trkpt><trkpt lat="38.9615717" lon="16.3136583"><ele>166.5</ele><time>2026-04-27T11:42:56.725Z</time></trkpt><trkpt lat="38.9615333" lon="16.3138583"><ele>165.0</ele><time>2026-04-27T11:42:57.666Z</time></trkpt><trkpt lat="38.961495" lon="16.314075"><ele>164.66666666666666</ele><time>2026-04-27T11:42:58.67Z</time></trkpt><trkpt lat="38.9614467" lon="16.314305"><ele>164.33333333333331</ele><time>2026-04-27T11:42:59.668Z</time></trkpt><trkpt lat="38.9613867" lon="16.314545"><ele>164.0</ele><time>2026-04-27T11:43:00.669Z</time></trkpt><trkpt lat="38.9613233" lon="16.3148033"><ele>164.33333333333331</ele><time>2026-04-27T11:43:01.665Z</time></trkpt><trkpt lat="38.9612517" lon="16.3150567"><ele>164.66666666666666</ele><time>2026-04-27T11:43:02.729Z</time></trkpt><trkpt lat="38.9611767" lon="16.3153133"><ele>165.0</ele><time>2026-04-27T11:43:03.667Z</time></trkpt><trkpt lat="38.9611033" lon="16.3155733"><ele>165.0</ele><time>2026-04-27T11:43:04.668Z</time></trkpt><trkpt lat="38.9610283" lon="16.3158367"><ele>165.0</ele><time>2026-04-27T11:43:05.665Z</time></trkpt><trkpt lat="38.9609467" lon="16.3161117"><ele>165.0</ele><time>2026-04-27T11:43:06.668Z</time></trkpt><trkpt lat="38.9608617" lon="16.316395"><ele>162.5</ele><time>2026-04-27T11:43:07.665Z</time></trkpt><trkpt lat="38.9607733" lon="16.31669"><ele>160.0</ele><time>2026-04-27T11:43:08.721Z</time></trkpt><trkpt lat="38.9606833" lon="16.3169933"><ele>160.5</ele><time>2026-04-27T11:43:09.664Z</time></trkpt><trkpt lat="38.9605917" lon="16.3173017"><ele>161.0</ele><time>2026-04-27T11:43:10.661Z</time></trkpt><trkpt lat="38.960495" lon="16.3176167"><ele>161.0</ele><time>2026-04-27T11:43:11.664Z</time></trkpt><trkpt lat="38.9603983" lon="16.3179283"><ele>161.0</ele><time>2026-04-27T11:43:12.673Z</time></trkpt><trkpt lat="38.9603083" lon="16.318225"><ele>160.33333333333331</ele><time>2026-04-27T11:43:13.668Z</time></trkpt><trkpt lat="38.9602267" lon="16.3185017"><ele>159.66666666666666</ele><time>2026-04-27T11:43:14.724Z</time></trkpt><trkpt lat="38.9601483" lon="16.3187567"><ele>159.0</ele><time>2026-04-27T11:43:15.666Z</time></trkpt><trkpt lat="38.9600767" lon="16.318975"><ele>158.0</ele><time>2026-04-27T11:43:16.663Z</time></trkpt><trkpt lat="38.960005" lon="16.3191717"><ele>157.0</ele><time>2026-04-27T11:43:17.664Z</time></trkpt><trkpt lat="38.9599333" lon="16.3193183"><ele>156.0</ele><time>2026-04-27T11:43:18.664Z</time></trkpt><trkpt lat="38.95985" lon="16.3194133"><ele>155.0</ele><time>2026-04-27T11:43:19.671Z</time></trkpt><trkpt lat="38.9597633" lon="16.31947"><ele>155.0</ele><time>2026-04-27T11:43:20.717Z</time></trkpt><trkpt lat="38.9596667" lon="16.3194983"><ele>155.0</ele><time>2026-04-27T11:43:21.667Z</time></trkpt><trkpt lat="38.9595533" lon="16.319525"><ele>155.0</ele><time>2026-04-27T11:43:22.673Z</time></trkpt><trkpt lat="38.9594433" lon="16.3195583"><ele>155.0</ele><time>2026-04-27T11:43:23.664Z</time></trkpt><trkpt lat="38.95933" lon="16.31962"><ele>155.0</ele><time>2026-04-27T11:43:24.671Z</time></trkpt><trkpt lat="38.9592217" lon="16.319705"><ele>155.0</ele><time>2026-04-27T11:43:25.661Z</time></trkpt><trkpt lat="38.9591167" lon="16.319795"><ele>155.0</ele><time>2026-04-27T11:43:26.7Z</time></trkpt><trkpt lat="38.9590183" lon="16.3198817"><ele>155.0</ele><time>2026-04-27T11:43:27.661Z</time></trkpt><trkpt lat="38.9589217" lon="16.319965"><ele>154.25</ele><time>2026-04-27T11:43:28.662Z</time></trkpt><trkpt lat="38.9588233" lon="16.3200583"><ele>153.5</ele><time>2026-04-27T11:43:29.669Z</time></trkpt><trkpt lat="38.9587133" lon="16.3201683"><ele>152.75</ele><time>2026-04-27T11:43:30.674Z</time></trkpt><trkpt lat="38.958595" lon="16.320285"><ele>152.0</ele><time>2026-04-27T11:43:31.674Z</time></trkpt><trkpt lat="38.9584717" lon="16.3203917"><ele>150.33333333333331</ele><time>2026-04-27T11:43:32.725Z</time></trkpt><trkpt lat="38.958345" lon="16.3205017"><ele>148.66666666666666</ele><time>2026-04-27T11:43:33.665Z</time></trkpt><trkpt lat="38.958215" lon="16.3206183"><ele>147.0</ele><time>2026-04-27T11:43:34.674Z</time></trkpt><trkpt lat="38.95808" lon="16.32074"><ele>146.66666666666666</ele><time>2026-04-27T11:43:35.66Z</time></trkpt><trkpt lat="38.9579417" lon="16.32087"><ele>146.33333333333331</ele><time>2026-04-27T11:43:36.67Z</time></trkpt><trkpt lat="38.9577967" lon="16.3210083"><ele>146.0</ele><time>2026-04-27T11:43:37.666Z</time></trkpt><trkpt lat="38.95765" lon="16.321155"><ele>145.33333333333331</ele><time>2026-04-27T11:43:38.717Z</time></trkpt><trkpt lat="38.9574967" lon="16.32131"><ele>144.66666666666666</ele><time>2026-04-27T11:43:39.668Z</time></trkpt><trkpt lat="38.9573383" lon="16.3214717"><ele>144.0</ele><time>2026-04-27T11:43:40.675Z</time></trkpt><trkpt lat="38.95718" lon="16.3216333"><ele>143.66666666666666</ele><time>2026-04-27T11:43:41.669Z</time></trkpt><trkpt lat="38.9570233" lon="16.3217933"><ele>143.33333333333331</ele><time>2026-04-27T11:43:42.671Z</time></trkpt><trkpt lat="38.9568733" lon="16.3219467"><ele>143.0</ele><time>2026-04-27T11:43:43.667Z</time></trkpt><trkpt lat="38.9567267" lon="16.3220917"><ele>141.33333333333331</ele><time>2026-04-27T11:43:44.716Z</time></trkpt><trkpt lat="38.9565833" lon="16.3222317"><ele>139.66666666666666</ele><time>2026-04-27T11:43:45.666Z</time></trkpt><trkpt lat="38.9564467" lon="16.3223633"><ele>138.0</ele><time>2026-04-27T11:43:46.669Z</time></trkpt><trkpt lat="38.9563133" lon="16.32249"><ele>138.0</ele><time>2026-04-27T11:43:47.663Z</time></trkpt><trkpt lat="38.956185" lon="16.3226117"><ele>138.0</ele><time>2026-04-27T11:43:48.665Z</time></trkpt><trkpt lat="38.95606" lon="16.322725"><ele>138.0</ele><time>2026-04-27T11:43:49.661Z</time></trkpt><trkpt lat="38.95593" lon="16.3228283"><ele>137.0</ele><time>2026-04-27T11:43:50.711Z</time></trkpt><trkpt lat="38.955795" lon="16.3229317"><ele>136.0</ele><time>2026-04-27T11:43:51.664Z</time></trkpt><trkpt lat="38.95565" lon="16.3230283"><ele>135.0</ele><time>2026-04-27T11:43:52.664Z</time></trkpt><trkpt lat="38.955505" lon="16.3231233"><ele>135.0</ele><time>2026-04-27T11:43:53.67Z</time></trkpt><trkpt lat="38.95536" lon="16.32321"><ele>135.0</ele><time>2026-04-27T11:43:54.667Z</time></trkpt><trkpt lat="38.9552117" lon="16.3232917"><ele>135.0</ele><time>2026-04-27T11:43:55.662Z</time></trkpt><trkpt lat="38.9550633" lon="16.3233683"><ele>134.25</ele><time>2026-04-27T11:43:56.736Z</time></trkpt><trkpt lat="38.954925" lon="16.3234333"><ele>133.5</ele><time>2026-04-27T11:43:57.662Z</time></trkpt><trkpt lat="38.9548017" lon="16.3234983"><ele>132.75</ele><time>2026-04-27T11:43:58.661Z</time></trkpt><trkpt lat="38.9546967" lon="16.3235533"><ele>132.0</ele><time>2026-04-27T11:43:59.666Z</time></trkpt><trkpt lat="38.9546017" lon="16.323605"><ele>132.0</ele><time>2026-04-27T11:44:00.673Z</time></trkpt><trkpt lat="38.9545117" lon="16.32365"><ele>132.0</ele><time>2026-04-27T11:44:01.664Z</time></trkpt><trkpt lat="38.9544167" lon="16.3236967"><ele>132.0</ele><time>2026-04-27T11:44:02.728Z</time></trkpt><trkpt lat="38.954325" lon="16.3237433"><ele>132.0</ele><time>2026-04-27T11:44:03.67Z</time></trkpt><trkpt lat="38.9542433" lon="16.32379"><ele>132.0</ele><time>2026-04-27T11:44:04.67Z</time></trkpt><trkpt lat="38.9541783" lon="16.3238317"><ele>131.2</ele><time>2026-04-27T11:44:05.671Z</time></trkpt><trkpt lat="38.9540717" lon="16.3239067"><ele>130.39999999999998</ele><time>2026-04-27T11:44:07.664Z</time></trkpt><trkpt lat="38.9540067" lon="16.3239467"><ele>129.60000000000002</ele><time>2026-04-27T11:44:08.71Z</time></trkpt><trkpt lat="38.9539233" lon="16.323995"><ele>128.8</ele><time>2026-04-27T11:44:09.663Z</time></trkpt><trkpt lat="38.9538217" lon="16.3240533"><ele>128.0</ele><time>2026-04-27T11:44:10.666Z</time></trkpt><trkpt lat="38.9537" lon="16.3241217"><ele>128.0</ele><time>2026-04-27T11:44:11.662Z</time></trkpt><trkpt lat="38.9535683" lon="16.3241983"><ele>128.0</ele><time>2026-04-27T11:44:12.666Z</time></trkpt><trkpt lat="38.9534133" lon="16.3242833"><ele>128.0</ele><time>2026-04-27T11:44:13.667Z</time></trkpt><trkpt lat="38.95326" lon="16.3243733"><ele>127.66666666666666</ele><time>2026-04-27T11:44:14.718Z</time></trkpt><trkpt lat="38.9530933" lon="16.3244767"><ele>127.33333333333334</ele><time>2026-04-27T11:44:15.662Z</time></trkpt><trkpt lat="38.952925" lon="16.3245833"><ele>127.0</ele><time>2026-04-27T11:44:16.669Z</time></trkpt><trkpt lat="38.952755" lon="16.3246917"><ele>126.33333333333334</ele><time>2026-04-27T11:44:17.668Z</time></trkpt><trkpt lat="38.9525833" lon="16.3248"><ele>125.66666666666666</ele><time>2026-04-27T11:44:18.679Z</time></trkpt><trkpt lat="38.9524217" lon="16.32491"><ele>125.0</ele><time>2026-04-27T11:44:19.665Z</time></trkpt><trkpt lat="38.95227" lon="16.3250233"><ele>124.0</ele><time>2026-04-27T11:44:20.718Z</time></trkpt><trkpt lat="38.9521233" lon="16.3251433"><ele>123.0</ele><time>2026-04-27T11:44:21.661Z</time></trkpt><trkpt lat="38.9519783" lon="16.32527"><ele>122.0</ele><time>2026-04-27T11:44:22.665Z</time></trkpt><trkpt lat="38.95184" lon="16.3253983"><ele>122.0</ele><time>2026-04-27T11:44:23.666Z</time></trkpt><trkpt lat="38.95171" lon="16.325525"><ele>122.0</ele><time>2026-04-27T11:44:24.669Z</time></trkpt><trkpt lat="38.951595" lon="16.3256433"><ele>122.0</ele><time>2026-04-27T11:44:25.67Z</time></trkpt><trkpt lat="38.9514967" lon="16.3257533"><ele>122.0</ele><time>2026-04-27T11:44:26.745Z</time></trkpt><trkpt lat="38.9514017" lon="16.3258533"><ele>121.75</ele><time>2026-04-27T11:44:27.663Z</time></trkpt><trkpt lat="38.9512933" lon="16.32596"><ele>121.5</ele><time>2026-04-27T11:44:28.665Z</time></trkpt><trkpt lat="38.9511767" lon="16.326065"><ele>121.25</ele><time>2026-04-27T11:44:29.666Z</time></trkpt><trkpt lat="38.9510517" lon="16.326185"><ele>121.0</ele><time>2026-04-27T11:44:30.669Z</time></trkpt><trkpt lat="38.950925" lon="16.3263167"><ele>120.0</ele><time>2026-04-27T11:44:31.666Z</time></trkpt><trkpt lat="38.9507883" lon="16.3264567"><ele>119.0</ele><time>2026-04-27T11:44:32.725Z</time></trkpt><trkpt lat="38.9506433" lon="16.3266"><ele>118.0</ele><time>2026-04-27T11:44:33.665Z</time></trkpt><trkpt lat="38.9505" lon="16.3267433"><ele>118.0</ele><time>2026-04-27T11:44:34.662Z</time></trkpt><trkpt lat="38.9503633" lon="16.3268783"><ele>118.0</ele><time>2026-04-27T11:44:35.669Z</time></trkpt><trkpt lat="38.9502333" lon="16.327005"><ele>118.0</ele><time>2026-04-27T11:44:36.666Z</time></trkpt><trkpt lat="38.95011" lon="16.3271233"><ele>117.4</ele><time>2026-04-27T11:44:37.661Z</time></trkpt><trkpt lat="38.9500067" lon="16.327225"><ele>116.80000000000001</ele><time>2026-04-27T11:44:38.714Z</time></trkpt><trkpt lat="38.9499283" lon="16.32731"><ele>116.2</ele><time>2026-04-27T11:44:39.666Z</time></trkpt><trkpt lat="38.9498583" lon="16.3273867"><ele>115.6</ele><time>2026-04-27T11:44:40.664Z</time></trkpt><trkpt lat="38.9498017" lon="16.327465"><ele>115.0</ele><time>2026-04-27T11:44:41.664Z</time></trkpt><trkpt lat="38.94975" lon="16.32756"><ele>115.0</ele><time>2026-04-27T11:44:42.664Z</time></trkpt><trkpt lat="38.9497017" lon="16.3276767"><ele>115.0</ele><time>2026-04-27T11:44:43.668Z</time></trkpt><trkpt lat="38.9496733" lon="16.3278333"><ele>115.0</ele><time>2026-04-27T11:44:44.717Z</time></trkpt><trkpt lat="38.9496333" lon="16.3280067"><ele>115.0</ele><time>2026-04-27T11:44:45.668Z</time></trkpt><trkpt lat="38.9495933" lon="16.3282"><ele>114.66666666666667</ele><time>2026-04-27T11:44:46.669Z</time></trkpt><trkpt lat="38.9495483" lon="16.3284067"><ele>114.33333333333334</ele><time>2026-04-27T11:44:47.668Z</time></trkpt><trkpt lat="38.9495033" lon="16.3286233"><ele>114.0</ele><time>2026-04-27T11:44:48.667Z</time></trkpt><trkpt lat="38.949465" lon="16.32883"><ele>113.5</ele><time>2026-04-27T11:44:49.665Z</time></trkpt><trkpt lat="38.9494333" lon="16.32902"><ele>113.0</ele><time>2026-04-27T11:44:50.719Z</time></trkpt><trkpt lat="38.9494033" lon="16.3291933"><ele>112.5</ele><time>2026-04-27T11:44:51.666Z</time></trkpt><trkpt lat="38.9493817" lon="16.3293567"><ele>112.0</ele><time>2026-04-27T11:44:52.678Z</time></trkpt><trkpt lat="38.9493633" lon="16.3295133"><ele>112.0</ele><time>2026-04-27T11:44:53.666Z</time></trkpt><trkpt lat="38.9493517" lon="16.3296617"><ele>111.99999999999999</ele><time>2026-04-27T11:44:54.669Z</time></trkpt><trkpt lat="38.9493483" lon="16.3297967"><ele>111.99999999999999</ele><time>2026-04-27T11:44:55.671Z</time></trkpt><trkpt lat="38.9493433" lon="16.3299117"><ele>112.0</ele><time>2026-04-27T11:44:56.735Z</time></trkpt><trkpt lat="38.9493267" lon="16.33001"><ele>112.0</ele><time>2026-04-27T11:44:58.669Z</time></trkpt><trkpt lat="38.9492217" lon="16.3300233"><ele>111.5</ele><time>2026-04-27T11:45:00.671Z</time></trkpt><trkpt lat="38.9491417" lon="16.3300083"><ele>111.0</ele><time>2026-04-27T11:45:01.668Z</time></trkpt><trkpt lat="38.94904" lon="16.3300083"><ele>110.5</ele><time>2026-04-27T11:45:02.732Z</time></trkpt><trkpt lat="38.9489133" lon="16.3299933"><ele>110.0</ele><time>2026-04-27T11:45:03.667Z</time></trkpt><trkpt lat="38.9487683" lon="16.330005"><ele>110.0</ele><time>2026-04-27T11:45:04.669Z</time></trkpt><trkpt lat="38.9486217" lon="16.330025"><ele>110.0</ele><time>2026-04-27T11:45:05.667Z</time></trkpt><trkpt lat="38.9484717" lon="16.33005"><ele>110.0</ele><time>2026-04-27T11:45:06.666Z</time></trkpt><trkpt lat="38.948325" lon="16.3300767"><ele>110.0</ele><time>2026-04-27T11:45:07.662Z</time></trkpt><trkpt lat="38.9481917" lon="16.3301033"><ele>109.2</ele><time>2026-04-27T11:45:08.711Z</time></trkpt><trkpt lat="38.9480633" lon="16.3301167"><ele>108.4</ele><time>2026-04-27T11:45:09.668Z</time></trkpt><trkpt lat="38.94795" lon="16.33012"><ele>107.6</ele><time>2026-04-27T11:45:10.67Z</time></trkpt><trkpt lat="38.94785" lon="16.3301233"><ele>106.8</ele><time>2026-04-27T11:45:11.671Z</time></trkpt><trkpt lat="38.9477617" lon="16.3301467"><ele>106.0</ele><time>2026-04-27T11:45:12.671Z</time></trkpt><trkpt lat="38.947675" lon="16.3301967"><ele>106.0</ele><time>2026-04-27T11:45:13.668Z</time></trkpt><trkpt lat="38.9475783" lon="16.33027"><ele>106.0</ele><time>2026-04-27T11:45:14.721Z</time></trkpt><trkpt lat="38.9474683" lon="16.3303567"><ele>106.0</ele><time>2026-04-27T11:45:15.667Z</time></trkpt><trkpt lat="38.9473117" lon="16.33046"><ele>106.0</ele><time>2026-04-27T11:45:16.667Z</time></trkpt><trkpt lat="38.9471317" lon="16.3305617"><ele>105.5</ele><time>2026-04-27T11:45:17.661Z</time></trkpt><trkpt lat="38.946925" lon="16.3306733"><ele>105.0</ele><time>2026-04-27T11:45:18.666Z</time></trkpt><trkpt lat="38.946705" lon="16.3307817"><ele>104.0</ele><time>2026-04-27T11:45:19.672Z</time></trkpt><trkpt lat="38.9464867" lon="16.3308917"><ele>103.0</ele><time>2026-04-27T11:45:20.717Z</time></trkpt><trkpt lat="38.9462767" lon="16.33099"><ele>103.0</ele><time>2026-04-27T11:45:21.661Z</time></trkpt><trkpt lat="38.9460767" lon="16.3310667"><ele>103.0</ele><time>2026-04-27T11:45:22.672Z</time></trkpt><trkpt lat="38.9458933" lon="16.3311267"><ele>103.0</ele><time>2026-04-27T11:45:23.661Z</time></trkpt><trkpt lat="38.9457167" lon="16.3311733"><ele>102.66666666666667</ele><time>2026-04-27T11:45:24.663Z</time></trkpt><trkpt lat="38.9455483" lon="16.33121"><ele>102.33333333333334</ele><time>2026-04-27T11:45:25.666Z</time></trkpt><trkpt lat="38.9453833" lon="16.33124"><ele>102.0</ele><time>2026-04-27T11:45:26.738Z</time></trkpt><trkpt lat="38.9452167" lon="16.33127"><ele>102.0</ele><time>2026-04-27T11:45:27.669Z</time></trkpt><trkpt lat="38.9450533" lon="16.3312967"><ele>102.0</ele><time>2026-04-27T11:45:28.668Z</time></trkpt><trkpt lat="38.944885" lon="16.3313183"><ele>102.0</ele><time>2026-04-27T11:45:29.664Z</time></trkpt><trkpt lat="38.94472" lon="16.3313383"><ele>101.0</ele><time>2026-04-27T11:45:30.668Z</time></trkpt><trkpt lat="38.9445567" lon="16.3313617"><ele>100.0</ele><time>2026-04-27T11:45:31.671Z</time></trkpt><trkpt lat="38.944395" lon="16.331385"><ele>99.0</ele><time>2026-04-27T11:45:32.728Z</time></trkpt><trkpt lat="38.9442417" lon="16.331405"><ele>99.0</ele><time>2026-04-27T11:45:33.666Z</time></trkpt><trkpt lat="38.9440917" lon="16.3314283"><ele>99.0</ele><time>2026-04-27T11:45:34.674Z</time></trkpt><trkpt lat="38.9439367" lon="16.33145"><ele>99.0</ele><time>2026-04-27T11:45:35.667Z</time></trkpt><trkpt lat="38.9437767" lon="16.3314733"><ele>99.0</ele><time>2026-04-27T11:45:36.671Z</time></trkpt><trkpt lat="38.943615" lon="16.3314967"><ele>99.0</ele><time>2026-04-27T11:45:37.67Z</time></trkpt><trkpt lat="38.94345" lon="16.3315233"><ele>99.0</ele><time>2026-04-27T11:45:38.719Z</time></trkpt><trkpt lat="38.9432817" lon="16.3315483"><ele>98.0</ele><time>2026-04-27T11:45:39.66Z</time></trkpt><trkpt lat="38.94311" lon="16.3315733"><ele>97.0</ele><time>2026-04-27T11:45:40.669Z</time></trkpt><trkpt lat="38.9429367" lon="16.331595"><ele>96.0</ele><time>2026-04-27T11:45:41.662Z</time></trkpt><trkpt lat="38.94276" lon="16.3316167"><ele>96.0</ele><time>2026-04-27T11:45:42.669Z</time></trkpt><trkpt lat="38.9425833" lon="16.3316367"><ele>96.0</ele><time>2026-04-27T11:45:43.668Z</time></trkpt><trkpt lat="38.9424" lon="16.3316617"><ele>96.0</ele><time>2026-04-27T11:45:44.717Z</time></trkpt><trkpt lat="38.942215" lon="16.3316883"><ele>95.66666666666667</ele><time>2026-04-27T11:45:45.662Z</time></trkpt><trkpt lat="38.9420233" lon="16.3317183"><ele>95.33333333333334</ele><time>2026-04-27T11:45:46.672Z</time></trkpt><trkpt lat="38.9418317" lon="16.3317483"><ele>95.0</ele><time>2026-04-27T11:45:47.666Z</time></trkpt><trkpt lat="38.9416367" lon="16.3317767"><ele>94.0</ele><time>2026-04-27T11:45:48.673Z</time></trkpt><trkpt lat="38.9414417" lon="16.3318017"><ele>93.0</ele><time>2026-04-27T11:45:49.666Z</time></trkpt><trkpt lat="38.9412567" lon="16.3318217"><ele>92.0</ele><time>2026-04-27T11:45:50.716Z</time></trkpt><trkpt lat="38.9410933" lon="16.3318417"><ele>92.0</ele><time>2026-04-27T11:45:51.668Z</time></trkpt><trkpt lat="38.9409433" lon="16.3318633"><ele>92.0</ele><time>2026-04-27T11:45:52.663Z</time></trkpt><trkpt lat="38.9407883" lon="16.33189"><ele>92.0</ele><time>2026-04-27T11:45:53.665Z</time></trkpt><trkpt lat="38.9406167" lon="16.33192"><ele>92.0</ele><time>2026-04-27T11:45:54.666Z</time></trkpt><trkpt lat="38.9404283" lon="16.33194"><ele>92.0</ele><time>2026-04-27T11:45:55.666Z</time></trkpt><trkpt lat="38.9402233" lon="16.3319483"><ele>92.0</ele><time>2026-04-27T11:45:56.698Z</time></trkpt><trkpt lat="38.9400017" lon="16.3319517"><ele>91.5</ele><time>2026-04-27T11:45:57.665Z</time></trkpt><trkpt lat="38.9397583" lon="16.3319517"><ele>91.0</ele><time>2026-04-27T11:45:58.667Z</time></trkpt><trkpt lat="38.9395017" lon="16.3319483"><ele>91.0</ele><time>2026-04-27T11:45:59.669Z</time></trkpt><trkpt lat="38.9392233" lon="16.3319433"><ele>91.0</ele><time>2026-04-27T11:46:00.667Z</time></trkpt><trkpt lat="38.9389233" lon="16.3319383"><ele>88.5</ele><time>2026-04-27T11:46:01.673Z</time></trkpt><trkpt lat="38.9386233" lon="16.3319317"><ele>86.0</ele><time>2026-04-27T11:46:02.727Z</time></trkpt><trkpt lat="38.9383367" lon="16.3319267"><ele>85.0</ele><time>2026-04-27T11:46:03.66Z</time></trkpt><trkpt lat="38.9380667" lon="16.3319233"><ele>84.0</ele><time>2026-04-27T11:46:04.671Z</time></trkpt><trkpt lat="38.9378133" lon="16.3319217"><ele>84.0</ele><time>2026-04-27T11:46:05.668Z</time></trkpt><trkpt lat="38.9375733" lon="16.3319167"><ele>84.0</ele><time>2026-04-27T11:46:06.666Z</time></trkpt><trkpt lat="38.9373417" lon="16.3319083"><ele>84.5</ele><time>2026-04-27T11:46:07.668Z</time></trkpt><trkpt lat="38.9371117" lon="16.331895"><ele>85.0</ele><time>2026-04-27T11:46:08.72Z</time></trkpt><trkpt lat="38.9368817" lon="16.3318817"><ele>84.0</ele><time>2026-04-27T11:46:09.665Z</time></trkpt><trkpt lat="38.9366517" lon="16.3318683"><ele>83.0</ele><time>2026-04-27T11:46:10.672Z</time></trkpt><trkpt lat="38.9364217" lon="16.331855"><ele>83.0</ele><time>2026-04-27T11:46:11.667Z</time></trkpt><trkpt lat="38.93619" lon="16.3318417"><ele>83.0</ele><time>2026-04-27T11:46:12.673Z</time></trkpt><trkpt lat="38.93596" lon="16.3318317"><ele>81.5</ele><time>2026-04-27T11:46:13.669Z</time></trkpt><trkpt lat="38.9357333" lon="16.3318217"><ele>80.0</ele><time>2026-04-27T11:46:14.718Z</time></trkpt><trkpt lat="38.9355067" lon="16.3318117"><ele>80.0</ele><time>2026-04-27T11:46:15.663Z</time></trkpt><trkpt lat="38.9352817" lon="16.3318017"><ele>80.0</ele><time>2026-04-27T11:46:16.664Z</time></trkpt><trkpt lat="38.93506" lon="16.3317933"><ele>80.0</ele><time>2026-04-27T11:46:17.665Z</time></trkpt><trkpt lat="38.9348433" lon="16.3317867"><ele>79.66666666666667</ele><time>2026-04-27T11:46:18.668Z</time></trkpt><trkpt lat="38.93463" lon="16.33178"><ele>79.33333333333333</ele><time>2026-04-27T11:46:19.668Z</time></trkpt><trkpt lat="38.9344167" lon="16.331775"><ele>79.0</ele><time>2026-04-27T11:46:20.709Z</time></trkpt><trkpt lat="38.9342067" lon="16.3317717"><ele>79.0</ele><time>2026-04-27T11:46:21.662Z</time></trkpt><trkpt lat="38.9340067" lon="16.3317717"><ele>79.0</ele><time>2026-04-27T11:46:22.667Z</time></trkpt><trkpt lat="38.9338083" lon="16.3317667"><ele>79.0</ele><time>2026-04-27T11:46:23.667Z</time></trkpt><trkpt lat="38.9336033" lon="16.331755"><ele>79.0</ele><time>2026-04-27T11:46:24.669Z</time></trkpt><trkpt lat="38.93339" lon="16.3317333"><ele>79.0</ele><time>2026-04-27T11:46:25.666Z</time></trkpt><trkpt lat="38.933175" lon="16.3317067"><ele>79.0</ele><time>2026-04-27T11:46:26.733Z</time></trkpt><trkpt lat="38.9329817" lon="16.3316733"><ele>78.5</ele><time>2026-04-27T11:46:27.668Z</time></trkpt><trkpt lat="38.932815" lon="16.331635"><ele>78.0</ele><time>2026-04-27T11:46:28.669Z</time></trkpt><trkpt lat="38.9326783" lon="16.3315967"><ele>77.5</ele><time>2026-04-27T11:46:29.663Z</time></trkpt><trkpt lat="38.9325767" lon="16.3315567"><ele>77.0</ele><time>2026-04-27T11:46:30.663Z</time></trkpt><trkpt lat="38.9324833" lon="16.331505"><ele>76.8</ele><time>2026-04-27T11:46:31.669Z</time></trkpt><trkpt lat="38.9324033" lon="16.3314633"><ele>76.6</ele><time>2026-04-27T11:46:32.727Z</time></trkpt><trkpt lat="38.932325" lon="16.331445"><ele>76.39999999999999</ele><time>2026-04-27T11:46:33.661Z</time></trkpt><trkpt lat="38.9322433" lon="16.331475"><ele>76.2</ele><time>2026-04-27T11:46:34.67Z</time></trkpt><trkpt lat="38.9321517" lon="16.3315317"><ele>76.0</ele><time>2026-04-27T11:46:35.663Z</time></trkpt><trkpt lat="38.9320467" lon="16.331585"><ele>76.0</ele><time>2026-04-27T11:46:36.668Z</time></trkpt><trkpt lat="38.9319233" lon="16.331625"><ele>76.0</ele><time>2026-04-27T11:46:37.667Z</time></trkpt><trkpt lat="38.9317717" lon="16.33165"><ele>76.0</ele><time>2026-04-27T11:46:38.714Z</time></trkpt><trkpt lat="38.931595" lon="16.3316683"><ele>76.0</ele><time>2026-04-27T11:46:39.667Z</time></trkpt><trkpt lat="38.9313933" lon="16.3316767"><ele>76.0</ele><time>2026-04-27T11:46:40.671Z</time></trkpt><trkpt lat="38.9311733" lon="16.331675"><ele>76.0</ele><time>2026-04-27T11:46:41.669Z</time></trkpt><trkpt lat="38.9309333" lon="16.3316683"><ele>75.0</ele><time>2026-04-27T11:46:42.673Z</time></trkpt><trkpt lat="38.9306767" lon="16.331665"><ele>74.0</ele><time>2026-04-27T11:46:43.671Z</time></trkpt><trkpt lat="38.9304117" lon="16.3316667"><ele>74.0</ele><time>2026-04-27T11:46:44.714Z</time></trkpt><trkpt lat="38.93015" lon="16.331685"><ele>74.0</ele><time>2026-04-27T11:46:45.664Z</time></trkpt><trkpt lat="38.9299" lon="16.3317267"><ele>72.0</ele><time>2026-04-27T11:46:46.669Z</time></trkpt><trkpt lat="38.9296633" lon="16.33179"><ele>70.0</ele><time>2026-04-27T11:46:47.671Z</time></trkpt><trkpt lat="38.9294383" lon="16.3318733"><ele>70.0</ele><time>2026-04-27T11:46:48.668Z</time></trkpt><trkpt lat="38.9292183" lon="16.3319683"><ele>70.0</ele><time>2026-04-27T11:46:49.668Z</time></trkpt><trkpt lat="38.9290083" lon="16.3320733"><ele>70.0</ele><time>2026-04-27T11:46:50.723Z</time></trkpt><trkpt lat="38.9288067" lon="16.3321767"><ele>70.0</ele><time>2026-04-27T11:46:51.669Z</time></trkpt><trkpt lat="38.9286117" lon="16.3322733"><ele>70.0</ele><time>2026-04-27T11:46:52.669Z</time></trkpt><trkpt lat="38.9284283" lon="16.332365"><ele>69.66666666666666</ele><time>2026-04-27T11:46:53.661Z</time></trkpt><trkpt lat="38.9282517" lon="16.33245"><ele>69.33333333333333</ele><time>2026-04-27T11:46:54.664Z</time></trkpt><trkpt lat="38.9280817" lon="16.3325317"><ele>69.0</ele><time>2026-04-27T11:46:55.665Z</time></trkpt><trkpt lat="38.927915" lon="16.3326083"><ele>69.0</ele><time>2026-04-27T11:46:56.736Z</time></trkpt><trkpt lat="38.9277467" lon="16.3326833"><ele>69.0</ele><time>2026-04-27T11:46:57.663Z</time></trkpt><trkpt lat="38.9275783" lon="16.3327583"><ele>69.0</ele><time>2026-04-27T11:46:58.669Z</time></trkpt><trkpt lat="38.9274083" lon="16.3328367"><ele>68.66666666666667</ele><time>2026-04-27T11:46:59.663Z</time></trkpt><trkpt lat="38.9272333" lon="16.3329167"><ele>68.33333333333334</ele><time>2026-04-27T11:47:00.673Z</time></trkpt><trkpt lat="38.92705" lon="16.3330033"><ele>68.0</ele><time>2026-04-27T11:47:01.669Z</time></trkpt><trkpt lat="38.9268583" lon="16.3330967"><ele>67.0</ele><time>2026-04-27T11:47:02.732Z</time></trkpt><trkpt lat="38.9266583" lon="16.3331917"><ele>66.0</ele><time>2026-04-27T11:47:03.667Z</time></trkpt><trkpt lat="38.9264517" lon="16.33329"><ele>65.0</ele><time>2026-04-27T11:47:04.669Z</time></trkpt><trkpt lat="38.9262383" lon="16.3333883"><ele>65.0</ele><time>2026-04-27T11:47:05.666Z</time></trkpt><trkpt lat="38.9260167" lon="16.3334867"><ele>65.0</ele><time>2026-04-27T11:47:06.67Z</time></trkpt><trkpt lat="38.9257933" lon="16.3335883"><ele>63.5</ele><time>2026-04-27T11:47:07.67Z</time></trkpt><trkpt lat="38.9255667" lon="16.3336917"><ele>62.0</ele><time>2026-04-27T11:47:08.723Z</time></trkpt><trkpt lat="38.9253383" lon="16.3337967"><ele>62.0</ele><time>2026-04-27T11:47:09.659Z</time></trkpt><trkpt lat="38.9251117" lon="16.3339017"><ele>62.0</ele><time>2026-04-27T11:47:10.669Z</time></trkpt><trkpt lat="38.924885" lon="16.3340067"><ele>61.5</ele><time>2026-04-27T11:47:11.664Z</time></trkpt><trkpt lat="38.9246667" lon="16.3341033"><ele>61.0</ele><time>2026-04-27T11:47:12.67Z</time></trkpt><trkpt lat="38.9244567" lon="16.33419"><ele>61.0</ele><time>2026-04-27T11:47:13.671Z</time></trkpt><trkpt lat="38.9242583" lon="16.3342683"><ele>61.0</ele><time>2026-04-27T11:47:14.716Z</time></trkpt><trkpt lat="38.9240633" lon="16.3343483"><ele>61.0</ele><time>2026-04-27T11:47:15.662Z</time></trkpt><trkpt lat="38.9238733" lon="16.33443"><ele>60.666666666666664</ele><time>2026-04-27T11:47:16.662Z</time></trkpt><trkpt lat="38.9236933" lon="16.33451"><ele>60.33333333333333</ele><time>2026-04-27T11:47:17.661Z</time></trkpt><trkpt lat="38.9235217" lon="16.3345867"><ele>60.0</ele><time>2026-04-27T11:47:18.667Z</time></trkpt><trkpt lat="38.92335" lon="16.334665"><ele>59.66666666666667</ele><time>2026-04-27T11:47:19.661Z</time></trkpt><trkpt lat="38.9231767" lon="16.3347433"><ele>59.333333333333336</ele><time>2026-04-27T11:47:20.716Z</time></trkpt><trkpt lat="38.9230067" lon="16.334815"><ele>59.0</ele><time>2026-04-27T11:47:21.671Z</time></trkpt><trkpt lat="38.922835" lon="16.33489"><ele>59.0</ele><time>2026-04-27T11:47:22.667Z</time></trkpt><trkpt lat="38.9226717" lon="16.3349633"><ele>59.0</ele><time>2026-04-27T11:47:23.668Z</time></trkpt><trkpt lat="38.9225083" lon="16.3350333"><ele>59.0</ele><time>2026-04-27T11:47:24.669Z</time></trkpt><trkpt lat="38.9223333" lon="16.3350967"><ele>58.66666666666667</ele><time>2026-04-27T11:47:25.668Z</time></trkpt><trkpt lat="38.9221433" lon="16.3351467"><ele>58.33333333333333</ele><time>2026-04-27T11:47:26.733Z</time></trkpt><trkpt lat="38.9219483" lon="16.33518"><ele>58.0</ele><time>2026-04-27T11:47:27.671Z</time></trkpt><trkpt lat="38.9217467" lon="16.3351983"><ele>57.666666666666664</ele><time>2026-04-27T11:47:28.67Z</time></trkpt><trkpt lat="38.9215333" lon="16.3352033"><ele>57.33333333333333</ele><time>2026-04-27T11:47:29.668Z</time></trkpt><trkpt lat="38.9213183" lon="16.3352017"><ele>57.0</ele><time>2026-04-27T11:47:30.668Z</time></trkpt><trkpt lat="38.9210983" lon="16.3351967"><ele>56.66666666666667</ele><time>2026-04-27T11:47:31.667Z</time></trkpt><trkpt lat="38.92088" lon="16.335195"><ele>56.333333333333336</ele><time>2026-04-27T11:47:32.733Z</time></trkpt><trkpt lat="38.920665" lon="16.3351933"><ele>56.0</ele><time>2026-04-27T11:47:33.661Z</time></trkpt><trkpt lat="38.9204583" lon="16.3351933"><ele>56.0</ele><time>2026-04-27T11:47:34.666Z</time></trkpt><trkpt lat="38.9202683" lon="16.335195"><ele>56.0</ele><time>2026-04-27T11:47:35.666Z</time></trkpt><trkpt lat="38.92009" lon="16.3351967"><ele>56.0</ele><time>2026-04-27T11:47:36.671Z</time></trkpt><trkpt lat="38.919905" lon="16.3352"><ele>55.333333333333336</ele><time>2026-04-27T11:47:37.667Z</time></trkpt><trkpt lat="38.91971" lon="16.3352033"><ele>54.66666666666667</ele><time>2026-04-27T11:47:38.717Z</time></trkpt><trkpt lat="38.9195017" lon="16.3352017"><ele>54.0</ele><time>2026-04-27T11:47:39.666Z</time></trkpt><trkpt lat="38.919285" lon="16.3351967"><ele>54.5</ele><time>2026-04-27T11:47:40.664Z</time></trkpt><trkpt lat="38.919055" lon="16.33519"><ele>55.0</ele><time>2026-04-27T11:47:41.664Z</time></trkpt><trkpt lat="38.9188183" lon="16.3351867"><ele>55.0</ele><time>2026-04-27T11:47:42.669Z</time></trkpt><trkpt lat="38.918585" lon="16.33519"><ele>55.0</ele><time>2026-04-27T11:47:43.669Z</time></trkpt><trkpt lat="38.9183633" lon="16.3351933"><ele>54.33333333333333</ele><time>2026-04-27T11:47:44.72Z</time></trkpt><trkpt lat="38.9181467" lon="16.3351967"><ele>53.66666666666667</ele><time>2026-04-27T11:47:45.665Z</time></trkpt><trkpt lat="38.91794" lon="16.3352"><ele>53.0</ele><time>2026-04-27T11:47:46.668Z</time></trkpt><trkpt lat="38.91774" lon="16.335205"><ele>52.0</ele><time>2026-04-27T11:47:47.664Z</time></trkpt><trkpt lat="38.9175483" lon="16.3352083"><ele>51.0</ele><time>2026-04-27T11:47:48.677Z</time></trkpt><trkpt lat="38.9173633" lon="16.33521"><ele>50.0</ele><time>2026-04-27T11:47:49.665Z</time></trkpt><trkpt lat="38.9171783" lon="16.3352083"><ele>50.0</ele><time>2026-04-27T11:47:50.714Z</time></trkpt><trkpt lat="38.916995" lon="16.3352083"><ele>50.0</ele><time>2026-04-27T11:47:51.671Z</time></trkpt><trkpt lat="38.91681" lon="16.3352067"><ele>50.0</ele><time>2026-04-27T11:47:52.664Z</time></trkpt><trkpt lat="38.9166233" lon="16.3352033"><ele>49.66666666666667</ele><time>2026-04-27T11:47:53.664Z</time></trkpt><trkpt lat="38.916435" lon="16.3351967"><ele>49.33333333333333</ele><time>2026-04-27T11:47:54.665Z</time></trkpt><trkpt lat="38.9162483" lon="16.33518"><ele>49.0</ele><time>2026-04-27T11:47:55.661Z</time></trkpt><trkpt lat="38.9160733" lon="16.3351533"><ele>49.0</ele><time>2026-04-27T11:47:56.733Z</time></trkpt><trkpt lat="38.9159117" lon="16.3351233"><ele>49.0</ele><time>2026-04-27T11:47:57.663Z</time></trkpt><trkpt lat="38.91576" lon="16.3350967"><ele>49.0</ele><time>2026-04-27T11:47:58.671Z</time></trkpt><trkpt lat="38.9156067" lon="16.3350717"><ele>48.666666666666664</ele><time>2026-04-27T11:47:59.665Z</time></trkpt><trkpt lat="38.9154467" lon="16.3350467"><ele>48.33333333333333</ele><time>2026-04-27T11:48:00.671Z</time></trkpt><trkpt lat="38.9152817" lon="16.3350183"><ele>48.0</ele><time>2026-04-27T11:48:01.665Z</time></trkpt><trkpt lat="38.91511" lon="16.3349883"><ele>47.333333333333336</ele><time>2026-04-27T11:48:02.718Z</time></trkpt><trkpt lat="38.914925" lon="16.3349583"><ele>46.66666666666667</ele><time>2026-04-27T11:48:03.667Z</time></trkpt><trkpt lat="38.9147283" lon="16.334925"><ele>46.0</ele><time>2026-04-27T11:48:04.669Z</time></trkpt><trkpt lat="38.9145267" lon="16.3348867"><ele>46.0</ele><time>2026-04-27T11:48:05.666Z</time></trkpt><trkpt lat="38.91431" lon="16.3348483"><ele>46.0</ele><time>2026-04-27T11:48:06.674Z</time></trkpt><trkpt lat="38.9140783" lon="16.33481"><ele>45.5</ele><time>2026-04-27T11:48:07.67Z</time></trkpt><trkpt lat="38.9138433" lon="16.3347717"><ele>45.0</ele><time>2026-04-27T11:48:08.714Z</time></trkpt><trkpt lat="38.9136067" lon="16.3347317"><ele>44.5</ele><time>2026-04-27T11:48:09.665Z</time></trkpt><trkpt lat="38.9133733" lon="16.334695"><ele>44.0</ele><time>2026-04-27T11:48:10.664Z</time></trkpt><trkpt lat="38.9131517" lon="16.3346583"><ele>44.0</ele><time>2026-04-27T11:48:11.663Z</time></trkpt><trkpt lat="38.91294" lon="16.3346267"><ele>44.0</ele><time>2026-04-27T11:48:12.671Z</time></trkpt><trkpt lat="38.9127333" lon="16.334595"><ele>44.0</ele><time>2026-04-27T11:48:13.668Z</time></trkpt><trkpt lat="38.9125367" lon="16.334565"><ele>43.666666666666664</ele><time>2026-04-27T11:48:14.713Z</time></trkpt><trkpt lat="38.9123433" lon="16.334535"><ele>43.333333333333336</ele><time>2026-04-27T11:48:15.665Z</time></trkpt><trkpt lat="38.9121517" lon="16.3345033"><ele>43.0</ele><time>2026-04-27T11:48:16.671Z</time></trkpt><trkpt lat="38.9119567" lon="16.33447"><ele>43.0</ele><time>2026-04-27T11:48:17.662Z</time></trkpt><trkpt lat="38.9117567" lon="16.334435"><ele>43.0</ele><time>2026-04-27T11:48:18.677Z</time></trkpt><trkpt lat="38.9115517" lon="16.3344"><ele>43.0</ele><time>2026-04-27T11:48:19.667Z</time></trkpt><trkpt lat="38.911345" lon="16.3343633"><ele>43.0</ele><time>2026-04-27T11:48:20.722Z</time></trkpt><trkpt lat="38.9111317" lon="16.3343283"><ele>43.0</ele><time>2026-04-27T11:48:21.66Z</time></trkpt><trkpt lat="38.910915" lon="16.3342967"><ele>43.0</ele><time>2026-04-27T11:48:22.671Z</time></trkpt><trkpt lat="38.910695" lon="16.3342667"><ele>43.0</ele><time>2026-04-27T11:48:23.664Z</time></trkpt><trkpt lat="38.91047" lon="16.3342333"><ele>43.0</ele><time>2026-04-27T11:48:24.67Z</time></trkpt><trkpt lat="38.9102433" lon="16.3341967"><ele>42.5</ele><time>2026-04-27T11:48:25.668Z</time></trkpt><trkpt lat="38.910015" lon="16.3341583"><ele>42.0</ele><time>2026-04-27T11:48:26.73Z</time></trkpt><trkpt lat="38.909785" lon="16.3341183"><ele>42.0</ele><time>2026-04-27T11:48:27.665Z</time></trkpt><trkpt lat="38.90956" lon="16.3340767"><ele>42.0</ele><time>2026-04-27T11:48:28.669Z</time></trkpt><trkpt lat="38.90934" lon="16.3340333"><ele>41.333333333333336</ele><time>2026-04-27T11:48:29.671Z</time></trkpt><trkpt lat="38.9091283" lon="16.3339817"><ele>40.66666666666667</ele><time>2026-04-27T11:48:30.668Z</time></trkpt><trkpt lat="38.9089267" lon="16.333915"><ele>40.0</ele><time>2026-04-27T11:48:31.662Z</time></trkpt><trkpt lat="38.9087317" lon="16.3338217"><ele>40.0</ele><time>2026-04-27T11:48:32.719Z</time></trkpt><trkpt lat="38.908545" lon="16.333705"><ele>40.0</ele><time>2026-04-27T11:48:33.662Z</time></trkpt><trkpt lat="38.9083633" lon="16.3335683"><ele>40.0</ele><time>2026-04-27T11:48:34.667Z</time></trkpt><trkpt lat="38.9081817" lon="16.33342"><ele>39.66666666666667</ele><time>2026-04-27T11:48:35.659Z</time></trkpt><trkpt lat="38.9080033" lon="16.33327"><ele>39.333333333333336</ele><time>2026-04-27T11:48:36.67Z</time></trkpt><trkpt lat="38.907835" lon="16.333125"><ele>39.0</ele><time>2026-04-27T11:48:37.666Z</time></trkpt><trkpt lat="38.9076817" lon="16.3329917"><ele>38.75</ele><time>2026-04-27T11:48:38.713Z</time></trkpt><trkpt lat="38.9075417" lon="16.3328733"><ele>38.5</ele><time>2026-04-27T11:48:39.666Z</time></trkpt><trkpt lat="38.9074233" lon="16.3327733"><ele>38.25</ele><time>2026-04-27T11:48:40.672Z</time></trkpt><trkpt lat="38.9073217" lon="16.3326933"><ele>38.0</ele><time>2026-04-27T11:48:41.665Z</time></trkpt><trkpt lat="38.9072333" lon="16.3326233"><ele>38.0</ele><time>2026-04-27T11:48:42.671Z</time></trkpt><trkpt lat="38.907145" lon="16.332555"><ele>38.0</ele><time>2026-04-27T11:48:43.663Z</time></trkpt><trkpt lat="38.90706" lon="16.332495"><ele>38.0</ele><time>2026-04-27T11:48:44.713Z</time></trkpt><trkpt lat="38.9069717" lon="16.33246"><ele>38.0</ele><time>2026-04-27T11:48:45.666Z</time></trkpt><trkpt lat="38.9069067" lon="16.3324967"><ele>38.0</ele><time>2026-04-27T11:48:46.668Z</time></trkpt><trkpt lat="38.90686" lon="16.3325733"><ele>38.0</ele><time>2026-04-27T11:48:47.665Z</time></trkpt><trkpt lat="38.90682" lon="16.332665"><ele>38.0</ele><time>2026-04-27T11:48:48.683Z</time></trkpt><trkpt lat="38.90679" lon="16.3327683"><ele>38.0</ele><time>2026-04-27T11:48:49.668Z</time></trkpt><trkpt lat="38.90676" lon="16.3328833"><ele>38.0</ele><time>2026-04-27T11:48:50.715Z</time></trkpt><trkpt lat="38.90672" lon="16.333005"><ele>38.0</ele><time>2026-04-27T11:48:51.666Z</time></trkpt><trkpt lat="38.906665" lon="16.3331233"><ele>38.0</ele><time>2026-04-27T11:48:52.666Z</time></trkpt><trkpt lat="38.9065833" lon="16.3332417"><ele>38.75</ele><time>2026-04-27T11:48:53.664Z</time></trkpt><trkpt lat="38.90649" lon="16.3333583"><ele>39.5</ele><time>2026-04-27T11:48:54.669Z</time></trkpt><trkpt lat="38.9063817" lon="16.3334833"><ele>40.25</ele><time>2026-04-27T11:48:55.662Z</time></trkpt><trkpt lat="38.9062567" lon="16.333605"><ele>41.0</ele><time>2026-04-27T11:48:56.727Z</time></trkpt><trkpt lat="38.9061083" lon="16.33373"><ele>41.0</ele><time>2026-04-27T11:48:57.665Z</time></trkpt><trkpt lat="38.90594" lon="16.3338583"><ele>41.0</ele><time>2026-04-27T11:48:58.659Z</time></trkpt><trkpt lat="38.9057583" lon="16.3339783"><ele>41.0</ele><time>2026-04-27T11:48:59.666Z</time></trkpt><trkpt lat="38.9055783" lon="16.33409"><ele>46.0</ele><time>2026-04-27T11:49:00.665Z</time></trkpt><trkpt lat="38.9053967" lon="16.3342117"><ele>51.0</ele><time>2026-04-27T11:49:01.666Z</time></trkpt><trkpt lat="38.9052183" lon="16.3343317"><ele>56.0</ele><time>2026-04-27T11:49:02.723Z</time></trkpt><trkpt lat="38.9050317" lon="16.3344433"><ele>56.0</ele><time>2026-04-27T11:49:03.667Z</time></trkpt><trkpt lat="38.9048617" lon="16.3345433"><ele>56.0</ele><time>2026-04-27T11:49:04.668Z</time></trkpt><trkpt lat="38.90469" lon="16.3346367"><ele>56.0</ele><time>2026-04-27T11:49:05.664Z</time></trkpt><trkpt lat="38.904535" lon="16.334705"><ele>56.5</ele><time>2026-04-27T11:49:06.668Z</time></trkpt><trkpt lat="38.90439" lon="16.3347467"><ele>57.0</ele><time>2026-04-27T11:49:07.665Z</time></trkpt><trkpt lat="38.9042617" lon="16.3347267"><ele>57.5</ele><time>2026-04-27T11:49:08.71Z</time></trkpt><trkpt lat="38.904125" lon="16.3346833"><ele>58.0</ele><time>2026-04-27T11:49:09.665Z</time></trkpt><trkpt lat="38.9039833" lon="16.334615"><ele>58.0</ele><time>2026-04-27T11:49:10.665Z</time></trkpt><trkpt lat="38.90385" lon="16.3345383"><ele>58.0</ele><time>2026-04-27T11:49:11.675Z</time></trkpt><trkpt lat="38.9037183" lon="16.33447"><ele>58.0</ele><time>2026-04-27T11:49:12.67Z</time></trkpt><trkpt lat="38.903595" lon="16.3344217"><ele>58.0</ele><time>2026-04-27T11:49:13.668Z</time></trkpt><trkpt lat="38.90347" lon="16.3343917"><ele>59.5</ele><time>2026-04-27T11:49:14.713Z</time></trkpt><trkpt lat="38.903345" lon="16.3343767"><ele>61.0</ele><time>2026-04-27T11:49:15.665Z</time></trkpt><trkpt lat="38.90322" lon="16.334375"><ele>62.5</ele><time>2026-04-27T11:49:16.668Z</time></trkpt><trkpt lat="38.903105" lon="16.3343767"><ele>64.0</ele><time>2026-04-27T11:49:17.667Z</time></trkpt><trkpt lat="38.903005" lon="16.3343867"><ele>64.0</ele><time>2026-04-27T11:49:18.667Z</time></trkpt><trkpt lat="38.9029133" lon="16.3344083"><ele>64.0</ele><time>2026-04-27T11:49:19.667Z</time></trkpt><trkpt lat="38.9028233" lon="16.3344483"><ele>64.0</ele><time>2026-04-27T11:49:20.714Z</time></trkpt><trkpt lat="38.9027383" lon="16.33451"><ele>64.0</ele><time>2026-04-27T11:49:21.667Z</time></trkpt><trkpt lat="38.9026533" lon="16.3345867"><ele>64.0</ele><time>2026-04-27T11:49:22.67Z</time></trkpt><trkpt lat="38.9025783" lon="16.3346783"><ele>62.33333333333333</ele><time>2026-04-27T11:49:23.664Z</time></trkpt><trkpt lat="38.9025067" lon="16.3348117"><ele>60.66666666666667</ele><time>2026-04-27T11:49:24.667Z</time></trkpt><trkpt lat="38.902425" lon="16.334975"><ele>59.0</ele><time>2026-04-27T11:49:25.667Z</time></trkpt><trkpt lat="38.9023317" lon="16.3351617"><ele>59.0</ele><time>2026-04-27T11:49:26.724Z</time></trkpt><trkpt lat="38.90225" lon="16.3353583"><ele>59.0</ele><time>2026-04-27T11:49:27.662Z</time></trkpt><trkpt lat="38.9021567" lon="16.3355633"><ele>59.0</ele><time>2026-04-27T11:49:28.666Z</time></trkpt><trkpt lat="38.9020633" lon="16.3357567"><ele>57.333333333333336</ele><time>2026-04-27T11:49:29.667Z</time></trkpt><trkpt lat="38.9019533" lon="16.3359467"><ele>55.66666666666667</ele><time>2026-04-27T11:49:30.672Z</time></trkpt><trkpt lat="38.90184" lon="16.33613"><ele>54.0</ele><time>2026-04-27T11:49:31.667Z</time></trkpt><trkpt lat="38.9017217" lon="16.33631"><ele>53.0</ele><time>2026-04-27T11:49:32.733Z</time></trkpt><trkpt lat="38.9015967" lon="16.33648"><ele>52.0</ele><time>2026-04-27T11:49:33.666Z</time></trkpt><trkpt lat="38.9014633" lon="16.3366333"><ele>51.0</ele><time>2026-04-27T11:49:34.672Z</time></trkpt><trkpt lat="38.9013133" lon="16.3367733"><ele>51.0</ele><time>2026-04-27T11:49:35.662Z</time></trkpt><trkpt lat="38.9011483" lon="16.3368967"><ele>51.0</ele><time>2026-04-27T11:49:36.673Z</time></trkpt><trkpt lat="38.9009633" lon="16.337005"><ele>51.0</ele><time>2026-04-27T11:49:37.67Z</time></trkpt><trkpt lat="38.90077" lon="16.3370933"><ele>50.33333333333333</ele><time>2026-04-27T11:49:38.718Z</time></trkpt><trkpt lat="38.9005683" lon="16.3371667"><ele>49.666666666666664</ele><time>2026-04-27T11:49:39.668Z</time></trkpt><trkpt lat="38.9003733" lon="16.3372333"><ele>49.0</ele><time>2026-04-27T11:49:40.67Z</time></trkpt><trkpt lat="38.900175" lon="16.3372933"><ele>48.666666666666664</ele><time>2026-04-27T11:49:41.664Z</time></trkpt><trkpt lat="38.8999767" lon="16.33736"><ele>48.33333333333333</ele><time>2026-04-27T11:49:42.668Z</time></trkpt><trkpt lat="38.899775" lon="16.3374333"><ele>48.0</ele><time>2026-04-27T11:49:43.665Z</time></trkpt><trkpt lat="38.8995667" lon="16.337505"><ele>48.0</ele><time>2026-04-27T11:49:44.717Z</time></trkpt><trkpt lat="38.899355" lon="16.33758"><ele>48.0</ele><time>2026-04-27T11:49:45.663Z</time></trkpt><trkpt lat="38.8991367" lon="16.3376533"><ele>48.0</ele><time>2026-04-27T11:49:46.668Z</time></trkpt><trkpt lat="38.898915" lon="16.3377267"><ele>46.5</ele><time>2026-04-27T11:49:47.667Z</time></trkpt><trkpt lat="38.8986917" lon="16.3378"><ele>45.0</ele><time>2026-04-27T11:49:48.666Z</time></trkpt><trkpt lat="38.8984667" lon="16.3378767"><ele>44.5</ele><time>2026-04-27T11:49:49.664Z</time></trkpt><trkpt lat="38.8982383" lon="16.337955"><ele>44.0</ele><time>2026-04-27T11:49:50.72Z</time></trkpt><trkpt lat="38.8980133" lon="16.3380333"><ele>44.0</ele><time>2026-04-27T11:49:51.659Z</time></trkpt><trkpt lat="38.897785" lon="16.338115"><ele>44.0</ele><time>2026-04-27T11:49:52.661Z</time></trkpt><trkpt lat="38.8975567" lon="16.338195"><ele>44.0</ele><time>2026-04-27T11:49:53.666Z</time></trkpt><trkpt lat="38.89733" lon="16.3382717"><ele>44.0</ele><time>2026-04-27T11:49:54.674Z</time></trkpt><trkpt lat="38.8971083" lon="16.3383467"><ele>44.0</ele><time>2026-04-27T11:49:55.667Z</time></trkpt><trkpt lat="38.8968983" lon="16.3384133"><ele>44.0</ele><time>2026-04-27T11:49:56.728Z</time></trkpt><trkpt lat="38.896695" lon="16.3384783"><ele>44.0</ele><time>2026-04-27T11:49:57.663Z</time></trkpt><trkpt lat="38.8964967" lon="16.3385467"><ele>44.0</ele><time>2026-04-27T11:49:58.668Z</time></trkpt><trkpt lat="38.8962883" lon="16.3386183"><ele>44.0</ele><time>2026-04-27T11:49:59.667Z</time></trkpt><trkpt lat="38.896075" lon="16.3386933"><ele>44.0</ele><time>2026-04-27T11:50:00.662Z</time></trkpt><trkpt lat="38.895855" lon="16.3387683"><ele>43.0</ele><time>2026-04-27T11:50:01.662Z</time></trkpt><trkpt lat="38.8956333" lon="16.3388467"><ele>42.0</ele><time>2026-04-27T11:50:02.723Z</time></trkpt><trkpt lat="38.8954133" lon="16.3389233"><ele>41.666666666666664</ele><time>2026-04-27T11:50:03.661Z</time></trkpt><trkpt lat="38.8952" lon="16.338995"><ele>41.33333333333333</ele><time>2026-04-27T11:50:04.673Z</time></trkpt><trkpt lat="38.894995" lon="16.3390667"><ele>41.0</ele><time>2026-04-27T11:50:05.669Z</time></trkpt><trkpt lat="38.89479" lon="16.3391383"><ele>41.666666666666664</ele><time>2026-04-27T11:50:06.674Z</time></trkpt><trkpt lat="38.8945833" lon="16.3392117"><ele>42.333333333333336</ele><time>2026-04-27T11:50:07.664Z</time></trkpt><trkpt lat="38.8943717" lon="16.3392883"><ele>43.0</ele><time>2026-04-27T11:50:08.715Z</time></trkpt><trkpt lat="38.8941583" lon="16.3393633"><ele>43.0</ele><time>2026-04-27T11:50:09.661Z</time></trkpt><trkpt lat="38.8939433" lon="16.3394333"><ele>43.0</ele><time>2026-04-27T11:50:10.665Z</time></trkpt><trkpt lat="38.8937317" lon="16.3395"><ele>43.0</ele><time>2026-04-27T11:50:11.661Z</time></trkpt><trkpt lat="38.893525" lon="16.3395617"><ele>43.0</ele><time>2026-04-27T11:50:12.669Z</time></trkpt><trkpt lat="38.8933183" lon="16.339615"><ele>43.0</ele><time>2026-04-27T11:50:13.668Z</time></trkpt><trkpt lat="38.8931117" lon="16.339645"><ele>43.0</ele><time>2026-04-27T11:50:14.711Z</time></trkpt><trkpt lat="38.8929033" lon="16.33965"><ele>43.0</ele><time>2026-04-27T11:50:15.663Z</time></trkpt><trkpt lat="38.892695" lon="16.339615"><ele>43.0</ele><time>2026-04-27T11:50:16.666Z</time></trkpt><trkpt lat="38.89249" lon="16.339545"><ele>43.0</ele><time>2026-04-27T11:50:17.67Z</time></trkpt><trkpt lat="38.8922933" lon="16.339445"><ele>43.333333333333336</ele><time>2026-04-27T11:50:18.667Z</time></trkpt><trkpt lat="38.8921017" lon="16.33932"><ele>43.666666666666664</ele><time>2026-04-27T11:50:19.663Z</time></trkpt><trkpt lat="38.8919217" lon="16.3391733"><ele>44.0</ele><time>2026-04-27T11:50:20.714Z</time></trkpt><trkpt lat="38.891765" lon="16.3389867"><ele>43.666666666666664</ele><time>2026-04-27T11:50:21.67Z</time></trkpt><trkpt lat="38.8916133" lon="16.3387817"><ele>43.333333333333336</ele><time>2026-04-27T11:50:22.658Z</time></trkpt><trkpt lat="38.89149" lon="16.3385433"><ele>43.0</ele><time>2026-04-27T11:50:23.666Z</time></trkpt><trkpt lat="38.89138" lon="16.3382933"><ele>41.0</ele><time>2026-04-27T11:50:24.668Z</time></trkpt><trkpt lat="38.8912867" lon="16.33802"><ele>39.0</ele><time>2026-04-27T11:50:25.668Z</time></trkpt><trkpt lat="38.8912067" lon="16.3377467"><ele>39.0</ele><time>2026-04-27T11:50:26.715Z</time></trkpt><trkpt lat="38.89113" lon="16.33748"><ele>39.0</ele><time>2026-04-27T11:50:27.66Z</time></trkpt><trkpt lat="38.8910533" lon="16.33723"><ele>39.0</ele><time>2026-04-27T11:50:28.666Z</time></trkpt><trkpt lat="38.8909683" lon="16.3370017"><ele>42.0</ele><time>2026-04-27T11:50:29.66Z</time></trkpt><trkpt lat="38.890875" lon="16.3367917"><ele>45.0</ele><time>2026-04-27T11:50:30.673Z</time></trkpt><trkpt lat="38.89077" lon="16.3366033"><ele>48.0</ele><time>2026-04-27T11:50:31.665Z</time></trkpt><trkpt lat="38.89065" lon="16.3364467"><ele>48.0</ele><time>2026-04-27T11:50:32.716Z</time></trkpt><trkpt lat="38.890495" lon="16.3363933"><ele>48.0</ele><time>2026-04-27T11:50:33.659Z</time></trkpt><trkpt lat="38.8903367" lon="16.3363883"><ele>48.0</ele><time>2026-04-27T11:50:34.662Z</time></trkpt><trkpt lat="38.8901717" lon="16.3364267"><ele>47.666666666666664</ele><time>2026-04-27T11:50:35.661Z</time></trkpt><trkpt lat="38.8900117" lon="16.3365033"><ele>47.33333333333333</ele><time>2026-04-27T11:50:36.667Z</time></trkpt><trkpt lat="38.8898683" lon="16.3366017"><ele>47.0</ele><time>2026-04-27T11:50:37.658Z</time></trkpt><trkpt lat="38.8897417" lon="16.3367233"><ele>47.0</ele><time>2026-04-27T11:50:38.711Z</time></trkpt><trkpt lat="38.889625" lon="16.3368717"><ele>47.0</ele><time>2026-04-27T11:50:39.662Z</time></trkpt><trkpt lat="38.8895217" lon="16.3370617"><ele>47.0</ele><time>2026-04-27T11:50:40.669Z</time></trkpt><trkpt lat="38.889415" lon="16.3372617"><ele>46.666666666666664</ele><time>2026-04-27T11:50:41.668Z</time></trkpt><trkpt lat="38.8893067" lon="16.33747"><ele>46.333333333333336</ele><time>2026-04-27T11:50:42.665Z</time></trkpt><trkpt lat="38.8891967" lon="16.3376867"><ele>46.0</ele><time>2026-04-27T11:50:43.666Z</time></trkpt><trkpt lat="38.8890817" lon="16.33791"><ele>46.66666666666667</ele><time>2026-04-27T11:50:44.716Z</time></trkpt><trkpt lat="38.8889667" lon="16.33813"><ele>47.333333333333336</ele><time>2026-04-27T11:50:45.665Z</time></trkpt><trkpt lat="38.8888533" lon="16.3383317"><ele>48.0</ele><time>2026-04-27T11:50:46.67Z</time></trkpt><trkpt lat="38.8887367" lon="16.3385117"><ele>48.0</ele><time>2026-04-27T11:50:47.661Z</time></trkpt><trkpt lat="38.8886233" lon="16.3386683"><ele>48.0</ele><time>2026-04-27T11:50:48.661Z</time></trkpt><trkpt lat="38.8885183" lon="16.3387667"><ele>48.0</ele><time>2026-04-27T11:50:49.664Z</time></trkpt><trkpt lat="38.8884167" lon="16.3388383"><ele>48.0</ele><time>2026-04-27T11:50:50.712Z</time></trkpt><trkpt lat="38.8883183" lon="16.3388933"><ele>47.333333333333336</ele><time>2026-04-27T11:50:51.666Z</time></trkpt><trkpt lat="38.8882233" lon="16.3389367"><ele>46.666666666666664</ele><time>2026-04-27T11:50:52.664Z</time></trkpt><trkpt lat="38.8881317" lon="16.33897"><ele>46.0</ele><time>2026-04-27T11:50:53.66Z</time></trkpt><trkpt lat="38.8880467" lon="16.339"><ele>45.33333333333333</ele><time>2026-04-27T11:50:54.666Z</time></trkpt><trkpt lat="38.8879733" lon="16.339035"><ele>44.666666666666664</ele><time>2026-04-27T11:50:55.663Z</time></trkpt><trkpt lat="38.8879167" lon="16.3390767"><ele>44.0</ele><time>2026-04-27T11:50:56.727Z</time></trkpt><trkpt lat="38.8878467" lon="16.3391517"><ele>44.0</ele><time>2026-04-27T11:50:58.662Z</time></trkpt><trkpt lat="38.8878067" lon="16.3392483"><ele>44.0</ele><time>2026-04-27T11:51:32.712Z</time></trkpt><trkpt lat="38.8877767" lon="16.33933"><ele>44.0</ele><time>2026-04-27T11:51:33.659Z</time></trkpt><trkpt lat="38.8877383" lon="16.3394267"><ele>44.0</ele><time>2026-04-27T11:51:34.659Z</time></trkpt><trkpt lat="38.8876917" lon="16.3395233"><ele>44.0</ele><time>2026-04-27T11:51:35.662Z</time></trkpt><trkpt lat="38.8876333" lon="16.339615"><ele>44.0</ele><time>2026-04-27T11:51:36.672Z</time></trkpt><trkpt lat="38.8875667" lon="16.3396983"><ele>44.25</ele><time>2026-04-27T11:51:37.664Z</time></trkpt><trkpt lat="38.8874817" lon="16.3397667"><ele>44.5</ele><time>2026-04-27T11:51:38.718Z</time></trkpt><trkpt lat="38.8873783" lon="16.339815"><ele>44.75</ele><time>2026-04-27T11:51:39.662Z</time></trkpt><trkpt lat="38.88726" lon="16.339855"><ele>45.0</ele><time>2026-04-27T11:51:40.663Z</time></trkpt><trkpt lat="38.8871333" lon="16.3398883"><ele>45.0</ele><time>2026-04-27T11:51:41.667Z</time></trkpt><trkpt lat="38.8869983" lon="16.3399033"><ele>45.0</ele><time>2026-04-27T11:51:42.662Z</time></trkpt><trkpt lat="38.8868517" lon="16.33987"><ele>45.0</ele><time>2026-04-27T11:51:43.672Z</time></trkpt><trkpt lat="38.8867167" lon="16.339815"><ele>45.0</ele><time>2026-04-27T11:51:44.72Z</time></trkpt><trkpt lat="38.8864467" lon="16.339625"><ele>43.5</ele><time>2026-04-27T11:51:46.669Z</time></trkpt><trkpt lat="38.8863333" lon="16.3394683"><ele>42.0</ele><time>2026-04-27T11:51:47.668Z</time></trkpt><trkpt lat="38.8855567" lon="16.3382467"><ele>42.0</ele><time>2026-04-27T11:51:55.672Z</time></trkpt><trkpt lat="38.88548" lon="16.3381333"><ele>42.0</ele><time>2026-04-27T11:51:56.722Z</time></trkpt><trkpt lat="38.8853217" lon="16.337885"><ele>42.0</ele><time>2026-04-27T11:51:58.665Z</time></trkpt><trkpt lat="38.8852367" lon="16.3377467"><ele>41.666666666666664</ele><time>2026-04-27T11:51:59.666Z</time></trkpt><trkpt lat="38.8851433" lon="16.3376017"><ele>41.33333333333333</ele><time>2026-04-27T11:52:00.67Z</time></trkpt><trkpt lat="38.88503" lon="16.3374567"><ele>41.0</ele><time>2026-04-27T11:52:01.664Z</time></trkpt><trkpt lat="38.8849033" lon="16.3373283"><ele>41.0</ele><time>2026-04-27T11:52:02.725Z</time></trkpt><trkpt lat="38.8847633" lon="16.3372133"><ele>41.0</ele><time>2026-04-27T11:52:03.665Z</time></trkpt><trkpt lat="38.884595" lon="16.337125"><ele>41.0</ele><time>2026-04-27T11:52:04.671Z</time></trkpt><trkpt lat="38.8844167" lon="16.3370633"><ele>42.33333333333333</ele><time>2026-04-27T11:52:05.668Z</time></trkpt><trkpt lat="38.8842233" lon="16.3370217"><ele>43.666666666666664</ele><time>2026-04-27T11:52:06.664Z</time></trkpt><trkpt lat="38.8840133" lon="16.3369833"><ele>45.0</ele><time>2026-04-27T11:52:07.666Z</time></trkpt><trkpt lat="38.8838133" lon="16.336945"><ele>45.0</ele><time>2026-04-27T11:52:08.724Z</time></trkpt><trkpt lat="38.8836117" lon="16.3369083"><ele>45.0</ele><time>2026-04-27T11:52:09.66Z</time></trkpt><trkpt lat="38.8834083" lon="16.3368767"><ele>45.0</ele><time>2026-04-27T11:52:10.67Z</time></trkpt><trkpt lat="38.8832233" lon="16.3368283"><ele>46.0</ele><time>2026-04-27T11:52:11.662Z</time></trkpt><trkpt lat="38.88305" lon="16.336755"><ele>47.0</ele><time>2026-04-27T11:52:12.673Z</time></trkpt><trkpt lat="38.8828817" lon="16.3366483"><ele>48.0</ele><time>2026-04-27T11:52:13.667Z</time></trkpt><trkpt lat="38.8827133" lon="16.33652"><ele>52.0</ele><time>2026-04-27T11:52:14.722Z</time></trkpt><trkpt lat="38.88254" lon="16.33638"><ele>56.0</ele><time>2026-04-27T11:52:15.662Z</time></trkpt><trkpt lat="38.8823667" lon="16.3362383"><ele>60.0</ele><time>2026-04-27T11:52:16.668Z</time></trkpt><trkpt lat="38.8822" lon="16.336105"><ele>60.0</ele><time>2026-04-27T11:52:17.663Z</time></trkpt><trkpt lat="38.88204" lon="16.33598"><ele>60.0</ele><time>2026-04-27T11:52:18.671Z</time></trkpt><trkpt lat="38.8818867" lon="16.3358567"><ele>60.0</ele><time>2026-04-27T11:52:19.667Z</time></trkpt><trkpt lat="38.8817383" lon="16.3357417"><ele>60.25</ele><time>2026-04-27T11:52:20.724Z</time></trkpt><trkpt lat="38.8816033" lon="16.3356383"><ele>60.5</ele><time>2026-04-27T11:52:21.663Z</time></trkpt><trkpt lat="38.8814717" lon="16.3355533"><ele>60.75</ele><time>2026-04-27T11:52:22.68Z</time></trkpt><trkpt lat="38.8813433" lon="16.3355283"><ele>61.0</ele><time>2026-04-27T11:52:23.667Z</time></trkpt><trkpt lat="38.881215" lon="16.3355517"><ele>61.0</ele><time>2026-04-27T11:52:24.668Z</time></trkpt><trkpt lat="38.8810817" lon="16.3356117"><ele>61.0</ele><time>2026-04-27T11:52:25.664Z</time></trkpt><trkpt lat="38.880945" lon="16.33568"><ele>61.0</ele><time>2026-04-27T11:52:26.726Z</time></trkpt><trkpt lat="38.8808033" lon="16.3357283"><ele>61.0</ele><time>2026-04-27T11:52:27.667Z</time></trkpt><trkpt lat="38.8806717" lon="16.3357383"><ele>62.75</ele><time>2026-04-27T11:52:28.669Z</time></trkpt><trkpt lat="38.8805533" lon="16.3356967"><ele>64.5</ele><time>2026-04-27T11:52:29.668Z</time></trkpt><trkpt lat="38.88044" lon="16.335605"><ele>66.25</ele><time>2026-04-27T11:52:30.678Z</time></trkpt><trkpt lat="38.8803283" lon="16.33548"><ele>68.0</ele><time>2026-04-27T11:52:31.663Z</time></trkpt><trkpt lat="38.880215" lon="16.3353317"><ele>70.33333333333334</ele><time>2026-04-27T11:52:32.721Z</time></trkpt><trkpt lat="38.880095" lon="16.3351717"><ele>72.66666666666667</ele><time>2026-04-27T11:52:33.665Z</time></trkpt><trkpt lat="38.8799683" lon="16.3350183"><ele>75.0</ele><time>2026-04-27T11:52:34.664Z</time></trkpt><trkpt lat="38.8798217" lon="16.33488"><ele>75.0</ele><time>2026-04-27T11:52:35.659Z</time></trkpt><trkpt lat="38.87966" lon="16.3347517"><ele>75.0</ele><time>2026-04-27T11:52:36.679Z</time></trkpt><trkpt lat="38.8794883" lon="16.3346317"><ele>75.0</ele><time>2026-04-27T11:52:37.662Z</time></trkpt><trkpt lat="38.8793283" lon="16.33453"><ele>77.66666666666667</ele><time>2026-04-27T11:52:38.714Z</time></trkpt><trkpt lat="38.87918" lon="16.3344433"><ele>80.33333333333334</ele><time>2026-04-27T11:52:39.665Z</time></trkpt><trkpt lat="38.8790367" lon="16.3343783"><ele>83.0</ele><time>2026-04-27T11:52:40.661Z</time></trkpt><trkpt lat="38.8788917" lon="16.3343433"><ele>83.0</ele><time>2026-04-27T11:52:41.67Z</time></trkpt><trkpt lat="38.8787433" lon="16.3343483"><ele>83.0</ele><time>2026-04-27T11:52:42.667Z</time></trkpt><trkpt lat="38.878595" lon="16.3343733"><ele>83.0</ele><time>2026-04-27T11:52:43.664Z</time></trkpt><trkpt lat="38.8784483" lon="16.3343867"><ele>83.0</ele><time>2026-04-27T11:52:44.723Z</time></trkpt><trkpt lat="38.8783133" lon="16.334355"><ele>83.25</ele><time>2026-04-27T11:52:45.663Z</time></trkpt><trkpt lat="38.87818" lon="16.33429"><ele>83.5</ele><time>2026-04-27T11:52:46.666Z</time></trkpt><trkpt lat="38.8780533" lon="16.3341983"><ele>83.75</ele><time>2026-04-27T11:52:47.659Z</time></trkpt><trkpt lat="38.8779283" lon="16.33411"><ele>84.0</ele><time>2026-04-27T11:52:48.669Z</time></trkpt><trkpt lat="38.877775" lon="16.334055"><ele>84.0</ele><time>2026-04-27T11:52:49.663Z</time></trkpt><trkpt lat="38.8776117" lon="16.334025"><ele>84.0</ele><time>2026-04-27T11:52:50.722Z</time></trkpt><trkpt lat="38.877435" lon="16.3340117"><ele>84.0</ele><time>2026-04-27T11:52:51.665Z</time></trkpt><trkpt lat="38.8772617" lon="16.3340033"><ele>84.75</ele><time>2026-04-27T11:52:52.666Z</time></trkpt><trkpt lat="38.87711" lon="16.333995"><ele>85.5</ele><time>2026-04-27T11:52:53.665Z</time></trkpt><trkpt lat="38.8769867" lon="16.3339833"><ele>86.25</ele><time>2026-04-27T11:52:54.673Z</time></trkpt><trkpt lat="38.8768883" lon="16.333965"><ele>87.0</ele><time>2026-04-27T11:52:55.66Z</time></trkpt><trkpt lat="38.876805" lon="16.3339367"><ele>87.0</ele><time>2026-04-27T11:52:56.725Z</time></trkpt><trkpt lat="38.876725" lon="16.3339067"><ele>87.0</ele><time>2026-04-27T11:52:57.661Z</time></trkpt><trkpt lat="38.8766533" lon="16.3338917"><ele>87.0</ele><time>2026-04-27T11:52:58.667Z</time></trkpt><trkpt lat="38.87659" lon="16.333935"><ele>87.0</ele><time>2026-04-27T11:52:59.661Z</time></trkpt><trkpt lat="38.876525" lon="16.3340067"><ele>87.0</ele><time>2026-04-27T11:53:00.674Z</time></trkpt><trkpt lat="38.8764567" lon="16.3340983"><ele>87.0</ele><time>2026-04-27T11:53:01.66Z</time></trkpt><trkpt lat="38.8763783" lon="16.334225"><ele>87.0</ele><time>2026-04-27T11:53:02.713Z</time></trkpt><trkpt lat="38.8762917" lon="16.33436"><ele>87.0</ele><time>2026-04-27T11:53:03.669Z</time></trkpt><trkpt lat="38.8762017" lon="16.334515"><ele>87.0</ele><time>2026-04-27T11:53:04.665Z</time></trkpt><trkpt lat="38.8761017" lon="16.3346783"><ele>87.0</ele><time>2026-04-27T11:53:05.666Z</time></trkpt><trkpt lat="38.8760067" lon="16.3348333"><ele>86.75</ele><time>2026-04-27T11:53:06.668Z</time></trkpt><trkpt lat="38.87592" lon="16.33498"><ele>86.5</ele><time>2026-04-27T11:53:07.663Z</time></trkpt><trkpt lat="38.87584" lon="16.3351283"><ele>86.25</ele><time>2026-04-27T11:53:08.723Z</time></trkpt><trkpt lat="38.8757633" lon="16.3352967"><ele>86.0</ele><time>2026-04-27T11:53:09.683Z</time></trkpt><trkpt lat="38.8756967" lon="16.3354867"><ele>86.33333333333334</ele><time>2026-04-27T11:53:10.669Z</time></trkpt><trkpt lat="38.8756283" lon="16.335695"><ele>86.66666666666667</ele><time>2026-04-27T11:53:11.665Z</time></trkpt><trkpt lat="38.8755633" lon="16.3359233"><ele>87.0</ele><time>2026-04-27T11:53:12.667Z</time></trkpt><trkpt lat="38.8755" lon="16.3361683"><ele>87.66666666666667</ele><time>2026-04-27T11:53:13.664Z</time></trkpt><trkpt lat="38.8754367" lon="16.3364267"><ele>88.33333333333334</ele><time>2026-04-27T11:53:14.722Z</time></trkpt><trkpt lat="38.8753783" lon="16.3366867"><ele>89.0</ele><time>2026-04-27T11:53:15.666Z</time></trkpt><trkpt lat="38.8753183" lon="16.3369417"><ele>89.0</ele><time>2026-04-27T11:53:16.669Z</time></trkpt><trkpt lat="38.875255" lon="16.3371783"><ele>89.0</ele><time>2026-04-27T11:53:17.659Z</time></trkpt><trkpt lat="38.8751817" lon="16.3374"><ele>89.0</ele><time>2026-04-27T11:53:18.666Z</time></trkpt><trkpt lat="38.8750983" lon="16.3376167"><ele>88.33333333333334</ele><time>2026-04-27T11:53:19.671Z</time></trkpt><trkpt lat="38.8750067" lon="16.3378333"><ele>87.66666666666667</ele><time>2026-04-27T11:53:20.721Z</time></trkpt><trkpt lat="38.8749067" lon="16.33805"><ele>87.0</ele><time>2026-04-27T11:53:21.666Z</time></trkpt><trkpt lat="38.8748017" lon="16.3382683"><ele>87.0</ele><time>2026-04-27T11:53:22.672Z</time></trkpt><trkpt lat="38.8746917" lon="16.338485"><ele>87.0</ele><time>2026-04-27T11:53:23.664Z</time></trkpt><trkpt lat="38.8745817" lon="16.3387033"><ele>87.0</ele><time>2026-04-27T11:53:24.671Z</time></trkpt><trkpt lat="38.8744717" lon="16.33892"><ele>87.0</ele><time>2026-04-27T11:53:25.664Z</time></trkpt><trkpt lat="38.8743567" lon="16.3391383"><ele>87.0</ele><time>2026-04-27T11:53:26.724Z</time></trkpt><trkpt lat="38.8742383" lon="16.3393567"><ele>87.0</ele><time>2026-04-27T11:53:27.661Z</time></trkpt><trkpt lat="38.8741167" lon="16.339575"><ele>86.66666666666667</ele><time>2026-04-27T11:53:28.664Z</time></trkpt><trkpt lat="38.873995" lon="16.339785"><ele>86.33333333333334</ele><time>2026-04-27T11:53:29.666Z</time></trkpt><trkpt lat="38.8738767" lon="16.33998"><ele>86.0</ele><time>2026-04-27T11:53:30.659Z</time></trkpt><trkpt lat="38.873765" lon="16.3401567"><ele>86.0</ele><time>2026-04-27T11:53:31.66Z</time></trkpt><trkpt lat="38.873665" lon="16.34031"><ele>86.0</ele><time>2026-04-27T11:53:32.722Z</time></trkpt><trkpt lat="38.873585" lon="16.34043"><ele>86.0</ele><time>2026-04-27T11:53:33.66Z</time></trkpt><trkpt lat="38.8735283" lon="16.340505"><ele>86.0</ele><time>2026-04-27T11:53:34.665Z</time></trkpt><trkpt lat="38.8734733" lon="16.3405767"><ele>86.0</ele><time>2026-04-27T11:53:39.669Z</time></trkpt><trkpt lat="38.8734483" lon="16.34066"><ele>85.25</ele><time>2026-04-27T11:53:41.661Z</time></trkpt><trkpt lat="38.8734117" lon="16.3407267"><ele>84.5</ele><time>2026-04-27T11:53:42.664Z</time></trkpt><trkpt lat="38.8733317" lon="16.3408417"><ele>83.75</ele><time>2026-04-27T11:53:43.666Z</time></trkpt><trkpt lat="38.8732433" lon="16.3409683"><ele>83.0</ele><time>2026-04-27T11:53:44.723Z</time></trkpt><trkpt lat="38.8731383" lon="16.3411117"><ele>83.0</ele><time>2026-04-27T11:53:45.664Z</time></trkpt><trkpt lat="38.8730183" lon="16.3412617"><ele>83.0</ele><time>2026-04-27T11:53:46.666Z</time></trkpt><trkpt lat="38.87289" lon="16.3414083"><ele>83.0</ele><time>2026-04-27T11:53:47.664Z</time></trkpt><trkpt lat="38.872755" lon="16.3415533"><ele>82.33333333333334</ele><time>2026-04-27T11:53:48.669Z</time></trkpt><trkpt lat="38.8726167" lon="16.3417"><ele>81.66666666666667</ele><time>2026-04-27T11:53:49.667Z</time></trkpt><trkpt lat="38.87248" lon="16.3418333"><ele>81.0</ele><time>2026-04-27T11:53:50.716Z</time></trkpt><trkpt lat="38.8723567" lon="16.3419567"><ele>82.0</ele><time>2026-04-27T11:53:51.665Z</time></trkpt><trkpt lat="38.8722433" lon="16.342065"><ele>83.0</ele><time>2026-04-27T11:53:52.668Z</time></trkpt><trkpt lat="38.8721433" lon="16.3421533"><ele>84.0</ele><time>2026-04-27T11:53:53.67Z</time></trkpt><trkpt lat="38.8720617" lon="16.342225"><ele>85.0</ele><time>2026-04-27T11:53:54.673Z</time></trkpt><trkpt lat="38.87199" lon="16.3422917"><ele>85.6</ele><time>2026-04-27T11:53:55.661Z</time></trkpt><trkpt lat="38.8719067" lon="16.3423633"><ele>86.2</ele><time>2026-04-27T11:53:56.719Z</time></trkpt><trkpt lat="38.8718183" lon="16.34244"><ele>86.80000000000001</ele><time>2026-04-27T11:53:57.659Z</time></trkpt><trkpt lat="38.8717233" lon="16.3425017"><ele>87.4</ele><time>2026-04-27T11:53:58.669Z</time></trkpt><trkpt lat="38.8716283" lon="16.3425417"><ele>88.0</ele><time>2026-04-27T11:53:59.671Z</time></trkpt><trkpt lat="38.8715533" lon="16.3425383"><ele>88.2</ele><time>2026-04-27T11:54:00.661Z</time></trkpt><trkpt lat="38.8714783" lon="16.3425167"><ele>88.4</ele><time>2026-04-27T11:54:01.664Z</time></trkpt><trkpt lat="38.8714183" lon="16.34245"><ele>88.60000000000001</ele><time>2026-04-27T11:54:02.721Z</time></trkpt><trkpt lat="38.871375" lon="16.3423383"><ele>88.80000000000001</ele><time>2026-04-27T11:54:03.662Z</time></trkpt><trkpt lat="38.8713367" lon="16.342205"><ele>89.0</ele><time>2026-04-27T11:54:04.666Z</time></trkpt><trkpt lat="38.8713" lon="16.3420583"><ele>87.6</ele><time>2026-04-27T11:54:05.664Z</time></trkpt><trkpt lat="38.87127" lon="16.3419117"><ele>86.2</ele><time>2026-04-27T11:54:06.671Z</time></trkpt><trkpt lat="38.8712567" lon="16.34178"><ele>84.8</ele><time>2026-04-27T11:54:07.66Z</time></trkpt><trkpt lat="38.8713033" lon="16.3416783"><ele>83.39999999999999</ele><time>2026-04-27T11:54:08.724Z</time></trkpt><trkpt lat="38.8713533" lon="16.341575"><ele>82.0</ele><time>2026-04-27T11:54:09.665Z</time></trkpt><trkpt lat="38.8713917" lon="16.3414683"><ele>81.39999999999999</ele><time>2026-04-27T11:54:10.667Z</time></trkpt><trkpt lat="38.8713783" lon="16.3413317"><ele>80.8</ele><time>2026-04-27T11:54:11.665Z</time></trkpt><trkpt lat="38.87135" lon="16.341185"><ele>80.2</ele><time>2026-04-27T11:54:12.667Z</time></trkpt><trkpt lat="38.8713217" lon="16.3410433"><ele>79.6</ele><time>2026-04-27T11:54:13.669Z</time></trkpt><trkpt lat="38.8712917" lon="16.3409117"><ele>79.0</ele><time>2026-04-27T11:54:14.726Z</time></trkpt><trkpt lat="38.8712517" lon="16.3407967"><ele>79.0</ele><time>2026-04-27T11:54:15.659Z</time></trkpt><trkpt lat="38.8711883" lon="16.34069"><ele>79.0</ele><time>2026-04-27T11:54:16.67Z</time></trkpt><trkpt lat="38.8711017" lon="16.3405783"><ele>79.0</ele><time>2026-04-27T11:54:17.669Z</time></trkpt><trkpt lat="38.8709883" lon="16.34047"><ele>79.0</ele><time>2026-04-27T11:54:18.669Z</time></trkpt><trkpt lat="38.870855" lon="16.340365"><ele>79.5</ele><time>2026-04-27T11:54:19.664Z</time></trkpt><trkpt lat="38.870725" lon="16.3402683"><ele>80.0</ele><time>2026-04-27T11:54:20.72Z</time></trkpt><trkpt lat="38.870595" lon="16.3401817"><ele>80.5</ele><time>2026-04-27T11:54:21.665Z</time></trkpt><trkpt lat="38.8704567" lon="16.3401467"><ele>81.0</ele><time>2026-04-27T11:54:22.666Z</time></trkpt><trkpt lat="38.8703183" lon="16.3401367"><ele>81.0</ele><time>2026-04-27T11:54:23.67Z</time></trkpt><trkpt lat="38.8701883" lon="16.3401283"><ele>81.0</ele><time>2026-04-27T11:54:24.671Z</time></trkpt><trkpt lat="38.870075" lon="16.3401017"><ele>81.0</ele><time>2026-04-27T11:54:25.667Z</time></trkpt><trkpt lat="38.8699617" lon="16.3400383"><ele>81.0</ele><time>2026-04-27T11:54:26.72Z</time></trkpt><trkpt lat="38.8698683" lon="16.339915"><ele>82.75</ele><time>2026-04-27T11:54:27.664Z</time></trkpt><trkpt lat="38.8697783" lon="16.33978"><ele>84.5</ele><time>2026-04-27T11:54:28.666Z</time></trkpt><trkpt lat="38.86968" lon="16.3396483"><ele>86.25</ele><time>2026-04-27T11:54:29.659Z</time></trkpt><trkpt lat="38.869565" lon="16.339505"><ele>88.0</ele><time>2026-04-27T11:54:30.668Z</time></trkpt><trkpt lat="38.8694433" lon="16.3393717"><ele>88.0</ele><time>2026-04-27T11:54:31.665Z</time></trkpt><trkpt lat="38.8693067" lon="16.3392467"><ele>88.0</ele><time>2026-04-27T11:54:32.723Z</time></trkpt><trkpt lat="38.8691583" lon="16.3391283"><ele>88.0</ele><time>2026-04-27T11:54:33.664Z</time></trkpt><trkpt lat="38.8689933" lon="16.3390133"><ele>92.33333333333333</ele><time>2026-04-27T11:54:34.67Z</time></trkpt><trkpt lat="38.8688317" lon="16.3388867"><ele>96.66666666666666</ele><time>2026-04-27T11:54:35.662Z</time></trkpt><trkpt lat="38.8686817" lon="16.3387467"><ele>101.0</ele><time>2026-04-27T11:54:36.67Z</time></trkpt><trkpt lat="38.8685333" lon="16.33862"><ele>106.0</ele><time>2026-04-27T11:54:37.659Z</time></trkpt><trkpt lat="38.868395" lon="16.3385133"><ele>111.0</ele><time>2026-04-27T11:54:38.718Z</time></trkpt><trkpt lat="38.8682517" lon="16.3384517"><ele>116.0</ele><time>2026-04-27T11:54:39.661Z</time></trkpt><trkpt lat="38.8681167" lon="16.3384267"><ele>121.0</ele><time>2026-04-27T11:54:40.667Z</time></trkpt><trkpt lat="38.867975" lon="16.33845"><ele>121.0</ele><time>2026-04-27T11:54:41.667Z</time></trkpt><trkpt lat="38.8678383" lon="16.3385067"><ele>121.0</ele><time>2026-04-27T11:54:42.67Z</time></trkpt><trkpt lat="38.867705" lon="16.33858"><ele>121.0</ele><time>2026-04-27T11:54:43.664Z</time></trkpt><trkpt lat="38.8675617" lon="16.3386717"><ele>121.0</ele><time>2026-04-27T11:54:44.721Z</time></trkpt><trkpt lat="38.86741" lon="16.3387683"><ele>122.0</ele><time>2026-04-27T11:54:45.661Z</time></trkpt><trkpt lat="38.8672567" lon="16.3388667"><ele>123.0</ele><time>2026-04-27T11:54:46.669Z</time></trkpt><trkpt lat="38.8671083" lon="16.3389567"><ele>124.0</ele><time>2026-04-27T11:54:47.663Z</time></trkpt><trkpt lat="38.8669783" lon="16.33904"><ele>127.5</ele><time>2026-04-27T11:54:48.67Z</time></trkpt><trkpt lat="38.8668733" lon="16.3391317"><ele>131.0</ele><time>2026-04-27T11:54:49.668Z</time></trkpt><trkpt lat="38.8667917" lon="16.3392617"><ele>134.5</ele><time>2026-04-27T11:54:50.72Z</time></trkpt><trkpt lat="38.8667083" lon="16.3394167"><ele>138.0</ele><time>2026-04-27T11:54:51.661Z</time></trkpt><trkpt lat="38.8666167" lon="16.3395817"><ele>146.0</ele><time>2026-04-27T11:54:52.667Z</time></trkpt><trkpt lat="38.866515" lon="16.339745"><ele>154.0</ele><time>2026-04-27T11:54:53.665Z</time></trkpt><trkpt lat="38.8664" lon="16.3399067"><ele>162.0</ele><time>2026-04-27T11:54:54.668Z</time></trkpt><trkpt lat="38.866275" lon="16.3400683"><ele>162.0</ele><time>2026-04-27T11:54:55.662Z</time></trkpt><trkpt lat="38.8661433" lon="16.3402233"><ele>162.0</ele><time>2026-04-27T11:54:56.732Z</time></trkpt><trkpt lat="38.8660183" lon="16.3403633"><ele>162.0</ele><time>2026-04-27T11:54:57.66Z</time></trkpt><trkpt lat="38.8659067" lon="16.3404833"><ele>164.6</ele><time>2026-04-27T11:54:58.665Z</time></trkpt><trkpt lat="38.8658083" lon="16.340585"><ele>167.2</ele><time>2026-04-27T11:54:59.66Z</time></trkpt><trkpt lat="38.8657133" lon="16.34066"><ele>169.8</ele><time>2026-04-27T11:55:00.669Z</time></trkpt><trkpt lat="38.8656167" lon="16.3406967"><ele>172.4</ele><time>2026-04-27T11:55:01.667Z</time></trkpt><trkpt lat="38.8655117" lon="16.3407017"><ele>175.0</ele><time>2026-04-27T11:55:02.72Z</time></trkpt><trkpt lat="38.8653933" lon="16.340695"><ele>175.0</ele><time>2026-04-27T11:55:03.66Z</time></trkpt><trkpt lat="38.8652733" lon="16.3406967"><ele>175.0</ele><time>2026-04-27T11:55:04.664Z</time></trkpt><trkpt lat="38.865165" lon="16.340745"><ele>175.0</ele><time>2026-04-27T11:55:05.664Z</time></trkpt><trkpt lat="38.8650683" lon="16.3408317"><ele>175.0</ele><time>2026-04-27T11:55:06.668Z</time></trkpt><trkpt lat="38.8649733" lon="16.3409433"><ele>175.33333333333334</ele><time>2026-04-27T11:55:07.669Z</time></trkpt><trkpt lat="38.86488" lon="16.34108"><ele>175.66666666666666</ele><time>2026-04-27T11:55:08.72Z</time></trkpt><trkpt lat="38.8647817" lon="16.341255"><ele>176.0</ele><time>2026-04-27T11:55:09.659Z</time></trkpt><trkpt lat="38.8646783" lon="16.3414333"><ele>178.66666666666666</ele><time>2026-04-27T11:55:10.667Z</time></trkpt><trkpt lat="38.86457" lon="16.3415983"><ele>181.33333333333334</ele><time>2026-04-27T11:55:11.665Z</time></trkpt><trkpt lat="38.86446" lon="16.3417417"><ele>184.0</ele><time>2026-04-27T11:55:12.67Z</time></trkpt><trkpt lat="38.8643333" lon="16.3418733"><ele>183.0</ele><time>2026-04-27T11:55:13.66Z</time></trkpt><trkpt lat="38.8641933" lon="16.34199"><ele>182.0</ele><time>2026-04-27T11:55:14.714Z</time></trkpt><trkpt lat="38.8640483" lon="16.34209"><ele>181.0</ele><time>2026-04-27T11:55:15.666Z</time></trkpt><trkpt lat="38.8639033" lon="16.3421717"><ele>181.0</ele><time>2026-04-27T11:55:16.666Z</time></trkpt><trkpt lat="38.863765" lon="16.3422267"><ele>181.0</ele><time>2026-04-27T11:55:17.661Z</time></trkpt><trkpt lat="38.863635" lon="16.3422283"><ele>181.0</ele><time>2026-04-27T11:55:18.669Z</time></trkpt><trkpt lat="38.8635017" lon="16.342205"><ele>181.0</ele><time>2026-04-27T11:55:19.667Z</time></trkpt><trkpt lat="38.8633633" lon="16.342175"><ele>182.5</ele><time>2026-04-27T11:55:20.717Z</time></trkpt><trkpt lat="38.8632167" lon="16.34215"><ele>184.0</ele><time>2026-04-27T11:55:21.665Z</time></trkpt><trkpt lat="38.86307" lon="16.3421267"><ele>185.5</ele><time>2026-04-27T11:55:22.666Z</time></trkpt><trkpt lat="38.8629383" lon="16.3421083"><ele>187.0</ele><time>2026-04-27T11:55:23.657Z</time></trkpt><trkpt lat="38.8628083" lon="16.3421083"><ele>187.0</ele><time>2026-04-27T11:55:24.662Z</time></trkpt><trkpt lat="38.862685" lon="16.3421533"><ele>187.0</ele><time>2026-04-27T11:55:25.661Z</time></trkpt><trkpt lat="38.86256" lon="16.34223"><ele>187.0</ele><time>2026-04-27T11:55:26.735Z</time></trkpt><trkpt lat="38.8624283" lon="16.3423217"><ele>187.0</ele><time>2026-04-27T11:55:27.662Z</time></trkpt><trkpt lat="38.8622867" lon="16.342415"><ele>193.5</ele><time>2026-04-27T11:55:28.666Z</time></trkpt><trkpt lat="38.8621433" lon="16.342495"><ele>200.0</ele><time>2026-04-27T11:55:29.667Z</time></trkpt><trkpt lat="38.8619967" lon="16.34255"><ele>206.5</ele><time>2026-04-27T11:55:30.67Z</time></trkpt><trkpt lat="38.8618583" lon="16.3425717"><ele>213.0</ele><time>2026-04-27T11:55:31.667Z</time></trkpt><trkpt lat="38.8617317" lon="16.3425667"><ele>215.75</ele><time>2026-04-27T11:55:32.725Z</time></trkpt><trkpt lat="38.861605" lon="16.3425383"><ele>218.5</ele><time>2026-04-27T11:55:33.665Z</time></trkpt><trkpt lat="38.8614767" lon="16.3424883"><ele>221.25</ele><time>2026-04-27T11:55:34.666Z</time></trkpt><trkpt lat="38.8613433" lon="16.3424133"><ele>224.0</ele><time>2026-04-27T11:55:35.661Z</time></trkpt><trkpt lat="38.8612067" lon="16.3423183"><ele>224.0</ele><time>2026-04-27T11:55:36.668Z</time></trkpt><trkpt lat="38.86108" lon="16.34222"><ele>223.99999999999997</ele><time>2026-04-27T11:55:37.673Z</time></trkpt><trkpt lat="38.860975" lon="16.342135"><ele>223.99999999999997</ele><time>2026-04-27T11:55:38.722Z</time></trkpt><trkpt lat="38.8608967" lon="16.3421"><ele>224.0</ele><time>2026-04-27T11:55:39.665Z</time></trkpt><trkpt lat="38.8608283" lon="16.3421"><ele>224.0</ele><time>2026-04-27T11:55:40.671Z</time></trkpt><trkpt lat="38.8607883" lon="16.342175"><ele>226.2</ele><time>2026-04-27T11:55:41.665Z</time></trkpt><trkpt lat="38.8607467" lon="16.3422667"><ele>228.39999999999998</ele><time>2026-04-27T11:55:42.671Z</time></trkpt><trkpt lat="38.860705" lon="16.342365"><ele>230.6</ele><time>2026-04-27T11:55:43.665Z</time></trkpt><trkpt lat="38.860655" lon="16.3424567"><ele>232.8</ele><time>2026-04-27T11:55:44.718Z</time></trkpt><trkpt lat="38.8605817" lon="16.342535"><ele>235.0</ele><time>2026-04-27T11:55:45.663Z</time></trkpt><trkpt lat="38.8604867" lon="16.3426083"><ele>235.0</ele><time>2026-04-27T11:55:46.672Z</time></trkpt><trkpt lat="38.8603667" lon="16.34268"><ele>235.0</ele><time>2026-04-27T11:55:47.667Z</time></trkpt><trkpt lat="38.8602333" lon="16.342755"><ele>235.0</ele><time>2026-04-27T11:55:48.666Z</time></trkpt><trkpt lat="38.8600917" lon="16.3428367"><ele>235.0</ele><time>2026-04-27T11:55:49.66Z</time></trkpt><trkpt lat="38.8599417" lon="16.342925"><ele>232.0</ele><time>2026-04-27T11:55:50.719Z</time></trkpt><trkpt lat="38.859785" lon="16.3430233"><ele>229.0</ele><time>2026-04-27T11:55:51.662Z</time></trkpt><trkpt lat="38.8596333" lon="16.3431383"><ele>226.0</ele><time>2026-04-27T11:55:52.666Z</time></trkpt><trkpt lat="38.859475" lon="16.343275"><ele>234.0</ele><time>2026-04-27T11:55:53.66Z</time></trkpt><trkpt lat="38.8593233" lon="16.3434267"><ele>242.0</ele><time>2026-04-27T11:55:54.667Z</time></trkpt><trkpt lat="38.8591783" lon="16.3435867"><ele>250.0</ele><time>2026-04-27T11:55:55.665Z</time></trkpt><trkpt lat="38.8590517" lon="16.3437383"><ele>253.33333333333331</ele><time>2026-04-27T11:55:56.7Z</time></trkpt><trkpt lat="38.858935" lon="16.3438833"><ele>256.6666666666667</ele><time>2026-04-27T11:55:57.664Z</time></trkpt><trkpt lat="38.8588133" lon="16.3440083"><ele>260.0</ele><time>2026-04-27T11:55:58.665Z</time></trkpt><trkpt lat="38.8586767" lon="16.3441217"><ele>260.0</ele><time>2026-04-27T11:55:59.659Z</time></trkpt><trkpt lat="38.858545" lon="16.344225"><ele>260.0</ele><time>2026-04-27T11:56:00.668Z</time></trkpt><trkpt lat="38.85843" lon="16.3443267"><ele>260.0</ele><time>2026-04-27T11:56:01.661Z</time></trkpt><trkpt lat="38.8583267" lon="16.3444467"><ele>260.0</ele><time>2026-04-27T11:56:02.726Z</time></trkpt><trkpt lat="38.8582517" lon="16.344595"><ele>262.33333333333337</ele><time>2026-04-27T11:56:03.662Z</time></trkpt><trkpt lat="38.8582067" lon="16.3447967"><ele>264.6666666666667</ele><time>2026-04-27T11:56:04.662Z</time></trkpt><trkpt lat="38.8581583" lon="16.3450167"><ele>267.0</ele><time>2026-04-27T11:56:05.662Z</time></trkpt><trkpt lat="38.8581167" lon="16.3452567"><ele>267.0</ele><time>2026-04-27T11:56:06.669Z</time></trkpt><trkpt lat="38.8580817" lon="16.3455067"><ele>267.0</ele><time>2026-04-27T11:56:07.664Z</time></trkpt><trkpt lat="38.85805" lon="16.34576"><ele>267.0</ele><time>2026-04-27T11:56:08.725Z</time></trkpt><trkpt lat="38.8580133" lon="16.346005"><ele>265.6666666666667</ele><time>2026-04-27T11:56:09.667Z</time></trkpt><trkpt lat="38.8579633" lon="16.3462433"><ele>264.33333333333337</ele><time>2026-04-27T11:56:10.669Z</time></trkpt><trkpt lat="38.8578933" lon="16.3464717"><ele>263.0</ele><time>2026-04-27T11:56:11.663Z</time></trkpt><trkpt lat="38.8578" lon="16.3466883"><ele>262.33333333333337</ele><time>2026-04-27T11:56:12.672Z</time></trkpt><trkpt lat="38.8576933" lon="16.34689"><ele>261.6666666666667</ele><time>2026-04-27T11:56:13.664Z</time></trkpt><trkpt lat="38.8575917" lon="16.3470967"><ele>261.0</ele><time>2026-04-27T11:56:14.725Z</time></trkpt><trkpt lat="38.8575017" lon="16.3473233"><ele>261.0</ele><time>2026-04-27T11:56:15.661Z</time></trkpt><trkpt lat="38.85743" lon="16.34757"><ele>261.0</ele><time>2026-04-27T11:56:16.671Z</time></trkpt><trkpt lat="38.8573683" lon="16.3478183"><ele>261.0</ele><time>2026-04-27T11:56:17.664Z</time></trkpt><trkpt lat="38.857315" lon="16.3480567"><ele>261.25</ele><time>2026-04-27T11:56:18.665Z</time></trkpt><trkpt lat="38.8572733" lon="16.3482583"><ele>261.5</ele><time>2026-04-27T11:56:19.662Z</time></trkpt><trkpt lat="38.8572433" lon="16.3484267"><ele>261.75</ele><time>2026-04-27T11:56:20.724Z</time></trkpt><trkpt lat="38.8572117" lon="16.348565"><ele>262.0</ele><time>2026-04-27T11:56:21.67Z</time></trkpt><trkpt lat="38.85719" lon="16.3486633"><ele>262.0</ele><time>2026-04-27T11:56:22.668Z</time></trkpt><trkpt lat="38.8571633" lon="16.34882"><ele>262.0</ele><time>2026-04-27T11:56:24.662Z</time></trkpt><trkpt lat="38.8571583" lon="16.34894"><ele>262.0</ele><time>2026-04-27T11:56:25.659Z</time></trkpt><trkpt lat="38.857155" lon="16.3490817"><ele>262.0</ele><time>2026-04-27T11:56:26.724Z</time></trkpt><trkpt lat="38.8571533" lon="16.3492367"><ele>262.6</ele><time>2026-04-27T11:56:27.659Z</time></trkpt><trkpt lat="38.8571467" lon="16.34938"><ele>263.2</ele><time>2026-04-27T11:56:28.661Z</time></trkpt><trkpt lat="38.85712" lon="16.349455"><ele>263.8</ele><time>2026-04-27T11:56:29.661Z</time></trkpt><trkpt lat="38.8570033" lon="16.349445"><ele>264.4</ele><time>2026-04-27T11:56:31.66Z</time></trkpt><trkpt lat="38.85692" lon="16.3494"><ele>265.0</ele><time>2026-04-27T11:56:32.72Z</time></trkpt><trkpt lat="38.8568083" lon="16.3493383"><ele>264.0</ele><time>2026-04-27T11:56:33.666Z</time></trkpt><trkpt lat="38.8566767" lon="16.3492683"><ele>263.0</ele><time>2026-04-27T11:56:34.667Z</time></trkpt><trkpt lat="38.856525" lon="16.349195"><ele>262.0</ele><time>2026-04-27T11:56:35.659Z</time></trkpt><trkpt lat="38.85637" lon="16.3491217"><ele>262.0</ele><time>2026-04-27T11:56:36.67Z</time></trkpt><trkpt lat="38.856215" lon="16.3490467"><ele>262.0</ele><time>2026-04-27T11:56:37.666Z</time></trkpt><trkpt lat="38.8560717" lon="16.3489617"><ele>262.0</ele><time>2026-04-27T11:56:38.724Z</time></trkpt><trkpt lat="38.85594" lon="16.348865"><ele>258.0</ele><time>2026-04-27T11:56:39.668Z</time></trkpt><trkpt lat="38.855815" lon="16.3487633"><ele>254.0</ele><time>2026-04-27T11:56:40.663Z</time></trkpt><trkpt lat="38.8556883" lon="16.3486683"><ele>250.0</ele><time>2026-04-27T11:56:41.661Z</time></trkpt><trkpt lat="38.8555467" lon="16.3485867"><ele>250.0</ele><time>2026-04-27T11:56:42.666Z</time></trkpt><trkpt lat="38.8553933" lon="16.34853"><ele>250.0</ele><time>2026-04-27T11:56:43.669Z</time></trkpt><trkpt lat="38.8552283" lon="16.3484933"><ele>250.0</ele><time>2026-04-27T11:56:44.722Z</time></trkpt><trkpt lat="38.8550617" lon="16.3484617"><ele>250.0</ele><time>2026-04-27T11:56:45.661Z</time></trkpt><trkpt lat="38.8548917" lon="16.3484233"><ele>250.0</ele><time>2026-04-27T11:56:46.67Z</time></trkpt><trkpt lat="38.854735" lon="16.348375"><ele>250.0</ele><time>2026-04-27T11:56:47.663Z</time></trkpt><trkpt lat="38.854575" lon="16.34833"><ele>250.0</ele><time>2026-04-27T11:56:48.668Z</time></trkpt><trkpt lat="38.8544183" lon="16.34829"><ele>250.0</ele><time>2026-04-27T11:56:49.666Z</time></trkpt><trkpt lat="38.8542767" lon="16.3482533"><ele>250.0</ele><time>2026-04-27T11:56:50.721Z</time></trkpt><trkpt lat="38.8541567" lon="16.3482117"><ele>250.0</ele><time>2026-04-27T11:56:51.661Z</time></trkpt><trkpt lat="38.85406" lon="16.348155"><ele>250.4</ele><time>2026-04-27T11:56:52.667Z</time></trkpt><trkpt lat="38.85399" lon="16.3480817"><ele>250.8</ele><time>2026-04-27T11:56:53.668Z</time></trkpt><trkpt lat="38.85393" lon="16.34802"><ele>251.2</ele><time>2026-04-27T11:56:54.668Z</time></trkpt><trkpt lat="38.853875" lon="16.3479683"><ele>251.6</ele><time>2026-04-27T11:56:55.658Z</time></trkpt><trkpt lat="38.8537733" lon="16.3479317"><ele>252.0</ele><time>2026-04-27T11:56:57.659Z</time></trkpt><trkpt lat="38.8536767" lon="16.3480383"><ele>252.0</ele><time>2026-04-27T11:56:59.667Z</time></trkpt><trkpt lat="38.853645" lon="16.3481083"><ele>252.0</ele><time>2026-04-27T11:57:00.669Z</time></trkpt><trkpt lat="38.8536067" lon="16.34818"><ele>252.0</ele><time>2026-04-27T11:57:01.666Z</time></trkpt><trkpt lat="38.8535633" lon="16.348245"><ele>252.0</ele><time>2026-04-27T11:57:02.724Z</time></trkpt><trkpt lat="38.8534683" lon="16.3483217"><ele>252.0</ele><time>2026-04-27T11:57:04.665Z</time></trkpt><trkpt lat="38.8533467" lon="16.348305"><ele>252.0</ele><time>2026-04-27T11:57:06.667Z</time></trkpt><trkpt lat="38.8532867" lon="16.34828"><ele>252.0</ele><time>2026-04-27T11:57:07.662Z</time></trkpt><trkpt lat="38.85319" lon="16.3482133"><ele>252.0</ele><time>2026-04-27T11:57:09.665Z</time></trkpt><trkpt lat="38.8531583" lon="16.3481317"><ele>252.0</ele><time>2026-04-27T11:57:10.663Z</time></trkpt><trkpt lat="38.853145" lon="16.348045"><ele>252.0</ele><time>2026-04-27T11:57:11.664Z</time></trkpt><trkpt lat="38.85316" lon="16.3479333"><ele>252.0</ele><time>2026-04-27T11:57:12.675Z</time></trkpt><trkpt lat="38.8531967" lon="16.3478017"><ele>252.0</ele><time>2026-04-27T11:57:13.664Z</time></trkpt><trkpt lat="38.853225" lon="16.3476767"><ele>251.83333333333334</ele><time>2026-04-27T11:57:14.723Z</time></trkpt><trkpt lat="38.8532433" lon="16.3475483"><ele>251.66666666666669</ele><time>2026-04-27T11:57:15.665Z</time></trkpt><trkpt lat="38.85323" lon="16.3474417"><ele>251.5</ele><time>2026-04-27T11:57:16.662Z</time></trkpt><trkpt lat="38.8532" lon="16.347345"><ele>251.33333333333334</ele><time>2026-04-27T11:57:17.663Z</time></trkpt><trkpt lat="38.8531467" lon="16.3472617"><ele>251.16666666666669</ele><time>2026-04-27T11:57:18.669Z</time></trkpt><trkpt lat="38.8530917" lon="16.347175"><ele>251.0</ele><time>2026-04-27T11:57:19.665Z</time></trkpt><trkpt lat="38.853025" lon="16.3470883"><ele>251.75</ele><time>2026-04-27T11:57:20.718Z</time></trkpt><trkpt lat="38.8529483" lon="16.3469917"><ele>252.5</ele><time>2026-04-27T11:57:21.664Z</time></trkpt><trkpt lat="38.852865" lon="16.3468833"><ele>253.25</ele><time>2026-04-27T11:57:22.666Z</time></trkpt><trkpt lat="38.8527817" lon="16.346765"><ele>254.0</ele><time>2026-04-27T11:57:23.658Z</time></trkpt><trkpt lat="38.8526933" lon="16.3466433"><ele>256.75</ele><time>2026-04-27T11:57:24.666Z</time></trkpt><trkpt lat="38.8526083" lon="16.3465233"><ele>259.5</ele><time>2026-04-27T11:57:25.666Z</time></trkpt><trkpt lat="38.852535" lon="16.3464083"><ele>262.25</ele><time>2026-04-27T11:57:26.725Z</time></trkpt><trkpt lat="38.852475" lon="16.3462933"><ele>265.0</ele><time>2026-04-27T11:57:27.672Z</time></trkpt><trkpt lat="38.8524283" lon="16.3461767"><ele>265.0</ele><time>2026-04-27T11:57:28.669Z</time></trkpt><trkpt lat="38.8524067" lon="16.346055"><ele>265.0</ele><time>2026-04-27T11:57:29.665Z</time></trkpt><trkpt lat="38.8523933" lon="16.3459367"><ele>265.0</ele><time>2026-04-27T11:57:30.67Z</time></trkpt><trkpt lat="38.8523767" lon="16.345835"><ele>265.0</ele><time>2026-04-27T11:57:31.661Z</time></trkpt><trkpt lat="38.8523483" lon="16.345745"><ele>265.0</ele><time>2026-04-27T11:57:32.715Z</time></trkpt><trkpt lat="38.852315" lon="16.3456633"><ele>265.0</ele><time>2026-04-27T11:57:33.658Z</time></trkpt><trkpt lat="38.8522683" lon="16.3455967"><ele>265.0</ele><time>2026-04-27T11:57:34.662Z</time></trkpt><trkpt lat="38.8522067" lon="16.3455467"><ele>265.0</ele><time>2026-04-27T11:57:35.664Z</time></trkpt><trkpt lat="38.8521233" lon="16.3455"><ele>265.0</ele><time>2026-04-27T11:57:36.671Z</time></trkpt><trkpt lat="38.8520283" lon="16.345455"><ele>265.0</ele><time>2026-04-27T11:57:37.664Z</time></trkpt><trkpt lat="38.8519283" lon="16.34541"><ele>265.0</ele><time>2026-04-27T11:57:38.718Z</time></trkpt><trkpt lat="38.8518283" lon="16.3453583"><ele>266.6</ele><time>2026-04-27T11:57:39.66Z</time></trkpt><trkpt lat="38.8517283" lon="16.345305"><ele>268.2</ele><time>2026-04-27T11:57:40.665Z</time></trkpt><trkpt lat="38.851635" lon="16.3452483"><ele>269.8</ele><time>2026-04-27T11:57:41.667Z</time></trkpt><trkpt lat="38.8515517" lon="16.345195"><ele>271.4</ele><time>2026-04-27T11:57:42.668Z</time></trkpt><trkpt lat="38.8514783" lon="16.3451483"><ele>273.0</ele><time>2026-04-27T11:57:43.665Z</time></trkpt><trkpt lat="38.8513733" lon="16.3450867"><ele>273.0</ele><time>2026-04-27T11:57:45.66Z</time></trkpt><trkpt lat="38.85129" lon="16.3450233"><ele>273.0</ele><time>2026-04-27T11:57:47.671Z</time></trkpt><trkpt lat="38.8512" lon="16.3449417"><ele>273.0</ele><time>2026-04-27T11:57:49.666Z</time></trkpt><trkpt lat="38.851135" lon="16.3448633"><ele>273.0</ele><time>2026-04-27T11:57:51.662Z</time></trkpt><trkpt lat="38.851095" lon="16.3447917"><ele>273.0</ele><time>2026-04-27T11:57:53.664Z</time></trkpt><trkpt lat="38.8510633" lon="16.3447017"><ele>273.0</ele><time>2026-04-27T11:57:55.666Z</time></trkpt><trkpt lat="38.8509933" lon="16.3446033"><ele>275.4</ele><time>2026-04-27T11:57:57.663Z</time></trkpt><trkpt lat="38.850895" lon="16.3445517"><ele>277.8</ele><time>2026-04-27T11:57:59.663Z</time></trkpt><trkpt lat="38.850765" lon="16.34457"><ele>280.2</ele><time>2026-04-27T11:58:01.663Z</time></trkpt><trkpt lat="38.85069" lon="16.344595"><ele>282.6</ele><time>2026-04-27T11:58:02.718Z</time></trkpt><trkpt lat="38.8506017" lon="16.3446317"><ele>285.0</ele><time>2026-04-27T11:58:03.663Z</time></trkpt><trkpt lat="38.8505083" lon="16.34468"><ele>285.6</ele><time>2026-04-27T11:58:04.667Z</time></trkpt><trkpt lat="38.850415" lon="16.344735"><ele>286.2</ele><time>2026-04-27T11:58:05.666Z</time></trkpt><trkpt lat="38.8503217" lon="16.3447983"><ele>286.8</ele><time>2026-04-27T11:58:06.669Z</time></trkpt><trkpt lat="38.8502367" lon="16.3448583"><ele>287.4</ele><time>2026-04-27T11:58:07.662Z</time></trkpt><trkpt lat="38.8501583" lon="16.344915"><ele>288.0</ele><time>2026-04-27T11:58:08.717Z</time></trkpt><trkpt lat="38.8500983" lon="16.3449633"><ele>290.6</ele><time>2026-04-27T11:58:09.664Z</time></trkpt><trkpt lat="38.8500433" lon="16.3450117"><ele>293.20000000000005</ele><time>2026-04-27T11:58:10.672Z</time></trkpt><trkpt lat="38.8499817" lon="16.34507"><ele>295.8</ele><time>2026-04-27T11:58:11.657Z</time></trkpt><trkpt lat="38.8498983" lon="16.3451433"><ele>298.40000000000003</ele><time>2026-04-27T11:58:12.659Z</time></trkpt><trkpt lat="38.8497983" lon="16.34523"><ele>301.0</ele><time>2026-04-27T11:58:13.662Z</time></trkpt><trkpt lat="38.849705" lon="16.3453067"><ele>301.0</ele><time>2026-04-27T11:58:14.725Z</time></trkpt><trkpt lat="38.84962" lon="16.345375"><ele>301.0</ele><time>2026-04-27T11:58:15.662Z</time></trkpt><trkpt lat="38.8495333" lon="16.3454283"><ele>301.0</ele><time>2026-04-27T11:58:16.666Z</time></trkpt><trkpt lat="38.8494767" lon="16.3454833"><ele>301.0</ele><time>2026-04-27T11:58:17.665Z</time></trkpt><trkpt lat="38.8494867" lon="16.34558"><ele>301.0</ele><time>2026-04-27T11:58:18.666Z</time></trkpt><trkpt lat="38.8495" lon="16.3457083"><ele>301.0</ele><time>2026-04-27T11:58:19.669Z</time></trkpt><trkpt lat="38.8495167" lon="16.345855"><ele>302.25</ele><time>2026-04-27T11:58:20.72Z</time></trkpt><trkpt lat="38.8495383" lon="16.3460233"><ele>303.5</ele><time>2026-04-27T11:58:21.662Z</time></trkpt><trkpt lat="38.84956" lon="16.3462083"><ele>304.75</ele><time>2026-04-27T11:58:22.667Z</time></trkpt><trkpt lat="38.8495783" lon="16.3464"><ele>306.0</ele><time>2026-04-27T11:58:23.664Z</time></trkpt><trkpt lat="38.8495983" lon="16.3465967"><ele>307.5</ele><time>2026-04-27T11:58:24.667Z</time></trkpt><trkpt lat="38.8496133" lon="16.3467867"><ele>309.0</ele><time>2026-04-27T11:58:25.658Z</time></trkpt><trkpt lat="38.849615" lon="16.3469533"><ele>310.5</ele><time>2026-04-27T11:58:26.709Z</time></trkpt><trkpt lat="38.849605" lon="16.3470967"><ele>312.0</ele><time>2026-04-27T11:58:27.663Z</time></trkpt><trkpt lat="38.849585" lon="16.3472"><ele>313.25</ele><time>2026-04-27T11:58:28.667Z</time></trkpt><trkpt lat="38.8495283" lon="16.3472883"><ele>314.5</ele><time>2026-04-27T11:58:29.663Z</time></trkpt><trkpt lat="38.8494117" lon="16.3473617"><ele>315.75</ele><time>2026-04-27T11:58:30.659Z</time></trkpt><trkpt lat="38.8493" lon="16.3474483"><ele>317.0</ele><time>2026-04-27T11:58:31.665Z</time></trkpt><trkpt lat="38.8492367" lon="16.3475533"><ele>319.6666666666667</ele><time>2026-04-27T11:58:32.719Z</time></trkpt><trkpt lat="38.84917" lon="16.3476433"><ele>322.33333333333337</ele><time>2026-04-27T11:58:33.662Z</time></trkpt><trkpt lat="38.8491017" lon="16.34773"><ele>325.0</ele><time>2026-04-27T11:58:34.661Z</time></trkpt><trkpt lat="38.84903" lon="16.347785"><ele>327.6666666666667</ele><time>2026-04-27T11:58:35.664Z</time></trkpt><trkpt lat="38.8489567" lon="16.347855"><ele>330.3333333333333</ele><time>2026-04-27T11:58:36.67Z</time></trkpt><trkpt lat="38.848885" lon="16.34787"><ele>333.0</ele><time>2026-04-27T11:58:37.662Z</time></trkpt><trkpt lat="38.8487883" lon="16.3478617"><ele>333.0</ele><time>2026-04-27T11:58:38.725Z</time></trkpt><trkpt lat="38.8487" lon="16.34784"><ele>333.0</ele><time>2026-04-27T11:58:39.662Z</time></trkpt><trkpt lat="38.84861" lon="16.347775"><ele>333.0</ele><time>2026-04-27T11:58:40.668Z</time></trkpt><trkpt lat="38.8485083" lon="16.3477433"><ele>333.0</ele><time>2026-04-27T11:58:41.667Z</time></trkpt><trkpt lat="38.848395" lon="16.3477283"><ele>333.0</ele><time>2026-04-27T11:58:42.666Z</time></trkpt><trkpt lat="38.84827" lon="16.34772"><ele>333.25</ele><time>2026-04-27T11:58:43.666Z</time></trkpt><trkpt lat="38.8481367" lon="16.3477233"><ele>333.5</ele><time>2026-04-27T11:58:44.722Z</time></trkpt><trkpt lat="38.8479867" lon="16.3477467"><ele>333.75</ele><time>2026-04-27T11:58:45.662Z</time></trkpt><trkpt lat="38.8478383" lon="16.3477833"><ele>334.0</ele><time>2026-04-27T11:58:46.67Z</time></trkpt><trkpt lat="38.8476967" lon="16.347845"><ele>333.75</ele><time>2026-04-27T11:58:47.672Z</time></trkpt><trkpt lat="38.847565" lon="16.3479267"><ele>333.5</ele><time>2026-04-27T11:58:48.669Z</time></trkpt><trkpt lat="38.84745" lon="16.34802"><ele>333.25</ele><time>2026-04-27T11:58:49.664Z</time></trkpt><trkpt lat="38.8473583" lon="16.3481167"><ele>333.0</ele><time>2026-04-27T11:58:50.721Z</time></trkpt><trkpt lat="38.84727" lon="16.3482117"><ele>333.0</ele><time>2026-04-27T11:58:51.664Z</time></trkpt><trkpt lat="38.8471733" lon="16.348305"><ele>333.0</ele><time>2026-04-27T11:58:52.667Z</time></trkpt><trkpt lat="38.847085" lon="16.3483967"><ele>333.0</ele><time>2026-04-27T11:58:53.66Z</time></trkpt><trkpt lat="38.8469983" lon="16.3484817"><ele>333.0</ele><time>2026-04-27T11:58:54.672Z</time></trkpt><trkpt lat="38.84689" lon="16.34856"><ele>335.79999999999995</ele><time>2026-04-27T11:58:55.666Z</time></trkpt><trkpt lat="38.8467817" lon="16.34863"><ele>338.6</ele><time>2026-04-27T11:58:56.722Z</time></trkpt><trkpt lat="38.846685" lon="16.3486683"><ele>341.4</ele><time>2026-04-27T11:58:57.655Z</time></trkpt><trkpt lat="38.8466117" lon="16.3486883"><ele>344.20000000000005</ele><time>2026-04-27T11:58:58.666Z</time></trkpt><trkpt lat="38.84651" lon="16.3486933"><ele>347.0</ele><time>2026-04-27T11:59:00.668Z</time></trkpt><trkpt lat="38.8465317" lon="16.3485367"><ele>347.0</ele><time>2026-04-27T11:59:02.722Z</time></trkpt><trkpt lat="38.8465667" lon="16.3484567"><ele>347.0</ele><time>2026-04-27T11:59:03.659Z</time></trkpt><trkpt lat="38.8466067" lon="16.3483583"><ele>347.0</ele><time>2026-04-27T11:59:04.67Z</time></trkpt><trkpt lat="38.8466367" lon="16.34827"><ele>347.0</ele><time>2026-04-27T11:59:05.657Z</time></trkpt><trkpt lat="38.8466533" lon="16.348145"><ele>347.0</ele><time>2026-04-27T11:59:07.663Z</time></trkpt><trkpt lat="38.84664" lon="16.347995"><ele>347.0</ele><time>2026-04-27T11:59:09.661Z</time></trkpt><trkpt lat="38.8466233" lon="16.34788"><ele>348.5</ele><time>2026-04-27T11:59:10.666Z</time></trkpt><trkpt lat="38.84659" lon="16.34777"><ele>350.0</ele><time>2026-04-27T11:59:11.666Z</time></trkpt><trkpt lat="38.84649" lon="16.3476183"><ele>351.5</ele><time>2026-04-27T11:59:12.67Z</time></trkpt><trkpt lat="38.846405" lon="16.3474817"><ele>353.0</ele><time>2026-04-27T11:59:13.663Z</time></trkpt><trkpt lat="38.84635" lon="16.3473633"><ele>353.0</ele><time>2026-04-27T11:59:14.725Z</time></trkpt><trkpt lat="38.8462983" lon="16.3472583"><ele>353.0</ele><time>2026-04-27T11:59:15.665Z</time></trkpt><trkpt lat="38.84626" lon="16.3471667"><ele>353.0</ele><time>2026-04-27T11:59:16.669Z</time></trkpt><trkpt lat="38.8462117" lon="16.3470617"><ele>353.0</ele><time>2026-04-27T11:59:17.67Z</time></trkpt><trkpt lat="38.8461767" lon="16.34695"><ele>353.0</ele><time>2026-04-27T11:59:18.669Z</time></trkpt><trkpt lat="38.8461417" lon="16.3468283"><ele>352.2</ele><time>2026-04-27T11:59:19.669Z</time></trkpt><trkpt lat="38.8461117" lon="16.346715"><ele>351.4</ele><time>2026-04-27T11:59:20.723Z</time></trkpt><trkpt lat="38.8460883" lon="16.34661"><ele>350.59999999999997</ele><time>2026-04-27T11:59:21.674Z</time></trkpt><trkpt lat="38.846065" lon="16.3465033"><ele>349.79999999999995</ele><time>2026-04-27T11:59:22.669Z</time></trkpt><trkpt lat="38.846035" lon="16.3463833"><ele>349.0</ele><time>2026-04-27T11:59:23.673Z</time></trkpt><trkpt lat="38.8460133" lon="16.346275"><ele>349.0</ele><time>2026-04-27T11:59:24.668Z</time></trkpt><trkpt lat="38.8459567" lon="16.3461683"><ele>349.0</ele><time>2026-04-27T11:59:25.662Z</time></trkpt><trkpt lat="38.8459383" lon="16.34609"><ele>349.0</ele><time>2026-04-27T11:59:26.723Z</time></trkpt><trkpt lat="38.8459717" lon="16.3460017"><ele>349.0</ele><time>2026-04-27T11:59:28.661Z</time></trkpt><trkpt lat="38.845975" lon="16.3460883"><ele>349.0</ele><time>2026-04-27T11:59:37.665Z</time></trkpt><trkpt lat="38.8459567" lon="16.3462017"><ele>349.0</ele><time>2026-04-27T11:59:39.665Z</time></trkpt><trkpt lat="38.8459333" lon="16.3462883"><ele>349.0</ele><time>2026-04-27T11:59:40.664Z</time></trkpt><trkpt lat="38.8459317" lon="16.3464083"><ele>349.0</ele><time>2026-04-27T11:59:41.668Z</time></trkpt><trkpt lat="38.84595" lon="16.3465317"><ele>349.0</ele><time>2026-04-27T11:59:42.67Z</time></trkpt><trkpt lat="38.8459483" lon="16.346655"><ele>349.0</ele><time>2026-04-27T11:59:43.663Z</time></trkpt><trkpt lat="38.84597" lon="16.3467783"><ele>349.0</ele><time>2026-04-27T11:59:44.674Z</time></trkpt><trkpt lat="38.84597" lon="16.3468917"><ele>349.0</ele><time>2026-04-27T11:59:45.664Z</time></trkpt><trkpt lat="38.846065" lon="16.3470483"><ele>349.0</ele><time>2026-04-27T11:59:46.668Z</time></trkpt><trkpt lat="38.8460617" lon="16.3471417"><ele>349.0</ele><time>2026-04-27T11:59:47.664Z</time></trkpt><trkpt lat="38.8460667" lon="16.34724"><ele>349.0</ele><time>2026-04-27T11:59:48.673Z</time></trkpt><trkpt lat="38.8461167" lon="16.34734"><ele>349.0</ele><time>2026-04-27T11:59:49.667Z</time></trkpt><trkpt lat="38.8460733" lon="16.3474117"><ele>349.0</ele><time>2026-04-27T11:59:51.664Z</time></trkpt><trkpt lat="38.8460967" lon="16.3472983"><ele>349.0</ele><time>2026-04-27T11:59:57.662Z</time></trkpt><trkpt lat="38.8460917" lon="16.3471917"><ele>349.0</ele><time>2026-04-27T11:59:59.663Z</time></trkpt><trkpt lat="38.84604" lon="16.3471117"><ele>349.0</ele><time>2026-04-27T12:00:03.663Z</time></trkpt><trkpt lat="38.8461367" lon="16.347105"><ele>349.0</ele><time>2026-04-27T12:00:21.663Z</time></trkpt><trkpt lat="38.8461683" lon="16.3470133"><ele>349.0</ele><time>2026-04-27T12:00:26.726Z</time></trkpt><trkpt lat="38.84616" lon="16.3469267"><ele>349.0</ele><time>2026-04-27T12:00:28.663Z</time></trkpt><trkpt lat="38.846165" lon="16.3468233"><ele>349.0</ele><time>2026-04-27T12:00:32.725Z</time></trkpt><trkpt lat="38.8461017" lon="16.3467917"><ele>349.0</ele><time>2026-04-27T12:00:35.659Z</time></trkpt><trkpt lat="38.8459317" lon="16.3469183"><ele>349.0</ele><time>2026-04-27T12:00:37.666Z</time></trkpt><trkpt lat="38.8458283" lon="16.34698"><ele>351.4</ele><time>2026-04-27T12:00:38.674Z</time></trkpt><trkpt lat="38.8457417" lon="16.3470567"><ele>353.79999999999995</ele><time>2026-04-27T12:00:39.662Z</time></trkpt><trkpt lat="38.845675" lon="16.3471667"><ele>356.20000000000005</ele><time>2026-04-27T12:00:40.669Z</time></trkpt><trkpt lat="38.8455917" lon="16.3472283"><ele>358.6</ele><time>2026-04-27T12:00:41.662Z</time></trkpt><trkpt lat="38.8455517" lon="16.3472933"><ele>361.0</ele><time>2026-04-27T12:00:44.673Z</time></trkpt><trkpt lat="38.8454633" lon="16.3472983"><ele>361.6</ele><time>2026-04-27T12:01:01.667Z</time></trkpt><trkpt lat="38.8454283" lon="16.3473683"><ele>362.20000000000005</ele><time>2026-04-27T12:01:02.717Z</time></trkpt><trkpt lat="38.8453683" lon="16.3475067"><ele>362.79999999999995</ele><time>2026-04-27T12:01:04.663Z</time></trkpt><trkpt lat="38.8453433" lon="16.3476017"><ele>363.4</ele><time>2026-04-27T12:01:05.66Z</time></trkpt><trkpt lat="38.845285" lon="16.3477067"><ele>364.0</ele><time>2026-04-27T12:01:06.671Z</time></trkpt><trkpt lat="38.8452267" lon="16.34786"><ele>364.0</ele><time>2026-04-27T12:01:07.663Z</time></trkpt><trkpt lat="38.8451417" lon="16.3480367"><ele>364.0</ele><time>2026-04-27T12:01:08.671Z</time></trkpt><trkpt lat="38.8451067" lon="16.3481933"><ele>364.0</ele><time>2026-04-27T12:01:09.665Z</time></trkpt><trkpt lat="38.8451183" lon="16.34836"><ele>364.0</ele><time>2026-04-27T12:01:10.663Z</time></trkpt><trkpt lat="38.8451083" lon="16.3485067"><ele>364.79999999999995</ele><time>2026-04-27T12:01:11.661Z</time></trkpt><trkpt lat="38.84509" lon="16.3486233"><ele>365.59999999999997</ele><time>2026-04-27T12:01:12.669Z</time></trkpt><trkpt lat="38.845065" lon="16.3487167"><ele>366.4</ele><time>2026-04-27T12:01:13.662Z</time></trkpt><trkpt lat="38.84503" lon="16.3488"><ele>367.2</ele><time>2026-04-27T12:01:14.668Z</time></trkpt><trkpt lat="38.8449367" lon="16.3488983"><ele>368.0</ele><time>2026-04-27T12:01:16.669Z</time></trkpt><trkpt lat="38.84487" lon="16.3487917"><ele>370.0</ele><time>2026-04-27T12:01:18.671Z</time></trkpt><trkpt lat="38.844855" lon="16.3486967"><ele>372.0</ele><time>2026-04-27T12:01:19.67Z</time></trkpt><trkpt lat="38.8448583" lon="16.34858"><ele>374.0</ele><time>2026-04-27T12:01:20.67Z</time></trkpt><trkpt lat="38.8448833" lon="16.3484383"><ele>376.0</ele><time>2026-04-27T12:01:21.673Z</time></trkpt><trkpt lat="38.8449" lon="16.34829"><ele>378.0</ele><time>2026-04-27T12:01:22.662Z</time></trkpt><trkpt lat="38.8448933" lon="16.34814"><ele>378.25</ele><time>2026-04-27T12:01:23.667Z</time></trkpt><trkpt lat="38.8448633" lon="16.3479867"><ele>378.5</ele><time>2026-04-27T12:01:24.669Z</time></trkpt><trkpt lat="38.844825" lon="16.3478383"><ele>378.75</ele><time>2026-04-27T12:01:25.663Z</time></trkpt><trkpt lat="38.84478" lon="16.3477117"><ele>379.0</ele><time>2026-04-27T12:01:26.734Z</time></trkpt><trkpt lat="38.844725" lon="16.3476067"><ele>379.0</ele><time>2026-04-27T12:01:27.659Z</time></trkpt><trkpt lat="38.8446683" lon="16.34754"><ele>379.0</ele><time>2026-04-27T12:01:28.666Z</time></trkpt><trkpt lat="38.8445133" lon="16.34759"><ele>379.0</ele><time>2026-04-27T12:01:30.672Z</time></trkpt><trkpt lat="38.84441" lon="16.347675"><ele>379.0</ele><time>2026-04-27T12:01:31.662Z</time></trkpt><trkpt lat="38.8443167" lon="16.3477783"><ele>385.75</ele><time>2026-04-27T12:01:32.72Z</time></trkpt><trkpt lat="38.8442217" lon="16.347905"><ele>392.5</ele><time>2026-04-27T12:01:33.663Z</time></trkpt><trkpt lat="38.8441333" lon="16.3480183"><ele>399.25</ele><time>2026-04-27T12:01:34.667Z</time></trkpt><trkpt lat="38.8440467" lon="16.348105"><ele>406.0</ele><time>2026-04-27T12:01:35.663Z</time></trkpt><trkpt lat="38.843955" lon="16.348175"><ele>406.0</ele><time>2026-04-27T12:01:36.669Z</time></trkpt><trkpt lat="38.8438733" lon="16.3482467"><ele>406.0</ele><time>2026-04-27T12:01:37.661Z</time></trkpt><trkpt lat="38.8438067" lon="16.34832"><ele>406.0</ele><time>2026-04-27T12:01:38.667Z</time></trkpt><trkpt lat="38.8437817" lon="16.34841"><ele>406.0</ele><time>2026-04-27T12:01:39.666Z</time></trkpt><trkpt lat="38.8437517" lon="16.348525"><ele>406.0</ele><time>2026-04-27T12:01:40.671Z</time></trkpt><trkpt lat="38.8437117" lon="16.34866"><ele>406.0</ele><time>2026-04-27T12:01:41.659Z</time></trkpt><trkpt lat="38.8436467" lon="16.3487917"><ele>406.0</ele><time>2026-04-27T12:01:42.667Z</time></trkpt><trkpt lat="38.84357" lon="16.3489183"><ele>406.0</ele><time>2026-04-27T12:01:43.666Z</time></trkpt><trkpt lat="38.8434967" lon="16.34904"><ele>406.0</ele><time>2026-04-27T12:01:44.661Z</time></trkpt><trkpt lat="38.84343" lon="16.34913"><ele>411.20000000000005</ele><time>2026-04-27T12:01:45.66Z</time></trkpt><trkpt lat="38.8433667" lon="16.3491483"><ele>416.40000000000003</ele><time>2026-04-27T12:01:47.663Z</time></trkpt><trkpt lat="38.8433917" lon="16.3489683"><ele>421.6</ele><time>2026-04-27T12:01:50.666Z</time></trkpt><trkpt lat="38.8433983" lon="16.34886"><ele>426.8</ele><time>2026-04-27T12:01:51.656Z</time></trkpt><trkpt lat="38.8433917" lon="16.34874"><ele>432.0</ele><time>2026-04-27T12:01:52.667Z</time></trkpt><trkpt lat="38.8433817" lon="16.3486033"><ele>434.6</ele><time>2026-04-27T12:01:53.661Z</time></trkpt><trkpt lat="38.84334" lon="16.348475"><ele>437.20000000000005</ele><time>2026-04-27T12:01:54.667Z</time></trkpt><trkpt lat="38.8432883" lon="16.3483583"><ele>439.8</ele><time>2026-04-27T12:01:55.666Z</time></trkpt><trkpt lat="38.8432333" lon="16.3482667"><ele>442.4</ele><time>2026-04-27T12:01:56.733Z</time></trkpt><trkpt lat="38.8431683" lon="16.348195"><ele>445.0</ele><time>2026-04-27T12:01:57.662Z</time></trkpt><trkpt lat="38.8431017" lon="16.34813"><ele>445.0</ele><time>2026-04-27T12:01:58.662Z</time></trkpt><trkpt lat="38.8430417" lon="16.3480683"><ele>445.0</ele><time>2026-04-27T12:01:59.666Z</time></trkpt><trkpt lat="38.8429467" lon="16.348005"><ele>445.0</ele><time>2026-04-27T12:02:01.666Z</time></trkpt><trkpt lat="38.8428683" lon="16.3481117"><ele>445.0</ele><time>2026-04-27T12:02:04.661Z</time></trkpt><trkpt lat="38.8428517" lon="16.3482633"><ele>445.0</ele><time>2026-04-27T12:02:06.66Z</time></trkpt><trkpt lat="38.8428967" lon="16.3483667"><ele>445.00000000000006</ele><time>2026-04-27T12:02:07.66Z</time></trkpt><trkpt lat="38.8429183" lon="16.34846"><ele>445.0</ele><time>2026-04-27T12:02:08.665Z</time></trkpt><trkpt lat="38.842945" lon="16.3485683"><ele>445.0</ele><time>2026-04-27T12:02:09.66Z</time></trkpt><trkpt lat="38.8429333" lon="16.3486683"><ele>445.0</ele><time>2026-04-27T12:02:10.659Z</time></trkpt><trkpt lat="38.8429417" lon="16.34878"><ele>445.00000000000006</ele><time>2026-04-27T12:02:11.659Z</time></trkpt><trkpt lat="38.8429217" lon="16.348885"><ele>445.0</ele><time>2026-04-27T12:02:12.667Z</time></trkpt><trkpt lat="38.84288" lon="16.3489817"><ele>442.83333333333337</ele><time>2026-04-27T12:02:13.67Z</time></trkpt><trkpt lat="38.8428383" lon="16.3490567"><ele>440.6666666666667</ele><time>2026-04-27T12:02:14.674Z</time></trkpt><trkpt lat="38.8427567" lon="16.3491017"><ele>438.5</ele><time>2026-04-27T12:02:15.669Z</time></trkpt><trkpt lat="38.84268" lon="16.3491367"><ele>436.33333333333337</ele><time>2026-04-27T12:02:16.659Z</time></trkpt><trkpt lat="38.842605" lon="16.3491583"><ele>434.1666666666667</ele><time>2026-04-27T12:02:17.66Z</time></trkpt><trkpt lat="38.84251" lon="16.3491133"><ele>432.0</ele><time>2026-04-27T12:02:19.665Z</time></trkpt><trkpt lat="38.8425783" lon="16.34899"><ele>432.0</ele><time>2026-04-27T12:02:24.669Z</time></trkpt><trkpt lat="38.8426467" lon="16.3489217"><ele>432.0</ele><time>2026-04-27T12:02:25.666Z</time></trkpt><trkpt lat="38.842675" lon="16.3488483"><ele>432.0</ele><time>2026-04-27T12:02:26.731Z</time></trkpt><trkpt lat="38.8426733" lon="16.348765"><ele>432.0</ele><time>2026-04-27T12:02:27.66Z</time></trkpt><trkpt lat="38.8425967" lon="16.348695"><ele>432.0</ele><time>2026-04-27T12:02:29.66Z</time></trkpt><trkpt lat="38.8425167" lon="16.3487267"><ele>432.0</ele><time>2026-04-27T12:02:30.669Z</time></trkpt><trkpt lat="38.84244" lon="16.348765"><ele>438.6666666666667</ele><time>2026-04-27T12:02:31.664Z</time></trkpt><trkpt lat="38.8423533" lon="16.3488"><ele>445.33333333333337</ele><time>2026-04-27T12:02:32.719Z</time></trkpt><trkpt lat="38.8424217" lon="16.3488067"><ele>452.0</ele><time>2026-04-27T12:02:33.66Z</time></trkpt><trkpt lat="38.8423433" lon="16.3488383"><ele>458.6666666666667</ele><time>2026-04-27T12:02:34.671Z</time></trkpt><trkpt lat="38.8422683" lon="16.3488617"><ele>465.33333333333337</ele><time>2026-04-27T12:02:35.66Z</time></trkpt><trkpt lat="38.8422033" lon="16.3488917"><ele>472.0</ele><time>2026-04-27T12:02:36.67Z</time></trkpt><trkpt lat="38.84209" lon="16.3489133"><ele>475.20000000000005</ele><time>2026-04-27T12:02:38.671Z</time></trkpt><trkpt lat="38.8420433" lon="16.3488383"><ele>478.40000000000003</ele><time>2026-04-27T12:02:40.663Z</time></trkpt><trkpt lat="38.8421667" lon="16.348755"><ele>481.59999999999997</ele><time>2026-04-27T12:02:42.668Z</time></trkpt><trkpt lat="38.84225" lon="16.3487183"><ele>484.79999999999995</ele><time>2026-04-27T12:02:43.66Z</time></trkpt><trkpt lat="38.8423283" lon="16.3486767"><ele>488.0</ele><time>2026-04-27T12:02:44.665Z</time></trkpt><trkpt lat="38.8423417" lon="16.3485517"><ele>488.0</ele><time>2026-04-27T12:02:46.67Z</time></trkpt><trkpt lat="38.8422767" lon="16.3485167"><ele>487.99999999999994</ele><time>2026-04-27T12:02:47.671Z</time></trkpt><trkpt lat="38.8422" lon="16.3484867"><ele>487.99999999999994</ele><time>2026-04-27T12:02:48.669Z</time></trkpt><trkpt lat="38.8421167" lon="16.3484633"><ele>488.0</ele><time>2026-04-27T12:02:49.662Z</time></trkpt><trkpt lat="38.8420167" lon="16.34844"><ele>488.0</ele><time>2026-04-27T12:02:50.668Z</time></trkpt><trkpt lat="38.8419017" lon="16.3484133"><ele>493.5</ele><time>2026-04-27T12:02:51.667Z</time></trkpt><trkpt lat="38.8417767" lon="16.3483767"><ele>499.0</ele><time>2026-04-27T12:02:52.665Z</time></trkpt><trkpt lat="38.8416617" lon="16.3483267"><ele>504.5</ele><time>2026-04-27T12:02:53.66Z</time></trkpt><trkpt lat="38.8415333" lon="16.3482783"><ele>510.0</ele><time>2026-04-27T12:02:54.67Z</time></trkpt><trkpt lat="38.841405" lon="16.348245"><ele>510.0</ele><time>2026-04-27T12:02:55.659Z</time></trkpt><trkpt lat="38.8412617" lon="16.3482267"><ele>510.0</ele><time>2026-04-27T12:02:56.727Z</time></trkpt><trkpt lat="38.841105" lon="16.3482183"><ele>510.0</ele><time>2026-04-27T12:02:57.664Z</time></trkpt><trkpt lat="38.8409383" lon="16.3482067"><ele>514.6666666666666</ele><time>2026-04-27T12:02:58.658Z</time></trkpt><trkpt lat="38.8407633" lon="16.34818"><ele>519.3333333333333</ele><time>2026-04-27T12:02:59.661Z</time></trkpt><trkpt lat="38.8405867" lon="16.3481467"><ele>524.0</ele><time>2026-04-27T12:03:00.666Z</time></trkpt><trkpt lat="38.84042" lon="16.348095"><ele>524.3333333333333</ele><time>2026-04-27T12:03:01.661Z</time></trkpt><trkpt lat="38.8402683" lon="16.348035"><ele>524.6666666666666</ele><time>2026-04-27T12:03:02.721Z</time></trkpt><trkpt lat="38.8401317" lon="16.3479617"><ele>525.0</ele><time>2026-04-27T12:03:03.659Z</time></trkpt><trkpt lat="38.8399833" lon="16.34788"><ele>528.3333333333334</ele><time>2026-04-27T12:03:04.668Z</time></trkpt><trkpt lat="38.8398283" lon="16.3477867"><ele>531.6666666666667</ele><time>2026-04-27T12:03:05.668Z</time></trkpt><trkpt lat="38.8396783" lon="16.3476867"><ele>535.0</ele><time>2026-04-27T12:03:06.668Z</time></trkpt><trkpt lat="38.83954" lon="16.3475783"><ele>535.0</ele><time>2026-04-27T12:03:07.668Z</time></trkpt><trkpt lat="38.83941" lon="16.3474667"><ele>535.0</ele><time>2026-04-27T12:03:08.667Z</time></trkpt><trkpt lat="38.83929" lon="16.347355"><ele>535.0</ele><time>2026-04-27T12:03:09.678Z</time></trkpt><trkpt lat="38.8391717" lon="16.34725"><ele>535.0</ele><time>2026-04-27T12:03:10.66Z</time></trkpt><trkpt lat="38.8390533" lon="16.3471583"><ele>535.75</ele><time>2026-04-27T12:03:11.656Z</time></trkpt><trkpt lat="38.8389317" lon="16.347075"><ele>536.5</ele><time>2026-04-27T12:03:12.656Z</time></trkpt><trkpt lat="38.8388033" lon="16.3469983"><ele>537.25</ele><time>2026-04-27T12:03:13.662Z</time></trkpt><trkpt lat="38.8386683" lon="16.3469267"><ele>538.0</ele><time>2026-04-27T12:03:14.665Z</time></trkpt><trkpt lat="38.8385283" lon="16.346865"><ele>539.25</ele><time>2026-04-27T12:03:15.659Z</time></trkpt><trkpt lat="38.8383817" lon="16.3468167"><ele>540.5</ele><time>2026-04-27T12:03:16.672Z</time></trkpt><trkpt lat="38.8382383" lon="16.3467783"><ele>541.75</ele><time>2026-04-27T12:03:17.661Z</time></trkpt><trkpt lat="38.8381067" lon="16.3467533"><ele>543.0</ele><time>2026-04-27T12:03:18.668Z</time></trkpt><trkpt lat="38.8379917" lon="16.34674"><ele>543.0</ele><time>2026-04-27T12:03:19.661Z</time></trkpt><trkpt lat="38.8378783" lon="16.3467433"><ele>543.0</ele><time>2026-04-27T12:03:20.667Z</time></trkpt><trkpt lat="38.8377633" lon="16.3467667"><ele>543.0</ele><time>2026-04-27T12:03:21.667Z</time></trkpt><trkpt lat="38.837645" lon="16.34681"><ele>543.0</ele><time>2026-04-27T12:03:22.666Z</time></trkpt><trkpt lat="38.8375217" lon="16.3468633"><ele>545.0</ele><time>2026-04-27T12:03:23.657Z</time></trkpt><trkpt lat="38.8374017" lon="16.34692"><ele>547.0</ele><time>2026-04-27T12:03:24.66Z</time></trkpt><trkpt lat="38.8372867" lon="16.3469617"><ele>549.0</ele><time>2026-04-27T12:03:25.659Z</time></trkpt><trkpt lat="38.83717" lon="16.3469783"><ele>551.0</ele><time>2026-04-27T12:03:26.721Z</time></trkpt><trkpt lat="38.83705" lon="16.3469767"><ele>551.0</ele><time>2026-04-27T12:03:27.67Z</time></trkpt><trkpt lat="38.8369317" lon="16.3469483"><ele>551.0</ele><time>2026-04-27T12:03:28.664Z</time></trkpt><trkpt lat="38.8368133" lon="16.3468933"><ele>551.0</ele><time>2026-04-27T12:03:29.658Z</time></trkpt><trkpt lat="38.83671" lon="16.3468017"><ele>551.0</ele><time>2026-04-27T12:03:30.668Z</time></trkpt><trkpt lat="38.8366083" lon="16.3466983"><ele>551.25</ele><time>2026-04-27T12:03:31.66Z</time></trkpt><trkpt lat="38.83651" lon="16.3465917"><ele>551.5</ele><time>2026-04-27T12:03:32.715Z</time></trkpt><trkpt lat="38.8363933" lon="16.3464983"><ele>551.75</ele><time>2026-04-27T12:03:33.657Z</time></trkpt><trkpt lat="38.83626" lon="16.3464083"><ele>552.0</ele><time>2026-04-27T12:03:34.666Z</time></trkpt><trkpt lat="38.8361183" lon="16.346315"><ele>552.0</ele><time>2026-04-27T12:03:35.661Z</time></trkpt><trkpt lat="38.835975" lon="16.3462117"><ele>552.0</ele><time>2026-04-27T12:03:36.66Z</time></trkpt><trkpt lat="38.83584" lon="16.3460983"><ele>552.0</ele><time>2026-04-27T12:03:37.659Z</time></trkpt><trkpt lat="38.8357267" lon="16.3459783"><ele>554.6666666666666</ele><time>2026-04-27T12:03:38.667Z</time></trkpt><trkpt lat="38.8356167" lon="16.3458467"><ele>557.3333333333333</ele><time>2026-04-27T12:03:39.661Z</time></trkpt><trkpt lat="38.8355167" lon="16.3456983"><ele>560.0</ele><time>2026-04-27T12:03:40.658Z</time></trkpt><trkpt lat="38.83542" lon="16.3455367"><ele>560.0</ele><time>2026-04-27T12:03:41.662Z</time></trkpt><trkpt lat="38.8353167" lon="16.3453767"><ele>560.0</ele><time>2026-04-27T12:03:42.661Z</time></trkpt><trkpt lat="38.8352033" lon="16.34523"><ele>560.0</ele><time>2026-04-27T12:03:43.662Z</time></trkpt><trkpt lat="38.8350767" lon="16.345105"><ele>563.0</ele><time>2026-04-27T12:03:44.668Z</time></trkpt><trkpt lat="38.834945" lon="16.3449967"><ele>566.0</ele><time>2026-04-27T12:03:45.663Z</time></trkpt><trkpt lat="38.8348117" lon="16.34489"><ele>569.0</ele><time>2026-04-27T12:03:46.665Z</time></trkpt><trkpt lat="38.834685" lon="16.344765"><ele>568.6666666666666</ele><time>2026-04-27T12:03:47.665Z</time></trkpt><trkpt lat="38.8345583" lon="16.3446333"><ele>568.3333333333334</ele><time>2026-04-27T12:03:48.667Z</time></trkpt><trkpt lat="38.8344233" lon="16.344505"><ele>568.0</ele><time>2026-04-27T12:03:49.66Z</time></trkpt><trkpt lat="38.8342817" lon="16.3443833"><ele>571.3333333333334</ele><time>2026-04-27T12:03:50.668Z</time></trkpt><trkpt lat="38.8341333" lon="16.3442833"><ele>574.6666666666666</ele><time>2026-04-27T12:03:51.663Z</time></trkpt><trkpt lat="38.8339833" lon="16.3441917"><ele>578.0</ele><time>2026-04-27T12:03:52.659Z</time></trkpt><trkpt lat="38.83383" lon="16.3441067"><ele>578.0</ele><time>2026-04-27T12:03:53.662Z</time></trkpt><trkpt lat="38.83367" lon="16.3440217"><ele>578.0</ele><time>2026-04-27T12:03:54.666Z</time></trkpt><trkpt lat="38.833505" lon="16.343935"><ele>578.0</ele><time>2026-04-27T12:03:55.661Z</time></trkpt><trkpt lat="38.8333383" lon="16.343845"><ele>581.0</ele><time>2026-04-27T12:03:56.718Z</time></trkpt><trkpt lat="38.8331717" lon="16.3437617"><ele>584.0</ele><time>2026-04-27T12:03:57.656Z</time></trkpt><trkpt lat="38.8330067" lon="16.3436817"><ele>587.0</ele><time>2026-04-27T12:03:58.66Z</time></trkpt><trkpt lat="38.8328433" lon="16.3436033"><ele>587.0</ele><time>2026-04-27T12:03:59.658Z</time></trkpt><trkpt lat="38.8326983" lon="16.343525"><ele>587.0</ele><time>2026-04-27T12:04:00.668Z</time></trkpt><trkpt lat="38.832565" lon="16.34344"><ele>587.0</ele><time>2026-04-27T12:04:01.662Z</time></trkpt><trkpt lat="38.832425" lon="16.3433417"><ele>589.0</ele><time>2026-04-27T12:04:02.72Z</time></trkpt><trkpt lat="38.832285" lon="16.3432417"><ele>591.0</ele><time>2026-04-27T12:04:03.66Z</time></trkpt><trkpt lat="38.8321433" lon="16.34313"><ele>593.0</ele><time>2026-04-27T12:04:04.66Z</time></trkpt><trkpt lat="38.8320017" lon="16.3430067"><ele>593.0</ele><time>2026-04-27T12:04:05.658Z</time></trkpt><trkpt lat="38.8318667" lon="16.3428867"><ele>593.0</ele><time>2026-04-27T12:04:06.661Z</time></trkpt><trkpt lat="38.831735" lon="16.3427783"><ele>593.0</ele><time>2026-04-27T12:04:07.662Z</time></trkpt><trkpt lat="38.831595" lon="16.3426933"><ele>598.3333333333333</ele><time>2026-04-27T12:04:08.669Z</time></trkpt><trkpt lat="38.8314433" lon="16.3426333"><ele>603.6666666666666</ele><time>2026-04-27T12:04:09.661Z</time></trkpt><trkpt lat="38.831285" lon="16.3425967"><ele>609.0</ele><time>2026-04-27T12:04:10.665Z</time></trkpt><trkpt lat="38.8311267" lon="16.3425667"><ele>609.0</ele><time>2026-04-27T12:04:11.664Z</time></trkpt><trkpt lat="38.8309783" lon="16.3425333"><ele>609.0</ele><time>2026-04-27T12:04:12.668Z</time></trkpt><trkpt lat="38.8308317" lon="16.3424783"><ele>609.0</ele><time>2026-04-27T12:04:13.659Z</time></trkpt><trkpt lat="38.830685" lon="16.3423917"><ele>610.6666666666666</ele><time>2026-04-27T12:04:14.661Z</time></trkpt><trkpt lat="38.8305283" lon="16.3422883"><ele>612.3333333333333</ele><time>2026-04-27T12:04:15.659Z</time></trkpt><trkpt lat="38.830375" lon="16.34218"><ele>614.0</ele><time>2026-04-27T12:04:16.664Z</time></trkpt><trkpt lat="38.8302317" lon="16.3420733"><ele>614.5</ele><time>2026-04-27T12:04:17.661Z</time></trkpt><trkpt lat="38.8300983" lon="16.3419717"><ele>615.0</ele><time>2026-04-27T12:04:18.665Z</time></trkpt><trkpt lat="38.8299817" lon="16.3418833"><ele>615.5</ele><time>2026-04-27T12:04:19.668Z</time></trkpt><trkpt lat="38.8298767" lon="16.3418217"><ele>616.0</ele><time>2026-04-27T12:04:20.667Z</time></trkpt><trkpt lat="38.8297717" lon="16.3417867"><ele>616.0</ele><time>2026-04-27T12:04:21.663Z</time></trkpt><trkpt lat="38.8296483" lon="16.3417983"><ele>616.0</ele><time>2026-04-27T12:04:22.663Z</time></trkpt><trkpt lat="38.8295217" lon="16.3418217"><ele>616.0</ele><time>2026-04-27T12:04:23.656Z</time></trkpt><trkpt lat="38.829385" lon="16.3418533"><ele>616.0</ele><time>2026-04-27T12:04:24.666Z</time></trkpt><trkpt lat="38.8292383" lon="16.3418717"><ele>615.0</ele><time>2026-04-27T12:04:25.663Z</time></trkpt><trkpt lat="38.8290783" lon="16.3418767"><ele>614.0</ele><time>2026-04-27T12:04:26.718Z</time></trkpt><trkpt lat="38.828905" lon="16.34188"><ele>613.0</ele><time>2026-04-27T12:04:27.658Z</time></trkpt><trkpt lat="38.8287283" lon="16.3418833"><ele>613.0</ele><time>2026-04-27T12:04:28.665Z</time></trkpt><trkpt lat="38.8285567" lon="16.3418767"><ele>613.0</ele><time>2026-04-27T12:04:29.659Z</time></trkpt><trkpt lat="38.828405" lon="16.341865"><ele>613.0</ele><time>2026-04-27T12:04:30.66Z</time></trkpt><trkpt lat="38.8282767" lon="16.341855"><ele>612.0</ele><time>2026-04-27T12:04:31.661Z</time></trkpt><trkpt lat="38.82817" lon="16.3418583"><ele>611.0</ele><time>2026-04-27T12:04:32.721Z</time></trkpt><trkpt lat="38.8280783" lon="16.3419133"><ele>610.0</ele><time>2026-04-27T12:04:33.656Z</time></trkpt><trkpt lat="38.8279833" lon="16.341995"><ele>609.0</ele><time>2026-04-27T12:04:34.659Z</time></trkpt><trkpt lat="38.8278717" lon="16.3421033"><ele>606.3333333333334</ele><time>2026-04-27T12:04:35.658Z</time></trkpt><trkpt lat="38.8277517" lon="16.3422283"><ele>603.6666666666667</ele><time>2026-04-27T12:04:36.665Z</time></trkpt><trkpt lat="38.8276217" lon="16.34236"><ele>601.0</ele><time>2026-04-27T12:04:37.659Z</time></trkpt><trkpt lat="38.8274867" lon="16.342495"><ele>599.0</ele><time>2026-04-27T12:04:38.661Z</time></trkpt><trkpt lat="38.8273517" lon="16.34264"><ele>597.0</ele><time>2026-04-27T12:04:39.659Z</time></trkpt><trkpt lat="38.8272183" lon="16.3427867"><ele>595.0</ele><time>2026-04-27T12:04:40.668Z</time></trkpt><trkpt lat="38.8270883" lon="16.3429267"><ele>594.0</ele><time>2026-04-27T12:04:41.66Z</time></trkpt><trkpt lat="38.826955" lon="16.3430583"><ele>593.0</ele><time>2026-04-27T12:04:42.668Z</time></trkpt><trkpt lat="38.8268117" lon="16.3431783"><ele>592.0</ele><time>2026-04-27T12:04:43.657Z</time></trkpt><trkpt lat="38.826665" lon="16.3432933"><ele>592.0</ele><time>2026-04-27T12:04:44.658Z</time></trkpt><trkpt lat="38.826515" lon="16.34341"><ele>592.0</ele><time>2026-04-27T12:04:45.658Z</time></trkpt><trkpt lat="38.8263667" lon="16.3435267"><ele>592.0</ele><time>2026-04-27T12:04:46.662Z</time></trkpt><trkpt lat="38.8262167" lon="16.34365"><ele>592.0</ele><time>2026-04-27T12:04:47.661Z</time></trkpt><trkpt lat="38.8260667" lon="16.3437783"><ele>592.0</ele><time>2026-04-27T12:04:48.671Z</time></trkpt><trkpt lat="38.8259167" lon="16.3439083"><ele>592.0</ele><time>2026-04-27T12:04:49.661Z</time></trkpt><trkpt lat="38.8257633" lon="16.3440433"><ele>592.0</ele><time>2026-04-27T12:04:50.663Z</time></trkpt><trkpt lat="38.82561" lon="16.3441867"><ele>592.0</ele><time>2026-04-27T12:04:51.661Z</time></trkpt><trkpt lat="38.825455" lon="16.344335"><ele>592.0</ele><time>2026-04-27T12:04:52.665Z</time></trkpt><trkpt lat="38.8253" lon="16.3444917"><ele>592.0</ele><time>2026-04-27T12:04:53.669Z</time></trkpt><trkpt lat="38.8251467" lon="16.3446583"><ele>592.0</ele><time>2026-04-27T12:04:54.662Z</time></trkpt><trkpt lat="38.8250017" lon="16.3448283"><ele>592.0</ele><time>2026-04-27T12:04:55.66Z</time></trkpt><trkpt lat="38.8248667" lon="16.3449917"><ele>592.6666666666667</ele><time>2026-04-27T12:04:56.728Z</time></trkpt><trkpt lat="38.8247433" lon="16.3451417"><ele>593.3333333333334</ele><time>2026-04-27T12:04:57.656Z</time></trkpt><trkpt lat="38.8246183" lon="16.345275"><ele>594.0</ele><time>2026-04-27T12:04:58.658Z</time></trkpt><trkpt lat="38.8244933" lon="16.34539"><ele>594.0</ele><time>2026-04-27T12:04:59.665Z</time></trkpt><trkpt lat="38.82436" lon="16.3454933"><ele>594.0</ele><time>2026-04-27T12:05:00.66Z</time></trkpt><trkpt lat="38.8242233" lon="16.34559"><ele>594.0</ele><time>2026-04-27T12:05:01.66Z</time></trkpt><trkpt lat="38.8240783" lon="16.3456933"><ele>594.0</ele><time>2026-04-27T12:05:02.72Z</time></trkpt><trkpt lat="38.8239217" lon="16.3458117"><ele>594.0</ele><time>2026-04-27T12:05:03.66Z</time></trkpt><trkpt lat="38.823755" lon="16.3459433"><ele>594.0</ele><time>2026-04-27T12:05:04.662Z</time></trkpt><trkpt lat="38.8235883" lon="16.3460917"><ele>594.0</ele><time>2026-04-27T12:05:05.664Z</time></trkpt><trkpt lat="38.8234167" lon="16.34625"><ele>594.0</ele><time>2026-04-27T12:05:06.665Z</time></trkpt><trkpt lat="38.8232467" lon="16.346405"><ele>594.0</ele><time>2026-04-27T12:05:07.663Z</time></trkpt><trkpt lat="38.8230867" lon="16.3465483"><ele>594.0</ele><time>2026-04-27T12:05:08.67Z</time></trkpt><trkpt lat="38.8229367" lon="16.346685"><ele>594.0</ele><time>2026-04-27T12:05:09.657Z</time></trkpt><trkpt lat="38.822795" lon="16.3468167"><ele>594.0</ele><time>2026-04-27T12:05:10.662Z</time></trkpt><trkpt lat="38.8226683" lon="16.346945"><ele>596.3333333333334</ele><time>2026-04-27T12:05:11.657Z</time></trkpt><trkpt lat="38.82255" lon="16.34706"><ele>598.6666666666667</ele><time>2026-04-27T12:05:12.657Z</time></trkpt><trkpt lat="38.8224267" lon="16.347165"><ele>601.0</ele><time>2026-04-27T12:05:13.664Z</time></trkpt><trkpt lat="38.8222917" lon="16.3472667"><ele>601.3333333333334</ele><time>2026-04-27T12:05:14.669Z</time></trkpt><trkpt lat="38.8221467" lon="16.3473717"><ele>601.6666666666666</ele><time>2026-04-27T12:05:15.658Z</time></trkpt><trkpt lat="38.8220017" lon="16.3474933"><ele>602.0</ele><time>2026-04-27T12:05:16.668Z</time></trkpt><trkpt lat="38.8218633" lon="16.3476283"><ele>605.3333333333333</ele><time>2026-04-27T12:05:17.665Z</time></trkpt><trkpt lat="38.8217283" lon="16.3477717"><ele>608.6666666666666</ele><time>2026-04-27T12:05:18.665Z</time></trkpt><trkpt lat="38.8216017" lon="16.3479183"><ele>612.0</ele><time>2026-04-27T12:05:19.664Z</time></trkpt><trkpt lat="38.82148" lon="16.3480733"><ele>613.0</ele><time>2026-04-27T12:05:20.659Z</time></trkpt><trkpt lat="38.8213583" lon="16.34824"><ele>614.0</ele><time>2026-04-27T12:05:21.662Z</time></trkpt><trkpt lat="38.8212383" lon="16.3484017"><ele>615.0</ele><time>2026-04-27T12:05:22.667Z</time></trkpt><trkpt lat="38.8211133" lon="16.348555"><ele>618.3333333333334</ele><time>2026-04-27T12:05:23.662Z</time></trkpt><trkpt lat="38.8209817" lon="16.3486967"><ele>621.6666666666667</ele><time>2026-04-27T12:05:24.671Z</time></trkpt><trkpt lat="38.8208417" lon="16.34884"><ele>625.0</ele><time>2026-04-27T12:05:25.661Z</time></trkpt><trkpt lat="38.8206883" lon="16.34898"><ele>625.0</ele><time>2026-04-27T12:05:26.718Z</time></trkpt><trkpt lat="38.8205267" lon="16.3491117"><ele>625.0</ele><time>2026-04-27T12:05:27.655Z</time></trkpt><trkpt lat="38.8203533" lon="16.3492383"><ele>625.0</ele><time>2026-04-27T12:05:28.661Z</time></trkpt><trkpt lat="38.8201783" lon="16.349365"><ele>626.6666666666667</ele><time>2026-04-27T12:05:29.658Z</time></trkpt><trkpt lat="38.82001" lon="16.3494917"><ele>628.3333333333334</ele><time>2026-04-27T12:05:30.658Z</time></trkpt><trkpt lat="38.8198517" lon="16.3496133"><ele>630.0</ele><time>2026-04-27T12:05:31.663Z</time></trkpt><trkpt lat="38.8197083" lon="16.3497283"><ele>630.2</ele><time>2026-04-27T12:05:32.713Z</time></trkpt><trkpt lat="38.8195883" lon="16.349835"><ele>630.4</ele><time>2026-04-27T12:05:33.66Z</time></trkpt><trkpt lat="38.8194967" lon="16.349925"><ele>630.6</ele><time>2026-04-27T12:05:34.666Z</time></trkpt><trkpt lat="38.8194317" lon="16.3499967"><ele>630.8</ele><time>2026-04-27T12:05:35.656Z</time></trkpt><trkpt lat="38.819385" lon="16.3500717"><ele>631.0</ele><time>2026-04-27T12:05:36.666Z</time></trkpt><trkpt lat="38.81934" lon="16.3501617"><ele>631.75</ele><time>2026-04-27T12:05:37.664Z</time></trkpt><trkpt lat="38.8192917" lon="16.3502817"><ele>632.5</ele><time>2026-04-27T12:05:38.664Z</time></trkpt><trkpt lat="38.819235" lon="16.3504267"><ele>633.25</ele><time>2026-04-27T12:05:39.656Z</time></trkpt><trkpt lat="38.8191717" lon="16.3505967"><ele>634.0</ele><time>2026-04-27T12:05:40.665Z</time></trkpt><trkpt lat="38.8190967" lon="16.3507867"><ele>634.0</ele><time>2026-04-27T12:05:41.654Z</time></trkpt><trkpt lat="38.819015" lon="16.3509933"><ele>634.0</ele><time>2026-04-27T12:05:42.662Z</time></trkpt><trkpt lat="38.818925" lon="16.35121"><ele>634.0</ele><time>2026-04-27T12:05:43.661Z</time></trkpt><trkpt lat="38.8188367" lon="16.3514317"><ele>634.3333333333334</ele><time>2026-04-27T12:05:44.668Z</time></trkpt><trkpt lat="38.8187333" lon="16.3516517"><ele>634.6666666666666</ele><time>2026-04-27T12:05:45.663Z</time></trkpt><trkpt lat="38.8186267" lon="16.3518633"><ele>635.0</ele><time>2026-04-27T12:05:46.666Z</time></trkpt><trkpt lat="38.8185217" lon="16.3520567"><ele>635.3333333333333</ele><time>2026-04-27T12:05:47.661Z</time></trkpt><trkpt lat="38.81842" lon="16.352215"><ele>635.6666666666666</ele><time>2026-04-27T12:05:48.671Z</time></trkpt><trkpt lat="38.81831" lon="16.3523467"><ele>636.0</ele><time>2026-04-27T12:05:49.662Z</time></trkpt><trkpt lat="38.81818" lon="16.35247"><ele>636.0</ele><time>2026-04-27T12:05:50.666Z</time></trkpt><trkpt lat="38.8180317" lon="16.3525967"><ele>636.0</ele><time>2026-04-27T12:05:51.661Z</time></trkpt><trkpt lat="38.8178717" lon="16.3527267"><ele>636.0</ele><time>2026-04-27T12:05:52.669Z</time></trkpt><trkpt lat="38.8177" lon="16.3528583"><ele>636.3333333333334</ele><time>2026-04-27T12:05:53.661Z</time></trkpt><trkpt lat="38.817515" lon="16.3529933"><ele>636.6666666666667</ele><time>2026-04-27T12:05:54.669Z</time></trkpt><trkpt lat="38.8173283" lon="16.3531317"><ele>637.0</ele><time>2026-04-27T12:05:55.661Z</time></trkpt><trkpt lat="38.8171417" lon="16.3532767"><ele>638.0</ele><time>2026-04-27T12:05:56.72Z</time></trkpt><trkpt lat="38.8169633" lon="16.3534433"><ele>639.0</ele><time>2026-04-27T12:05:57.655Z</time></trkpt><trkpt lat="38.8167883" lon="16.3536267"><ele>640.0</ele><time>2026-04-27T12:05:58.673Z</time></trkpt><trkpt lat="38.816615" lon="16.3538167"><ele>644.5</ele><time>2026-04-27T12:05:59.663Z</time></trkpt><trkpt lat="38.8164417" lon="16.3540083"><ele>649.0</ele><time>2026-04-27T12:06:00.656Z</time></trkpt><trkpt lat="38.8162667" lon="16.3541983"><ele>649.0</ele><time>2026-04-27T12:06:01.666Z</time></trkpt><trkpt lat="38.8160867" lon="16.354385"><ele>649.0</ele><time>2026-04-27T12:06:02.719Z</time></trkpt><trkpt lat="38.8159133" lon="16.354575"><ele>650.6666666666667</ele><time>2026-04-27T12:06:03.662Z</time></trkpt><trkpt lat="38.815745" lon="16.3547717"><ele>652.3333333333334</ele><time>2026-04-27T12:06:04.662Z</time></trkpt><trkpt lat="38.8155883" lon="16.3549617"><ele>654.0</ele><time>2026-04-27T12:06:05.655Z</time></trkpt><trkpt lat="38.8154417" lon="16.355135"><ele>654.0</ele><time>2026-04-27T12:06:06.663Z</time></trkpt><trkpt lat="38.8153067" lon="16.35528"><ele>654.0</ele><time>2026-04-27T12:06:07.661Z</time></trkpt><trkpt lat="38.815175" lon="16.3553933"><ele>654.0</ele><time>2026-04-27T12:06:08.669Z</time></trkpt><trkpt lat="38.815055" lon="16.3554767"><ele>655.75</ele><time>2026-04-27T12:06:09.661Z</time></trkpt><trkpt lat="38.814935" lon="16.3555517"><ele>657.5</ele><time>2026-04-27T12:06:10.668Z</time></trkpt><trkpt lat="38.8148167" lon="16.3556233"><ele>659.25</ele><time>2026-04-27T12:06:11.658Z</time></trkpt><trkpt lat="38.8147083" lon="16.3556917"><ele>661.0</ele><time>2026-04-27T12:06:12.664Z</time></trkpt><trkpt lat="38.81462" lon="16.3557583"><ele>661.0</ele><time>2026-04-27T12:06:13.661Z</time></trkpt><trkpt lat="38.8145583" lon="16.35582"><ele>661.0</ele><time>2026-04-27T12:06:14.67Z</time></trkpt><trkpt lat="38.8145517" lon="16.3559517"><ele>661.0</ele><time>2026-04-27T12:06:16.665Z</time></trkpt><trkpt lat="38.8146283" lon="16.3560683"><ele>661.0</ele><time>2026-04-27T12:06:18.665Z</time></trkpt><trkpt lat="38.8146933" lon="16.35615"><ele>661.0</ele><time>2026-04-27T12:06:19.659Z</time></trkpt><trkpt lat="38.8147433" lon="16.3562633"><ele>662.75</ele><time>2026-04-27T12:06:20.668Z</time></trkpt><trkpt lat="38.81479" lon="16.3563983"><ele>664.5</ele><time>2026-04-27T12:06:21.657Z</time></trkpt><trkpt lat="38.8148383" lon="16.35655"><ele>666.25</ele><time>2026-04-27T12:06:22.66Z</time></trkpt><trkpt lat="38.8149" lon="16.3567083"><ele>668.0</ele><time>2026-04-27T12:06:23.66Z</time></trkpt><trkpt lat="38.814975" lon="16.35687"><ele>668.0</ele><time>2026-04-27T12:06:24.677Z</time></trkpt><trkpt lat="38.8150583" lon="16.3570367"><ele>668.0</ele><time>2026-04-27T12:06:25.668Z</time></trkpt><trkpt lat="38.8151483" lon="16.3572133"><ele>668.0</ele><time>2026-04-27T12:06:26.725Z</time></trkpt><trkpt lat="38.8152517" lon="16.357395"><ele>667.6666666666666</ele><time>2026-04-27T12:06:27.659Z</time></trkpt><trkpt lat="38.8153567" lon="16.3575917"><ele>667.3333333333334</ele><time>2026-04-27T12:06:28.659Z</time></trkpt><trkpt lat="38.81545" lon="16.3577883"><ele>667.0</ele><time>2026-04-27T12:06:29.659Z</time></trkpt><trkpt lat="38.8155533" lon="16.3579667"><ele>667.3333333333334</ele><time>2026-04-27T12:06:30.661Z</time></trkpt><trkpt lat="38.8156617" lon="16.35812"><ele>667.6666666666666</ele><time>2026-04-27T12:06:31.665Z</time></trkpt><trkpt lat="38.81578" lon="16.3582517"><ele>668.0</ele><time>2026-04-27T12:06:32.72Z</time></trkpt><trkpt lat="38.8159167" lon="16.3583633"><ele>667.0</ele><time>2026-04-27T12:06:33.659Z</time></trkpt><trkpt lat="38.816065" lon="16.3584567"><ele>666.0</ele><time>2026-04-27T12:06:34.66Z</time></trkpt><trkpt lat="38.8161967" lon="16.3585517"><ele>665.0</ele><time>2026-04-27T12:06:35.662Z</time></trkpt><trkpt lat="38.81631" lon="16.3586533"><ele>665.0</ele><time>2026-04-27T12:06:36.664Z</time></trkpt><trkpt lat="38.81641" lon="16.35876"><ele>665.0</ele><time>2026-04-27T12:06:37.657Z</time></trkpt><trkpt lat="38.8164933" lon="16.3588917"><ele>665.0</ele><time>2026-04-27T12:06:38.68Z</time></trkpt><trkpt lat="38.8165683" lon="16.3590483"><ele>665.0</ele><time>2026-04-27T12:06:39.661Z</time></trkpt><trkpt lat="38.81664" lon="16.3592433"><ele>666.0</ele><time>2026-04-27T12:06:40.663Z</time></trkpt><trkpt lat="38.8167017" lon="16.35945"><ele>667.0</ele><time>2026-04-27T12:06:41.664Z</time></trkpt><trkpt lat="38.8167567" lon="16.3596533"><ele>668.0</ele><time>2026-04-27T12:06:42.663Z</time></trkpt><trkpt lat="38.8168133" lon="16.3598367"><ele>667.0</ele><time>2026-04-27T12:06:43.661Z</time></trkpt><trkpt lat="38.8168583" lon="16.3600133"><ele>666.0</ele><time>2026-04-27T12:06:44.68Z</time></trkpt><trkpt lat="38.8168867" lon="16.3601917"><ele>665.0</ele><time>2026-04-27T12:06:45.666Z</time></trkpt><trkpt lat="38.8169067" lon="16.3603767"><ele>664.0</ele><time>2026-04-27T12:06:46.664Z</time></trkpt><trkpt lat="38.8169183" lon="16.36057"><ele>664.0</ele><time>2026-04-27T12:06:47.661Z</time></trkpt><trkpt lat="38.816925" lon="16.36077"><ele>664.0</ele><time>2026-04-27T12:06:48.66Z</time></trkpt><trkpt lat="38.8169283" lon="16.3609717"><ele>664.0</ele><time>2026-04-27T12:06:49.662Z</time></trkpt><trkpt lat="38.8169283" lon="16.3611667"><ele>664.0</ele><time>2026-04-27T12:06:50.681Z</time></trkpt><trkpt lat="38.8169283" lon="16.3613467"><ele>664.0</ele><time>2026-04-27T12:06:51.665Z</time></trkpt><trkpt lat="38.8169317" lon="16.3615117"><ele>664.0</ele><time>2026-04-27T12:06:52.665Z</time></trkpt><trkpt lat="38.81696" lon="16.3616567"><ele>664.0</ele><time>2026-04-27T12:06:53.658Z</time></trkpt><trkpt lat="38.81701" lon="16.3617667"><ele>663.25</ele><time>2026-04-27T12:06:54.669Z</time></trkpt><trkpt lat="38.81709" lon="16.36184"><ele>662.5</ele><time>2026-04-27T12:06:55.659Z</time></trkpt><trkpt lat="38.8171817" lon="16.3619083"><ele>661.75</ele><time>2026-04-27T12:06:56.715Z</time></trkpt><trkpt lat="38.8173" lon="16.3619567"><ele>661.0</ele><time>2026-04-27T12:06:57.66Z</time></trkpt><trkpt lat="38.8174283" lon="16.36201"><ele>661.0</ele><time>2026-04-27T12:06:58.665Z</time></trkpt><trkpt lat="38.8175683" lon="16.3620617"><ele>661.0</ele><time>2026-04-27T12:06:59.658Z</time></trkpt><trkpt lat="38.8177083" lon="16.36212"><ele>661.0</ele><time>2026-04-27T12:07:00.666Z</time></trkpt><trkpt lat="38.8178433" lon="16.36218"><ele>661.0</ele><time>2026-04-27T12:07:01.661Z</time></trkpt><trkpt lat="38.81797" lon="16.3622533"><ele>661.25</ele><time>2026-04-27T12:07:02.716Z</time></trkpt><trkpt lat="38.8180933" lon="16.362345"><ele>661.5</ele><time>2026-04-27T12:07:03.658Z</time></trkpt><trkpt lat="38.8182" lon="16.3624517"><ele>661.75</ele><time>2026-04-27T12:07:04.666Z</time></trkpt><trkpt lat="38.8182933" lon="16.3625667"><ele>662.0</ele><time>2026-04-27T12:07:05.662Z</time></trkpt><trkpt lat="38.8183783" lon="16.3626967"><ele>662.0</ele><time>2026-04-27T12:07:06.665Z</time></trkpt><trkpt lat="38.818455" lon="16.3628667"><ele>662.0</ele><time>2026-04-27T12:07:07.662Z</time></trkpt><trkpt lat="38.8185333" lon="16.3630633"><ele>662.0</ele><time>2026-04-27T12:07:08.678Z</time></trkpt><trkpt lat="38.8186233" lon="16.3632733"><ele>663.0</ele><time>2026-04-27T12:07:09.663Z</time></trkpt><trkpt lat="38.818725" lon="16.3634867"><ele>664.0</ele><time>2026-04-27T12:07:10.665Z</time></trkpt><trkpt lat="38.8188433" lon="16.36369"><ele>665.0</ele><time>2026-04-27T12:07:11.661Z</time></trkpt><trkpt lat="38.8189717" lon="16.363875"><ele>667.0</ele><time>2026-04-27T12:07:12.666Z</time></trkpt><trkpt lat="38.8190867" lon="16.364055"><ele>669.0</ele><time>2026-04-27T12:07:13.658Z</time></trkpt><trkpt lat="38.8191967" lon="16.3642233"><ele>671.0</ele><time>2026-04-27T12:07:14.669Z</time></trkpt><trkpt lat="38.8192833" lon="16.3644033"><ele>669.3333333333333</ele><time>2026-04-27T12:07:15.658Z</time></trkpt><trkpt lat="38.8193583" lon="16.364595"><ele>667.6666666666666</ele><time>2026-04-27T12:07:16.662Z</time></trkpt><trkpt lat="38.8194267" lon="16.3647933"><ele>666.0</ele><time>2026-04-27T12:07:17.661Z</time></trkpt><trkpt lat="38.81949" lon="16.3649833"><ele>666.0</ele><time>2026-04-27T12:07:18.667Z</time></trkpt><trkpt lat="38.8195517" lon="16.365165"><ele>666.0</ele><time>2026-04-27T12:07:19.66Z</time></trkpt><trkpt lat="38.8196083" lon="16.3653333"><ele>666.0</ele><time>2026-04-27T12:07:20.679Z</time></trkpt><trkpt lat="38.819655" lon="16.36549"><ele>666.0</ele><time>2026-04-27T12:07:21.657Z</time></trkpt><trkpt lat="38.81969" lon="16.365645"><ele>667.0</ele><time>2026-04-27T12:07:22.665Z</time></trkpt><trkpt lat="38.81971" lon="16.365805"><ele>668.0</ele><time>2026-04-27T12:07:23.663Z</time></trkpt><trkpt lat="38.819725" lon="16.365975"><ele>669.0</ele><time>2026-04-27T12:07:24.666Z</time></trkpt><trkpt lat="38.8197233" lon="16.36615"><ele>670.0</ele><time>2026-04-27T12:07:25.664Z</time></trkpt><trkpt lat="38.8197283" lon="16.3663233"><ele>670.0</ele><time>2026-04-27T12:07:26.716Z</time></trkpt><trkpt lat="38.8197367" lon="16.3664967"><ele>670.0</ele><time>2026-04-27T12:07:27.656Z</time></trkpt><trkpt lat="38.81975" lon="16.3666517"><ele>670.0</ele><time>2026-04-27T12:07:28.66Z</time></trkpt><trkpt lat="38.8197617" lon="16.36676"><ele>670.0</ele><time>2026-04-27T12:07:29.657Z</time></trkpt><trkpt lat="38.8197233" lon="16.3668383"><ele>670.0</ele><time>2026-04-27T12:07:31.662Z</time></trkpt><trkpt lat="38.81966" lon="16.3668033"><ele>670.0</ele><time>2026-04-27T12:07:33.659Z</time></trkpt><trkpt lat="38.8195917" lon="16.3666817"><ele>670.0</ele><time>2026-04-27T12:07:35.662Z</time></trkpt><trkpt lat="38.8195117" lon="16.3666183"><ele>670.0</ele><time>2026-04-27T12:07:36.658Z</time></trkpt><trkpt lat="38.81942" lon="16.36657"><ele>670.0</ele><time>2026-04-27T12:07:37.656Z</time></trkpt><trkpt lat="38.8192933" lon="16.3665583"><ele>670.0</ele><time>2026-04-27T12:07:38.678Z</time></trkpt><trkpt lat="38.81917" lon="16.36656"><ele>674.0</ele><time>2026-04-27T12:07:39.662Z</time></trkpt><trkpt lat="38.8190267" lon="16.366585"><ele>678.0</ele><time>2026-04-27T12:07:40.665Z</time></trkpt><trkpt lat="38.81887" lon="16.3666317"><ele>682.0</ele><time>2026-04-27T12:07:41.664Z</time></trkpt><trkpt lat="38.8187083" lon="16.3667017"><ele>682.0</ele><time>2026-04-27T12:07:42.667Z</time></trkpt><trkpt lat="38.8185467" lon="16.3667967"><ele>682.0</ele><time>2026-04-27T12:07:43.663Z</time></trkpt><trkpt lat="38.81839" lon="16.36691"><ele>682.0</ele><time>2026-04-27T12:07:44.673Z</time></trkpt><trkpt lat="38.8182367" lon="16.36703"><ele>685.0</ele><time>2026-04-27T12:07:45.663Z</time></trkpt><trkpt lat="38.8180917" lon="16.3671533"><ele>688.0</ele><time>2026-04-27T12:07:46.666Z</time></trkpt><trkpt lat="38.817955" lon="16.3672683"><ele>691.0</ele><time>2026-04-27T12:07:47.656Z</time></trkpt><trkpt lat="38.81782" lon="16.3673717"><ele>691.0</ele><time>2026-04-27T12:07:48.661Z</time></trkpt><trkpt lat="38.8176817" lon="16.3674633"><ele>691.0</ele><time>2026-04-27T12:07:49.662Z</time></trkpt><trkpt lat="38.8175483" lon="16.3675483"><ele>691.0</ele><time>2026-04-27T12:07:50.675Z</time></trkpt><trkpt lat="38.81742" lon="16.3676283"><ele>691.0</ele><time>2026-04-27T12:07:51.66Z</time></trkpt><trkpt lat="38.8173" lon="16.3677183"><ele>694.75</ele><time>2026-04-27T12:07:52.661Z</time></trkpt><trkpt lat="38.81719" lon="16.3678233"><ele>698.5</ele><time>2026-04-27T12:07:53.662Z</time></trkpt><trkpt lat="38.817085" lon="16.3679517"><ele>702.25</ele><time>2026-04-27T12:07:54.665Z</time></trkpt><trkpt lat="38.817025" lon="16.3681133"><ele>706.0</ele><time>2026-04-27T12:07:55.661Z</time></trkpt><trkpt lat="38.8169933" lon="16.3683133"><ele>706.0</ele><time>2026-04-27T12:07:56.728Z</time></trkpt><trkpt lat="38.8169367" lon="16.368495"><ele>706.0</ele><time>2026-04-27T12:07:57.656Z</time></trkpt><trkpt lat="38.816875" lon="16.3686633"><ele>706.0</ele><time>2026-04-27T12:07:58.666Z</time></trkpt><trkpt lat="38.8168033" lon="16.368785"><ele>706.0</ele><time>2026-04-27T12:07:59.657Z</time></trkpt><trkpt lat="38.816725" lon="16.3688833"><ele>710.5</ele><time>2026-04-27T12:08:00.664Z</time></trkpt><trkpt lat="38.8166383" lon="16.3689583"><ele>715.0</ele><time>2026-04-27T12:08:01.66Z</time></trkpt><trkpt lat="38.8165333" lon="16.3690283"><ele>719.5</ele><time>2026-04-27T12:08:02.715Z</time></trkpt><trkpt lat="38.81642" lon="16.3691117"><ele>724.0</ele><time>2026-04-27T12:08:03.663Z</time></trkpt><trkpt lat="38.816305" lon="16.369225"><ele>724.0</ele><time>2026-04-27T12:08:04.665Z</time></trkpt><trkpt lat="38.81619" lon="16.3693733"><ele>724.0</ele><time>2026-04-27T12:08:05.658Z</time></trkpt><trkpt lat="38.816085" lon="16.3695367"><ele>724.0</ele><time>2026-04-27T12:08:06.666Z</time></trkpt><trkpt lat="38.8159767" lon="16.36971"><ele>730.0</ele><time>2026-04-27T12:08:07.66Z</time></trkpt><trkpt lat="38.8158733" lon="16.3698833"><ele>736.0</ele><time>2026-04-27T12:08:08.672Z</time></trkpt><trkpt lat="38.8157683" lon="16.37005"><ele>742.0</ele><time>2026-04-27T12:08:09.661Z</time></trkpt><trkpt lat="38.8156633" lon="16.370205"><ele>742.0</ele><time>2026-04-27T12:08:10.66Z</time></trkpt><trkpt lat="38.815555" lon="16.3703583"><ele>742.0</ele><time>2026-04-27T12:08:11.668Z</time></trkpt><trkpt lat="38.8154433" lon="16.3705117"><ele>742.0</ele><time>2026-04-27T12:08:12.663Z</time></trkpt><trkpt lat="38.8153333" lon="16.370655"><ele>740.5</ele><time>2026-04-27T12:08:13.666Z</time></trkpt><trkpt lat="38.8152233" lon="16.37078"><ele>739.0</ele><time>2026-04-27T12:08:14.675Z</time></trkpt><trkpt lat="38.8151133" lon="16.3708783"><ele>737.5</ele><time>2026-04-27T12:08:15.663Z</time></trkpt><trkpt lat="38.8149867" lon="16.3709617"><ele>736.0</ele><time>2026-04-27T12:08:16.666Z</time></trkpt><trkpt lat="38.8148483" lon="16.3710433"><ele>737.0</ele><time>2026-04-27T12:08:17.667Z</time></trkpt><trkpt lat="38.8147" lon="16.3711433"><ele>738.0</ele><time>2026-04-27T12:08:18.664Z</time></trkpt><trkpt lat="38.8145583" lon="16.3712533"><ele>739.0</ele><time>2026-04-27T12:08:19.657Z</time></trkpt><trkpt lat="38.814425" lon="16.37136"><ele>743.5</ele><time>2026-04-27T12:08:20.68Z</time></trkpt><trkpt lat="38.8142933" lon="16.3714617"><ele>748.0</ele><time>2026-04-27T12:08:21.659Z</time></trkpt><trkpt lat="38.81417" lon="16.371545"><ele>752.5</ele><time>2026-04-27T12:08:22.665Z</time></trkpt><trkpt lat="38.8140333" lon="16.3716067"><ele>757.0</ele><time>2026-04-27T12:08:23.663Z</time></trkpt><trkpt lat="38.8139017" lon="16.3716533"><ele>757.0</ele><time>2026-04-27T12:08:24.668Z</time></trkpt><trkpt lat="38.8137717" lon="16.3717133"><ele>757.0</ele><time>2026-04-27T12:08:25.661Z</time></trkpt><trkpt lat="38.8136383" lon="16.3717983"><ele>757.0</ele><time>2026-04-27T12:08:26.703Z</time></trkpt><trkpt lat="38.81352" lon="16.371915"><ele>757.0</ele><time>2026-04-27T12:08:27.658Z</time></trkpt><trkpt lat="38.8134083" lon="16.3720617"><ele>760.0</ele><time>2026-04-27T12:08:28.662Z</time></trkpt><trkpt lat="38.8133083" lon="16.3722333"><ele>763.0</ele><time>2026-04-27T12:08:29.66Z</time></trkpt><trkpt lat="38.8132" lon="16.37239"><ele>766.0</ele><time>2026-04-27T12:08:30.662Z</time></trkpt><trkpt lat="38.8130933" lon="16.37253"><ele>766.0</ele><time>2026-04-27T12:08:31.658Z</time></trkpt><trkpt lat="38.8129617" lon="16.3726617"><ele>766.0</ele><time>2026-04-27T12:08:32.713Z</time></trkpt><trkpt lat="38.8128283" lon="16.3727817"><ele>766.0</ele><time>2026-04-27T12:08:33.656Z</time></trkpt><trkpt lat="38.8126733" lon="16.3728867"><ele>767.6666666666667</ele><time>2026-04-27T12:08:34.664Z</time></trkpt><trkpt lat="38.8125167" lon="16.3729733"><ele>769.3333333333334</ele><time>2026-04-27T12:08:35.664Z</time></trkpt><trkpt lat="38.8123567" lon="16.3730417"><ele>771.0</ele><time>2026-04-27T12:08:36.664Z</time></trkpt><trkpt lat="38.812215" lon="16.37309"><ele>771.0</ele><time>2026-04-27T12:08:37.668Z</time></trkpt><trkpt lat="38.8120667" lon="16.373125"><ele>771.0</ele><time>2026-04-27T12:08:38.675Z</time></trkpt><trkpt lat="38.81195" lon="16.3730917"><ele>771.0</ele><time>2026-04-27T12:08:39.659Z</time></trkpt><trkpt lat="38.8118167" lon="16.3730833"><ele>771.0</ele><time>2026-04-27T12:08:40.667Z</time></trkpt><trkpt lat="38.8117283" lon="16.3730117"><ele>771.5</ele><time>2026-04-27T12:08:41.663Z</time></trkpt><trkpt lat="38.8116867" lon="16.3728983"><ele>772.0</ele><time>2026-04-27T12:08:42.667Z</time></trkpt><trkpt lat="38.811655" lon="16.37273"><ele>772.5</ele><time>2026-04-27T12:08:43.662Z</time></trkpt><trkpt lat="38.8116783" lon="16.37251"><ele>773.0</ele><time>2026-04-27T12:08:44.681Z</time></trkpt><trkpt lat="38.81167" lon="16.37234"><ele>773.0</ele><time>2026-04-27T12:08:45.662Z</time></trkpt><trkpt lat="38.8116283" lon="16.372195"><ele>773.0</ele><time>2026-04-27T12:08:46.656Z</time></trkpt><trkpt lat="38.8116083" lon="16.3720333"><ele>773.0</ele><time>2026-04-27T12:08:47.659Z</time></trkpt><trkpt lat="38.811545" lon="16.3718883"><ele>773.0</ele><time>2026-04-27T12:08:48.662Z</time></trkpt><trkpt lat="38.8114667" lon="16.37174"><ele>777.3333333333334</ele><time>2026-04-27T12:08:49.671Z</time></trkpt><trkpt lat="38.8113133" lon="16.3716117"><ele>781.6666666666667</ele><time>2026-04-27T12:08:50.677Z</time></trkpt><trkpt lat="38.8111517" lon="16.3714983"><ele>786.0</ele><time>2026-04-27T12:08:51.662Z</time></trkpt><trkpt lat="38.8109967" lon="16.371375"><ele>788.3333333333333</ele><time>2026-04-27T12:08:52.666Z</time></trkpt><trkpt lat="38.8108567" lon="16.3712517"><ele>790.6666666666666</ele><time>2026-04-27T12:08:53.663Z</time></trkpt><trkpt lat="38.810725" lon="16.37111"><ele>793.0</ele><time>2026-04-27T12:08:54.656Z</time></trkpt><trkpt lat="38.8105967" lon="16.370975"><ele>793.0</ele><time>2026-04-27T12:08:55.659Z</time></trkpt><trkpt lat="38.810465" lon="16.3708583"><ele>793.0</ele><time>2026-04-27T12:08:56.723Z</time></trkpt><trkpt lat="38.8103233" lon="16.3707633"><ele>793.0</ele><time>2026-04-27T12:08:57.663Z</time></trkpt><trkpt lat="38.8101633" lon="16.370695"><ele>790.0</ele><time>2026-04-27T12:08:58.663Z</time></trkpt><trkpt lat="38.80999" lon="16.3706433"><ele>787.0</ele><time>2026-04-27T12:08:59.661Z</time></trkpt><trkpt lat="38.8098183" lon="16.3706067"><ele>784.0</ele><time>2026-04-27T12:09:00.66Z</time></trkpt><trkpt lat="38.80966" lon="16.370565"><ele>788.6666666666666</ele><time>2026-04-27T12:09:01.661Z</time></trkpt><trkpt lat="38.809515" lon="16.3705033"><ele>793.3333333333333</ele><time>2026-04-27T12:09:02.719Z</time></trkpt><trkpt lat="38.809375" lon="16.370415"><ele>798.0</ele><time>2026-04-27T12:09:03.664Z</time></trkpt><trkpt lat="38.8092367" lon="16.3703117"><ele>798.0</ele><time>2026-04-27T12:09:04.663Z</time></trkpt><trkpt lat="38.8090917" lon="16.37022"><ele>798.0</ele><time>2026-04-27T12:09:05.659Z</time></trkpt><trkpt lat="38.8089417" lon="16.3701483"><ele>798.0</ele><time>2026-04-27T12:09:06.661Z</time></trkpt><trkpt lat="38.8087967" lon="16.3700867"><ele>798.0</ele><time>2026-04-27T12:09:07.661Z</time></trkpt><trkpt lat="38.808675" lon="16.37002"><ele>798.0</ele><time>2026-04-27T12:09:08.676Z</time></trkpt><trkpt lat="38.8085833" lon="16.3699367"><ele>798.0</ele><time>2026-04-27T12:09:09.657Z</time></trkpt><trkpt lat="38.8085233" lon="16.3698367"><ele>798.0</ele><time>2026-04-27T12:09:10.665Z</time></trkpt><trkpt lat="38.8084867" lon="16.3697217"><ele>798.0</ele><time>2026-04-27T12:09:11.661Z</time></trkpt><trkpt lat="38.8084617" lon="16.3695933"><ele>797.0</ele><time>2026-04-27T12:09:12.663Z</time></trkpt><trkpt lat="38.8084567" lon="16.3694433"><ele>796.0</ele><time>2026-04-27T12:09:13.663Z</time></trkpt><trkpt lat="38.8084683" lon="16.369275"><ele>795.0</ele><time>2026-04-27T12:09:14.676Z</time></trkpt><trkpt lat="38.8084883" lon="16.3690867"><ele>794.0</ele><time>2026-04-27T12:09:15.659Z</time></trkpt><trkpt lat="38.8085" lon="16.3688917"><ele>797.0</ele><time>2026-04-27T12:09:16.664Z</time></trkpt><trkpt lat="38.8085117" lon="16.3686933"><ele>800.0</ele><time>2026-04-27T12:09:17.664Z</time></trkpt><trkpt lat="38.808515" lon="16.368505"><ele>803.0</ele><time>2026-04-27T12:09:18.666Z</time></trkpt><trkpt lat="38.8085067" lon="16.3683333"><ele>806.0</ele><time>2026-04-27T12:09:19.666Z</time></trkpt><trkpt lat="38.8084667" lon="16.3682017"><ele>806.0</ele><time>2026-04-27T12:09:20.678Z</time></trkpt><trkpt lat="38.8083983" lon="16.3681217"><ele>806.0</ele><time>2026-04-27T12:09:21.659Z</time></trkpt><trkpt lat="38.8083233" lon="16.368055"><ele>806.0</ele><time>2026-04-27T12:09:22.663Z</time></trkpt><trkpt lat="38.8082133" lon="16.36807"><ele>806.0</ele><time>2026-04-27T12:09:23.663Z</time></trkpt><trkpt lat="38.8080967" lon="16.3681"><ele>806.0</ele><time>2026-04-27T12:09:24.669Z</time></trkpt><trkpt lat="38.80797" lon="16.368125"><ele>806.0</ele><time>2026-04-27T12:09:25.659Z</time></trkpt><trkpt lat="38.8078417" lon="16.368125"><ele>806.0</ele><time>2026-04-27T12:09:26.72Z</time></trkpt><trkpt lat="38.80772" lon="16.3680833"><ele>806.0</ele><time>2026-04-27T12:09:27.662Z</time></trkpt><trkpt lat="38.8076017" lon="16.367995"><ele>806.0</ele><time>2026-04-27T12:09:28.665Z</time></trkpt><trkpt lat="38.8074833" lon="16.3678783"><ele>809.6666666666667</ele><time>2026-04-27T12:09:29.654Z</time></trkpt><trkpt lat="38.8073583" lon="16.367745"><ele>813.3333333333333</ele><time>2026-04-27T12:09:30.658Z</time></trkpt><trkpt lat="38.8072333" lon="16.3676"><ele>817.0</ele><time>2026-04-27T12:09:31.659Z</time></trkpt><trkpt lat="38.807105" lon="16.3674483"><ele>817.0</ele><time>2026-04-27T12:09:32.716Z</time></trkpt><trkpt lat="38.8069783" lon="16.367295"><ele>817.0</ele><time>2026-04-27T12:09:33.66Z</time></trkpt><trkpt lat="38.806855" lon="16.3671383"><ele>817.0</ele><time>2026-04-27T12:09:34.661Z</time></trkpt><trkpt lat="38.80674" lon="16.3669717"><ele>817.6666666666666</ele><time>2026-04-27T12:09:35.663Z</time></trkpt><trkpt lat="38.8066283" lon="16.3668"><ele>818.3333333333333</ele><time>2026-04-27T12:09:36.659Z</time></trkpt><trkpt lat="38.8065117" lon="16.366635"><ele>819.0</ele><time>2026-04-27T12:09:37.658Z</time></trkpt><trkpt lat="38.80639" lon="16.3664833"><ele>819.5</ele><time>2026-04-27T12:09:38.675Z</time></trkpt><trkpt lat="38.80627" lon="16.36635"><ele>820.0</ele><time>2026-04-27T12:09:39.661Z</time></trkpt><trkpt lat="38.8061533" lon="16.3662383"><ele>820.5</ele><time>2026-04-27T12:09:40.666Z</time></trkpt><trkpt lat="38.806035" lon="16.36614"><ele>821.0</ele><time>2026-04-27T12:09:41.658Z</time></trkpt><trkpt lat="38.8059117" lon="16.366065"><ele>825.5</ele><time>2026-04-27T12:09:42.662Z</time></trkpt><trkpt lat="38.8057917" lon="16.3660317"><ele>830.0</ele><time>2026-04-27T12:09:43.656Z</time></trkpt><trkpt lat="38.8056833" lon="16.3660317"><ele>834.5</ele><time>2026-04-27T12:09:44.671Z</time></trkpt><trkpt lat="38.8055767" lon="16.3660817"><ele>839.0</ele><time>2026-04-27T12:09:45.655Z</time></trkpt><trkpt lat="38.8054817" lon="16.3662017"><ele>839.0</ele><time>2026-04-27T12:09:46.658Z</time></trkpt><trkpt lat="38.805365" lon="16.3662783"><ele>839.0</ele><time>2026-04-27T12:09:47.663Z</time></trkpt><trkpt lat="38.8052467" lon="16.36632"><ele>839.0</ele><time>2026-04-27T12:09:48.662Z</time></trkpt><trkpt lat="38.8051283" lon="16.366325"><ele>839.0</ele><time>2026-04-27T12:09:49.665Z</time></trkpt><trkpt lat="38.8050083" lon="16.3663017"><ele>844.5</ele><time>2026-04-27T12:09:50.674Z</time></trkpt><trkpt lat="38.8049" lon="16.36626"><ele>850.0</ele><time>2026-04-27T12:09:51.655Z</time></trkpt><trkpt lat="38.804795" lon="16.3661783"><ele>855.5</ele><time>2026-04-27T12:09:52.663Z</time></trkpt><trkpt lat="38.8046917" lon="16.3661"><ele>861.0</ele><time>2026-04-27T12:09:53.658Z</time></trkpt><trkpt lat="38.8045783" lon="16.3659917"><ele>861.0</ele><time>2026-04-27T12:09:54.66Z</time></trkpt><trkpt lat="38.8044467" lon="16.3659083"><ele>861.0</ele><time>2026-04-27T12:09:55.656Z</time></trkpt><trkpt lat="38.8043" lon="16.3657967"><ele>861.0</ele><time>2026-04-27T12:09:56.719Z</time></trkpt><trkpt lat="38.804135" lon="16.3656817"><ele>861.0</ele><time>2026-04-27T12:09:57.656Z</time></trkpt><trkpt lat="38.8039883" lon="16.365575"><ele>861.0</ele><time>2026-04-27T12:09:58.658Z</time></trkpt><trkpt lat="38.8038433" lon="16.365475"><ele>861.0</ele><time>2026-04-27T12:09:59.657Z</time></trkpt><trkpt lat="38.803695" lon="16.365395"><ele>861.0</ele><time>2026-04-27T12:10:00.657Z</time></trkpt><trkpt lat="38.80353" lon="16.3653283"><ele>861.0</ele><time>2026-04-27T12:10:01.666Z</time></trkpt><trkpt lat="38.8033617" lon="16.365285"><ele>861.0</ele><time>2026-04-27T12:10:02.714Z</time></trkpt><trkpt lat="38.8032017" lon="16.3652667"><ele>862.0</ele><time>2026-04-27T12:10:03.659Z</time></trkpt><trkpt lat="38.803055" lon="16.365275"><ele>863.0</ele><time>2026-04-27T12:10:04.663Z</time></trkpt><trkpt lat="38.8029183" lon="16.3652933"><ele>864.0</ele><time>2026-04-27T12:10:05.657Z</time></trkpt><trkpt lat="38.80278" lon="16.3653333"><ele>865.0</ele><time>2026-04-27T12:10:06.664Z</time></trkpt><trkpt lat="38.8026283" lon="16.3653683"><ele>871.0</ele><time>2026-04-27T12:10:07.658Z</time></trkpt><trkpt lat="38.8024733" lon="16.3653983"><ele>877.0</ele><time>2026-04-27T12:10:08.673Z</time></trkpt><trkpt lat="38.802315" lon="16.36541"><ele>883.0</ele><time>2026-04-27T12:10:09.659Z</time></trkpt><trkpt lat="38.8021667" lon="16.3653867"><ele>883.0</ele><time>2026-04-27T12:10:10.663Z</time></trkpt><trkpt lat="38.8020417" lon="16.365345"><ele>883.0</ele><time>2026-04-27T12:10:11.663Z</time></trkpt><trkpt lat="38.8019467" lon="16.3652817"><ele>883.0</ele><time>2026-04-27T12:10:12.659Z</time></trkpt><trkpt lat="38.8018633" lon="16.36519"><ele>883.0</ele><time>2026-04-27T12:10:13.662Z</time></trkpt><trkpt lat="38.8017767" lon="16.365065"><ele>883.0</ele><time>2026-04-27T12:10:14.684Z</time></trkpt><trkpt lat="38.8016767" lon="16.3649133"><ele>883.0</ele><time>2026-04-27T12:10:15.666Z</time></trkpt><trkpt lat="38.8015633" lon="16.3647333"><ele>883.0</ele><time>2026-04-27T12:10:16.67Z</time></trkpt><trkpt lat="38.8014417" lon="16.3645517"><ele>886.3333333333333</ele><time>2026-04-27T12:10:17.659Z</time></trkpt><trkpt lat="38.8013183" lon="16.3643683"><ele>889.6666666666667</ele><time>2026-04-27T12:10:18.664Z</time></trkpt><trkpt lat="38.8011867" lon="16.3641967"><ele>893.0</ele><time>2026-04-27T12:10:19.66Z</time></trkpt><trkpt lat="38.8010533" lon="16.3640433"><ele>892.0</ele><time>2026-04-27T12:10:20.673Z</time></trkpt><trkpt lat="38.80092" lon="16.3639167"><ele>891.0</ele><time>2026-04-27T12:10:21.665Z</time></trkpt><trkpt lat="38.8007783" lon="16.36383"><ele>890.0</ele><time>2026-04-27T12:10:22.66Z</time></trkpt><trkpt lat="38.8006167" lon="16.3637883"><ele>890.0</ele><time>2026-04-27T12:10:23.657Z</time></trkpt><trkpt lat="38.8004417" lon="16.3637567"><ele>890.0</ele><time>2026-04-27T12:10:24.663Z</time></trkpt><trkpt lat="38.80026" lon="16.3637267"><ele>890.0</ele><time>2026-04-27T12:10:25.659Z</time></trkpt><trkpt lat="38.8000833" lon="16.3636883"><ele>889.3333333333334</ele><time>2026-04-27T12:10:26.725Z</time></trkpt><trkpt lat="38.79992" lon="16.3636383"><ele>888.6666666666667</ele><time>2026-04-27T12:10:27.656Z</time></trkpt><trkpt lat="38.7997683" lon="16.3635767"><ele>888.0</ele><time>2026-04-27T12:10:28.669Z</time></trkpt><trkpt lat="38.7996267" lon="16.3634983"><ele>888.0</ele><time>2026-04-27T12:10:29.665Z</time></trkpt><trkpt lat="38.7994917" lon="16.3633967"><ele>888.0</ele><time>2026-04-27T12:10:30.666Z</time></trkpt><trkpt lat="38.7993633" lon="16.363285"><ele>888.0</ele><time>2026-04-27T12:10:31.653Z</time></trkpt><trkpt lat="38.799235" lon="16.3631867"><ele>887.5</ele><time>2026-04-27T12:10:32.713Z</time></trkpt><trkpt lat="38.799105" lon="16.3631133"><ele>887.0</ele><time>2026-04-27T12:10:33.654Z</time></trkpt><trkpt lat="38.79897" lon="16.3630617"><ele>886.5</ele><time>2026-04-27T12:10:34.662Z</time></trkpt><trkpt lat="38.798835" lon="16.3630267"><ele>886.0</ele><time>2026-04-27T12:10:35.662Z</time></trkpt><trkpt lat="38.79869" lon="16.3630383"><ele>884.6666666666666</ele><time>2026-04-27T12:10:36.664Z</time></trkpt><trkpt lat="38.798545" lon="16.36308"><ele>883.3333333333333</ele><time>2026-04-27T12:10:37.66Z</time></trkpt><trkpt lat="38.798395" lon="16.3631533"><ele>882.0</ele><time>2026-04-27T12:10:38.677Z</time></trkpt><trkpt lat="38.7982567" lon="16.3632367"><ele>884.75</ele><time>2026-04-27T12:10:39.66Z</time></trkpt><trkpt lat="38.7981283" lon="16.36332"><ele>887.5</ele><time>2026-04-27T12:10:40.665Z</time></trkpt><trkpt lat="38.79801" lon="16.3633567"><ele>890.25</ele><time>2026-04-27T12:10:41.658Z</time></trkpt><trkpt lat="38.7979" lon="16.3633683"><ele>893.0</ele><time>2026-04-27T12:10:42.663Z</time></trkpt><trkpt lat="38.79779" lon="16.3633567"><ele>893.0</ele><time>2026-04-27T12:10:43.66Z</time></trkpt><trkpt lat="38.7977017" lon="16.3633133"><ele>893.0</ele><time>2026-04-27T12:10:44.669Z</time></trkpt><trkpt lat="38.7976233" lon="16.3632517"><ele>893.0</ele><time>2026-04-27T12:10:45.652Z</time></trkpt><trkpt lat="38.7975417" lon="16.3631617"><ele>893.0</ele><time>2026-04-27T12:10:46.661Z</time></trkpt><trkpt lat="38.7974317" lon="16.36306"><ele>893.0</ele><time>2026-04-27T12:10:47.663Z</time></trkpt><trkpt lat="38.7972783" lon="16.36296"><ele>893.0</ele><time>2026-04-27T12:10:48.661Z</time></trkpt><trkpt lat="38.7971283" lon="16.362865"><ele>893.0</ele><time>2026-04-27T12:10:49.677Z</time></trkpt><trkpt lat="38.7969533" lon="16.362845"><ele>893.0</ele><time>2026-04-27T12:10:50.674Z</time></trkpt><trkpt lat="38.7967967" lon="16.3628183"><ele>890.6666666666667</ele><time>2026-04-27T12:10:51.659Z</time></trkpt><trkpt lat="38.7966333" lon="16.3627683"><ele>888.3333333333333</ele><time>2026-04-27T12:10:52.664Z</time></trkpt><trkpt lat="38.7964633" lon="16.3627067"><ele>886.0</ele><time>2026-04-27T12:10:53.656Z</time></trkpt><trkpt lat="38.7962967" lon="16.36264"><ele>886.0</ele><time>2026-04-27T12:10:54.662Z</time></trkpt><trkpt lat="38.7961217" lon="16.3625767"><ele>886.0</ele><time>2026-04-27T12:10:55.658Z</time></trkpt><trkpt lat="38.795955" lon="16.3625267"><ele>886.0</ele><time>2026-04-27T12:10:56.704Z</time></trkpt><trkpt lat="38.7958" lon="16.36248"><ele>884.25</ele><time>2026-04-27T12:10:57.659Z</time></trkpt><trkpt lat="38.795665" lon="16.3624367"><ele>882.5</ele><time>2026-04-27T12:10:58.665Z</time></trkpt><trkpt lat="38.7955317" lon="16.3623867"><ele>880.75</ele><time>2026-04-27T12:10:59.657Z</time></trkpt><trkpt lat="38.795395" lon="16.362315"><ele>879.0</ele><time>2026-04-27T12:11:00.666Z</time></trkpt><trkpt lat="38.7952517" lon="16.3622283"><ele>881.3333333333333</ele><time>2026-04-27T12:11:01.657Z</time></trkpt><trkpt lat="38.7951" lon="16.3620917"><ele>883.6666666666666</ele><time>2026-04-27T12:11:02.718Z</time></trkpt><trkpt lat="38.7949483" lon="16.3619767"><ele>886.0</ele><time>2026-04-27T12:11:03.662Z</time></trkpt><trkpt lat="38.7947933" lon="16.3618533"><ele>886.0</ele><time>2026-04-27T12:11:04.671Z</time></trkpt><trkpt lat="38.79464" lon="16.3617317"><ele>886.0</ele><time>2026-04-27T12:11:05.663Z</time></trkpt><trkpt lat="38.7944817" lon="16.36161"><ele>886.0</ele><time>2026-04-27T12:11:06.661Z</time></trkpt><trkpt lat="38.7943133" lon="16.3615117"><ele>883.6666666666666</ele><time>2026-04-27T12:11:07.659Z</time></trkpt><trkpt lat="38.7941367" lon="16.36144"><ele>881.3333333333333</ele><time>2026-04-27T12:11:08.671Z</time></trkpt><trkpt lat="38.7939717" lon="16.3613833"><ele>879.0</ele><time>2026-04-27T12:11:09.657Z</time></trkpt><trkpt lat="38.7938267" lon="16.36132"><ele>879.0</ele><time>2026-04-27T12:11:10.662Z</time></trkpt><trkpt lat="38.7937033" lon="16.36124"><ele>879.0</ele><time>2026-04-27T12:11:11.658Z</time></trkpt><trkpt lat="38.7935883" lon="16.36114"><ele>879.0</ele><time>2026-04-27T12:11:12.667Z</time></trkpt><trkpt lat="38.7934883" lon="16.361015"><ele>879.0</ele><time>2026-04-27T12:11:13.664Z</time></trkpt><trkpt lat="38.7934" lon="16.36087"><ele>878.5</ele><time>2026-04-27T12:11:14.676Z</time></trkpt><trkpt lat="38.7933083" lon="16.360725"><ele>878.0</ele><time>2026-04-27T12:11:15.66Z</time></trkpt><trkpt lat="38.7932033" lon="16.3605933"><ele>877.5</ele><time>2026-04-27T12:11:16.666Z</time></trkpt><trkpt lat="38.79308" lon="16.360475"><ele>877.0</ele><time>2026-04-27T12:11:17.657Z</time></trkpt><trkpt lat="38.792945" lon="16.36037"><ele>877.0</ele><time>2026-04-27T12:11:18.658Z</time></trkpt><trkpt lat="38.7927983" lon="16.360295"><ele>877.0</ele><time>2026-04-27T12:11:19.661Z</time></trkpt><trkpt lat="38.7926583" lon="16.360245"><ele>877.0</ele><time>2026-04-27T12:11:20.681Z</time></trkpt><trkpt lat="38.7925183" lon="16.3602117"><ele>877.0</ele><time>2026-04-27T12:11:21.654Z</time></trkpt><trkpt lat="38.7923733" lon="16.36019"><ele>875.6666666666666</ele><time>2026-04-27T12:11:22.66Z</time></trkpt><trkpt lat="38.7922233" lon="16.3601783"><ele>874.3333333333333</ele><time>2026-04-27T12:11:23.661Z</time></trkpt><trkpt lat="38.7920717" lon="16.3601717"><ele>873.0</ele><time>2026-04-27T12:11:24.664Z</time></trkpt><trkpt lat="38.7919133" lon="16.36017"><ele>874.6666666666667</ele><time>2026-04-27T12:11:25.655Z</time></trkpt><trkpt lat="38.7917533" lon="16.36016"><ele>876.3333333333334</ele><time>2026-04-27T12:11:26.725Z</time></trkpt><trkpt lat="38.7916" lon="16.36014"><ele>878.0</ele><time>2026-04-27T12:11:27.661Z</time></trkpt><trkpt lat="38.7914567" lon="16.360115"><ele>878.0</ele><time>2026-04-27T12:11:28.666Z</time></trkpt><trkpt lat="38.7913283" lon="16.3600933"><ele>878.0</ele><time>2026-04-27T12:11:29.658Z</time></trkpt><trkpt lat="38.791215" lon="16.3600717"><ele>878.0</ele><time>2026-04-27T12:11:30.662Z</time></trkpt><trkpt lat="38.7911133" lon="16.3600583"><ele>878.0</ele><time>2026-04-27T12:11:31.659Z</time></trkpt><trkpt lat="38.7910233" lon="16.3600533"><ele>878.0</ele><time>2026-04-27T12:11:32.737Z</time></trkpt><trkpt lat="38.79095" lon="16.360055"><ele>878.2</ele><time>2026-04-27T12:11:33.659Z</time></trkpt><trkpt lat="38.790865" lon="16.3600667"><ele>878.4</ele><time>2026-04-27T12:11:35.66Z</time></trkpt><trkpt lat="38.790785" lon="16.3600883"><ele>878.6000000000001</ele><time>2026-04-27T12:12:05.662Z</time></trkpt><trkpt lat="38.790705" lon="16.3601267"><ele>878.8000000000001</ele><time>2026-04-27T12:12:06.664Z</time></trkpt><trkpt lat="38.790605" lon="16.36018"><ele>879.0</ele><time>2026-04-27T12:12:07.66Z</time></trkpt><trkpt lat="38.7904933" lon="16.360235"><ele>879.0</ele><time>2026-04-27T12:12:08.703Z</time></trkpt><trkpt lat="38.7903817" lon="16.3603"><ele>879.0</ele><time>2026-04-27T12:12:09.658Z</time></trkpt><trkpt lat="38.7902817" lon="16.3603567"><ele>879.0</ele><time>2026-04-27T12:12:10.664Z</time></trkpt><trkpt lat="38.7901817" lon="16.3604183"><ele>879.0</ele><time>2026-04-27T12:12:11.661Z</time></trkpt><trkpt lat="38.7900783" lon="16.3604667"><ele>879.5</ele><time>2026-04-27T12:12:12.666Z</time></trkpt><trkpt lat="38.7899733" lon="16.360505"><ele>880.0</ele><time>2026-04-27T12:12:13.657Z</time></trkpt><trkpt lat="38.7898617" lon="16.360545"><ele>880.5</ele><time>2026-04-27T12:12:14.688Z</time></trkpt><trkpt lat="38.789735" lon="16.3605933"><ele>881.0</ele><time>2026-04-27T12:12:15.653Z</time></trkpt><trkpt lat="38.7896" lon="16.3606433"><ele>880.25</ele><time>2026-04-27T12:12:16.66Z</time></trkpt><trkpt lat="38.7894633" lon="16.3606933"><ele>879.5</ele><time>2026-04-27T12:12:17.661Z</time></trkpt><trkpt lat="38.7893333" lon="16.3607317"><ele>878.75</ele><time>2026-04-27T12:12:18.659Z</time></trkpt><trkpt lat="38.7892033" lon="16.36077"><ele>878.0</ele><time>2026-04-27T12:12:19.661Z</time></trkpt><trkpt lat="38.7890683" lon="16.3608033"><ele>878.0</ele><time>2026-04-27T12:12:20.686Z</time></trkpt><trkpt lat="38.7889267" lon="16.3608217"><ele>878.0</ele><time>2026-04-27T12:12:21.66Z</time></trkpt><trkpt lat="38.7887733" lon="16.3608317"><ele>878.0</ele><time>2026-04-27T12:12:22.661Z</time></trkpt><trkpt lat="38.7886117" lon="16.3608233"><ele>878.3333333333334</ele><time>2026-04-27T12:12:23.657Z</time></trkpt><trkpt lat="38.7884417" lon="16.3607933"><ele>878.6666666666667</ele><time>2026-04-27T12:12:24.662Z</time></trkpt><trkpt lat="38.788265" lon="16.3607583"><ele>879.0</ele><time>2026-04-27T12:12:25.659Z</time></trkpt><trkpt lat="38.78809" lon="16.3607217"><ele>879.0</ele><time>2026-04-27T12:12:26.724Z</time></trkpt><trkpt lat="38.78792" lon="16.3606867"><ele>879.0</ele><time>2026-04-27T12:12:27.66Z</time></trkpt><trkpt lat="38.7877517" lon="16.360655"><ele>879.0</ele><time>2026-04-27T12:12:28.665Z</time></trkpt><trkpt lat="38.7875883" lon="16.360625"><ele>879.0</ele><time>2026-04-27T12:12:29.659Z</time></trkpt><trkpt lat="38.7874117" lon="16.3605883"><ele>879.0</ele><time>2026-04-27T12:12:30.666Z</time></trkpt><trkpt lat="38.7872317" lon="16.36054"><ele>879.0</ele><time>2026-04-27T12:12:31.662Z</time></trkpt><trkpt lat="38.7870567" lon="16.360495"><ele>880.3333333333333</ele><time>2026-04-27T12:12:32.712Z</time></trkpt><trkpt lat="38.78689" lon="16.360445"><ele>881.6666666666666</ele><time>2026-04-27T12:12:33.654Z</time></trkpt><trkpt lat="38.7867333" lon="16.3603917"><ele>883.0</ele><time>2026-04-27T12:12:34.658Z</time></trkpt><trkpt lat="38.786585" lon="16.360345"><ele>883.25</ele><time>2026-04-27T12:12:35.66Z</time></trkpt><trkpt lat="38.7864433" lon="16.3603083"><ele>883.5</ele><time>2026-04-27T12:12:36.663Z</time></trkpt><trkpt lat="38.7863033" lon="16.3602833"><ele>883.75</ele><time>2026-04-27T12:12:37.66Z</time></trkpt><trkpt lat="38.78615" lon="16.360275"><ele>884.0</ele><time>2026-04-27T12:12:38.687Z</time></trkpt><trkpt lat="38.7859883" lon="16.3602833"><ele>884.0</ele><time>2026-04-27T12:12:39.659Z</time></trkpt><trkpt lat="38.7858283" lon="16.3603017"><ele>884.0</ele><time>2026-04-27T12:12:40.668Z</time></trkpt><trkpt lat="38.790705" lon="16.3601267"><ele>882.75</ele><time>2026-04-27T12:12:06.664Z</time></trkpt><trkpt lat="38.790605" lon="16.36018"><ele>881.5</ele><time>2026-04-27T12:12:07.66Z</time></trkpt><trkpt lat="38.7904933" lon="16.360235"><ele>880.25</ele><time>2026-04-27T12:12:08.703Z</time></trkpt><trkpt lat="38.7903817" lon="16.3603"><ele>879.0</ele><time>2026-04-27T12:12:09.658Z</time></trkpt><trkpt lat="38.7902817" lon="16.3603567"><ele>879.0</ele><time>2026-04-27T12:12:10.664Z</time></trkpt><trkpt lat="38.7901817" lon="16.3604183"><ele>879.0000000000001</ele><time>2026-04-27T12:12:11.661Z</time></trkpt><trkpt lat="38.7900783" lon="16.3604667"><ele>879.0000000000001</ele><time>2026-04-27T12:12:12.666Z</time></trkpt><trkpt lat="38.7899733" lon="16.360505"><ele>879.0</ele><time>2026-04-27T12:12:13.657Z</time></trkpt><trkpt lat="38.7898617" lon="16.360545"><ele>879.0</ele><time>2026-04-27T12:12:14.688Z</time></trkpt><trkpt lat="38.789735" lon="16.3605933"><ele>878.75</ele><time>2026-04-27T12:12:15.653Z</time></trkpt><trkpt lat="38.7896" lon="16.3606433"><ele>878.5</ele><time>2026-04-27T12:12:16.66Z</time></trkpt><trkpt lat="38.7894633" lon="16.3606933"><ele>878.25</ele><time>2026-04-27T12:12:17.661Z</time></trkpt><trkpt lat="38.7893333" lon="16.3607317"><ele>878.0</ele><time>2026-04-27T12:12:18.659Z</time></trkpt><trkpt lat="38.7892033" lon="16.36077"><ele>878.0</ele><time>2026-04-27T12:12:19.661Z</time></trkpt><trkpt lat="38.7890683" lon="16.3608033"><ele>878.0</ele><time>2026-04-27T12:12:20.686Z</time></trkpt><trkpt lat="38.7889267" lon="16.3608217"><ele>878.0</ele><time>2026-04-27T12:12:21.66Z</time></trkpt><trkpt lat="38.7887733" lon="16.3608317"><ele>878.0</ele><time>2026-04-27T12:12:22.661Z</time></trkpt><trkpt lat="38.7886117" lon="16.3608233"><ele>878.3333333333334</ele><time>2026-04-27T12:12:23.657Z</time></trkpt><trkpt lat="38.7884417" lon="16.3607933"><ele>878.6666666666667</ele><time>2026-04-27T12:12:24.662Z</time></trkpt><trkpt lat="38.788265" lon="16.3607583"><ele>879.0</ele><time>2026-04-27T12:12:25.659Z</time></trkpt><trkpt lat="38.78809" lon="16.3607217"><ele>879.0</ele><time>2026-04-27T12:12:26.724Z</time></trkpt><trkpt lat="38.78792" lon="16.3606867"><ele>879.0</ele><time>2026-04-27T12:12:27.66Z</time></trkpt><trkpt lat="38.7877517" lon="16.360655"><ele>879.0</ele><time>2026-04-27T12:12:28.665Z</time></trkpt><trkpt lat="38.7875883" lon="16.360625"><ele>879.0</ele><time>2026-04-27T12:12:29.659Z</time></trkpt><trkpt lat="38.7874117" lon="16.3605883"><ele>879.0</ele><time>2026-04-27T12:12:30.666Z</time></trkpt><trkpt lat="38.7872317" lon="16.36054"><ele>879.0</ele><time>2026-04-27T12:12:31.662Z</time></trkpt><trkpt lat="38.7870567" lon="16.360495"><ele>880.3333333333333</ele><time>2026-04-27T12:12:32.712Z</time></trkpt><trkpt lat="38.78689" lon="16.360445"><ele>881.6666666666666</ele><time>2026-04-27T12:12:33.654Z</time></trkpt><trkpt lat="38.7867333" lon="16.3603917"><ele>883.0</ele><time>2026-04-27T12:12:34.658Z</time></trkpt><trkpt lat="38.786585" lon="16.360345"><ele>883.25</ele><time>2026-04-27T12:12:35.66Z</time></trkpt><trkpt lat="38.7864433" lon="16.3603083"><ele>883.5</ele><time>2026-04-27T12:12:36.663Z</time></trkpt><trkpt lat="38.7863033" lon="16.3602833"><ele>883.75</ele><time>2026-04-27T12:12:37.66Z</time></trkpt><trkpt lat="38.78615" lon="16.360275"><ele>884.0</ele><time>2026-04-27T12:12:38.687Z</time></trkpt><trkpt lat="38.7859883" lon="16.3602833"><ele>884.0</ele><time>2026-04-27T12:12:39.659Z</time></trkpt><trkpt lat="38.7858283" lon="16.3603017"><ele>884.0</ele><time>2026-04-27T12:12:40.668Z</time></trkpt><trkpt lat="38.7856767" lon="16.360315"><ele>884.0</ele><time>2026-04-27T12:12:41.663Z</time></trkpt><trkpt lat="38.78553" lon="16.3603167"><ele>884.0</ele><time>2026-04-27T12:12:42.671Z</time></trkpt><trkpt lat="38.7853783" lon="16.3603217"><ele>884.0</ele><time>2026-04-27T12:12:43.668Z</time></trkpt><trkpt lat="38.7852217" lon="16.3603167"><ele>884.0</ele><time>2026-04-27T12:12:44.687Z</time></trkpt><trkpt lat="38.7850567" lon="16.360295"><ele>883.0</ele><time>2026-04-27T12:12:45.663Z</time></trkpt><trkpt lat="38.7848867" lon="16.3602567"><ele>882.0</ele><time>2026-04-27T12:12:46.664Z</time></trkpt><trkpt lat="38.7847183" lon="16.3602067"><ele>881.0</ele><time>2026-04-27T12:12:47.661Z</time></trkpt><trkpt lat="38.7845533" lon="16.36015"><ele>881.0</ele><time>2026-04-27T12:12:48.662Z</time></trkpt><trkpt lat="38.784395" lon="16.36009"><ele>881.0</ele><time>2026-04-27T12:12:49.666Z</time></trkpt><trkpt lat="38.7842333" lon="16.360025"><ele>881.0</ele><time>2026-04-27T12:12:50.687Z</time></trkpt><trkpt lat="38.7840783" lon="16.3599433"><ele>880.0</ele><time>2026-04-27T12:12:51.659Z</time></trkpt><trkpt lat="38.783925" lon="16.3598433"><ele>879.0</ele><time>2026-04-27T12:12:52.658Z</time></trkpt><trkpt lat="38.7837817" lon="16.359735"><ele>878.0</ele><time>2026-04-27T12:12:53.661Z</time></trkpt><trkpt lat="38.783645" lon="16.3596217"><ele>877.6666666666667</ele><time>2026-04-27T12:12:54.667Z</time></trkpt><trkpt lat="38.7835167" lon="16.3595017"><ele>877.3333333333333</ele><time>2026-04-27T12:12:55.66Z</time></trkpt><trkpt lat="38.7833917" lon="16.3593667"><ele>877.0</ele><time>2026-04-27T12:12:56.725Z</time></trkpt><trkpt lat="38.78328" lon="16.35922"><ele>877.0</ele><time>2026-04-27T12:12:57.664Z</time></trkpt><trkpt lat="38.7831883" lon="16.3590533"><ele>877.0</ele><time>2026-04-27T12:12:58.669Z</time></trkpt><trkpt lat="38.7831083" lon="16.3588767"><ele>877.0</ele><time>2026-04-27T12:12:59.658Z</time></trkpt><trkpt lat="38.7830183" lon="16.3586917"><ele>878.0</ele><time>2026-04-27T12:13:00.662Z</time></trkpt><trkpt lat="38.7829283" lon="16.3585217"><ele>879.0</ele><time>2026-04-27T12:13:01.659Z</time></trkpt><trkpt lat="38.7828217" lon="16.35836"><ele>880.0</ele><time>2026-04-27T12:13:02.716Z</time></trkpt><trkpt lat="38.7826917" lon="16.358215"><ele>881.0</ele><time>2026-04-27T12:13:03.658Z</time></trkpt><trkpt lat="38.7825633" lon="16.3580717"><ele>882.0</ele><time>2026-04-27T12:13:04.663Z</time></trkpt><trkpt lat="38.7824417" lon="16.3579233"><ele>883.0</ele><time>2026-04-27T12:13:05.657Z</time></trkpt><trkpt lat="38.78232" lon="16.357775"><ele>883.3333333333333</ele><time>2026-04-27T12:13:06.664Z</time></trkpt><trkpt lat="38.7821933" lon="16.3576317"><ele>883.6666666666667</ele><time>2026-04-27T12:13:07.658Z</time></trkpt><trkpt lat="38.7820533" lon="16.3574983"><ele>884.0</ele><time>2026-04-27T12:13:08.692Z</time></trkpt><trkpt lat="38.7819033" lon="16.3573767"><ele>885.0</ele><time>2026-04-27T12:13:09.653Z</time></trkpt><trkpt lat="38.7817483" lon="16.3572633"><ele>886.0</ele><time>2026-04-27T12:13:10.66Z</time></trkpt><trkpt lat="38.7815883" lon="16.3571533"><ele>887.0</ele><time>2026-04-27T12:13:11.655Z</time></trkpt><trkpt lat="38.7814233" lon="16.3570417"><ele>887.0</ele><time>2026-04-27T12:13:12.656Z</time></trkpt><trkpt lat="38.7812467" lon="16.356935"><ele>887.0</ele><time>2026-04-27T12:13:13.657Z</time></trkpt><trkpt lat="38.7810667" lon="16.3568267"><ele>887.0</ele><time>2026-04-27T12:13:14.688Z</time></trkpt><trkpt lat="38.78088" lon="16.3567217"><ele>887.0</ele><time>2026-04-27T12:13:15.657Z</time></trkpt><trkpt lat="38.7806717" lon="16.3566167"><ele>887.0</ele><time>2026-04-27T12:13:16.667Z</time></trkpt><trkpt lat="38.7805283" lon="16.356525"><ele>887.0</ele><time>2026-04-27T12:13:17.662Z</time></trkpt><trkpt lat="38.780375" lon="16.35645"><ele>887.0</ele><time>2026-04-27T12:13:18.666Z</time></trkpt><trkpt lat="38.78023" lon="16.3563867"><ele>887.0</ele><time>2026-04-27T12:13:19.664Z</time></trkpt><trkpt lat="38.78012" lon="16.3563583"><ele>887.0</ele><time>2026-04-27T12:13:20.689Z</time></trkpt><trkpt lat="38.77999" lon="16.35634"><ele>887.0</ele><time>2026-04-27T12:13:21.662Z</time></trkpt><trkpt lat="38.7798567" lon="16.3563217"><ele>885.75</ele><time>2026-04-27T12:13:22.665Z</time></trkpt><trkpt lat="38.779725" lon="16.3563167"><ele>884.5</ele><time>2026-04-27T12:13:23.659Z</time></trkpt><trkpt lat="38.77959" lon="16.35632"><ele>883.25</ele><time>2026-04-27T12:13:24.661Z</time></trkpt><trkpt lat="38.7794467" lon="16.3563133"><ele>882.0</ele><time>2026-04-27T12:13:25.659Z</time></trkpt><trkpt lat="38.7793033" lon="16.3562867"><ele>882.0</ele><time>2026-04-27T12:13:26.723Z</time></trkpt><trkpt lat="38.7791817" lon="16.35625"><ele>882.0</ele><time>2026-04-27T12:13:27.657Z</time></trkpt><trkpt lat="38.77908" lon="16.35622"><ele>882.0</ele><time>2026-04-27T12:13:28.66Z</time></trkpt><trkpt lat="38.77897" lon="16.3561967"><ele>882.0</ele><time>2026-04-27T12:13:29.658Z</time></trkpt><trkpt lat="38.7788433" lon="16.3561733"><ele>882.0</ele><time>2026-04-27T12:13:30.662Z</time></trkpt><trkpt lat="38.77869" lon="16.356155"><ele>882.0</ele><time>2026-04-27T12:13:31.658Z</time></trkpt><trkpt lat="38.7785017" lon="16.3561467"><ele>882.0</ele><time>2026-04-27T12:13:32.713Z</time></trkpt><trkpt lat="38.7782733" lon="16.35615"><ele>883.0</ele><time>2026-04-27T12:13:33.657Z</time></trkpt><trkpt lat="38.77805" lon="16.3561483"><ele>884.0</ele><time>2026-04-27T12:13:34.668Z</time></trkpt><trkpt lat="38.777845" lon="16.35615"><ele>885.0</ele><time>2026-04-27T12:13:35.66Z</time></trkpt><trkpt lat="38.7776583" lon="16.3561583"><ele>886.0</ele><time>2026-04-27T12:13:36.662Z</time></trkpt><trkpt lat="38.7774833" lon="16.356175"><ele>887.0</ele><time>2026-04-27T12:13:37.659Z</time></trkpt><trkpt lat="38.7773183" lon="16.3561967"><ele>888.0</ele><time>2026-04-27T12:13:38.682Z</time></trkpt><trkpt lat="38.777165" lon="16.3562183"><ele>888.0</ele><time>2026-04-27T12:13:39.662Z</time></trkpt><trkpt lat="38.7770183" lon="16.35625"><ele>888.0</ele><time>2026-04-27T12:13:40.664Z</time></trkpt><trkpt lat="38.7768667" lon="16.3562817"><ele>888.0</ele><time>2026-04-27T12:13:41.66Z</time></trkpt><trkpt lat="38.776705" lon="16.35633"><ele>889.6666666666667</ele><time>2026-04-27T12:13:42.661Z</time></trkpt><trkpt lat="38.776535" lon="16.3563917"><ele>891.3333333333334</ele><time>2026-04-27T12:13:43.659Z</time></trkpt><trkpt lat="38.7763733" lon="16.3564617"><ele>893.0</ele><time>2026-04-27T12:13:44.691Z</time></trkpt><trkpt lat="38.7762167" lon="16.3565317"><ele>893.0</ele><time>2026-04-27T12:13:45.657Z</time></trkpt><trkpt lat="38.77605" lon="16.3566033"><ele>893.0</ele><time>2026-04-27T12:13:46.66Z</time></trkpt><trkpt lat="38.7758817" lon="16.3566733"><ele>893.0</ele><time>2026-04-27T12:13:47.663Z</time></trkpt><trkpt lat="38.77572" lon="16.3567583"><ele>893.6666666666667</ele><time>2026-04-27T12:13:48.663Z</time></trkpt><trkpt lat="38.77555" lon="16.3568533"><ele>894.3333333333333</ele><time>2026-04-27T12:13:49.659Z</time></trkpt><trkpt lat="38.77538" lon="16.3569567"><ele>895.0</ele><time>2026-04-27T12:13:50.686Z</time></trkpt><trkpt lat="38.7752133" lon="16.357055"><ele>895.6666666666666</ele><time>2026-04-27T12:13:51.657Z</time></trkpt><trkpt lat="38.7750683" lon="16.3571617"><ele>896.3333333333333</ele><time>2026-04-27T12:13:52.664Z</time></trkpt><trkpt lat="38.7749117" lon="16.35726"><ele>897.0</ele><time>2026-04-27T12:13:53.654Z</time></trkpt><trkpt lat="38.77477" lon="16.357365"><ele>898.3333333333333</ele><time>2026-04-27T12:13:54.666Z</time></trkpt><trkpt lat="38.77463" lon="16.357475"><ele>899.6666666666666</ele><time>2026-04-27T12:13:55.662Z</time></trkpt><trkpt lat="38.7744967" lon="16.3575933"><ele>901.0</ele><time>2026-04-27T12:13:56.723Z</time></trkpt><trkpt lat="38.7743567" lon="16.3577067"><ele>901.3333333333333</ele><time>2026-04-27T12:13:57.659Z</time></trkpt><trkpt lat="38.7742067" lon="16.3578183"><ele>901.6666666666667</ele><time>2026-04-27T12:13:58.664Z</time></trkpt><trkpt lat="38.7740617" lon="16.3579333"><ele>902.0</ele><time>2026-04-27T12:13:59.653Z</time></trkpt><trkpt lat="38.7739267" lon="16.358025"><ele>902.75</ele><time>2026-04-27T12:14:00.655Z</time></trkpt><trkpt lat="38.7738033" lon="16.35811"><ele>903.5</ele><time>2026-04-27T12:14:01.659Z</time></trkpt><trkpt lat="38.7736633" lon="16.3581767"><ele>904.25</ele><time>2026-04-27T12:14:02.73Z</time></trkpt><trkpt lat="38.77354" lon="16.3582133"><ele>905.0</ele><time>2026-04-27T12:14:03.657Z</time></trkpt><trkpt lat="38.7734117" lon="16.3582783"><ele>905.0</ele><time>2026-04-27T12:14:04.662Z</time></trkpt><trkpt lat="38.77327" lon="16.3583567"><ele>905.0</ele><time>2026-04-27T12:14:05.652Z</time></trkpt><trkpt lat="38.7731567" lon="16.3584583"><ele>905.0</ele><time>2026-04-27T12:14:06.666Z</time></trkpt><trkpt lat="38.7730567" lon="16.3585917"><ele>905.0</ele><time>2026-04-27T12:14:07.653Z</time></trkpt><trkpt lat="38.7729733" lon="16.35876"><ele>906.3333333333334</ele><time>2026-04-27T12:14:08.683Z</time></trkpt><trkpt lat="38.7728883" lon="16.358935"><ele>907.6666666666667</ele><time>2026-04-27T12:14:09.66Z</time></trkpt><trkpt lat="38.7728067" lon="16.3590983"><ele>909.0</ele><time>2026-04-27T12:14:10.659Z</time></trkpt><trkpt lat="38.7727167" lon="16.359255"><ele>910.0</ele><time>2026-04-27T12:14:11.658Z</time></trkpt><trkpt lat="38.7726167" lon="16.35939"><ele>911.0</ele><time>2026-04-27T12:14:12.661Z</time></trkpt><trkpt lat="38.77251" lon="16.3595167"><ele>912.0</ele><time>2026-04-27T12:14:13.663Z</time></trkpt><trkpt lat="38.7724033" lon="16.3596267"><ele>913.0</ele><time>2026-04-27T12:14:14.686Z</time></trkpt><trkpt lat="38.7722733" lon="16.3597117"><ele>913.0</ele><time>2026-04-27T12:14:15.656Z</time></trkpt><trkpt lat="38.7721217" lon="16.3598033"><ele>913.0</ele><time>2026-04-27T12:14:16.662Z</time></trkpt><trkpt lat="38.7719733" lon="16.3598833"><ele>913.0</ele><time>2026-04-27T12:14:17.657Z</time></trkpt><trkpt lat="38.7718317" lon="16.35996"><ele>912.0</ele><time>2026-04-27T12:14:18.661Z</time></trkpt><trkpt lat="38.7716933" lon="16.3600283"><ele>911.0</ele><time>2026-04-27T12:14:19.658Z</time></trkpt><trkpt lat="38.7715567" lon="16.360105"><ele>910.0</ele><time>2026-04-27T12:14:20.685Z</time></trkpt><trkpt lat="38.7713983" lon="16.36016"><ele>910.0</ele><time>2026-04-27T12:14:21.658Z</time></trkpt><trkpt lat="38.7712333" lon="16.36021"><ele>910.0</ele><time>2026-04-27T12:14:22.663Z</time></trkpt><trkpt lat="38.7710617" lon="16.36023"><ele>910.0</ele><time>2026-04-27T12:14:23.659Z</time></trkpt><trkpt lat="38.7708883" lon="16.3602383"><ele>910.0</ele><time>2026-04-27T12:14:24.661Z</time></trkpt><trkpt lat="38.7707017" lon="16.3602333"><ele>910.0</ele><time>2026-04-27T12:14:25.653Z</time></trkpt><trkpt lat="38.7705217" lon="16.3602283"><ele>910.0</ele><time>2026-04-27T12:14:26.719Z</time></trkpt><trkpt lat="38.7703383" lon="16.3602433"><ele>910.6666666666666</ele><time>2026-04-27T12:14:27.658Z</time></trkpt><trkpt lat="38.7701817" lon="16.36027"><ele>911.3333333333333</ele><time>2026-04-27T12:14:28.661Z</time></trkpt><trkpt lat="38.7700383" lon="16.3603233"><ele>912.0</ele><time>2026-04-27T12:14:29.658Z</time></trkpt><trkpt lat="38.7699" lon="16.3604067"><ele>912.0</ele><time>2026-04-27T12:14:30.665Z</time></trkpt><trkpt lat="38.7697683" lon="16.360495"><ele>912.0</ele><time>2026-04-27T12:14:31.659Z</time></trkpt><trkpt lat="38.76963" lon="16.3605967"><ele>912.0</ele><time>2026-04-27T12:14:32.72Z</time></trkpt><trkpt lat="38.7694883" lon="16.3607067"><ele>914.0</ele><time>2026-04-27T12:14:33.654Z</time></trkpt><trkpt lat="38.7693417" lon="16.3608217"><ele>916.0</ele><time>2026-04-27T12:14:34.653Z</time></trkpt><trkpt lat="38.76918" lon="16.3609533"><ele>918.0</ele><time>2026-04-27T12:14:35.655Z</time></trkpt><trkpt lat="38.76902" lon="16.3610717"><ele>918.0</ele><time>2026-04-27T12:14:36.66Z</time></trkpt><trkpt lat="38.76886" lon="16.36118"><ele>918.0</ele><time>2026-04-27T12:14:37.657Z</time></trkpt><trkpt lat="38.7687067" lon="16.3612883"><ele>918.0</ele><time>2026-04-27T12:14:38.688Z</time></trkpt><trkpt lat="38.7685617" lon="16.3613917"><ele>918.3333333333333</ele><time>2026-04-27T12:14:39.66Z</time></trkpt><trkpt lat="38.7684233" lon="16.361495"><ele>918.6666666666666</ele><time>2026-04-27T12:14:40.666Z</time></trkpt><trkpt lat="38.7682883" lon="16.3615917"><ele>919.0</ele><time>2026-04-27T12:14:41.655Z</time></trkpt><trkpt lat="38.7681483" lon="16.3616833"><ele>919.0</ele><time>2026-04-27T12:14:42.659Z</time></trkpt><trkpt lat="38.76801" lon="16.36177"><ele>919.0</ele><time>2026-04-27T12:14:43.655Z</time></trkpt><trkpt lat="38.76788" lon="16.3618467"><ele>919.0</ele><time>2026-04-27T12:14:44.682Z</time></trkpt><trkpt lat="38.7677433" lon="16.3619"><ele>919.0</ele><time>2026-04-27T12:14:45.654Z</time></trkpt><trkpt lat="38.7675967" lon="16.361945"><ele>917.3333333333333</ele><time>2026-04-27T12:14:46.662Z</time></trkpt><trkpt lat="38.7674467" lon="16.36199"><ele>915.6666666666667</ele><time>2026-04-27T12:14:47.66Z</time></trkpt><trkpt lat="38.76729" lon="16.362045"><ele>914.0</ele><time>2026-04-27T12:14:48.657Z</time></trkpt><trkpt lat="38.7671217" lon="16.3621017"><ele>914.0</ele><time>2026-04-27T12:14:49.658Z</time></trkpt><trkpt lat="38.766955" lon="16.36216"><ele>914.0</ele><time>2026-04-27T12:14:50.686Z</time></trkpt><trkpt lat="38.766775" lon="16.3622233"><ele>914.0</ele><time>2026-04-27T12:14:51.656Z</time></trkpt><trkpt lat="38.766595" lon="16.36228"><ele>913.0</ele><time>2026-04-27T12:14:52.664Z</time></trkpt><trkpt lat="38.7664183" lon="16.36233"><ele>912.0</ele><time>2026-04-27T12:14:53.655Z</time></trkpt><trkpt lat="38.7662517" lon="16.362365"><ele>911.0</ele><time>2026-04-27T12:14:54.661Z</time></trkpt><trkpt lat="38.76609" lon="16.3623883"><ele>910.25</ele><time>2026-04-27T12:14:55.659Z</time></trkpt><trkpt lat="38.7659367" lon="16.362405"><ele>909.5</ele><time>2026-04-27T12:14:56.72Z</time></trkpt><trkpt lat="38.7658017" lon="16.36242"><ele>908.75</ele><time>2026-04-27T12:14:57.657Z</time></trkpt><trkpt lat="38.765685" lon="16.3624117"><ele>908.0</ele><time>2026-04-27T12:14:58.662Z</time></trkpt><trkpt lat="38.7655667" lon="16.362385"><ele>908.0</ele><time>2026-04-27T12:14:59.659Z</time></trkpt><trkpt lat="38.7654417" lon="16.3623267"><ele>908.0</ele><time>2026-04-27T12:15:00.665Z</time></trkpt><trkpt lat="38.7653" lon="16.362255"><ele>908.0</ele><time>2026-04-27T12:15:01.656Z</time></trkpt><trkpt lat="38.765145" lon="16.3621783"><ele>904.3333333333334</ele><time>2026-04-27T12:15:02.721Z</time></trkpt><trkpt lat="38.764985" lon="16.36211"><ele>900.6666666666667</ele><time>2026-04-27T12:15:03.654Z</time></trkpt><trkpt lat="38.7648267" lon="16.3620517"><ele>897.0</ele><time>2026-04-27T12:15:04.655Z</time></trkpt><trkpt lat="38.7646717" lon="16.3620067"><ele>897.0</ele><time>2026-04-27T12:15:05.661Z</time></trkpt><trkpt lat="38.7645217" lon="16.3619817"><ele>897.0</ele><time>2026-04-27T12:15:06.662Z</time></trkpt><trkpt lat="38.7643717" lon="16.36197"><ele>897.0</ele><time>2026-04-27T12:15:07.66Z</time></trkpt><trkpt lat="38.7642317" lon="16.3619667"><ele>897.0</ele><time>2026-04-27T12:15:08.687Z</time></trkpt><trkpt lat="38.7641017" lon="16.3619767"><ele>897.25</ele><time>2026-04-27T12:15:09.659Z</time></trkpt><trkpt lat="38.7639783" lon="16.3619917"><ele>897.5</ele><time>2026-04-27T12:15:10.661Z</time></trkpt><trkpt lat="38.763865" lon="16.3620183"><ele>897.75</ele><time>2026-04-27T12:15:11.653Z</time></trkpt><trkpt lat="38.7637567" lon="16.3620633"><ele>898.0</ele><time>2026-04-27T12:15:12.66Z</time></trkpt><trkpt lat="38.7636567" lon="16.3621317"><ele>899.0</ele><time>2026-04-27T12:15:13.655Z</time></trkpt><trkpt lat="38.763555" lon="16.3622333"><ele>900.0</ele><time>2026-04-27T12:15:14.675Z</time></trkpt><trkpt lat="38.7634533" lon="16.3623533"><ele>901.0</ele><time>2026-04-27T12:15:15.659Z</time></trkpt><trkpt lat="38.7633583" lon="16.362475"><ele>902.0</ele><time>2026-04-27T12:15:16.663Z</time></trkpt><trkpt lat="38.76327" lon="16.3626217"><ele>898.3333333333334</ele><time>2026-04-27T12:15:17.658Z</time></trkpt><trkpt lat="38.7631883" lon="16.36279"><ele>894.6666666666667</ele><time>2026-04-27T12:15:18.664Z</time></trkpt><trkpt lat="38.76311" lon="16.362955"><ele>891.0</ele><time>2026-04-27T12:15:19.656Z</time></trkpt><trkpt lat="38.7630133" lon="16.3631"><ele>890.0</ele><time>2026-04-27T12:15:20.682Z</time></trkpt><trkpt lat="38.7629417" lon="16.36322"><ele>889.0</ele><time>2026-04-27T12:15:21.655Z</time></trkpt><trkpt lat="38.762865" lon="16.3633433"><ele>888.0</ele><time>2026-04-27T12:15:22.664Z</time></trkpt><trkpt lat="38.7627667" lon="16.3634583"><ele>887.0</ele><time>2026-04-27T12:15:23.655Z</time></trkpt><trkpt lat="38.7626433" lon="16.3636033"><ele>883.3333333333334</ele><time>2026-04-27T12:15:24.669Z</time></trkpt><trkpt lat="38.7625233" lon="16.3637583"><ele>879.6666666666667</ele><time>2026-04-27T12:15:25.66Z</time></trkpt><trkpt lat="38.76239" lon="16.3639033"><ele>876.0</ele><time>2026-04-27T12:15:26.718Z</time></trkpt><trkpt lat="38.76226" lon="16.3640267"><ele>875.75</ele><time>2026-04-27T12:15:27.66Z</time></trkpt><trkpt lat="38.762135" lon="16.3641367"><ele>875.5</ele><time>2026-04-27T12:15:28.66Z</time></trkpt><trkpt lat="38.76201" lon="16.36422"><ele>875.25</ele><time>2026-04-27T12:15:29.656Z</time></trkpt><trkpt lat="38.7618917" lon="16.364285"><ele>875.0</ele><time>2026-04-27T12:15:30.667Z</time></trkpt><trkpt lat="38.7617917" lon="16.3643367"><ele>874.6666666666667</ele><time>2026-04-27T12:15:31.657Z</time></trkpt><trkpt lat="38.7617183" lon="16.3643667"><ele>874.3333333333334</ele><time>2026-04-27T12:15:32.722Z</time></trkpt><trkpt lat="38.7616567" lon="16.3643867"><ele>874.0</ele><time>2026-04-27T12:15:33.656Z</time></trkpt><trkpt lat="38.7615433" lon="16.3644067"><ele>873.6666666666667</ele><time>2026-04-27T12:15:35.66Z</time></trkpt><trkpt lat="38.7614767" lon="16.3643917"><ele>873.3333333333334</ele><time>2026-04-27T12:15:36.662Z</time></trkpt><trkpt lat="38.761405" lon="16.364355"><ele>873.0</ele><time>2026-04-27T12:15:37.655Z</time></trkpt><trkpt lat="38.7613267" lon="16.3642917"><ele>873.0</ele><time>2026-04-27T12:15:38.684Z</time></trkpt><trkpt lat="38.7612433" lon="16.3642083"><ele>873.0</ele><time>2026-04-27T12:15:39.664Z</time></trkpt><trkpt lat="38.7611483" lon="16.3641067"><ele>873.0</ele><time>2026-04-27T12:15:40.659Z</time></trkpt><trkpt lat="38.7610433" lon="16.36398"><ele>873.0</ele><time>2026-04-27T12:15:41.662Z</time></trkpt><trkpt lat="38.7609333" lon="16.3638317"><ele>874.6666666666667</ele><time>2026-04-27T12:15:42.661Z</time></trkpt><trkpt lat="38.760825" lon="16.36367"><ele>876.3333333333334</ele><time>2026-04-27T12:15:43.656Z</time></trkpt><trkpt lat="38.76072" lon="16.3635133"><ele>878.0</ele><time>2026-04-27T12:15:44.684Z</time></trkpt><trkpt lat="38.7606233" lon="16.3633783"><ele>878.0</ele><time>2026-04-27T12:15:45.657Z</time></trkpt><trkpt lat="38.7605267" lon="16.3632683"><ele>878.0</ele><time>2026-04-27T12:15:46.655Z</time></trkpt><trkpt lat="38.760415" lon="16.363185"><ele>878.0</ele><time>2026-04-27T12:15:47.653Z</time></trkpt><trkpt lat="38.7602867" lon="16.3631117"><ele>878.0</ele><time>2026-04-27T12:15:48.661Z</time></trkpt><trkpt lat="38.7601517" lon="16.363055"><ele>878.6666666666667</ele><time>2026-04-27T12:15:49.656Z</time></trkpt><trkpt lat="38.7600067" lon="16.3630183"><ele>879.3333333333333</ele><time>2026-04-27T12:15:50.676Z</time></trkpt><trkpt lat="38.7598583" lon="16.3629817"><ele>880.0</ele><time>2026-04-27T12:15:51.657Z</time></trkpt><trkpt lat="38.7597" lon="16.3629483"><ele>880.0</ele><time>2026-04-27T12:15:52.658Z</time></trkpt><trkpt lat="38.7595417" lon="16.362895"><ele>880.0</ele><time>2026-04-27T12:15:53.657Z</time></trkpt><trkpt lat="38.7594083" lon="16.362835"><ele>880.0</ele><time>2026-04-27T12:15:54.663Z</time></trkpt><trkpt lat="38.7592367" lon="16.3627833"><ele>882.6</ele><time>2026-04-27T12:15:55.663Z</time></trkpt><trkpt lat="38.7591117" lon="16.3627167"><ele>885.2</ele><time>2026-04-27T12:15:56.716Z</time></trkpt><trkpt lat="38.7589967" lon="16.3626633"><ele>887.8</ele><time>2026-04-27T12:15:57.653Z</time></trkpt><trkpt lat="38.7589067" lon="16.362595"><ele>890.4</ele><time>2026-04-27T12:15:58.664Z</time></trkpt><trkpt lat="38.758845" lon="16.36253"><ele>893.0</ele><time>2026-04-27T12:15:59.662Z</time></trkpt><trkpt lat="38.758805" lon="16.3624467"><ele>893.0</ele><time>2026-04-27T12:16:00.658Z</time></trkpt><trkpt lat="38.7588117" lon="16.3623517"><ele>893.0</ele><time>2026-04-27T12:16:01.662Z</time></trkpt><trkpt lat="38.7587483" lon="16.362255"><ele>893.0</ele><time>2026-04-27T12:16:02.717Z</time></trkpt><trkpt lat="38.758705" lon="16.3621683"><ele>893.0</ele><time>2026-04-27T12:16:03.654Z</time></trkpt><trkpt lat="38.75861" lon="16.3620817"><ele>893.0</ele><time>2026-04-27T12:16:04.665Z</time></trkpt><trkpt lat="38.75851" lon="16.3620017"><ele>893.6666666666667</ele><time>2026-04-27T12:16:05.663Z</time></trkpt><trkpt lat="38.7583683" lon="16.3619267"><ele>894.3333333333333</ele><time>2026-04-27T12:16:06.657Z</time></trkpt><trkpt lat="38.758175" lon="16.36182"><ele>895.0</ele><time>2026-04-27T12:16:07.662Z</time></trkpt><trkpt lat="38.7579767" lon="16.3617133"><ele>895.0</ele><time>2026-04-27T12:16:08.689Z</time></trkpt><trkpt lat="38.7578167" lon="16.361615"><ele>895.0</ele><time>2026-04-27T12:16:09.661Z</time></trkpt><trkpt lat="38.7576617" lon="16.36151"><ele>895.0</ele><time>2026-04-27T12:16:10.663Z</time></trkpt><trkpt lat="38.7575033" lon="16.361405"><ele>892.6666666666666</ele><time>2026-04-27T12:16:11.66Z</time></trkpt><trkpt lat="38.7573567" lon="16.361295"><ele>890.3333333333333</ele><time>2026-04-27T12:16:12.662Z</time></trkpt><trkpt lat="38.7572067" lon="16.3611983"><ele>888.0</ele><time>2026-04-27T12:16:13.658Z</time></trkpt><trkpt lat="38.7571083" lon="16.3610917"><ele>888.0</ele><time>2026-04-27T12:16:14.683Z</time></trkpt><trkpt lat="38.756995" lon="16.3609733"><ele>888.0</ele><time>2026-04-27T12:16:15.659Z</time></trkpt><trkpt lat="38.7568733" lon="16.36086"><ele>888.0</ele><time>2026-04-27T12:16:16.658Z</time></trkpt><trkpt lat="38.7567367" lon="16.3607133"><ele>889.3333333333333</ele><time>2026-04-27T12:16:17.662Z</time></trkpt><trkpt lat="38.7566233" lon="16.360585"><ele>890.6666666666666</ele><time>2026-04-27T12:16:18.663Z</time></trkpt><trkpt lat="38.7564967" lon="16.3604517"><ele>892.0</ele><time>2026-04-27T12:16:19.657Z</time></trkpt><trkpt lat="38.7563783" lon="16.36033"><ele>892.0</ele><time>2026-04-27T12:16:20.683Z</time></trkpt><trkpt lat="38.75627" lon="16.3602217"><ele>892.0</ele><time>2026-04-27T12:16:21.665Z</time></trkpt><trkpt lat="38.7561667" lon="16.3601283"><ele>892.0</ele><time>2026-04-27T12:16:22.667Z</time></trkpt><trkpt lat="38.7560617" lon="16.3600633"><ele>892.0</ele><time>2026-04-27T12:16:23.656Z</time></trkpt><trkpt lat="38.7559717" lon="16.3600417"><ele>894.4000000000001</ele><time>2026-04-27T12:16:24.662Z</time></trkpt><trkpt lat="38.7558883" lon="16.3600733"><ele>896.8000000000001</ele><time>2026-04-27T12:16:25.661Z</time></trkpt><trkpt lat="38.7558133" lon="16.3601283"><ele>899.2</ele><time>2026-04-27T12:16:26.715Z</time></trkpt><trkpt lat="38.7557617" lon="16.3602533"><ele>901.6</ele><time>2026-04-27T12:16:27.658Z</time></trkpt><trkpt lat="38.75572" lon="16.3603833"><ele>904.0</ele><time>2026-04-27T12:16:28.661Z</time></trkpt><trkpt lat="38.7556683" lon="16.3605383"><ele>907.3333333333333</ele><time>2026-04-27T12:16:29.678Z</time></trkpt><trkpt lat="38.7556467" lon="16.3607217"><ele>910.6666666666667</ele><time>2026-04-27T12:16:30.659Z</time></trkpt><trkpt lat="38.7556167" lon="16.360915"><ele>914.0</ele><time>2026-04-27T12:16:31.659Z</time></trkpt><trkpt lat="38.7556267" lon="16.361135"><ele>914.0</ele><time>2026-04-27T12:16:32.719Z</time></trkpt><trkpt lat="38.7556667" lon="16.3613467"><ele>914.0</ele><time>2026-04-27T12:16:33.663Z</time></trkpt><trkpt lat="38.7557117" lon="16.361545"><ele>914.0</ele><time>2026-04-27T12:16:34.658Z</time></trkpt><trkpt lat="38.7557717" lon="16.36171"><ele>914.75</ele><time>2026-04-27T12:16:35.66Z</time></trkpt><trkpt lat="38.755785" lon="16.3618617"><ele>915.5</ele><time>2026-04-27T12:16:36.659Z</time></trkpt><trkpt lat="38.7558083" lon="16.36201"><ele>916.25</ele><time>2026-04-27T12:16:37.666Z</time></trkpt><trkpt lat="38.7558117" lon="16.36216"><ele>917.0</ele><time>2026-04-27T12:16:38.681Z</time></trkpt><trkpt lat="38.7558617" lon="16.36231"><ele>918.5</ele><time>2026-04-27T12:16:39.659Z</time></trkpt><trkpt lat="38.7559233" lon="16.3624767"><ele>920.0</ele><time>2026-04-27T12:16:40.662Z</time></trkpt><trkpt lat="38.7559833" lon="16.362655"><ele>921.5</ele><time>2026-04-27T12:16:41.659Z</time></trkpt><trkpt lat="38.7560283" lon="16.36284"><ele>923.0</ele><time>2026-04-27T12:16:42.668Z</time></trkpt><trkpt lat="38.7561" lon="16.3630567"><ele>927.6666666666667</ele><time>2026-04-27T12:16:43.658Z</time></trkpt><trkpt lat="38.7561367" lon="16.3632717"><ele>932.3333333333333</ele><time>2026-04-27T12:16:44.683Z</time></trkpt><trkpt lat="38.7561583" lon="16.3634933"><ele>937.0</ele><time>2026-04-27T12:16:45.659Z</time></trkpt><trkpt lat="38.7561683" lon="16.3637233"><ele>939.6666666666666</ele><time>2026-04-27T12:16:46.662Z</time></trkpt><trkpt lat="38.756185" lon="16.3639267"><ele>942.3333333333333</ele><time>2026-04-27T12:16:47.662Z</time></trkpt><trkpt lat="38.75618" lon="16.364145"><ele>945.0</ele><time>2026-04-27T12:16:48.665Z</time></trkpt><trkpt lat="38.75617" lon="16.3643533"><ele>945.0</ele><time>2026-04-27T12:16:49.659Z</time></trkpt><trkpt lat="38.7561117" lon="16.36453"><ele>945.0</ele><time>2026-04-27T12:16:50.68Z</time></trkpt><trkpt lat="38.7560617" lon="16.3647167"><ele>945.0</ele><time>2026-04-27T12:16:51.662Z</time></trkpt><trkpt lat="38.75602" lon="16.3648967"><ele>949.0</ele><time>2026-04-27T12:16:52.663Z</time></trkpt><trkpt lat="38.7559883" lon="16.3650667"><ele>953.0</ele><time>2026-04-27T12:16:53.667Z</time></trkpt><trkpt lat="38.755965" lon="16.36523"><ele>957.0</ele><time>2026-04-27T12:16:54.667Z</time></trkpt><trkpt lat="38.755965" lon="16.3654"><ele>961.0</ele><time>2026-04-27T12:16:55.658Z</time></trkpt><trkpt lat="38.7559683" lon="16.3655733"><ele>963.0</ele><time>2026-04-27T12:16:56.714Z</time></trkpt><trkpt lat="38.75597" lon="16.3657333"><ele>965.0</ele><time>2026-04-27T12:16:57.666Z</time></trkpt><trkpt lat="38.75595" lon="16.3658967"><ele>967.0</ele><time>2026-04-27T12:16:58.656Z</time></trkpt><trkpt lat="38.7559083" lon="16.3660833"><ele>969.0</ele><time>2026-04-27T12:16:59.655Z</time></trkpt><trkpt lat="38.7558733" lon="16.3662467"><ele>974.3333333333333</ele><time>2026-04-27T12:17:00.663Z</time></trkpt><trkpt lat="38.75582" lon="16.366415"><ele>979.6666666666666</ele><time>2026-04-27T12:17:01.661Z</time></trkpt><trkpt lat="38.75573" lon="16.36657"><ele>985.0</ele><time>2026-04-27T12:17:02.72Z</time></trkpt><trkpt lat="38.7556" lon="16.3667383"><ele>985.0</ele><time>2026-04-27T12:17:03.66Z</time></trkpt><trkpt lat="38.7554567" lon="16.3669033"><ele>985.0</ele><time>2026-04-27T12:17:04.663Z</time></trkpt><trkpt lat="38.7553233" lon="16.3670583"><ele>985.0</ele><time>2026-04-27T12:17:05.656Z</time></trkpt><trkpt lat="38.75519" lon="16.3671983"><ele>986.6666666666666</ele><time>2026-04-27T12:17:06.667Z</time></trkpt><trkpt lat="38.7550383" lon="16.3673383"><ele>988.3333333333333</ele><time>2026-04-27T12:17:07.664Z</time></trkpt><trkpt lat="38.754895" lon="16.3674717"><ele>990.0</ele><time>2026-04-27T12:17:08.687Z</time></trkpt><trkpt lat="38.7547667" lon="16.3675983"><ele>990.0</ele><time>2026-04-27T12:17:09.655Z</time></trkpt><trkpt lat="38.7546417" lon="16.3677233"><ele>990.0</ele><time>2026-04-27T12:17:10.657Z</time></trkpt><trkpt lat="38.7545183" lon="16.3678583"><ele>990.0</ele><time>2026-04-27T12:17:11.662Z</time></trkpt><trkpt lat="38.7544" lon="16.3679867"><ele>989.3333333333333</ele><time>2026-04-27T12:17:12.656Z</time></trkpt><trkpt lat="38.7542717" lon="16.3681133"><ele>988.6666666666666</ele><time>2026-04-27T12:17:13.654Z</time></trkpt><trkpt lat="38.7541367" lon="16.3682383"><ele>988.0</ele><time>2026-04-27T12:17:14.682Z</time></trkpt><trkpt lat="38.7540033" lon="16.368345"><ele>988.0</ele><time>2026-04-27T12:17:15.659Z</time></trkpt><trkpt lat="38.753855" lon="16.36843"><ele>988.0</ele><time>2026-04-27T12:17:16.662Z</time></trkpt><trkpt lat="38.7536967" lon="16.3685117"><ele>988.0</ele><time>2026-04-27T12:17:17.658Z</time></trkpt><trkpt lat="38.7535383" lon="16.3685983"><ele>985.6666666666666</ele><time>2026-04-27T12:17:18.665Z</time></trkpt><trkpt lat="38.7533883" lon="16.368675"><ele>983.3333333333333</ele><time>2026-04-27T12:17:19.664Z</time></trkpt><trkpt lat="38.7532333" lon="16.3687367"><ele>981.0</ele><time>2026-04-27T12:17:20.693Z</time></trkpt><trkpt lat="38.7530733" lon="16.3687867"><ele>981.0</ele><time>2026-04-27T12:17:21.659Z</time></trkpt><trkpt lat="38.752915" lon="16.3688367"><ele>981.0</ele><time>2026-04-27T12:17:22.667Z</time></trkpt><trkpt lat="38.752755" lon="16.3688783"><ele>981.0</ele><time>2026-04-27T12:17:23.668Z</time></trkpt><trkpt lat="38.75259" lon="16.3688917"><ele>983.6666666666667</ele><time>2026-04-27T12:17:24.665Z</time></trkpt><trkpt lat="38.7524283" lon="16.3688583"><ele>986.3333333333334</ele><time>2026-04-27T12:17:25.658Z</time></trkpt><trkpt lat="38.7522533" lon="16.3687817"><ele>989.0</ele><time>2026-04-27T12:17:26.724Z</time></trkpt><trkpt lat="38.7520983" lon="16.3686667"><ele>989.0</ele><time>2026-04-27T12:17:27.658Z</time></trkpt><trkpt lat="38.7519517" lon="16.368505"><ele>989.0</ele><time>2026-04-27T12:17:28.658Z</time></trkpt><trkpt lat="38.7518417" lon="16.3683633"><ele>989.0</ele><time>2026-04-27T12:17:29.653Z</time></trkpt><trkpt lat="38.7517433" lon="16.3682417"><ele>991.75</ele><time>2026-04-27T12:17:30.657Z</time></trkpt><trkpt lat="38.7516567" lon="16.3681117"><ele>994.5</ele><time>2026-04-27T12:17:31.66Z</time></trkpt><trkpt lat="38.7515833" lon="16.3679917"><ele>997.25</ele><time>2026-04-27T12:17:32.71Z</time></trkpt><trkpt lat="38.751525" lon="16.3677917"><ele>1000.0</ele><time>2026-04-27T12:17:33.652Z</time></trkpt><trkpt lat="38.75145" lon="16.3677"><ele>999.9999999999999</ele><time>2026-04-27T12:17:34.658Z</time></trkpt><trkpt lat="38.7513967" lon="16.3676267"><ele>1000.0</ele><time>2026-04-27T12:17:35.652Z</time></trkpt><trkpt lat="38.7513367" lon="16.367565"><ele>1000.0</ele><time>2026-04-27T12:17:36.662Z</time></trkpt><trkpt lat="38.7512533" lon="16.3675533"><ele>1000.0</ele><time>2026-04-27T12:17:37.657Z</time></trkpt><trkpt lat="38.7511767" lon="16.36759"><ele>999.9999999999999</ele><time>2026-04-27T12:17:38.688Z</time></trkpt><trkpt lat="38.751095" lon="16.367655"><ele>1000.0</ele><time>2026-04-27T12:17:39.656Z</time></trkpt><trkpt lat="38.7509783" lon="16.3677517"><ele>1002.0</ele><time>2026-04-27T12:17:40.656Z</time></trkpt><trkpt lat="38.7508517" lon="16.367835"><ele>1004.0</ele><time>2026-04-27T12:17:41.656Z</time></trkpt><trkpt lat="38.75073" lon="16.3679033"><ele>1006.0</ele><time>2026-04-27T12:17:42.654Z</time></trkpt><trkpt lat="38.7506117" lon="16.36796"><ele>1008.0</ele><time>2026-04-27T12:17:43.662Z</time></trkpt><trkpt lat="38.750475" lon="16.3680033"><ele>1010.3333333333333</ele><time>2026-04-27T12:17:44.687Z</time></trkpt><trkpt lat="38.75032" lon="16.3680283"><ele>1012.6666666666666</ele><time>2026-04-27T12:17:45.659Z</time></trkpt><trkpt lat="38.7501767" lon="16.3680033"><ele>1015.0</ele><time>2026-04-27T12:17:46.662Z</time></trkpt><trkpt lat="38.7500433" lon="16.36791"><ele>1016.3333333333333</ele><time>2026-04-27T12:17:47.661Z</time></trkpt><trkpt lat="38.749895" lon="16.36779"><ele>1017.6666666666667</ele><time>2026-04-27T12:17:48.666Z</time></trkpt><trkpt lat="38.749735" lon="16.3676867"><ele>1019.0</ele><time>2026-04-27T12:17:49.66Z</time></trkpt><trkpt lat="38.74957" lon="16.3675683"><ele>1019.0</ele><time>2026-04-27T12:17:50.692Z</time></trkpt><trkpt lat="38.749415" lon="16.36746"><ele>1019.0</ele><time>2026-04-27T12:17:51.654Z</time></trkpt><trkpt lat="38.7493" lon="16.3673567"><ele>1019.0</ele><time>2026-04-27T12:17:52.664Z</time></trkpt><trkpt lat="38.749185" lon="16.3672783"><ele>1019.0</ele><time>2026-04-27T12:17:53.659Z</time></trkpt><trkpt lat="38.749065" lon="16.367235"><ele>1019.8000000000001</ele><time>2026-04-27T12:17:54.66Z</time></trkpt><trkpt lat="38.7489617" lon="16.3672183"><ele>1020.6000000000001</ele><time>2026-04-27T12:17:55.663Z</time></trkpt><trkpt lat="38.7488733" lon="16.3672833"><ele>1021.4</ele><time>2026-04-27T12:17:56.713Z</time></trkpt><trkpt lat="38.7488067" lon="16.36734"><ele>1022.2</ele><time>2026-04-27T12:17:57.655Z</time></trkpt><trkpt lat="38.7487183" lon="16.36741"><ele>1023.0</ele><time>2026-04-27T12:17:58.66Z</time></trkpt><trkpt lat="38.7486167" lon="16.3675017"><ele>1020.0</ele><time>2026-04-27T12:17:59.654Z</time></trkpt><trkpt lat="38.7485133" lon="16.3675867"><ele>1017.0</ele><time>2026-04-27T12:18:00.656Z</time></trkpt><trkpt lat="38.74841" lon="16.3676833"><ele>1014.0</ele><time>2026-04-27T12:18:01.659Z</time></trkpt><trkpt lat="38.748315" lon="16.3677867"><ele>1011.0</ele><time>2026-04-27T12:18:02.715Z</time></trkpt><trkpt lat="38.7482217" lon="16.3678917"><ele>1011.0</ele><time>2026-04-27T12:18:03.66Z</time></trkpt><trkpt lat="38.74812" lon="16.3679933"><ele>1011.0</ele><time>2026-04-27T12:18:04.662Z</time></trkpt><trkpt lat="38.7480233" lon="16.3681067"><ele>1011.0</ele><time>2026-04-27T12:18:05.661Z</time></trkpt><trkpt lat="38.74795" lon="16.368205"><ele>1011.0</ele><time>2026-04-27T12:18:06.665Z</time></trkpt><trkpt lat="38.7478733" lon="16.3683117"><ele>1012.5</ele><time>2026-04-27T12:18:07.661Z</time></trkpt><trkpt lat="38.7477967" lon="16.3684533"><ele>1014.0</ele><time>2026-04-27T12:18:08.684Z</time></trkpt><trkpt lat="38.7477017" lon="16.368595"><ele>1015.5</ele><time>2026-04-27T12:18:09.655Z</time></trkpt><trkpt lat="38.7476333" lon="16.3687567"><ele>1017.0</ele><time>2026-04-27T12:18:10.664Z</time></trkpt><trkpt lat="38.74758" lon="16.3688867"><ele>1009.5</ele><time>2026-04-27T12:18:11.654Z</time></trkpt><trkpt lat="38.747525" lon="16.3690267"><ele>1002.0</ele><time>2026-04-27T12:18:12.656Z</time></trkpt><trkpt lat="38.747515" lon="16.3692133"><ele>994.5</ele><time>2026-04-27T12:18:13.65Z</time></trkpt><trkpt lat="38.7474633" lon="16.3693867"><ele>987.0</ele><time>2026-04-27T12:18:14.685Z</time></trkpt><trkpt lat="38.7474233" lon="16.3695433"><ele>987.0</ele><time>2026-04-27T12:18:15.656Z</time></trkpt><trkpt lat="38.7473167" lon="16.3696683"><ele>987.0</ele><time>2026-04-27T12:18:16.662Z</time></trkpt><trkpt lat="38.747165" lon="16.3697433"><ele>987.0</ele><time>2026-04-27T12:18:17.658Z</time></trkpt><trkpt lat="38.74706" lon="16.3698117"><ele>987.0</ele><time>2026-04-27T12:18:18.664Z</time></trkpt><trkpt lat="38.7469083" lon="16.3698383"><ele>981.3333333333333</ele><time>2026-04-27T12:18:19.664Z</time></trkpt><trkpt lat="38.7467533" lon="16.3698533"><ele>975.6666666666666</ele><time>2026-04-27T12:18:20.689Z</time></trkpt><trkpt lat="38.7465967" lon="16.36985"><ele>970.0</ele><time>2026-04-27T12:18:21.655Z</time></trkpt><trkpt lat="38.7464417" lon="16.3698533"><ele>970.0</ele><time>2026-04-27T12:18:22.66Z</time></trkpt><trkpt lat="38.74628" lon="16.369865"><ele>970.0</ele><time>2026-04-27T12:18:23.657Z</time></trkpt><trkpt lat="38.74611" lon="16.3698683"><ele>970.0</ele><time>2026-04-27T12:18:24.66Z</time></trkpt><trkpt lat="38.7459483" lon="16.3698933"><ele>969.0</ele><time>2026-04-27T12:18:25.652Z</time></trkpt><trkpt lat="38.7458" lon="16.3699133"><ele>968.0</ele><time>2026-04-27T12:18:26.718Z</time></trkpt><trkpt lat="38.7456317" lon="16.3699317"><ele>967.0</ele><time>2026-04-27T12:18:27.658Z</time></trkpt><trkpt lat="38.7454683" lon="16.3699417"><ele>967.0</ele><time>2026-04-27T12:18:28.655Z</time></trkpt><trkpt lat="38.745315" lon="16.3699483"><ele>967.0</ele><time>2026-04-27T12:18:29.661Z</time></trkpt><trkpt lat="38.7451267" lon="16.3699467"><ele>967.0</ele><time>2026-04-27T12:18:30.66Z</time></trkpt><trkpt lat="38.74498" lon="16.3699433"><ele>967.25</ele><time>2026-04-27T12:18:31.658Z</time></trkpt><trkpt lat="38.744835" lon="16.369955"><ele>967.5</ele><time>2026-04-27T12:18:32.714Z</time></trkpt><trkpt lat="38.74469" lon="16.3699783"><ele>967.75</ele><time>2026-04-27T12:18:33.655Z</time></trkpt><trkpt lat="38.7445417" lon="16.3700117"><ele>968.0</ele><time>2026-04-27T12:18:34.653Z</time></trkpt><trkpt lat="38.74438" lon="16.3700633"><ele>967.3333333333334</ele><time>2026-04-27T12:18:35.664Z</time></trkpt><trkpt lat="38.7442183" lon="16.3701317"><ele>966.6666666666667</ele><time>2026-04-27T12:18:36.658Z</time></trkpt><trkpt lat="38.744065" lon="16.3702217"><ele>966.0</ele><time>2026-04-27T12:18:37.659Z</time></trkpt><trkpt lat="38.74392" lon="16.3703283"><ele>966.0</ele><time>2026-04-27T12:18:38.683Z</time></trkpt><trkpt lat="38.7437817" lon="16.37042"><ele>966.0</ele><time>2026-04-27T12:18:39.653Z</time></trkpt><trkpt lat="38.74364" lon="16.3705"><ele>966.0</ele><time>2026-04-27T12:18:40.659Z</time></trkpt><trkpt lat="38.743505" lon="16.3705567"><ele>967.0</ele><time>2026-04-27T12:18:41.656Z</time></trkpt><trkpt lat="38.7433533" lon="16.370595"><ele>968.0</ele><time>2026-04-27T12:18:42.652Z</time></trkpt><trkpt lat="38.743215" lon="16.3706117"><ele>969.0</ele><time>2026-04-27T12:18:43.66Z</time></trkpt><trkpt lat="38.7431217" lon="16.3705933"><ele>970.0</ele><time>2026-04-27T12:18:44.681Z</time></trkpt><trkpt lat="38.7430167" lon="16.37057"><ele>970.0</ele><time>2026-04-27T12:18:45.658Z</time></trkpt><trkpt lat="38.742925" lon="16.3705367"><ele>970.0</ele><time>2026-04-27T12:18:46.662Z</time></trkpt><trkpt lat="38.74281" lon="16.3705083"><ele>970.0</ele><time>2026-04-27T12:18:47.658Z</time></trkpt><trkpt lat="38.742675" lon="16.37049"><ele>970.0</ele><time>2026-04-27T12:18:48.663Z</time></trkpt><trkpt lat="38.742545" lon="16.37048"><ele>966.0</ele><time>2026-04-27T12:18:49.659Z</time></trkpt><trkpt lat="38.7424183" lon="16.3704733"><ele>962.0</ele><time>2026-04-27T12:18:50.679Z</time></trkpt><trkpt lat="38.74229" lon="16.3704517"><ele>958.0</ele><time>2026-04-27T12:18:51.655Z</time></trkpt><trkpt lat="38.7421683" lon="16.3704167"><ele>954.0</ele><time>2026-04-27T12:18:52.66Z</time></trkpt><trkpt lat="38.7420367" lon="16.3703633"><ele>954.0</ele><time>2026-04-27T12:18:53.66Z</time></trkpt><trkpt lat="38.7418983" lon="16.370295"><ele>954.0</ele><time>2026-04-27T12:18:54.656Z</time></trkpt><trkpt lat="38.7417733" lon="16.37022"><ele>954.0</ele><time>2026-04-27T12:18:55.662Z</time></trkpt><trkpt lat="38.7416667" lon="16.3701317"><ele>954.0</ele><time>2026-04-27T12:18:56.713Z</time></trkpt><trkpt lat="38.7415667" lon="16.3700217"><ele>954.0</ele><time>2026-04-27T12:18:57.655Z</time></trkpt><trkpt lat="38.7414783" lon="16.3699033"><ele>954.0</ele><time>2026-04-27T12:18:58.66Z</time></trkpt><trkpt lat="38.741395" lon="16.3697217"><ele>954.0</ele><time>2026-04-27T12:18:59.659Z</time></trkpt><trkpt lat="38.7413233" lon="16.3695433"><ele>954.0</ele><time>2026-04-27T12:19:00.664Z</time></trkpt><trkpt lat="38.7412417" lon="16.3693733"><ele>952.3333333333333</ele><time>2026-04-27T12:19:01.658Z</time></trkpt><trkpt lat="38.74116" lon="16.3692117"><ele>950.6666666666666</ele><time>2026-04-27T12:19:02.713Z</time></trkpt><trkpt lat="38.7410717" lon="16.36906"><ele>949.0</ele><time>2026-04-27T12:19:03.659Z</time></trkpt><trkpt lat="38.7409567" lon="16.3689283"><ele>954.0</ele><time>2026-04-27T12:19:04.657Z</time></trkpt><trkpt lat="38.7408367" lon="16.3687867"><ele>959.0</ele><time>2026-04-27T12:19:05.659Z</time></trkpt><trkpt lat="38.740715" lon="16.368645"><ele>964.0</ele><time>2026-04-27T12:19:06.661Z</time></trkpt><trkpt lat="38.7406183" lon="16.3684767"><ele>964.0</ele><time>2026-04-27T12:19:07.659Z</time></trkpt><trkpt lat="38.7405233" lon="16.3682983"><ele>964.0</ele><time>2026-04-27T12:19:08.686Z</time></trkpt><trkpt lat="38.740425" lon="16.36811"><ele>964.0</ele><time>2026-04-27T12:19:09.654Z</time></trkpt><trkpt lat="38.74031" lon="16.3679183"><ele>966.0</ele><time>2026-04-27T12:19:10.661Z</time></trkpt><trkpt lat="38.7401933" lon="16.3677317"><ele>968.0</ele><time>2026-04-27T12:19:11.656Z</time></trkpt><trkpt lat="38.7400867" lon="16.3675467"><ele>970.0</ele><time>2026-04-27T12:19:12.668Z</time></trkpt><trkpt lat="38.739985" lon="16.3673517"><ele>970.0</ele><time>2026-04-27T12:19:13.658Z</time></trkpt><trkpt lat="38.739895" lon="16.367195"><ele>970.0</ele><time>2026-04-27T12:19:14.675Z</time></trkpt><trkpt lat="38.73981" lon="16.3670583"><ele>970.0</ele><time>2026-04-27T12:19:15.658Z</time></trkpt><trkpt lat="38.73973" lon="16.3669767"><ele>970.0</ele><time>2026-04-27T12:19:16.662Z</time></trkpt><trkpt lat="38.739625" lon="16.3669033"><ele>968.8</ele><time>2026-04-27T12:19:17.656Z</time></trkpt><trkpt lat="38.7395133" lon="16.3668417"><ele>967.6</ele><time>2026-04-27T12:19:18.661Z</time></trkpt><trkpt lat="38.739415" lon="16.36679"><ele>966.4000000000001</ele><time>2026-04-27T12:19:19.654Z</time></trkpt><trkpt lat="38.739335" lon="16.366745"><ele>965.2</ele><time>2026-04-27T12:19:20.678Z</time></trkpt><trkpt lat="38.73927" lon="16.3666983"><ele>964.0</ele><time>2026-04-27T12:19:22.663Z</time></trkpt><trkpt lat="38.7391967" lon="16.3666433"><ele>963.4000000000001</ele><time>2026-04-27T12:19:25.652Z</time></trkpt><trkpt lat="38.739135" lon="16.366625"><ele>962.8000000000001</ele><time>2026-04-27T12:19:26.717Z</time></trkpt><trkpt lat="38.7390517" lon="16.3665883"><ele>962.1999999999999</ele><time>2026-04-27T12:19:27.656Z</time></trkpt><trkpt lat="38.7389467" lon="16.36653"><ele>961.5999999999999</ele><time>2026-04-27T12:19:28.66Z</time></trkpt><trkpt lat="38.7388133" lon="16.366455"><ele>961.0</ele><time>2026-04-27T12:19:29.658Z</time></trkpt><trkpt lat="38.738685" lon="16.3663967"><ele>961.1999999999999</ele><time>2026-04-27T12:19:30.658Z</time></trkpt><trkpt lat="38.73857" lon="16.36636"><ele>961.3999999999999</ele><time>2026-04-27T12:19:31.665Z</time></trkpt><trkpt lat="38.7384683" lon="16.3663267"><ele>961.6</ele><time>2026-04-27T12:19:32.716Z</time></trkpt><trkpt lat="38.7383967" lon="16.36628"><ele>961.8</ele><time>2026-04-27T12:19:33.657Z</time></trkpt><trkpt lat="38.7383283" lon="16.366235"><ele>962.0</ele><time>2026-04-27T12:19:34.652Z</time></trkpt><trkpt lat="38.7382633" lon="16.3661767"><ele>963.0</ele><time>2026-04-27T12:19:35.651Z</time></trkpt><trkpt lat="38.7381933" lon="16.366115"><ele>964.0</ele><time>2026-04-27T12:19:36.655Z</time></trkpt><trkpt lat="38.738105" lon="16.3660283"><ele>965.0</ele><time>2026-04-27T12:19:37.653Z</time></trkpt><trkpt lat="38.73803" lon="16.36595"><ele>966.0</ele><time>2026-04-27T12:19:38.679Z</time></trkpt><trkpt lat="38.73796" lon="16.3658667"><ele>967.0</ele><time>2026-04-27T12:19:39.655Z</time></trkpt><trkpt lat="38.7378867" lon="16.3657883"><ele>967.0</ele><time>2026-04-27T12:19:40.663Z</time></trkpt><trkpt lat="38.7378083" lon="16.365705"><ele>967.0</ele><time>2026-04-27T12:19:41.659Z</time></trkpt><trkpt lat="38.7377233" lon="16.3656"><ele>967.0</ele><time>2026-04-27T12:19:42.658Z</time></trkpt><trkpt lat="38.7376283" lon="16.3654867"><ele>967.0</ele><time>2026-04-27T12:19:43.659Z</time></trkpt><trkpt lat="38.737535" lon="16.3653783"><ele>968.75</ele><time>2026-04-27T12:19:44.682Z</time></trkpt><trkpt lat="38.7374383" lon="16.365275"><ele>970.5</ele><time>2026-04-27T12:19:45.653Z</time></trkpt><trkpt lat="38.7373467" lon="16.36518"><ele>972.25</ele><time>2026-04-27T12:19:46.656Z</time></trkpt><trkpt lat="38.737265" lon="16.365105"><ele>974.0</ele><time>2026-04-27T12:19:47.658Z</time></trkpt><trkpt lat="38.7371617" lon="16.3650267"><ele>974.0</ele><time>2026-04-27T12:19:48.663Z</time></trkpt><trkpt lat="38.7370717" lon="16.3649617"><ele>974.0000000000001</ele><time>2026-04-27T12:19:49.659Z</time></trkpt><trkpt lat="38.7370033" lon="16.3649117"><ele>974.0000000000001</ele><time>2026-04-27T12:19:51.657Z</time></trkpt><trkpt lat="38.7369967" lon="16.3648183"><ele>974.0</ele><time>2026-04-27T12:19:53.655Z</time></trkpt><trkpt lat="38.7370317" lon="16.3647067"><ele>974.0</ele><time>2026-04-27T12:19:55.665Z</time></trkpt><trkpt lat="38.7371967" lon="16.364645"><ele>974.5000000000001</ele><time>2026-04-27T12:19:57.655Z</time></trkpt><trkpt lat="38.7371867" lon="16.3645117"><ele>975.0</ele><time>2026-04-27T12:19:59.657Z</time></trkpt><trkpt lat="38.7371817" lon="16.36442"><ele>975.5</ele><time>2026-04-27T12:20:00.651Z</time></trkpt><trkpt lat="38.7371767" lon="16.3643217"><ele>976.0</ele><time>2026-04-27T12:20:01.659Z</time></trkpt><trkpt lat="38.7371667" lon="16.3642217"><ele>976.5000000000001</ele><time>2026-04-27T12:20:02.711Z</time></trkpt><trkpt lat="38.7371567" lon="16.3641217"><ele>977.0</ele><time>2026-04-27T12:20:03.654Z</time></trkpt><trkpt lat="38.7371283" lon="16.3640183"><ele>977.0000000000001</ele><time>2026-04-27T12:20:04.658Z</time></trkpt><trkpt lat="38.7371017" lon="16.363915"><ele>977.0</ele><time>2026-04-27T12:20:05.661Z</time></trkpt><trkpt lat="38.7370733" lon="16.3638383"><ele>977.0</ele><time>2026-04-27T12:20:06.661Z</time></trkpt><trkpt lat="38.7370217" lon="16.36376"><ele>977.0</ele><time>2026-04-27T12:20:07.653Z</time></trkpt><trkpt lat="38.7369767" lon="16.3636833"><ele>977.0000000000001</ele><time>2026-04-27T12:20:08.682Z</time></trkpt><trkpt lat="38.7369283" lon="16.36361"><ele>977.0</ele><time>2026-04-27T12:20:09.657Z</time></trkpt><trkpt lat="38.7368533" lon="16.3635333"><ele>977.5</ele><time>2026-04-27T12:20:10.656Z</time></trkpt><trkpt lat="38.736775" lon="16.3634533"><ele>978.0</ele><time>2026-04-27T12:20:11.651Z</time></trkpt><trkpt lat="38.7366567" lon="16.3633683"><ele>978.5</ele><time>2026-04-27T12:20:12.657Z</time></trkpt><trkpt lat="38.7365617" lon="16.3632917"><ele>979.0</ele><time>2026-04-27T12:20:13.655Z</time></trkpt><trkpt lat="38.7364733" lon="16.3632167"><ele>978.9999999999999</ele><time>2026-04-27T12:20:14.678Z</time></trkpt><trkpt lat="38.7364" lon="16.3631717"><ele>979.0</ele><time>2026-04-27T12:20:15.66Z</time></trkpt><trkpt lat="38.7363217" lon="16.363145"><ele>979.0</ele><time>2026-04-27T12:20:16.665Z</time></trkpt><trkpt lat="38.7362567" lon="16.3631317"><ele>979.0</ele><time>2026-04-27T12:20:17.657Z</time></trkpt><trkpt lat="38.7361583" lon="16.3631083"><ele>978.9999999999999</ele><time>2026-04-27T12:20:19.656Z</time></trkpt><trkpt lat="38.736105" lon="16.3630583"><ele>979.0</ele><time>2026-04-27T12:20:29.659Z</time></trkpt><trkpt lat="38.7360433" lon="16.3629883"><ele>983.2</ele><time>2026-04-27T12:21:02.712Z</time></trkpt><trkpt lat="38.7359933" lon="16.3628417"><ele>987.4000000000001</ele><time>2026-04-27T12:24:38.677Z</time></trkpt><trkpt lat="38.7359783" lon="16.36275"><ele>991.6</ele><time>2026-04-27T12:27:27.653Z</time></trkpt><trkpt lat="38.7359733" lon="16.3626383"><ele>995.8</ele><time>2026-04-27T12:27:30.657Z</time></trkpt><trkpt lat="38.7359867" lon="16.36255"><ele>1000.0</ele><time>2026-04-27T12:27:32.712Z</time></trkpt><trkpt lat="38.7360067" lon="16.3623183"><ele>997.8333333333333</ele><time>2026-04-27T12:29:14.681Z</time></trkpt><trkpt lat="38.73607" lon="16.3622767"><ele>995.6666666666666</ele><time>2026-04-27T12:29:45.658Z</time></trkpt><trkpt lat="38.7360833" lon="16.3621917"><ele>993.5</ele><time>2026-04-27T12:29:48.659Z</time></trkpt><trkpt lat="38.7361017" lon="16.3620967"><ele>991.3333333333333</ele><time>2026-04-27T12:29:51.654Z</time></trkpt><trkpt lat="38.736105" lon="16.361985"><ele>989.1666666666666</ele><time>2026-04-27T12:29:56.708Z</time></trkpt><trkpt lat="38.7360917" lon="16.3618567"><ele>987.0</ele><time>2026-04-27T12:29:59.654Z</time></trkpt><trkpt lat="38.7360617" lon="16.3617283"><ele>989.8333333333334</ele><time>2026-04-27T12:30:01.657Z</time></trkpt><trkpt lat="38.7360183" lon="16.3615933"><ele>992.6666666666667</ele><time>2026-04-27T12:30:03.655Z</time></trkpt><trkpt lat="38.7359833" lon="16.3615133"><ele>995.5</ele><time>2026-04-27T12:30:04.658Z</time></trkpt><trkpt lat="38.735945" lon="16.3614183"><ele>998.3333333333334</ele><time>2026-04-27T12:30:05.651Z</time></trkpt><trkpt lat="38.7359117" lon="16.361325"><ele>1001.1666666666667</ele><time>2026-04-27T12:30:06.651Z</time></trkpt><trkpt lat="38.73587" lon="16.3612367"><ele>1004.0</ele><time>2026-04-27T12:30:07.651Z</time></trkpt><trkpt lat="38.7358317" lon="16.361165"><ele>1003.9999999999999</ele><time>2026-04-27T12:30:08.685Z</time></trkpt><trkpt lat="38.735785" lon="16.3611"><ele>1004.0</ele><time>2026-04-27T12:30:09.652Z</time></trkpt><trkpt lat="38.73574" lon="16.3610383"><ele>1003.9999999999999</ele><time>2026-04-27T12:30:10.654Z</time></trkpt><trkpt lat="38.7356833" lon="16.36099"><ele>1003.9999999999999</ele><time>2026-04-27T12:30:11.653Z</time></trkpt><trkpt lat="38.735605" lon="16.360955"><ele>1004.0</ele><time>2026-04-27T12:30:12.662Z</time></trkpt><trkpt lat="38.7355267" lon="16.3609067"><ele>1003.9999999999999</ele><time>2026-04-27T12:30:13.649Z</time></trkpt><trkpt lat="38.7354667" lon="16.3608517"><ele>1003.9999999999999</ele><time>2026-04-27T12:30:14.682Z</time></trkpt><trkpt lat="38.7354" lon="16.3607817"><ele>1004.0000000000001</ele><time>2026-04-27T12:30:15.652Z</time></trkpt><trkpt lat="38.73533" lon="16.36069"><ele>1004.0</ele><time>2026-04-27T12:30:16.66Z</time></trkpt><trkpt lat="38.7352717" lon="16.3606033"><ele>1004.0</ele><time>2026-04-27T12:30:17.654Z</time></trkpt><trkpt lat="38.735215" lon="16.3605183"><ele>1004.0</ele><time>2026-04-27T12:30:18.655Z</time></trkpt><trkpt lat="38.7351717" lon="16.3604317"><ele>1004.0000000000001</ele><time>2026-04-27T12:30:19.659Z</time></trkpt><trkpt lat="38.7351433" lon="16.3603533"><ele>1004.0</ele><time>2026-04-27T12:30:20.682Z</time></trkpt><trkpt lat="38.7351167" lon="16.3602783"><ele>1006.1666666666667</ele><time>2026-04-27T12:30:21.655Z</time></trkpt><trkpt lat="38.7351" lon="16.3601967"><ele>1008.3333333333334</ele><time>2026-04-27T12:30:22.657Z</time></trkpt><trkpt lat="38.735075" lon="16.3601167"><ele>1010.5</ele><time>2026-04-27T12:30:23.652Z</time></trkpt><trkpt lat="38.7350367" lon="16.3600267"><ele>1012.6666666666667</ele><time>2026-04-27T12:30:24.654Z</time></trkpt><trkpt lat="38.735" lon="16.35993"><ele>1014.8333333333334</ele><time>2026-04-27T12:30:25.656Z</time></trkpt><trkpt lat="38.734965" lon="16.35983"><ele>1017.0</ele><time>2026-04-27T12:30:26.706Z</time></trkpt><trkpt lat="38.734925" lon="16.35971"><ele>1017.8</ele><time>2026-04-27T12:30:27.654Z</time></trkpt><trkpt lat="38.7349067" lon="16.359575"><ele>1018.6</ele><time>2026-04-27T12:30:28.657Z</time></trkpt><trkpt lat="38.734885" lon="16.3594383"><ele>1019.3999999999999</ele><time>2026-04-27T12:30:29.652Z</time></trkpt><trkpt lat="38.7348767" lon="16.3593067"><ele>1020.1999999999999</ele><time>2026-04-27T12:30:30.658Z</time></trkpt><trkpt lat="38.7348667" lon="16.3591783"><ele>1021.0</ele><time>2026-04-27T12:30:31.656Z</time></trkpt><trkpt lat="38.73486" lon="16.3590467"><ele>1021.0</ele><time>2026-04-27T12:30:32.708Z</time></trkpt><trkpt lat="38.7348617" lon="16.358925"><ele>1020.9999999999999</ele><time>2026-04-27T12:30:33.65Z</time></trkpt><trkpt lat="38.734865" lon="16.3588167"><ele>1020.9999999999999</ele><time>2026-04-27T12:30:34.653Z</time></trkpt><trkpt lat="38.7348833" lon="16.3586967"><ele>1021.0</ele><time>2026-04-27T12:30:35.65Z</time></trkpt><trkpt lat="38.734905" lon="16.35859"><ele>1021.0</ele><time>2026-04-27T12:30:36.657Z</time></trkpt><trkpt lat="38.7349283" lon="16.3584683"><ele>1021.4999999999999</ele><time>2026-04-27T12:30:37.657Z</time></trkpt><trkpt lat="38.7349483" lon="16.3583467"><ele>1022.0</ele><time>2026-04-27T12:30:38.681Z</time></trkpt><trkpt lat="38.7349567" lon="16.3582383"><ele>1022.5</ele><time>2026-04-27T12:30:39.652Z</time></trkpt><trkpt lat="38.7349683" lon="16.358115"><ele>1023.0</ele><time>2026-04-27T12:30:40.656Z</time></trkpt><trkpt lat="38.7349667" lon="16.358005"><ele>1023.4999999999999</ele><time>2026-04-27T12:30:41.654Z</time></trkpt><trkpt lat="38.7349583" lon="16.3578967"><ele>1024.0</ele><time>2026-04-27T12:30:42.653Z</time></trkpt><trkpt lat="38.7349383" lon="16.3577917"><ele>1024.6000000000001</ele><time>2026-04-27T12:30:43.653Z</time></trkpt><trkpt lat="38.7349033" lon="16.3576717"><ele>1025.2</ele><time>2026-04-27T12:30:44.685Z</time></trkpt><trkpt lat="38.7348517" lon="16.3575367"><ele>1025.8000000000002</ele><time>2026-04-27T12:30:45.652Z</time></trkpt><trkpt lat="38.73478" lon="16.3574017"><ele>1026.4</ele><time>2026-04-27T12:30:46.663Z</time></trkpt><trkpt lat="38.7347217" lon="16.3572967"><ele>1027.0</ele><time>2026-04-27T12:30:47.653Z</time></trkpt><trkpt lat="38.734665" lon="16.3571983"><ele>1027.8</ele><time>2026-04-27T12:30:48.652Z</time></trkpt><trkpt lat="38.7346117" lon="16.3571083"><ele>1028.6</ele><time>2026-04-27T12:30:49.652Z</time></trkpt><trkpt lat="38.7345483" lon="16.35702"><ele>1029.3999999999999</ele><time>2026-04-27T12:30:50.697Z</time></trkpt><trkpt lat="38.7344833" lon="16.356935"><ele>1030.2</ele><time>2026-04-27T12:30:51.653Z</time></trkpt><trkpt lat="38.7344233" lon="16.356845"><ele>1031.0</ele><time>2026-04-27T12:30:52.652Z</time></trkpt><trkpt lat="38.73437" lon="16.35676"><ele>1027.8333333333335</ele><time>2026-04-27T12:30:53.655Z</time></trkpt><trkpt lat="38.734325" lon="16.3566633"><ele>1024.6666666666667</ele><time>2026-04-27T12:30:54.658Z</time></trkpt><trkpt lat="38.7342883" lon="16.3565683"><ele>1021.5</ele><time>2026-04-27T12:30:55.653Z</time></trkpt><trkpt lat="38.734265" lon="16.3564717"><ele>1018.3333333333333</ele><time>2026-04-27T12:30:56.701Z</time></trkpt><trkpt lat="38.7342567" lon="16.3563633"><ele>1015.1666666666666</ele><time>2026-04-27T12:30:57.656Z</time></trkpt><trkpt lat="38.7342533" lon="16.3562667"><ele>1012.0</ele><time>2026-04-27T12:30:58.658Z</time></trkpt><trkpt lat="38.7342683" lon="16.3561717"><ele>1010.4000000000001</ele><time>2026-04-27T12:30:59.653Z</time></trkpt><trkpt lat="38.7343383" lon="16.35606"><ele>1008.8000000000001</ele><time>2026-04-27T12:31:01.657Z</time></trkpt><trkpt lat="38.734415" lon="16.3559517"><ele>1007.2</ele><time>2026-04-27T12:31:03.654Z</time></trkpt><trkpt lat="38.73448" lon="16.3558233"><ele>1005.6</ele><time>2026-04-27T12:31:05.649Z</time></trkpt><trkpt lat="38.7345" lon="16.355745"><ele>1004.0</ele><time>2026-04-27T12:31:06.649Z</time></trkpt><trkpt lat="38.7345383" lon="16.3556217"><ele>1006.2</ele><time>2026-04-27T12:31:07.656Z</time></trkpt><trkpt lat="38.7345583" lon="16.3555083"><ele>1008.4000000000001</ele><time>2026-04-27T12:31:08.689Z</time></trkpt><trkpt lat="38.7345783" lon="16.355385"><ele>1010.6</ele><time>2026-04-27T12:31:09.648Z</time></trkpt><trkpt lat="38.7346083" lon="16.3552617"><ele>1012.8</ele><time>2026-04-27T12:31:10.657Z</time></trkpt><trkpt lat="38.7346267" lon="16.3551233"><ele>1015.0</ele><time>2026-04-27T12:31:11.653Z</time></trkpt><trkpt lat="38.73465" lon="16.3550033"><ele>1014.9999999999999</ele><time>2026-04-27T12:31:12.656Z</time></trkpt><trkpt lat="38.7346567" lon="16.3548867"><ele>1015.0</ele><time>2026-04-27T12:31:13.653Z</time></trkpt><trkpt lat="38.7346467" lon="16.35477"><ele>1015.0</ele><time>2026-04-27T12:31:14.682Z</time></trkpt><trkpt lat="38.7346133" lon="16.3546583"><ele>1015.0</ele><time>2026-04-27T12:31:15.65Z</time></trkpt><trkpt lat="38.7345917" lon="16.3545567"><ele>1014.9999999999999</ele><time>2026-04-27T12:31:16.653Z</time></trkpt><trkpt lat="38.734565" lon="16.3544833"><ele>1015.0</ele><time>2026-04-27T12:31:17.657Z</time></trkpt><trkpt lat="38.7345383" lon="16.3543333"><ele>1015.8</ele><time>2026-04-27T12:31:19.656Z</time></trkpt><trkpt lat="38.734495" lon="16.35424"><ele>1016.6</ele><time>2026-04-27T12:31:20.686Z</time></trkpt><trkpt lat="38.7344417" lon="16.3541333"><ele>1017.4000000000001</ele><time>2026-04-27T12:31:21.661Z</time></trkpt><trkpt lat="38.7344017" lon="16.3540133"><ele>1018.2</ele><time>2026-04-27T12:31:22.651Z</time></trkpt><trkpt lat="38.734385" lon="16.3538783"><ele>1019.0</ele><time>2026-04-27T12:31:23.652Z</time></trkpt><trkpt lat="38.7343483" lon="16.353755"><ele>1019.0000000000001</ele><time>2026-04-27T12:31:24.65Z</time></trkpt><trkpt lat="38.7343167" lon="16.35363"><ele>1019.0</ele><time>2026-04-27T12:31:25.657Z</time></trkpt><trkpt lat="38.73429" lon="16.35351"><ele>1019.0</ele><time>2026-04-27T12:31:26.692Z</time></trkpt><trkpt lat="38.7342783" lon="16.3534067"><ele>1019.0</ele><time>2026-04-27T12:31:27.654Z</time></trkpt><trkpt lat="38.73428" lon="16.3533133"><ele>1019.0000000000001</ele><time>2026-04-27T12:31:28.655Z</time></trkpt><trkpt lat="38.734295" lon="16.3532217"><ele>1019.0</ele><time>2026-04-27T12:31:29.652Z</time></trkpt><trkpt lat="38.73432" lon="16.3531283"><ele>1019.0000000000001</ele><time>2026-04-27T12:31:30.657Z</time></trkpt><trkpt lat="38.7343283" lon="16.3530217"><ele>1019.0</ele><time>2026-04-27T12:31:31.655Z</time></trkpt><trkpt lat="38.734345" lon="16.3529183"><ele>1019.0</ele><time>2026-04-27T12:31:32.698Z</time></trkpt><trkpt lat="38.7343683" lon="16.3528217"><ele>1019.0</ele><time>2026-04-27T12:31:33.653Z</time></trkpt><trkpt lat="38.7343867" lon="16.3527333"><ele>1019.0000000000001</ele><time>2026-04-27T12:31:34.653Z</time></trkpt><trkpt lat="38.7344" lon="16.3525717"><ele>1019.0</ele><time>2026-04-27T12:31:36.658Z</time></trkpt><trkpt lat="38.7343917" lon="16.3524833"><ele>1018.6666666666667</ele><time>2026-04-27T12:31:37.657Z</time></trkpt><trkpt lat="38.7343733" lon="16.3523483"><ele>1018.3333333333334</ele><time>2026-04-27T12:31:39.646Z</time></trkpt><trkpt lat="38.7343633" lon="16.352195"><ele>1018.0</ele><time>2026-04-27T12:31:41.653Z</time></trkpt><trkpt lat="38.7343417" lon="16.3521183"><ele>1017.6666666666667</ele><time>2026-04-27T12:31:42.651Z</time></trkpt><trkpt lat="38.7343083" lon="16.3520383"><ele>1017.3333333333334</ele><time>2026-04-27T12:31:43.658Z</time></trkpt><trkpt lat="38.7342633" lon="16.3519467"><ele>1017.0</ele><time>2026-04-27T12:31:44.686Z</time></trkpt><trkpt lat="38.734215" lon="16.35186"><ele>1017.0</ele><time>2026-04-27T12:31:45.648Z</time></trkpt><trkpt lat="38.7341533" lon="16.35178"><ele>1017.0</ele><time>2026-04-27T12:31:46.647Z</time></trkpt><trkpt lat="38.7340783" lon="16.3517033"><ele>1017.0</ele><time>2026-04-27T12:31:47.654Z</time></trkpt><trkpt lat="38.7339983" lon="16.3516217"><ele>1017.0</ele><time>2026-04-27T12:31:48.65Z</time></trkpt><trkpt lat="38.7339367" lon="16.35154"><ele>1017.0</ele><time>2026-04-27T12:31:49.65Z</time></trkpt><trkpt lat="38.7338467" lon="16.3514433"><ele>1018.0</ele><time>2026-04-27T12:31:50.679Z</time></trkpt><trkpt lat="38.7337483" lon="16.3513583"><ele>1019.0</ele><time>2026-04-27T12:31:51.651Z</time></trkpt><trkpt lat="38.7336467" lon="16.35127"><ele>1020.0</ele><time>2026-04-27T12:31:52.652Z</time></trkpt><trkpt lat="38.733555" lon="16.351165"><ele>1021.0</ele><time>2026-04-27T12:31:53.655Z</time></trkpt><trkpt lat="38.7334667" lon="16.3510717"><ele>1019.4</ele><time>2026-04-27T12:31:54.654Z</time></trkpt><trkpt lat="38.7333783" lon="16.3509717"><ele>1017.8</ele><time>2026-04-27T12:31:55.65Z</time></trkpt><trkpt lat="38.7333133" lon="16.3508633"><ele>1016.1999999999999</ele><time>2026-04-27T12:31:56.697Z</time></trkpt><trkpt lat="38.7332633" lon="16.3507733"><ele>1014.5999999999999</ele><time>2026-04-27T12:31:57.651Z</time></trkpt><trkpt lat="38.733215" lon="16.35067"><ele>1013.0</ele><time>2026-04-27T12:31:58.649Z</time></trkpt><trkpt lat="38.7331767" lon="16.3505883"><ele>1012.5999999999999</ele><time>2026-04-27T12:31:59.654Z</time></trkpt><trkpt lat="38.7331433" lon="16.3505083"><ele>1012.1999999999999</ele><time>2026-04-27T12:32:00.658Z</time></trkpt><trkpt lat="38.7330917" lon="16.350405"><ele>1011.8</ele><time>2026-04-27T12:32:01.655Z</time></trkpt><trkpt lat="38.733045" lon="16.3503117"><ele>1011.4</ele><time>2026-04-27T12:32:02.695Z</time></trkpt><trkpt lat="38.7329917" lon="16.3502167"><ele>1011.0</ele><time>2026-04-27T12:32:03.654Z</time></trkpt><trkpt lat="38.7329233" lon="16.3500867"><ele>1011.0</ele><time>2026-04-27T12:32:04.655Z</time></trkpt><trkpt lat="38.7328633" lon="16.3499717"><ele>1010.9999999999999</ele><time>2026-04-27T12:32:05.657Z</time></trkpt><trkpt lat="38.7327983" lon="16.3498617"><ele>1010.9999999999999</ele><time>2026-04-27T12:32:06.654Z</time></trkpt><trkpt lat="38.7327583" lon="16.34975"><ele>1011.0</ele><time>2026-04-27T12:32:08.681Z</time></trkpt><trkpt lat="38.7327017" lon="16.349815"><ele>1011.0</ele><time>2026-04-27T12:32:14.682Z</time></trkpt><trkpt lat="38.732625" lon="16.3498083"><ele>1010.5999999999999</ele><time>2026-04-27T12:32:17.652Z</time></trkpt><trkpt lat="38.732545" lon="16.3498183"><ele>1010.1999999999999</ele><time>2026-04-27T12:32:19.648Z</time></trkpt><trkpt lat="38.7324817" lon="16.3498417"><ele>1009.8000000000001</ele><time>2026-04-27T12:32:20.69Z</time></trkpt><trkpt lat="38.7323883" lon="16.3498683"><ele>1009.4000000000001</ele><time>2026-04-27T12:32:21.655Z</time></trkpt><trkpt lat="38.732285" lon="16.3499033"><ele>1009.0</ele><time>2026-04-27T12:32:22.655Z</time></trkpt><trkpt lat="38.732195" lon="16.3499667"><ele>1009.0</ele><time>2026-04-27T12:32:23.656Z</time></trkpt><trkpt lat="38.7321" lon="16.3500483"><ele>1009.0000000000001</ele><time>2026-04-27T12:32:24.654Z</time></trkpt><trkpt lat="38.732005" lon="16.350125"><ele>1009.0000000000001</ele><time>2026-04-27T12:32:25.66Z</time></trkpt><trkpt lat="38.7319267" lon="16.3501983"><ele>1009.0</ele><time>2026-04-27T12:32:26.705Z</time></trkpt><trkpt lat="38.7318533" lon="16.3502633"><ele>1009.0</ele><time>2026-04-27T12:32:27.654Z</time></trkpt><trkpt lat="38.7317983" lon="16.3503233"><ele>1008.3333333333333</ele><time>2026-04-27T12:32:28.654Z</time></trkpt><trkpt lat="38.731755" lon="16.3503917"><ele>1007.6666666666666</ele><time>2026-04-27T12:32:29.652Z</time></trkpt><trkpt lat="38.73171" lon="16.35047"><ele>1007.0</ele><time>2026-04-27T12:32:30.658Z</time></trkpt><trkpt lat="38.7316733" lon="16.3505633"><ele>1006.3333333333333</ele><time>2026-04-27T12:32:31.65Z</time></trkpt><trkpt lat="38.7316433" lon="16.350665"><ele>1005.6666666666666</ele><time>2026-04-27T12:32:32.703Z</time></trkpt><trkpt lat="38.7316317" lon="16.3507833"><ele>1005.0</ele><time>2026-04-27T12:32:33.652Z</time></trkpt><trkpt lat="38.7316183" lon="16.3509033"><ele>1005.0</ele><time>2026-04-27T12:32:34.658Z</time></trkpt><trkpt lat="38.7316167" lon="16.35103"><ele>1005.0</ele><time>2026-04-27T12:32:35.654Z</time></trkpt><trkpt lat="38.7316117" lon="16.3511633"><ele>1005.0</ele><time>2026-04-27T12:32:36.653Z</time></trkpt><trkpt lat="38.7316333" lon="16.3512983"><ele>1005.0</ele><time>2026-04-27T12:32:37.655Z</time></trkpt><trkpt lat="38.73166" lon="16.3514517"><ele>1005.0</ele><time>2026-04-27T12:32:38.684Z</time></trkpt><trkpt lat="38.7316733" lon="16.3515933"><ele>1004.8</ele><time>2026-04-27T12:32:39.657Z</time></trkpt><trkpt lat="38.731675" lon="16.351715"><ele>1004.6</ele><time>2026-04-27T12:32:40.657Z</time></trkpt><trkpt lat="38.7316717" lon="16.3518417"><ele>1004.4000000000001</ele><time>2026-04-27T12:32:41.654Z</time></trkpt><trkpt lat="38.7316617" lon="16.3519467"><ele>1004.2</ele><time>2026-04-27T12:32:42.659Z</time></trkpt><trkpt lat="38.7316483" lon="16.35204"><ele>1004.0</ele><time>2026-04-27T12:32:43.657Z</time></trkpt><trkpt lat="38.7316283" lon="16.3521767"><ele>1003.1666666666667</ele><time>2026-04-27T12:32:44.682Z</time></trkpt><trkpt lat="38.7315933" lon="16.3522617"><ele>1002.3333333333334</ele><time>2026-04-27T12:32:45.652Z</time></trkpt><trkpt lat="38.7315283" lon="16.3523517"><ele>1001.5</ele><time>2026-04-27T12:32:46.662Z</time></trkpt><trkpt lat="38.731455" lon="16.3524183"><ele>1000.6666666666667</ele><time>2026-04-27T12:32:47.653Z</time></trkpt><trkpt lat="38.7313783" lon="16.3524683"><ele>999.8333333333334</ele><time>2026-04-27T12:32:48.661Z</time></trkpt><trkpt lat="38.73129" lon="16.3525117"><ele>999.0</ele><time>2026-04-27T12:32:49.654Z</time></trkpt><trkpt lat="38.7310317" lon="16.3524933"><ele>997.0</ele><time>2026-04-27T12:32:50.682Z</time></trkpt><trkpt lat="38.730945" lon="16.352525"><ele>995.0000000000001</ele><time>2026-04-27T12:32:51.662Z</time></trkpt><trkpt lat="38.7308317" lon="16.3525333"><ele>993.0000000000001</ele><time>2026-04-27T12:32:53.654Z</time></trkpt><trkpt lat="38.73083" lon="16.3524333"><ele>991.0</ele><time>2026-04-27T12:32:54.659Z</time></trkpt><trkpt lat="38.7307667" lon="16.35229"><ele>989.0</ele><time>2026-04-27T12:32:56.706Z</time></trkpt><trkpt lat="38.7307383" lon="16.352215"><ele>989.8000000000001</ele><time>2026-04-27T12:32:57.66Z</time></trkpt><trkpt lat="38.7307167" lon="16.35213"><ele>990.6000000000001</ele><time>2026-04-27T12:32:58.648Z</time></trkpt><trkpt lat="38.7306967" lon="16.3520417"><ele>991.4</ele><time>2026-04-27T12:32:59.654Z</time></trkpt><trkpt lat="38.7306633" lon="16.351915"><ele>992.2</ele><time>2026-04-27T12:33:01.655Z</time></trkpt><trkpt lat="38.7305883" lon="16.3518417"><ele>993.0</ele><time>2026-04-27T12:33:04.656Z</time></trkpt><trkpt lat="38.7304833" lon="16.35176"><ele>993.0</ele><time>2026-04-27T12:33:06.659Z</time></trkpt><trkpt lat="38.7304133" lon="16.3517017"><ele>993.0</ele><time>2026-04-27T12:33:07.653Z</time></trkpt><trkpt lat="38.7303317" lon="16.3516483"><ele>993.0</ele><time>2026-04-27T12:33:08.695Z</time></trkpt><trkpt lat="38.730255" lon="16.3516033"><ele>993.0</ele><time>2026-04-27T12:33:09.654Z</time></trkpt><trkpt lat="38.7301783" lon="16.3515783"><ele>993.0</ele><time>2026-04-27T12:33:10.655Z</time></trkpt><trkpt lat="38.7300833" lon="16.35158"><ele>993.0</ele><time>2026-04-27T12:33:11.65Z</time></trkpt><trkpt lat="38.730005" lon="16.3515883"><ele>991.5999999999999</ele><time>2026-04-27T12:33:12.655Z</time></trkpt><trkpt lat="38.7299383" lon="16.3515967"><ele>990.1999999999999</ele><time>2026-04-27T12:33:13.652Z</time></trkpt><trkpt lat="38.7298467" lon="16.3516"><ele>988.8</ele><time>2026-04-27T12:33:15.654Z</time></trkpt><trkpt lat="38.7297533" lon="16.3517267"><ele>987.4</ele><time>2026-04-27T12:33:26.687Z</time></trkpt><trkpt lat="38.7297617" lon="16.3518283"><ele>986.0</ele><time>2026-04-27T12:33:29.655Z</time></trkpt><trkpt lat="38.72975" lon="16.35202"><ele>986.0</ele><time>2026-04-27T12:33:32.701Z</time></trkpt><trkpt lat="38.7297817" lon="16.3521083"><ele>985.9999999999999</ele><time>2026-04-27T12:33:38.689Z</time></trkpt><trkpt lat="38.72987" lon="16.3521517"><ele>985.9999999999999</ele><time>2026-04-27T12:33:40.657Z</time></trkpt><trkpt lat="38.7299383" lon="16.3522217"><ele>986.0</ele><time>2026-04-27T12:33:42.653Z</time></trkpt><trkpt lat="38.7300117" lon="16.3523533"><ele>986.0</ele><time>2026-04-27T12:33:44.685Z</time></trkpt><trkpt lat="38.7300483" lon="16.3524367"><ele>984.8</ele><time>2026-04-27T12:33:45.65Z</time></trkpt><trkpt lat="38.7300667" lon="16.352545"><ele>983.5999999999999</ele><time>2026-04-27T12:33:46.649Z</time></trkpt><trkpt lat="38.7300617" lon="16.3526883"><ele>982.4</ele><time>2026-04-27T12:33:47.655Z</time></trkpt><trkpt lat="38.730045" lon="16.3528383"><ele>981.2</ele><time>2026-04-27T12:33:48.655Z</time></trkpt><trkpt lat="38.7300383" lon="16.3529917"><ele>980.0</ele><time>2026-04-27T12:33:49.654Z</time></trkpt><trkpt lat="38.7300383" lon="16.35313"><ele>978.4</ele><time>2026-04-27T12:33:50.693Z</time></trkpt><trkpt lat="38.730045" lon="16.3532517"><ele>976.8</ele><time>2026-04-27T12:33:51.656Z</time></trkpt><trkpt lat="38.7300733" lon="16.353365"><ele>975.2</ele><time>2026-04-27T12:33:52.654Z</time></trkpt><trkpt lat="38.7301117" lon="16.3534833"><ele>973.6</ele><time>2026-04-27T12:33:53.649Z</time></trkpt><trkpt lat="38.7301517" lon="16.3536017"><ele>972.0</ele><time>2026-04-27T12:33:54.657Z</time></trkpt><trkpt lat="38.7302167" lon="16.35367"><ele>971.8</ele><time>2026-04-27T12:33:55.652Z</time></trkpt><trkpt lat="38.7302833" lon="16.35376"><ele>971.6</ele><time>2026-04-27T12:33:56.704Z</time></trkpt><trkpt lat="38.730355" lon="16.35384"><ele>971.3999999999999</ele><time>2026-04-27T12:33:57.656Z</time></trkpt><trkpt lat="38.7304333" lon="16.3539"><ele>971.1999999999999</ele><time>2026-04-27T12:33:58.651Z</time></trkpt><trkpt lat="38.73051" lon="16.3539217"><ele>971.0</ele><time>2026-04-27T12:33:59.657Z</time></trkpt><trkpt lat="38.73063" lon="16.3538733"><ele>971.0</ele><time>2026-04-27T12:34:00.657Z</time></trkpt><trkpt lat="38.7307267" lon="16.3538583"><ele>970.9999999999999</ele><time>2026-04-27T12:34:01.653Z</time></trkpt><trkpt lat="38.7308183" lon="16.353855"><ele>970.9999999999999</ele><time>2026-04-27T12:34:02.693Z</time></trkpt><trkpt lat="38.730895" lon="16.3538517"><ele>971.0</ele><time>2026-04-27T12:34:03.655Z</time></trkpt><trkpt lat="38.7309983" lon="16.3538883"><ele>971.0</ele><time>2026-04-27T12:34:05.651Z</time></trkpt><trkpt lat="38.7310517" lon="16.3540317"><ele>971.0</ele><time>2026-04-27T12:34:07.652Z</time></trkpt><trkpt lat="38.7310483" lon="16.35419"><ele>971.0</ele><time>2026-04-27T12:34:09.652Z</time></trkpt><trkpt lat="38.73102" lon="16.3542733"><ele>971.0</ele><time>2026-04-27T12:34:10.652Z</time></trkpt><trkpt lat="38.7309033" lon="16.3543833"><ele>971.0</ele><time>2026-04-27T12:34:11.654Z</time></trkpt><trkpt lat="38.7307867" lon="16.3544767"><ele>971.0</ele><time>2026-04-27T12:34:12.659Z</time></trkpt><trkpt lat="38.7306583" lon="16.354565"><ele>971.0</ele><time>2026-04-27T12:34:13.651Z</time></trkpt><trkpt lat="38.730565" lon="16.3546467"><ele>971.0</ele><time>2026-04-27T12:34:14.68Z</time></trkpt><trkpt lat="38.7304783" lon="16.35471"><ele>971.0</ele><time>2026-04-27T12:34:15.656Z</time></trkpt><trkpt lat="38.7303983" lon="16.354775"><ele>969.4</ele><time>2026-04-27T12:34:16.658Z</time></trkpt><trkpt lat="38.7303217" lon="16.3548333"><ele>967.8</ele><time>2026-04-27T12:34:17.654Z</time></trkpt><trkpt lat="38.7302283" lon="16.3548917"><ele>966.1999999999999</ele><time>2026-04-27T12:34:18.654Z</time></trkpt><trkpt lat="38.73014" lon="16.354945"><ele>964.5999999999999</ele><time>2026-04-27T12:34:19.653Z</time></trkpt><trkpt lat="38.7300217" lon="16.3550383"><ele>963.0</ele><time>2026-04-27T12:34:21.656Z</time></trkpt><trkpt lat="38.7299467" lon="16.35509"><ele>962.3333333333334</ele><time>2026-04-27T12:34:22.652Z</time></trkpt><trkpt lat="38.7298767" lon="16.355145"><ele>961.6666666666667</ele><time>2026-04-27T12:34:23.665Z</time></trkpt><trkpt lat="38.7298233" lon="16.3552217"><ele>961.0</ele><time>2026-04-27T12:34:24.654Z</time></trkpt><trkpt lat="38.7297617" lon="16.3553017"><ele>960.3333333333334</ele><time>2026-04-27T12:34:25.663Z</time></trkpt><trkpt lat="38.7296983" lon="16.3553883"><ele>959.6666666666667</ele><time>2026-04-27T12:34:26.702Z</time></trkpt><trkpt lat="38.72965" lon="16.3554883"><ele>959.0</ele><time>2026-04-27T12:34:27.649Z</time></trkpt><trkpt lat="38.7295883" lon="16.3555917"><ele>958.8000000000001</ele><time>2026-04-27T12:34:28.649Z</time></trkpt><trkpt lat="38.7295283" lon="16.355705"><ele>958.6000000000001</ele><time>2026-04-27T12:34:29.655Z</time></trkpt><trkpt lat="38.7294733" lon="16.3558167"><ele>958.4</ele><time>2026-04-27T12:34:30.661Z</time></trkpt><trkpt lat="38.7294367" lon="16.3559267"><ele>958.2</ele><time>2026-04-27T12:34:31.655Z</time></trkpt><trkpt lat="38.729405" lon="16.356055"><ele>958.0</ele><time>2026-04-27T12:34:32.698Z</time></trkpt><trkpt lat="38.729375" lon="16.35618"><ele>955.3333333333333</ele><time>2026-04-27T12:34:33.651Z</time></trkpt><trkpt lat="38.729345" lon="16.35631"><ele>952.6666666666666</ele><time>2026-04-27T12:34:34.651Z</time></trkpt><trkpt lat="38.7293133" lon="16.35643"><ele>950.0</ele><time>2026-04-27T12:34:35.652Z</time></trkpt><trkpt lat="38.7292917" lon="16.3565417"><ele>947.3333333333333</ele><time>2026-04-27T12:34:36.654Z</time></trkpt><trkpt lat="38.72927" lon="16.3566317"><ele>944.6666666666666</ele><time>2026-04-27T12:34:37.655Z</time></trkpt><trkpt lat="38.7292567" lon="16.356715"><ele>942.0</ele><time>2026-04-27T12:34:38.682Z</time></trkpt><trkpt lat="38.7292333" lon="16.3567933"><ele>941.8</ele><time>2026-04-27T12:34:39.652Z</time></trkpt><trkpt lat="38.7291967" lon="16.356875"><ele>941.6</ele><time>2026-04-27T12:34:40.656Z</time></trkpt><trkpt lat="38.72915" lon="16.3569333"><ele>941.3999999999999</ele><time>2026-04-27T12:34:41.655Z</time></trkpt><trkpt lat="38.729045" lon="16.3570167"><ele>941.1999999999999</ele><time>2026-04-27T12:34:43.649Z</time></trkpt><trkpt lat="38.7289217" lon="16.357035"><ele>941.0</ele><time>2026-04-27T12:34:45.653Z</time></trkpt><trkpt lat="38.7288617" lon="16.3570817"><ele>941.0000000000001</ele><time>2026-04-27T12:34:46.648Z</time></trkpt><trkpt lat="38.72877" lon="16.3571967"><ele>941.0</ele><time>2026-04-27T12:34:48.659Z</time></trkpt><trkpt lat="38.728735" lon="16.357275"><ele>941.0</ele><time>2026-04-27T12:34:49.65Z</time></trkpt><trkpt lat="38.7287033" lon="16.357365"><ele>941.0</ele><time>2026-04-27T12:34:50.68Z</time></trkpt><trkpt lat="38.728685" lon="16.3574433"><ele>941.0000000000001</ele><time>2026-04-27T12:34:51.655Z</time></trkpt><trkpt lat="38.7286867" lon="16.357525"><ele>941.0</ele><time>2026-04-27T12:34:52.662Z</time></trkpt><trkpt lat="38.728705" lon="16.357605"><ele>940.0000000000001</ele><time>2026-04-27T12:34:53.647Z</time></trkpt><trkpt lat="38.72874" lon="16.357685"><ele>939.0</ele><time>2026-04-27T12:34:54.656Z</time></trkpt><trkpt lat="38.7288283" lon="16.357805"><ele>938.0</ele><time>2026-04-27T12:34:56.705Z</time></trkpt><trkpt lat="38.7288783" lon="16.35786"><ele>937.0</ele><time>2026-04-27T12:34:57.655Z</time></trkpt><trkpt lat="38.7289367" lon="16.35791"><ele>936.0000000000001</ele><time>2026-04-27T12:34:58.652Z</time></trkpt><trkpt lat="38.72901" lon="16.3579083"><ele>935.0</ele><time>2026-04-27T12:34:59.66Z</time></trkpt><trkpt lat="38.729095" lon="16.3579083"><ele>935.0000000000001</ele><time>2026-04-27T12:35:00.647Z</time></trkpt><trkpt lat="38.729175" lon="16.3578783"><ele>935.0</ele><time>2026-04-27T12:35:01.652Z</time></trkpt><trkpt lat="38.7292333" lon="16.3578167"><ele>935.0000000000001</ele><time>2026-04-27T12:35:02.697Z</time></trkpt><trkpt lat="38.7292983" lon="16.3577717"><ele>935.0000000000001</ele><time>2026-04-27T12:35:03.649Z</time></trkpt><trkpt lat="38.729365" lon="16.357775"><ele>935.0</ele><time>2026-04-27T12:35:04.656Z</time></trkpt><trkpt lat="38.72943" lon="16.3577783"><ele>935.0000000000001</ele><time>2026-04-27T12:35:05.65Z</time></trkpt><trkpt lat="38.7295" lon="16.3577717"><ele>935.0000000000001</ele><time>2026-04-27T12:35:06.657Z</time></trkpt><trkpt lat="38.7295733" lon="16.3577283"><ele>934.6666666666667</ele><time>2026-04-27T12:35:07.656Z</time></trkpt><trkpt lat="38.7296483" lon="16.35771"><ele>934.3333333333334</ele><time>2026-04-27T12:35:08.683Z</time></trkpt><trkpt lat="38.7297133" lon="16.35769"><ele>934.0</ele><time>2026-04-27T12:35:09.65Z</time></trkpt><trkpt lat="38.7298117" lon="16.3577033"><ele>933.6666666666667</ele><time>2026-04-27T12:35:11.652Z</time></trkpt><trkpt lat="38.7298317" lon="16.3578283"><ele>933.3333333333334</ele><time>2026-04-27T12:35:13.648Z</time></trkpt><trkpt lat="38.72981" lon="16.3579367"><ele>933.0</ele><time>2026-04-27T12:35:14.685Z</time></trkpt><trkpt lat="38.72977" lon="16.3580783"><ele>932.5999999999999</ele><time>2026-04-27T12:35:15.652Z</time></trkpt><trkpt lat="38.729715" lon="16.3582367"><ele>932.1999999999999</ele><time>2026-04-27T12:35:16.651Z</time></trkpt><trkpt lat="38.7296733" lon="16.3583717"><ele>931.8</ele><time>2026-04-27T12:35:17.656Z</time></trkpt><trkpt lat="38.7296417" lon="16.3585033"><ele>931.4</ele><time>2026-04-27T12:35:18.651Z</time></trkpt><trkpt lat="38.7296083" lon="16.35861"><ele>931.0</ele><time>2026-04-27T12:35:19.652Z</time></trkpt><trkpt lat="38.7295567" lon="16.3586717"><ele>931.0</ele><time>2026-04-27T12:35:20.69Z</time></trkpt><trkpt lat="38.7294767" lon="16.3587133"><ele>930.9999999999999</ele><time>2026-04-27T12:35:21.656Z</time></trkpt><trkpt lat="38.7293833" lon="16.3587417"><ele>930.9999999999999</ele><time>2026-04-27T12:35:22.654Z</time></trkpt><trkpt lat="38.7292733" lon="16.35874"><ele>931.0</ele><time>2026-04-27T12:35:23.652Z</time></trkpt><trkpt lat="38.72917" lon="16.3587383"><ele>931.0</ele><time>2026-04-27T12:35:24.649Z</time></trkpt><trkpt lat="38.7290583" lon="16.3587133"><ele>929.1999999999999</ele><time>2026-04-27T12:35:25.653Z</time></trkpt><trkpt lat="38.72896" lon="16.3586983"><ele>927.3999999999999</ele><time>2026-04-27T12:35:26.704Z</time></trkpt><trkpt lat="38.728865" lon="16.3586917"><ele>925.6</ele><time>2026-04-27T12:35:27.65Z</time></trkpt><trkpt lat="38.7287717" lon="16.358705"><ele>923.8</ele><time>2026-04-27T12:35:28.654Z</time></trkpt><trkpt lat="38.72867" lon="16.3587233"><ele>922.0</ele><time>2026-04-27T12:35:29.65Z</time></trkpt><trkpt lat="38.72858" lon="16.35876"><ele>922.0</ele><time>2026-04-27T12:35:30.653Z</time></trkpt><trkpt lat="38.72851" lon="16.3588133"><ele>922.0</ele><time>2026-04-27T12:35:31.656Z</time></trkpt><trkpt lat="38.7284983" lon="16.3589767"><ele>922.0</ele><time>2026-04-27T12:35:33.658Z</time></trkpt><trkpt lat="38.7285333" lon="16.3590783"><ele>922.0</ele><time>2026-04-27T12:35:34.652Z</time></trkpt><trkpt lat="38.7285767" lon="16.3591683"><ele>922.0</ele><time>2026-04-27T12:35:35.652Z</time></trkpt><trkpt lat="38.7286267" lon="16.3592533"><ele>922.1666666666666</ele><time>2026-04-27T12:35:36.657Z</time></trkpt><trkpt lat="38.7286617" lon="16.3593367"><ele>922.3333333333333</ele><time>2026-04-27T12:35:37.655Z</time></trkpt><trkpt lat="38.72869" lon="16.3594233"><ele>922.5</ele><time>2026-04-27T12:35:38.686Z</time></trkpt><trkpt lat="38.7287117" lon="16.35951"><ele>922.6666666666667</ele><time>2026-04-27T12:35:39.647Z</time></trkpt><trkpt lat="38.728725" lon="16.3595983"><ele>922.8333333333334</ele><time>2026-04-27T12:35:40.65Z</time></trkpt><trkpt lat="38.7287183" lon="16.35971"><ele>923.0</ele><time>2026-04-27T12:35:42.658Z</time></trkpt><trkpt lat="38.7286233" lon="16.3598"><ele>918.75</ele><time>2026-04-27T12:35:44.682Z</time></trkpt><trkpt lat="38.7285117" lon="16.359865"><ele>914.5</ele><time>2026-04-27T12:35:45.653Z</time></trkpt><trkpt lat="38.72841" lon="16.3599417"><ele>910.25</ele><time>2026-04-27T12:35:46.662Z</time></trkpt><trkpt lat="38.7283" lon="16.3600133"><ele>906.0</ele><time>2026-04-27T12:35:47.657Z</time></trkpt><trkpt lat="38.7281867" lon="16.3600767"><ele>906.0</ele><time>2026-04-27T12:35:48.653Z</time></trkpt><trkpt lat="38.7280717" lon="16.360125"><ele>905.9999999999999</ele><time>2026-04-27T12:35:49.657Z</time></trkpt><trkpt lat="38.7279717" lon="16.3601883"><ele>905.9999999999999</ele><time>2026-04-27T12:35:50.686Z</time></trkpt><trkpt lat="38.72787" lon="16.3602517"><ele>906.0</ele><time>2026-04-27T12:35:51.653Z</time></trkpt><trkpt lat="38.7277883" lon="16.3603217"><ele>906.0</ele><time>2026-04-27T12:35:52.657Z</time></trkpt><trkpt lat="38.7277133" lon="16.3604"><ele>903.3333333333334</ele><time>2026-04-27T12:35:53.655Z</time></trkpt><trkpt lat="38.727655" lon="16.3604767"><ele>900.6666666666667</ele><time>2026-04-27T12:35:54.651Z</time></trkpt><trkpt lat="38.7276167" lon="16.3605733"><ele>898.0</ele><time>2026-04-27T12:35:55.657Z</time></trkpt><trkpt lat="38.7275567" lon="16.3606633"><ele>895.3333333333334</ele><time>2026-04-27T12:35:56.682Z</time></trkpt><trkpt lat="38.7274967" lon="16.36075"><ele>892.6666666666667</ele><time>2026-04-27T12:35:57.653Z</time></trkpt><trkpt lat="38.7274283" lon="16.3608317"><ele>890.0</ele><time>2026-04-27T12:35:58.652Z</time></trkpt><trkpt lat="38.7273667" lon="16.3609117"><ele>889.5000000000001</ele><time>2026-04-27T12:35:59.649Z</time></trkpt><trkpt lat="38.7273033" lon="16.3609917"><ele>889.0</ele><time>2026-04-27T12:36:00.656Z</time></trkpt><trkpt lat="38.7272367" lon="16.3610617"><ele>888.5</ele><time>2026-04-27T12:36:01.65Z</time></trkpt><trkpt lat="38.7271917" lon="16.3611383"><ele>888.0</ele><time>2026-04-27T12:36:02.712Z</time></trkpt><trkpt lat="38.7271583" lon="16.3612267"><ele>887.5000000000001</ele><time>2026-04-27T12:36:03.653Z</time></trkpt><trkpt lat="38.7271317" lon="16.3613183"><ele>887.0</ele><time>2026-04-27T12:36:04.659Z</time></trkpt><trkpt lat="38.7271083" lon="16.3614067"><ele>887.0</ele><time>2026-04-27T12:36:05.65Z</time></trkpt><trkpt lat="38.7270667" lon="16.3615417"><ele>887.0</ele><time>2026-04-27T12:36:07.652Z</time></trkpt><trkpt lat="38.72709" lon="16.3614217"><ele>887.0</ele><time>2026-04-27T12:36:16.649Z</time></trkpt><trkpt lat="38.72705" lon="16.3612967"><ele>887.0</ele><time>2026-04-27T12:36:18.661Z</time></trkpt><trkpt lat="38.7270333" lon="16.3611617"><ele>887.0</ele><time>2026-04-27T12:36:20.689Z</time></trkpt><trkpt lat="38.7270583" lon="16.3610433"><ele>886.9999999999999</ele><time>2026-04-27T12:36:22.656Z</time></trkpt><trkpt lat="38.7270883" lon="16.3609683"><ele>887.0</ele><time>2026-04-27T12:36:23.651Z</time></trkpt><trkpt lat="38.7271183" lon="16.3608917"><ele>887.0</ele><time>2026-04-27T12:36:24.657Z</time></trkpt><trkpt lat="38.7271483" lon="16.3608017"><ele>887.0</ele><time>2026-04-27T12:36:25.648Z</time></trkpt><trkpt lat="38.7271767" lon="16.3607117"><ele>887.0</ele><time>2026-04-27T12:36:26.71Z</time></trkpt><trkpt lat="38.7272033" lon="16.3606317"><ele>886.9999999999999</ele><time>2026-04-27T12:36:27.652Z</time></trkpt><trkpt lat="38.7272183" lon="16.3605467"><ele>887.0</ele><time>2026-04-27T12:36:28.659Z</time></trkpt><trkpt lat="38.7272317" lon="16.3604033"><ele>887.5000000000001</ele><time>2026-04-27T12:36:30.655Z</time></trkpt><trkpt lat="38.7272617" lon="16.3602983"><ele>888.0</ele><time>2026-04-27T12:36:32.69Z</time></trkpt><trkpt lat="38.7271733" lon="16.3602467"><ele>888.5</ele><time>2026-04-27T12:36:35.651Z</time></trkpt><trkpt lat="38.7270767" lon="16.3602283"><ele>889.0</ele><time>2026-04-27T12:36:37.648Z</time></trkpt><trkpt lat="38.727005" lon="16.3602067"><ele>889.5000000000001</ele><time>2026-04-27T12:36:38.683Z</time></trkpt><trkpt lat="38.72693" lon="16.3601733"><ele>890.0</ele><time>2026-04-27T12:36:39.654Z</time></trkpt><trkpt lat="38.7268433" lon="16.3601333"><ele>886.2</ele><time>2026-04-27T12:36:40.654Z</time></trkpt><trkpt lat="38.7267367" lon="16.3600783"><ele>882.4</ele><time>2026-04-27T12:36:41.652Z</time></trkpt><trkpt lat="38.7266717" lon="16.3600017"><ele>878.5999999999999</ele><time>2026-04-27T12:36:42.656Z</time></trkpt><trkpt lat="38.7266117" lon="16.3599183"><ele>874.8</ele><time>2026-04-27T12:36:43.651Z</time></trkpt><trkpt lat="38.7265633" lon="16.359835"><ele>871.0</ele><time>2026-04-27T12:36:44.687Z</time></trkpt><trkpt lat="38.7265267" lon="16.3597283"><ele>873.75</ele><time>2026-04-27T12:36:45.653Z</time></trkpt><trkpt lat="38.7265283" lon="16.359595"><ele>876.5</ele><time>2026-04-27T12:36:46.654Z</time></trkpt><trkpt lat="38.72655" lon="16.3594333"><ele>879.25</ele><time>2026-04-27T12:36:47.65Z</time></trkpt><trkpt lat="38.726585" lon="16.3592567"><ele>882.0</ele><time>2026-04-27T12:36:48.656Z</time></trkpt><trkpt lat="38.7266167" lon="16.35911"><ele>882.0</ele><time>2026-04-27T12:36:49.653Z</time></trkpt><trkpt lat="38.7266283" lon="16.358975"><ele>882.0</ele><time>2026-04-27T12:36:50.682Z</time></trkpt><trkpt lat="38.7266283" lon="16.3588583"><ele>882.0</ele><time>2026-04-27T12:36:51.652Z</time></trkpt><trkpt lat="38.7266417" lon="16.3587383"><ele>882.0</ele><time>2026-04-27T12:36:52.65Z</time></trkpt><trkpt lat="38.7266483" lon="16.3586517"><ele>882.0</ele><time>2026-04-27T12:36:53.652Z</time></trkpt><trkpt lat="38.7265917" lon="16.35857"><ele>882.0</ele><time>2026-04-27T12:36:55.65Z</time></trkpt><trkpt lat="38.7264667" lon="16.35854"><ele>881.6</ele><time>2026-04-27T12:36:57.654Z</time></trkpt><trkpt lat="38.72638" lon="16.3585067"><ele>881.2</ele><time>2026-04-27T12:36:58.661Z</time></trkpt><trkpt lat="38.726285" lon="16.35848"><ele>880.8</ele><time>2026-04-27T12:36:59.652Z</time></trkpt><trkpt lat="38.7262" lon="16.3584583"><ele>880.4</ele><time>2026-04-27T12:37:00.655Z</time></trkpt><trkpt lat="38.7260917" lon="16.35846"><ele>880.0</ele><time>2026-04-27T12:37:01.649Z</time></trkpt><trkpt lat="38.72601" lon="16.3584767"><ele>879.9999999999999</ele><time>2026-04-27T12:37:02.688Z</time></trkpt><trkpt lat="38.725935" lon="16.3585033"><ele>880.0</ele><time>2026-04-27T12:37:03.651Z</time></trkpt><trkpt lat="38.7258533" lon="16.3585083"><ele>880.0</ele><time>2026-04-27T12:37:04.653Z</time></trkpt><trkpt lat="38.725775" lon="16.3584967"><ele>880.0</ele><time>2026-04-27T12:37:05.652Z</time></trkpt><trkpt lat="38.7257033" lon="16.3584233"><ele>879.9999999999999</ele><time>2026-04-27T12:37:06.657Z</time></trkpt><trkpt lat="38.7256517" lon="16.35832"><ele>880.0</ele><time>2026-04-27T12:37:07.653Z</time></trkpt><trkpt lat="38.72561" lon="16.35822"><ele>879.9999999999999</ele><time>2026-04-27T12:37:08.687Z</time></trkpt><trkpt lat="38.7255783" lon="16.3581217"><ele>880.0</ele><time>2026-04-27T12:37:09.655Z</time></trkpt><trkpt lat="38.7255533" lon="16.3580183"><ele>880.0</ele><time>2026-04-27T12:37:10.649Z</time></trkpt><trkpt lat="38.7255433" lon="16.35792"><ele>880.0</ele><time>2026-04-27T12:37:11.65Z</time></trkpt><trkpt lat="38.72552" lon="16.357835"><ele>879.9999999999999</ele><time>2026-04-27T12:37:12.656Z</time></trkpt><trkpt lat="38.7254933" lon="16.3577067"><ele>880.0</ele><time>2026-04-27T12:37:14.682Z</time></trkpt><trkpt lat="38.725405" lon="16.35759"><ele>879.0</ele><time>2026-04-27T12:37:16.657Z</time></trkpt><trkpt lat="38.72536" lon="16.357525"><ele>878.0</ele><time>2026-04-27T12:37:17.649Z</time></trkpt><trkpt lat="38.725295" lon="16.35738"><ele>877.0</ele><time>2026-04-27T12:37:19.659Z</time></trkpt><trkpt lat="38.72526" lon="16.3572933"><ele>876.0</ele><time>2026-04-27T12:37:20.682Z</time></trkpt><trkpt lat="38.7252233" lon="16.357185"><ele>875.0</ele><time>2026-04-27T12:37:21.65Z</time></trkpt><trkpt lat="38.7252033" lon="16.3570367"><ele>875.0</ele><time>2026-04-27T12:37:22.657Z</time></trkpt><trkpt lat="38.7251733" lon="16.3568767"><ele>875.0</ele><time>2026-04-27T12:37:23.654Z</time></trkpt><trkpt lat="38.7251283" lon="16.3567117"><ele>875.0</ele><time>2026-04-27T12:37:24.665Z</time></trkpt><trkpt lat="38.7250883" lon="16.3565767"><ele>875.0</ele><time>2026-04-27T12:37:25.649Z</time></trkpt><trkpt lat="38.7250617" lon="16.35644"><ele>877.8</ele><time>2026-04-27T12:37:26.701Z</time></trkpt><trkpt lat="38.7250367" lon="16.3562783"><ele>880.6</ele><time>2026-04-27T12:37:27.65Z</time></trkpt><trkpt lat="38.7250167" lon="16.356145"><ele>883.4000000000001</ele><time>2026-04-27T12:37:28.653Z</time></trkpt><trkpt lat="38.7249917" lon="16.356035"><ele>886.2</ele><time>2026-04-27T12:37:29.656Z</time></trkpt><trkpt lat="38.7249617" lon="16.3559567"><ele>889.0</ele><time>2026-04-27T12:37:30.658Z</time></trkpt><trkpt lat="38.7248517" lon="16.3558283"><ele>888.9999999999999</ele><time>2026-04-27T12:37:32.695Z</time></trkpt><trkpt lat="38.7247617" lon="16.3557817"><ele>889.0</ele><time>2026-04-27T12:37:33.653Z</time></trkpt><trkpt lat="38.7246917" lon="16.3557417"><ele>889.0</ele><time>2026-04-27T12:37:34.65Z</time></trkpt><trkpt lat="38.72461" lon="16.355725"><ele>889.0</ele><time>2026-04-27T12:37:36.661Z</time></trkpt><trkpt lat="38.72455" lon="16.35583"><ele>888.9999999999999</ele><time>2026-04-27T12:37:38.688Z</time></trkpt><trkpt lat="38.72452" lon="16.35593"><ele>889.0</ele><time>2026-04-27T12:37:39.653Z</time></trkpt><trkpt lat="38.724475" lon="16.3560233"><ele>889.0</ele><time>2026-04-27T12:37:40.651Z</time></trkpt><trkpt lat="38.7244283" lon="16.3561167"><ele>889.0000000000001</ele><time>2026-04-27T12:37:41.65Z</time></trkpt><trkpt lat="38.7243533" lon="16.3562433"><ele>889.0000000000001</ele><time>2026-04-27T12:37:42.656Z</time></trkpt><trkpt lat="38.724275" lon="16.3563083"><ele>889.0</ele><time>2026-04-27T12:37:43.652Z</time></trkpt><trkpt lat="38.7241933" lon="16.3563483"><ele>889.0</ele><time>2026-04-27T12:37:44.686Z</time></trkpt><trkpt lat="38.7241" lon="16.3563717"><ele>885.1666666666666</ele><time>2026-04-27T12:37:45.655Z</time></trkpt><trkpt lat="38.7240083" lon="16.3564"><ele>881.3333333333333</ele><time>2026-04-27T12:37:46.65Z</time></trkpt><trkpt lat="38.7239117" lon="16.35644"><ele>877.5</ele><time>2026-04-27T12:37:47.65Z</time></trkpt><trkpt lat="38.7238183" lon="16.3564717"><ele>873.6666666666667</ele><time>2026-04-27T12:37:48.66Z</time></trkpt><trkpt lat="38.7237483" lon="16.3564733"><ele>869.8333333333334</ele><time>2026-04-27T12:37:49.653Z</time></trkpt><trkpt lat="38.7236683" lon="16.35649"><ele>866.0</ele><time>2026-04-27T12:37:50.687Z</time></trkpt><trkpt lat="38.7235867" lon="16.3565367"><ele>869.4</ele><time>2026-04-27T12:37:52.652Z</time></trkpt><trkpt lat="38.7235233" lon="16.35656"><ele>872.8</ele><time>2026-04-27T12:37:54.66Z</time></trkpt><trkpt lat="38.7234283" lon="16.3565783"><ele>876.1999999999999</ele><time>2026-04-27T12:37:56.697Z</time></trkpt><trkpt lat="38.7233367" lon="16.3566083"><ele>879.5999999999999</ele><time>2026-04-27T12:37:57.651Z</time></trkpt><trkpt lat="38.7232517" lon="16.3566383"><ele>883.0</ele><time>2026-04-27T12:37:58.653Z</time></trkpt><trkpt lat="38.7231083" lon="16.3567083"><ele>883.0</ele><time>2026-04-27T12:37:59.652Z</time></trkpt><trkpt lat="38.7229767" lon="16.3567767"><ele>883.0</ele><time>2026-04-27T12:38:00.658Z</time></trkpt><trkpt lat="38.7228417" lon="16.356835"><ele>883.0</ele><time>2026-04-27T12:38:01.658Z</time></trkpt><trkpt lat="38.7227183" lon="16.356895"><ele>883.0</ele><time>2026-04-27T12:38:02.693Z</time></trkpt><trkpt lat="38.7226217" lon="16.3569467"><ele>885.8</ele><time>2026-04-27T12:38:03.648Z</time></trkpt><trkpt lat="38.7225217" lon="16.3570117"><ele>888.5999999999999</ele><time>2026-04-27T12:38:04.647Z</time></trkpt><trkpt lat="38.722425" lon="16.3570583"><ele>891.4000000000001</ele><time>2026-04-27T12:38:05.65Z</time></trkpt><trkpt lat="38.7223133" lon="16.3571083"><ele>894.2</ele><time>2026-04-27T12:38:06.654Z</time></trkpt><trkpt lat="38.7222067" lon="16.357155"><ele>897.0</ele><time>2026-04-27T12:38:07.65Z</time></trkpt><trkpt lat="38.7221133" lon="16.357185"><ele>894.1666666666666</ele><time>2026-04-27T12:38:08.683Z</time></trkpt><trkpt lat="38.7220317" lon="16.3572133"><ele>891.3333333333333</ele><time>2026-04-27T12:38:09.65Z</time></trkpt><trkpt lat="38.7219483" lon="16.3572333"><ele>888.5</ele><time>2026-04-27T12:38:10.655Z</time></trkpt><trkpt lat="38.7218717" lon="16.3572433"><ele>885.6666666666666</ele><time>2026-04-27T12:38:11.651Z</time></trkpt><trkpt lat="38.721795" lon="16.3572633"><ele>882.8333333333333</ele><time>2026-04-27T12:38:12.652Z</time></trkpt><trkpt lat="38.7216833" lon="16.357265"><ele>880.0</ele><time>2026-04-27T12:38:14.679Z</time></trkpt><trkpt lat="38.7215583" lon="16.3572633"><ele>879.9999999999999</ele><time>2026-04-27T12:38:16.657Z</time></trkpt><trkpt lat="38.721485" lon="16.3572867"><ele>880.0</ele><time>2026-04-27T12:38:17.653Z</time></trkpt><trkpt lat="38.7214133" lon="16.3573067"><ele>880.0</ele><time>2026-04-27T12:38:18.657Z</time></trkpt><trkpt lat="38.72129" lon="16.357315"><ele>880.0</ele><time>2026-04-27T12:38:20.686Z</time></trkpt><trkpt lat="38.721225" lon="16.3573483"><ele>879.9999999999999</ele><time>2026-04-27T12:38:22.655Z</time></trkpt><trkpt lat="38.7212317" lon="16.357265"><ele>880.0</ele><time>2026-04-27T12:38:27.651Z</time></trkpt><trkpt lat="38.721285" lon="16.3571717"><ele>882.6666666666666</ele><time>2026-04-27T12:38:29.652Z</time></trkpt><trkpt lat="38.7213217" lon="16.357075"><ele>885.3333333333333</ele><time>2026-04-27T12:38:31.652Z</time></trkpt><trkpt lat="38.7213467" lon="16.3569883"><ele>888.0</ele><time>2026-04-27T12:38:33.649Z</time></trkpt><trkpt lat="38.7213717" lon="16.3568883"><ele>890.6666666666667</ele><time>2026-04-27T12:38:35.661Z</time></trkpt><trkpt lat="38.7213783" lon="16.3567833"><ele>893.3333333333334</ele><time>2026-04-27T12:38:37.656Z</time></trkpt><trkpt lat="38.721385" lon="16.35664"><ele>896.0</ele><time>2026-04-27T12:38:39.653Z</time></trkpt><trkpt lat="38.7213983" lon="16.3564867"><ele>896.0</ele><time>2026-04-27T12:38:41.657Z</time></trkpt><trkpt lat="38.7214083" lon="16.3563983"><ele>895.9999999999999</ele><time>2026-04-27T12:38:42.652Z</time></trkpt><trkpt lat="38.7214083" lon="16.3563017"><ele>895.9999999999999</ele><time>2026-04-27T12:38:43.655Z</time></trkpt><trkpt lat="38.721405" lon="16.3561567"><ele>896.0</ele><time>2026-04-27T12:38:45.653Z</time></trkpt><trkpt lat="38.7213983" lon="16.3560267"><ele>896.0</ele><time>2026-04-27T12:38:47.652Z</time></trkpt><trkpt lat="38.7213467" lon="16.35592"><ele>897.6666666666667</ele><time>2026-04-27T12:38:55.655Z</time></trkpt><trkpt lat="38.721345" lon="16.3558317"><ele>899.3333333333334</ele><time>2026-04-27T12:39:00.646Z</time></trkpt><trkpt lat="38.7214167" lon="16.3557683"><ele>901.0</ele><time>2026-04-27T12:39:08.682Z</time></trkpt><trkpt lat="38.7215033" lon="16.35568"><ele>902.6666666666667</ele><time>2026-04-27T12:39:24.649Z</time></trkpt><trkpt lat="38.7215683" lon="16.3556233"><ele>904.3333333333334</ele><time>2026-04-27T12:39:28.65Z</time></trkpt><trkpt lat="38.721555" lon="16.3555083"><ele>906.0</ele><time>2026-04-27T12:39:32.701Z</time></trkpt><trkpt lat="38.7214867" lon="16.355415"><ele>908.4</ele><time>2026-04-27T12:39:34.656Z</time></trkpt><trkpt lat="38.72141" lon="16.35536"><ele>910.8</ele><time>2026-04-27T12:39:36.646Z</time></trkpt><trkpt lat="38.721355" lon="16.355305"><ele>913.1999999999999</ele><time>2026-04-27T12:39:38.682Z</time></trkpt><trkpt lat="38.721245" lon="16.3552667"><ele>915.5999999999999</ele><time>2026-04-27T12:40:10.657Z</time></trkpt><trkpt lat="38.7211867" lon="16.355195"><ele>918.0</ele><time>2026-04-27T12:40:13.65Z</time></trkpt><trkpt lat="38.7211517" lon="16.3550717"><ele>918.0</ele><time>2026-04-27T12:40:15.649Z</time></trkpt><trkpt lat="38.72116" lon="16.3549817"><ele>918.0</ele><time>2026-04-27T12:40:16.653Z</time></trkpt><trkpt lat="38.7211767" lon="16.3548267"><ele>918.0</ele><time>2026-04-27T12:40:18.654Z</time></trkpt><trkpt lat="38.7211983" lon="16.3547267"><ele>918.0</ele><time>2026-04-27T12:40:19.644Z</time></trkpt><trkpt lat="38.7212017" lon="16.35461"><ele>918.0</ele><time>2026-04-27T12:40:20.679Z</time></trkpt><trkpt lat="38.7212117" lon="16.3544917"><ele>920.5</ele><time>2026-04-27T12:40:21.652Z</time></trkpt><trkpt lat="38.7212233" lon="16.354355"><ele>923.0</ele><time>2026-04-27T12:40:22.649Z</time></trkpt><trkpt lat="38.721235" lon="16.3542067"><ele>925.5</ele><time>2026-04-27T12:40:23.648Z</time></trkpt><trkpt lat="38.7212483" lon="16.3540617"><ele>928.0</ele><time>2026-04-27T12:40:24.66Z</time></trkpt><trkpt lat="38.721255" lon="16.353915"><ele>929.2</ele><time>2026-04-27T12:40:25.649Z</time></trkpt><trkpt lat="38.7212683" lon="16.3537533"><ele>930.4</ele><time>2026-04-27T12:40:26.693Z</time></trkpt><trkpt lat="38.7212617" lon="16.3536417"><ele>931.6000000000001</ele><time>2026-04-27T12:40:27.65Z</time></trkpt><trkpt lat="38.7212583" lon="16.3535283"><ele>932.8000000000001</ele><time>2026-04-27T12:40:28.651Z</time></trkpt><trkpt lat="38.7212617" lon="16.3534233"><ele>934.0</ele><time>2026-04-27T12:40:29.657Z</time></trkpt><trkpt lat="38.7212583" lon="16.3533167"><ele>933.9999999999999</ele><time>2026-04-27T12:40:30.652Z</time></trkpt><trkpt lat="38.72126" lon="16.35321"><ele>934.0</ele><time>2026-04-27T12:40:31.652Z</time></trkpt><trkpt lat="38.721265" lon="16.3531033"><ele>934.0</ele><time>2026-04-27T12:40:32.694Z</time></trkpt><trkpt lat="38.7212767" lon="16.3530017"><ele>934.0</ele><time>2026-04-27T12:40:33.654Z</time></trkpt><trkpt lat="38.7212817" lon="16.3529167"><ele>933.9999999999999</ele><time>2026-04-27T12:40:34.65Z</time></trkpt><trkpt lat="38.72128" lon="16.3528317"><ele>934.0</ele><time>2026-04-27T12:40:35.648Z</time></trkpt><trkpt lat="38.7212767" lon="16.3527317"><ele>934.6</ele><time>2026-04-27T12:40:36.645Z</time></trkpt><trkpt lat="38.7212633" lon="16.3526283"><ele>935.2</ele><time>2026-04-27T12:40:37.653Z</time></trkpt><trkpt lat="38.7212517" lon="16.3524983"><ele>935.8000000000001</ele><time>2026-04-27T12:40:38.679Z</time></trkpt><trkpt lat="38.7212317" lon="16.352355"><ele>936.4000000000001</ele><time>2026-04-27T12:40:39.648Z</time></trkpt><trkpt lat="38.7211717" lon="16.3522583"><ele>937.0</ele><time>2026-04-27T12:40:40.651Z</time></trkpt><trkpt lat="38.7211283" lon="16.3521683"><ele>935.8333333333333</ele><time>2026-04-27T12:40:41.654Z</time></trkpt><trkpt lat="38.721055" lon="16.35207"><ele>934.6666666666666</ele><time>2026-04-27T12:40:43.655Z</time></trkpt><trkpt lat="38.721015" lon="16.3519883"><ele>933.5</ele><time>2026-04-27T12:40:48.649Z</time></trkpt><trkpt lat="38.7210117" lon="16.3519067"><ele>932.3333333333333</ele><time>2026-04-27T12:40:50.675Z</time></trkpt><trkpt lat="38.721" lon="16.35181"><ele>931.1666666666666</ele><time>2026-04-27T12:40:54.653Z</time></trkpt><trkpt lat="38.7209833" lon="16.3517267"><ele>930.0</ele><time>2026-04-27T12:40:56.695Z</time></trkpt><trkpt lat="38.720985" lon="16.3516283"><ele>930.0</ele><time>2026-04-27T12:40:58.647Z</time></trkpt><trkpt lat="38.7209633" lon="16.3514833"><ele>930.0</ele><time>2026-04-27T12:41:00.652Z</time></trkpt><trkpt lat="38.7209367" lon="16.3513817"><ele>930.0</ele><time>2026-04-27T12:41:01.655Z</time></trkpt><trkpt lat="38.7209133" lon="16.35129"><ele>930.0</ele><time>2026-04-27T12:41:02.695Z</time></trkpt><trkpt lat="38.7208967" lon="16.3511967"><ele>930.0</ele><time>2026-04-27T12:41:03.649Z</time></trkpt><trkpt lat="38.720875" lon="16.3510867"><ele>930.0</ele><time>2026-04-27T12:41:04.654Z</time></trkpt><trkpt lat="38.7208383" lon="16.350975"><ele>930.6</ele><time>2026-04-27T12:41:05.652Z</time></trkpt><trkpt lat="38.720815" lon="16.3508233"><ele>931.2</ele><time>2026-04-27T12:41:06.656Z</time></trkpt><trkpt lat="38.7208017" lon="16.3507"><ele>931.8</ele><time>2026-04-27T12:41:07.65Z</time></trkpt><trkpt lat="38.720795" lon="16.350595"><ele>932.4</ele><time>2026-04-27T12:41:08.685Z</time></trkpt><trkpt lat="38.720775" lon="16.350515"><ele>933.0</ele><time>2026-04-27T12:41:09.65Z</time></trkpt><trkpt lat="38.7207633" lon="16.3503867"><ele>933.6666666666666</ele><time>2026-04-27T12:41:11.657Z</time></trkpt><trkpt lat="38.720705" lon="16.3503433"><ele>934.3333333333333</ele><time>2026-04-27T12:41:14.687Z</time></trkpt><trkpt lat="38.720635" lon="16.3503433"><ele>935.0</ele><time>2026-04-27T12:41:16.653Z</time></trkpt><trkpt lat="38.7205583" lon="16.3503733"><ele>935.6666666666666</ele><time>2026-04-27T12:41:18.658Z</time></trkpt><trkpt lat="38.72046" lon="16.3504267"><ele>936.3333333333333</ele><time>2026-04-27T12:41:20.685Z</time></trkpt><trkpt lat="38.720365" lon="16.350485"><ele>937.0</ele><time>2026-04-27T12:41:22.654Z</time></trkpt><trkpt lat="38.7202583" lon="16.3504967"><ele>935.4000000000001</ele><time>2026-04-27T12:41:24.658Z</time></trkpt><trkpt lat="38.72016" lon="16.3504933"><ele>933.8000000000001</ele><time>2026-04-27T12:41:26.697Z</time></trkpt><trkpt lat="38.720085" lon="16.3505117"><ele>932.2</ele><time>2026-04-27T12:41:28.655Z</time></trkpt><trkpt lat="38.719995" lon="16.35058"><ele>930.6</ele><time>2026-04-27T12:41:30.649Z</time></trkpt><trkpt lat="38.7198967" lon="16.3506583"><ele>929.0</ele><time>2026-04-27T12:41:32.703Z</time></trkpt><trkpt lat="38.719825" lon="16.3506967"><ele>927.8333333333334</ele><time>2026-04-27T12:41:33.652Z</time></trkpt><trkpt lat="38.7197617" lon="16.3507383"><ele>926.6666666666667</ele><time>2026-04-27T12:41:34.658Z</time></trkpt><trkpt lat="38.71966" lon="16.350785"><ele>925.5</ele><time>2026-04-27T12:41:36.656Z</time></trkpt><trkpt lat="38.7195983" lon="16.350855"><ele>924.3333333333333</ele><time>2026-04-27T12:41:38.683Z</time></trkpt><trkpt lat="38.7195433" lon="16.3509383"><ele>923.1666666666666</ele><time>2026-04-27T12:41:41.656Z</time></trkpt><trkpt lat="38.719465" lon="16.35101"><ele>922.0</ele><time>2026-04-27T12:41:43.659Z</time></trkpt><trkpt lat="38.7194067" lon="16.35105"><ele>920.8333333333333</ele><time>2026-04-27T12:41:44.686Z</time></trkpt><trkpt lat="38.7193517" lon="16.3511033"><ele>919.6666666666666</ele><time>2026-04-27T12:41:45.656Z</time></trkpt><trkpt lat="38.7192867" lon="16.35115"><ele>918.5</ele><time>2026-04-27T12:41:46.652Z</time></trkpt><trkpt lat="38.7192133" lon="16.3512083"><ele>917.3333333333333</ele><time>2026-04-27T12:41:47.651Z</time></trkpt><trkpt lat="38.7191383" lon="16.3512717"><ele>916.1666666666666</ele><time>2026-04-27T12:41:48.657Z</time></trkpt><trkpt lat="38.7190617" lon="16.3513333"><ele>915.0</ele><time>2026-04-27T12:41:49.655Z</time></trkpt><trkpt lat="38.71899" lon="16.3514033"><ele>915.0</ele><time>2026-04-27T12:41:50.684Z</time></trkpt><trkpt lat="38.7189233" lon="16.3514717"><ele>915.0</ele><time>2026-04-27T12:41:51.647Z</time></trkpt><trkpt lat="38.718845" lon="16.35153"><ele>915.0</ele><time>2026-04-27T12:41:52.653Z</time></trkpt><trkpt lat="38.7187533" lon="16.3515983"><ele>915.0</ele><time>2026-04-27T12:41:53.649Z</time></trkpt><trkpt lat="38.7186617" lon="16.3516633"><ele>915.0</ele><time>2026-04-27T12:41:54.657Z</time></trkpt><trkpt lat="38.7185633" lon="16.3517183"><ele>915.0</ele><time>2026-04-27T12:41:55.652Z</time></trkpt><trkpt lat="38.71848" lon="16.35177"><ele>915.0</ele><time>2026-04-27T12:41:56.697Z</time></trkpt><trkpt lat="38.7183983" lon="16.3518067"><ele>915.0</ele><time>2026-04-27T12:41:57.649Z</time></trkpt><trkpt lat="38.7183183" lon="16.3518483"><ele>915.0</ele><time>2026-04-27T12:41:58.653Z</time></trkpt><trkpt lat="38.7182317" lon="16.3518917"><ele>915.0</ele><time>2026-04-27T12:41:59.653Z</time></trkpt><trkpt lat="38.7181333" lon="16.351945"><ele>915.0</ele><time>2026-04-27T12:42:00.66Z</time></trkpt><trkpt lat="38.71801" lon="16.3519933"><ele>915.0</ele><time>2026-04-27T12:42:01.653Z</time></trkpt><trkpt lat="38.717895" lon="16.3520233"><ele>915.0</ele><time>2026-04-27T12:42:02.697Z</time></trkpt><trkpt lat="38.71777" lon="16.3520567"><ele>915.0</ele><time>2026-04-27T12:42:03.656Z</time></trkpt><trkpt lat="38.7176333" lon="16.3520917"><ele>914.5</ele><time>2026-04-27T12:42:04.655Z</time></trkpt><trkpt lat="38.7175017" lon="16.35213"><ele>914.0</ele><time>2026-04-27T12:42:05.653Z</time></trkpt><trkpt lat="38.7173783" lon="16.3521633"><ele>913.5</ele><time>2026-04-27T12:42:06.655Z</time></trkpt><trkpt lat="38.717265" lon="16.3521817"><ele>913.0</ele><time>2026-04-27T12:42:07.649Z</time></trkpt><trkpt lat="38.7171667" lon="16.3522"><ele>912.5999999999999</ele><time>2026-04-27T12:42:08.687Z</time></trkpt><trkpt lat="38.7170717" lon="16.3522083"><ele>912.1999999999999</ele><time>2026-04-27T12:42:09.654Z</time></trkpt><trkpt lat="38.7169783" lon="16.35221"><ele>911.8</ele><time>2026-04-27T12:42:10.66Z</time></trkpt><trkpt lat="38.7168933" lon="16.3521933"><ele>911.4</ele><time>2026-04-27T12:42:11.646Z</time></trkpt><trkpt lat="38.7167833" lon="16.352195"><ele>911.0</ele><time>2026-04-27T12:42:12.657Z</time></trkpt><trkpt lat="38.7166783" lon="16.352205"><ele>910.0</ele><time>2026-04-27T12:42:13.652Z</time></trkpt><trkpt lat="38.7165733" lon="16.35221"><ele>909.0</ele><time>2026-04-27T12:42:14.688Z</time></trkpt><trkpt lat="38.7164617" lon="16.3522167"><ele>908.0</ele><time>2026-04-27T12:42:15.651Z</time></trkpt><trkpt lat="38.7163233" lon="16.3522233"><ele>907.0</ele><time>2026-04-27T12:42:16.657Z</time></trkpt><trkpt lat="38.7161967" lon="16.3522367"><ele>907.5</ele><time>2026-04-27T12:42:17.649Z</time></trkpt><trkpt lat="38.7160683" lon="16.352255"><ele>908.0</ele><time>2026-04-27T12:42:18.659Z</time></trkpt><trkpt lat="38.715945" lon="16.3522667"><ele>908.5</ele><time>2026-04-27T12:42:19.651Z</time></trkpt><trkpt lat="38.7158367" lon="16.35228"><ele>909.0</ele><time>2026-04-27T12:42:20.685Z</time></trkpt><trkpt lat="38.7157433" lon="16.3523"><ele>909.0</ele><time>2026-04-27T12:42:21.651Z</time></trkpt><trkpt lat="38.7156733" lon="16.3523733"><ele>909.0</ele><time>2026-04-27T12:42:22.654Z</time></trkpt><trkpt lat="38.715625" lon="16.3524467"><ele>909.0</ele><time>2026-04-27T12:42:23.652Z</time></trkpt><trkpt lat="38.7155967" lon="16.3525433"><ele>909.0</ele><time>2026-04-27T12:42:24.659Z</time></trkpt><trkpt lat="38.7155233" lon="16.3526617"><ele>909.0</ele><time>2026-04-27T12:42:26.704Z</time></trkpt><trkpt lat="38.7154783" lon="16.3527483"><ele>909.0</ele><time>2026-04-27T12:42:28.657Z</time></trkpt><trkpt lat="38.715445" lon="16.3528183"><ele>909.0</ele><time>2026-04-27T12:42:30.656Z</time></trkpt><trkpt lat="38.71536" lon="16.3528933"><ele>909.0000000000001</ele><time>2026-04-27T12:42:32.696Z</time></trkpt><trkpt lat="38.7152817" lon="16.352985"><ele>909.0000000000001</ele><time>2026-04-27T12:42:34.654Z</time></trkpt><trkpt lat="38.7152167" lon="16.353055"><ele>909.0</ele><time>2026-04-27T12:42:36.648Z</time></trkpt><trkpt lat="38.7151467" lon="16.3531017"><ele>909.0</ele><time>2026-04-27T12:42:38.684Z</time></trkpt><trkpt lat="38.7150633" lon="16.3531517"><ele>907.0</ele><time>2026-04-27T12:42:40.656Z</time></trkpt><trkpt lat="38.7150017" lon="16.35318"><ele>905.0</ele><time>2026-04-27T12:42:41.645Z</time></trkpt><trkpt lat="38.7149067" lon="16.353235"><ele>903.0</ele><time>2026-04-27T12:42:43.652Z</time></trkpt><trkpt lat="38.7147933" lon="16.353245"><ele>901.0</ele><time>2026-04-27T12:42:45.652Z</time></trkpt><trkpt lat="38.7147167" lon="16.3532417"><ele>899.0</ele><time>2026-04-27T12:42:46.653Z</time></trkpt><trkpt lat="38.7146367" lon="16.353235"><ele>897.0</ele><time>2026-04-27T12:42:47.655Z</time></trkpt><trkpt lat="38.714565" lon="16.3532267"><ele>897.0</ele><time>2026-04-27T12:42:48.658Z</time></trkpt><trkpt lat="38.71449" lon="16.3532217"><ele>897.0</ele><time>2026-04-27T12:42:49.652Z</time></trkpt><trkpt lat="38.71442" lon="16.3532167"><ele>897.0</ele><time>2026-04-27T12:42:50.682Z</time></trkpt><trkpt lat="38.714345" lon="16.35322"><ele>897.0</ele><time>2026-04-27T12:42:51.651Z</time></trkpt><trkpt lat="38.71428" lon="16.3532333"><ele>897.0</ele><time>2026-04-27T12:42:52.655Z</time></trkpt><trkpt lat="38.714215" lon="16.3532633"><ele>897.0</ele><time>2026-04-27T12:42:53.65Z</time></trkpt><trkpt lat="38.7141533" lon="16.353305"><ele>897.0</ele><time>2026-04-27T12:42:54.654Z</time></trkpt><trkpt lat="38.7141083" lon="16.353365"><ele>896.4000000000001</ele><time>2026-04-27T12:42:55.656Z</time></trkpt><trkpt lat="38.71404" lon="16.3534783"><ele>895.8000000000001</ele><time>2026-04-27T12:42:57.65Z</time></trkpt><trkpt lat="38.7139617" lon="16.353595"><ele>895.2</ele><time>2026-04-27T12:42:59.65Z</time></trkpt><trkpt lat="38.713915" lon="16.3536833"><ele>894.6</ele><time>2026-04-27T12:43:00.647Z</time></trkpt><trkpt lat="38.7138633" lon="16.3537883"><ele>894.0</ele><time>2026-04-27T12:43:01.648Z</time></trkpt><trkpt lat="38.7138067" lon="16.3539"><ele>891.5</ele><time>2026-04-27T12:43:02.691Z</time></trkpt><trkpt lat="38.71376" lon="16.35404"><ele>889.0</ele><time>2026-04-27T12:43:03.649Z</time></trkpt><trkpt lat="38.7137183" lon="16.354205"><ele>886.5</ele><time>2026-04-27T12:43:04.653Z</time></trkpt><trkpt lat="38.7136683" lon="16.3543783"><ele>884.0</ele><time>2026-04-27T12:43:05.651Z</time></trkpt><trkpt lat="38.7136283" lon="16.3545383"><ele>884.0</ele><time>2026-04-27T12:43:06.658Z</time></trkpt><trkpt lat="38.7135967" lon="16.35469"><ele>884.0000000000001</ele><time>2026-04-27T12:43:07.652Z</time></trkpt><trkpt lat="38.713555" lon="16.3548167"><ele>884.0000000000001</ele><time>2026-04-27T12:43:08.687Z</time></trkpt><trkpt lat="38.713535" lon="16.354905"><ele>884.0</ele><time>2026-04-27T12:43:09.649Z</time></trkpt><trkpt lat="38.7135667" lon="16.35506"><ele>884.0</ele><time>2026-04-27T12:43:11.65Z</time></trkpt><trkpt lat="38.7135933" lon="16.3552017"><ele>882.8000000000001</ele><time>2026-04-27T12:43:13.649Z</time></trkpt><trkpt lat="38.7136117" lon="16.355285"><ele>881.6000000000001</ele><time>2026-04-27T12:43:14.682Z</time></trkpt><trkpt lat="38.7136267" lon="16.3553817"><ele>880.4</ele><time>2026-04-27T12:43:15.656Z</time></trkpt><trkpt lat="38.71364" lon="16.3554933"><ele>879.2</ele><time>2026-04-27T12:43:16.662Z</time></trkpt><trkpt lat="38.7136533" lon="16.3556267"><ele>878.0</ele><time>2026-04-27T12:43:17.657Z</time></trkpt><trkpt lat="38.7136517" lon="16.35578"><ele>876.75</ele><time>2026-04-27T12:43:18.656Z</time></trkpt><trkpt lat="38.7136433" lon="16.355955"><ele>875.5</ele><time>2026-04-27T12:43:19.655Z</time></trkpt><trkpt lat="38.7136383" lon="16.3561133"><ele>874.25</ele><time>2026-04-27T12:43:20.687Z</time></trkpt><trkpt lat="38.713625" lon="16.3562583"><ele>873.0</ele><time>2026-04-27T12:43:21.65Z</time></trkpt><trkpt lat="38.7136183" lon="16.3563933"><ele>873.0</ele><time>2026-04-27T12:43:22.655Z</time></trkpt><trkpt lat="38.7136017" lon="16.3565267"><ele>873.0</ele><time>2026-04-27T12:43:23.65Z</time></trkpt><trkpt lat="38.7135567" lon="16.3566367"><ele>873.0</ele><time>2026-04-27T12:43:24.658Z</time></trkpt><trkpt lat="38.71351" lon="16.356765"><ele>873.0</ele><time>2026-04-27T12:43:25.653Z</time></trkpt><trkpt lat="38.7134433" lon="16.3568933"><ele>873.0</ele><time>2026-04-27T12:43:26.699Z</time></trkpt><trkpt lat="38.713405" lon="16.35705"><ele>877.0</ele><time>2026-04-27T12:43:27.65Z</time></trkpt><trkpt lat="38.71337" lon="16.3572333"><ele>881.0</ele><time>2026-04-27T12:43:28.654Z</time></trkpt><trkpt lat="38.713335" lon="16.3573983"><ele>885.0</ele><time>2026-04-27T12:43:29.655Z</time></trkpt><trkpt lat="38.7133117" lon="16.3575617"><ele>889.0</ele><time>2026-04-27T12:43:30.657Z</time></trkpt><trkpt lat="38.7132917" lon="16.35767"><ele>888.9999999999999</ele><time>2026-04-27T12:43:31.649Z</time></trkpt><trkpt lat="38.7132817" lon="16.3577783"><ele>889.0</ele><time>2026-04-27T12:43:32.695Z</time></trkpt><trkpt lat="38.7132683" lon="16.3578817"><ele>889.0</ele><time>2026-04-27T12:43:33.644Z</time></trkpt><trkpt lat="38.7132433" lon="16.3579733"><ele>889.0</ele><time>2026-04-27T12:43:34.647Z</time></trkpt><trkpt lat="38.713215" lon="16.3580583"><ele>888.9999999999999</ele><time>2026-04-27T12:43:35.653Z</time></trkpt><trkpt lat="38.7132033" lon="16.358145"><ele>889.0</ele><time>2026-04-27T12:43:36.657Z</time></trkpt><trkpt lat="38.7131667" lon="16.3582217"><ele>888.3333333333333</ele><time>2026-04-27T12:43:37.653Z</time></trkpt><trkpt lat="38.7131433" lon="16.3583117"><ele>887.6666666666666</ele><time>2026-04-27T12:43:38.689Z</time></trkpt><trkpt lat="38.7131117" lon="16.3584117"><ele>887.0</ele><time>2026-04-27T12:43:39.652Z</time></trkpt><trkpt lat="38.7131" lon="16.358515"><ele>886.3333333333333</ele><time>2026-04-27T12:43:40.653Z</time></trkpt><trkpt lat="38.713095" lon="16.3586233"><ele>885.6666666666666</ele><time>2026-04-27T12:43:41.649Z</time></trkpt><trkpt lat="38.7130583" lon="16.358725"><ele>885.0</ele><time>2026-04-27T12:43:42.652Z</time></trkpt><trkpt lat="38.713" lon="16.3588133"><ele>883.6666666666666</ele><time>2026-04-27T12:43:43.652Z</time></trkpt><trkpt lat="38.7129783" lon="16.358915"><ele>882.3333333333333</ele><time>2026-04-27T12:43:44.684Z</time></trkpt><trkpt lat="38.71292" lon="16.3590067"><ele>881.0</ele><time>2026-04-27T12:43:45.651Z</time></trkpt><trkpt lat="38.7128567" lon="16.359085"><ele>879.6666666666666</ele><time>2026-04-27T12:43:46.653Z</time></trkpt><trkpt lat="38.712795" lon="16.3591567"><ele>878.3333333333333</ele><time>2026-04-27T12:43:47.651Z</time></trkpt><trkpt lat="38.71271" lon="16.3591883"><ele>877.0</ele><time>2026-04-27T12:43:48.651Z</time></trkpt><trkpt lat="38.71262" lon="16.3591817"><ele>876.8</ele><time>2026-04-27T12:43:49.656Z</time></trkpt><trkpt lat="38.7125183" lon="16.3591317"><ele>876.6</ele><time>2026-04-27T12:43:50.687Z</time></trkpt><trkpt lat="38.7124317" lon="16.35906"><ele>876.3999999999999</ele><time>2026-04-27T12:43:51.654Z</time></trkpt><trkpt lat="38.7123583" lon="16.3589417"><ele>876.1999999999999</ele><time>2026-04-27T12:43:52.651Z</time></trkpt><trkpt lat="38.7122967" lon="16.3588283"><ele>876.0</ele><time>2026-04-27T12:43:53.656Z</time></trkpt><trkpt lat="38.7122483" lon="16.3587167"><ele>878.5</ele><time>2026-04-27T12:43:54.658Z</time></trkpt><trkpt lat="38.7122183" lon="16.3586033"><ele>881.0</ele><time>2026-04-27T12:43:55.651Z</time></trkpt><trkpt lat="38.7121767" lon="16.35852"><ele>883.5</ele><time>2026-04-27T12:43:56.701Z</time></trkpt><trkpt lat="38.712135" lon="16.3584417"><ele>886.0</ele><time>2026-04-27T12:43:57.649Z</time></trkpt><trkpt lat="38.7120733" lon="16.35837"><ele>888.5</ele><time>2026-04-27T12:43:58.658Z</time></trkpt><trkpt lat="38.7120217" lon="16.35831"><ele>891.0</ele><time>2026-04-27T12:43:59.651Z</time></trkpt><trkpt lat="38.711955" lon="16.3582633"><ele>891.8</ele><time>2026-04-27T12:44:00.653Z</time></trkpt><trkpt lat="38.7118817" lon="16.3582383"><ele>892.5999999999999</ele><time>2026-04-27T12:44:01.651Z</time></trkpt><trkpt lat="38.7118183" lon="16.3582317"><ele>893.4</ele><time>2026-04-27T12:44:02.7Z</time></trkpt><trkpt lat="38.71174" lon="16.3582783"><ele>894.2</ele><time>2026-04-27T12:44:03.647Z</time></trkpt><trkpt lat="38.7116583" lon="16.3584233"><ele>895.0</ele><time>2026-04-27T12:44:04.652Z</time></trkpt><trkpt lat="38.71158" lon="16.3586017"><ele>895.0</ele><time>2026-04-27T12:44:05.66Z</time></trkpt><trkpt lat="38.7115117" lon="16.3587317"><ele>895.0</ele><time>2026-04-27T12:44:06.659Z</time></trkpt><trkpt lat="38.7114417" lon="16.358845"><ele>895.0</ele><time>2026-04-27T12:44:07.652Z</time></trkpt><trkpt lat="38.7113683" lon="16.35894"><ele>895.0</ele><time>2026-04-27T12:44:08.682Z</time></trkpt><trkpt lat="38.7113017" lon="16.35902"><ele>895.0</ele><time>2026-04-27T12:44:09.66Z</time></trkpt><trkpt lat="38.7112333" lon="16.3590867"><ele>890.2</ele><time>2026-04-27T12:44:10.656Z</time></trkpt><trkpt lat="38.711155" lon="16.35913"><ele>885.4</ele><time>2026-04-27T12:44:11.649Z</time></trkpt><trkpt lat="38.71106" lon="16.3592033"><ele>880.5999999999999</ele><time>2026-04-27T12:44:12.654Z</time></trkpt><trkpt lat="38.7109583" lon="16.3592317"><ele>875.8</ele><time>2026-04-27T12:44:13.656Z</time></trkpt><trkpt lat="38.710865" lon="16.3592217"><ele>871.0</ele><time>2026-04-27T12:44:14.68Z</time></trkpt><trkpt lat="38.710785" lon="16.3591833"><ele>870.9999999999999</ele><time>2026-04-27T12:44:15.658Z</time></trkpt><trkpt lat="38.7107083" lon="16.3591217"><ele>871.0</ele><time>2026-04-27T12:44:16.656Z</time></trkpt><trkpt lat="38.7106467" lon="16.3590667"><ele>871.0</ele><time>2026-04-27T12:44:17.645Z</time></trkpt><trkpt lat="38.7105967" lon="16.3589617"><ele>871.0</ele><time>2026-04-27T12:44:18.654Z</time></trkpt><trkpt lat="38.7105683" lon="16.3588533"><ele>870.9999999999999</ele><time>2026-04-27T12:44:19.652Z</time></trkpt><trkpt lat="38.7105283" lon="16.3587533"><ele>871.0</ele><time>2026-04-27T12:44:20.685Z</time></trkpt><trkpt lat="38.7104867" lon="16.3586783"><ele>873.4</ele><time>2026-04-27T12:44:21.654Z</time></trkpt><trkpt lat="38.7104433" lon="16.3586"><ele>875.8</ele><time>2026-04-27T12:44:22.648Z</time></trkpt><trkpt lat="38.710395" lon="16.35854"><ele>878.1999999999999</ele><time>2026-04-27T12:44:23.651Z</time></trkpt><trkpt lat="38.71027" lon="16.3584867"><ele>880.5999999999999</ele><time>2026-04-27T12:44:25.653Z</time></trkpt><trkpt lat="38.7101633" lon="16.3585117"><ele>883.0</ele><time>2026-04-27T12:44:26.704Z</time></trkpt><trkpt lat="38.7100517" lon="16.3585333"><ele>883.0</ele><time>2026-04-27T12:44:27.655Z</time></trkpt><trkpt lat="38.7099567" lon="16.35855"><ele>883.0</ele><time>2026-04-27T12:44:28.654Z</time></trkpt><trkpt lat="38.7098733" lon="16.358605"><ele>883.0</ele><time>2026-04-27T12:44:29.647Z</time></trkpt><trkpt lat="38.7098" lon="16.358675"><ele>883.0</ele><time>2026-04-27T12:44:30.649Z</time></trkpt><trkpt lat="38.7097317" lon="16.3587667"><ele>883.0</ele><time>2026-04-27T12:44:31.652Z</time></trkpt><trkpt lat="38.7096717" lon="16.3588817"><ele>881.1666666666666</ele><time>2026-04-27T12:44:32.693Z</time></trkpt><trkpt lat="38.7096133" lon="16.358975"><ele>879.3333333333333</ele><time>2026-04-27T12:44:33.65Z</time></trkpt><trkpt lat="38.7095467" lon="16.3590417"><ele>877.5</ele><time>2026-04-27T12:44:34.655Z</time></trkpt><trkpt lat="38.7094833" lon="16.3590733"><ele>875.6666666666667</ele><time>2026-04-27T12:44:35.654Z</time></trkpt><trkpt lat="38.709405" lon="16.3590817"><ele>873.8333333333334</ele><time>2026-04-27T12:44:36.654Z</time></trkpt><trkpt lat="38.70931" lon="16.3590883"><ele>872.0</ele><time>2026-04-27T12:44:37.651Z</time></trkpt><trkpt lat="38.7092033" lon="16.3591017"><ele>872.0</ele><time>2026-04-27T12:44:38.686Z</time></trkpt><trkpt lat="38.709095" lon="16.35912"><ele>872.0</ele><time>2026-04-27T12:44:39.644Z</time></trkpt><trkpt lat="38.7089833" lon="16.359135"><ele>872.0</ele><time>2026-04-27T12:44:40.652Z</time></trkpt><trkpt lat="38.708885" lon="16.3591517"><ele>872.0</ele><time>2026-04-27T12:44:41.651Z</time></trkpt><trkpt lat="38.7087883" lon="16.359155"><ele>872.0</ele><time>2026-04-27T12:44:42.65Z</time></trkpt><trkpt lat="38.7086983" lon="16.3591333"><ele>872.0</ele><time>2026-04-27T12:44:43.654Z</time></trkpt><trkpt lat="38.7086017" lon="16.3590817"><ele>872.0</ele><time>2026-04-27T12:44:44.685Z</time></trkpt><trkpt lat="38.7085217" lon="16.3590067"><ele>872.0</ele><time>2026-04-27T12:44:45.658Z</time></trkpt><trkpt lat="38.7084467" lon="16.3589133"><ele>872.0</ele><time>2026-04-27T12:44:46.655Z</time></trkpt><trkpt lat="38.7083533" lon="16.3588167"><ele>872.0</ele><time>2026-04-27T12:44:47.648Z</time></trkpt><trkpt lat="38.7082583" lon="16.35873"><ele>874.6</ele><time>2026-04-27T12:44:48.651Z</time></trkpt><trkpt lat="38.708175" lon="16.3586333"><ele>877.2</ele><time>2026-04-27T12:44:49.654Z</time></trkpt><trkpt lat="38.7081" lon="16.3585583"><ele>879.8</ele><time>2026-04-27T12:44:50.692Z</time></trkpt><trkpt lat="38.7080317" lon="16.358475"><ele>882.4</ele><time>2026-04-27T12:44:51.651Z</time></trkpt><trkpt lat="38.7079617" lon="16.3583983"><ele>885.0</ele><time>2026-04-27T12:44:52.653Z</time></trkpt><trkpt lat="38.7078933" lon="16.3583183"><ele>885.0</ele><time>2026-04-27T12:44:53.654Z</time></trkpt><trkpt lat="38.7078267" lon="16.3582533"><ele>885.0</ele><time>2026-04-27T12:44:54.656Z</time></trkpt><trkpt lat="38.70776" lon="16.35817"><ele>885.0</ele><time>2026-04-27T12:44:55.648Z</time></trkpt><trkpt lat="38.7076933" lon="16.358085"><ele>885.0</ele><time>2026-04-27T12:44:56.704Z</time></trkpt><trkpt lat="38.707635" lon="16.3580267"><ele>885.0</ele><time>2026-04-27T12:44:57.654Z</time></trkpt><trkpt lat="38.7075683" lon="16.3579717"><ele>885.0</ele><time>2026-04-27T12:44:58.653Z</time></trkpt><trkpt lat="38.7074883" lon="16.3579233"><ele>882.0</ele><time>2026-04-27T12:44:59.653Z</time></trkpt><trkpt lat="38.7073933" lon="16.35784"><ele>879.0</ele><time>2026-04-27T12:45:00.655Z</time></trkpt><trkpt lat="38.70727" lon="16.3577633"><ele>876.0</ele><time>2026-04-27T12:45:01.651Z</time></trkpt><trkpt lat="38.7071533" lon="16.3576667"><ele>873.0</ele><time>2026-04-27T12:45:02.698Z</time></trkpt><trkpt lat="38.7070517" lon="16.3575817"><ele>873.0</ele><time>2026-04-27T12:45:03.654Z</time></trkpt><trkpt lat="38.7069467" lon="16.3575317"><ele>873.0</ele><time>2026-04-27T12:45:04.655Z</time></trkpt><trkpt lat="38.7068483" lon="16.3574883"><ele>873.0</ele><time>2026-04-27T12:45:05.651Z</time></trkpt><trkpt lat="38.7067417" lon="16.3574483"><ele>873.0</ele><time>2026-04-27T12:45:06.659Z</time></trkpt><trkpt lat="38.7066383" lon="16.3574083"><ele>873.0</ele><time>2026-04-27T12:45:07.652Z</time></trkpt><trkpt lat="38.70653" lon="16.35737"><ele>870.8</ele><time>2026-04-27T12:45:08.687Z</time></trkpt><trkpt lat="38.70642" lon="16.3573333"><ele>868.5999999999999</ele><time>2026-04-27T12:45:09.654Z</time></trkpt><trkpt lat="38.7063167" lon="16.3573"><ele>866.4000000000001</ele><time>2026-04-27T12:45:10.656Z</time></trkpt><trkpt lat="38.70621" lon="16.3572633"><ele>864.2</ele><time>2026-04-27T12:45:11.655Z</time></trkpt><trkpt lat="38.7061083" lon="16.35723"><ele>862.0</ele><time>2026-04-27T12:45:12.653Z</time></trkpt><trkpt lat="38.7060083" lon="16.3572067"><ele>861.5</ele><time>2026-04-27T12:45:13.655Z</time></trkpt><trkpt lat="38.7058983" lon="16.3571867"><ele>861.0</ele><time>2026-04-27T12:45:14.684Z</time></trkpt><trkpt lat="38.7057783" lon="16.3571733"><ele>860.5</ele><time>2026-04-27T12:45:15.648Z</time></trkpt><trkpt lat="38.705655" lon="16.357175"><ele>860.0</ele><time>2026-04-27T12:45:16.652Z</time></trkpt><trkpt lat="38.7055317" lon="16.3571967"><ele>859.4</ele><time>2026-04-27T12:45:17.654Z</time></trkpt><trkpt lat="38.70542" lon="16.3572167"><ele>858.8</ele><time>2026-04-27T12:45:18.657Z</time></trkpt><trkpt lat="38.70533" lon="16.3572267"><ele>858.2</ele><time>2026-04-27T12:45:19.654Z</time></trkpt><trkpt lat="38.705245" lon="16.3572533"><ele>857.6</ele><time>2026-04-27T12:45:20.684Z</time></trkpt><trkpt lat="38.7051583" lon="16.35729"><ele>857.0</ele><time>2026-04-27T12:45:21.651Z</time></trkpt><trkpt lat="38.70508" lon="16.3573417"><ele>855.3333333333334</ele><time>2026-04-27T12:45:22.655Z</time></trkpt><trkpt lat="38.7050183" lon="16.3574133"><ele>853.6666666666667</ele><time>2026-04-27T12:45:23.655Z</time></trkpt><trkpt lat="38.704955" lon="16.3574833"><ele>852.0</ele><time>2026-04-27T12:45:24.649Z</time></trkpt><trkpt lat="38.704905" lon="16.357565"><ele>850.3333333333333</ele><time>2026-04-27T12:45:25.651Z</time></trkpt><trkpt lat="38.70485" lon="16.3576417"><ele>848.6666666666666</ele><time>2026-04-27T12:45:26.706Z</time></trkpt><trkpt lat="38.7048067" lon="16.3577133"><ele>847.0</ele><time>2026-04-27T12:45:27.649Z</time></trkpt><trkpt lat="38.7047667" lon="16.3577833"><ele>847.0</ele><time>2026-04-27T12:45:28.655Z</time></trkpt><trkpt lat="38.70472" lon="16.3578533"><ele>847.0</ele><time>2026-04-27T12:45:29.656Z</time></trkpt><trkpt lat="38.7046717" lon="16.357915"><ele>847.0</ele><time>2026-04-27T12:45:30.657Z</time></trkpt><trkpt lat="38.7046117" lon="16.3579617"><ele>847.0</ele><time>2026-04-27T12:45:31.65Z</time></trkpt><trkpt lat="38.704495" lon="16.3579467"><ele>847.0</ele><time>2026-04-27T12:45:33.648Z</time></trkpt><trkpt lat="38.7043833" lon="16.3578667"><ele>844.0</ele><time>2026-04-27T12:45:35.651Z</time></trkpt><trkpt lat="38.7043267" lon="16.3577817"><ele>841.0</ele><time>2026-04-27T12:45:36.655Z</time></trkpt><trkpt lat="38.7042783" lon="16.3576833"><ele>838.0</ele><time>2026-04-27T12:45:37.65Z</time></trkpt><trkpt lat="38.704235" lon="16.3576083"><ele>835.0</ele><time>2026-04-27T12:45:38.687Z</time></trkpt><trkpt lat="38.7041583" lon="16.3575283"><ele>832.0</ele><time>2026-04-27T12:45:40.657Z</time></trkpt><trkpt lat="38.7040583" lon="16.3574967"><ele>832.0</ele><time>2026-04-27T12:45:42.651Z</time></trkpt><trkpt lat="38.7039817" lon="16.3575617"><ele>832.0</ele><time>2026-04-27T12:45:44.683Z</time></trkpt><trkpt lat="38.703995" lon="16.3577217"><ele>832.0</ele><time>2026-04-27T12:45:46.656Z</time></trkpt><trkpt lat="38.7040267" lon="16.3578233"><ele>832.0</ele><time>2026-04-27T12:45:47.65Z</time></trkpt><trkpt lat="38.7040767" lon="16.3579383"><ele>832.0</ele><time>2026-04-27T12:45:48.657Z</time></trkpt><trkpt lat="38.7041483" lon="16.3580717"><ele>831.0</ele><time>2026-04-27T12:45:49.646Z</time></trkpt><trkpt lat="38.7042083" lon="16.3582133"><ele>830.0</ele><time>2026-04-27T12:45:50.682Z</time></trkpt><trkpt lat="38.7042367" lon="16.35833"><ele>829.0</ele><time>2026-04-27T12:45:51.649Z</time></trkpt><trkpt lat="38.7042383" lon="16.3584317"><ele>828.0</ele><time>2026-04-27T12:45:52.655Z</time></trkpt><trkpt lat="38.7042417" lon="16.3585233"><ele>827.0</ele><time>2026-04-27T12:45:53.649Z</time></trkpt><trkpt lat="38.7042233" lon="16.3586517"><ele>827.0</ele><time>2026-04-27T12:45:55.654Z</time></trkpt><trkpt lat="38.70414" lon="16.3586817"><ele>827.0</ele><time>2026-04-27T12:45:57.648Z</time></trkpt><trkpt lat="38.704075" lon="16.35865"><ele>827.0</ele><time>2026-04-27T12:45:58.654Z</time></trkpt><trkpt lat="38.7039833" lon="16.35859"><ele>827.0</ele><time>2026-04-27T12:45:59.654Z</time></trkpt><trkpt lat="38.703895" lon="16.358525"><ele>827.0</ele><time>2026-04-27T12:46:00.657Z</time></trkpt><trkpt lat="38.7038183" lon="16.3584667"><ele>827.0000000000001</ele><time>2026-04-27T12:46:01.654Z</time></trkpt><trkpt lat="38.7037333" lon="16.3583883"><ele>827.0</ele><time>2026-04-27T12:46:02.696Z</time></trkpt><trkpt lat="38.703665" lon="16.3583217"><ele>827.0</ele><time>2026-04-27T12:46:03.654Z</time></trkpt><trkpt lat="38.7036017" lon="16.35825"><ele>827.0</ele><time>2026-04-27T12:46:04.657Z</time></trkpt><trkpt lat="38.70354" lon="16.3581833"><ele>827.0000000000001</ele><time>2026-04-27T12:46:05.65Z</time></trkpt><trkpt lat="38.7034833" lon="16.3581033"><ele>827.0</ele><time>2026-04-27T12:46:06.659Z</time></trkpt><trkpt lat="38.703435" lon="16.35804"><ele>824.4000000000001</ele><time>2026-04-27T12:46:07.65Z</time></trkpt><trkpt lat="38.7033433" lon="16.3579433"><ele>821.8000000000001</ele><time>2026-04-27T12:46:09.65Z</time></trkpt><trkpt lat="38.7032467" lon="16.357905"><ele>819.2</ele><time>2026-04-27T12:46:11.648Z</time></trkpt><trkpt lat="38.703155" lon="16.357915"><ele>816.6</ele><time>2026-04-27T12:46:13.651Z</time></trkpt><trkpt lat="38.70305" lon="16.3579717"><ele>814.0</ele><time>2026-04-27T12:46:15.649Z</time></trkpt><trkpt lat="38.702985" lon="16.3580117"><ele>813.3333333333333</ele><time>2026-04-27T12:46:16.659Z</time></trkpt><trkpt lat="38.7029233" lon="16.3580417"><ele>812.6666666666666</ele><time>2026-04-27T12:46:17.65Z</time></trkpt><trkpt lat="38.70281" lon="16.3581017"><ele>812.0</ele><time>2026-04-27T12:46:19.656Z</time></trkpt><trkpt lat="38.70274" lon="16.3581317"><ele>811.3333333333333</ele><time>2026-04-27T12:46:20.686Z</time></trkpt><trkpt lat="38.7026667" lon="16.3581717"><ele>810.6666666666666</ele><time>2026-04-27T12:46:21.651Z</time></trkpt><trkpt lat="38.7025833" lon="16.3582217"><ele>810.0</ele><time>2026-04-27T12:46:22.657Z</time></trkpt><trkpt lat="38.7025083" lon="16.3582733"><ele>807.4285714285713</ele><time>2026-04-27T12:46:23.655Z</time></trkpt><trkpt lat="38.7024383" lon="16.3583283"><ele>804.8571428571429</ele><time>2026-04-27T12:46:24.654Z</time></trkpt><trkpt lat="38.7023733" lon="16.3583767"><ele>802.2857142857142</ele><time>2026-04-27T12:46:25.659Z</time></trkpt><trkpt lat="38.70232" lon="16.3584283"><ele>799.7142857142857</ele><time>2026-04-27T12:46:26.709Z</time></trkpt><trkpt lat="38.7022667" lon="16.3584783"><ele>797.1428571428571</ele><time>2026-04-27T12:46:27.65Z</time></trkpt><trkpt lat="38.7022067" lon="16.358535"><ele>794.5714285714286</ele><time>2026-04-27T12:46:28.653Z</time></trkpt><trkpt lat="38.7021567" lon="16.3586217"><ele>792.0</ele><time>2026-04-27T12:46:29.652Z</time></trkpt><trkpt lat="38.7021117" lon="16.35872"><ele>792.0</ele><time>2026-04-27T12:46:30.656Z</time></trkpt><trkpt lat="38.7020667" lon="16.35884"><ele>792.0</ele><time>2026-04-27T12:46:31.646Z</time></trkpt><trkpt lat="38.702015" lon="16.3589583"><ele>792.0</ele><time>2026-04-27T12:46:32.697Z</time></trkpt><trkpt lat="38.701965" lon="16.3590783"><ele>792.0</ele><time>2026-04-27T12:46:33.65Z</time></trkpt><trkpt lat="38.7019217" lon="16.3591917"><ele>792.0</ele><time>2026-04-27T12:46:34.651Z</time></trkpt><trkpt lat="38.7018867" lon="16.3593067"><ele>788.6</ele><time>2026-04-27T12:46:35.647Z</time></trkpt><trkpt lat="38.70185" lon="16.3594033"><ele>785.2</ele><time>2026-04-27T12:46:36.65Z</time></trkpt><trkpt lat="38.7018117" lon="16.3594967"><ele>781.8</ele><time>2026-04-27T12:46:37.647Z</time></trkpt><trkpt lat="38.7017717" lon="16.3595883"><ele>778.4</ele><time>2026-04-27T12:46:38.685Z</time></trkpt><trkpt lat="38.7016783" lon="16.3597217"><ele>775.0</ele><time>2026-04-27T12:46:40.654Z</time></trkpt><trkpt lat="38.701595" lon="16.3597567"><ele>773.25</ele><time>2026-04-27T12:46:41.649Z</time></trkpt><trkpt lat="38.7014667" lon="16.3597917"><ele>771.5</ele><time>2026-04-27T12:46:42.651Z</time></trkpt><trkpt lat="38.701375" lon="16.3598617"><ele>769.75</ele><time>2026-04-27T12:46:43.652Z</time></trkpt><trkpt lat="38.7012833" lon="16.3599533"><ele>768.0</ele><time>2026-04-27T12:46:44.689Z</time></trkpt><trkpt lat="38.7011933" lon="16.3600417"><ele>768.0</ele><time>2026-04-27T12:46:45.647Z</time></trkpt><trkpt lat="38.7011083" lon="16.360145"><ele>768.0</ele><time>2026-04-27T12:46:46.653Z</time></trkpt><trkpt lat="38.701035" lon="16.3602533"><ele>768.0</ele><time>2026-04-27T12:46:47.651Z</time></trkpt><trkpt lat="38.7009667" lon="16.3603733"><ele>768.0</ele><time>2026-04-27T12:46:48.655Z</time></trkpt><trkpt lat="38.70092" lon="16.3604933"><ele>765.3333333333334</ele><time>2026-04-27T12:46:49.651Z</time></trkpt><trkpt lat="38.7008833" lon="16.36061"><ele>762.6666666666666</ele><time>2026-04-27T12:46:50.688Z</time></trkpt><trkpt lat="38.700845" lon="16.3606983"><ele>760.0</ele><time>2026-04-27T12:46:51.648Z</time></trkpt><trkpt lat="38.700815" lon="16.36078"><ele>757.3333333333333</ele><time>2026-04-27T12:46:52.654Z</time></trkpt><trkpt lat="38.7007767" lon="16.3608517"><ele>754.6666666666666</ele><time>2026-04-27T12:46:53.65Z</time></trkpt><trkpt lat="38.70068" lon="16.3609483"><ele>752.0</ele><time>2026-04-27T12:46:55.652Z</time></trkpt><trkpt lat="38.7006067" lon="16.3609833"><ele>752.0</ele><time>2026-04-27T12:46:56.705Z</time></trkpt><trkpt lat="38.700535" lon="16.3610167"><ele>752.0</ele><time>2026-04-27T12:46:57.648Z</time></trkpt><trkpt lat="38.70045" lon="16.3610583"><ele>752.0</ele><time>2026-04-27T12:46:58.65Z</time></trkpt><trkpt lat="38.70035" lon="16.3611033"><ele>752.0</ele><time>2026-04-27T12:46:59.654Z</time></trkpt><trkpt lat="38.7002533" lon="16.3611283"><ele>752.0</ele><time>2026-04-27T12:47:00.656Z</time></trkpt><trkpt lat="38.7001567" lon="16.3611533"><ele>751.6</ele><time>2026-04-27T12:47:01.654Z</time></trkpt><trkpt lat="38.7000683" lon="16.3611767"><ele>751.2</ele><time>2026-04-27T12:47:02.691Z</time></trkpt><trkpt lat="38.6999767" lon="16.3611883"><ele>750.8</ele><time>2026-04-27T12:47:03.646Z</time></trkpt><trkpt lat="38.6998717" lon="16.3611967"><ele>750.4</ele><time>2026-04-27T12:47:04.644Z</time></trkpt><trkpt lat="38.6997483" lon="16.3611917"><ele>750.0</ele><time>2026-04-27T12:47:05.645Z</time></trkpt><trkpt lat="38.6996" lon="16.36117"><ele>750.0</ele><time>2026-04-27T12:47:06.647Z</time></trkpt><trkpt lat="38.6994733" lon="16.3611567"><ele>750.0</ele><time>2026-04-27T12:47:07.643Z</time></trkpt><trkpt lat="38.69936" lon="16.3611583"><ele>750.0</ele><time>2026-04-27T12:47:08.678Z</time></trkpt><trkpt lat="38.6992517" lon="16.36115"><ele>750.0</ele><time>2026-04-27T12:47:09.65Z</time></trkpt><trkpt lat="38.69914" lon="16.3611383"><ele>747.0</ele><time>2026-04-27T12:47:10.647Z</time></trkpt><trkpt lat="38.6990383" lon="16.3611133"><ele>744.0</ele><time>2026-04-27T12:47:11.647Z</time></trkpt><trkpt lat="38.6989517" lon="16.3610783"><ele>741.0</ele><time>2026-04-27T12:47:12.652Z</time></trkpt><trkpt lat="38.6988767" lon="16.36105"><ele>738.0</ele><time>2026-04-27T12:47:13.65Z</time></trkpt><trkpt lat="38.6987683" lon="16.3610533"><ele>735.0</ele><time>2026-04-27T12:47:15.652Z</time></trkpt><trkpt lat="38.6986533" lon="16.3610667"><ele>735.0</ele><time>2026-04-27T12:47:17.646Z</time></trkpt><trkpt lat="38.6986017" lon="16.3611167"><ele>735.0</ele><time>2026-04-27T12:47:18.651Z</time></trkpt><trkpt lat="38.6985367" lon="16.361225"><ele>735.0</ele><time>2026-04-27T12:47:20.677Z</time></trkpt><trkpt lat="38.6985817" lon="16.3614133"><ele>735.0</ele><time>2026-04-27T12:47:22.652Z</time></trkpt><trkpt lat="38.6986017" lon="16.3615617"><ele>735.0</ele><time>2026-04-27T12:47:24.649Z</time></trkpt><trkpt lat="38.6985617" lon="16.3616917"><ele>733.8</ele><time>2026-04-27T12:47:26.706Z</time></trkpt><trkpt lat="38.6985" lon="16.3617583"><ele>732.6</ele><time>2026-04-27T12:47:27.645Z</time></trkpt><trkpt lat="38.69842" lon="16.361825"><ele>731.4000000000001</ele><time>2026-04-27T12:47:28.648Z</time></trkpt><trkpt lat="38.6983267" lon="16.36189"><ele>730.2</ele><time>2026-04-27T12:47:29.651Z</time></trkpt><trkpt lat="38.698255" lon="16.3619833"><ele>729.0</ele><time>2026-04-27T12:47:30.65Z</time></trkpt><trkpt lat="38.698185" lon="16.3620783"><ele>729.0</ele><time>2026-04-27T12:47:31.646Z</time></trkpt><trkpt lat="38.69812" lon="16.362195"><ele>729.0</ele><time>2026-04-27T12:47:32.689Z</time></trkpt><trkpt lat="38.6980583" lon="16.36229"><ele>729.0</ele><time>2026-04-27T12:47:33.647Z</time></trkpt><trkpt lat="38.697995" lon="16.3624183"><ele>729.0</ele><time>2026-04-27T12:47:34.652Z</time></trkpt><trkpt lat="38.69796" lon="16.3625633"><ele>729.0</ele><time>2026-04-27T12:47:35.651Z</time></trkpt><trkpt lat="38.6979183" lon="16.36273"><ele>733.6666666666666</ele><time>2026-04-27T12:47:36.647Z</time></trkpt><trkpt lat="38.697905" lon="16.3629333"><ele>738.3333333333333</ele><time>2026-04-27T12:47:37.65Z</time></trkpt><trkpt lat="38.6979" lon="16.3631617"><ele>743.0</ele><time>2026-04-27T12:47:38.678Z</time></trkpt><trkpt lat="38.6978733" lon="16.363385"><ele>745.6666666666666</ele><time>2026-04-27T12:47:39.649Z</time></trkpt><trkpt lat="38.6978317" lon="16.3635967"><ele>748.3333333333334</ele><time>2026-04-27T12:47:40.661Z</time></trkpt><trkpt lat="38.6977983" lon="16.3637817"><ele>751.0</ele><time>2026-04-27T12:47:41.651Z</time></trkpt><trkpt lat="38.6977617" lon="16.363965"><ele>750.1999999999999</ele><time>2026-04-27T12:47:42.652Z</time></trkpt><trkpt lat="38.6977483" lon="16.3641367"><ele>749.4</ele><time>2026-04-27T12:47:43.653Z</time></trkpt><trkpt lat="38.69772" lon="16.3642633"><ele>748.6</ele><time>2026-04-27T12:47:44.678Z</time></trkpt><trkpt lat="38.69769" lon="16.3643633"><ele>747.8</ele><time>2026-04-27T12:47:45.65Z</time></trkpt><trkpt lat="38.6976083" lon="16.3643517"><ele>747.0</ele><time>2026-04-27T12:47:47.656Z</time></trkpt><trkpt lat="38.6975583" lon="16.3642617"><ele>747.0</ele><time>2026-04-27T12:47:48.656Z</time></trkpt><trkpt lat="38.6975117" lon="16.3640517"><ele>747.0</ele><time>2026-04-27T12:47:49.647Z</time></trkpt><trkpt lat="38.6974667" lon="16.3639317"><ele>747.0</ele><time>2026-04-27T12:47:50.681Z</time></trkpt><trkpt lat="38.6974217" lon="16.36382"><ele>747.0</ele><time>2026-04-27T12:47:51.649Z</time></trkpt><trkpt lat="38.697375" lon="16.36373"><ele>746.8</ele><time>2026-04-27T12:47:52.657Z</time></trkpt><trkpt lat="38.6973267" lon="16.3636583"><ele>746.6</ele><time>2026-04-27T12:47:53.645Z</time></trkpt><trkpt lat="38.69727" lon="16.3635933"><ele>746.4</ele><time>2026-04-27T12:47:54.658Z</time></trkpt><trkpt lat="38.6971817" lon="16.36353"><ele>746.1999999999999</ele><time>2026-04-27T12:47:55.653Z</time></trkpt><trkpt lat="38.697085" lon="16.36346"><ele>746.0</ele><time>2026-04-27T12:47:56.714Z</time></trkpt><trkpt lat="38.6969817" lon="16.3633867"><ele>747.4</ele><time>2026-04-27T12:47:57.653Z</time></trkpt><trkpt lat="38.69689" lon="16.36331"><ele>748.8</ele><time>2026-04-27T12:47:58.65Z</time></trkpt><trkpt lat="38.6968033" lon="16.3632267"><ele>750.1999999999999</ele><time>2026-04-27T12:47:59.647Z</time></trkpt><trkpt lat="38.6967133" lon="16.3631517"><ele>751.5999999999999</ele><time>2026-04-27T12:48:00.656Z</time></trkpt><trkpt lat="38.6966117" lon="16.3630833"><ele>753.0</ele><time>2026-04-27T12:48:01.653Z</time></trkpt><trkpt lat="38.696505" lon="16.363035"><ele>753.5</ele><time>2026-04-27T12:48:02.692Z</time></trkpt><trkpt lat="38.696395" lon="16.3629967"><ele>754.0</ele><time>2026-04-27T12:48:03.65Z</time></trkpt><trkpt lat="38.696275" lon="16.362965"><ele>754.5</ele><time>2026-04-27T12:48:04.653Z</time></trkpt><trkpt lat="38.6961433" lon="16.3629233"><ele>755.0</ele><time>2026-04-27T12:48:05.648Z</time></trkpt><trkpt lat="38.696" lon="16.3628767"><ele>757.5</ele><time>2026-04-27T12:48:06.653Z</time></trkpt><trkpt lat="38.6958733" lon="16.3628283"><ele>760.0</ele><time>2026-04-27T12:48:07.649Z</time></trkpt><trkpt lat="38.6957633" lon="16.3627867"><ele>762.5</ele><time>2026-04-27T12:48:08.682Z</time></trkpt><trkpt lat="38.6956617" lon="16.3627467"><ele>765.0</ele><time>2026-04-27T12:48:09.646Z</time></trkpt><trkpt lat="38.6955667" lon="16.3627017"><ele>765.0</ele><time>2026-04-27T12:48:10.653Z</time></trkpt><trkpt lat="38.6954733" lon="16.36265"><ele>765.0</ele><time>2026-04-27T12:48:11.646Z</time></trkpt><trkpt lat="38.6953817" lon="16.362585"><ele>765.0</ele><time>2026-04-27T12:48:12.655Z</time></trkpt><trkpt lat="38.695285" lon="16.36251"><ele>765.0</ele><time>2026-04-27T12:48:13.652Z</time></trkpt><trkpt lat="38.6951883" lon="16.362425"><ele>765.0</ele><time>2026-04-27T12:48:14.684Z</time></trkpt><trkpt lat="38.6950717" lon="16.3623183"><ele>768.0</ele><time>2026-04-27T12:48:15.65Z</time></trkpt><trkpt lat="38.6949483" lon="16.3622"><ele>771.0</ele><time>2026-04-27T12:48:16.655Z</time></trkpt><trkpt lat="38.6948133" lon="16.3620833"><ele>774.0</ele><time>2026-04-27T12:48:17.649Z</time></trkpt><trkpt lat="38.694685" lon="16.3619717"><ele>774.0</ele><time>2026-04-27T12:48:18.655Z</time></trkpt><trkpt lat="38.6945583" lon="16.361875"><ele>774.0</ele><time>2026-04-27T12:48:19.647Z</time></trkpt><trkpt lat="38.6944233" lon="16.361785"><ele>774.0</ele><time>2026-04-27T12:48:20.68Z</time></trkpt><trkpt lat="38.69427" lon="16.361705"><ele>774.5</ele><time>2026-04-27T12:48:21.655Z</time></trkpt><trkpt lat="38.694135" lon="16.3616383"><ele>775.0</ele><time>2026-04-27T12:48:22.661Z</time></trkpt><trkpt lat="38.6940033" lon="16.36158"><ele>775.5</ele><time>2026-04-27T12:48:23.649Z</time></trkpt><trkpt lat="38.6938867" lon="16.36153"><ele>776.0</ele><time>2026-04-27T12:48:24.647Z</time></trkpt><trkpt lat="38.693785" lon="16.3614967"><ele>776.0</ele><time>2026-04-27T12:48:25.653Z</time></trkpt><trkpt lat="38.6936833" lon="16.3614533"><ele>776.0</ele><time>2026-04-27T12:48:26.685Z</time></trkpt><trkpt lat="38.6935667" lon="16.3614067"><ele>776.0</ele><time>2026-04-27T12:48:27.654Z</time></trkpt><trkpt lat="38.6934517" lon="16.3613617"><ele>776.0</ele><time>2026-04-27T12:48:28.652Z</time></trkpt><trkpt lat="38.693355" lon="16.3613217"><ele>776.0</ele><time>2026-04-27T12:48:29.651Z</time></trkpt><trkpt lat="38.6932433" lon="16.36128"><ele>776.0</ele><time>2026-04-27T12:48:30.655Z</time></trkpt><trkpt lat="38.693125" lon="16.3612367"><ele>776.0</ele><time>2026-04-27T12:48:31.653Z</time></trkpt><trkpt lat="38.6930167" lon="16.3611817"><ele>776.0</ele><time>2026-04-27T12:48:32.691Z</time></trkpt><trkpt lat="38.6929" lon="16.3611083"><ele>776.0</ele><time>2026-04-27T12:48:33.652Z</time></trkpt><trkpt lat="38.6927733" lon="16.36101"><ele>776.0</ele><time>2026-04-27T12:48:34.652Z</time></trkpt><trkpt lat="38.6926367" lon="16.3609117"><ele>776.0</ele><time>2026-04-27T12:48:35.655Z</time></trkpt><trkpt lat="38.6924867" lon="16.3608183"><ele>777.3333333333334</ele><time>2026-04-27T12:48:36.65Z</time></trkpt><trkpt lat="38.692325" lon="16.3607283"><ele>778.6666666666667</ele><time>2026-04-27T12:48:37.654Z</time></trkpt><trkpt lat="38.6922133" lon="16.360635"><ele>780.0</ele><time>2026-04-27T12:48:38.686Z</time></trkpt><trkpt lat="38.6920867" lon="16.3605567"><ele>780.0</ele><time>2026-04-27T12:48:39.648Z</time></trkpt><trkpt lat="38.69199" lon="16.360485"><ele>780.0</ele><time>2026-04-27T12:48:40.654Z</time></trkpt><trkpt lat="38.6919233" lon="16.3604317"><ele>780.0</ele><time>2026-04-27T12:48:41.654Z</time></trkpt><trkpt lat="38.69186" lon="16.3603917"><ele>780.0</ele><time>2026-04-27T12:48:42.656Z</time></trkpt><trkpt lat="38.691795" lon="16.36041"><ele>780.0</ele><time>2026-04-27T12:48:45.656Z</time></trkpt><trkpt lat="38.691695" lon="16.3604833"><ele>780.0</ele><time>2026-04-27T12:48:48.657Z</time></trkpt><trkpt lat="38.6916333" lon="16.36055"><ele>780.0</ele><time>2026-04-27T12:48:50.686Z</time></trkpt><trkpt lat="38.69157" lon="16.3606767"><ele>780.0</ele><time>2026-04-27T12:48:52.653Z</time></trkpt><trkpt lat="38.6915283" lon="16.3607567"><ele>780.0</ele><time>2026-04-27T12:48:53.65Z</time></trkpt><trkpt lat="38.6914733" lon="16.360875"><ele>780.0</ele><time>2026-04-27T12:48:54.653Z</time></trkpt><trkpt lat="38.6914033" lon="16.3609617"><ele>780.0</ele><time>2026-04-27T12:48:55.652Z</time></trkpt><trkpt lat="38.69131" lon="16.36108"><ele>780.0</ele><time>2026-04-27T12:48:56.704Z</time></trkpt><trkpt lat="38.6912167" lon="16.3611867"><ele>780.0</ele><time>2026-04-27T12:48:57.644Z</time></trkpt><trkpt lat="38.6911483" lon="16.36129"><ele>780.0</ele><time>2026-04-27T12:48:58.651Z</time></trkpt><trkpt lat="38.6911217" lon="16.3613733"><ele>780.0</ele><time>2026-04-27T12:48:59.651Z</time></trkpt><trkpt lat="38.69119" lon="16.3614167"><ele>780.0</ele><time>2026-04-27T12:49:17.651Z</time></trkpt><trkpt lat="38.6912733" lon="16.3613583"><ele>780.0</ele><time>2026-04-27T12:49:19.65Z</time></trkpt><trkpt lat="38.69133" lon="16.361315"><ele>780.0</ele><time>2026-04-27T12:49:21.652Z</time></trkpt><trkpt lat="38.69138" lon="16.3612617"><ele>780.0</ele><time>2026-04-27T12:49:26.708Z</time></trkpt><trkpt lat="38.69143" lon="16.3611983"><ele>780.0</ele><time>2026-04-27T12:49:29.653Z</time></trkpt><trkpt lat="38.691485" lon="16.3611133"><ele>780.0</ele><time>2026-04-27T12:49:31.65Z</time></trkpt><trkpt lat="38.6915183" lon="16.36103"><ele>780.0</ele><time>2026-04-27T12:49:33.65Z</time></trkpt><trkpt lat="38.6915583" lon="16.3609167"><ele>780.0</ele><time>2026-04-27T12:49:35.652Z</time></trkpt><trkpt lat="38.6916183" lon="16.3608067"><ele>780.0</ele><time>2026-04-27T12:49:37.649Z</time></trkpt><trkpt lat="38.691675" lon="16.3607017"><ele>780.0</ele><time>2026-04-27T12:49:39.657Z</time></trkpt><trkpt lat="38.691715" lon="16.3606133"><ele>780.0</ele><time>2026-04-27T12:49:40.655Z</time></trkpt><trkpt lat="38.691735" lon="16.3605183"><ele>780.0</ele><time>2026-04-27T12:49:41.647Z</time></trkpt><trkpt lat="38.6917133" lon="16.3603767"><ele>779.6</ele><time>2026-04-27T12:49:43.655Z</time></trkpt><trkpt lat="38.691605" lon="16.3602567"><ele>779.2</ele><time>2026-04-27T12:49:45.66Z</time></trkpt><trkpt lat="38.69153" lon="16.3602367"><ele>778.8</ele><time>2026-04-27T12:49:46.655Z</time></trkpt><trkpt lat="38.69146" lon="16.3602383"><ele>778.4</ele><time>2026-04-27T12:49:47.643Z</time></trkpt><trkpt lat="38.69138" lon="16.3602483"><ele>778.0</ele><time>2026-04-27T12:49:48.647Z</time></trkpt><trkpt lat="38.6912867" lon="16.36027"><ele>778.0</ele><time>2026-04-27T12:49:49.648Z</time></trkpt><trkpt lat="38.6911817" lon="16.360285"><ele>778.0</ele><time>2026-04-27T12:49:50.681Z</time></trkpt><trkpt lat="38.6910833" lon="16.3603033"><ele>778.0</ele><time>2026-04-27T12:49:51.654Z</time></trkpt><trkpt lat="38.6909933" lon="16.3603"><ele>778.0</ele><time>2026-04-27T12:49:52.66Z</time></trkpt><trkpt lat="38.69092" lon="16.3602983"><ele>778.0</ele><time>2026-04-27T12:49:53.648Z</time></trkpt><trkpt lat="38.6908233" lon="16.3602933"><ele>777.0</ele><time>2026-04-27T12:49:55.65Z</time></trkpt><trkpt lat="38.690685" lon="16.3603017"><ele>776.0</ele><time>2026-04-27T12:50:12.65Z</time></trkpt><trkpt lat="38.69059" lon="16.3603033"><ele>775.0</ele><time>2026-04-27T12:50:15.643Z</time></trkpt><trkpt lat="38.6904967" lon="16.3603133"><ele>774.0</ele><time>2026-04-27T12:50:17.65Z</time></trkpt><trkpt lat="38.69038" lon="16.3603333"><ele>773.0</ele><time>2026-04-27T12:50:19.655Z</time></trkpt><trkpt lat="38.690255" lon="16.36037"><ele>772.3333333333334</ele><time>2026-04-27T12:50:21.646Z</time></trkpt><trkpt lat="38.69018" lon="16.3603917"><ele>771.6666666666667</ele><time>2026-04-27T12:50:22.651Z</time></trkpt><trkpt lat="38.6900967" lon="16.3604117"><ele>771.0</ele><time>2026-04-27T12:50:23.646Z</time></trkpt><trkpt lat="38.6900033" lon="16.3604317"><ele>770.3333333333333</ele><time>2026-04-27T12:50:24.656Z</time></trkpt><trkpt lat="38.6899283" lon="16.3604467"><ele>769.6666666666666</ele><time>2026-04-27T12:50:25.651Z</time></trkpt><trkpt lat="38.689855" lon="16.3604667"><ele>769.0</ele><time>2026-04-27T12:50:26.706Z</time></trkpt><trkpt lat="38.6897767" lon="16.3604883"><ele>768.9999999999999</ele><time>2026-04-27T12:50:27.65Z</time></trkpt><trkpt lat="38.689695" lon="16.3605067"><ele>769.0</ele><time>2026-04-27T12:50:28.652Z</time></trkpt><trkpt lat="38.6896033" lon="16.3605233"><ele>769.0</ele><time>2026-04-27T12:50:29.65Z</time></trkpt><trkpt lat="38.6895233" lon="16.3605317"><ele>769.0</ele><time>2026-04-27T12:50:30.651Z</time></trkpt><trkpt lat="38.6894567" lon="16.360535"><ele>768.9999999999999</ele><time>2026-04-27T12:50:31.653Z</time></trkpt><trkpt lat="38.68934" lon="16.36054"><ele>769.0</ele><time>2026-04-27T12:50:33.648Z</time></trkpt><trkpt lat="38.6892317" lon="16.360555"><ele>767.8000000000001</ele><time>2026-04-27T12:50:35.648Z</time></trkpt><trkpt lat="38.689115" lon="16.3605617"><ele>766.6</ele><time>2026-04-27T12:50:36.655Z</time></trkpt><trkpt lat="38.6890467" lon="16.360575"><ele>765.4</ele><time>2026-04-27T12:50:37.648Z</time></trkpt><trkpt lat="38.688975" lon="16.3605883"><ele>764.2</ele><time>2026-04-27T12:50:38.679Z</time></trkpt><trkpt lat="38.688905" lon="16.3606033"><ele>763.0</ele><time>2026-04-27T12:50:39.649Z</time></trkpt><trkpt lat="38.6887883" lon="16.3606483"><ele>763.0</ele><time>2026-04-27T12:50:41.656Z</time></trkpt><trkpt lat="38.68872" lon="16.360675"><ele>763.0</ele><time>2026-04-27T12:50:42.657Z</time></trkpt><trkpt lat="38.6886517" lon="16.360705"><ele>763.0</ele><time>2026-04-27T12:50:43.651Z</time></trkpt><trkpt lat="38.6885917" lon="16.36074"><ele>763.0</ele><time>2026-04-27T12:50:44.68Z</time></trkpt><trkpt lat="38.6885267" lon="16.3607717"><ele>763.0</ele><time>2026-04-27T12:50:45.643Z</time></trkpt><trkpt lat="38.68846" lon="16.3608033"><ele>763.0</ele><time>2026-04-27T12:50:46.657Z</time></trkpt><trkpt lat="38.68839" lon="16.3608233"><ele>763.0</ele><time>2026-04-27T12:50:47.649Z</time></trkpt><trkpt lat="38.6883183" lon="16.36083"><ele>762.2</ele><time>2026-04-27T12:50:48.655Z</time></trkpt><trkpt lat="38.6882483" lon="16.36083"><ele>761.4</ele><time>2026-04-27T12:50:49.645Z</time></trkpt><trkpt lat="38.6881267" lon="16.36083"><ele>760.6</ele><time>2026-04-27T12:50:51.649Z</time></trkpt><trkpt lat="38.6880033" lon="16.3608317"><ele>759.8000000000001</ele><time>2026-04-27T12:50:53.645Z</time></trkpt><trkpt lat="38.6878883" lon="16.360835"><ele>759.0</ele><time>2026-04-27T12:50:55.651Z</time></trkpt><trkpt lat="38.68782" lon="16.3608267"><ele>757.5</ele><time>2026-04-27T12:50:56.697Z</time></trkpt><trkpt lat="38.6877183" lon="16.3608267"><ele>756.0</ele><time>2026-04-27T12:50:57.643Z</time></trkpt><trkpt lat="38.6876433" lon="16.3608183"><ele>754.5</ele><time>2026-04-27T12:50:58.651Z</time></trkpt><trkpt lat="38.6875733" lon="16.3608133"><ele>753.0</ele><time>2026-04-27T12:50:59.649Z</time></trkpt><trkpt lat="38.6875067" lon="16.3608133"><ele>751.5</ele><time>2026-04-27T12:51:00.654Z</time></trkpt><trkpt lat="38.6873783" lon="16.3608467"><ele>750.0</ele><time>2026-04-27T12:51:02.696Z</time></trkpt><trkpt lat="38.6873" lon="16.3609517"><ele>750.0</ele><time>2026-04-27T12:51:04.655Z</time></trkpt><trkpt lat="38.6872867" lon="16.36107"><ele>750.0</ele><time>2026-04-27T12:51:06.657Z</time></trkpt><trkpt lat="38.68722" lon="16.3611867"><ele>750.0</ele><time>2026-04-27T12:51:14.686Z</time></trkpt><trkpt lat="38.68713" lon="16.3612367"><ele>750.0</ele><time>2026-04-27T12:51:16.653Z</time></trkpt><trkpt lat="38.687065" lon="16.3612583"><ele>750.0</ele><time>2026-04-27T12:51:17.65Z</time></trkpt><trkpt lat="38.68699" lon="16.3612783"><ele>750.0</ele><time>2026-04-27T12:51:18.655Z</time></trkpt><trkpt lat="38.68691" lon="16.36129"><ele>748.1666666666666</ele><time>2026-04-27T12:51:19.645Z</time></trkpt><trkpt lat="38.6868267" lon="16.3612917"><ele>746.3333333333334</ele><time>2026-04-27T12:51:20.683Z</time></trkpt><trkpt lat="38.686745" lon="16.361295"><ele>744.5</ele><time>2026-04-27T12:51:21.654Z</time></trkpt><trkpt lat="38.6866367" lon="16.3612933"><ele>742.6666666666667</ele><time>2026-04-27T12:51:23.649Z</time></trkpt><trkpt lat="38.6865467" lon="16.3613033"><ele>740.8333333333334</ele><time>2026-04-27T12:51:26.727Z</time></trkpt><trkpt lat="38.6864833" lon="16.36131"><ele>739.0</ele><time>2026-04-27T12:51:28.655Z</time></trkpt><trkpt lat="38.6863967" lon="16.361305"><ele>739.0</ele><time>2026-04-27T12:51:31.65Z</time></trkpt><trkpt lat="38.686315" lon="16.3612767"><ele>739.0</ele><time>2026-04-27T12:51:34.651Z</time></trkpt><trkpt lat="38.68624" lon="16.3612783"><ele>739.0</ele><time>2026-04-27T12:51:38.68Z</time></trkpt><trkpt lat="38.68617" lon="16.3612467"><ele>739.0</ele><time>2026-04-27T12:51:41.649Z</time></trkpt><trkpt lat="38.6860933" lon="16.3612233"><ele>739.0</ele><time>2026-04-27T12:51:44.685Z</time></trkpt><trkpt lat="38.6860183" lon="16.3612083"><ele>739.0</ele><time>2026-04-27T12:51:47.651Z</time></trkpt><trkpt lat="38.6859167" lon="16.361175"><ele>737.8333333333334</ele><time>2026-04-27T12:51:50.688Z</time></trkpt><trkpt lat="38.6858167" lon="16.3611333"><ele>736.6666666666667</ele><time>2026-04-27T12:51:52.652Z</time></trkpt><trkpt lat="38.685755" lon="16.3611083"><ele>735.5</ele><time>2026-04-27T12:51:53.644Z</time></trkpt><trkpt lat="38.68568" lon="16.36108"><ele>734.3333333333334</ele><time>2026-04-27T12:51:54.65Z</time></trkpt><trkpt lat="38.6856033" lon="16.3610433"><ele>733.1666666666666</ele><time>2026-04-27T12:51:55.652Z</time></trkpt><trkpt lat="38.68553" lon="16.361005"><ele>732.0</ele><time>2026-04-27T12:51:56.708Z</time></trkpt><trkpt lat="38.6854683" lon="16.3609583"><ele>732.0</ele><time>2026-04-27T12:51:57.652Z</time></trkpt><trkpt lat="38.6853617" lon="16.360885"><ele>732.0</ele><time>2026-04-27T12:51:59.648Z</time></trkpt><trkpt lat="38.685265" lon="16.3608"><ele>732.0</ele><time>2026-04-27T12:52:01.65Z</time></trkpt><trkpt lat="38.6851717" lon="16.3606617"><ele>732.0</ele><time>2026-04-27T12:52:03.648Z</time></trkpt><trkpt lat="38.6851133" lon="16.3605833"><ele>729.8333333333334</ele><time>2026-04-27T12:52:04.651Z</time></trkpt><trkpt lat="38.6850333" lon="16.3605133"><ele>727.6666666666666</ele><time>2026-04-27T12:52:05.654Z</time></trkpt><trkpt lat="38.6849617" lon="16.3604483"><ele>725.5</ele><time>2026-04-27T12:52:06.657Z</time></trkpt><trkpt lat="38.6848983" lon="16.3603933"><ele>723.3333333333333</ele><time>2026-04-27T12:52:07.652Z</time></trkpt><trkpt lat="38.6848217" lon="16.3603417"><ele>721.1666666666666</ele><time>2026-04-27T12:52:08.683Z</time></trkpt><trkpt lat="38.684755" lon="16.3602967"><ele>719.0</ele><time>2026-04-27T12:52:09.647Z</time></trkpt><trkpt lat="38.6846967" lon="16.3602583"><ele>719.0</ele><time>2026-04-27T12:52:10.654Z</time></trkpt><trkpt lat="38.684605" lon="16.3602233"><ele>719.0</ele><time>2026-04-27T12:52:11.649Z</time></trkpt><trkpt lat="38.6845417" lon="16.360205"><ele>719.0</ele><time>2026-04-27T12:52:12.647Z</time></trkpt><trkpt lat="38.6844683" lon="16.3602033"><ele>719.0</ele><time>2026-04-27T12:52:13.649Z</time></trkpt><trkpt lat="38.6844" lon="16.3602267"><ele>719.0</ele><time>2026-04-27T12:52:14.682Z</time></trkpt><trkpt lat="38.6843317" lon="16.3602467"><ele>719.0</ele><time>2026-04-27T12:52:15.649Z</time></trkpt><trkpt lat="38.6842567" lon="16.3602383"><ele>719.0</ele><time>2026-04-27T12:52:16.653Z</time></trkpt><trkpt lat="38.6841817" lon="16.3602433"><ele>719.0</ele><time>2026-04-27T12:52:18.656Z</time></trkpt><trkpt lat="38.68423" lon="16.3600983"><ele>719.0</ele><time>2026-04-27T12:52:20.684Z</time></trkpt><trkpt lat="38.6842433" lon="16.35999"><ele>719.0</ele><time>2026-04-27T12:52:21.652Z</time></trkpt><trkpt lat="38.684265" lon="16.35987"><ele>719.0</ele><time>2026-04-27T12:52:22.652Z</time></trkpt><trkpt lat="38.6842717" lon="16.35971"><ele>716.75</ele><time>2026-04-27T12:52:23.646Z</time></trkpt><trkpt lat="38.6842733" lon="16.3595433"><ele>714.5</ele><time>2026-04-27T12:52:24.65Z</time></trkpt><trkpt lat="38.68426" lon="16.3593567"><ele>712.25</ele><time>2026-04-27T12:52:25.657Z</time></trkpt><trkpt lat="38.6842417" lon="16.35918"><ele>710.0</ele><time>2026-04-27T12:52:26.7Z</time></trkpt><trkpt lat="38.6842217" lon="16.359015"><ele>708.25</ele><time>2026-04-27T12:52:27.642Z</time></trkpt><trkpt lat="38.6841833" lon="16.35885"><ele>706.5</ele><time>2026-04-27T12:52:28.647Z</time></trkpt><trkpt lat="38.684135" lon="16.3586967"><ele>704.75</ele><time>2026-04-27T12:52:29.643Z</time></trkpt><trkpt lat="38.684075" lon="16.3585633"><ele>703.0</ele><time>2026-04-27T12:52:30.648Z</time></trkpt><trkpt lat="38.6840183" lon="16.3584317"><ele>703.0</ele><time>2026-04-27T12:52:31.646Z</time></trkpt><trkpt lat="38.6839783" lon="16.358305"><ele>703.0</ele><time>2026-04-27T12:52:32.687Z</time></trkpt><trkpt lat="38.683955" lon="16.3581667"><ele>703.0</ele><time>2026-04-27T12:52:33.643Z</time></trkpt><trkpt lat="38.68393" lon="16.3580167"><ele>703.0</ele><time>2026-04-27T12:52:34.649Z</time></trkpt><trkpt lat="38.6839267" lon="16.3578617"><ele>701.5</ele><time>2026-04-27T12:52:35.645Z</time></trkpt><trkpt lat="38.6839383" lon="16.3576983"><ele>700.0</ele><time>2026-04-27T12:52:36.645Z</time></trkpt><trkpt lat="38.6839733" lon="16.3575333"><ele>698.5</ele><time>2026-04-27T12:52:37.644Z</time></trkpt><trkpt lat="38.6839917" lon="16.3573817"><ele>697.0</ele><time>2026-04-27T12:52:38.68Z</time></trkpt><trkpt lat="38.6840017" lon="16.357255"><ele>697.4000000000001</ele><time>2026-04-27T12:52:39.666Z</time></trkpt><trkpt lat="38.6840117" lon="16.35714"><ele>697.8000000000001</ele><time>2026-04-27T12:52:40.649Z</time></trkpt><trkpt lat="38.6840217" lon="16.357015"><ele>698.2</ele><time>2026-04-27T12:52:41.646Z</time></trkpt><trkpt lat="38.6840183" lon="16.3568833"><ele>698.6</ele><time>2026-04-27T12:52:42.648Z</time></trkpt><trkpt lat="38.683985" lon="16.3566983"><ele>699.0</ele><time>2026-04-27T12:52:43.648Z</time></trkpt><trkpt lat="38.683965" lon="16.356505"><ele>700.3333333333334</ele><time>2026-04-27T12:52:44.674Z</time></trkpt><trkpt lat="38.68396" lon="16.3562917"><ele>701.6666666666667</ele><time>2026-04-27T12:52:45.642Z</time></trkpt><trkpt lat="38.6839533" lon="16.356075"><ele>703.0</ele><time>2026-04-27T12:52:46.647Z</time></trkpt><trkpt lat="38.6839467" lon="16.3558617"><ele>703.0</ele><time>2026-04-27T12:52:47.65Z</time></trkpt><trkpt lat="38.683935" lon="16.3556617"><ele>703.0</ele><time>2026-04-27T12:52:48.652Z</time></trkpt><trkpt lat="38.6839117" lon="16.3554667"><ele>703.0</ele><time>2026-04-27T12:52:49.651Z</time></trkpt><trkpt lat="38.6838783" lon="16.35528"><ele>701.3333333333334</ele><time>2026-04-27T12:52:50.678Z</time></trkpt><trkpt lat="38.6838233" lon="16.3551017"><ele>699.6666666666666</ele><time>2026-04-27T12:52:51.646Z</time></trkpt><trkpt lat="38.6837183" lon="16.3549533"><ele>698.0</ele><time>2026-04-27T12:52:52.646Z</time></trkpt><trkpt lat="38.6836233" lon="16.3548083"><ele>694.75</ele><time>2026-04-27T12:52:53.642Z</time></trkpt><trkpt lat="38.6835233" lon="16.354685"><ele>691.5</ele><time>2026-04-27T12:52:54.648Z</time></trkpt><trkpt lat="38.683425" lon="16.3545767"><ele>688.25</ele><time>2026-04-27T12:52:55.642Z</time></trkpt><trkpt lat="38.683305" lon="16.3544933"><ele>685.0</ele><time>2026-04-27T12:52:56.687Z</time></trkpt><trkpt lat="38.683215" lon="16.354415"><ele>685.0</ele><time>2026-04-27T12:52:57.646Z</time></trkpt><trkpt lat="38.6831483" lon="16.3543417"><ele>685.0</ele><time>2026-04-27T12:52:58.649Z</time></trkpt><trkpt lat="38.68308" lon="16.3542583"><ele>685.0</ele><time>2026-04-27T12:52:59.653Z</time></trkpt><trkpt lat="38.68305" lon="16.3541567"><ele>685.0</ele><time>2026-04-27T12:53:00.649Z</time></trkpt><trkpt lat="38.683065" lon="16.3540183"><ele>685.0</ele><time>2026-04-27T12:53:01.65Z</time></trkpt><trkpt lat="38.6830967" lon="16.3538933"><ele>686.2</ele><time>2026-04-27T12:53:02.694Z</time></trkpt><trkpt lat="38.6831333" lon="16.35378"><ele>687.4</ele><time>2026-04-27T12:53:03.649Z</time></trkpt><trkpt lat="38.6831833" lon="16.3536883"><ele>688.5999999999999</ele><time>2026-04-27T12:53:04.652Z</time></trkpt><trkpt lat="38.683245" lon="16.3536067"><ele>689.8</ele><time>2026-04-27T12:53:05.647Z</time></trkpt><trkpt lat="38.6833133" lon="16.353515"><ele>691.0</ele><time>2026-04-27T12:53:06.655Z</time></trkpt><trkpt lat="38.683385" lon="16.353415"><ele>691.0</ele><time>2026-04-27T12:53:07.65Z</time></trkpt><trkpt lat="38.683475" lon="16.3532833"><ele>691.0</ele><time>2026-04-27T12:53:08.683Z</time></trkpt><trkpt lat="38.6835717" lon="16.35315"><ele>691.0</ele><time>2026-04-27T12:53:09.644Z</time></trkpt><trkpt lat="38.6836683" lon="16.3529967"><ele>691.0</ele><time>2026-04-27T12:53:10.653Z</time></trkpt><trkpt lat="38.6837617" lon="16.3528483"><ele>693.75</ele><time>2026-04-27T12:53:11.648Z</time></trkpt><trkpt lat="38.6838433" lon="16.35271"><ele>696.5</ele><time>2026-04-27T12:53:12.654Z</time></trkpt><trkpt lat="38.6839133" lon="16.3525833"><ele>699.25</ele><time>2026-04-27T12:53:13.649Z</time></trkpt><trkpt lat="38.6839633" lon="16.352475"><ele>702.0</ele><time>2026-04-27T12:53:14.682Z</time></trkpt><trkpt lat="38.683975" lon="16.3523517"><ele>702.0</ele><time>2026-04-27T12:53:16.651Z</time></trkpt><trkpt lat="38.683855" lon="16.3523433"><ele>702.0</ele><time>2026-04-27T12:53:18.655Z</time></trkpt><trkpt lat="38.683765" lon="16.35238"><ele>702.0</ele><time>2026-04-27T12:53:19.651Z</time></trkpt><trkpt lat="38.6836667" lon="16.3524283"><ele>702.0</ele><time>2026-04-27T12:53:20.679Z</time></trkpt><trkpt lat="38.6835683" lon="16.3524867"><ele>702.0</ele><time>2026-04-27T12:53:21.649Z</time></trkpt><trkpt lat="38.6834817" lon="16.3525333"><ele>702.1666666666666</ele><time>2026-04-27T12:53:22.655Z</time></trkpt><trkpt lat="38.6833933" lon="16.3525717"><ele>702.3333333333334</ele><time>2026-04-27T12:53:23.647Z</time></trkpt><trkpt lat="38.6833183" lon="16.3525983"><ele>702.5</ele><time>2026-04-27T12:53:24.654Z</time></trkpt><trkpt lat="38.6832383" lon="16.3526467"><ele>702.6666666666667</ele><time>2026-04-27T12:53:25.659Z</time></trkpt><trkpt lat="38.68316" lon="16.3526783"><ele>702.8333333333334</ele><time>2026-04-27T12:53:26.696Z</time></trkpt><trkpt lat="38.6830617" lon="16.3527217"><ele>703.0</ele><time>2026-04-27T12:53:27.646Z</time></trkpt><trkpt lat="38.6829767" lon="16.3527633"><ele>703.0</ele><time>2026-04-27T12:53:28.654Z</time></trkpt><trkpt lat="38.6829033" lon="16.3528033"><ele>703.0</ele><time>2026-04-27T12:53:29.646Z</time></trkpt><trkpt lat="38.6828383" lon="16.3528433"><ele>703.0</ele><time>2026-04-27T12:53:30.65Z</time></trkpt><trkpt lat="38.6827783" lon="16.3528817"><ele>703.0</ele><time>2026-04-27T12:53:31.655Z</time></trkpt><trkpt lat="38.6826883" lon="16.3528617"><ele>703.0</ele><time>2026-04-27T12:53:33.649Z</time></trkpt><trkpt lat="38.6826617" lon="16.3526783"><ele>704.2</ele><time>2026-04-27T12:53:35.648Z</time></trkpt><trkpt lat="38.6826283" lon="16.3525483"><ele>705.4</ele><time>2026-04-27T12:53:36.651Z</time></trkpt><trkpt lat="38.6826033" lon="16.3524683"><ele>706.6</ele><time>2026-04-27T12:53:37.649Z</time></trkpt><trkpt lat="38.68253" lon="16.3523667"><ele>707.8000000000001</ele><time>2026-04-27T12:53:39.646Z</time></trkpt><trkpt lat="38.6824167" lon="16.352335"><ele>709.0</ele><time>2026-04-27T12:53:41.647Z</time></trkpt><trkpt lat="38.6823383" lon="16.3523917"><ele>709.0</ele><time>2026-04-27T12:53:42.65Z</time></trkpt><trkpt lat="38.6822517" lon="16.35242"><ele>709.0</ele><time>2026-04-27T12:53:43.653Z</time></trkpt><trkpt lat="38.68215" lon="16.3525267"><ele>709.0</ele><time>2026-04-27T12:53:44.685Z</time></trkpt><trkpt lat="38.6820733" lon="16.3527067"><ele>709.0</ele><time>2026-04-27T12:53:45.646Z</time></trkpt><trkpt lat="38.6820017" lon="16.3527717"><ele>709.0</ele><time>2026-04-27T12:53:46.65Z</time></trkpt><trkpt lat="38.681935" lon="16.3528283"><ele>709.0</ele><time>2026-04-27T12:53:47.645Z</time></trkpt><trkpt lat="38.68187" lon="16.3528983"><ele>709.0</ele><time>2026-04-27T12:53:48.656Z</time></trkpt><trkpt lat="38.6817767" lon="16.3528733"><ele>709.0</ele><time>2026-04-27T12:53:50.683Z</time></trkpt><trkpt lat="38.6817283" lon="16.3527817"><ele>709.0</ele><time>2026-04-27T12:53:52.649Z</time></trkpt><trkpt lat="38.6817967" lon="16.3526567"><ele>709.0</ele><time>2026-04-27T12:53:54.659Z</time></trkpt><trkpt lat="38.6818467" lon="16.3525767"><ele>709.0</ele><time>2026-04-27T12:53:55.648Z</time></trkpt><trkpt lat="38.6818917" lon="16.3524767"><ele>709.0</ele><time>2026-04-27T12:53:56.693Z</time></trkpt><trkpt lat="38.681935" lon="16.3523617"><ele>709.0</ele><time>2026-04-27T12:53:57.647Z</time></trkpt><trkpt lat="38.6819817" lon="16.3522233"><ele>709.0</ele><time>2026-04-27T12:53:58.648Z</time></trkpt><trkpt lat="38.682045" lon="16.35206"><ele>712.5</ele><time>2026-04-27T12:53:59.649Z</time></trkpt><trkpt lat="38.6821567" lon="16.351765"><ele>716.0</ele><time>2026-04-27T12:54:01.647Z</time></trkpt><trkpt lat="38.6822083" lon="16.35165"><ele>719.5</ele><time>2026-04-27T12:54:02.689Z</time></trkpt><trkpt lat="38.6822667" lon="16.3516133"><ele>723.0</ele><time>2026-04-27T12:54:05.646Z</time></trkpt><trkpt lat="38.682225" lon="16.3516933"><ele>723.0</ele><time>2026-04-27T12:54:11.649Z</time></trkpt><trkpt lat="38.6821867" lon="16.351795"><ele>723.0</ele><time>2026-04-27T12:54:13.651Z</time></trkpt><trkpt lat="38.6821583" lon="16.35188"><ele>723.0</ele><time>2026-04-27T12:54:14.683Z</time></trkpt><trkpt lat="38.6821233" lon="16.352"><ele>723.0</ele><time>2026-04-27T12:54:15.646Z</time></trkpt><trkpt lat="38.6820767" lon="16.352145"><ele>723.0</ele><time>2026-04-27T12:54:16.659Z</time></trkpt><trkpt lat="38.6820133" lon="16.3522867"><ele>722.8</ele><time>2026-04-27T12:54:17.649Z</time></trkpt><trkpt lat="38.6819467" lon="16.3524317"><ele>722.5999999999999</ele><time>2026-04-27T12:54:18.656Z</time></trkpt><trkpt lat="38.6818917" lon="16.3525667"><ele>722.4000000000001</ele><time>2026-04-27T12:54:19.653Z</time></trkpt><trkpt lat="38.681835" lon="16.3526833"><ele>722.2</ele><time>2026-04-27T12:54:20.684Z</time></trkpt><trkpt lat="38.6817817" lon="16.352775"><ele>722.0</ele><time>2026-04-27T12:54:21.646Z</time></trkpt><trkpt lat="38.6817233" lon="16.3528367"><ele>722.0</ele><time>2026-04-27T12:54:22.653Z</time></trkpt><trkpt lat="38.6816117" lon="16.3528733"><ele>722.0</ele><time>2026-04-27T12:54:24.654Z</time></trkpt><trkpt lat="38.6815517" lon="16.352845"><ele>722.0</ele><time>2026-04-27T12:54:25.651Z</time></trkpt><trkpt lat="38.6814967" lon="16.352795"><ele>722.0</ele><time>2026-04-27T12:54:26.695Z</time></trkpt><trkpt lat="38.6814383" lon="16.3527233"><ele>722.0</ele><time>2026-04-27T12:54:27.645Z</time></trkpt><trkpt lat="38.68136" lon="16.3526167"><ele>722.0</ele><time>2026-04-27T12:54:28.653Z</time></trkpt><trkpt lat="38.68128" lon="16.3525"><ele>722.0</ele><time>2026-04-27T12:54:29.65Z</time></trkpt><trkpt lat="38.6812017" lon="16.3523933"><ele>722.0</ele><time>2026-04-27T12:54:30.653Z</time></trkpt><trkpt lat="38.68114" lon="16.35228"><ele>722.0</ele><time>2026-04-27T12:54:31.654Z</time></trkpt><trkpt lat="38.68109" lon="16.3521717"><ele>722.0</ele><time>2026-04-27T12:54:32.7Z</time></trkpt><trkpt lat="38.68106" lon="16.3520317"><ele>722.0</ele><time>2026-04-27T12:54:33.65Z</time></trkpt><trkpt lat="38.68105" lon="16.351865"><ele>721.0</ele><time>2026-04-27T12:54:34.656Z</time></trkpt><trkpt lat="38.6810567" lon="16.3516233"><ele>720.0</ele><time>2026-04-27T12:54:35.648Z</time></trkpt><trkpt lat="38.681055" lon="16.3514167"><ele>719.0</ele><time>2026-04-27T12:54:36.659Z</time></trkpt><trkpt lat="38.6810533" lon="16.3512367"><ele>719.0</ele><time>2026-04-27T12:54:37.647Z</time></trkpt><trkpt lat="38.6810467" lon="16.3510683"><ele>719.0</ele><time>2026-04-27T12:54:38.68Z</time></trkpt><trkpt lat="38.6810417" lon="16.35092"><ele>719.0</ele><time>2026-04-27T12:54:39.651Z</time></trkpt><trkpt lat="38.681025" lon="16.35078"><ele>719.0</ele><time>2026-04-27T12:54:40.652Z</time></trkpt><trkpt lat="38.680995" lon="16.350655"><ele>719.0</ele><time>2026-04-27T12:54:41.654Z</time></trkpt><trkpt lat="38.680965" lon="16.350555"><ele>719.0</ele><time>2026-04-27T12:54:42.653Z</time></trkpt><trkpt lat="38.68091" lon="16.350485"><ele>719.0</ele><time>2026-04-27T12:54:43.651Z</time></trkpt><trkpt lat="38.6808117" lon="16.350445"><ele>719.0</ele><time>2026-04-27T12:54:44.682Z</time></trkpt><trkpt lat="38.680685" lon="16.3504317"><ele>719.0</ele><time>2026-04-27T12:54:45.651Z</time></trkpt><trkpt lat="38.680535" lon="16.3504133"><ele>720.0</ele><time>2026-04-27T12:54:46.65Z</time></trkpt><trkpt lat="38.6803967" lon="16.3503767"><ele>721.0</ele><time>2026-04-27T12:54:47.647Z</time></trkpt><trkpt lat="38.6802583" lon="16.350335"><ele>722.0</ele><time>2026-04-27T12:54:48.664Z</time></trkpt><trkpt lat="38.6801433" lon="16.350295"><ele>723.0</ele><time>2026-04-27T12:54:49.652Z</time></trkpt><trkpt lat="38.6800467" lon="16.3502317"><ele>724.0</ele><time>2026-04-27T12:54:50.684Z</time></trkpt><trkpt lat="38.67996" lon="16.3501467"><ele>725.0</ele><time>2026-04-27T12:54:51.645Z</time></trkpt><trkpt lat="38.6798667" lon="16.3500367"><ele>726.0</ele><time>2026-04-27T12:54:52.655Z</time></trkpt><trkpt lat="38.6797467" lon="16.349905"><ele>727.0</ele><time>2026-04-27T12:54:53.651Z</time></trkpt><trkpt lat="38.6796183" lon="16.3497667"><ele>728.3333333333334</ele><time>2026-04-27T12:54:54.653Z</time></trkpt><trkpt lat="38.6794867" lon="16.34963"><ele>729.6666666666666</ele><time>2026-04-27T12:54:55.649Z</time></trkpt><trkpt lat="38.6793683" lon="16.349495"><ele>731.0</ele><time>2026-04-27T12:54:56.712Z</time></trkpt><trkpt lat="38.67928" lon="16.34936"><ele>731.25</ele><time>2026-04-27T12:54:57.647Z</time></trkpt><trkpt lat="38.67919" lon="16.3492167"><ele>731.5</ele><time>2026-04-27T12:54:58.653Z</time></trkpt><trkpt lat="38.679105" lon="16.34908"><ele>731.75</ele><time>2026-04-27T12:54:59.651Z</time></trkpt><trkpt lat="38.6790217" lon="16.3489483"><ele>732.0</ele><time>2026-04-27T12:55:00.654Z</time></trkpt><trkpt lat="38.6789233" lon="16.3488467"><ele>732.4000000000001</ele><time>2026-04-27T12:55:01.644Z</time></trkpt><trkpt lat="38.6788317" lon="16.3487833"><ele>732.8000000000001</ele><time>2026-04-27T12:55:02.697Z</time></trkpt><trkpt lat="38.6787417" lon="16.3487717"><ele>733.2</ele><time>2026-04-27T12:55:03.647Z</time></trkpt><trkpt lat="38.6786533" lon="16.3487733"><ele>733.6</ele><time>2026-04-27T12:55:04.66Z</time></trkpt><trkpt lat="38.6785783" lon="16.3488017"><ele>734.0</ele><time>2026-04-27T12:55:05.642Z</time></trkpt><trkpt lat="38.6785117" lon="16.3489133"><ele>734.6</ele><time>2026-04-27T12:55:06.647Z</time></trkpt><trkpt lat="38.678425" lon="16.3489983"><ele>735.2</ele><time>2026-04-27T12:55:07.647Z</time></trkpt><trkpt lat="38.6783417" lon="16.349085"><ele>735.8000000000001</ele><time>2026-04-27T12:55:08.68Z</time></trkpt><trkpt lat="38.6782567" lon="16.3491583"><ele>736.4000000000001</ele><time>2026-04-27T12:55:09.647Z</time></trkpt><trkpt lat="38.67817" lon="16.34921"><ele>737.0</ele><time>2026-04-27T12:55:10.649Z</time></trkpt><trkpt lat="38.6780683" lon="16.34923"><ele>737.0</ele><time>2026-04-27T12:55:11.646Z</time></trkpt><trkpt lat="38.6779483" lon="16.3492033"><ele>737.0</ele><time>2026-04-27T12:55:12.653Z</time></trkpt><trkpt lat="38.6778067" lon="16.3491417"><ele>737.0</ele><time>2026-04-27T12:55:13.647Z</time></trkpt><trkpt lat="38.6776667" lon="16.3490433"><ele>737.0</ele><time>2026-04-27T12:55:14.68Z</time></trkpt><trkpt lat="38.67751" lon="16.34889"><ele>737.6666666666666</ele><time>2026-04-27T12:55:15.647Z</time></trkpt><trkpt lat="38.6773533" lon="16.3487417"><ele>738.3333333333334</ele><time>2026-04-27T12:55:16.654Z</time></trkpt><trkpt lat="38.6772117" lon="16.3485983"><ele>739.0</ele><time>2026-04-27T12:55:17.647Z</time></trkpt><trkpt lat="38.67709" lon="16.3484717"><ele>739.0</ele><time>2026-04-27T12:55:18.655Z</time></trkpt><trkpt lat="38.676975" lon="16.3483483"><ele>739.0</ele><time>2026-04-27T12:55:19.651Z</time></trkpt><trkpt lat="38.6768767" lon="16.3482433"><ele>739.0</ele><time>2026-04-27T12:55:20.684Z</time></trkpt><trkpt lat="38.676785" lon="16.3481633"><ele>739.0</ele><time>2026-04-27T12:55:21.649Z</time></trkpt><trkpt lat="38.676685" lon="16.3481033"><ele>738.2</ele><time>2026-04-27T12:55:22.655Z</time></trkpt><trkpt lat="38.6765933" lon="16.3480717"><ele>737.4000000000001</ele><time>2026-04-27T12:55:23.65Z</time></trkpt><trkpt lat="38.6764967" lon="16.3480933"><ele>736.6</ele><time>2026-04-27T12:55:24.66Z</time></trkpt><trkpt lat="38.6763933" lon="16.3481417"><ele>735.8</ele><time>2026-04-27T12:55:25.65Z</time></trkpt><trkpt lat="38.67627" lon="16.3482233"><ele>735.0</ele><time>2026-04-27T12:55:26.692Z</time></trkpt><trkpt lat="38.6761267" lon="16.3483133"><ele>735.0</ele><time>2026-04-27T12:55:27.651Z</time></trkpt><trkpt lat="38.6759667" lon="16.3483783"><ele>735.0</ele><time>2026-04-27T12:55:28.652Z</time></trkpt><trkpt lat="38.6758083" lon="16.3484233"><ele>735.0</ele><time>2026-04-27T12:55:29.652Z</time></trkpt><trkpt lat="38.67565" lon="16.3484533"><ele>735.0</ele><time>2026-04-27T12:55:30.655Z</time></trkpt><trkpt lat="38.6755133" lon="16.3484817"><ele>735.0</ele><time>2026-04-27T12:55:31.652Z</time></trkpt><trkpt lat="38.6753967" lon="16.3485033"><ele>735.0</ele><time>2026-04-27T12:55:32.696Z</time></trkpt><trkpt lat="38.67919" lon="16.3492167"><ele>734.75</ele><time>2026-04-27T12:54:58.653Z</time></trkpt><trkpt lat="38.679105" lon="16.34908"><ele>734.5</ele><time>2026-04-27T12:54:59.651Z</time></trkpt><trkpt lat="38.6790217" lon="16.3489483"><ele>734.25</ele><time>2026-04-27T12:55:00.654Z</time></trkpt><trkpt lat="38.6789233" lon="16.3488467"><ele>734.0</ele><time>2026-04-27T12:55:01.644Z</time></trkpt><trkpt lat="38.6788317" lon="16.3487833"><ele>734.0</ele><time>2026-04-27T12:55:02.697Z</time></trkpt><trkpt lat="38.6787417" lon="16.3487717"><ele>734.0</ele><time>2026-04-27T12:55:03.647Z</time></trkpt><trkpt lat="38.6786533" lon="16.3487733"><ele>734.0</ele><time>2026-04-27T12:55:04.66Z</time></trkpt><trkpt lat="38.6785783" lon="16.3488017"><ele>734.0</ele><time>2026-04-27T12:55:05.642Z</time></trkpt><trkpt lat="38.6785117" lon="16.3489133"><ele>734.0</ele><time>2026-04-27T12:55:06.647Z</time></trkpt><trkpt lat="38.678425" lon="16.3489983"><ele>734.6</ele><time>2026-04-27T12:55:07.647Z</time></trkpt><trkpt lat="38.6783417" lon="16.349085"><ele>735.2</ele><time>2026-04-27T12:55:08.68Z</time></trkpt><trkpt lat="38.6782567" lon="16.3491583"><ele>735.8000000000001</ele><time>2026-04-27T12:55:09.647Z</time></trkpt><trkpt lat="38.67817" lon="16.34921"><ele>736.4000000000001</ele><time>2026-04-27T12:55:10.649Z</time></trkpt><trkpt lat="38.6780683" lon="16.34923"><ele>737.0</ele><time>2026-04-27T12:55:11.646Z</time></trkpt><trkpt lat="38.6779483" lon="16.3492033"><ele>737.0</ele><time>2026-04-27T12:55:12.653Z</time></trkpt><trkpt lat="38.6778067" lon="16.3491417"><ele>737.0</ele><time>2026-04-27T12:55:13.647Z</time></trkpt><trkpt lat="38.6776667" lon="16.3490433"><ele>737.0</ele><time>2026-04-27T12:55:14.68Z</time></trkpt><trkpt lat="38.67751" lon="16.34889"><ele>737.6666666666666</ele><time>2026-04-27T12:55:15.647Z</time></trkpt><trkpt lat="38.6773533" lon="16.3487417"><ele>738.3333333333334</ele><time>2026-04-27T12:55:16.654Z</time></trkpt><trkpt lat="38.6772117" lon="16.3485983"><ele>739.0</ele><time>2026-04-27T12:55:17.647Z</time></trkpt><trkpt lat="38.67709" lon="16.3484717"><ele>739.0</ele><time>2026-04-27T12:55:18.655Z</time></trkpt><trkpt lat="38.676975" lon="16.3483483"><ele>739.0</ele><time>2026-04-27T12:55:19.651Z</time></trkpt><trkpt lat="38.6768767" lon="16.3482433"><ele>739.0</ele><time>2026-04-27T12:55:20.684Z</time></trkpt><trkpt lat="38.676785" lon="16.3481633"><ele>739.0</ele><time>2026-04-27T12:55:21.649Z</time></trkpt><trkpt lat="38.676685" lon="16.3481033"><ele>738.2</ele><time>2026-04-27T12:55:22.655Z</time></trkpt><trkpt lat="38.6765933" lon="16.3480717"><ele>737.4000000000001</ele><time>2026-04-27T12:55:23.65Z</time></trkpt><trkpt lat="38.6764967" lon="16.3480933"><ele>736.6</ele><time>2026-04-27T12:55:24.66Z</time></trkpt><trkpt lat="38.6763933" lon="16.3481417"><ele>735.8</ele><time>2026-04-27T12:55:25.65Z</time></trkpt><trkpt lat="38.67627" lon="16.3482233"><ele>735.0</ele><time>2026-04-27T12:55:26.692Z</time></trkpt><trkpt lat="38.6761267" lon="16.3483133"><ele>735.0</ele><time>2026-04-27T12:55:27.651Z</time></trkpt><trkpt lat="38.6759667" lon="16.3483783"><ele>735.0</ele><time>2026-04-27T12:55:28.652Z</time></trkpt><trkpt lat="38.6758083" lon="16.3484233"><ele>735.0</ele><time>2026-04-27T12:55:29.652Z</time></trkpt><trkpt lat="38.67565" lon="16.3484533"><ele>735.0</ele><time>2026-04-27T12:55:30.655Z</time></trkpt><trkpt lat="38.6755133" lon="16.3484817"><ele>735.0</ele><time>2026-04-27T12:55:31.652Z</time></trkpt><trkpt lat="38.6753967" lon="16.3485033"><ele>735.0</ele><time>2026-04-27T12:55:32.696Z</time></trkpt><trkpt lat="38.6752917" lon="16.34854"><ele>735.0</ele><time>2026-04-27T12:55:33.647Z</time></trkpt><trkpt lat="38.67519" lon="16.34858"><ele>736.75</ele><time>2026-04-27T12:55:34.653Z</time></trkpt><trkpt lat="38.67511" lon="16.34865"><ele>738.5</ele><time>2026-04-27T12:55:35.649Z</time></trkpt><trkpt lat="38.6750383" lon="16.3487533"><ele>740.25</ele><time>2026-04-27T12:55:36.654Z</time></trkpt><trkpt lat="38.67498" lon="16.34889"><ele>742.0</ele><time>2026-04-27T12:55:37.653Z</time></trkpt><trkpt lat="38.67494" lon="16.34909"><ele>742.0</ele><time>2026-04-27T12:55:38.68Z</time></trkpt><trkpt lat="38.6748917" lon="16.3493067"><ele>742.0</ele><time>2026-04-27T12:55:39.644Z</time></trkpt><trkpt lat="38.6748467" lon="16.3495333"><ele>742.0</ele><time>2026-04-27T12:55:40.655Z</time></trkpt><trkpt lat="38.674825" lon="16.34975"><ele>743.6666666666667</ele><time>2026-04-27T12:55:41.655Z</time></trkpt><trkpt lat="38.6748017" lon="16.3499483"><ele>745.3333333333334</ele><time>2026-04-27T12:55:42.647Z</time></trkpt><trkpt lat="38.67477" lon="16.35014"><ele>747.0</ele><time>2026-04-27T12:55:43.65Z</time></trkpt><trkpt lat="38.674725" lon="16.35032"><ele>747.0</ele><time>2026-04-27T12:55:44.681Z</time></trkpt><trkpt lat="38.67465" lon="16.3504917"><ele>747.0</ele><time>2026-04-27T12:55:45.648Z</time></trkpt><trkpt lat="38.67456" lon="16.3506633"><ele>747.0</ele><time>2026-04-27T12:55:46.652Z</time></trkpt><trkpt lat="38.6744633" lon="16.3508367"><ele>750.0</ele><time>2026-04-27T12:55:47.645Z</time></trkpt><trkpt lat="38.6743733" lon="16.3510217"><ele>753.0</ele><time>2026-04-27T12:55:48.652Z</time></trkpt><trkpt lat="38.6742767" lon="16.3512117"><ele>756.0</ele><time>2026-04-27T12:55:49.646Z</time></trkpt><trkpt lat="38.6741767" lon="16.3514117"><ele>757.0</ele><time>2026-04-27T12:55:50.684Z</time></trkpt><trkpt lat="38.6740667" lon="16.35162"><ele>758.0</ele><time>2026-04-27T12:55:51.648Z</time></trkpt><trkpt lat="38.6739533" lon="16.3518233"><ele>759.0</ele><time>2026-04-27T12:55:52.651Z</time></trkpt><trkpt lat="38.673845" lon="16.3520083"><ele>759.0</ele><time>2026-04-27T12:55:53.645Z</time></trkpt><trkpt lat="38.673735" lon="16.3521633"><ele>759.0</ele><time>2026-04-27T12:55:54.652Z</time></trkpt><trkpt lat="38.6736183" lon="16.352295"><ele>759.0</ele><time>2026-04-27T12:55:55.644Z</time></trkpt><trkpt lat="38.6734983" lon="16.3524233"><ele>762.3333333333333</ele><time>2026-04-27T12:55:56.716Z</time></trkpt><trkpt lat="38.6733717" lon="16.3525533"><ele>765.6666666666666</ele><time>2026-04-27T12:55:57.65Z</time></trkpt><trkpt lat="38.6732333" lon="16.35267"><ele>769.0</ele><time>2026-04-27T12:55:58.653Z</time></trkpt><trkpt lat="38.6730833" lon="16.352775"><ele>769.0</ele><time>2026-04-27T12:55:59.646Z</time></trkpt><trkpt lat="38.67292" lon="16.3528717"><ele>769.0</ele><time>2026-04-27T12:56:00.653Z</time></trkpt><trkpt lat="38.6727533" lon="16.35296"><ele>769.0</ele><time>2026-04-27T12:56:01.649Z</time></trkpt><trkpt lat="38.672585" lon="16.3530467"><ele>772.0</ele><time>2026-04-27T12:56:02.691Z</time></trkpt><trkpt lat="38.672425" lon="16.35312"><ele>775.0</ele><time>2026-04-27T12:56:03.647Z</time></trkpt><trkpt lat="38.672275" lon="16.3531833"><ele>778.0</ele><time>2026-04-27T12:56:04.649Z</time></trkpt><trkpt lat="38.6721183" lon="16.3532333"><ele>778.0</ele><time>2026-04-27T12:56:05.651Z</time></trkpt><trkpt lat="38.6719667" lon="16.3532633"><ele>778.0</ele><time>2026-04-27T12:56:06.654Z</time></trkpt><trkpt lat="38.6718083" lon="16.3532733"><ele>778.0</ele><time>2026-04-27T12:56:07.651Z</time></trkpt><trkpt lat="38.6716483" lon="16.3532683"><ele>780.0</ele><time>2026-04-27T12:56:08.68Z</time></trkpt><trkpt lat="38.6714883" lon="16.3532667"><ele>782.0</ele><time>2026-04-27T12:56:09.65Z</time></trkpt><trkpt lat="38.6713283" lon="16.353265"><ele>784.0</ele><time>2026-04-27T12:56:10.653Z</time></trkpt><trkpt lat="38.6711633" lon="16.3532767"><ele>785.0</ele><time>2026-04-27T12:56:11.653Z</time></trkpt><trkpt lat="38.6710083" lon="16.353295"><ele>786.0</ele><time>2026-04-27T12:56:12.652Z</time></trkpt><trkpt lat="38.6708583" lon="16.3533283"><ele>787.0</ele><time>2026-04-27T12:56:13.643Z</time></trkpt><trkpt lat="38.6706733" lon="16.3534"><ele>787.0</ele><time>2026-04-27T12:56:14.683Z</time></trkpt><trkpt lat="38.670535" lon="16.35348"><ele>787.0</ele><time>2026-04-27T12:56:15.653Z</time></trkpt><trkpt lat="38.6704083" lon="16.3535783"><ele>787.0</ele><time>2026-04-27T12:56:16.654Z</time></trkpt><trkpt lat="38.6702933" lon="16.3537083"><ele>787.0</ele><time>2026-04-27T12:56:17.643Z</time></trkpt><trkpt lat="38.6701783" lon="16.3538567"><ele>787.0</ele><time>2026-04-27T12:56:18.651Z</time></trkpt><trkpt lat="38.67005" lon="16.3540267"><ele>787.0</ele><time>2026-04-27T12:56:19.643Z</time></trkpt><trkpt lat="38.6699233" lon="16.3541883"><ele>786.3333333333333</ele><time>2026-04-27T12:56:20.685Z</time></trkpt><trkpt lat="38.6697983" lon="16.3543383"><ele>785.6666666666667</ele><time>2026-04-27T12:56:21.652Z</time></trkpt><trkpt lat="38.669675" lon="16.354475"><ele>785.0</ele><time>2026-04-27T12:56:22.655Z</time></trkpt><trkpt lat="38.669565" lon="16.3545967"><ele>785.0</ele><time>2026-04-27T12:56:23.659Z</time></trkpt><trkpt lat="38.6694683" lon="16.35469"><ele>785.0</ele><time>2026-04-27T12:56:24.653Z</time></trkpt><trkpt lat="38.6693933" lon="16.3547483"><ele>785.0</ele><time>2026-04-27T12:56:25.65Z</time></trkpt><trkpt lat="38.6693133" lon="16.3547817"><ele>785.0</ele><time>2026-04-27T12:56:26.69Z</time></trkpt><trkpt lat="38.6692383" lon="16.3547767"><ele>785.0</ele><time>2026-04-27T12:56:27.643Z</time></trkpt><trkpt lat="38.669155" lon="16.3547417"><ele>785.8</ele><time>2026-04-27T12:56:28.651Z</time></trkpt><trkpt lat="38.6690583" lon="16.3546883"><ele>786.6</ele><time>2026-04-27T12:56:29.648Z</time></trkpt><trkpt lat="38.6689533" lon="16.3546267"><ele>787.4000000000001</ele><time>2026-04-27T12:56:30.653Z</time></trkpt><trkpt lat="38.6688567" lon="16.35457"><ele>788.2</ele><time>2026-04-27T12:56:31.648Z</time></trkpt><trkpt lat="38.66877" lon="16.3545033"><ele>789.0</ele><time>2026-04-27T12:56:32.699Z</time></trkpt><trkpt lat="38.6686833" lon="16.3544067"><ele>789.3333333333333</ele><time>2026-04-27T12:56:33.645Z</time></trkpt><trkpt lat="38.6685983" lon="16.35428"><ele>789.6666666666666</ele><time>2026-04-27T12:56:34.653Z</time></trkpt><trkpt lat="38.6685267" lon="16.3541217"><ele>790.0</ele><time>2026-04-27T12:56:35.647Z</time></trkpt><trkpt lat="38.668445" lon="16.35391"><ele>790.3333333333333</ele><time>2026-04-27T12:56:36.66Z</time></trkpt><trkpt lat="38.6683567" lon="16.3536967"><ele>790.6666666666667</ele><time>2026-04-27T12:56:37.646Z</time></trkpt><trkpt lat="38.668265" lon="16.35351"><ele>791.0</ele><time>2026-04-27T12:56:38.677Z</time></trkpt><trkpt lat="38.6681767" lon="16.35335"><ele>791.0</ele><time>2026-04-27T12:56:39.646Z</time></trkpt><trkpt lat="38.6680983" lon="16.3532117"><ele>791.0</ele><time>2026-04-27T12:56:40.644Z</time></trkpt><trkpt lat="38.6680183" lon="16.3530717"><ele>791.0</ele><time>2026-04-27T12:56:41.652Z</time></trkpt><trkpt lat="38.6679433" lon="16.3529283"><ele>791.0</ele><time>2026-04-27T12:56:42.65Z</time></trkpt><trkpt lat="38.6678783" lon="16.3527617"><ele>791.3333333333334</ele><time>2026-04-27T12:56:43.652Z</time></trkpt><trkpt lat="38.66781" lon="16.352585"><ele>791.6666666666667</ele><time>2026-04-27T12:56:44.681Z</time></trkpt><trkpt lat="38.667735" lon="16.3523883"><ele>792.0</ele><time>2026-04-27T12:56:45.644Z</time></trkpt><trkpt lat="38.6676567" lon="16.3521917"><ele>793.6666666666667</ele><time>2026-04-27T12:56:46.65Z</time></trkpt><trkpt lat="38.66759" lon="16.3519983"><ele>795.3333333333334</ele><time>2026-04-27T12:56:47.64Z</time></trkpt><trkpt lat="38.6675217" lon="16.351815"><ele>797.0</ele><time>2026-04-27T12:56:48.652Z</time></trkpt><trkpt lat="38.6674533" lon="16.3516383"><ele>797.0</ele><time>2026-04-27T12:56:49.65Z</time></trkpt><trkpt lat="38.6673833" lon="16.3514567"><ele>797.0</ele><time>2026-04-27T12:56:50.675Z</time></trkpt><trkpt lat="38.6673117" lon="16.351275"><ele>797.0</ele><time>2026-04-27T12:56:51.652Z</time></trkpt><trkpt lat="38.6672433" lon="16.351085"><ele>795.3333333333334</ele><time>2026-04-27T12:56:52.651Z</time></trkpt><trkpt lat="38.6671783" lon="16.350905"><ele>793.6666666666667</ele><time>2026-04-27T12:56:53.644Z</time></trkpt><trkpt lat="38.6671233" lon="16.35072"><ele>792.0</ele><time>2026-04-27T12:56:54.644Z</time></trkpt><trkpt lat="38.6670683" lon="16.35052"><ele>792.0</ele><time>2026-04-27T12:56:55.642Z</time></trkpt><trkpt lat="38.6670233" lon="16.3503117"><ele>792.0</ele><time>2026-04-27T12:56:56.695Z</time></trkpt><trkpt lat="38.666975" lon="16.350105"><ele>792.0</ele><time>2026-04-27T12:56:57.647Z</time></trkpt><trkpt lat="38.6669317" lon="16.3499"><ele>789.0</ele><time>2026-04-27T12:56:58.648Z</time></trkpt><trkpt lat="38.6668933" lon="16.349695"><ele>786.0</ele><time>2026-04-27T12:56:59.647Z</time></trkpt><trkpt lat="38.6668583" lon="16.3495"><ele>783.0</ele><time>2026-04-27T12:57:00.644Z</time></trkpt><trkpt lat="38.66684" lon="16.3493117"><ele>783.0</ele><time>2026-04-27T12:57:01.649Z</time></trkpt><trkpt lat="38.66683" lon="16.3491167"><ele>783.0</ele><time>2026-04-27T12:57:02.688Z</time></trkpt><trkpt lat="38.6668383" lon="16.34891"><ele>783.0</ele><time>2026-04-27T12:57:03.643Z</time></trkpt><trkpt lat="38.66686" lon="16.3487033"><ele>783.6666666666667</ele><time>2026-04-27T12:57:04.651Z</time></trkpt><trkpt lat="38.6668767" lon="16.3484967"><ele>784.3333333333334</ele><time>2026-04-27T12:57:05.642Z</time></trkpt><trkpt lat="38.66689" lon="16.3483033"><ele>785.0</ele><time>2026-04-27T12:57:06.642Z</time></trkpt><trkpt lat="38.666905" lon="16.348115"><ele>786.0</ele><time>2026-04-27T12:57:07.646Z</time></trkpt><trkpt lat="38.6669233" lon="16.3479233"><ele>787.0</ele><time>2026-04-27T12:57:08.683Z</time></trkpt><trkpt lat="38.6669317" lon="16.3477333"><ele>788.0</ele><time>2026-04-27T12:57:09.642Z</time></trkpt><trkpt lat="38.6669467" lon="16.3475483"><ele>789.0</ele><time>2026-04-27T12:57:10.645Z</time></trkpt><trkpt lat="38.6670067" lon="16.3473967"><ele>788.6666666666667</ele><time>2026-04-27T12:57:11.647Z</time></trkpt><trkpt lat="38.6670583" lon="16.3472067"><ele>788.3333333333334</ele><time>2026-04-27T12:57:12.647Z</time></trkpt><trkpt lat="38.6671167" lon="16.3470217"><ele>788.0</ele><time>2026-04-27T12:57:13.647Z</time></trkpt><trkpt lat="38.66717" lon="16.34685"><ele>788.0</ele><time>2026-04-27T12:57:14.679Z</time></trkpt><trkpt lat="38.667205" lon="16.34669"><ele>788.0</ele><time>2026-04-27T12:57:15.647Z</time></trkpt><trkpt lat="38.667225" lon="16.346535"><ele>788.0</ele><time>2026-04-27T12:57:16.645Z</time></trkpt><trkpt lat="38.6672183" lon="16.346375"><ele>788.0</ele><time>2026-04-27T12:57:17.654Z</time></trkpt><trkpt lat="38.6672083" lon="16.3462317"><ele>788.75</ele><time>2026-04-27T12:57:18.643Z</time></trkpt><trkpt lat="38.6672067" lon="16.3460617"><ele>789.5</ele><time>2026-04-27T12:57:19.643Z</time></trkpt><trkpt lat="38.6672133" lon="16.3458817"><ele>790.25</ele><time>2026-04-27T12:57:20.677Z</time></trkpt><trkpt lat="38.6672267" lon="16.34572"><ele>791.0</ele><time>2026-04-27T12:57:21.648Z</time></trkpt><trkpt lat="38.6672383" lon="16.345575"><ele>790.5999999999999</ele><time>2026-04-27T12:57:22.647Z</time></trkpt><trkpt lat="38.667245" lon="16.345465"><ele>790.2</ele><time>2026-04-27T12:57:23.646Z</time></trkpt><trkpt lat="38.6671817" lon="16.3454467"><ele>789.8</ele><time>2026-04-27T12:57:31.646Z</time></trkpt><trkpt lat="38.6671017" lon="16.3454533"><ele>789.4000000000001</ele><time>2026-04-27T12:57:32.699Z</time></trkpt><trkpt lat="38.6669967" lon="16.3454667"><ele>789.0</ele><time>2026-04-27T12:57:33.648Z</time></trkpt><trkpt lat="38.6668717" lon="16.345485"><ele>789.25</ele><time>2026-04-27T12:57:34.654Z</time></trkpt><trkpt lat="38.6667283" lon="16.345515"><ele>789.5</ele><time>2026-04-27T12:57:35.653Z</time></trkpt><trkpt lat="38.6665783" lon="16.345545"><ele>789.75</ele><time>2026-04-27T12:57:36.652Z</time></trkpt><trkpt lat="38.6664317" lon="16.3455817"><ele>790.0</ele><time>2026-04-27T12:57:37.649Z</time></trkpt><trkpt lat="38.666295" lon="16.3456233"><ele>790.0</ele><time>2026-04-27T12:57:38.681Z</time></trkpt><trkpt lat="38.66616" lon="16.34567"><ele>790.0</ele><time>2026-04-27T12:57:39.651Z</time></trkpt><trkpt lat="38.6660217" lon="16.3457217"><ele>790.0</ele><time>2026-04-27T12:57:40.657Z</time></trkpt><trkpt lat="38.665885" lon="16.345775"><ele>790.0</ele><time>2026-04-27T12:57:41.648Z</time></trkpt><trkpt lat="38.6657483" lon="16.345825"><ele>791.25</ele><time>2026-04-27T12:57:42.652Z</time></trkpt><trkpt lat="38.6656083" lon="16.3458733"><ele>792.5</ele><time>2026-04-27T12:57:43.654Z</time></trkpt><trkpt lat="38.66548" lon="16.3459233"><ele>793.75</ele><time>2026-04-27T12:57:44.684Z</time></trkpt><trkpt lat="38.665355" lon="16.345975"><ele>795.0</ele><time>2026-04-27T12:57:45.652Z</time></trkpt><trkpt lat="38.6652317" lon="16.3460367"><ele>797.0</ele><time>2026-04-27T12:57:46.65Z</time></trkpt><trkpt lat="38.665115" lon="16.3461"><ele>799.0</ele><time>2026-04-27T12:57:47.646Z</time></trkpt><trkpt lat="38.6649933" lon="16.34616"><ele>801.0</ele><time>2026-04-27T12:57:48.659Z</time></trkpt><trkpt lat="38.6648733" lon="16.346215"><ele>803.0</ele><time>2026-04-27T12:57:49.658Z</time></trkpt><trkpt lat="38.6647617" lon="16.3462617"><ele>803.0</ele><time>2026-04-27T12:57:50.687Z</time></trkpt><trkpt lat="38.664655" lon="16.3463033"><ele>803.0</ele><time>2026-04-27T12:57:51.643Z</time></trkpt><trkpt lat="38.6645617" lon="16.3463383"><ele>803.0</ele><time>2026-04-27T12:57:52.65Z</time></trkpt><trkpt lat="38.6644717" lon="16.3463617"><ele>803.0</ele><time>2026-04-27T12:57:53.648Z</time></trkpt><trkpt lat="38.6643633" lon="16.3463633"><ele>803.0</ele><time>2026-04-27T12:57:54.657Z</time></trkpt><trkpt lat="38.66424" lon="16.346345"><ele>804.0</ele><time>2026-04-27T12:57:55.643Z</time></trkpt><trkpt lat="38.6641183" lon="16.3463117"><ele>805.0</ele><time>2026-04-27T12:57:56.715Z</time></trkpt><trkpt lat="38.6640117" lon="16.3462617"><ele>806.0</ele><time>2026-04-27T12:57:57.645Z</time></trkpt><trkpt lat="38.663915" lon="16.3461817"><ele>807.0</ele><time>2026-04-27T12:57:58.654Z</time></trkpt><trkpt lat="38.6638233" lon="16.3460717"><ele>807.0</ele><time>2026-04-27T12:57:59.647Z</time></trkpt><trkpt lat="38.6637417" lon="16.3459583"><ele>807.0</ele><time>2026-04-27T12:58:00.643Z</time></trkpt><trkpt lat="38.663655" lon="16.345855"><ele>807.0</ele><time>2026-04-27T12:58:01.649Z</time></trkpt><trkpt lat="38.66355" lon="16.3457933"><ele>807.0</ele><time>2026-04-27T12:58:02.695Z</time></trkpt><trkpt lat="38.6634233" lon="16.34575"><ele>809.25</ele><time>2026-04-27T12:58:03.65Z</time></trkpt><trkpt lat="38.6632867" lon="16.345705"><ele>811.5</ele><time>2026-04-27T12:58:04.648Z</time></trkpt><trkpt lat="38.6631617" lon="16.3456583"><ele>813.75</ele><time>2026-04-27T12:58:05.643Z</time></trkpt><trkpt lat="38.6630683" lon="16.3456083"><ele>816.0</ele><time>2026-04-27T12:58:06.644Z</time></trkpt><trkpt lat="38.663" lon="16.3455517"><ele>813.8</ele><time>2026-04-27T12:58:07.647Z</time></trkpt><trkpt lat="38.6629417" lon="16.3454667"><ele>811.5999999999999</ele><time>2026-04-27T12:58:08.674Z</time></trkpt><trkpt lat="38.6629033" lon="16.345355"><ele>809.4</ele><time>2026-04-27T12:58:09.648Z</time></trkpt><trkpt lat="38.66287" lon="16.3452283"><ele>807.2</ele><time>2026-04-27T12:58:10.65Z</time></trkpt><trkpt lat="38.66284" lon="16.345105"><ele>805.0</ele><time>2026-04-27T12:58:11.645Z</time></trkpt><trkpt lat="38.6627983" lon="16.3449917"><ele>805.4</ele><time>2026-04-27T12:58:12.65Z</time></trkpt><trkpt lat="38.6627517" lon="16.3448833"><ele>805.8</ele><time>2026-04-27T12:58:13.648Z</time></trkpt><trkpt lat="38.6627017" lon="16.3447633"><ele>806.2</ele><time>2026-04-27T12:58:14.682Z</time></trkpt><trkpt lat="38.6626533" lon="16.344635"><ele>806.6</ele><time>2026-04-27T12:58:15.645Z</time></trkpt><trkpt lat="38.6626133" lon="16.3445117"><ele>807.0</ele><time>2026-04-27T12:58:16.65Z</time></trkpt><trkpt lat="38.6625767" lon="16.3444017"><ele>807.0</ele><time>2026-04-27T12:58:17.646Z</time></trkpt><trkpt lat="38.6625567" lon="16.3443083"><ele>807.0</ele><time>2026-04-27T12:58:19.651Z</time></trkpt><trkpt lat="38.6626233" lon="16.3445067"><ele>807.0</ele><time>2026-04-27T12:58:37.644Z</time></trkpt><trkpt lat="38.662675" lon="16.3446433"><ele>807.0</ele><time>2026-04-27T12:58:38.681Z</time></trkpt><trkpt lat="38.6627317" lon="16.34479"><ele>806.5</ele><time>2026-04-27T12:58:39.648Z</time></trkpt><trkpt lat="38.6627933" lon="16.3449317"><ele>806.0</ele><time>2026-04-27T12:58:40.651Z</time></trkpt><trkpt lat="38.66285" lon="16.34506"><ele>805.5</ele><time>2026-04-27T12:58:41.644Z</time></trkpt><trkpt lat="38.6628883" lon="16.345185"><ele>805.0</ele><time>2026-04-27T12:58:42.642Z</time></trkpt><trkpt lat="38.66292" lon="16.3453117"><ele>805.0</ele><time>2026-04-27T12:58:43.646Z</time></trkpt><trkpt lat="38.6629683" lon="16.3454333"><ele>805.0</ele><time>2026-04-27T12:58:44.679Z</time></trkpt><trkpt lat="38.6630233" lon="16.345545"><ele>805.0</ele><time>2026-04-27T12:58:45.648Z</time></trkpt><trkpt lat="38.6631017" lon="16.3456233"><ele>805.0</ele><time>2026-04-27T12:58:46.651Z</time></trkpt><trkpt lat="38.66319" lon="16.3456817"><ele>805.0</ele><time>2026-04-27T12:58:47.652Z</time></trkpt><trkpt lat="38.6633233" lon="16.3457233"><ele>805.5</ele><time>2026-04-27T12:58:48.651Z</time></trkpt><trkpt lat="38.6634667" lon="16.3457683"><ele>806.0</ele><time>2026-04-27T12:58:49.65Z</time></trkpt><trkpt lat="38.6636" lon="16.3458083"><ele>806.5</ele><time>2026-04-27T12:58:50.68Z</time></trkpt><trkpt lat="38.6637033" lon="16.3458533"><ele>807.0</ele><time>2026-04-27T12:58:51.648Z</time></trkpt><trkpt lat="38.6637817" lon="16.345905"><ele>807.0</ele><time>2026-04-27T12:58:52.655Z</time></trkpt><trkpt lat="38.66385" lon="16.3459933"><ele>807.0</ele><time>2026-04-27T12:58:53.658Z</time></trkpt><trkpt lat="38.66393" lon="16.3461"><ele>807.0</ele><time>2026-04-27T12:58:54.643Z</time></trkpt><trkpt lat="38.6640167" lon="16.3462"><ele>807.0</ele><time>2026-04-27T12:58:55.643Z</time></trkpt><trkpt lat="38.6643533" lon="16.3463517"><ele>806.2</ele><time>2026-04-27T12:58:58.644Z</time></trkpt><trkpt lat="38.6644733" lon="16.346355"><ele>805.4000000000001</ele><time>2026-04-27T12:58:59.654Z</time></trkpt><trkpt lat="38.6645783" lon="16.3463467"><ele>804.5999999999999</ele><time>2026-04-27T12:59:00.648Z</time></trkpt><trkpt lat="38.664675" lon="16.3463183"><ele>803.8</ele><time>2026-04-27T12:59:01.644Z</time></trkpt><trkpt lat="38.664785" lon="16.34627"><ele>803.0</ele><time>2026-04-27T12:59:02.69Z</time></trkpt><trkpt lat="38.6648967" lon="16.3462183"><ele>803.0</ele><time>2026-04-27T12:59:03.649Z</time></trkpt><trkpt lat="38.6650167" lon="16.3461667"><ele>803.0</ele><time>2026-04-27T12:59:04.645Z</time></trkpt><trkpt lat="38.6651417" lon="16.3461117"><ele>803.0</ele><time>2026-04-27T12:59:05.642Z</time></trkpt><trkpt lat="38.6652633" lon="16.346055"><ele>803.0</ele><time>2026-04-27T12:59:06.65Z</time></trkpt><trkpt lat="38.6653767" lon="16.346"><ele>801.0</ele><time>2026-04-27T12:59:07.647Z</time></trkpt><trkpt lat="38.6654883" lon="16.345945"><ele>799.0</ele><time>2026-04-27T12:59:08.674Z</time></trkpt><trkpt lat="38.6656067" lon="16.3458917"><ele>797.0</ele><time>2026-04-27T12:59:09.646Z</time></trkpt><trkpt lat="38.6657333" lon="16.3458417"><ele>795.0</ele><time>2026-04-27T12:59:10.645Z</time></trkpt><trkpt lat="38.6658717" lon="16.3457917"><ele>795.0</ele><time>2026-04-27T12:59:11.641Z</time></trkpt><trkpt lat="38.6660083" lon="16.3457417"><ele>795.0</ele><time>2026-04-27T12:59:12.651Z</time></trkpt><trkpt lat="38.6661317" lon="16.345695"><ele>795.0</ele><time>2026-04-27T12:59:13.645Z</time></trkpt><trkpt lat="38.6662483" lon="16.34565"><ele>795.0</ele><time>2026-04-27T12:59:14.673Z</time></trkpt><trkpt lat="38.6663667" lon="16.34561"><ele>793.75</ele><time>2026-04-27T12:59:15.638Z</time></trkpt><trkpt lat="38.6664933" lon="16.3455783"><ele>792.5</ele><time>2026-04-27T12:59:16.647Z</time></trkpt><trkpt lat="38.6666267" lon="16.3455567"><ele>791.25</ele><time>2026-04-27T12:59:17.643Z</time></trkpt><trkpt lat="38.6667617" lon="16.34554"><ele>790.0</ele><time>2026-04-27T12:59:18.656Z</time></trkpt><trkpt lat="38.66689" lon="16.3455217"><ele>789.8333333333333</ele><time>2026-04-27T12:59:19.645Z</time></trkpt><trkpt lat="38.6670133" lon="16.3455083"><ele>789.6666666666666</ele><time>2026-04-27T12:59:20.678Z</time></trkpt><trkpt lat="38.6671217" lon="16.3455017"><ele>789.5</ele><time>2026-04-27T12:59:21.643Z</time></trkpt><trkpt lat="38.667185" lon="16.345515"><ele>789.3333333333333</ele><time>2026-04-27T12:59:22.651Z</time></trkpt><trkpt lat="38.6672217" lon="16.34559"><ele>789.1666666666666</ele><time>2026-04-27T12:59:24.654Z</time></trkpt><trkpt lat="38.6671767" lon="16.3456467"><ele>789.0</ele><time>2026-04-27T12:59:26.711Z</time></trkpt><trkpt lat="38.6670867" lon="16.34563"><ele>789.2</ele><time>2026-04-27T12:59:38.671Z</time></trkpt><trkpt lat="38.6669883" lon="16.3456083"><ele>789.4000000000001</ele><time>2026-04-27T12:59:40.641Z</time></trkpt><trkpt lat="38.6669067" lon="16.345605"><ele>789.6</ele><time>2026-04-27T12:59:41.643Z</time></trkpt><trkpt lat="38.666805" lon="16.34561"><ele>789.8</ele><time>2026-04-27T12:59:42.653Z</time></trkpt><trkpt lat="38.6666867" lon="16.345615"><ele>790.0</ele><time>2026-04-27T12:59:43.646Z</time></trkpt><trkpt lat="38.6665683" lon="16.3456267"><ele>790.0</ele><time>2026-04-27T12:59:44.677Z</time></trkpt><trkpt lat="38.6664583" lon="16.3456417"><ele>790.0</ele><time>2026-04-27T12:59:45.653Z</time></trkpt><trkpt lat="38.6663633" lon="16.3456617"><ele>790.0</ele><time>2026-04-27T12:59:46.651Z</time></trkpt><trkpt lat="38.6662717" lon="16.3456917"><ele>790.0</ele><time>2026-04-27T12:59:47.645Z</time></trkpt><trkpt lat="38.6661883" lon="16.3457283"><ele>790.0</ele><time>2026-04-27T12:59:48.652Z</time></trkpt><trkpt lat="38.6661067" lon="16.3457633"><ele>791.0</ele><time>2026-04-27T12:59:49.643Z</time></trkpt><trkpt lat="38.666025" lon="16.345795"><ele>792.0</ele><time>2026-04-27T12:59:50.674Z</time></trkpt><trkpt lat="38.6659333" lon="16.3458267"><ele>793.0</ele><time>2026-04-27T12:59:51.645Z</time></trkpt><trkpt lat="38.6658367" lon="16.345865"><ele>794.0</ele><time>2026-04-27T12:59:52.643Z</time></trkpt><trkpt lat="38.6657383" lon="16.345905"><ele>795.0</ele><time>2026-04-27T12:59:53.642Z</time></trkpt><trkpt lat="38.665635" lon="16.3459533"><ele>795.0</ele><time>2026-04-27T12:59:54.654Z</time></trkpt><trkpt lat="38.6655433" lon="16.3459983"><ele>795.0</ele><time>2026-04-27T12:59:55.643Z</time></trkpt><trkpt lat="38.66546" lon="16.3460383"><ele>795.0</ele><time>2026-04-27T12:59:56.709Z</time></trkpt><trkpt lat="38.6653917" lon="16.3460667"><ele>795.0</ele><time>2026-04-27T12:59:57.653Z</time></trkpt><trkpt lat="38.6652817" lon="16.3461133"><ele>795.0</ele><time>2026-04-27T12:59:59.644Z</time></trkpt><trkpt lat="38.6651833" lon="16.346185"><ele>796.3333333333334</ele><time>2026-04-27T13:00:01.643Z</time></trkpt><trkpt lat="38.6650667" lon="16.3462367"><ele>797.6666666666667</ele><time>2026-04-27T13:00:03.643Z</time></trkpt><trkpt lat="38.6650017" lon="16.34625"><ele>799.0</ele><time>2026-04-27T13:00:04.648Z</time></trkpt><trkpt lat="38.6649367" lon="16.3462667"><ele>800.3333333333334</ele><time>2026-04-27T13:00:05.652Z</time></trkpt><trkpt lat="38.6648633" lon="16.3462883"><ele>801.6666666666667</ele><time>2026-04-27T13:00:06.655Z</time></trkpt><trkpt lat="38.6647883" lon="16.346315"><ele>803.0</ele><time>2026-04-27T13:00:07.646Z</time></trkpt><trkpt lat="38.6647183" lon="16.3463417"><ele>803.0</ele><time>2026-04-27T13:00:08.682Z</time></trkpt><trkpt lat="38.66464" lon="16.3463667"><ele>803.0</ele><time>2026-04-27T13:00:09.646Z</time></trkpt><trkpt lat="38.6645533" lon="16.34639"><ele>803.0</ele><time>2026-04-27T13:00:10.641Z</time></trkpt><trkpt lat="38.664445" lon="16.34641"><ele>803.0</ele><time>2026-04-27T13:00:11.641Z</time></trkpt><trkpt lat="38.66432" lon="16.3464117"><ele>803.0</ele><time>2026-04-27T13:00:12.651Z</time></trkpt><trkpt lat="38.6641833" lon="16.3463967"><ele>803.8</ele><time>2026-04-27T13:00:13.643Z</time></trkpt><trkpt lat="38.6640467" lon="16.34638"><ele>804.5999999999999</ele><time>2026-04-27T13:00:14.673Z</time></trkpt><trkpt lat="38.66393" lon="16.34636"><ele>805.4000000000001</ele><time>2026-04-27T13:00:15.644Z</time></trkpt><trkpt lat="38.66384" lon="16.3463367"><ele>806.2</ele><time>2026-04-27T13:00:16.648Z</time></trkpt><trkpt lat="38.6637567" lon="16.346305"><ele>807.0</ele><time>2026-04-27T13:00:17.641Z</time></trkpt><trkpt lat="38.663675" lon="16.3462617"><ele>808.8</ele><time>2026-04-27T13:00:18.647Z</time></trkpt><trkpt lat="38.6635833" lon="16.3462167"><ele>810.6</ele><time>2026-04-27T13:00:19.645Z</time></trkpt><trkpt lat="38.6634817" lon="16.3461833"><ele>812.4</ele><time>2026-04-27T13:00:20.669Z</time></trkpt><trkpt lat="38.66336" lon="16.3461633"><ele>814.1999999999999</ele><time>2026-04-27T13:00:21.646Z</time></trkpt><trkpt lat="38.6632417" lon="16.3461517"><ele>816.0</ele><time>2026-04-27T13:00:22.647Z</time></trkpt><trkpt lat="38.6631183" lon="16.3461383"><ele>816.0</ele><time>2026-04-27T13:00:23.64Z</time></trkpt><trkpt lat="38.663005" lon="16.3461233"><ele>816.0</ele><time>2026-04-27T13:00:24.644Z</time></trkpt><trkpt lat="38.662905" lon="16.3461083"><ele>816.0</ele><time>2026-04-27T13:00:25.646Z</time></trkpt><trkpt lat="38.6628133" lon="16.3460833"><ele>816.0</ele><time>2026-04-27T13:00:26.707Z</time></trkpt><trkpt lat="38.6627267" lon="16.34606"><ele>816.0</ele><time>2026-04-27T13:00:27.643Z</time></trkpt><trkpt lat="38.6626333" lon="16.34604"><ele>818.5</ele><time>2026-04-27T13:00:28.645Z</time></trkpt><trkpt lat="38.662525" lon="16.3460167"><ele>821.0</ele><time>2026-04-27T13:00:29.65Z</time></trkpt><trkpt lat="38.662405" lon="16.3459883"><ele>823.5</ele><time>2026-04-27T13:00:30.648Z</time></trkpt><trkpt lat="38.66229" lon="16.3459567"><ele>826.0</ele><time>2026-04-27T13:00:31.649Z</time></trkpt><trkpt lat="38.6621817" lon="16.3459283"><ele>826.0</ele><time>2026-04-27T13:00:32.683Z</time></trkpt><trkpt lat="38.6620767" lon="16.3459017"><ele>826.0</ele><time>2026-04-27T13:00:33.639Z</time></trkpt><trkpt lat="38.661955" lon="16.3458767"><ele>826.0</ele><time>2026-04-27T13:00:34.647Z</time></trkpt><trkpt lat="38.6618083" lon="16.34585"><ele>826.0</ele><time>2026-04-27T13:00:35.646Z</time></trkpt><trkpt lat="38.66166" lon="16.3458367"><ele>827.5</ele><time>2026-04-27T13:00:36.648Z</time></trkpt><trkpt lat="38.661515" lon="16.3458283"><ele>829.0</ele><time>2026-04-27T13:00:37.645Z</time></trkpt><trkpt lat="38.6613767" lon="16.3458267"><ele>830.5</ele><time>2026-04-27T13:00:38.679Z</time></trkpt><trkpt lat="38.6612433" lon="16.3458333"><ele>832.0</ele><time>2026-04-27T13:00:39.644Z</time></trkpt><trkpt lat="38.6611133" lon="16.345845"><ele>834.0</ele><time>2026-04-27T13:00:40.65Z</time></trkpt><trkpt lat="38.6610017" lon="16.3458567"><ele>836.0</ele><time>2026-04-27T13:00:41.641Z</time></trkpt><trkpt lat="38.660875" lon="16.345855"><ele>838.0</ele><time>2026-04-27T13:00:42.643Z</time></trkpt><trkpt lat="38.6607533" lon="16.345845"><ele>840.0</ele><time>2026-04-27T13:00:43.646Z</time></trkpt><trkpt lat="38.6606333" lon="16.3458367"><ele>840.0</ele><time>2026-04-27T13:00:44.68Z</time></trkpt><trkpt lat="38.6605117" lon="16.3458267"><ele>840.0</ele><time>2026-04-27T13:00:45.642Z</time></trkpt><trkpt lat="38.6603867" lon="16.3458217"><ele>840.0</ele><time>2026-04-27T13:00:46.651Z</time></trkpt><trkpt lat="38.6602617" lon="16.34581"><ele>840.0</ele><time>2026-04-27T13:00:47.643Z</time></trkpt><trkpt lat="38.66013" lon="16.345805"><ele>843.0</ele><time>2026-04-27T13:00:48.65Z</time></trkpt><trkpt lat="38.6599967" lon="16.3457983"><ele>846.0</ele><time>2026-04-27T13:00:49.643Z</time></trkpt><trkpt lat="38.659875" lon="16.3457867"><ele>849.0</ele><time>2026-04-27T13:00:50.677Z</time></trkpt><trkpt lat="38.6597717" lon="16.3457767"><ele>852.0</ele><time>2026-04-27T13:00:51.65Z</time></trkpt><trkpt lat="38.6596733" lon="16.3457667"><ele>852.0</ele><time>2026-04-27T13:00:52.643Z</time></trkpt><trkpt lat="38.6595783" lon="16.3457517"><ele>852.0</ele><time>2026-04-27T13:00:53.644Z</time></trkpt><trkpt lat="38.6594817" lon="16.3457383"><ele>852.0</ele><time>2026-04-27T13:00:54.651Z</time></trkpt><trkpt lat="38.6593983" lon="16.3457333"><ele>852.0</ele><time>2026-04-27T13:00:55.647Z</time></trkpt><trkpt lat="38.6593167" lon="16.3457233"><ele>852.0</ele><time>2026-04-27T13:00:56.678Z</time></trkpt><trkpt lat="38.6592433" lon="16.3457167"><ele>852.0</ele><time>2026-04-27T13:00:57.64Z</time></trkpt><trkpt lat="38.6591667" lon="16.3457133"><ele>854.6</ele><time>2026-04-27T13:00:58.655Z</time></trkpt><trkpt lat="38.6590833" lon="16.3457217"><ele>857.2</ele><time>2026-04-27T13:00:59.644Z</time></trkpt><trkpt lat="38.6589983" lon="16.3457267"><ele>859.8</ele><time>2026-04-27T13:01:00.649Z</time></trkpt><trkpt lat="38.6589" lon="16.3457367"><ele>862.4</ele><time>2026-04-27T13:01:01.651Z</time></trkpt><trkpt lat="38.6587983" lon="16.3457467"><ele>865.0</ele><time>2026-04-27T13:01:02.688Z</time></trkpt><trkpt lat="38.65869" lon="16.3457717"><ele>866.75</ele><time>2026-04-27T13:01:03.639Z</time></trkpt><trkpt lat="38.6585817" lon="16.345815"><ele>868.5</ele><time>2026-04-27T13:01:04.648Z</time></trkpt><trkpt lat="38.658465" lon="16.3458683"><ele>870.25</ele><time>2026-04-27T13:01:05.641Z</time></trkpt><trkpt lat="38.658335" lon="16.34591"><ele>872.0</ele><time>2026-04-27T13:01:06.655Z</time></trkpt><trkpt lat="38.6582067" lon="16.3459667"><ele>872.0</ele><time>2026-04-27T13:01:07.65Z</time></trkpt><trkpt lat="38.65808" lon="16.346005"><ele>872.0</ele><time>2026-04-27T13:01:08.682Z</time></trkpt><trkpt lat="38.6579617" lon="16.3460183"><ele>872.0</ele><time>2026-04-27T13:01:09.642Z</time></trkpt><trkpt lat="38.657845" lon="16.3460417"><ele>872.0</ele><time>2026-04-27T13:01:10.652Z</time></trkpt><trkpt lat="38.6577583" lon="16.3460583"><ele>873.4000000000001</ele><time>2026-04-27T13:01:11.647Z</time></trkpt><trkpt lat="38.6576833" lon="16.346045"><ele>874.8000000000001</ele><time>2026-04-27T13:01:12.647Z</time></trkpt><trkpt lat="38.6575983" lon="16.3459967"><ele>876.2</ele><time>2026-04-27T13:01:13.641Z</time></trkpt><trkpt lat="38.6575" lon="16.3458917"><ele>877.6</ele><time>2026-04-27T13:01:14.674Z</time></trkpt><trkpt lat="38.65739" lon="16.345775"><ele>879.0</ele><time>2026-04-27T13:01:15.641Z</time></trkpt><trkpt lat="38.6572917" lon="16.3456317"><ele>878.5</ele><time>2026-04-27T13:01:16.644Z</time></trkpt><trkpt lat="38.6571833" lon="16.3454983"><ele>878.0</ele><time>2026-04-27T13:01:17.64Z</time></trkpt><trkpt lat="38.6570817" lon="16.3453667"><ele>877.5</ele><time>2026-04-27T13:01:18.648Z</time></trkpt><trkpt lat="38.6569817" lon="16.345245"><ele>877.0</ele><time>2026-04-27T13:01:19.647Z</time></trkpt><trkpt lat="38.6568817" lon="16.34512"><ele>878.25</ele><time>2026-04-27T13:01:20.672Z</time></trkpt><trkpt lat="38.6567833" lon="16.345"><ele>879.5</ele><time>2026-04-27T13:01:21.644Z</time></trkpt><trkpt lat="38.656695" lon="16.3448817"><ele>880.75</ele><time>2026-04-27T13:01:22.648Z</time></trkpt><trkpt lat="38.6566233" lon="16.3447733"><ele>882.0</ele><time>2026-04-27T13:01:23.641Z</time></trkpt><trkpt lat="38.656535" lon="16.3446567"><ele>883.5</ele><time>2026-04-27T13:01:24.648Z</time></trkpt><trkpt lat="38.6564367" lon="16.3445517"><ele>885.0</ele><time>2026-04-27T13:01:25.641Z</time></trkpt><trkpt lat="38.6563433" lon="16.3444467"><ele>886.5</ele><time>2026-04-27T13:01:26.71Z</time></trkpt><trkpt lat="38.65624" lon="16.3443517"><ele>888.0</ele><time>2026-04-27T13:01:27.647Z</time></trkpt><trkpt lat="38.656135" lon="16.34426"><ele>888.5</ele><time>2026-04-27T13:01:28.653Z</time></trkpt><trkpt lat="38.6560183" lon="16.3441817"><ele>889.0</ele><time>2026-04-27T13:01:29.644Z</time></trkpt><trkpt lat="38.655895" lon="16.3441083"><ele>889.5</ele><time>2026-04-27T13:01:30.646Z</time></trkpt><trkpt lat="38.655775" lon="16.3440267"><ele>890.0</ele><time>2026-04-27T13:01:31.649Z</time></trkpt><trkpt lat="38.6556783" lon="16.3439583"><ele>890.0</ele><time>2026-04-27T13:01:32.691Z</time></trkpt><trkpt lat="38.6555783" lon="16.3438883"><ele>890.0</ele><time>2026-04-27T13:01:33.643Z</time></trkpt><trkpt lat="38.6554783" lon="16.343845"><ele>890.0</ele><time>2026-04-27T13:01:34.65Z</time></trkpt><trkpt lat="38.6553683" lon="16.3438"><ele>890.0</ele><time>2026-04-27T13:01:35.645Z</time></trkpt><trkpt lat="38.65526" lon="16.3437517"><ele>891.0</ele><time>2026-04-27T13:01:36.647Z</time></trkpt><trkpt lat="38.6551533" lon="16.3436867"><ele>892.0</ele><time>2026-04-27T13:01:37.643Z</time></trkpt><trkpt lat="38.655055" lon="16.3436217"><ele>893.0</ele><time>2026-04-27T13:01:38.686Z</time></trkpt><trkpt lat="38.65496" lon="16.3435617"><ele>894.0</ele><time>2026-04-27T13:01:39.644Z</time></trkpt><trkpt lat="38.6548783" lon="16.34351"><ele>895.0</ele><time>2026-04-27T13:01:40.645Z</time></trkpt><trkpt lat="38.6547983" lon="16.3434567"><ele>895.0</ele><time>2026-04-27T13:01:41.653Z</time></trkpt><trkpt lat="38.6547067" lon="16.343385"><ele>895.0</ele><time>2026-04-27T13:01:42.649Z</time></trkpt><trkpt lat="38.6546183" lon="16.3433033"><ele>895.0</ele><time>2026-04-27T13:01:43.645Z</time></trkpt><trkpt lat="38.6545033" lon="16.3431817"><ele>895.0</ele><time>2026-04-27T13:01:44.678Z</time></trkpt><trkpt lat="38.6544" lon="16.3430833"><ele>894.6666666666666</ele><time>2026-04-27T13:01:45.647Z</time></trkpt><trkpt lat="38.65427" lon="16.34296"><ele>894.3333333333333</ele><time>2026-04-27T13:01:46.65Z</time></trkpt><trkpt lat="38.6541183" lon="16.342805"><ele>894.0</ele><time>2026-04-27T13:01:47.649Z</time></trkpt><trkpt lat="38.6539683" lon="16.342665"><ele>894.0</ele><time>2026-04-27T13:01:48.652Z</time></trkpt><trkpt lat="38.6538283" lon="16.34254"><ele>894.0</ele><time>2026-04-27T13:01:49.653Z</time></trkpt><trkpt lat="38.6536883" lon="16.3424467"><ele>894.0</ele><time>2026-04-27T13:01:50.68Z</time></trkpt><trkpt lat="38.653545" lon="16.3423667"><ele>894.25</ele><time>2026-04-27T13:01:51.649Z</time></trkpt><trkpt lat="38.6534083" lon="16.3422817"><ele>894.5</ele><time>2026-04-27T13:01:52.653Z</time></trkpt><trkpt lat="38.6532833" lon="16.3421983"><ele>894.75</ele><time>2026-04-27T13:01:53.65Z</time></trkpt><trkpt lat="38.6531783" lon="16.342125"><ele>895.0</ele><time>2026-04-27T13:01:54.641Z</time></trkpt><trkpt lat="38.65308" lon="16.3420483"><ele>895.0</ele><time>2026-04-27T13:01:55.651Z</time></trkpt><trkpt lat="38.6529933" lon="16.3419817"><ele>895.0</ele><time>2026-04-27T13:01:56.705Z</time></trkpt><trkpt lat="38.65291" lon="16.34191"><ele>895.0</ele><time>2026-04-27T13:01:57.642Z</time></trkpt><trkpt lat="38.6528333" lon="16.3418467"><ele>895.0</ele><time>2026-04-27T13:01:58.644Z</time></trkpt><trkpt lat="38.6527733" lon="16.3417967"><ele>895.0</ele><time>2026-04-27T13:01:59.65Z</time></trkpt><trkpt lat="38.6526583" lon="16.3417"><ele>896.6</ele><time>2026-04-27T13:02:01.645Z</time></trkpt><trkpt lat="38.652585" lon="16.341645"><ele>898.2</ele><time>2026-04-27T13:02:02.696Z</time></trkpt><trkpt lat="38.6525017" lon="16.3415867"><ele>899.8</ele><time>2026-04-27T13:02:03.645Z</time></trkpt><trkpt lat="38.6524" lon="16.3415167"><ele>901.4</ele><time>2026-04-27T13:02:04.645Z</time></trkpt><trkpt lat="38.6522783" lon="16.3414717"><ele>903.0</ele><time>2026-04-27T13:02:05.646Z</time></trkpt><trkpt lat="38.6521417" lon="16.3414083"><ele>904.6666666666667</ele><time>2026-04-27T13:02:06.651Z</time></trkpt><trkpt lat="38.6519967" lon="16.341365"><ele>906.3333333333334</ele><time>2026-04-27T13:02:07.645Z</time></trkpt><trkpt lat="38.6518367" lon="16.341305"><ele>908.0</ele><time>2026-04-27T13:02:08.679Z</time></trkpt><trkpt lat="38.65168" lon="16.3412483"><ele>908.0</ele><time>2026-04-27T13:02:09.645Z</time></trkpt><trkpt lat="38.6515333" lon="16.3411917"><ele>908.0</ele><time>2026-04-27T13:02:10.654Z</time></trkpt><trkpt lat="38.6514067" lon="16.3411317"><ele>908.0</ele><time>2026-04-27T13:02:11.655Z</time></trkpt><trkpt lat="38.6512833" lon="16.34105"><ele>908.0</ele><time>2026-04-27T13:02:12.654Z</time></trkpt><trkpt lat="38.65118" lon="16.340985"><ele>907.0</ele><time>2026-04-27T13:02:13.65Z</time></trkpt><trkpt lat="38.65109" lon="16.340905"><ele>906.0</ele><time>2026-04-27T13:02:14.679Z</time></trkpt><trkpt lat="38.65101" lon="16.340825"><ele>905.0</ele><time>2026-04-27T13:02:15.649Z</time></trkpt><trkpt lat="38.6509233" lon="16.3407433"><ele>904.0</ele><time>2026-04-27T13:02:16.653Z</time></trkpt><trkpt lat="38.650845" lon="16.3406417"><ele>903.0</ele><time>2026-04-27T13:02:17.647Z</time></trkpt><trkpt lat="38.65077" lon="16.3405017"><ele>906.25</ele><time>2026-04-27T13:02:18.647Z</time></trkpt><trkpt lat="38.6507017" lon="16.3403633"><ele>909.5</ele><time>2026-04-27T13:02:19.649Z</time></trkpt><trkpt lat="38.6506333" lon="16.3402167"><ele>912.75</ele><time>2026-04-27T13:02:20.681Z</time></trkpt><trkpt lat="38.6505667" lon="16.3400833"><ele>916.0</ele><time>2026-04-27T13:02:21.648Z</time></trkpt><trkpt lat="38.6505167" lon="16.33996"><ele>916.0</ele><time>2026-04-27T13:02:22.649Z</time></trkpt><trkpt lat="38.65046" lon="16.3398233"><ele>916.0</ele><time>2026-04-27T13:02:23.648Z</time></trkpt><trkpt lat="38.6504183" lon="16.3396783"><ele>916.0</ele><time>2026-04-27T13:02:24.651Z</time></trkpt><trkpt lat="38.6503783" lon="16.3395433"><ele>916.0</ele><time>2026-04-27T13:02:25.647Z</time></trkpt><trkpt lat="38.650335" lon="16.339405"><ele>917.0</ele><time>2026-04-27T13:02:26.711Z</time></trkpt><trkpt lat="38.6502983" lon="16.3392667"><ele>918.0</ele><time>2026-04-27T13:02:27.647Z</time></trkpt><trkpt lat="38.65025" lon="16.3391333"><ele>919.0</ele><time>2026-04-27T13:02:28.653Z</time></trkpt><trkpt lat="38.6501883" lon="16.3390017"><ele>920.0</ele><time>2026-04-27T13:02:29.646Z</time></trkpt><trkpt lat="38.6501183" lon="16.3388617"><ele>920.0</ele><time>2026-04-27T13:02:30.647Z</time></trkpt><trkpt lat="38.65005" lon="16.338715"><ele>920.0</ele><time>2026-04-27T13:02:31.643Z</time></trkpt><trkpt lat="38.6499733" lon="16.3385483"><ele>920.0</ele><time>2026-04-27T13:02:32.688Z</time></trkpt><trkpt lat="38.6499067" lon="16.338395"><ele>920.0</ele><time>2026-04-27T13:02:33.64Z</time></trkpt><trkpt lat="38.6498417" lon="16.3382383"><ele>920.0</ele><time>2026-04-27T13:02:34.642Z</time></trkpt><trkpt lat="38.6497933" lon="16.33809"><ele>920.0</ele><time>2026-04-27T13:02:35.645Z</time></trkpt><trkpt lat="38.64976" lon="16.33793"><ele>920.0</ele><time>2026-04-27T13:02:36.646Z</time></trkpt><trkpt lat="38.6497433" lon="16.3377567"><ele>920.0</ele><time>2026-04-27T13:02:37.646Z</time></trkpt><trkpt lat="38.64972" lon="16.337575"><ele>921.3333333333334</ele><time>2026-04-27T13:02:38.68Z</time></trkpt><trkpt lat="38.6497017" lon="16.3373817"><ele>922.6666666666667</ele><time>2026-04-27T13:02:39.649Z</time></trkpt><trkpt lat="38.6496783" lon="16.3371933"><ele>924.0</ele><time>2026-04-27T13:02:40.651Z</time></trkpt><trkpt lat="38.6496567" lon="16.337005"><ele>924.75</ele><time>2026-04-27T13:02:41.641Z</time></trkpt><trkpt lat="38.6496383" lon="16.33683"><ele>925.5</ele><time>2026-04-27T13:02:42.651Z</time></trkpt><trkpt lat="38.64962" lon="16.33667"><ele>926.25</ele><time>2026-04-27T13:02:43.647Z</time></trkpt><trkpt lat="38.6495917" lon="16.33653"><ele>927.0</ele><time>2026-04-27T13:02:44.677Z</time></trkpt><trkpt lat="38.6495467" lon="16.3363883"><ele>928.25</ele><time>2026-04-27T13:02:45.643Z</time></trkpt><trkpt lat="38.649495" lon="16.3362417"><ele>929.5</ele><time>2026-04-27T13:02:46.64Z</time></trkpt><trkpt lat="38.64943" lon="16.3360917"><ele>930.75</ele><time>2026-04-27T13:02:47.646Z</time></trkpt><trkpt lat="38.64936" lon="16.3359417"><ele>932.0</ele><time>2026-04-27T13:02:48.654Z</time></trkpt><trkpt lat="38.6493017" lon="16.3357983"><ele>932.0</ele><time>2026-04-27T13:02:49.646Z</time></trkpt><trkpt lat="38.6492433" lon="16.3356667"><ele>932.0</ele><time>2026-04-27T13:02:50.679Z</time></trkpt><trkpt lat="38.6491917" lon="16.3355533"><ele>932.0</ele><time>2026-04-27T13:02:51.642Z</time></trkpt><trkpt lat="38.6491433" lon="16.3354467"><ele>932.0</ele><time>2026-04-27T13:02:52.65Z</time></trkpt><trkpt lat="38.6490967" lon="16.3353567"><ele>932.0</ele><time>2026-04-27T13:02:53.646Z</time></trkpt><trkpt lat="38.64904" lon="16.3352817"><ele>932.0</ele><time>2026-04-27T13:02:54.653Z</time></trkpt><trkpt lat="38.648955" lon="16.33522"><ele>932.0</ele><time>2026-04-27T13:02:55.641Z</time></trkpt><trkpt lat="38.6488583" lon="16.3351517"><ele>932.0</ele><time>2026-04-27T13:02:56.713Z</time></trkpt><trkpt lat="38.6487567" lon="16.3350667"><ele>932.0</ele><time>2026-04-27T13:02:57.647Z</time></trkpt><trkpt lat="38.6486533" lon="16.3349817"><ele>933.2</ele><time>2026-04-27T13:02:58.641Z</time></trkpt><trkpt lat="38.6485633" lon="16.3348933"><ele>934.4000000000001</ele><time>2026-04-27T13:02:59.64Z</time></trkpt><trkpt lat="38.64848" lon="16.3348017"><ele>935.5999999999999</ele><time>2026-04-27T13:03:00.648Z</time></trkpt><trkpt lat="38.6483983" lon="16.3347133"><ele>936.8</ele><time>2026-04-27T13:03:01.649Z</time></trkpt><trkpt lat="38.6483067" lon="16.3346183"><ele>938.0</ele><time>2026-04-27T13:03:02.687Z</time></trkpt><trkpt lat="38.6482067" lon="16.33452"><ele>938.0</ele><time>2026-04-27T13:03:03.644Z</time></trkpt><trkpt lat="38.6480967" lon="16.3344183"><ele>938.0</ele><time>2026-04-27T13:03:04.65Z</time></trkpt><trkpt lat="38.647985" lon="16.3343133"><ele>938.0</ele><time>2026-04-27T13:03:05.647Z</time></trkpt><trkpt lat="38.6478783" lon="16.3342117"><ele>938.0</ele><time>2026-04-27T13:03:06.649Z</time></trkpt><trkpt lat="38.6477717" lon="16.33412"><ele>939.2</ele><time>2026-04-27T13:03:07.642Z</time></trkpt><trkpt lat="38.6476733" lon="16.33404"><ele>940.4</ele><time>2026-04-27T13:03:08.677Z</time></trkpt><trkpt lat="38.6475867" lon="16.3339733"><ele>941.6000000000001</ele><time>2026-04-27T13:03:09.647Z</time></trkpt><trkpt lat="38.6475017" lon="16.3339033"><ele>942.8000000000001</ele><time>2026-04-27T13:03:10.646Z</time></trkpt><trkpt lat="38.647425" lon="16.3338117"><ele>944.0</ele><time>2026-04-27T13:03:11.646Z</time></trkpt><trkpt lat="38.647345" lon="16.333715"><ele>944.0</ele><time>2026-04-27T13:03:12.652Z</time></trkpt><trkpt lat="38.64726" lon="16.3335983"><ele>944.0</ele><time>2026-04-27T13:03:13.64Z</time></trkpt><trkpt lat="38.6471733" lon="16.3334667"><ele>944.0</ele><time>2026-04-27T13:03:14.674Z</time></trkpt><trkpt lat="38.6470933" lon="16.3333317"><ele>944.0</ele><time>2026-04-27T13:03:15.641Z</time></trkpt><trkpt lat="38.647015" lon="16.333195"><ele>939.75</ele><time>2026-04-27T13:03:16.648Z</time></trkpt><trkpt lat="38.6469483" lon="16.3330633"><ele>935.5</ele><time>2026-04-27T13:03:17.645Z</time></trkpt><trkpt lat="38.6468867" lon="16.3329333"><ele>931.25</ele><time>2026-04-27T13:03:18.652Z</time></trkpt><trkpt lat="38.6468233" lon="16.3327967"><ele>927.0</ele><time>2026-04-27T13:03:19.648Z</time></trkpt><trkpt lat="38.6467517" lon="16.3326633"><ele>927.0</ele><time>2026-04-27T13:03:20.68Z</time></trkpt><trkpt lat="38.6466717" lon="16.33253"><ele>927.0</ele><time>2026-04-27T13:03:21.645Z</time></trkpt><trkpt lat="38.646585" lon="16.332395"><ele>927.0</ele><time>2026-04-27T13:03:22.648Z</time></trkpt><trkpt lat="38.6465" lon="16.33225"><ele>927.0</ele><time>2026-04-27T13:03:23.646Z</time></trkpt><trkpt lat="38.6464133" lon="16.33209"><ele>929.3333333333333</ele><time>2026-04-27T13:03:24.648Z</time></trkpt><trkpt lat="38.6463267" lon="16.3319183"><ele>931.6666666666666</ele><time>2026-04-27T13:03:25.647Z</time></trkpt><trkpt lat="38.6462383" lon="16.33175"><ele>934.0</ele><time>2026-04-27T13:03:26.702Z</time></trkpt><trkpt lat="38.64615" lon="16.3315883"><ele>932.0</ele><time>2026-04-27T13:03:27.639Z</time></trkpt><trkpt lat="38.646065" lon="16.3314233"><ele>930.0</ele><time>2026-04-27T13:03:28.641Z</time></trkpt><trkpt lat="38.6459817" lon="16.3312633"><ele>928.0</ele><time>2026-04-27T13:03:29.646Z</time></trkpt><trkpt lat="38.6458983" lon="16.3311133"><ele>926.0</ele><time>2026-04-27T13:03:30.646Z</time></trkpt><trkpt lat="38.6458083" lon="16.33098"><ele>926.0</ele><time>2026-04-27T13:03:31.642Z</time></trkpt><trkpt lat="38.64571" lon="16.3308533"><ele>926.0</ele><time>2026-04-27T13:03:32.688Z</time></trkpt><trkpt lat="38.64561" lon="16.3307333"><ele>926.0</ele><time>2026-04-27T13:03:33.647Z</time></trkpt><trkpt lat="38.6455167" lon="16.330615"><ele>926.0</ele><time>2026-04-27T13:03:34.65Z</time></trkpt><trkpt lat="38.645435" lon="16.330495"><ele>926.4</ele><time>2026-04-27T13:03:35.64Z</time></trkpt><trkpt lat="38.645365" lon="16.3303717"><ele>926.8</ele><time>2026-04-27T13:03:36.648Z</time></trkpt><trkpt lat="38.645315" lon="16.3302617"><ele>927.1999999999999</ele><time>2026-04-27T13:03:37.644Z</time></trkpt><trkpt lat="38.6452683" lon="16.330165"><ele>927.5999999999999</ele><time>2026-04-27T13:03:38.674Z</time></trkpt><trkpt lat="38.64521" lon="16.3300883"><ele>928.0</ele><time>2026-04-27T13:03:39.642Z</time></trkpt><trkpt lat="38.6451367" lon="16.3300333"><ele>927.0</ele><time>2026-04-27T13:03:40.652Z</time></trkpt><trkpt lat="38.6450417" lon="16.3299933"><ele>926.0</ele><time>2026-04-27T13:03:41.64Z</time></trkpt><trkpt lat="38.64493" lon="16.3299617"><ele>925.0</ele><time>2026-04-27T13:03:42.648Z</time></trkpt><trkpt lat="38.64482" lon="16.3299283"><ele>924.0</ele><time>2026-04-27T13:03:43.647Z</time></trkpt><trkpt lat="38.6447167" lon="16.3298933"><ele>923.0</ele><time>2026-04-27T13:03:44.681Z</time></trkpt><trkpt lat="38.644615" lon="16.3298683"><ele>923.0</ele><time>2026-04-27T13:03:45.641Z</time></trkpt><trkpt lat="38.644525" lon="16.3298483"><ele>923.0</ele><time>2026-04-27T13:03:46.649Z</time></trkpt><trkpt lat="38.64446" lon="16.3298283"><ele>923.0</ele><time>2026-04-27T13:03:47.65Z</time></trkpt><trkpt lat="38.6443633" lon="16.329795"><ele>923.0</ele><time>2026-04-27T13:03:49.644Z</time></trkpt><trkpt lat="38.644255" lon="16.329745"><ele>923.0</ele><time>2026-04-27T13:03:51.639Z</time></trkpt><trkpt lat="38.64415" lon="16.3297117"><ele>920.5999999999999</ele><time>2026-04-27T13:03:53.643Z</time></trkpt><trkpt lat="38.6440233" lon="16.32969"><ele>918.1999999999999</ele><time>2026-04-27T13:03:55.645Z</time></trkpt><trkpt lat="38.6439583" lon="16.3296767"><ele>915.8</ele><time>2026-04-27T13:03:56.71Z</time></trkpt><trkpt lat="38.6438967" lon="16.3296467"><ele>913.4</ele><time>2026-04-27T13:03:57.644Z</time></trkpt><trkpt lat="38.6437933" lon="16.329585"><ele>911.0</ele><time>2026-04-27T13:03:59.646Z</time></trkpt><trkpt lat="38.6437167" lon="16.3295383"><ele>908.6666666666667</ele><time>2026-04-27T13:04:01.643Z</time></trkpt><trkpt lat="38.6436267" lon="16.32951"><ele>906.3333333333334</ele><time>2026-04-27T13:04:03.639Z</time></trkpt><trkpt lat="38.643525" lon="16.3294833"><ele>904.0</ele><time>2026-04-27T13:04:05.643Z</time></trkpt><trkpt lat="38.6434067" lon="16.329445"><ele>901.6666666666667</ele><time>2026-04-27T13:04:07.647Z</time></trkpt><trkpt lat="38.643345" lon="16.3294267"><ele>899.3333333333334</ele><time>2026-04-27T13:04:08.674Z</time></trkpt><trkpt lat="38.6432817" lon="16.3294017"><ele>897.0</ele><time>2026-04-27T13:04:09.643Z</time></trkpt><trkpt lat="38.6431733" lon="16.32933"><ele>897.0</ele><time>2026-04-27T13:04:11.645Z</time></trkpt><trkpt lat="38.6430767" lon="16.3292667"><ele>897.0</ele><time>2026-04-27T13:04:13.646Z</time></trkpt><trkpt lat="38.64298" lon="16.3292317"><ele>897.0</ele><time>2026-04-27T13:04:15.643Z</time></trkpt><trkpt lat="38.64288" lon="16.3291717"><ele>897.0</ele><time>2026-04-27T13:04:17.642Z</time></trkpt><trkpt lat="38.6427883" lon="16.3291283"><ele>897.0</ele><time>2026-04-27T13:04:19.649Z</time></trkpt><trkpt lat="38.6427067" lon="16.3291183"><ele>894.5</ele><time>2026-04-27T13:04:21.649Z</time></trkpt><trkpt lat="38.64263" lon="16.3291367"><ele>892.0</ele><time>2026-04-27T13:04:23.652Z</time></trkpt><trkpt lat="38.642565" lon="16.329175"><ele>889.5</ele><time>2026-04-27T13:04:25.64Z</time></trkpt><trkpt lat="38.6424983" lon="16.329205"><ele>887.0</ele><time>2026-04-27T13:04:27.645Z</time></trkpt><trkpt lat="38.6424133" lon="16.3291683"><ele>884.5</ele><time>2026-04-27T13:04:29.658Z</time></trkpt><trkpt lat="38.6423617" lon="16.32911"><ele>882.0</ele><time>2026-04-27T13:04:30.646Z</time></trkpt><trkpt lat="38.6422983" lon="16.3290383"><ele>882.0</ele><time>2026-04-27T13:04:31.648Z</time></trkpt><trkpt lat="38.6422233" lon="16.328965"><ele>882.0</ele><time>2026-04-27T13:04:32.706Z</time></trkpt><trkpt lat="38.64215" lon="16.3288967"><ele>882.0</ele><time>2026-04-27T13:04:33.64Z</time></trkpt><trkpt lat="38.642075" lon="16.328835"><ele>882.0</ele><time>2026-04-27T13:04:34.645Z</time></trkpt><trkpt lat="38.642" lon="16.3287733"><ele>882.0</ele><time>2026-04-27T13:04:35.643Z</time></trkpt><trkpt lat="38.64192" lon="16.3287183"><ele>880.6666666666666</ele><time>2026-04-27T13:04:36.649Z</time></trkpt><trkpt lat="38.6418333" lon="16.3286767"><ele>879.3333333333333</ele><time>2026-04-27T13:04:37.64Z</time></trkpt><trkpt lat="38.6417483" lon="16.3286483"><ele>878.0</ele><time>2026-04-27T13:04:38.674Z</time></trkpt><trkpt lat="38.6416717" lon="16.328615"><ele>876.6666666666666</ele><time>2026-04-27T13:04:39.643Z</time></trkpt><trkpt lat="38.641605" lon="16.32857"><ele>875.3333333333333</ele><time>2026-04-27T13:04:40.646Z</time></trkpt><trkpt lat="38.64154" lon="16.3285267"><ele>874.0</ele><time>2026-04-27T13:04:41.643Z</time></trkpt><trkpt lat="38.6414817" lon="16.3284867"><ele>873.9999999999999</ele><time>2026-04-27T13:04:42.647Z</time></trkpt><trkpt lat="38.6413733" lon="16.32844"><ele>874.0</ele><time>2026-04-27T13:04:44.676Z</time></trkpt><trkpt lat="38.6412583" lon="16.32843"><ele>874.0</ele><time>2026-04-27T13:04:46.64Z</time></trkpt><trkpt lat="38.6411933" lon="16.32841"><ele>874.0</ele><time>2026-04-27T13:04:47.643Z</time></trkpt><trkpt lat="38.6411233" lon="16.3283767"><ele>873.9999999999999</ele><time>2026-04-27T13:04:48.645Z</time></trkpt><trkpt lat="38.64105" lon="16.3283483"><ele>874.0</ele><time>2026-04-27T13:04:49.647Z</time></trkpt><trkpt lat="38.6409817" lon="16.3283317"><ele>871.4285714285714</ele><time>2026-04-27T13:04:50.675Z</time></trkpt><trkpt lat="38.6409133" lon="16.3283233"><ele>868.8571428571429</ele><time>2026-04-27T13:04:51.648Z</time></trkpt><trkpt lat="38.640845" lon="16.3283283"><ele>866.2857142857143</ele><time>2026-04-27T13:04:52.651Z</time></trkpt><trkpt lat="38.6407733" lon="16.3283367"><ele>863.7142857142858</ele><time>2026-04-27T13:04:53.645Z</time></trkpt><trkpt lat="38.640705" lon="16.3283483"><ele>861.1428571428571</ele><time>2026-04-27T13:04:54.653Z</time></trkpt><trkpt lat="38.6406333" lon="16.3283483"><ele>858.5714285714287</ele><time>2026-04-27T13:04:55.645Z</time></trkpt><trkpt lat="38.640565" lon="16.3283517"><ele>856.0</ele><time>2026-04-27T13:04:56.71Z</time></trkpt><trkpt lat="38.6405017" lon="16.328355"><ele>855.9999999999999</ele><time>2026-04-27T13:04:57.643Z</time></trkpt><trkpt lat="38.64038" lon="16.3283583"><ele>856.0</ele><time>2026-04-27T13:04:59.644Z</time></trkpt><trkpt lat="38.6403133" lon="16.3283433"><ele>856.0</ele><time>2026-04-27T13:05:00.649Z</time></trkpt><trkpt lat="38.6402483" lon="16.3283167"><ele>856.0</ele><time>2026-04-27T13:05:01.643Z</time></trkpt><trkpt lat="38.6401817" lon="16.3282917"><ele>855.9999999999999</ele><time>2026-04-27T13:05:02.696Z</time></trkpt><trkpt lat="38.64012" lon="16.328255"><ele>856.0</ele><time>2026-04-27T13:05:03.64Z</time></trkpt><trkpt lat="38.6400567" lon="16.328215"><ele>853.1666666666666</ele><time>2026-04-27T13:05:04.647Z</time></trkpt><trkpt lat="38.639995" lon="16.3281817"><ele>850.3333333333333</ele><time>2026-04-27T13:05:05.646Z</time></trkpt><trkpt lat="38.6399383" lon="16.3281367"><ele>847.5</ele><time>2026-04-27T13:05:06.645Z</time></trkpt><trkpt lat="38.6398833" lon="16.328095"><ele>844.6666666666667</ele><time>2026-04-27T13:05:07.642Z</time></trkpt><trkpt lat="38.6397733" lon="16.3280183"><ele>841.8333333333334</ele><time>2026-04-27T13:05:09.64Z</time></trkpt><trkpt lat="38.6397117" lon="16.3279867"><ele>839.0</ele><time>2026-04-27T13:05:10.648Z</time></trkpt><trkpt lat="38.6396517" lon="16.3279617"><ele>839.0000000000001</ele><time>2026-04-27T13:05:11.638Z</time></trkpt><trkpt lat="38.63954" lon="16.3278767"><ele>839.0</ele><time>2026-04-27T13:05:13.643Z</time></trkpt><trkpt lat="38.6394817" lon="16.3278083"><ele>839.0</ele><time>2026-04-27T13:05:14.681Z</time></trkpt><trkpt lat="38.6394333" lon="16.3277383"><ele>839.0</ele><time>2026-04-27T13:05:15.645Z</time></trkpt><trkpt lat="38.6393867" lon="16.3276667"><ele>839.0000000000001</ele><time>2026-04-27T13:05:16.638Z</time></trkpt><trkpt lat="38.6393433" lon="16.327595"><ele>839.0</ele><time>2026-04-27T13:05:17.64Z</time></trkpt><trkpt lat="38.639295" lon="16.3275267"><ele>835.5000000000001</ele><time>2026-04-27T13:05:18.645Z</time></trkpt><trkpt lat="38.6392383" lon="16.3274667"><ele>832.0</ele><time>2026-04-27T13:05:19.642Z</time></trkpt><trkpt lat="38.6391767" lon="16.3274167"><ele>828.5</ele><time>2026-04-27T13:05:20.677Z</time></trkpt><trkpt lat="38.63911" lon="16.327375"><ele>825.0</ele><time>2026-04-27T13:05:21.648Z</time></trkpt><trkpt lat="38.63904" lon="16.3273317"><ele>821.5000000000001</ele><time>2026-04-27T13:05:22.65Z</time></trkpt><trkpt lat="38.63897" lon="16.327285"><ele>818.0</ele><time>2026-04-27T13:05:23.638Z</time></trkpt><trkpt lat="38.6388967" lon="16.3272417"><ele>818.1666666666667</ele><time>2026-04-27T13:05:24.649Z</time></trkpt><trkpt lat="38.6388217" lon="16.3272"><ele>818.3333333333334</ele><time>2026-04-27T13:05:25.645Z</time></trkpt><trkpt lat="38.6387517" lon="16.32718"><ele>818.5</ele><time>2026-04-27T13:05:26.691Z</time></trkpt><trkpt lat="38.6386867" lon="16.3271567"><ele>818.6666666666667</ele><time>2026-04-27T13:05:27.643Z</time></trkpt><trkpt lat="38.63858" lon="16.3270917"><ele>818.8333333333334</ele><time>2026-04-27T13:05:29.644Z</time></trkpt><trkpt lat="38.63849" lon="16.32701"><ele>819.0</ele><time>2026-04-27T13:05:31.645Z</time></trkpt><trkpt lat="38.6384367" lon="16.3269633"><ele>816.1428571428571</ele><time>2026-04-27T13:05:32.687Z</time></trkpt><trkpt lat="38.6383783" lon="16.3269217"><ele>813.2857142857142</ele><time>2026-04-27T13:05:33.643Z</time></trkpt><trkpt lat="38.6383167" lon="16.326885"><ele>810.4285714285714</ele><time>2026-04-27T13:05:34.644Z</time></trkpt><trkpt lat="38.6382517" lon="16.3268517"><ele>807.5714285714286</ele><time>2026-04-27T13:05:35.644Z</time></trkpt><trkpt lat="38.6381883" lon="16.326815"><ele>804.7142857142857</ele><time>2026-04-27T13:05:36.645Z</time></trkpt><trkpt lat="38.6381183" lon="16.326775"><ele>801.8571428571429</ele><time>2026-04-27T13:05:37.645Z</time></trkpt><trkpt lat="38.6380483" lon="16.3267333"><ele>799.0</ele><time>2026-04-27T13:05:38.675Z</time></trkpt><trkpt lat="38.6379883" lon="16.32669"><ele>799.0</ele><time>2026-04-27T13:05:39.645Z</time></trkpt><trkpt lat="38.637895" lon="16.3266033"><ele>799.0</ele><time>2026-04-27T13:05:41.647Z</time></trkpt><trkpt lat="38.6378267" lon="16.3264833"><ele>799.0</ele><time>2026-04-27T13:05:43.64Z</time></trkpt><trkpt lat="38.6377233" lon="16.3263917"><ele>799.0</ele><time>2026-04-27T13:05:45.642Z</time></trkpt><trkpt lat="38.6376583" lon="16.3263517"><ele>799.0</ele><time>2026-04-27T13:05:46.641Z</time></trkpt><trkpt lat="38.63759" lon="16.3263133"><ele>794.6666666666666</ele><time>2026-04-27T13:05:47.645Z</time></trkpt><trkpt lat="38.637515" lon="16.3262667"><ele>790.3333333333333</ele><time>2026-04-27T13:05:48.652Z</time></trkpt><trkpt lat="38.6374417" lon="16.3262183"><ele>786.0</ele><time>2026-04-27T13:05:49.642Z</time></trkpt><trkpt lat="38.63737" lon="16.3261683"><ele>781.6666666666667</ele><time>2026-04-27T13:05:50.679Z</time></trkpt><trkpt lat="38.6373" lon="16.3261233"><ele>777.3333333333334</ele><time>2026-04-27T13:05:51.642Z</time></trkpt><trkpt lat="38.6372367" lon="16.32608"><ele>773.0</ele><time>2026-04-27T13:05:52.647Z</time></trkpt><trkpt lat="38.6371783" lon="16.3260333"><ele>773.0000000000001</ele><time>2026-04-27T13:05:53.646Z</time></trkpt><trkpt lat="38.637125" lon="16.3259683"><ele>773.0</ele><time>2026-04-27T13:05:54.646Z</time></trkpt><trkpt lat="38.6370683" lon="16.3258933"><ele>773.0</ele><time>2026-04-27T13:05:55.641Z</time></trkpt><trkpt lat="38.6370067" lon="16.325815"><ele>773.0</ele><time>2026-04-27T13:05:56.69Z</time></trkpt><trkpt lat="38.6369433" lon="16.3257417"><ele>773.0000000000001</ele><time>2026-04-27T13:05:57.639Z</time></trkpt><trkpt lat="38.6368683" lon="16.3256783"><ele>773.0</ele><time>2026-04-27T13:05:58.641Z</time></trkpt><trkpt lat="38.63679" lon="16.3256233"><ele>770.1666666666667</ele><time>2026-04-27T13:05:59.64Z</time></trkpt><trkpt lat="38.6367133" lon="16.3255733"><ele>767.3333333333334</ele><time>2026-04-27T13:06:00.649Z</time></trkpt><trkpt lat="38.6366367" lon="16.3255267"><ele>764.5</ele><time>2026-04-27T13:06:01.649Z</time></trkpt><trkpt lat="38.6365533" lon="16.3254917"><ele>761.6666666666667</ele><time>2026-04-27T13:06:02.683Z</time></trkpt><trkpt lat="38.6364683" lon="16.325465"><ele>758.8333333333334</ele><time>2026-04-27T13:06:03.641Z</time></trkpt><trkpt lat="38.6363767" lon="16.3254533"><ele>756.0</ele><time>2026-04-27T13:06:04.64Z</time></trkpt><trkpt lat="38.6362767" lon="16.325455"><ele>754.8</ele><time>2026-04-27T13:06:05.644Z</time></trkpt><trkpt lat="38.636165" lon="16.3254667"><ele>753.5999999999999</ele><time>2026-04-27T13:06:06.645Z</time></trkpt><trkpt lat="38.63605" lon="16.325475"><ele>752.4</ele><time>2026-04-27T13:06:07.645Z</time></trkpt><trkpt lat="38.6359383" lon="16.3254717"><ele>751.2</ele><time>2026-04-27T13:06:08.677Z</time></trkpt><trkpt lat="38.63583" lon="16.3254533"><ele>750.0</ele><time>2026-04-27T13:06:09.64Z</time></trkpt><trkpt lat="38.635725" lon="16.3254217"><ele>748.6</ele><time>2026-04-27T13:06:10.645Z</time></trkpt><trkpt lat="38.63562" lon="16.32538"><ele>747.2</ele><time>2026-04-27T13:06:11.649Z</time></trkpt><trkpt lat="38.6355067" lon="16.325335"><ele>745.8</ele><time>2026-04-27T13:06:12.646Z</time></trkpt><trkpt lat="38.6354183" lon="16.3252717"><ele>744.4</ele><time>2026-04-27T13:06:13.654Z</time></trkpt><trkpt lat="38.63536" lon="16.3251917"><ele>743.0</ele><time>2026-04-27T13:06:14.681Z</time></trkpt><trkpt lat="38.6353" lon="16.3251133"><ele>743.0</ele><time>2026-04-27T13:06:15.646Z</time></trkpt><trkpt lat="38.635265" lon="16.325045"><ele>743.0</ele><time>2026-04-27T13:06:16.648Z</time></trkpt><trkpt lat="38.63527" lon="16.3249283"><ele>743.0</ele><time>2026-04-27T13:06:18.64Z</time></trkpt><trkpt lat="38.63534" lon="16.3248783"><ele>743.0</ele><time>2026-04-27T13:06:20.677Z</time></trkpt><trkpt lat="38.6354133" lon="16.3248417"><ele>743.0</ele><time>2026-04-27T13:06:23.639Z</time></trkpt><trkpt lat="38.6353433" lon="16.3247567"><ele>743.0</ele><time>2026-04-27T13:06:26.688Z</time></trkpt><trkpt lat="38.6352767" lon="16.32473"><ele>743.0</ele><time>2026-04-27T13:06:27.646Z</time></trkpt><trkpt lat="38.6351717" lon="16.3247083"><ele>743.0</ele><time>2026-04-27T13:06:29.641Z</time></trkpt><trkpt lat="38.6350617" lon="16.3247533"><ele>743.0</ele><time>2026-04-27T13:06:31.644Z</time></trkpt><trkpt lat="38.6349983" lon="16.3248517"><ele>743.0</ele><time>2026-04-27T13:06:32.686Z</time></trkpt><trkpt lat="38.6349267" lon="16.3249533"><ele>743.0</ele><time>2026-04-27T13:06:33.643Z</time></trkpt><trkpt lat="38.6348433" lon="16.32507"><ele>743.0</ele><time>2026-04-27T13:06:34.643Z</time></trkpt><trkpt lat="38.6347567" lon="16.3251933"><ele>743.0</ele><time>2026-04-27T13:06:35.65Z</time></trkpt><trkpt lat="38.634675" lon="16.3253067"><ele>743.0</ele><time>2026-04-27T13:06:36.648Z</time></trkpt><trkpt lat="38.6346083" lon="16.3254033"><ele>743.0</ele><time>2026-04-27T13:06:37.645Z</time></trkpt><trkpt lat="38.6345617" lon="16.3254767"><ele>743.0</ele><time>2026-04-27T13:06:38.681Z</time></trkpt><trkpt lat="38.6346483" lon="16.325455"><ele>743.0</ele><time>2026-04-27T13:06:42.646Z</time></trkpt><trkpt lat="38.63471" lon="16.3253517"><ele>743.0</ele><time>2026-04-27T13:06:43.641Z</time></trkpt><trkpt lat="38.6347833" lon="16.3252383"><ele>743.0</ele><time>2026-04-27T13:06:44.68Z</time></trkpt><trkpt lat="38.6348633" lon="16.3251183"><ele>743.0</ele><time>2026-04-27T13:06:45.642Z</time></trkpt><trkpt lat="38.6349467" lon="16.3249983"><ele>743.0</ele><time>2026-04-27T13:06:46.649Z</time></trkpt><trkpt lat="38.6350317" lon="16.3248917"><ele>743.0</ele><time>2026-04-27T13:06:47.647Z</time></trkpt><trkpt lat="38.6351067" lon="16.324815"><ele>743.0</ele><time>2026-04-27T13:06:48.643Z</time></trkpt><trkpt lat="38.6351817" lon="16.3247467"><ele>743.0</ele><time>2026-04-27T13:06:49.648Z</time></trkpt><trkpt lat="38.6352617" lon="16.32476"><ele>743.0</ele><time>2026-04-27T13:06:50.682Z</time></trkpt><trkpt lat="38.6353417" lon="16.3248183"><ele>742.8</ele><time>2026-04-27T13:06:51.64Z</time></trkpt><trkpt lat="38.6354217" lon="16.3248933"><ele>742.5999999999999</ele><time>2026-04-27T13:06:52.648Z</time></trkpt><trkpt lat="38.6354983" lon="16.3249983"><ele>742.4000000000001</ele><time>2026-04-27T13:06:53.646Z</time></trkpt><trkpt lat="38.635585" lon="16.32508"><ele>742.2</ele><time>2026-04-27T13:06:54.648Z</time></trkpt><trkpt lat="38.6357067" lon="16.3251083"><ele>742.0</ele><time>2026-04-27T13:06:55.641Z</time></trkpt><trkpt lat="38.635835" lon="16.3251133"><ele>742.0</ele><time>2026-04-27T13:06:56.69Z</time></trkpt><trkpt lat="38.635965" lon="16.3250933"><ele>742.0</ele><time>2026-04-27T13:06:57.646Z</time></trkpt><trkpt lat="38.6360917" lon="16.3250667"><ele>742.0</ele><time>2026-04-27T13:06:58.644Z</time></trkpt><trkpt lat="38.63621" lon="16.3250267"><ele>742.0</ele><time>2026-04-27T13:06:59.636Z</time></trkpt><trkpt lat="38.636305" lon="16.3249683"><ele>741.75</ele><time>2026-04-27T13:07:00.639Z</time></trkpt><trkpt lat="38.6363883" lon="16.324885"><ele>741.5</ele><time>2026-04-27T13:07:01.644Z</time></trkpt><trkpt lat="38.6364567" lon="16.3247717"><ele>741.25</ele><time>2026-04-27T13:07:02.692Z</time></trkpt><trkpt lat="38.6365117" lon="16.3246383"><ele>741.0</ele><time>2026-04-27T13:07:03.637Z</time></trkpt><trkpt lat="38.63654" lon="16.3244633"><ele>741.0</ele><time>2026-04-27T13:07:04.642Z</time></trkpt><trkpt lat="38.6365683" lon="16.3242883"><ele>741.0</ele><time>2026-04-27T13:07:05.643Z</time></trkpt><trkpt lat="38.6365983" lon="16.324125"><ele>741.0</ele><time>2026-04-27T13:07:06.65Z</time></trkpt><trkpt lat="38.6366483" lon="16.3239883"><ele>741.0</ele><time>2026-04-27T13:07:07.644Z</time></trkpt><trkpt lat="38.6367067" lon="16.323875"><ele>741.0</ele><time>2026-04-27T13:07:08.676Z</time></trkpt><trkpt lat="38.6368017" lon="16.323865"><ele>741.0</ele><time>2026-04-27T13:07:09.643Z</time></trkpt><trkpt lat="38.6369017" lon="16.3239033"><ele>741.0</ele><time>2026-04-27T13:07:10.645Z</time></trkpt><trkpt lat="38.6370033" lon="16.3239483"><ele>741.0</ele><time>2026-04-27T13:07:11.643Z</time></trkpt><trkpt lat="38.6371017" lon="16.3239817"><ele>741.0</ele><time>2026-04-27T13:07:12.643Z</time></trkpt><trkpt lat="38.63719" lon="16.324"><ele>742.0</ele><time>2026-04-27T13:07:13.636Z</time></trkpt><trkpt lat="38.63726" lon="16.3239333"><ele>743.0</ele><time>2026-04-27T13:07:14.679Z</time></trkpt><trkpt lat="38.6373017" lon="16.3238433"><ele>744.0</ele><time>2026-04-27T13:07:15.642Z</time></trkpt><trkpt lat="38.6373333" lon="16.3237383"><ele>745.0</ele><time>2026-04-27T13:07:16.641Z</time></trkpt><trkpt lat="38.6373283" lon="16.32361"><ele>746.0</ele><time>2026-04-27T13:07:17.641Z</time></trkpt><trkpt lat="38.6373333" lon="16.3234717"><ele>746.0</ele><time>2026-04-27T13:07:18.647Z</time></trkpt><trkpt lat="38.6373467" lon="16.3233417"><ele>746.0</ele><time>2026-04-27T13:07:19.643Z</time></trkpt><trkpt lat="38.6373617" lon="16.3232533"><ele>746.0</ele><time>2026-04-27T13:07:21.641Z</time></trkpt><trkpt lat="38.6373367" lon="16.3233333"><ele>746.0</ele><time>2026-04-27T13:07:30.647Z</time></trkpt><trkpt lat="38.6372867" lon="16.323435"><ele>746.0</ele><time>2026-04-27T13:07:32.683Z</time></trkpt><trkpt lat="38.6371783" lon="16.3234817"><ele>746.0</ele><time>2026-04-27T13:07:34.648Z</time></trkpt><trkpt lat="38.6371033" lon="16.3235017"><ele>746.0</ele><time>2026-04-27T13:07:35.641Z</time></trkpt><trkpt lat="38.6370333" lon="16.323515"><ele>746.0</ele><time>2026-04-27T13:07:36.648Z</time></trkpt><trkpt lat="38.6369317" lon="16.323525"><ele>746.0</ele><time>2026-04-27T13:07:38.675Z</time></trkpt><trkpt lat="38.6368933" lon="16.3234517"><ele>746.0</ele><time>2026-04-27T13:07:41.643Z</time></trkpt><trkpt lat="38.6369183" lon="16.3233517"><ele>746.0</ele><time>2026-04-27T13:07:43.646Z</time></trkpt><trkpt lat="38.6369617" lon="16.3232683"><ele>746.0</ele><time>2026-04-27T13:07:44.677Z</time></trkpt><trkpt lat="38.636995" lon="16.323155"><ele>744.8333333333333</ele><time>2026-04-27T13:07:45.645Z</time></trkpt><trkpt lat="38.63703" lon="16.3230383"><ele>743.6666666666666</ele><time>2026-04-27T13:07:46.643Z</time></trkpt><trkpt lat="38.63707" lon="16.3229267"><ele>742.5</ele><time>2026-04-27T13:07:47.641Z</time></trkpt><trkpt lat="38.637105" lon="16.3228233"><ele>741.3333333333334</ele><time>2026-04-27T13:07:48.647Z</time></trkpt><trkpt lat="38.63711" lon="16.322735"><ele>740.1666666666667</ele><time>2026-04-27T13:07:49.647Z</time></trkpt><trkpt lat="38.6371233" lon="16.3226517"><ele>739.0</ele><time>2026-04-27T13:07:50.676Z</time></trkpt><trkpt lat="38.6371667" lon="16.3225467"><ele>739.0</ele><time>2026-04-27T13:07:52.645Z</time></trkpt><trkpt lat="38.63724" lon="16.3224367"><ele>739.0</ele><time>2026-04-27T13:07:54.649Z</time></trkpt><trkpt lat="38.637295" lon="16.3223683"><ele>739.0</ele><time>2026-04-27T13:07:55.644Z</time></trkpt><trkpt lat="38.6373583" lon="16.32229"><ele>739.0</ele><time>2026-04-27T13:07:56.697Z</time></trkpt><trkpt lat="38.63742" lon="16.32221"><ele>739.0</ele><time>2026-04-27T13:07:57.641Z</time></trkpt><trkpt lat="38.6374683" lon="16.32214"><ele>739.0</ele><time>2026-04-27T13:07:58.65Z</time></trkpt><trkpt lat="38.637485" lon="16.322"><ele>738.2</ele><time>2026-04-27T13:08:00.647Z</time></trkpt><trkpt lat="38.6374633" lon="16.321915"><ele>737.4000000000001</ele><time>2026-04-27T13:08:02.688Z</time></trkpt><trkpt lat="38.637405" lon="16.321815"><ele>736.6</ele><time>2026-04-27T13:08:33.643Z</time></trkpt><trkpt lat="38.6373633" lon="16.3217133"><ele>735.8</ele><time>2026-04-27T13:09:04.652Z</time></trkpt><trkpt lat="38.6372817" lon="16.3215833"><ele>735.0</ele><time>2026-04-27T13:09:06.652Z</time></trkpt><trkpt lat="38.6372083" lon="16.3215217"><ele>735.0</ele><time>2026-04-27T13:09:07.646Z</time></trkpt><trkpt lat="38.6371233" lon="16.3214633"><ele>735.0</ele><time>2026-04-27T13:09:08.688Z</time></trkpt><trkpt lat="38.63704" lon="16.3214067"><ele>735.0</ele><time>2026-04-27T13:09:09.646Z</time></trkpt><trkpt lat="38.6369583" lon="16.3213633"><ele>735.0</ele><time>2026-04-27T13:09:10.65Z</time></trkpt><trkpt lat="38.636885" lon="16.3213317"><ele>735.0</ele><time>2026-04-27T13:09:11.646Z</time></trkpt><trkpt lat="38.6368233" lon="16.3213117"><ele>735.0</ele><time>2026-04-27T13:09:12.65Z</time></trkpt><trkpt lat="38.6367633" lon="16.3212583"><ele>737.0</ele><time>2026-04-27T13:09:14.686Z</time></trkpt><trkpt lat="38.6368133" lon="16.32116"><ele>739.0</ele><time>2026-04-27T13:09:17.643Z</time></trkpt><trkpt lat="38.6369117" lon="16.3211333"><ele>741.0</ele><time>2026-04-27T13:09:19.644Z</time></trkpt><trkpt lat="38.63698" lon="16.32114"><ele>743.0</ele><time>2026-04-27T13:09:20.685Z</time></trkpt><trkpt lat="38.6370583" lon="16.3211367"><ele>745.0</ele><time>2026-04-27T13:09:21.648Z</time></trkpt><trkpt lat="38.6371517" lon="16.3211417"><ele>747.0</ele><time>2026-04-27T13:09:22.651Z</time></trkpt><trkpt lat="38.637265" lon="16.321135"><ele>747.0</ele><time>2026-04-27T13:09:23.641Z</time></trkpt><trkpt lat="38.63739" lon="16.3211183"><ele>747.0</ele><time>2026-04-27T13:09:24.65Z</time></trkpt><trkpt lat="38.6375233" lon="16.3210833"><ele>747.0</ele><time>2026-04-27T13:09:25.641Z</time></trkpt><trkpt lat="38.6376567" lon="16.3210517"><ele>747.0</ele><time>2026-04-27T13:09:26.69Z</time></trkpt><trkpt lat="38.6377817" lon="16.32102"><ele>745.8</ele><time>2026-04-27T13:09:27.641Z</time></trkpt><trkpt lat="38.6378983" lon="16.3210033"><ele>744.6</ele><time>2026-04-27T13:09:28.642Z</time></trkpt><trkpt lat="38.638" lon="16.32098"><ele>743.4</ele><time>2026-04-27T13:09:29.641Z</time></trkpt><trkpt lat="38.63809" lon="16.32094"><ele>742.1999999999999</ele><time>2026-04-27T13:09:30.645Z</time></trkpt><trkpt lat="38.6381733" lon="16.3208933"><ele>741.0</ele><time>2026-04-27T13:09:31.642Z</time></trkpt><trkpt lat="38.63825" lon="16.320825"><ele>741.0</ele><time>2026-04-27T13:09:32.685Z</time></trkpt><trkpt lat="38.6383167" lon="16.3207533"><ele>741.0</ele><time>2026-04-27T13:09:33.642Z</time></trkpt><trkpt lat="38.6383583" lon="16.3206583"><ele>741.0</ele><time>2026-04-27T13:09:34.645Z</time></trkpt><trkpt lat="38.6383733" lon="16.3205467"><ele>741.0</ele><time>2026-04-27T13:09:35.643Z</time></trkpt><trkpt lat="38.6383667" lon="16.3204283"><ele>741.0</ele><time>2026-04-27T13:09:36.648Z</time></trkpt><trkpt lat="38.6383567" lon="16.32033"><ele>741.0</ele><time>2026-04-27T13:09:37.644Z</time></trkpt><trkpt lat="38.6382733" lon="16.3201867"><ele>741.7142857142857</ele><time>2026-04-27T13:09:39.641Z</time></trkpt><trkpt lat="38.6382267" lon="16.320125"><ele>742.4285714285714</ele><time>2026-04-27T13:09:40.641Z</time></trkpt><trkpt lat="38.6381683" lon="16.3200567"><ele>743.1428571428571</ele><time>2026-04-27T13:09:41.644Z</time></trkpt><trkpt lat="38.63811" lon="16.3200017"><ele>743.8571428571429</ele><time>2026-04-27T13:09:42.652Z</time></trkpt><trkpt lat="38.63805" lon="16.3199733"><ele>744.5714285714287</ele><time>2026-04-27T13:09:43.642Z</time></trkpt><trkpt lat="38.6379833" lon="16.3199583"><ele>745.2857142857143</ele><time>2026-04-27T13:09:44.682Z</time></trkpt><trkpt lat="38.637905" lon="16.3199517"><ele>746.0</ele><time>2026-04-27T13:09:45.644Z</time></trkpt><trkpt lat="38.6378183" lon="16.3199517"><ele>748.5</ele><time>2026-04-27T13:09:46.641Z</time></trkpt><trkpt lat="38.6377383" lon="16.319955"><ele>751.0</ele><time>2026-04-27T13:09:47.642Z</time></trkpt><trkpt lat="38.6376617" lon="16.31995"><ele>753.5</ele><time>2026-04-27T13:09:48.648Z</time></trkpt><trkpt lat="38.637595" lon="16.3199467"><ele>756.0</ele><time>2026-04-27T13:09:49.644Z</time></trkpt><trkpt lat="38.63747" lon="16.3199567"><ele>758.5</ele><time>2026-04-27T13:09:51.642Z</time></trkpt><trkpt lat="38.6373917" lon="16.31995"><ele>761.0</ele><time>2026-04-27T13:09:52.647Z</time></trkpt><trkpt lat="38.637315" lon="16.3199433"><ele>760.9999999999999</ele><time>2026-04-27T13:09:53.64Z</time></trkpt><trkpt lat="38.6372433" lon="16.3199333"><ele>761.0</ele><time>2026-04-27T13:09:54.647Z</time></trkpt><trkpt lat="38.637175" lon="16.3199117"><ele>761.0</ele><time>2026-04-27T13:09:55.642Z</time></trkpt><trkpt lat="38.6371133" lon="16.3198733"><ele>761.0</ele><time>2026-04-27T13:09:56.708Z</time></trkpt><trkpt lat="38.63705" lon="16.319825"><ele>761.0</ele><time>2026-04-27T13:09:57.645Z</time></trkpt><trkpt lat="38.6369883" lon="16.3197667"><ele>760.9999999999999</ele><time>2026-04-27T13:09:58.649Z</time></trkpt><trkpt lat="38.6369167" lon="16.319715"><ele>761.0</ele><time>2026-04-27T13:09:59.638Z</time></trkpt><trkpt lat="38.6368517" lon="16.3196767"><ele>764.8</ele><time>2026-04-27T13:10:00.648Z</time></trkpt><trkpt lat="38.636775" lon="16.31964"><ele>768.5999999999999</ele><time>2026-04-27T13:10:01.643Z</time></trkpt><trkpt lat="38.6367033" lon="16.3196183"><ele>772.4</ele><time>2026-04-27T13:10:02.695Z</time></trkpt><trkpt lat="38.6366417" lon="16.319585"><ele>776.2</ele><time>2026-04-27T13:10:03.643Z</time></trkpt><trkpt lat="38.6365433" lon="16.3195067"><ele>780.0</ele><time>2026-04-27T13:10:05.644Z</time></trkpt><trkpt lat="38.6364883" lon="16.31935"><ele>780.0</ele><time>2026-04-27T13:10:07.65Z</time></trkpt><trkpt lat="38.6364617" lon="16.3192483"><ele>780.0</ele><time>2026-04-27T13:10:08.682Z</time></trkpt><trkpt lat="38.6364383" lon="16.3191467"><ele>780.0</ele><time>2026-04-27T13:10:09.646Z</time></trkpt><trkpt lat="38.6364133" lon="16.31906"><ele>780.0</ele><time>2026-04-27T13:10:10.647Z</time></trkpt><trkpt lat="38.6363533" lon="16.3189333"><ele>780.0</ele><time>2026-04-27T13:10:12.65Z</time></trkpt><trkpt lat="38.636275" lon="16.3188783"><ele>780.0</ele><time>2026-04-27T13:10:14.684Z</time></trkpt><trkpt lat="38.6361717" lon="16.318885"><ele>780.4</ele><time>2026-04-27T13:10:16.645Z</time></trkpt><trkpt lat="38.6361067" lon="16.3188817"><ele>780.8</ele><time>2026-04-27T13:10:17.645Z</time></trkpt><trkpt lat="38.6360417" lon="16.3188717"><ele>781.2</ele><time>2026-04-27T13:10:18.647Z</time></trkpt><trkpt lat="38.6359383" lon="16.31879"><ele>781.6</ele><time>2026-04-27T13:10:20.683Z</time></trkpt><trkpt lat="38.6358883" lon="16.3186333"><ele>782.0</ele><time>2026-04-27T13:10:22.641Z</time></trkpt><trkpt lat="38.6358717" lon="16.3185367"><ele>782.0</ele><time>2026-04-27T13:10:23.64Z</time></trkpt><trkpt lat="38.6358633" lon="16.3184183"><ele>782.0</ele><time>2026-04-27T13:10:24.647Z</time></trkpt><trkpt lat="38.6358483" lon="16.3182833"><ele>782.0</ele><time>2026-04-27T13:10:25.65Z</time></trkpt><trkpt lat="38.635825" lon="16.31816"><ele>782.0</ele><time>2026-04-27T13:10:26.708Z</time></trkpt><trkpt lat="38.6357967" lon="16.3180483"><ele>782.0</ele><time>2026-04-27T13:10:27.637Z</time></trkpt><trkpt lat="38.635755" lon="16.3179617"><ele>785.5000000000001</ele><time>2026-04-27T13:10:28.648Z</time></trkpt><trkpt lat="38.6357167" lon="16.3178967"><ele>789.0</ele><time>2026-04-27T13:10:29.646Z</time></trkpt><trkpt lat="38.6356583" lon="16.3178583"><ele>792.5</ele><time>2026-04-27T13:10:30.644Z</time></trkpt><trkpt lat="38.635595" lon="16.31783"><ele>796.0</ele><time>2026-04-27T13:10:31.639Z</time></trkpt><trkpt lat="38.635535" lon="16.3178033"><ele>799.5000000000001</ele><time>2026-04-27T13:10:32.688Z</time></trkpt><trkpt lat="38.635425" lon="16.3177667"><ele>803.0</ele><time>2026-04-27T13:10:34.649Z</time></trkpt><trkpt lat="38.6353467" lon="16.3177183"><ele>800.4</ele><time>2026-04-27T13:10:36.65Z</time></trkpt><trkpt lat="38.6352583" lon="16.3176367"><ele>797.8</ele><time>2026-04-27T13:10:38.677Z</time></trkpt><trkpt lat="38.6352017" lon="16.3175767"><ele>795.2</ele><time>2026-04-27T13:10:39.642Z</time></trkpt><trkpt lat="38.6351383" lon="16.317495"><ele>792.6</ele><time>2026-04-27T13:10:40.646Z</time></trkpt><trkpt lat="38.63507" lon="16.31739"><ele>790.0</ele><time>2026-04-27T13:10:41.647Z</time></trkpt><trkpt lat="38.6350133" lon="16.31727"><ele>794.2</ele><time>2026-04-27T13:10:42.644Z</time></trkpt><trkpt lat="38.63495" lon="16.3171467"><ele>798.4</ele><time>2026-04-27T13:10:43.644Z</time></trkpt><trkpt lat="38.6348833" lon="16.3170433"><ele>802.5999999999999</ele><time>2026-04-27T13:10:44.68Z</time></trkpt><trkpt lat="38.634815" lon="16.3169467"><ele>806.8</ele><time>2026-04-27T13:10:45.644Z</time></trkpt><trkpt lat="38.634735" lon="16.3168583"><ele>811.0</ele><time>2026-04-27T13:10:46.651Z</time></trkpt><trkpt lat="38.6346667" lon="16.3168033"><ele>810.9999999999999</ele><time>2026-04-27T13:10:47.643Z</time></trkpt><trkpt lat="38.634595" lon="16.3167667"><ele>811.0</ele><time>2026-04-27T13:10:48.649Z</time></trkpt><trkpt lat="38.6345233" lon="16.316745"><ele>811.0</ele><time>2026-04-27T13:10:49.644Z</time></trkpt><trkpt lat="38.634455" lon="16.3167283"><ele>811.0</ele><time>2026-04-27T13:10:50.684Z</time></trkpt><trkpt lat="38.6343433" lon="16.3167467"><ele>810.9999999999999</ele><time>2026-04-27T13:10:52.643Z</time></trkpt><trkpt lat="38.6343333" lon="16.3168417"><ele>811.0</ele><time>2026-04-27T13:10:53.649Z</time></trkpt><trkpt lat="38.634325" lon="16.3169433"><ele>810.1666666666666</ele><time>2026-04-27T13:10:54.648Z</time></trkpt><trkpt lat="38.63433" lon="16.317045"><ele>809.3333333333333</ele><time>2026-04-27T13:10:55.641Z</time></trkpt><trkpt lat="38.63433" lon="16.317145"><ele>808.5</ele><time>2026-04-27T13:10:56.678Z</time></trkpt><trkpt lat="38.6343283" lon="16.3172333"><ele>807.6666666666667</ele><time>2026-04-27T13:10:57.646Z</time></trkpt><trkpt lat="38.6343333" lon="16.317385"><ele>806.8333333333334</ele><time>2026-04-27T13:10:59.641Z</time></trkpt><trkpt lat="38.6343417" lon="16.3174967"><ele>806.0</ele><time>2026-04-27T13:11:01.644Z</time></trkpt><trkpt lat="38.634365" lon="16.3176067"><ele>806.0000000000001</ele><time>2026-04-27T13:11:03.645Z</time></trkpt><trkpt lat="38.634395" lon="16.3177267"><ele>806.0</ele><time>2026-04-27T13:11:05.644Z</time></trkpt><trkpt lat="38.634405" lon="16.3178217"><ele>806.0</ele><time>2026-04-27T13:11:07.648Z</time></trkpt><trkpt lat="38.6344183" lon="16.3179133"><ele>806.0</ele><time>2026-04-27T13:11:09.643Z</time></trkpt><trkpt lat="38.63443" lon="16.3180333"><ele>806.0000000000001</ele><time>2026-04-27T13:11:12.649Z</time></trkpt><trkpt lat="38.634445" lon="16.31813"><ele>806.0</ele><time>2026-04-27T13:11:14.679Z</time></trkpt><trkpt lat="38.6344517" lon="16.3182217"><ele>804.1999999999999</ele><time>2026-04-27T13:11:16.648Z</time></trkpt><trkpt lat="38.6344217" lon="16.3183317"><ele>802.4</ele><time>2026-04-27T13:11:18.647Z</time></trkpt><trkpt lat="38.6343783" lon="16.3184583"><ele>800.6</ele><time>2026-04-27T13:11:20.681Z</time></trkpt><trkpt lat="38.6343367" lon="16.3185767"><ele>798.8</ele><time>2026-04-27T13:11:22.651Z</time></trkpt><trkpt lat="38.6343017" lon="16.3186567"><ele>797.0</ele><time>2026-04-27T13:11:24.645Z</time></trkpt><trkpt lat="38.6342067" lon="16.3186717"><ele>797.0</ele><time>2026-04-27T13:11:27.645Z</time></trkpt><trkpt lat="38.6340967" lon="16.3186117"><ele>797.0</ele><time>2026-04-27T13:11:29.644Z</time></trkpt><trkpt lat="38.6340067" lon="16.3185633"><ele>797.0</ele><time>2026-04-27T13:11:30.646Z</time></trkpt><trkpt lat="38.6339433" lon="16.3185283"><ele>797.0</ele><time>2026-04-27T13:11:31.643Z</time></trkpt><trkpt lat="38.6338083" lon="16.3184833"><ele>797.0</ele><time>2026-04-27T13:11:33.642Z</time></trkpt><trkpt lat="38.633735" lon="16.318455"><ele>799.2</ele><time>2026-04-27T13:11:34.645Z</time></trkpt><trkpt lat="38.6336267" lon="16.3184333"><ele>801.4000000000001</ele><time>2026-04-27T13:11:36.653Z</time></trkpt><trkpt lat="38.6335383" lon="16.3184517"><ele>803.5999999999999</ele><time>2026-04-27T13:11:38.685Z</time></trkpt><trkpt lat="38.633465" lon="16.3185933"><ele>805.8</ele><time>2026-04-27T13:11:40.649Z</time></trkpt><trkpt lat="38.6334217" lon="16.318655"><ele>808.0</ele><time>2026-04-27T13:11:41.648Z</time></trkpt><trkpt lat="38.6333567" lon="16.3187417"><ele>808.0</ele><time>2026-04-27T13:11:43.644Z</time></trkpt><trkpt lat="38.6332833" lon="16.31884"><ele>808.0</ele><time>2026-04-27T13:11:45.641Z</time></trkpt><trkpt lat="38.6332217" lon="16.3189517"><ele>808.0</ele><time>2026-04-27T13:11:47.644Z</time></trkpt><trkpt lat="38.633185" lon="16.3190733"><ele>808.0</ele><time>2026-04-27T13:11:49.649Z</time></trkpt><trkpt lat="38.633165" lon="16.31923"><ele>808.0</ele><time>2026-04-27T13:11:51.642Z</time></trkpt><trkpt lat="38.63315" lon="16.3193183"><ele>805.6666666666666</ele><time>2026-04-27T13:11:52.653Z</time></trkpt><trkpt lat="38.6331283" lon="16.3194083"><ele>803.3333333333333</ele><time>2026-04-27T13:11:53.644Z</time></trkpt><trkpt lat="38.6331083" lon="16.319495"><ele>801.0</ele><time>2026-04-27T13:11:54.651Z</time></trkpt><trkpt lat="38.6330483" lon="16.31961"><ele>798.6666666666667</ele><time>2026-04-27T13:11:56.701Z</time></trkpt><trkpt lat="38.6329917" lon="16.319655"><ele>796.3333333333334</ele><time>2026-04-27T13:11:58.643Z</time></trkpt><trkpt lat="38.632925" lon="16.3196783"><ele>794.0</ele><time>2026-04-27T13:12:01.643Z</time></trkpt><trkpt lat="38.6328433" lon="16.3196583"><ele>795.1666666666667</ele><time>2026-04-27T13:12:03.643Z</time></trkpt><trkpt lat="38.6327433" lon="16.3196233"><ele>796.3333333333334</ele><time>2026-04-27T13:12:05.642Z</time></trkpt><trkpt lat="38.6326483" lon="16.3195867"><ele>797.5</ele><time>2026-04-27T13:12:07.641Z</time></trkpt><trkpt lat="38.63258" lon="16.3195583"><ele>798.6666666666667</ele><time>2026-04-27T13:12:09.642Z</time></trkpt><trkpt lat="38.63252" lon="16.3195233"><ele>799.8333333333334</ele><time>2026-04-27T13:12:11.642Z</time></trkpt><trkpt lat="38.632465" lon="16.3194767"><ele>801.0</ele><time>2026-04-27T13:12:13.646Z</time></trkpt><trkpt lat="38.6324133" lon="16.3194083"><ele>801.0</ele><time>2026-04-27T13:12:15.646Z</time></trkpt><trkpt lat="38.63235" lon="16.3192867"><ele>801.0</ele><time>2026-04-27T13:12:17.642Z</time></trkpt><trkpt lat="38.6322867" lon="16.31916"><ele>801.0</ele><time>2026-04-27T13:12:19.646Z</time></trkpt><trkpt lat="38.6322283" lon="16.3190567"><ele>801.0</ele><time>2026-04-27T13:12:21.642Z</time></trkpt><trkpt lat="38.6321483" lon="16.318965"><ele>801.0</ele><time>2026-04-27T13:12:23.648Z</time></trkpt><trkpt lat="38.63205" lon="16.3188867"><ele>802.1999999999999</ele><time>2026-04-27T13:12:25.642Z</time></trkpt><trkpt lat="38.6319433" lon="16.31884"><ele>803.4</ele><time>2026-04-27T13:12:27.643Z</time></trkpt><trkpt lat="38.6318383" lon="16.3188233"><ele>804.6</ele><time>2026-04-27T13:12:29.642Z</time></trkpt><trkpt lat="38.6317333" lon="16.3188033"><ele>805.8</ele><time>2026-04-27T13:12:31.646Z</time></trkpt><trkpt lat="38.6316267" lon="16.31878"><ele>807.0</ele><time>2026-04-27T13:12:33.638Z</time></trkpt><trkpt lat="38.6315067" lon="16.3187517"><ele>807.0</ele><time>2026-04-27T13:12:35.638Z</time></trkpt><trkpt lat="38.6313933" lon="16.3187083"><ele>807.0</ele><time>2026-04-27T13:12:37.643Z</time></trkpt><trkpt lat="38.6313067" lon="16.31871"><ele>807.0</ele><time>2026-04-27T13:12:39.646Z</time></trkpt><trkpt lat="38.6311983" lon="16.3187433"><ele>807.0</ele><time>2026-04-27T13:12:41.645Z</time></trkpt><trkpt lat="38.6311333" lon="16.3187617"><ele>807.0</ele><time>2026-04-27T13:12:42.643Z</time></trkpt><trkpt lat="38.6310217" lon="16.3188133"><ele>806.6</ele><time>2026-04-27T13:12:44.681Z</time></trkpt><trkpt lat="38.630915" lon="16.3188283"><ele>806.2</ele><time>2026-04-27T13:12:46.649Z</time></trkpt><trkpt lat="38.630825" lon="16.3187867"><ele>805.8</ele><time>2026-04-27T13:12:48.648Z</time></trkpt><trkpt lat="38.630745" lon="16.3187283"><ele>805.4</ele><time>2026-04-27T13:12:50.68Z</time></trkpt><trkpt lat="38.6307083" lon="16.3186317"><ele>805.0</ele><time>2026-04-27T13:12:56.704Z</time></trkpt><trkpt lat="38.6306933" lon="16.3184867"><ele>804.9999999999999</ele><time>2026-04-27T13:12:58.644Z</time></trkpt><trkpt lat="38.63068" lon="16.3183833"><ele>805.0</ele><time>2026-04-27T13:12:59.642Z</time></trkpt><trkpt lat="38.6306733" lon="16.3182817"><ele>805.0</ele><time>2026-04-27T13:13:00.648Z</time></trkpt><trkpt lat="38.6306733" lon="16.318185"><ele>805.0</ele><time>2026-04-27T13:13:01.643Z</time></trkpt><trkpt lat="38.6306767" lon="16.318095"><ele>804.9999999999999</ele><time>2026-04-27T13:13:02.692Z</time></trkpt><trkpt lat="38.6307067" lon="16.3179517"><ele>805.0</ele><time>2026-04-27T13:13:04.643Z</time></trkpt><trkpt lat="38.6307433" lon="16.3178767"><ele>805.0</ele><time>2026-04-27T13:13:05.64Z</time></trkpt><trkpt lat="38.6307917" lon="16.317795"><ele>805.0</ele><time>2026-04-27T13:13:06.639Z</time></trkpt><trkpt lat="38.6308583" lon="16.317715"><ele>805.0</ele><time>2026-04-27T13:13:07.643Z</time></trkpt><trkpt lat="38.6309367" lon="16.3176267"><ele>805.0</ele><time>2026-04-27T13:13:08.683Z</time></trkpt><trkpt lat="38.6310167" lon="16.31754"><ele>805.0</ele><time>2026-04-27T13:13:09.641Z</time></trkpt><trkpt lat="38.631095" lon="16.3174467"><ele>807.3333333333333</ele><time>2026-04-27T13:13:10.645Z</time></trkpt><trkpt lat="38.6311583" lon="16.3173667"><ele>809.6666666666666</ele><time>2026-04-27T13:13:11.64Z</time></trkpt><trkpt lat="38.63121" lon="16.3172717"><ele>812.0</ele><time>2026-04-27T13:13:12.645Z</time></trkpt><trkpt lat="38.63126" lon="16.3171817"><ele>814.3333333333333</ele><time>2026-04-27T13:13:13.642Z</time></trkpt><trkpt lat="38.6313117" lon="16.317095"><ele>816.6666666666666</ele><time>2026-04-27T13:13:14.679Z</time></trkpt><trkpt lat="38.6313733" lon="16.3170233"><ele>819.0</ele><time>2026-04-27T13:13:15.639Z</time></trkpt><trkpt lat="38.6314383" lon="16.316955"><ele>819.8333333333334</ele><time>2026-04-27T13:13:16.642Z</time></trkpt><trkpt lat="38.6315033" lon="16.3168883"><ele>820.6666666666667</ele><time>2026-04-27T13:13:17.638Z</time></trkpt><trkpt lat="38.6315617" lon="16.3168183"><ele>821.5</ele><time>2026-04-27T13:13:18.647Z</time></trkpt><trkpt lat="38.631615" lon="16.31675"><ele>822.3333333333334</ele><time>2026-04-27T13:13:19.644Z</time></trkpt><trkpt lat="38.6316567" lon="16.3166833"><ele>823.1666666666667</ele><time>2026-04-27T13:13:20.683Z</time></trkpt><trkpt lat="38.6317283" lon="16.3165667"><ele>824.0</ele><time>2026-04-27T13:13:22.646Z</time></trkpt><trkpt lat="38.6318183" lon="16.316455"><ele>824.3333333333334</ele><time>2026-04-27T13:13:24.647Z</time></trkpt><trkpt lat="38.6318767" lon="16.3164"><ele>824.6666666666667</ele><time>2026-04-27T13:13:25.646Z</time></trkpt><trkpt lat="38.6319417" lon="16.3163517"><ele>825.0</ele><time>2026-04-27T13:13:26.673Z</time></trkpt><trkpt lat="38.6320633" lon="16.3162967"><ele>825.3333333333333</ele><time>2026-04-27T13:13:28.647Z</time></trkpt><trkpt lat="38.63213" lon="16.316275"><ele>825.6666666666666</ele><time>2026-04-27T13:13:29.64Z</time></trkpt><trkpt lat="38.6322083" lon="16.3162483"><ele>826.0</ele><time>2026-04-27T13:13:30.647Z</time></trkpt><trkpt lat="38.6322783" lon="16.316225"><ele>830.1666666666666</ele><time>2026-04-27T13:13:31.644Z</time></trkpt><trkpt lat="38.6323367" lon="16.31619"><ele>834.3333333333333</ele><time>2026-04-27T13:13:32.687Z</time></trkpt><trkpt lat="38.6324133" lon="16.3161"><ele>838.5</ele><time>2026-04-27T13:13:34.646Z</time></trkpt><trkpt lat="38.6324833" lon="16.31604"><ele>842.6666666666667</ele><time>2026-04-27T13:13:36.648Z</time></trkpt><trkpt lat="38.6325617" lon="16.3160183"><ele>846.8333333333334</ele><time>2026-04-27T13:13:38.677Z</time></trkpt><trkpt lat="38.6326483" lon="16.3160133"><ele>851.0</ele><time>2026-04-27T13:13:40.645Z</time></trkpt><trkpt lat="38.6327183" lon="16.3159783"><ele>851.0</ele><time>2026-04-27T13:13:42.648Z</time></trkpt><trkpt lat="38.63278" lon="16.3159083"><ele>851.0</ele><time>2026-04-27T13:13:44.687Z</time></trkpt><trkpt lat="38.6328733" lon="16.3157467"><ele>851.0</ele><time>2026-04-27T13:13:46.645Z</time></trkpt><trkpt lat="38.632905" lon="16.3156483"><ele>851.0</ele><time>2026-04-27T13:13:47.639Z</time></trkpt><trkpt lat="38.6329233" lon="16.3155417"><ele>851.0</ele><time>2026-04-27T13:13:48.645Z</time></trkpt><trkpt lat="38.6329217" lon="16.3154267"><ele>855.1999999999999</ele><time>2026-04-27T13:13:49.647Z</time></trkpt><trkpt lat="38.6329167" lon="16.3153117"><ele>859.4</ele><time>2026-04-27T13:13:50.681Z</time></trkpt><trkpt lat="38.6329283" lon="16.3151833"><ele>863.6</ele><time>2026-04-27T13:13:51.64Z</time></trkpt><trkpt lat="38.632935" lon="16.3150583"><ele>867.8</ele><time>2026-04-27T13:13:52.647Z</time></trkpt><trkpt lat="38.63294" lon="16.3149433"><ele>872.0</ele><time>2026-04-27T13:13:53.64Z</time></trkpt><trkpt lat="38.6329133" lon="16.3148133"><ele>873.5</ele><time>2026-04-27T13:13:54.642Z</time></trkpt><trkpt lat="38.63288" lon="16.3146867"><ele>875.0</ele><time>2026-04-27T13:13:55.643Z</time></trkpt><trkpt lat="38.632825" lon="16.3145617"><ele>876.5</ele><time>2026-04-27T13:13:56.704Z</time></trkpt><trkpt lat="38.6327517" lon="16.3144383"><ele>878.0</ele><time>2026-04-27T13:13:57.639Z</time></trkpt><trkpt lat="38.6326717" lon="16.3143183"><ele>878.0</ele><time>2026-04-27T13:13:58.646Z</time></trkpt><trkpt lat="38.632575" lon="16.3142067"><ele>878.0</ele><time>2026-04-27T13:13:59.646Z</time></trkpt><trkpt lat="38.632475" lon="16.3141117"><ele>878.0</ele><time>2026-04-27T13:14:00.65Z</time></trkpt><trkpt lat="38.6323767" lon="16.3140283"><ele>878.0</ele><time>2026-04-27T13:14:01.642Z</time></trkpt><trkpt lat="38.632285" lon="16.3139533"><ele>876.2</ele><time>2026-04-27T13:14:02.695Z</time></trkpt><trkpt lat="38.63219" lon="16.3139"><ele>874.4</ele><time>2026-04-27T13:14:03.64Z</time></trkpt><trkpt lat="38.6321" lon="16.3138817"><ele>872.6000000000001</ele><time>2026-04-27T13:14:04.65Z</time></trkpt><trkpt lat="38.6320117" lon="16.313885"><ele>870.8000000000001</ele><time>2026-04-27T13:14:05.647Z</time></trkpt><trkpt lat="38.63192" lon="16.3139"><ele>869.0</ele><time>2026-04-27T13:14:06.651Z</time></trkpt><trkpt lat="38.631825" lon="16.3139433"><ele>869.0000000000001</ele><time>2026-04-27T13:14:07.641Z</time></trkpt><trkpt lat="38.6317367" lon="16.3139817"><ele>869.0</ele><time>2026-04-27T13:14:08.686Z</time></trkpt><trkpt lat="38.6316483" lon="16.3139933"><ele>869.0</ele><time>2026-04-27T13:14:09.641Z</time></trkpt><trkpt lat="38.63158" lon="16.3139967"><ele>869.0</ele><time>2026-04-27T13:14:10.646Z</time></trkpt><trkpt lat="38.6315233" lon="16.3138967"><ele>869.0000000000001</ele><time>2026-04-27T13:14:12.639Z</time></trkpt><trkpt lat="38.63151" lon="16.3138067"><ele>869.0</ele><time>2026-04-27T13:14:13.643Z</time></trkpt><trkpt lat="38.6314867" lon="16.31371"><ele>871.0</ele><time>2026-04-27T13:14:14.679Z</time></trkpt><trkpt lat="38.63143" lon="16.3136217"><ele>873.0000000000001</ele><time>2026-04-27T13:14:15.643Z</time></trkpt><trkpt lat="38.631375" lon="16.3135233"><ele>875.0000000000001</ele><time>2026-04-27T13:14:16.637Z</time></trkpt><trkpt lat="38.6313" lon="16.313425"><ele>877.0</ele><time>2026-04-27T13:14:17.639Z</time></trkpt><trkpt lat="38.6312017" lon="16.3133167"><ele>879.0</ele><time>2026-04-27T13:14:18.647Z</time></trkpt><trkpt lat="38.6311017" lon="16.3132233"><ele>879.0</ele><time>2026-04-27T13:14:19.644Z</time></trkpt><trkpt lat="38.6309833" lon="16.3131717"><ele>879.0</ele><time>2026-04-27T13:14:20.673Z</time></trkpt><trkpt lat="38.63087" lon="16.3131167"><ele>879.0</ele><time>2026-04-27T13:14:21.643Z</time></trkpt><trkpt lat="38.6307733" lon="16.3130567"><ele>879.0</ele><time>2026-04-27T13:14:22.638Z</time></trkpt><trkpt lat="38.6306717" lon="16.3130117"><ele>876.8000000000001</ele><time>2026-04-27T13:14:23.654Z</time></trkpt><trkpt lat="38.6305733" lon="16.3129683"><ele>874.6000000000001</ele><time>2026-04-27T13:14:24.644Z</time></trkpt><trkpt lat="38.630475" lon="16.3129383"><ele>872.4</ele><time>2026-04-27T13:14:25.643Z</time></trkpt><trkpt lat="38.63041" lon="16.3129167"><ele>870.2</ele><time>2026-04-27T13:14:26.706Z</time></trkpt><trkpt lat="38.6303083" lon="16.31287"><ele>868.0</ele><time>2026-04-27T13:14:28.643Z</time></trkpt><trkpt lat="38.630285" lon="16.3127217"><ele>868.0</ele><time>2026-04-27T13:14:30.651Z</time></trkpt><trkpt lat="38.6302983" lon="16.312605"><ele>868.0</ele><time>2026-04-27T13:14:31.641Z</time></trkpt><trkpt lat="38.6303367" lon="16.3124617"><ele>868.0</ele><time>2026-04-27T13:14:32.679Z</time></trkpt><trkpt lat="38.6303783" lon="16.3123033"><ele>868.0</ele><time>2026-04-27T13:14:33.638Z</time></trkpt><trkpt lat="38.6304267" lon="16.31214"><ele>872.5</ele><time>2026-04-27T13:14:34.644Z</time></trkpt><trkpt lat="38.63048" lon="16.3119783"><ele>877.0</ele><time>2026-04-27T13:14:35.641Z</time></trkpt><trkpt lat="38.6305233" lon="16.3118367"><ele>881.5</ele><time>2026-04-27T13:14:36.64Z</time></trkpt><trkpt lat="38.63054" lon="16.3117"><ele>886.0</ele><time>2026-04-27T13:14:37.638Z</time></trkpt><trkpt lat="38.6305567" lon="16.311585"><ele>885.9999999999999</ele><time>2026-04-27T13:14:38.682Z</time></trkpt><trkpt lat="38.6305667" lon="16.3114917"><ele>886.0</ele><time>2026-04-27T13:14:39.636Z</time></trkpt><trkpt lat="38.6305833" lon="16.3114017"><ele>886.0</ele><time>2026-04-27T13:14:41.643Z</time></trkpt><trkpt lat="38.63066" lon="16.3114183"><ele>886.0</ele><time>2026-04-27T13:14:47.644Z</time></trkpt><trkpt lat="38.6307333" lon="16.3113667"><ele>885.9999999999999</ele><time>2026-04-27T13:14:50.674Z</time></trkpt><trkpt lat="38.6307533" lon="16.3112867"><ele>886.0</ele><time>2026-04-27T13:14:52.638Z</time></trkpt><trkpt lat="38.6307417" lon="16.3111633"><ele>884.4</ele><time>2026-04-27T13:14:54.639Z</time></trkpt><trkpt lat="38.6307067" lon="16.31107"><ele>882.8</ele><time>2026-04-27T13:14:55.642Z</time></trkpt><trkpt lat="38.6306483" lon="16.31097"><ele>881.1999999999999</ele><time>2026-04-27T13:14:56.704Z</time></trkpt><trkpt lat="38.6305867" lon="16.3108817"><ele>879.5999999999999</ele><time>2026-04-27T13:14:57.641Z</time></trkpt><trkpt lat="38.630525" lon="16.3107917"><ele>878.0</ele><time>2026-04-27T13:14:58.642Z</time></trkpt><trkpt lat="38.6304667" lon="16.31071"><ele>878.0000000000001</ele><time>2026-04-27T13:14:59.64Z</time></trkpt><trkpt lat="38.630415" lon="16.3106383"><ele>878.0</ele><time>2026-04-27T13:15:00.644Z</time></trkpt><trkpt lat="38.6303667" lon="16.3105767"><ele>878.0</ele><time>2026-04-27T13:15:01.642Z</time></trkpt><trkpt lat="38.6303117" lon="16.31052"><ele>878.0</ele><time>2026-04-27T13:15:02.678Z</time></trkpt><trkpt lat="38.6302517" lon="16.3104583"><ele>878.0000000000001</ele><time>2026-04-27T13:15:03.641Z</time></trkpt><trkpt lat="38.6301633" lon="16.3103517"><ele>878.0</ele><time>2026-04-27T13:15:05.643Z</time></trkpt><trkpt lat="38.630105" lon="16.3102917"><ele>876.1666666666667</ele><time>2026-04-27T13:15:06.64Z</time></trkpt><trkpt lat="38.63005" lon="16.31022"><ele>874.3333333333334</ele><time>2026-04-27T13:15:07.645Z</time></trkpt><trkpt lat="38.6299983" lon="16.3101617"><ele>872.5</ele><time>2026-04-27T13:15:08.676Z</time></trkpt><trkpt lat="38.6299317" lon="16.3100883"><ele>870.6666666666667</ele><time>2026-04-27T13:15:09.639Z</time></trkpt><trkpt lat="38.6298733" lon="16.3100183"><ele>868.8333333333334</ele><time>2026-04-27T13:15:11.642Z</time></trkpt><trkpt lat="38.629825" lon="16.309955"><ele>867.0</ele><time>2026-04-27T13:15:14.685Z</time></trkpt><trkpt lat="38.629775" lon="16.31004"><ele>867.0</ele><time>2026-04-27T13:15:18.652Z</time></trkpt><trkpt lat="38.6297167" lon="16.3101367"><ele>867.0</ele><time>2026-04-27T13:15:19.646Z</time></trkpt><trkpt lat="38.629655" lon="16.3102217"><ele>867.0</ele><time>2026-04-27T13:15:20.678Z</time></trkpt><trkpt lat="38.6296" lon="16.3102817"><ele>867.0</ele><time>2026-04-27T13:15:21.638Z</time></trkpt><trkpt lat="38.6295317" lon="16.3103383"><ele>867.0</ele><time>2026-04-27T13:15:22.643Z</time></trkpt><trkpt lat="38.6294583" lon="16.3103917"><ele>867.0</ele><time>2026-04-27T13:15:23.65Z</time></trkpt><trkpt lat="38.62937" lon="16.310435"><ele>866.8</ele><time>2026-04-27T13:15:24.646Z</time></trkpt><trkpt lat="38.6292867" lon="16.3104467"><ele>866.6</ele><time>2026-04-27T13:15:25.639Z</time></trkpt><trkpt lat="38.6291883" lon="16.3104517"><ele>866.3999999999999</ele><time>2026-04-27T13:15:26.707Z</time></trkpt><trkpt lat="38.6290983" lon="16.3104567"><ele>866.1999999999999</ele><time>2026-04-27T13:15:27.645Z</time></trkpt><trkpt lat="38.629" lon="16.310455"><ele>866.0</ele><time>2026-04-27T13:15:28.639Z</time></trkpt><trkpt lat="38.6289117" lon="16.3104483"><ele>866.0000000000001</ele><time>2026-04-27T13:15:29.645Z</time></trkpt><trkpt lat="38.6288267" lon="16.31044"><ele>866.0</ele><time>2026-04-27T13:15:30.642Z</time></trkpt><trkpt lat="38.6287483" lon="16.31043"><ele>866.0</ele><time>2026-04-27T13:15:31.641Z</time></trkpt><trkpt lat="38.6286683" lon="16.3104233"><ele>866.0</ele><time>2026-04-27T13:15:32.688Z</time></trkpt><trkpt lat="38.6285917" lon="16.3104267"><ele>866.0000000000001</ele><time>2026-04-27T13:15:33.64Z</time></trkpt><trkpt lat="38.62853" lon="16.3104433"><ele>866.0</ele><time>2026-04-27T13:15:34.647Z</time></trkpt><trkpt lat="38.628465" lon="16.3104567"><ele>866.0000000000001</ele><time>2026-04-27T13:15:35.637Z</time></trkpt><trkpt lat="38.6283817" lon="16.3105367"><ele>866.0</ele><time>2026-04-27T13:16:20.676Z</time></trkpt><trkpt lat="38.6282883" lon="16.3105717"><ele>866.0</ele><time>2026-04-27T13:17:08.682Z</time></trkpt><trkpt lat="38.6282333" lon="16.3106167"><ele>866.0</ele><time>2026-04-27T13:17:09.637Z</time></trkpt><trkpt lat="38.628175" lon="16.3106767"><ele>866.0000000000001</ele><time>2026-04-27T13:17:10.637Z</time></trkpt><trkpt lat="38.628105" lon="16.3107417"><ele>866.0</ele><time>2026-04-27T13:17:11.639Z</time></trkpt><trkpt lat="38.6280333" lon="16.3108167"><ele>867.1666666666667</ele><time>2026-04-27T13:17:12.641Z</time></trkpt><trkpt lat="38.6279683" lon="16.31089"><ele>868.3333333333334</ele><time>2026-04-27T13:17:13.642Z</time></trkpt><trkpt lat="38.627905" lon="16.3109533"><ele>869.5</ele><time>2026-04-27T13:17:14.674Z</time></trkpt><trkpt lat="38.6278483" lon="16.3110117"><ele>870.6666666666667</ele><time>2026-04-27T13:17:15.636Z</time></trkpt><trkpt lat="38.6278" lon="16.3110733"><ele>871.8333333333334</ele><time>2026-04-27T13:17:16.645Z</time></trkpt><trkpt lat="38.6277567" lon="16.31115"><ele>873.0</ele><time>2026-04-27T13:17:17.64Z</time></trkpt><trkpt lat="38.6277217" lon="16.3112333"><ele>873.0</ele><time>2026-04-27T13:17:18.64Z</time></trkpt><trkpt lat="38.627695" lon="16.3113133"><ele>873.0</ele><time>2026-04-27T13:17:19.643Z</time></trkpt><trkpt lat="38.6276733" lon="16.31139"><ele>873.0</ele><time>2026-04-27T13:17:20.677Z</time></trkpt><trkpt lat="38.6276333" lon="16.3115167"><ele>873.0</ele><time>2026-04-27T13:17:22.645Z</time></trkpt><trkpt lat="38.627615" lon="16.3116517"><ele>873.0</ele><time>2026-04-27T13:17:24.638Z</time></trkpt><trkpt lat="38.627605" lon="16.3117317"><ele>873.0</ele><time>2026-04-27T13:17:25.648Z</time></trkpt><trkpt lat="38.6275933" lon="16.3118183"><ele>871.0</ele><time>2026-04-27T13:17:26.703Z</time></trkpt><trkpt lat="38.6275667" lon="16.3119"><ele>869.0</ele><time>2026-04-27T13:17:27.639Z</time></trkpt><trkpt lat="38.6274917" lon="16.31201"><ele>867.0</ele><time>2026-04-27T13:17:29.646Z</time></trkpt><trkpt lat="38.627405" lon="16.3120683"><ele>865.0</ele><time>2026-04-27T13:17:31.638Z</time></trkpt><trkpt lat="38.6273267" lon="16.3120717"><ele>863.0</ele><time>2026-04-27T13:17:37.638Z</time></trkpt><trkpt lat="38.6272367" lon="16.312005"><ele>863.0</ele><time>2026-04-27T13:17:39.644Z</time></trkpt><trkpt lat="38.6271367" lon="16.3119283"><ele>863.0</ele><time>2026-04-27T13:17:40.641Z</time></trkpt><trkpt lat="38.627045" lon="16.311865"><ele>863.0</ele><time>2026-04-27T13:17:41.645Z</time></trkpt><trkpt lat="38.626955" lon="16.3118533"><ele>863.0</ele><time>2026-04-27T13:17:42.639Z</time></trkpt><trkpt lat="38.626855" lon="16.3118533"><ele>863.0</ele><time>2026-04-27T13:17:43.638Z</time></trkpt><trkpt lat="38.6267617" lon="16.311865"><ele>862.0000000000001</ele><time>2026-04-27T13:17:44.685Z</time></trkpt><trkpt lat="38.626685" lon="16.3119017"><ele>861.0</ele><time>2026-04-27T13:17:45.639Z</time></trkpt><trkpt lat="38.6266083" lon="16.311955"><ele>860.0</ele><time>2026-04-27T13:17:46.643Z</time></trkpt><trkpt lat="38.6265367" lon="16.3120217"><ele>859.0</ele><time>2026-04-27T13:17:47.64Z</time></trkpt><trkpt lat="38.6264817" lon="16.31209"><ele>858.0000000000001</ele><time>2026-04-27T13:17:48.647Z</time></trkpt><trkpt lat="38.6264267" lon="16.3122117"><ele>857.0</ele><time>2026-04-27T13:17:50.675Z</time></trkpt><trkpt lat="38.6263983" lon="16.3123533"><ele>857.0</ele><time>2026-04-27T13:17:52.65Z</time></trkpt><trkpt lat="38.62638" lon="16.3124783"><ele>857.0</ele><time>2026-04-27T13:17:54.646Z</time></trkpt><trkpt lat="38.6263717" lon="16.312625"><ele>857.0</ele><time>2026-04-27T13:17:56.689Z</time></trkpt><trkpt lat="38.6263667" lon="16.3127517"><ele>857.0</ele><time>2026-04-27T13:17:58.643Z</time></trkpt><trkpt lat="38.62635" lon="16.31284"><ele>857.0</ele><time>2026-04-27T13:18:00.646Z</time></trkpt><trkpt lat="38.6262967" lon="16.3129017"><ele>857.0</ele><time>2026-04-27T13:18:02.693Z</time></trkpt><trkpt lat="38.6262117" lon="16.3129517"><ele>857.0</ele><time>2026-04-27T13:18:04.642Z</time></trkpt><trkpt lat="38.6261067" lon="16.3130183"><ele>857.0</ele><time>2026-04-27T13:18:06.644Z</time></trkpt><trkpt lat="38.62601" lon="16.31309"><ele>857.0</ele><time>2026-04-27T13:18:08.678Z</time></trkpt><trkpt lat="38.62592" lon="16.313165"><ele>857.0</ele><time>2026-04-27T13:18:10.64Z</time></trkpt><trkpt lat="38.6258633" lon="16.313205"><ele>854.0</ele><time>2026-04-27T13:18:11.641Z</time></trkpt><trkpt lat="38.625805" lon="16.3132417"><ele>851.0</ele><time>2026-04-27T13:18:12.638Z</time></trkpt><trkpt lat="38.6257217" lon="16.3132967"><ele>848.0</ele><time>2026-04-27T13:18:14.679Z</time></trkpt><trkpt lat="38.6256233" lon="16.31333"><ele>845.0</ele><time>2026-04-27T13:18:16.641Z</time></trkpt><trkpt lat="38.6255067" lon="16.313315"><ele>842.0</ele><time>2026-04-27T13:18:18.65Z</time></trkpt><trkpt lat="38.6253933" lon="16.31326"><ele>839.2</ele><time>2026-04-27T13:18:20.675Z</time></trkpt><trkpt lat="38.6252833" lon="16.313185"><ele>836.4000000000001</ele><time>2026-04-27T13:18:22.649Z</time></trkpt><trkpt lat="38.6252267" lon="16.3131467"><ele>833.5999999999999</ele><time>2026-04-27T13:18:23.64Z</time></trkpt><trkpt lat="38.6251233" lon="16.313095"><ele>830.8</ele><time>2026-04-27T13:18:25.638Z</time></trkpt><trkpt lat="38.62501" lon="16.3130333"><ele>828.0</ele><time>2026-04-27T13:18:27.638Z</time></trkpt><trkpt lat="38.624945" lon="16.313005"><ele>828.0</ele><time>2026-04-27T13:18:28.639Z</time></trkpt><trkpt lat="38.6248733" lon="16.3129833"><ele>828.0</ele><time>2026-04-27T13:18:29.64Z</time></trkpt><trkpt lat="38.6248033" lon="16.31297"><ele>828.0</ele><time>2026-04-27T13:18:30.643Z</time></trkpt><trkpt lat="38.62474" lon="16.3129617"><ele>828.0</ele><time>2026-04-27T13:18:31.642Z</time></trkpt><trkpt lat="38.6246333" lon="16.3129517"><ele>828.0</ele><time>2026-04-27T13:18:33.637Z</time></trkpt><trkpt lat="38.6245233" lon="16.312945"><ele>828.0</ele><time>2026-04-27T13:18:35.637Z</time></trkpt><trkpt lat="38.6244083" lon="16.3129083"><ele>826.4285714285714</ele><time>2026-04-27T13:18:37.64Z</time></trkpt><trkpt lat="38.624345" lon="16.3128783"><ele>824.8571428571429</ele><time>2026-04-27T13:18:38.68Z</time></trkpt><trkpt lat="38.62428" lon="16.3128483"><ele>823.2857142857142</ele><time>2026-04-27T13:18:39.641Z</time></trkpt><trkpt lat="38.6242133" lon="16.3128233"><ele>821.7142857142858</ele><time>2026-04-27T13:18:40.637Z</time></trkpt><trkpt lat="38.6241433" lon="16.3128183"><ele>820.1428571428571</ele><time>2026-04-27T13:18:41.638Z</time></trkpt><trkpt lat="38.62408" lon="16.3128567"><ele>818.5714285714286</ele><time>2026-04-27T13:18:42.639Z</time></trkpt><trkpt lat="38.6240167" lon="16.3129067"><ele>817.0</ele><time>2026-04-27T13:18:43.638Z</time></trkpt><trkpt lat="38.6239617" lon="16.3129833"><ele>816.9999999999999</ele><time>2026-04-27T13:18:44.677Z</time></trkpt><trkpt lat="38.62391" lon="16.313065"><ele>817.0</ele><time>2026-04-27T13:18:45.643Z</time></trkpt><trkpt lat="38.6238583" lon="16.313145"><ele>817.0</ele><time>2026-04-27T13:18:46.641Z</time></trkpt><trkpt lat="38.6238067" lon="16.31323"><ele>817.0</ele><time>2026-04-27T13:18:47.634Z</time></trkpt><trkpt lat="38.623755" lon="16.3133067"><ele>816.9999999999999</ele><time>2026-04-27T13:18:48.645Z</time></trkpt><trkpt lat="38.6237067" lon="16.3133833"><ele>817.0</ele><time>2026-04-27T13:18:49.64Z</time></trkpt><trkpt lat="38.6236567" lon="16.3134567"><ele>815.6666666666666</ele><time>2026-04-27T13:18:50.674Z</time></trkpt><trkpt lat="38.6236083" lon="16.313525"><ele>814.3333333333333</ele><time>2026-04-27T13:18:51.639Z</time></trkpt><trkpt lat="38.623555" lon="16.3135867"><ele>813.0</ele><time>2026-04-27T13:18:52.64Z</time></trkpt><trkpt lat="38.6235017" lon="16.31365"><ele>811.6666666666667</ele><time>2026-04-27T13:18:53.638Z</time></trkpt><trkpt lat="38.6234417" lon="16.3137183"><ele>810.3333333333334</ele><time>2026-04-27T13:18:54.644Z</time></trkpt><trkpt lat="38.623375" lon="16.313805"><ele>809.0</ele><time>2026-04-27T13:18:55.643Z</time></trkpt><trkpt lat="38.6233033" lon="16.3139183"><ele>809.0</ele><time>2026-04-27T13:18:56.69Z</time></trkpt><trkpt lat="38.623235" lon="16.3140367"><ele>809.0</ele><time>2026-04-27T13:18:57.634Z</time></trkpt><trkpt lat="38.623175" lon="16.3141533"><ele>809.0</ele><time>2026-04-27T13:18:58.643Z</time></trkpt><trkpt lat="38.6231217" lon="16.3142633"><ele>809.0</ele><time>2026-04-27T13:18:59.641Z</time></trkpt><trkpt lat="38.623075" lon="16.314365"><ele>809.0</ele><time>2026-04-27T13:19:00.643Z</time></trkpt><trkpt lat="38.6230333" lon="16.3144483"><ele>809.0000000000001</ele><time>2026-04-27T13:19:01.638Z</time></trkpt><trkpt lat="38.622985" lon="16.3145217"><ele>809.0</ele><time>2026-04-27T13:19:02.692Z</time></trkpt><trkpt lat="38.6229267" lon="16.31457"><ele>809.0</ele><time>2026-04-27T13:19:03.638Z</time></trkpt><trkpt lat="38.622865" lon="16.3146217"><ele>809.0</ele><time>2026-04-27T13:19:04.644Z</time></trkpt><trkpt lat="38.6228083" lon="16.3146817"><ele>809.0000000000001</ele><time>2026-04-27T13:19:05.64Z</time></trkpt><trkpt lat="38.62275" lon="16.3147517"><ele>809.0</ele><time>2026-04-27T13:19:06.637Z</time></trkpt><trkpt lat="38.6226983" lon="16.3148267"><ele>808.0</ele><time>2026-04-27T13:19:07.645Z</time></trkpt><trkpt lat="38.6226533" lon="16.314905"><ele>807.0</ele><time>2026-04-27T13:19:08.674Z</time></trkpt><trkpt lat="38.62261" lon="16.314985"><ele>806.0</ele><time>2026-04-27T13:19:09.64Z</time></trkpt><trkpt lat="38.6225783" lon="16.3150633"><ele>805.0</ele><time>2026-04-27T13:19:10.643Z</time></trkpt><trkpt lat="38.6225517" lon="16.3151383"><ele>804.0</ele><time>2026-04-27T13:19:11.642Z</time></trkpt><trkpt lat="38.6225117" lon="16.31521"><ele>803.0</ele><time>2026-04-27T13:19:13.645Z</time></trkpt><trkpt lat="38.6224683" lon="16.3151467"><ele>802.0</ele><time>2026-04-27T13:19:16.643Z</time></trkpt><trkpt lat="38.62243" lon="16.315005"><ele>802.0</ele><time>2026-04-27T13:19:18.65Z</time></trkpt><trkpt lat="38.622395" lon="16.3149"><ele>802.0</ele><time>2026-04-27T13:19:19.644Z</time></trkpt><trkpt lat="38.62234" lon="16.31479"><ele>802.0</ele><time>2026-04-27T13:19:20.682Z</time></trkpt><trkpt lat="38.6222783" lon="16.314695"><ele>802.0</ele><time>2026-04-27T13:19:21.639Z</time></trkpt><trkpt lat="38.6222133" lon="16.3146217"><ele>802.0</ele><time>2026-04-27T13:19:22.646Z</time></trkpt><trkpt lat="38.6221367" lon="16.3145583"><ele>802.4000000000001</ele><time>2026-04-27T13:19:23.644Z</time></trkpt><trkpt lat="38.6220467" lon="16.3145133"><ele>802.8000000000001</ele><time>2026-04-27T13:19:24.648Z</time></trkpt><trkpt lat="38.6219367" lon="16.3144867"><ele>803.2</ele><time>2026-04-27T13:19:25.644Z</time></trkpt><trkpt lat="38.6218283" lon="16.3144633"><ele>803.6</ele><time>2026-04-27T13:19:26.69Z</time></trkpt><trkpt lat="38.6217167" lon="16.3144617"><ele>804.0</ele><time>2026-04-27T13:19:27.641Z</time></trkpt><trkpt lat="38.6216083" lon="16.3144583"><ele>802.2</ele><time>2026-04-27T13:19:28.645Z</time></trkpt><trkpt lat="38.6215017" lon="16.3144417"><ele>800.4000000000001</ele><time>2026-04-27T13:19:29.64Z</time></trkpt><trkpt lat="38.6213967" lon="16.3144167"><ele>798.6</ele><time>2026-04-27T13:19:30.642Z</time></trkpt><trkpt lat="38.6212967" lon="16.3143933"><ele>796.8</ele><time>2026-04-27T13:19:31.641Z</time></trkpt><trkpt lat="38.6212033" lon="16.3143833"><ele>795.0</ele><time>2026-04-27T13:19:32.693Z</time></trkpt><trkpt lat="38.62112" lon="16.3143883"><ele>794.0</ele><time>2026-04-27T13:19:33.646Z</time></trkpt><trkpt lat="38.6210483" lon="16.314415"><ele>793.0</ele><time>2026-04-27T13:19:34.639Z</time></trkpt><trkpt lat="38.6209667" lon="16.31444"><ele>792.0</ele><time>2026-04-27T13:19:35.641Z</time></trkpt><trkpt lat="38.6208817" lon="16.3144667"><ele>791.0</ele><time>2026-04-27T13:19:36.644Z</time></trkpt><trkpt lat="38.620795" lon="16.3145033"><ele>790.0</ele><time>2026-04-27T13:19:37.643Z</time></trkpt><trkpt lat="38.62071" lon="16.3145483"><ele>789.0</ele><time>2026-04-27T13:19:38.679Z</time></trkpt><trkpt lat="38.620625" lon="16.3146033"><ele>789.0</ele><time>2026-04-27T13:19:39.638Z</time></trkpt><trkpt lat="38.6205467" lon="16.31468"><ele>789.0</ele><time>2026-04-27T13:19:40.643Z</time></trkpt><trkpt lat="38.6204817" lon="16.3148067"><ele>789.0</ele><time>2026-04-27T13:19:41.64Z</time></trkpt><trkpt lat="38.62042" lon="16.3149367"><ele>789.0</ele><time>2026-04-27T13:19:42.646Z</time></trkpt><trkpt lat="38.6203417" lon="16.31505"><ele>790.25</ele><time>2026-04-27T13:19:43.638Z</time></trkpt><trkpt lat="38.62025" lon="16.3151433"><ele>791.5</ele><time>2026-04-27T13:19:44.687Z</time></trkpt><trkpt lat="38.6201417" lon="16.3152267"><ele>792.75</ele><time>2026-04-27T13:19:45.64Z</time></trkpt><trkpt lat="38.6200267" lon="16.3153"><ele>794.0</ele><time>2026-04-27T13:19:46.641Z</time></trkpt><trkpt lat="38.6199067" lon="16.315355"><ele>794.0</ele><time>2026-04-27T13:19:47.639Z</time></trkpt><trkpt lat="38.6197717" lon="16.3153967"><ele>794.0</ele><time>2026-04-27T13:19:48.641Z</time></trkpt><trkpt lat="38.6196333" lon="16.31543"><ele>794.0</ele><time>2026-04-27T13:19:49.642Z</time></trkpt><trkpt lat="38.619505" lon="16.3154617"><ele>794.0</ele><time>2026-04-27T13:19:50.677Z</time></trkpt><trkpt lat="38.6193883" lon="16.315485"><ele>795.0000000000001</ele><time>2026-04-27T13:19:51.642Z</time></trkpt><trkpt lat="38.6193117" lon="16.31547"><ele>796.0</ele><time>2026-04-27T13:19:52.645Z</time></trkpt><trkpt lat="38.6192317" lon="16.31543"><ele>797.0</ele><time>2026-04-27T13:19:53.645Z</time></trkpt><trkpt lat="38.6191517" lon="16.3153833"><ele>798.0</ele><time>2026-04-27T13:19:54.642Z</time></trkpt><trkpt lat="38.6190733" lon="16.3153383"><ele>799.0000000000001</ele><time>2026-04-27T13:19:55.637Z</time></trkpt><trkpt lat="38.6189883" lon="16.3153067"><ele>800.0</ele><time>2026-04-27T13:19:56.699Z</time></trkpt><trkpt lat="38.6189" lon="16.31529"><ele>800.0000000000001</ele><time>2026-04-27T13:19:57.637Z</time></trkpt><trkpt lat="38.6188133" lon="16.3152867"><ele>800.0</ele><time>2026-04-27T13:19:58.638Z</time></trkpt><trkpt lat="38.6187283" lon="16.3152783"><ele>800.0</ele><time>2026-04-27T13:19:59.636Z</time></trkpt><trkpt lat="38.618655" lon="16.31525"><ele>800.0</ele><time>2026-04-27T13:20:00.642Z</time></trkpt><trkpt lat="38.6185817" lon="16.3152067"><ele>800.0000000000001</ele><time>2026-04-27T13:20:01.641Z</time></trkpt><trkpt lat="38.6185067" lon="16.31517"><ele>800.0</ele><time>2026-04-27T13:20:02.683Z</time></trkpt><trkpt lat="38.61842" lon="16.3151433"><ele>803.0</ele><time>2026-04-27T13:20:03.634Z</time></trkpt><trkpt lat="38.6183217" lon="16.3151383"><ele>806.0</ele><time>2026-04-27T13:20:04.639Z</time></trkpt><trkpt lat="38.6182117" lon="16.3151567"><ele>809.0</ele><time>2026-04-27T13:20:05.64Z</time></trkpt><trkpt lat="38.618105" lon="16.315175"><ele>812.0</ele><time>2026-04-27T13:20:06.638Z</time></trkpt><trkpt lat="38.6180067" lon="16.31521"><ele>815.0</ele><time>2026-04-27T13:20:07.637Z</time></trkpt><trkpt lat="38.6179217" lon="16.3152533"><ele>815.0</ele><time>2026-04-27T13:20:08.674Z</time></trkpt><trkpt lat="38.6178483" lon="16.3153183"><ele>815.0</ele><time>2026-04-27T13:20:09.635Z</time></trkpt><trkpt lat="38.6177733" lon="16.3154"><ele>815.0</ele><time>2026-04-27T13:20:10.639Z</time></trkpt><trkpt lat="38.6176933" lon="16.315505"><ele>815.0</ele><time>2026-04-27T13:20:11.644Z</time></trkpt><trkpt lat="38.617605" lon="16.3155983"><ele>815.0</ele><time>2026-04-27T13:20:12.637Z</time></trkpt><trkpt lat="38.617515" lon="16.3156817"><ele>818.6</ele><time>2026-04-27T13:20:13.64Z</time></trkpt><trkpt lat="38.61742" lon="16.3157533"><ele>822.2</ele><time>2026-04-27T13:20:14.678Z</time></trkpt><trkpt lat="38.6173183" lon="16.3158117"><ele>825.8</ele><time>2026-04-27T13:20:15.639Z</time></trkpt><trkpt lat="38.6172167" lon="16.31585"><ele>829.4</ele><time>2026-04-27T13:20:16.649Z</time></trkpt><trkpt lat="38.6171233" lon="16.3158717"><ele>833.0</ele><time>2026-04-27T13:20:17.638Z</time></trkpt><trkpt lat="38.6170283" lon="16.3158733"><ele>834.1666666666667</ele><time>2026-04-27T13:20:18.637Z</time></trkpt><trkpt lat="38.6169433" lon="16.31586"><ele>835.3333333333334</ele><time>2026-04-27T13:20:19.633Z</time></trkpt><trkpt lat="38.6168617" lon="16.315795"><ele>836.5</ele><time>2026-04-27T13:20:20.678Z</time></trkpt><trkpt lat="38.61679" lon="16.31574"><ele>837.6666666666667</ele><time>2026-04-27T13:20:21.637Z</time></trkpt><trkpt lat="38.6167117" lon="16.315685"><ele>838.8333333333334</ele><time>2026-04-27T13:20:22.636Z</time></trkpt><trkpt lat="38.61664" lon="16.315625"><ele>840.0</ele><time>2026-04-27T13:20:23.658Z</time></trkpt><trkpt lat="38.6165933" lon="16.3155517"><ele>840.0</ele><time>2026-04-27T13:20:24.642Z</time></trkpt><trkpt lat="38.616555" lon="16.3153983"><ele>840.0</ele><time>2026-04-27T13:20:26.687Z</time></trkpt><trkpt lat="38.6165617" lon="16.3152933"><ele>840.0</ele><time>2026-04-27T13:20:27.636Z</time></trkpt><trkpt lat="38.616585" lon="16.3151733"><ele>840.0</ele><time>2026-04-27T13:20:28.636Z</time></trkpt><trkpt lat="38.6165967" lon="16.315065"><ele>840.0</ele><time>2026-04-27T13:20:29.638Z</time></trkpt><trkpt lat="38.616585" lon="16.31497"><ele>840.0</ele><time>2026-04-27T13:20:30.637Z</time></trkpt><trkpt lat="38.616525" lon="16.31485"><ele>840.0</ele><time>2026-04-27T13:20:32.681Z</time></trkpt><trkpt lat="38.6164583" lon="16.3148017"><ele>840.0</ele><time>2026-04-27T13:20:33.637Z</time></trkpt><trkpt lat="38.6163667" lon="16.3147417"><ele>840.0</ele><time>2026-04-27T13:20:34.638Z</time></trkpt><trkpt lat="38.6162667" lon="16.3146683"><ele>840.0</ele><time>2026-04-27T13:20:35.638Z</time></trkpt><trkpt lat="38.616165" lon="16.3145867"><ele>840.4</ele><time>2026-04-27T13:20:36.643Z</time></trkpt><trkpt lat="38.6160617" lon="16.314505"><ele>840.8</ele><time>2026-04-27T13:20:37.642Z</time></trkpt><trkpt lat="38.615985" lon="16.31445"><ele>841.2</ele><time>2026-04-27T13:20:38.672Z</time></trkpt><trkpt lat="38.6158867" lon="16.3144067"><ele>841.6</ele><time>2026-04-27T13:20:39.636Z</time></trkpt><trkpt lat="38.6157733" lon="16.314375"><ele>842.0</ele><time>2026-04-27T13:20:40.642Z</time></trkpt><trkpt lat="38.6156583" lon="16.3143433"><ele>842.0</ele><time>2026-04-27T13:20:41.638Z</time></trkpt><trkpt lat="38.61554" lon="16.3143183"><ele>842.0</ele><time>2026-04-27T13:20:42.635Z</time></trkpt><trkpt lat="38.6153917" lon="16.3142983"><ele>842.0</ele><time>2026-04-27T13:20:43.642Z</time></trkpt><trkpt lat="38.6152517" lon="16.3142617"><ele>842.0</ele><time>2026-04-27T13:20:44.675Z</time></trkpt><trkpt lat="38.61511" lon="16.3142183"><ele>842.3333333333334</ele><time>2026-04-27T13:20:45.639Z</time></trkpt><trkpt lat="38.6149633" lon="16.3141683"><ele>842.6666666666667</ele><time>2026-04-27T13:20:46.643Z</time></trkpt><trkpt lat="38.614815" lon="16.314115"><ele>843.0</ele><time>2026-04-27T13:20:47.638Z</time></trkpt><trkpt lat="38.6146633" lon="16.3140617"><ele>843.0</ele><time>2026-04-27T13:20:48.638Z</time></trkpt><trkpt lat="38.61452" lon="16.314015"><ele>843.0</ele><time>2026-04-27T13:20:49.64Z</time></trkpt><trkpt lat="38.614385" lon="16.313975"><ele>843.0</ele><time>2026-04-27T13:20:50.671Z</time></trkpt><trkpt lat="38.6142783" lon="16.3139467"><ele>843.0</ele><time>2026-04-27T13:20:51.641Z</time></trkpt><trkpt lat="38.61419" lon="16.3139333"><ele>842.8333333333334</ele><time>2026-04-27T13:20:52.635Z</time></trkpt><trkpt lat="38.6141183" lon="16.3139417"><ele>842.6666666666667</ele><time>2026-04-27T13:20:53.647Z</time></trkpt><trkpt lat="38.6140733" lon="16.314"><ele>842.5</ele><time>2026-04-27T13:20:54.642Z</time></trkpt><trkpt lat="38.6140417" lon="16.31409"><ele>842.3333333333334</ele><time>2026-04-27T13:20:55.639Z</time></trkpt><trkpt lat="38.614015" lon="16.3142217"><ele>842.1666666666667</ele><time>2026-04-27T13:20:56.694Z</time></trkpt><trkpt lat="38.6139933" lon="16.31438"><ele>842.0</ele><time>2026-04-27T13:20:57.642Z</time></trkpt><trkpt lat="38.613965" lon="16.314535"><ele>842.0</ele><time>2026-04-27T13:20:58.644Z</time></trkpt><trkpt lat="38.6139617" lon="16.3146633"><ele>842.0</ele><time>2026-04-27T13:20:59.642Z</time></trkpt><trkpt lat="38.613975" lon="16.3147883"><ele>842.0</ele><time>2026-04-27T13:21:00.646Z</time></trkpt><trkpt lat="38.614" lon="16.3149117"><ele>842.0</ele><time>2026-04-27T13:21:01.639Z</time></trkpt><trkpt lat="38.6140467" lon="16.3150317"><ele>842.0</ele><time>2026-04-27T13:21:02.692Z</time></trkpt><trkpt lat="38.6141083" lon="16.3151517"><ele>841.75</ele><time>2026-04-27T13:21:03.639Z</time></trkpt><trkpt lat="38.6141967" lon="16.3152683"><ele>841.5</ele><time>2026-04-27T13:21:04.645Z</time></trkpt><trkpt lat="38.6143083" lon="16.315375"><ele>841.25</ele><time>2026-04-27T13:21:05.641Z</time></trkpt><trkpt lat="38.6144217" lon="16.31548"><ele>841.0</ele><time>2026-04-27T13:21:06.646Z</time></trkpt><trkpt lat="38.6145233" lon="16.3155917"><ele>844.25</ele><time>2026-04-27T13:21:07.639Z</time></trkpt><trkpt lat="38.6146067" lon="16.3157217"><ele>847.5</ele><time>2026-04-27T13:21:08.677Z</time></trkpt><trkpt lat="38.6146667" lon="16.315875"><ele>850.75</ele><time>2026-04-27T13:21:09.641Z</time></trkpt><trkpt lat="38.6147167" lon="16.3160433"><ele>854.0</ele><time>2026-04-27T13:21:10.642Z</time></trkpt><trkpt lat="38.6147533" lon="16.316215"><ele>854.0</ele><time>2026-04-27T13:21:11.638Z</time></trkpt><trkpt lat="38.6147717" lon="16.3163867"><ele>854.0</ele><time>2026-04-27T13:21:12.645Z</time></trkpt><trkpt lat="38.61477" lon="16.3165617"><ele>854.0</ele><time>2026-04-27T13:21:13.638Z</time></trkpt><trkpt lat="38.61475" lon="16.3167333"><ele>854.0</ele><time>2026-04-27T13:21:14.677Z</time></trkpt><trkpt lat="38.6147267" lon="16.3168917"><ele>853.25</ele><time>2026-04-27T13:21:15.637Z</time></trkpt><trkpt lat="38.614705" lon="16.3170367"><ele>852.5</ele><time>2026-04-27T13:21:16.64Z</time></trkpt><trkpt lat="38.6146817" lon="16.3171733"><ele>851.75</ele><time>2026-04-27T13:21:17.639Z</time></trkpt><trkpt lat="38.61466" lon="16.3173217"><ele>851.0</ele><time>2026-04-27T13:21:18.641Z</time></trkpt><trkpt lat="38.6146367" lon="16.317465"><ele>851.0</ele><time>2026-04-27T13:21:19.638Z</time></trkpt><trkpt lat="38.614625" lon="16.3176033"><ele>851.0</ele><time>2026-04-27T13:21:20.678Z</time></trkpt><trkpt lat="38.61462" lon="16.3177383"><ele>851.0</ele><time>2026-04-27T13:21:21.637Z</time></trkpt><trkpt lat="38.6146267" lon="16.3178817"><ele>851.0</ele><time>2026-04-27T13:21:22.633Z</time></trkpt><trkpt lat="38.6146483" lon="16.3180283"><ele>851.0</ele><time>2026-04-27T13:21:23.64Z</time></trkpt><trkpt lat="38.61468" lon="16.3181783"><ele>849.5</ele><time>2026-04-27T13:21:24.636Z</time></trkpt><trkpt lat="38.614695" lon="16.3183267"><ele>848.0</ele><time>2026-04-27T13:21:25.635Z</time></trkpt><trkpt lat="38.6147083" lon="16.3184767"><ele>846.5</ele><time>2026-04-27T13:21:26.689Z</time></trkpt><trkpt lat="38.6147217" lon="16.3186217"><ele>845.0</ele><time>2026-04-27T13:21:27.639Z</time></trkpt><trkpt lat="38.614745" lon="16.3187633"><ele>845.0</ele><time>2026-04-27T13:21:28.644Z</time></trkpt><trkpt lat="38.6147767" lon="16.3188983"><ele>845.0</ele><time>2026-04-27T13:21:29.637Z</time></trkpt><trkpt lat="38.6148167" lon="16.3190367"><ele>845.0</ele><time>2026-04-27T13:21:30.642Z</time></trkpt><trkpt lat="38.614885" lon="16.3191783"><ele>845.0</ele><time>2026-04-27T13:21:31.635Z</time></trkpt><trkpt lat="38.6149817" lon="16.3193333"><ele>843.3333333333334</ele><time>2026-04-27T13:21:32.686Z</time></trkpt><trkpt lat="38.6151017" lon="16.3195083"><ele>841.6666666666667</ele><time>2026-04-27T13:21:33.638Z</time></trkpt><trkpt lat="38.6152" lon="16.3196717"><ele>840.0</ele><time>2026-04-27T13:21:34.64Z</time></trkpt><trkpt lat="38.615315" lon="16.3198517"><ele>834.0</ele><time>2026-04-27T13:21:35.637Z</time></trkpt><trkpt lat="38.6154267" lon="16.3200333"><ele>828.0</ele><time>2026-04-27T13:21:36.644Z</time></trkpt><trkpt lat="38.6155367" lon="16.3202083"><ele>822.0</ele><time>2026-04-27T13:21:37.636Z</time></trkpt><trkpt lat="38.61564" lon="16.320365"><ele>822.0</ele><time>2026-04-27T13:21:38.668Z</time></trkpt><trkpt lat="38.61573" lon="16.3205017"><ele>822.0</ele><time>2026-04-27T13:21:39.637Z</time></trkpt><trkpt lat="38.615805" lon="16.32063"><ele>822.0</ele><time>2026-04-27T13:21:40.64Z</time></trkpt><trkpt lat="38.6158733" lon="16.320765"><ele>822.0</ele><time>2026-04-27T13:21:41.636Z</time></trkpt><trkpt lat="38.6159333" lon="16.3209"><ele>821.3333333333334</ele><time>2026-04-27T13:21:42.641Z</time></trkpt><trkpt lat="38.6159833" lon="16.3210167"><ele>820.6666666666667</ele><time>2026-04-27T13:21:43.639Z</time></trkpt><trkpt lat="38.616015" lon="16.3210983"><ele>820.0</ele><time>2026-04-27T13:21:44.673Z</time></trkpt><trkpt lat="38.6160383" lon="16.321175"><ele>819.3333333333334</ele><time>2026-04-27T13:21:45.634Z</time></trkpt><trkpt lat="38.61604" lon="16.321305"><ele>818.6666666666667</ele><time>2026-04-27T13:21:47.64Z</time></trkpt><trkpt lat="38.61599" lon="16.3214133"><ele>818.0</ele><time>2026-04-27T13:21:49.642Z</time></trkpt><trkpt lat="38.6158783" lon="16.3214917"><ele>817.5999999999999</ele><time>2026-04-27T13:21:51.637Z</time></trkpt><trkpt lat="38.615805" lon="16.3215183"><ele>817.1999999999999</ele><time>2026-04-27T13:21:52.644Z</time></trkpt><trkpt lat="38.6157117" lon="16.3215667"><ele>816.8</ele><time>2026-04-27T13:21:53.638Z</time></trkpt><trkpt lat="38.61562" lon="16.3216317"><ele>816.4</ele><time>2026-04-27T13:21:54.637Z</time></trkpt><trkpt lat="38.6155383" lon="16.3217183"><ele>816.0</ele><time>2026-04-27T13:21:55.634Z</time></trkpt><trkpt lat="38.615475" lon="16.32182"><ele>816.0</ele><time>2026-04-27T13:21:56.693Z</time></trkpt><trkpt lat="38.6154217" lon="16.32192"><ele>816.0</ele><time>2026-04-27T13:21:57.635Z</time></trkpt><trkpt lat="38.6153567" lon="16.322015"><ele>816.0</ele><time>2026-04-27T13:21:58.633Z</time></trkpt><trkpt lat="38.6152867" lon="16.3221017"><ele>816.0</ele><time>2026-04-27T13:21:59.637Z</time></trkpt><trkpt lat="38.6152083" lon="16.32218"><ele>816.0</ele><time>2026-04-27T13:22:00.64Z</time></trkpt><trkpt lat="38.6151283" lon="16.3222483"><ele>813.8</ele><time>2026-04-27T13:22:01.64Z</time></trkpt><trkpt lat="38.615035" lon="16.3223017"><ele>811.5999999999999</ele><time>2026-04-27T13:22:02.686Z</time></trkpt><trkpt lat="38.6149417" lon="16.3223317"><ele>809.4</ele><time>2026-04-27T13:22:03.638Z</time></trkpt><trkpt lat="38.61483" lon="16.3223033"><ele>807.2</ele><time>2026-04-27T13:22:04.633Z</time></trkpt><trkpt lat="38.614725" lon="16.3222817"><ele>805.0</ele><time>2026-04-27T13:22:05.639Z</time></trkpt><trkpt lat="38.6146133" lon="16.3222483"><ele>806.0</ele><time>2026-04-27T13:22:06.644Z</time></trkpt><trkpt lat="38.614495" lon="16.3222017"><ele>807.0</ele><time>2026-04-27T13:22:07.637Z</time></trkpt><trkpt lat="38.61437" lon="16.322145"><ele>808.0</ele><time>2026-04-27T13:22:08.678Z</time></trkpt><trkpt lat="38.6142517" lon="16.3220883"><ele>809.0</ele><time>2026-04-27T13:22:09.639Z</time></trkpt><trkpt lat="38.6141433" lon="16.3220467"><ele>809.0</ele><time>2026-04-27T13:22:10.64Z</time></trkpt><trkpt lat="38.614035" lon="16.3220433"><ele>809.0</ele><time>2026-04-27T13:22:11.646Z</time></trkpt><trkpt lat="38.6139367" lon="16.3220817"><ele>809.0</ele><time>2026-04-27T13:22:12.641Z</time></trkpt><trkpt lat="38.6138383" lon="16.322145"><ele>809.0</ele><time>2026-04-27T13:22:13.636Z</time></trkpt><trkpt lat="38.6137417" lon="16.3222267"><ele>809.0</ele><time>2026-04-27T13:22:14.673Z</time></trkpt><trkpt lat="38.61363" lon="16.3223283"><ele>806.5</ele><time>2026-04-27T13:22:15.637Z</time></trkpt><trkpt lat="38.613515" lon="16.3224267"><ele>804.0</ele><time>2026-04-27T13:22:16.637Z</time></trkpt><trkpt lat="38.6134033" lon="16.322525"><ele>801.5</ele><time>2026-04-27T13:22:17.636Z</time></trkpt><trkpt lat="38.6132967" lon="16.3226233"><ele>799.0</ele><time>2026-04-27T13:22:18.648Z</time></trkpt><trkpt lat="38.61321" lon="16.3227167"><ele>798.9999999999999</ele><time>2026-04-27T13:22:19.645Z</time></trkpt><trkpt lat="38.6131483" lon="16.3227983"><ele>799.0</ele><time>2026-04-27T13:22:20.674Z</time></trkpt><trkpt lat="38.613095" lon="16.32288"><ele>799.0</ele><time>2026-04-27T13:22:21.636Z</time></trkpt><trkpt lat="38.6130333" lon="16.3229567"><ele>799.0</ele><time>2026-04-27T13:22:22.641Z</time></trkpt><trkpt lat="38.6129683" lon="16.32303"><ele>798.9999999999999</ele><time>2026-04-27T13:22:23.641Z</time></trkpt><trkpt lat="38.6129033" lon="16.32309"><ele>799.0</ele><time>2026-04-27T13:22:24.636Z</time></trkpt><trkpt lat="38.612845" lon="16.32313"><ele>799.4000000000001</ele><time>2026-04-27T13:22:25.643Z</time></trkpt><trkpt lat="38.612745" lon="16.3231517"><ele>799.8</ele><time>2026-04-27T13:22:27.636Z</time></trkpt><trkpt lat="38.6126317" lon="16.3230583"><ele>800.2</ele><time>2026-04-27T13:22:29.642Z</time></trkpt><trkpt lat="38.61255" lon="16.3230017"><ele>800.5999999999999</ele><time>2026-04-27T13:22:30.646Z</time></trkpt><trkpt lat="38.6124533" lon="16.3229517"><ele>801.0</ele><time>2026-04-27T13:22:31.644Z</time></trkpt><trkpt lat="38.61234" lon="16.322915"><ele>801.0</ele><time>2026-04-27T13:22:32.681Z</time></trkpt><trkpt lat="38.6122267" lon="16.32288"><ele>801.0</ele><time>2026-04-27T13:22:33.637Z</time></trkpt><trkpt lat="38.61212" lon="16.3228333"><ele>801.0</ele><time>2026-04-27T13:22:34.642Z</time></trkpt><trkpt lat="38.6120083" lon="16.3227867"><ele>801.0</ele><time>2026-04-27T13:22:35.643Z</time></trkpt><trkpt lat="38.6118917" lon="16.322735"><ele>803.75</ele><time>2026-04-27T13:22:36.64Z</time></trkpt><trkpt lat="38.6117633" lon="16.3226733"><ele>806.5</ele><time>2026-04-27T13:22:37.644Z</time></trkpt><trkpt lat="38.6116233" lon="16.3226083"><ele>809.25</ele><time>2026-04-27T13:22:38.673Z</time></trkpt><trkpt lat="38.6114817" lon="16.32254"><ele>812.0</ele><time>2026-04-27T13:22:39.64Z</time></trkpt><trkpt lat="38.61135" lon="16.32248"><ele>812.0</ele><time>2026-04-27T13:22:40.64Z</time></trkpt><trkpt lat="38.61122" lon="16.3224267"><ele>812.0</ele><time>2026-04-27T13:22:41.641Z</time></trkpt><trkpt lat="38.6110967" lon="16.32238"><ele>812.0</ele><time>2026-04-27T13:22:42.641Z</time></trkpt><trkpt lat="38.61098" lon="16.3223517"><ele>812.0</ele><time>2026-04-27T13:22:43.64Z</time></trkpt><trkpt lat="38.6108833" lon="16.3223883"><ele>813.6</ele><time>2026-04-27T13:22:44.672Z</time></trkpt><trkpt lat="38.6107817" lon="16.3224033"><ele>815.2</ele><time>2026-04-27T13:22:45.644Z</time></trkpt><trkpt lat="38.6106883" lon="16.3224217"><ele>816.8</ele><time>2026-04-27T13:22:46.638Z</time></trkpt><trkpt lat="38.6105983" lon="16.322425"><ele>818.4</ele><time>2026-04-27T13:22:47.635Z</time></trkpt><trkpt lat="38.6105033" lon="16.322405"><ele>820.0</ele><time>2026-04-27T13:22:48.641Z</time></trkpt><trkpt lat="38.6104" lon="16.3223733"><ele>820.0</ele><time>2026-04-27T13:22:49.637Z</time></trkpt><trkpt lat="38.6103" lon="16.3223333"><ele>820.0</ele><time>2026-04-27T13:22:50.673Z</time></trkpt><trkpt lat="38.610205" lon="16.3222817"><ele>820.0</ele><time>2026-04-27T13:22:51.638Z</time></trkpt><trkpt lat="38.610115" lon="16.3222133"><ele>820.0</ele><time>2026-04-27T13:22:52.645Z</time></trkpt><trkpt lat="38.61002" lon="16.3221533"><ele>820.0</ele><time>2026-04-27T13:22:53.642Z</time></trkpt><trkpt lat="38.6099333" lon="16.32209"><ele>819.2</ele><time>2026-04-27T13:22:54.644Z</time></trkpt><trkpt lat="38.60986" lon="16.322015"><ele>818.4</ele><time>2026-04-27T13:22:55.646Z</time></trkpt><trkpt lat="38.60979" lon="16.3219233"><ele>817.5999999999999</ele><time>2026-04-27T13:22:56.698Z</time></trkpt><trkpt lat="38.6097317" lon="16.3218317"><ele>816.8</ele><time>2026-04-27T13:22:57.634Z</time></trkpt><trkpt lat="38.6096783" lon="16.3217417"><ele>816.0</ele><time>2026-04-27T13:22:58.635Z</time></trkpt><trkpt lat="38.6096283" lon="16.3216617"><ele>816.0</ele><time>2026-04-27T13:22:59.64Z</time></trkpt><trkpt lat="38.6095617" lon="16.321605"><ele>816.0</ele><time>2026-04-27T13:23:00.641Z</time></trkpt><trkpt lat="38.60949" lon="16.3216067"><ele>816.0</ele><time>2026-04-27T13:23:02.691Z</time></trkpt><trkpt lat="38.60942" lon="16.321675"><ele>816.0</ele><time>2026-04-27T13:23:04.641Z</time></trkpt><trkpt lat="38.6093433" lon="16.321745"><ele>816.0</ele><time>2026-04-27T13:23:06.642Z</time></trkpt><trkpt lat="38.60923" lon="16.321815"><ele>814.5999999999999</ele><time>2026-04-27T13:23:08.675Z</time></trkpt><trkpt lat="38.6091617" lon="16.321845"><ele>813.2</ele><time>2026-04-27T13:23:09.637Z</time></trkpt><trkpt lat="38.6090717" lon="16.321865"><ele>811.8</ele><time>2026-04-27T13:23:10.644Z</time></trkpt><trkpt lat="38.6089733" lon="16.321875"><ele>810.4000000000001</ele><time>2026-04-27T13:23:11.641Z</time></trkpt><trkpt lat="38.6088683" lon="16.3218767"><ele>809.0</ele><time>2026-04-27T13:23:12.642Z</time></trkpt><trkpt lat="38.6087683" lon="16.3218717"><ele>809.0000000000001</ele><time>2026-04-27T13:23:13.637Z</time></trkpt><trkpt lat="38.6086683" lon="16.3218617"><ele>809.0</ele><time>2026-04-27T13:23:14.676Z</time></trkpt><trkpt lat="38.6085783" lon="16.321845"><ele>809.0</ele><time>2026-04-27T13:23:15.642Z</time></trkpt><trkpt lat="38.6084983" lon="16.32182"><ele>809.0</ele><time>2026-04-27T13:23:16.644Z</time></trkpt><trkpt lat="38.6084267" lon="16.3217933"><ele>809.0000000000001</ele><time>2026-04-27T13:23:17.646Z</time></trkpt><trkpt lat="38.6083567" lon="16.3217783"><ele>809.0</ele><time>2026-04-27T13:23:18.645Z</time></trkpt><trkpt lat="38.60828" lon="16.3217767"><ele>809.75</ele><time>2026-04-27T13:23:19.637Z</time></trkpt><trkpt lat="38.6081817" lon="16.3217767"><ele>810.5</ele><time>2026-04-27T13:23:20.68Z</time></trkpt><trkpt lat="38.6080783" lon="16.3217767"><ele>811.25</ele><time>2026-04-27T13:23:21.64Z</time></trkpt><trkpt lat="38.60796" lon="16.3217583"><ele>812.0</ele><time>2026-04-27T13:23:22.641Z</time></trkpt><trkpt lat="38.6078333" lon="16.3217233"><ele>812.75</ele><time>2026-04-27T13:23:23.638Z</time></trkpt><trkpt lat="38.6077117" lon="16.32167"><ele>813.5</ele><time>2026-04-27T13:23:24.646Z</time></trkpt><trkpt lat="38.6075633" lon="16.321595"><ele>814.25</ele><time>2026-04-27T13:23:25.641Z</time></trkpt><trkpt lat="38.6074217" lon="16.3215117"><ele>815.0</ele><time>2026-04-27T13:23:26.667Z</time></trkpt><trkpt lat="38.6072883" lon="16.3214333"><ele>814.75</ele><time>2026-04-27T13:23:27.632Z</time></trkpt><trkpt lat="38.60716" lon="16.3213433"><ele>814.5</ele><time>2026-04-27T13:23:28.64Z</time></trkpt><trkpt lat="38.6070383" lon="16.3212517"><ele>814.25</ele><time>2026-04-27T13:23:29.642Z</time></trkpt><trkpt lat="38.60692" lon="16.3211717"><ele>814.0</ele><time>2026-04-27T13:23:30.641Z</time></trkpt><trkpt lat="38.6068033" lon="16.3211033"><ele>815.6</ele><time>2026-04-27T13:23:31.639Z</time></trkpt><trkpt lat="38.6066983" lon="16.3210533"><ele>817.2</ele><time>2026-04-27T13:23:32.702Z</time></trkpt><trkpt lat="38.6066067" lon="16.32102"><ele>818.8000000000001</ele><time>2026-04-27T13:23:33.636Z</time></trkpt><trkpt lat="38.6065183" lon="16.3209817"><ele>820.4000000000001</ele><time>2026-04-27T13:23:34.636Z</time></trkpt><trkpt lat="38.606425" lon="16.320935"><ele>822.0</ele><time>2026-04-27T13:23:35.642Z</time></trkpt><trkpt lat="38.606325" lon="16.3208933"><ele>822.0</ele><time>2026-04-27T13:23:36.638Z</time></trkpt><trkpt lat="38.6062083" lon="16.3208667"><ele>822.0</ele><time>2026-04-27T13:23:37.632Z</time></trkpt><trkpt lat="38.6060733" lon="16.32085"><ele>822.0</ele><time>2026-04-27T13:23:38.671Z</time></trkpt><trkpt lat="38.6059233" lon="16.320845"><ele>822.0</ele><time>2026-04-27T13:23:39.639Z</time></trkpt><trkpt lat="38.6057717" lon="16.32084"><ele>822.0</ele><time>2026-04-27T13:23:40.644Z</time></trkpt><trkpt lat="38.6056267" lon="16.3208283"><ele>822.0</ele><time>2026-04-27T13:23:41.632Z</time></trkpt><trkpt lat="38.6054817" lon="16.3208083"><ele>822.0</ele><time>2026-04-27T13:23:42.639Z</time></trkpt><trkpt lat="38.60533" lon="16.3207667"><ele>822.0</ele><time>2026-04-27T13:23:43.635Z</time></trkpt><trkpt lat="38.6051883" lon="16.3207283"><ele>820.5</ele><time>2026-04-27T13:23:44.675Z</time></trkpt><trkpt lat="38.6050533" lon="16.3206867"><ele>819.0</ele><time>2026-04-27T13:23:45.64Z</time></trkpt><trkpt lat="38.6049383" lon="16.32066"><ele>817.5</ele><time>2026-04-27T13:23:46.638Z</time></trkpt><trkpt lat="38.6048367" lon="16.3206433"><ele>816.0</ele><time>2026-04-27T13:23:47.636Z</time></trkpt><trkpt lat="38.6047383" lon="16.320655"><ele>816.0</ele><time>2026-04-27T13:23:48.643Z</time></trkpt><trkpt lat="38.6046233" lon="16.3206917"><ele>816.0</ele><time>2026-04-27T13:23:49.635Z</time></trkpt><trkpt lat="38.6044933" lon="16.32076"><ele>816.0</ele><time>2026-04-27T13:23:50.671Z</time></trkpt><trkpt lat="38.604355" lon="16.32083"><ele>816.0</ele><time>2026-04-27T13:23:51.635Z</time></trkpt><trkpt lat="38.6042133" lon="16.3209017"><ele>814.25</ele><time>2026-04-27T13:23:52.638Z</time></trkpt><trkpt lat="38.60408" lon="16.3209933"><ele>812.5</ele><time>2026-04-27T13:23:53.636Z</time></trkpt><trkpt lat="38.6039583" lon="16.321085"><ele>810.75</ele><time>2026-04-27T13:23:54.636Z</time></trkpt><trkpt lat="38.60385" lon="16.3211683"><ele>809.0</ele><time>2026-04-27T13:23:55.639Z</time></trkpt><trkpt lat="38.6037417" lon="16.32124"><ele>807.75</ele><time>2026-04-27T13:23:56.697Z</time></trkpt><trkpt lat="38.603625" lon="16.321295"><ele>806.5</ele><time>2026-04-27T13:23:57.635Z</time></trkpt><trkpt lat="38.6034883" lon="16.3213383"><ele>805.25</ele><time>2026-04-27T13:23:58.637Z</time></trkpt><trkpt lat="38.6033317" lon="16.32137"><ele>804.0</ele><time>2026-04-27T13:23:59.64Z</time></trkpt><trkpt lat="38.6031767" lon="16.3214"><ele>802.75</ele><time>2026-04-27T13:24:00.638Z</time></trkpt><trkpt lat="38.603025" lon="16.3214333"><ele>801.5</ele><time>2026-04-27T13:24:01.639Z</time></trkpt><trkpt lat="38.6029067" lon="16.32145"><ele>800.25</ele><time>2026-04-27T13:24:02.693Z</time></trkpt><trkpt lat="38.6028067" lon="16.321465"><ele>799.0</ele><time>2026-04-27T13:24:03.636Z</time></trkpt><trkpt lat="38.60273" lon="16.3214733"><ele>799.0</ele><time>2026-04-27T13:24:04.639Z</time></trkpt><trkpt lat="38.6026667" lon="16.3214833"><ele>799.0</ele><time>2026-04-27T13:24:05.639Z</time></trkpt><trkpt lat="38.6026467" lon="16.32157"><ele>799.0</ele><time>2026-04-27T13:24:07.637Z</time></trkpt><trkpt lat="38.6026817" lon="16.3216717"><ele>799.0</ele><time>2026-04-27T13:24:08.678Z</time></trkpt><trkpt lat="38.6027233" lon="16.3217967"><ele>799.0</ele><time>2026-04-27T13:24:09.638Z</time></trkpt><trkpt lat="38.6027767" lon="16.32195"><ele>799.0</ele><time>2026-04-27T13:24:10.645Z</time></trkpt><trkpt lat="38.602865" lon="16.3221533"><ele>799.0</ele><time>2026-04-27T13:24:11.639Z</time></trkpt><trkpt lat="38.6029567" lon="16.3223767"><ele>799.0</ele><time>2026-04-27T13:24:12.646Z</time></trkpt><trkpt lat="38.60305" lon="16.32261"><ele>796.0</ele><time>2026-04-27T13:24:13.639Z</time></trkpt><trkpt lat="38.6031433" lon="16.3228333"><ele>793.0</ele><time>2026-04-27T13:24:14.679Z</time></trkpt><trkpt lat="38.6032483" lon="16.3230367"><ele>790.0</ele><time>2026-04-27T13:24:15.64Z</time></trkpt><trkpt lat="38.6033817" lon="16.3232183"><ele>789.0</ele><time>2026-04-27T13:24:16.632Z</time></trkpt><trkpt lat="38.603525" lon="16.3233967"><ele>788.0</ele><time>2026-04-27T13:24:17.64Z</time></trkpt><trkpt lat="38.603645" lon="16.3235433"><ele>787.0</ele><time>2026-04-27T13:24:18.642Z</time></trkpt><trkpt lat="38.6037367" lon="16.3236833"><ele>787.0</ele><time>2026-04-27T13:24:19.638Z</time></trkpt><trkpt lat="38.6038067" lon="16.3238217"><ele>787.0</ele><time>2026-04-27T13:24:20.677Z</time></trkpt><trkpt lat="38.6038533" lon="16.3239817"><ele>787.0</ele><time>2026-04-27T13:24:21.637Z</time></trkpt><trkpt lat="38.6038817" lon="16.32418"><ele>787.0</ele><time>2026-04-27T13:24:22.637Z</time></trkpt><trkpt lat="38.60392" lon="16.3243967"><ele>786.3333333333333</ele><time>2026-04-27T13:24:23.645Z</time></trkpt><trkpt lat="38.603965" lon="16.3246167"><ele>785.6666666666667</ele><time>2026-04-27T13:24:24.639Z</time></trkpt><trkpt lat="38.6040167" lon="16.3248283"><ele>785.0</ele><time>2026-04-27T13:24:25.635Z</time></trkpt><trkpt lat="38.6040717" lon="16.325035"><ele>784.6666666666667</ele><time>2026-04-27T13:24:26.697Z</time></trkpt><trkpt lat="38.604135" lon="16.3252683"><ele>784.3333333333333</ele><time>2026-04-27T13:24:27.64Z</time></trkpt><trkpt lat="38.6042033" lon="16.3255"><ele>784.0</ele><time>2026-04-27T13:24:28.644Z</time></trkpt><trkpt lat="38.604275" lon="16.3257383"><ele>784.0</ele><time>2026-04-27T13:24:29.642Z</time></trkpt><trkpt lat="38.6043633" lon="16.3259633"><ele>784.0</ele><time>2026-04-27T13:24:30.644Z</time></trkpt><trkpt lat="38.6044433" lon="16.32617"><ele>784.0</ele><time>2026-04-27T13:24:31.637Z</time></trkpt><trkpt lat="38.6045333" lon="16.3263333"><ele>784.25</ele><time>2026-04-27T13:24:32.692Z</time></trkpt><trkpt lat="38.6046233" lon="16.32643"><ele>784.5</ele><time>2026-04-27T13:24:33.632Z</time></trkpt><trkpt lat="38.60475" lon="16.3264683"><ele>784.75</ele><time>2026-04-27T13:24:34.638Z</time></trkpt><trkpt lat="38.6048483" lon="16.3265267"><ele>785.0</ele><time>2026-04-27T13:24:35.637Z</time></trkpt><trkpt lat="38.6049317" lon="16.326585"><ele>785.0000000000001</ele><time>2026-04-27T13:24:36.641Z</time></trkpt><trkpt lat="38.604995" lon="16.3266517"><ele>785.0</ele><time>2026-04-27T13:24:37.636Z</time></trkpt><trkpt lat="38.6049983" lon="16.32675"><ele>785.0</ele><time>2026-04-27T13:24:38.671Z</time></trkpt><trkpt lat="38.6049917" lon="16.3268567"><ele>785.0</ele><time>2026-04-27T13:24:39.633Z</time></trkpt><trkpt lat="38.6049633" lon="16.3269517"><ele>785.0000000000001</ele><time>2026-04-27T13:24:40.636Z</time></trkpt><trkpt lat="38.6049117" lon="16.32704"><ele>785.0</ele><time>2026-04-27T13:24:41.636Z</time></trkpt><trkpt lat="38.6048317" lon="16.32711"><ele>785.0</ele><time>2026-04-27T13:24:42.637Z</time></trkpt><trkpt lat="38.60471" lon="16.327175"><ele>785.0</ele><time>2026-04-27T13:24:43.641Z</time></trkpt><trkpt lat="38.604475" lon="16.3271933"><ele>785.0</ele><time>2026-04-27T13:24:44.673Z</time></trkpt><trkpt lat="38.6042783" lon="16.3272283"><ele>783.0</ele><time>2026-04-27T13:24:45.636Z</time></trkpt><trkpt lat="38.6040683" lon="16.3272683"><ele>781.0</ele><time>2026-04-27T13:24:46.642Z</time></trkpt><trkpt lat="38.603845" lon="16.3273033"><ele>779.0</ele><time>2026-04-27T13:24:47.638Z</time></trkpt><trkpt lat="38.6036167" lon="16.3273383"><ele>777.0</ele><time>2026-04-27T13:24:48.639Z</time></trkpt><trkpt lat="38.6033733" lon="16.32737"><ele>775.0</ele><time>2026-04-27T13:24:49.639Z</time></trkpt><trkpt lat="38.6031267" lon="16.3274017"><ele>775.0</ele><time>2026-04-27T13:24:50.672Z</time></trkpt><trkpt lat="38.6028683" lon="16.327425"><ele>775.0</ele><time>2026-04-27T13:24:51.638Z</time></trkpt><trkpt lat="38.6026" lon="16.3274383"><ele>773.5</ele><time>2026-04-27T13:24:52.643Z</time></trkpt><trkpt lat="38.6023267" lon="16.3274483"><ele>772.0</ele><time>2026-04-27T13:24:53.64Z</time></trkpt><trkpt lat="38.60205" lon="16.3274683"><ele>775.5</ele><time>2026-04-27T13:24:54.65Z</time></trkpt><trkpt lat="38.6017767" lon="16.327495"><ele>779.0</ele><time>2026-04-27T13:24:55.637Z</time></trkpt><trkpt lat="38.6015083" lon="16.32753"><ele>779.0</ele><time>2026-04-27T13:24:56.699Z</time></trkpt><trkpt lat="38.601245" lon="16.3275833"><ele>779.0</ele><time>2026-04-27T13:24:57.64Z</time></trkpt><trkpt lat="38.6009767" lon="16.3276417"><ele>778.5</ele><time>2026-04-27T13:24:58.644Z</time></trkpt><trkpt lat="38.60071" lon="16.3277133"><ele>778.0</ele><time>2026-04-27T13:24:59.638Z</time></trkpt><trkpt lat="38.6004433" lon="16.3277967"><ele>776.0</ele><time>2026-04-27T13:25:00.642Z</time></trkpt><trkpt lat="38.60018" lon="16.3278917"><ele>774.0</ele><time>2026-04-27T13:25:01.633Z</time></trkpt><trkpt lat="38.599915" lon="16.327995"><ele>771.5</ele><time>2026-04-27T13:25:02.687Z</time></trkpt><trkpt lat="38.59965" lon="16.3281117"><ele>769.0</ele><time>2026-04-27T13:25:03.637Z</time></trkpt><trkpt lat="38.599385" lon="16.3282417"><ele>775.0</ele><time>2026-04-27T13:25:04.641Z</time></trkpt><trkpt lat="38.59913" lon="16.3283883"><ele>781.0</ele><time>2026-04-27T13:25:05.635Z</time></trkpt><trkpt lat="38.5988783" lon="16.328545"><ele>789.0</ele><time>2026-04-27T13:25:06.638Z</time></trkpt><trkpt lat="38.5986283" lon="16.3287017"><ele>797.0</ele><time>2026-04-27T13:25:07.635Z</time></trkpt><trkpt lat="38.5983833" lon="16.3288667"><ele>799.5</ele><time>2026-04-27T13:25:08.67Z</time></trkpt><trkpt lat="38.598135" lon="16.3290383"><ele>802.0</ele><time>2026-04-27T13:25:09.64Z</time></trkpt><trkpt lat="38.5978817" lon="16.329215"><ele>802.0</ele><time>2026-04-27T13:25:10.639Z</time></trkpt><trkpt lat="38.59763" lon="16.3293917"><ele>802.0</ele><time>2026-04-27T13:25:11.639Z</time></trkpt><trkpt lat="38.5973867" lon="16.329565"><ele>801.5</ele><time>2026-04-27T13:25:12.636Z</time></trkpt><trkpt lat="38.5971467" lon="16.3297317"><ele>801.0</ele><time>2026-04-27T13:25:13.644Z</time></trkpt><trkpt lat="38.5969217" lon="16.32989"><ele>800.5</ele><time>2026-04-27T13:25:14.672Z</time></trkpt><trkpt lat="38.5967017" lon="16.33004"><ele>800.0</ele><time>2026-04-27T13:25:15.635Z</time></trkpt><trkpt lat="38.5964867" lon="16.33018"><ele>800.0</ele><time>2026-04-27T13:25:16.646Z</time></trkpt><trkpt lat="38.5962717" lon="16.3303183"><ele>800.0</ele><time>2026-04-27T13:25:17.642Z</time></trkpt><trkpt lat="38.59606" lon="16.3304517"><ele>798.5</ele><time>2026-04-27T13:25:18.653Z</time></trkpt><trkpt lat="38.5958417" lon="16.3305783"><ele>797.0</ele><time>2026-04-27T13:25:19.649Z</time></trkpt><trkpt lat="38.5956267" lon="16.3306933"><ele>797.0</ele><time>2026-04-27T13:25:20.671Z</time></trkpt><trkpt lat="38.595415" lon="16.3308017"><ele>797.0</ele><time>2026-04-27T13:25:21.636Z</time></trkpt><trkpt lat="38.5952133" lon="16.3308883"><ele>797.0</ele><time>2026-04-27T13:25:22.642Z</time></trkpt><trkpt lat="38.5950167" lon="16.3309583"><ele>799.3333333333334</ele><time>2026-04-27T13:25:23.641Z</time></trkpt><trkpt lat="38.59482" lon="16.3310083"><ele>801.6666666666667</ele><time>2026-04-27T13:25:24.64Z</time></trkpt><trkpt lat="38.594635" lon="16.331045"><ele>804.0</ele><time>2026-04-27T13:25:25.641Z</time></trkpt><trkpt lat="38.5944517" lon="16.3310683"><ele>805.3333333333333</ele><time>2026-04-27T13:25:26.691Z</time></trkpt><trkpt lat="38.59427" lon="16.33108"><ele>806.6666666666666</ele><time>2026-04-27T13:25:27.638Z</time></trkpt><trkpt lat="38.59409" lon="16.3310817"><ele>808.0</ele><time>2026-04-27T13:25:28.661Z</time></trkpt><trkpt lat="38.593915" lon="16.3310783"><ele>808.0</ele><time>2026-04-27T13:25:29.641Z</time></trkpt><trkpt lat="38.593745" lon="16.3310717"><ele>808.0</ele><time>2026-04-27T13:25:30.638Z</time></trkpt><trkpt lat="38.593575" lon="16.331065"><ele>808.0</ele><time>2026-04-27T13:25:31.649Z</time></trkpt><trkpt lat="38.5933967" lon="16.3310317"><ele>806.75</ele><time>2026-04-27T13:25:32.69Z</time></trkpt><trkpt lat="38.5932317" lon="16.3310117"><ele>805.5</ele><time>2026-04-27T13:25:33.651Z</time></trkpt><trkpt lat="38.5930883" lon="16.331"><ele>804.25</ele><time>2026-04-27T13:25:34.651Z</time></trkpt><trkpt lat="38.592965" lon="16.3309783"><ele>803.0</ele><time>2026-04-27T13:25:35.643Z</time></trkpt><trkpt lat="38.592845" lon="16.330945"><ele>802.25</ele><time>2026-04-27T13:25:36.646Z</time></trkpt><trkpt lat="38.5927317" lon="16.33089"><ele>801.5</ele><time>2026-04-27T13:25:37.643Z</time></trkpt><trkpt lat="38.5926167" lon="16.3308317"><ele>800.75</ele><time>2026-04-27T13:25:38.672Z</time></trkpt><trkpt lat="38.592505" lon="16.3307983"><ele>800.0</ele><time>2026-04-27T13:25:39.645Z</time></trkpt><trkpt lat="38.592395" lon="16.3307967"><ele>800.0</ele><time>2026-04-27T13:25:40.637Z</time></trkpt><trkpt lat="38.5922867" lon="16.3308233"><ele>800.0</ele><time>2026-04-27T13:25:41.635Z</time></trkpt><trkpt lat="38.59219" lon="16.3308633"><ele>800.0</ele><time>2026-04-27T13:25:42.639Z</time></trkpt><trkpt lat="38.5920983" lon="16.3309267"><ele>800.0</ele><time>2026-04-27T13:25:43.639Z</time></trkpt><trkpt lat="38.5920533" lon="16.3310533"><ele>800.0</ele><time>2026-04-27T13:25:44.673Z</time></trkpt><trkpt lat="38.5920467" lon="16.3312"><ele>799.3333333333334</ele><time>2026-04-27T13:25:45.634Z</time></trkpt><trkpt lat="38.5921533" lon="16.3314183"><ele>798.6666666666667</ele><time>2026-04-27T13:25:46.64Z</time></trkpt><trkpt lat="38.592255" lon="16.331575"><ele>798.0</ele><time>2026-04-27T13:25:47.634Z</time></trkpt><trkpt lat="38.592305" lon="16.3317233"><ele>798.0</ele><time>2026-04-27T13:25:48.645Z</time></trkpt><trkpt lat="38.5923283" lon="16.3318683"><ele>798.0</ele><time>2026-04-27T13:25:49.643Z</time></trkpt><trkpt lat="38.5922983" lon="16.33202"><ele>798.0</ele><time>2026-04-27T13:25:50.678Z</time></trkpt><trkpt lat="38.59225" lon="16.332175"><ele>798.0</ele><time>2026-04-27T13:25:51.636Z</time></trkpt><trkpt lat="38.59215" lon="16.3323467"><ele>795.6666666666667</ele><time>2026-04-27T13:25:52.649Z</time></trkpt><trkpt lat="38.59205" lon="16.3325267"><ele>793.3333333333334</ele><time>2026-04-27T13:25:53.641Z</time></trkpt><trkpt lat="38.5919233" lon="16.332735"><ele>791.0</ele><time>2026-04-27T13:25:54.648Z</time></trkpt><trkpt lat="38.5917933" lon="16.33295"><ele>796.0</ele><time>2026-04-27T13:25:55.641Z</time></trkpt><trkpt lat="38.591655" lon="16.3331683"><ele>801.0</ele><time>2026-04-27T13:25:56.666Z</time></trkpt><trkpt lat="38.59151" lon="16.333385"><ele>806.0</ele><time>2026-04-27T13:25:57.65Z</time></trkpt><trkpt lat="38.5913617" lon="16.33359"><ele>806.0</ele><time>2026-04-27T13:25:58.642Z</time></trkpt><trkpt lat="38.59118" lon="16.333765"><ele>806.0</ele><time>2026-04-27T13:25:59.64Z</time></trkpt><trkpt lat="38.5909883" lon="16.33392"><ele>807.5</ele><time>2026-04-27T13:26:00.644Z</time></trkpt><trkpt lat="38.59077" lon="16.3340483"><ele>809.0</ele><time>2026-04-27T13:26:01.641Z</time></trkpt><trkpt lat="38.5905617" lon="16.3341767"><ele>809.0</ele><time>2026-04-27T13:26:02.692Z</time></trkpt><trkpt lat="38.5903717" lon="16.3343117"><ele>809.0</ele><time>2026-04-27T13:26:03.64Z</time></trkpt><trkpt lat="38.5901817" lon="16.3344633"><ele>809.0</ele><time>2026-04-27T13:26:04.646Z</time></trkpt><trkpt lat="38.5900433" lon="16.3346733"><ele>811.3333333333334</ele><time>2026-04-27T13:26:05.638Z</time></trkpt><trkpt lat="38.5899067" lon="16.334895"><ele>813.6666666666667</ele><time>2026-04-27T13:26:06.644Z</time></trkpt><trkpt lat="38.5897967" lon="16.3351317"><ele>816.0</ele><time>2026-04-27T13:26:07.639Z</time></trkpt><trkpt lat="38.5897067" lon="16.3353783"><ele>815.6666666666667</ele><time>2026-04-27T13:26:08.673Z</time></trkpt><trkpt lat="38.5896233" lon="16.335625"><ele>815.3333333333334</ele><time>2026-04-27T13:26:09.641Z</time></trkpt><trkpt lat="38.5895433" lon="16.3358567"><ele>815.0</ele><time>2026-04-27T13:26:10.649Z</time></trkpt><trkpt lat="38.5894683" lon="16.336075"><ele>814.8</ele><time>2026-04-27T13:26:11.634Z</time></trkpt><trkpt lat="38.589405" lon="16.336265"><ele>814.6</ele><time>2026-04-27T13:26:12.644Z</time></trkpt><trkpt lat="38.5893517" lon="16.3363867"><ele>814.4000000000001</ele><time>2026-04-27T13:26:13.639Z</time></trkpt><trkpt lat="38.58928" lon="16.3364467"><ele>814.2</ele><time>2026-04-27T13:26:14.674Z</time></trkpt><trkpt lat="38.5892067" lon="16.3364917"><ele>814.0</ele><time>2026-04-27T13:26:15.641Z</time></trkpt><trkpt lat="38.5891117" lon="16.336495"><ele>814.0</ele><time>2026-04-27T13:26:16.633Z</time></trkpt><trkpt lat="38.5890033" lon="16.33648"><ele>814.0</ele><time>2026-04-27T13:26:17.639Z</time></trkpt><trkpt lat="38.58888" lon="16.33645"><ele>814.0</ele><time>2026-04-27T13:26:18.645Z</time></trkpt><trkpt lat="38.58874" lon="16.336405"><ele>814.0</ele><time>2026-04-27T13:26:19.64Z</time></trkpt><trkpt lat="38.588585" lon="16.3363333"><ele>814.6666666666666</ele><time>2026-04-27T13:26:20.675Z</time></trkpt><trkpt lat="38.5884183" lon="16.336245"><ele>815.3333333333333</ele><time>2026-04-27T13:26:21.638Z</time></trkpt><trkpt lat="38.58825" lon="16.3361467"><ele>816.0</ele><time>2026-04-27T13:26:22.647Z</time></trkpt><trkpt lat="38.5880967" lon="16.33606"><ele>816.0</ele><time>2026-04-27T13:26:23.64Z</time></trkpt><trkpt lat="38.587955" lon="16.335985"><ele>816.0</ele><time>2026-04-27T13:26:24.633Z</time></trkpt><trkpt lat="38.587845" lon="16.3359783"><ele>816.0</ele><time>2026-04-27T13:26:25.639Z</time></trkpt><trkpt lat="38.5877417" lon="16.3360183"><ele>816.0</ele><time>2026-04-27T13:26:26.695Z</time></trkpt><trkpt lat="38.5876533" lon="16.336115"><ele>816.0</ele><time>2026-04-27T13:26:27.634Z</time></trkpt><trkpt lat="38.5875683" lon="16.336245"><ele>816.0</ele><time>2026-04-27T13:26:28.645Z</time></trkpt><trkpt lat="38.5874783" lon="16.33638"><ele>816.0</ele><time>2026-04-27T13:26:29.64Z</time></trkpt><trkpt lat="38.5873767" lon="16.3365017"><ele>816.0</ele><time>2026-04-27T13:26:30.645Z</time></trkpt><trkpt lat="38.5872533" lon="16.3365967"><ele>813.3333333333333</ele><time>2026-04-27T13:26:31.633Z</time></trkpt><trkpt lat="38.5871117" lon="16.336665"><ele>810.6666666666666</ele><time>2026-04-27T13:26:32.691Z</time></trkpt><trkpt lat="38.586945" lon="16.3366717"><ele>808.0</ele><time>2026-04-27T13:26:33.633Z</time></trkpt><trkpt lat="38.5867617" lon="16.33661"><ele>807.6666666666666</ele><time>2026-04-27T13:26:34.641Z</time></trkpt><trkpt lat="38.586605" lon="16.3365517"><ele>807.3333333333333</ele><time>2026-04-27T13:26:35.631Z</time></trkpt><trkpt lat="38.5864633" lon="16.3364817"><ele>807.0</ele><time>2026-04-27T13:26:36.635Z</time></trkpt><trkpt lat="38.5863533" lon="16.3363783"><ele>807.0</ele><time>2026-04-27T13:26:37.637Z</time></trkpt><trkpt lat="38.586265" lon="16.3362667"><ele>807.0</ele><time>2026-04-27T13:26:38.672Z</time></trkpt><trkpt lat="38.586225" lon="16.336115"><ele>807.0</ele><time>2026-04-27T13:26:39.635Z</time></trkpt><trkpt lat="38.5861717" lon="16.3359583"><ele>807.0</ele><time>2026-04-27T13:26:40.644Z</time></trkpt><trkpt lat="38.5861117" lon="16.3358217"><ele>806.0</ele><time>2026-04-27T13:26:41.636Z</time></trkpt><trkpt lat="38.5860317" lon="16.33571"><ele>805.0</ele><time>2026-04-27T13:26:42.642Z</time></trkpt><trkpt lat="38.5859333" lon="16.3356233"><ele>804.0</ele><time>2026-04-27T13:26:43.635Z</time></trkpt><trkpt lat="38.5858167" lon="16.3355733"><ele>803.0</ele><time>2026-04-27T13:26:44.673Z</time></trkpt><trkpt lat="38.58569" lon="16.33557"><ele>803.0</ele><time>2026-04-27T13:26:45.636Z</time></trkpt><trkpt lat="38.5855933" lon="16.3356033"><ele>803.0</ele><time>2026-04-27T13:26:46.648Z</time></trkpt><trkpt lat="38.5855067" lon="16.3356633"><ele>803.0</ele><time>2026-04-27T13:26:47.641Z</time></trkpt><trkpt lat="38.5854367" lon="16.335735"><ele>803.0</ele><time>2026-04-27T13:26:48.647Z</time></trkpt><trkpt lat="38.58539" lon="16.3358317"><ele>803.0</ele><time>2026-04-27T13:26:49.637Z</time></trkpt><trkpt lat="38.585395" lon="16.336015"><ele>803.0</ele><time>2026-04-27T13:26:50.673Z</time></trkpt><trkpt lat="38.585375" lon="16.33619"><ele>803.0</ele><time>2026-04-27T13:26:51.64Z</time></trkpt><trkpt lat="38.585345" lon="16.3363733"><ele>803.0</ele><time>2026-04-27T13:26:52.641Z</time></trkpt><trkpt lat="38.5852633" lon="16.3365267"><ele>803.0</ele><time>2026-04-27T13:26:53.638Z</time></trkpt><trkpt lat="38.5851767" lon="16.33666"><ele>803.5</ele><time>2026-04-27T13:26:54.642Z</time></trkpt><trkpt lat="38.5850917" lon="16.3367767"><ele>804.0</ele><time>2026-04-27T13:26:55.645Z</time></trkpt><trkpt lat="38.5850017" lon="16.33684"><ele>804.5</ele><time>2026-04-27T13:26:56.704Z</time></trkpt><trkpt lat="38.584895" lon="16.3368283"><ele>805.0</ele><time>2026-04-27T13:26:57.637Z</time></trkpt><trkpt lat="38.5847917" lon="16.3367433"><ele>805.0</ele><time>2026-04-27T13:26:58.645Z</time></trkpt><trkpt lat="38.5847217" lon="16.3365917"><ele>805.0</ele><time>2026-04-27T13:26:59.635Z</time></trkpt><trkpt lat="38.5846817" lon="16.3363917"><ele>805.0</ele><time>2026-04-27T13:27:00.645Z</time></trkpt><trkpt lat="38.5846333" lon="16.33609"><ele>804.6666666666666</ele><time>2026-04-27T13:27:01.639Z</time></trkpt><trkpt lat="38.5845817" lon="16.33587"><ele>804.3333333333333</ele><time>2026-04-27T13:27:02.692Z</time></trkpt><trkpt lat="38.584505" lon="16.33566"><ele>804.0</ele><time>2026-04-27T13:27:03.639Z</time></trkpt><trkpt lat="38.5844217" lon="16.3354783"><ele>805.3333333333333</ele><time>2026-04-27T13:27:04.635Z</time></trkpt><trkpt lat="38.5843217" lon="16.3353083"><ele>806.6666666666666</ele><time>2026-04-27T13:27:05.639Z</time></trkpt><trkpt lat="38.5842" lon="16.3351533"><ele>808.0</ele><time>2026-04-27T13:27:06.636Z</time></trkpt><trkpt lat="38.58406" lon="16.33501"><ele>808.0</ele><time>2026-04-27T13:27:07.639Z</time></trkpt><trkpt lat="38.5838883" lon="16.3348883"><ele>808.0</ele><time>2026-04-27T13:27:08.665Z</time></trkpt><trkpt lat="38.5837217" lon="16.3347533"><ele>808.0</ele><time>2026-04-27T13:27:09.636Z</time></trkpt><trkpt lat="38.5835517" lon="16.3346083"><ele>807.6666666666666</ele><time>2026-04-27T13:27:10.643Z</time></trkpt><trkpt lat="38.5833817" lon="16.3344567"><ele>807.3333333333333</ele><time>2026-04-27T13:27:11.64Z</time></trkpt><trkpt lat="38.5832083" lon="16.3343033"><ele>807.0</ele><time>2026-04-27T13:27:12.64Z</time></trkpt><trkpt lat="38.5830383" lon="16.33415"><ele>807.0</ele><time>2026-04-27T13:27:13.634Z</time></trkpt><trkpt lat="38.5828667" lon="16.3339933"><ele>807.0</ele><time>2026-04-27T13:27:14.666Z</time></trkpt><trkpt lat="38.582705" lon="16.333845"><ele>807.0</ele><time>2026-04-27T13:27:15.636Z</time></trkpt><trkpt lat="38.5825467" lon="16.3337033"><ele>805.6666666666667</ele><time>2026-04-27T13:27:16.64Z</time></trkpt><trkpt lat="38.5823933" lon="16.33357"><ele>804.3333333333334</ele><time>2026-04-27T13:27:17.646Z</time></trkpt><trkpt lat="38.5822517" lon="16.3334517"><ele>803.0</ele><time>2026-04-27T13:27:18.646Z</time></trkpt><trkpt lat="38.582125" lon="16.3333467"><ele>803.0</ele><time>2026-04-27T13:27:19.639Z</time></trkpt><trkpt lat="38.58202" lon="16.333255"><ele>803.0</ele><time>2026-04-27T13:27:20.667Z</time></trkpt><trkpt lat="38.5819367" lon="16.33319"><ele>803.0</ele><time>2026-04-27T13:27:21.639Z</time></trkpt><trkpt lat="38.5818467" lon="16.333115"><ele>803.0</ele><time>2026-04-27T13:27:22.64Z</time></trkpt><trkpt lat="38.5817517" lon="16.333045"><ele>803.0</ele><time>2026-04-27T13:27:23.636Z</time></trkpt><trkpt lat="38.58167" lon="16.332985"><ele>801.8333333333334</ele><time>2026-04-27T13:27:24.632Z</time></trkpt><trkpt lat="38.5815933" lon="16.332935"><ele>800.6666666666667</ele><time>2026-04-27T13:27:25.639Z</time></trkpt><trkpt lat="38.58152" lon="16.3328933"><ele>799.5</ele><time>2026-04-27T13:27:26.697Z</time></trkpt><trkpt lat="38.5814433" lon="16.332855"><ele>798.3333333333333</ele><time>2026-04-27T13:27:27.636Z</time></trkpt><trkpt lat="38.581365" lon="16.33282"><ele>797.1666666666666</ele><time>2026-04-27T13:27:28.638Z</time></trkpt><trkpt lat="38.5812817" lon="16.3327933"><ele>796.0</ele><time>2026-04-27T13:27:29.638Z</time></trkpt><trkpt lat="38.5811967" lon="16.3327767"><ele>795.9999999999999</ele><time>2026-04-27T13:27:30.642Z</time></trkpt><trkpt lat="38.581115" lon="16.3327533"><ele>796.0</ele><time>2026-04-27T13:27:31.64Z</time></trkpt><trkpt lat="38.58104" lon="16.3327233"><ele>796.0</ele><time>2026-04-27T13:27:32.691Z</time></trkpt><trkpt lat="38.5809783" lon="16.3326917"><ele>796.0</ele><time>2026-04-27T13:27:33.637Z</time></trkpt><trkpt lat="38.58088" lon="16.332635"><ele>795.9999999999999</ele><time>2026-04-27T13:27:35.642Z</time></trkpt><trkpt lat="38.5808083" lon="16.3326117"><ele>796.0</ele><time>2026-04-27T13:27:37.637Z</time></trkpt><trkpt lat="38.5807783" lon="16.33253"><ele>796.0</ele><time>2026-04-27T13:27:39.637Z</time></trkpt><trkpt lat="38.5807917" lon="16.3324133"><ele>796.0</ele><time>2026-04-27T13:27:41.642Z</time></trkpt><trkpt lat="38.58082" lon="16.332285"><ele>796.0</ele><time>2026-04-27T13:27:43.641Z</time></trkpt><trkpt lat="38.5808583" lon="16.3321767"><ele>796.0</ele><time>2026-04-27T13:27:45.638Z</time></trkpt><trkpt lat="38.5808183" lon="16.3320683"><ele>796.0</ele><time>2026-04-27T13:28:20.665Z</time></trkpt><trkpt lat="38.580835" lon="16.3319767"><ele>796.1666666666666</ele><time>2026-04-27T13:28:22.638Z</time></trkpt><trkpt lat="38.5808417" lon="16.3318633"><ele>796.3333333333333</ele><time>2026-04-27T13:28:24.641Z</time></trkpt><trkpt lat="38.5808683" lon="16.33176"><ele>796.5</ele><time>2026-04-27T13:28:26.694Z</time></trkpt><trkpt lat="38.5808767" lon="16.3316533"><ele>796.6666666666667</ele><time>2026-04-27T13:28:28.638Z</time></trkpt><trkpt lat="38.580875" lon="16.3315333"><ele>796.8333333333334</ele><time>2026-04-27T13:28:30.642Z</time></trkpt><trkpt lat="38.58088" lon="16.3314317"><ele>797.0</ele><time>2026-04-27T13:28:32.686Z</time></trkpt><trkpt lat="38.580895" lon="16.3313233"><ele>797.4000000000001</ele><time>2026-04-27T13:28:35.637Z</time></trkpt><trkpt lat="38.580905" lon="16.3312067"><ele>797.8000000000001</ele><time>2026-04-27T13:28:38.671Z</time></trkpt><trkpt lat="38.5809833" lon="16.3311867"><ele>798.2</ele><time>2026-04-27T13:28:41.649Z</time></trkpt><trkpt lat="38.58107" lon="16.3311933"><ele>798.6</ele><time>2026-04-27T13:28:43.64Z</time></trkpt><trkpt lat="38.5811417" lon="16.3311983"><ele>799.0</ele><time>2026-04-27T13:28:45.636Z</time></trkpt><trkpt lat="38.5812617" lon="16.3310833"><ele>799.0</ele><time>2026-04-27T13:32:35.645Z</time></trkpt><trkpt lat="38.5811383" lon="16.3311283"><ele>799.0</ele><time>2026-04-27T13:48:12.64Z</time></trkpt><trkpt lat="38.5811883" lon="16.331225"><ele>799.0</ele><time>2026-04-27T13:48:47.639Z</time></trkpt><trkpt lat="38.5811867" lon="16.3313433"><ele>799.0</ele><time>2026-04-27T13:52:50.667Z</time></trkpt><trkpt lat="38.58113" lon="16.3312683"><ele>799.0</ele><time>2026-04-27T13:53:09.655Z</time></trkpt><trkpt lat="38.5811833" lon="16.331225"><ele>799.4999999999999</ele><time>2026-04-27T13:53:32.671Z</time></trkpt><trkpt lat="38.5811283" lon="16.3311733"><ele>800.0</ele><time>2026-04-27T13:53:36.636Z</time></trkpt><trkpt lat="38.5810367" lon="16.331155"><ele>800.5</ele><time>2026-04-27T13:53:39.63Z</time></trkpt><trkpt lat="38.5809617" lon="16.3311183"><ele>801.0</ele><time>2026-04-27T13:53:41.631Z</time></trkpt><trkpt lat="38.58091" lon="16.33104"><ele>801.4999999999999</ele><time>2026-04-27T13:53:43.63Z</time></trkpt><trkpt lat="38.5808817" lon="16.3309183"><ele>802.0</ele><time>2026-04-27T13:53:45.628Z</time></trkpt><trkpt lat="38.58085" lon="16.3307817"><ele>801.9999999999999</ele><time>2026-04-27T13:53:47.627Z</time></trkpt><trkpt lat="38.5808317" lon="16.3307017"><ele>802.0</ele><time>2026-04-27T13:53:48.635Z</time></trkpt><trkpt lat="38.5808083" lon="16.330625"><ele>802.0</ele><time>2026-04-27T13:53:49.629Z</time></trkpt><trkpt lat="38.5807883" lon="16.330535"><ele>802.0</ele><time>2026-04-27T13:53:50.663Z</time></trkpt><trkpt lat="38.5807683" lon="16.330435"><ele>801.9999999999999</ele><time>2026-04-27T13:53:51.628Z</time></trkpt><trkpt lat="38.5807433" lon="16.3303167"><ele>802.0</ele><time>2026-04-27T13:53:52.629Z</time></trkpt><trkpt lat="38.5807183" lon="16.33019"><ele>803.5</ele><time>2026-04-27T13:53:53.629Z</time></trkpt><trkpt lat="38.5806833" lon="16.3300567"><ele>805.0</ele><time>2026-04-27T13:53:54.634Z</time></trkpt><trkpt lat="38.5806467" lon="16.3299217"><ele>806.5</ele><time>2026-04-27T13:53:55.634Z</time></trkpt><trkpt lat="38.5806" lon="16.3297867"><ele>808.0</ele><time>2026-04-27T13:53:56.683Z</time></trkpt><trkpt lat="38.58056" lon="16.32965"><ele>809.25</ele><time>2026-04-27T13:53:57.633Z</time></trkpt><trkpt lat="38.5805217" lon="16.3295167"><ele>810.5</ele><time>2026-04-27T13:53:58.628Z</time></trkpt><trkpt lat="38.58048" lon="16.3293833"><ele>811.75</ele><time>2026-04-27T13:53:59.631Z</time></trkpt><trkpt lat="38.5804267" lon="16.32925"><ele>813.0</ele><time>2026-04-27T13:54:00.63Z</time></trkpt><trkpt lat="38.5803633" lon="16.3291133"><ele>813.0</ele><time>2026-04-27T13:54:01.633Z</time></trkpt><trkpt lat="38.580295" lon="16.3289817"><ele>813.0</ele><time>2026-04-27T13:54:02.679Z</time></trkpt><trkpt lat="38.58022" lon="16.3288517"><ele>813.0</ele><time>2026-04-27T13:54:03.627Z</time></trkpt><trkpt lat="38.580145" lon="16.3287317"><ele>813.0</ele><time>2026-04-27T13:54:04.624Z</time></trkpt><trkpt lat="38.5800633" lon="16.3286117"><ele>813.8</ele><time>2026-04-27T13:54:05.632Z</time></trkpt><trkpt lat="38.5799817" lon="16.328495"><ele>814.5999999999999</ele><time>2026-04-27T13:54:06.637Z</time></trkpt><trkpt lat="38.579905" lon="16.32839"><ele>815.4000000000001</ele><time>2026-04-27T13:54:07.635Z</time></trkpt><trkpt lat="38.5798333" lon="16.3282833"><ele>816.2</ele><time>2026-04-27T13:54:08.664Z</time></trkpt><trkpt lat="38.5797683" lon="16.3281783"><ele>817.0</ele><time>2026-04-27T13:54:09.629Z</time></trkpt><trkpt lat="38.579695" lon="16.3280933"><ele>816.8</ele><time>2026-04-27T13:54:10.631Z</time></trkpt><trkpt lat="38.5796217" lon="16.3280117"><ele>816.6</ele><time>2026-04-27T13:54:11.635Z</time></trkpt><trkpt lat="38.5795383" lon="16.327935"><ele>816.4</ele><time>2026-04-27T13:54:12.631Z</time></trkpt><trkpt lat="38.5794533" lon="16.3278783"><ele>816.1999999999999</ele><time>2026-04-27T13:54:13.627Z</time></trkpt><trkpt lat="38.5793683" lon="16.3278433"><ele>816.0</ele><time>2026-04-27T13:54:14.67Z</time></trkpt><trkpt lat="38.5792733" lon="16.327835"><ele>816.0</ele><time>2026-04-27T13:54:15.63Z</time></trkpt><trkpt lat="38.5791667" lon="16.32785"><ele>816.0</ele><time>2026-04-27T13:54:16.628Z</time></trkpt><trkpt lat="38.5790833" lon="16.3278533"><ele>816.0</ele><time>2026-04-27T13:54:17.632Z</time></trkpt><trkpt lat="38.579015" lon="16.32786"><ele>816.0</ele><time>2026-04-27T13:54:18.632Z</time></trkpt><trkpt lat="38.57895" lon="16.3278617"><ele>816.0</ele><time>2026-04-27T13:54:19.631Z</time></trkpt><trkpt lat="38.5788433" lon="16.3278483"><ele>816.0</ele><time>2026-04-27T13:54:21.632Z</time></trkpt><trkpt lat="38.5787617" lon="16.3277933"><ele>816.0</ele><time>2026-04-27T13:54:23.627Z</time></trkpt><trkpt lat="38.5787" lon="16.3276883"><ele>816.0</ele><time>2026-04-27T13:54:25.632Z</time></trkpt><trkpt lat="38.5786883" lon="16.327595"><ele>816.0</ele><time>2026-04-27T13:54:26.685Z</time></trkpt><trkpt lat="38.5786867" lon="16.3274783"><ele>816.0</ele><time>2026-04-27T13:54:27.626Z</time></trkpt><trkpt lat="38.578705" lon="16.3273467"><ele>816.0</ele><time>2026-04-27T13:54:28.628Z</time></trkpt><trkpt lat="38.5787167" lon="16.3272183"><ele>816.1666666666666</ele><time>2026-04-27T13:54:29.632Z</time></trkpt><trkpt lat="38.5787383" lon="16.3270867"><ele>816.3333333333333</ele><time>2026-04-27T13:54:30.634Z</time></trkpt><trkpt lat="38.578745" lon="16.3269767"><ele>816.5</ele><time>2026-04-27T13:54:31.632Z</time></trkpt><trkpt lat="38.5787767" lon="16.326895"><ele>816.6666666666666</ele><time>2026-04-27T13:54:34.63Z</time></trkpt><trkpt lat="38.57868" lon="16.3268567"><ele>816.8333333333333</ele><time>2026-04-27T13:54:41.636Z</time></trkpt><trkpt lat="38.578605" lon="16.3268533"><ele>817.0</ele><time>2026-04-27T13:54:42.631Z</time></trkpt><trkpt lat="38.57854" lon="16.3268567"><ele>815.6666666666666</ele><time>2026-04-27T13:54:43.631Z</time></trkpt><trkpt lat="38.5784767" lon="16.3268567"><ele>814.3333333333333</ele><time>2026-04-27T13:54:44.666Z</time></trkpt><trkpt lat="38.5783683" lon="16.3268383"><ele>813.0</ele><time>2026-04-27T13:54:46.628Z</time></trkpt><trkpt lat="38.5782617" lon="16.3268267"><ele>811.6666666666667</ele><time>2026-04-27T13:54:48.628Z</time></trkpt><trkpt lat="38.57816" lon="16.326815"><ele>810.3333333333334</ele><time>2026-04-27T13:54:50.666Z</time></trkpt><trkpt lat="38.5780967" lon="16.3268083"><ele>809.0</ele><time>2026-04-27T13:54:51.63Z</time></trkpt><trkpt lat="38.57802" lon="16.32679"><ele>809.0</ele><time>2026-04-27T13:54:52.628Z</time></trkpt><trkpt lat="38.5779317" lon="16.32678"><ele>809.0</ele><time>2026-04-27T13:54:53.632Z</time></trkpt><trkpt lat="38.5778133" lon="16.3267817"><ele>809.0</ele><time>2026-04-27T13:54:54.63Z</time></trkpt><trkpt lat="38.5776933" lon="16.3267867"><ele>809.0</ele><time>2026-04-27T13:54:55.629Z</time></trkpt><trkpt lat="38.5775667" lon="16.3268067"><ele>807.4000000000001</ele><time>2026-04-27T13:54:56.683Z</time></trkpt><trkpt lat="38.5774483" lon="16.32683"><ele>805.8</ele><time>2026-04-27T13:54:57.632Z</time></trkpt><trkpt lat="38.57734" lon="16.3268617"><ele>804.2</ele><time>2026-04-27T13:54:58.63Z</time></trkpt><trkpt lat="38.5772417" lon="16.3268917"><ele>802.5999999999999</ele><time>2026-04-27T13:54:59.629Z</time></trkpt><trkpt lat="38.577155" lon="16.3269267"><ele>801.0</ele><time>2026-04-27T13:55:00.627Z</time></trkpt><trkpt lat="38.5770783" lon="16.32696"><ele>801.0</ele><time>2026-04-27T13:55:01.635Z</time></trkpt><trkpt lat="38.5769867" lon="16.3269917"><ele>801.0</ele><time>2026-04-27T13:55:03.625Z</time></trkpt><trkpt lat="38.5769233" lon="16.3269417"><ele>801.0</ele><time>2026-04-27T13:55:05.629Z</time></trkpt><trkpt lat="38.576905" lon="16.32685"><ele>801.0</ele><time>2026-04-27T13:55:06.634Z</time></trkpt><trkpt lat="38.5768833" lon="16.3267517"><ele>801.0</ele><time>2026-04-27T13:55:07.635Z</time></trkpt><trkpt lat="38.576855" lon="16.3266417"><ele>801.0</ele><time>2026-04-27T13:55:08.671Z</time></trkpt><trkpt lat="38.5768217" lon="16.3265183"><ele>801.75</ele><time>2026-04-27T13:55:09.631Z</time></trkpt><trkpt lat="38.5767767" lon="16.3263717"><ele>802.5</ele><time>2026-04-27T13:55:10.629Z</time></trkpt><trkpt lat="38.5767283" lon="16.3262283"><ele>803.25</ele><time>2026-04-27T13:55:11.626Z</time></trkpt><trkpt lat="38.576675" lon="16.3260817"><ele>804.0</ele><time>2026-04-27T13:55:12.631Z</time></trkpt><trkpt lat="38.57662" lon="16.325945"><ele>804.0</ele><time>2026-04-27T13:55:13.626Z</time></trkpt><trkpt lat="38.57657" lon="16.3258133"><ele>804.0</ele><time>2026-04-27T13:55:14.665Z</time></trkpt><trkpt lat="38.5765233" lon="16.32569"><ele>804.0</ele><time>2026-04-27T13:55:15.632Z</time></trkpt><trkpt lat="38.57649" lon="16.325605"><ele>804.0</ele><time>2026-04-27T13:55:16.627Z</time></trkpt><trkpt lat="38.5764683" lon="16.325515"><ele>804.0</ele><time>2026-04-27T13:55:18.626Z</time></trkpt><trkpt lat="38.5764483" lon="16.3254117"><ele>803.8000000000001</ele><time>2026-04-27T13:55:21.628Z</time></trkpt><trkpt lat="38.5764183" lon="16.325305"><ele>803.6</ele><time>2026-04-27T13:55:23.631Z</time></trkpt><trkpt lat="38.57639" lon="16.32519"><ele>803.4</ele><time>2026-04-27T13:55:25.63Z</time></trkpt><trkpt lat="38.5763567" lon="16.3250667"><ele>803.2</ele><time>2026-04-27T13:55:27.634Z</time></trkpt><trkpt lat="38.576305" lon="16.3249233"><ele>803.0</ele><time>2026-04-27T13:55:29.633Z</time></trkpt><trkpt lat="38.576265" lon="16.3248067"><ele>803.0000000000001</ele><time>2026-04-27T13:55:31.633Z</time></trkpt><trkpt lat="38.5762067" lon="16.324755"><ele>803.0</ele><time>2026-04-27T13:55:34.628Z</time></trkpt><trkpt lat="38.57622" lon="16.3248467"><ele>803.0</ele><time>2026-04-27T13:55:36.635Z</time></trkpt><trkpt lat="38.5762583" lon="16.324995"><ele>803.0</ele><time>2026-04-27T13:55:38.67Z</time></trkpt><trkpt lat="38.576285" lon="16.3250817"><ele>803.0000000000001</ele><time>2026-04-27T13:55:39.628Z</time></trkpt><trkpt lat="38.57631" lon="16.325175"><ele>803.0</ele><time>2026-04-27T13:55:40.629Z</time></trkpt><trkpt lat="38.5763367" lon="16.3252683"><ele>803.0000000000001</ele><time>2026-04-27T13:55:41.627Z</time></trkpt><trkpt lat="38.576365" lon="16.32536"><ele>803.0</ele><time>2026-04-27T13:55:42.63Z</time></trkpt><trkpt lat="38.5763933" lon="16.3254467"><ele>803.0</ele><time>2026-04-27T13:55:43.64Z</time></trkpt><trkpt lat="38.5764183" lon="16.3255283"><ele>803.0</ele><time>2026-04-27T13:55:44.67Z</time></trkpt><trkpt lat="38.5764417" lon="16.3256033"><ele>803.0000000000001</ele><time>2026-04-27T13:55:45.635Z</time></trkpt><trkpt lat="38.5764833" lon="16.325745"><ele>803.0</ele><time>2026-04-27T13:55:47.641Z</time></trkpt><trkpt lat="38.5765233" lon="16.325865"><ele>803.1666666666667</ele><time>2026-04-27T13:55:49.637Z</time></trkpt><trkpt lat="38.5765567" lon="16.3259633"><ele>803.3333333333334</ele><time>2026-04-27T13:55:51.632Z</time></trkpt><trkpt lat="38.5765867" lon="16.3260567"><ele>803.5</ele><time>2026-04-27T13:55:54.641Z</time></trkpt><trkpt lat="38.576655" lon="16.326065"><ele>803.6666666666667</ele><time>2026-04-27T13:56:03.632Z</time></trkpt><trkpt lat="38.5767217" lon="16.326015"><ele>803.8333333333334</ele><time>2026-04-27T13:56:05.637Z</time></trkpt><trkpt lat="38.5767917" lon="16.3259683"><ele>804.0</ele><time>2026-04-27T13:56:07.634Z</time></trkpt><trkpt lat="38.5768583" lon="16.325945"><ele>804.0</ele><time>2026-04-27T13:56:09.623Z</time></trkpt><trkpt lat="38.57693" lon="16.3259417"><ele>804.0</ele><time>2026-04-27T13:56:11.634Z</time></trkpt><trkpt lat="38.5770033" lon="16.32596"><ele>804.0</ele><time>2026-04-27T13:56:13.636Z</time></trkpt><trkpt lat="38.5770517" lon="16.3260267"><ele>804.0</ele><time>2026-04-27T13:56:16.628Z</time></trkpt><trkpt lat="38.5770217" lon="16.325945"><ele>804.0</ele><time>2026-04-27T13:58:05.636Z</time></trkpt><trkpt lat="38.5768232" lon="16.32613"><ele>804.0</ele><time>2026-04-27T13:58:07.633Z</time></trkpt><trkpt lat="38.5768822" lon="16.3260032"><ele>804.0</ele><time>2026-04-27T13:58:10.631Z</time></trkpt><trkpt lat="38.5769239" lon="16.3259183"><ele>804.0</ele><time>2026-04-27T13:58:14.668Z</time></trkpt><trkpt lat="38.5769626" lon="16.325852"><ele>804.0</ele><time>2026-04-27T13:59:04.634Z</time></trkpt><trkpt lat="38.5769766" lon="16.3259312"><ele>804.0</ele><time>2026-04-27T14:00:04.634Z</time></trkpt><trkpt lat="38.5769533" lon="16.3260282"><ele>804.0</ele><time>2026-04-27T14:00:26.689Z</time></trkpt><trkpt lat="38.576947" lon="16.3261209"><ele>804.0</ele><time>2026-04-27T14:00:29.637Z</time></trkpt><trkpt lat="38.5768712" lon="16.3260507"><ele>804.0</ele><time>2026-04-27T14:00:31.632Z</time></trkpt><trkpt lat="38.5768448" lon="16.3259754"><ele>804.0</ele><time>2026-04-27T14:00:36.634Z</time></trkpt><trkpt lat="38.5768709" lon="16.3261356"><ele>804.0</ele><time>2026-04-27T14:00:43.629Z</time></trkpt><trkpt lat="38.5769121" lon="16.3260693"><ele>804.0</ele><time>2026-04-27T14:05:00.625Z</time></trkpt><trkpt lat="38.5769532" lon="16.3260057"><ele>804.0</ele><time>2026-04-27T14:10:36.629Z</time></trkpt><trkpt lat="38.5769877" lon="16.3259337"><ele>804.0</ele><time>2026-04-27T14:10:38.637Z</time></trkpt><trkpt lat="38.5769794" lon="16.3258422"><ele>804.0</ele><time>2026-04-27T14:11:01.649Z</time></trkpt><trkpt lat="38.5769807" lon="16.3257391"><ele>804.0</ele><time>2026-04-27T14:11:04.628Z</time></trkpt><trkpt lat="38.5769772" lon="16.3256455"><ele>804.0</ele><time>2026-04-27T14:11:07.629Z</time></trkpt><trkpt lat="38.5769503" lon="16.3255659"><ele>804.0</ele><time>2026-04-27T14:11:11.626Z</time></trkpt><trkpt lat="38.576988" lon="16.3258898"><ele>801.0</ele><time>2026-04-27T14:11:46.621Z</time></trkpt><trkpt lat="38.5773783" lon="16.3266817"><ele>801.0</ele><time>2026-04-27T14:11:57.627Z</time></trkpt><trkpt lat="38.5773517" lon="16.3265917"><ele>801.0</ele><time>2026-04-27T14:11:59.624Z</time></trkpt><trkpt lat="38.5773633" lon="16.326675"><ele>801.0</ele><time>2026-04-27T14:12:14.637Z</time></trkpt><trkpt lat="38.5768682" lon="16.3261895"><ele>802.0</ele><time>2026-04-27T14:12:32.249Z</time></trkpt><trkpt lat="38.5771967" lon="16.3254667"><ele>802.0</ele><time>2026-04-27T14:12:34.632Z</time></trkpt><trkpt lat="38.5771433" lon="16.3255767"><ele>802.0</ele><time>2026-04-27T14:12:38.633Z</time></trkpt><trkpt lat="38.577105" lon="16.3257317"><ele>802.0</ele><time>2026-04-27T14:12:41.627Z</time></trkpt><trkpt lat="38.5770617" lon="16.3254833"><ele>802.0</ele><time>2026-04-27T14:13:20.627Z</time></trkpt><trkpt lat="38.576995" lon="16.325545"><ele>803.0</ele><time>2026-04-27T14:14:16.63Z</time></trkpt><trkpt lat="38.5770917" lon="16.3255933"><ele>802.0</ele><time>2026-04-27T14:14:28.624Z</time></trkpt><trkpt lat="38.5771267" lon="16.3255167"><ele>802.0</ele><time>2026-04-27T14:14:34.627Z</time></trkpt><trkpt lat="38.57704" lon="16.3254833"><ele>802.0</ele><time>2026-04-27T14:15:04.625Z</time></trkpt></trkseg></trk></gpx>